<?xml version="1.0" encoding="UTF-8" standalone="no" ?>
<gpx xmlns="http://www.topografix.com/GPX/1/1" xmlns:xsi="http://www.w3.org/2001/XMLSchema-instance" xsi:schemaLocation="http://www.topografix.com/GPX/1/1 http://www.topografix.com/GPX/1/1/gpx.xsd" version="1.1" creator="VisuGPX - https://www.visugpx.com">
  <metadata>
    <name>A C Rospez 25-01-15</name>
    <desc><![CDATA[Sortie du 25 janvier 2015 avec l\' A C Rospez]]></desc>
  </metadata>
  <trk>
    <name><![CDATA[A C Rospez 25-01-15_1]]></name>
    <trkseg>
      <trkpt lat="48.72939" lon="-3.38469">
        <ele>82</ele>
        <time>2015-01-25T08:04:01Z</time>
      </trkpt>
      <trkpt lat="48.72924" lon="-3.3851">
        <ele>83</ele>
        <time>2015-01-25T08:04:07Z</time>
      </trkpt>
      <trkpt lat="48.72922" lon="-3.38517">
        <ele>83</ele>
        <time>2015-01-25T08:04:08Z</time>
      </trkpt>
      <trkpt lat="48.72919" lon="-3.38524">
        <ele>82</ele>
        <time>2015-01-25T08:04:09Z</time>
      </trkpt>
      <trkpt lat="48.72916" lon="-3.38531">
        <ele>82</ele>
        <time>2015-01-25T08:04:10Z</time>
      </trkpt>
      <trkpt lat="48.72913" lon="-3.38538">
        <ele>82</ele>
        <time>2015-01-25T08:04:11Z</time>
      </trkpt>
      <trkpt lat="48.72911" lon="-3.38545">
        <ele>82</ele>
        <time>2015-01-25T08:04:12Z</time>
      </trkpt>
      <trkpt lat="48.72907" lon="-3.38551">
        <ele>82</ele>
        <time>2015-01-25T08:04:13Z</time>
      </trkpt>
      <trkpt lat="48.72904" lon="-3.38557">
        <ele>82</ele>
        <time>2015-01-25T08:04:14Z</time>
      </trkpt>
      <trkpt lat="48.72899" lon="-3.38562">
        <ele>82</ele>
        <time>2015-01-25T08:04:15Z</time>
      </trkpt>
      <trkpt lat="48.72895" lon="-3.38566">
        <ele>82</ele>
        <time>2015-01-25T08:04:16Z</time>
      </trkpt>
      <trkpt lat="48.72889" lon="-3.38569">
        <ele>82</ele>
        <time>2015-01-25T08:04:17Z</time>
      </trkpt>
      <trkpt lat="48.72884" lon="-3.38572">
        <ele>82</ele>
        <time>2015-01-25T08:04:18Z</time>
      </trkpt>
      <trkpt lat="48.72879" lon="-3.38574">
        <ele>82</ele>
        <time>2015-01-25T08:04:19Z</time>
      </trkpt>
      <trkpt lat="48.72874" lon="-3.38575">
        <ele>82</ele>
        <time>2015-01-25T08:04:20Z</time>
      </trkpt>
      <trkpt lat="48.72868" lon="-3.38577">
        <ele>82</ele>
        <time>2015-01-25T08:04:21Z</time>
      </trkpt>
      <trkpt lat="48.72863" lon="-3.38578">
        <ele>82</ele>
        <time>2015-01-25T08:04:22Z</time>
      </trkpt>
      <trkpt lat="48.72857" lon="-3.38579">
        <ele>82</ele>
        <time>2015-01-25T08:04:23Z</time>
      </trkpt>
      <trkpt lat="48.72851" lon="-3.3858">
        <ele>82</ele>
        <time>2015-01-25T08:04:24Z</time>
      </trkpt>
      <trkpt lat="48.72846" lon="-3.38582">
        <ele>82</ele>
        <time>2015-01-25T08:04:25Z</time>
      </trkpt>
      <trkpt lat="48.7284" lon="-3.38583">
        <ele>82</ele>
        <time>2015-01-25T08:04:26Z</time>
      </trkpt>
      <trkpt lat="48.72834" lon="-3.38585">
        <ele>82</ele>
        <time>2015-01-25T08:04:27Z</time>
      </trkpt>
      <trkpt lat="48.72829" lon="-3.38586">
        <ele>82</ele>
        <time>2015-01-25T08:04:28Z</time>
      </trkpt>
      <trkpt lat="48.72823" lon="-3.38588">
        <ele>82</ele>
        <time>2015-01-25T08:04:29Z</time>
      </trkpt>
      <trkpt lat="48.72818" lon="-3.38589">
        <ele>82</ele>
        <time>2015-01-25T08:04:30Z</time>
      </trkpt>
      <trkpt lat="48.72813" lon="-3.3859">
        <ele>82</ele>
        <time>2015-01-25T08:04:31Z</time>
      </trkpt>
      <trkpt lat="48.72808" lon="-3.38593">
        <ele>82</ele>
        <time>2015-01-25T08:04:32Z</time>
      </trkpt>
      <trkpt lat="48.72803" lon="-3.38596">
        <ele>82</ele>
        <time>2015-01-25T08:04:33Z</time>
      </trkpt>
      <trkpt lat="48.72799" lon="-3.386">
        <ele>82</ele>
        <time>2015-01-25T08:04:34Z</time>
      </trkpt>
      <trkpt lat="48.72794" lon="-3.38605">
        <ele>82</ele>
        <time>2015-01-25T08:04:35Z</time>
      </trkpt>
      <trkpt lat="48.7279" lon="-3.3861">
        <ele>82</ele>
        <time>2015-01-25T08:04:36Z</time>
      </trkpt>
      <trkpt lat="48.72786" lon="-3.38615">
        <ele>82</ele>
        <time>2015-01-25T08:04:37Z</time>
      </trkpt>
      <trkpt lat="48.72781" lon="-3.3862">
        <ele>82</ele>
        <time>2015-01-25T08:04:38Z</time>
      </trkpt>
      <trkpt lat="48.72777" lon="-3.38626">
        <ele>82</ele>
        <time>2015-01-25T08:04:39Z</time>
      </trkpt>
      <trkpt lat="48.72773" lon="-3.38631">
        <ele>82</ele>
        <time>2015-01-25T08:04:40Z</time>
      </trkpt>
      <trkpt lat="48.72769" lon="-3.38637">
        <ele>82</ele>
        <time>2015-01-25T08:04:41Z</time>
      </trkpt>
      <trkpt lat="48.72765" lon="-3.38643">
        <ele>82</ele>
        <time>2015-01-25T08:04:42Z</time>
      </trkpt>
      <trkpt lat="48.72762" lon="-3.38649">
        <ele>82</ele>
        <time>2015-01-25T08:04:43Z</time>
      </trkpt>
      <trkpt lat="48.72758" lon="-3.38654">
        <ele>82</ele>
        <time>2015-01-25T08:04:44Z</time>
      </trkpt>
      <trkpt lat="48.72754" lon="-3.3866">
        <ele>82</ele>
        <time>2015-01-25T08:04:45Z</time>
      </trkpt>
      <trkpt lat="48.7275" lon="-3.38665">
        <ele>82</ele>
        <time>2015-01-25T08:04:46Z</time>
      </trkpt>
      <trkpt lat="48.72747" lon="-3.38671">
        <ele>82</ele>
        <time>2015-01-25T08:04:47Z</time>
      </trkpt>
      <trkpt lat="48.72743" lon="-3.38676">
        <ele>82</ele>
        <time>2015-01-25T08:04:48Z</time>
      </trkpt>
      <trkpt lat="48.7274" lon="-3.38682">
        <ele>82</ele>
        <time>2015-01-25T08:04:49Z</time>
      </trkpt>
      <trkpt lat="48.72736" lon="-3.38688">
        <ele>82</ele>
        <time>2015-01-25T08:04:50Z</time>
      </trkpt>
      <trkpt lat="48.72733" lon="-3.38694">
        <ele>82</ele>
        <time>2015-01-25T08:04:51Z</time>
      </trkpt>
      <trkpt lat="48.72729" lon="-3.38699">
        <ele>82</ele>
        <time>2015-01-25T08:04:52Z</time>
      </trkpt>
      <trkpt lat="48.72726" lon="-3.38705">
        <ele>82</ele>
        <time>2015-01-25T08:04:53Z</time>
      </trkpt>
      <trkpt lat="48.72723" lon="-3.3871">
        <ele>82</ele>
        <time>2015-01-25T08:04:54Z</time>
      </trkpt>
      <trkpt lat="48.7272" lon="-3.38716">
        <ele>82</ele>
        <time>2015-01-25T08:04:55Z</time>
      </trkpt>
      <trkpt lat="48.72717" lon="-3.38721">
        <ele>82</ele>
        <time>2015-01-25T08:04:56Z</time>
      </trkpt>
      <trkpt lat="48.72715" lon="-3.38727">
        <ele>82</ele>
        <time>2015-01-25T08:04:57Z</time>
      </trkpt>
      <trkpt lat="48.72712" lon="-3.38732">
        <ele>82</ele>
        <time>2015-01-25T08:04:58Z</time>
      </trkpt>
      <trkpt lat="48.72709" lon="-3.38738">
        <ele>82</ele>
        <time>2015-01-25T08:04:59Z</time>
      </trkpt>
      <trkpt lat="48.72706" lon="-3.38744">
        <ele>82</ele>
        <time>2015-01-25T08:05:00Z</time>
      </trkpt>
      <trkpt lat="48.72703" lon="-3.3875">
        <ele>82</ele>
        <time>2015-01-25T08:05:01Z</time>
      </trkpt>
      <trkpt lat="48.72701" lon="-3.38756">
        <ele>82</ele>
        <time>2015-01-25T08:05:02Z</time>
      </trkpt>
      <trkpt lat="48.72699" lon="-3.38763">
        <ele>82</ele>
        <time>2015-01-25T08:05:03Z</time>
      </trkpt>
      <trkpt lat="48.72696" lon="-3.3877">
        <ele>82</ele>
        <time>2015-01-25T08:05:04Z</time>
      </trkpt>
      <trkpt lat="48.72694" lon="-3.38776">
        <ele>82</ele>
        <time>2015-01-25T08:05:05Z</time>
      </trkpt>
      <trkpt lat="48.72691" lon="-3.38783">
        <ele>82</ele>
        <time>2015-01-25T08:05:06Z</time>
      </trkpt>
      <trkpt lat="48.7269" lon="-3.3879">
        <ele>82</ele>
        <time>2015-01-25T08:05:07Z</time>
      </trkpt>
      <trkpt lat="48.72688" lon="-3.38797">
        <ele>82</ele>
        <time>2015-01-25T08:05:08Z</time>
      </trkpt>
      <trkpt lat="48.72686" lon="-3.38804">
        <ele>82</ele>
        <time>2015-01-25T08:05:09Z</time>
      </trkpt>
      <trkpt lat="48.72684" lon="-3.3881">
        <ele>82</ele>
        <time>2015-01-25T08:05:10Z</time>
      </trkpt>
      <trkpt lat="48.72683" lon="-3.38817">
        <ele>82</ele>
        <time>2015-01-25T08:05:11Z</time>
      </trkpt>
      <trkpt lat="48.72681" lon="-3.38824">
        <ele>82</ele>
        <time>2015-01-25T08:05:12Z</time>
      </trkpt>
      <trkpt lat="48.72679" lon="-3.38831">
        <ele>82</ele>
        <time>2015-01-25T08:05:13Z</time>
      </trkpt>
      <trkpt lat="48.72676" lon="-3.38838">
        <ele>82</ele>
        <time>2015-01-25T08:05:14Z</time>
      </trkpt>
      <trkpt lat="48.72674" lon="-3.38845">
        <ele>82</ele>
        <time>2015-01-25T08:05:15Z</time>
      </trkpt>
      <trkpt lat="48.72672" lon="-3.38852">
        <ele>82</ele>
        <time>2015-01-25T08:05:16Z</time>
      </trkpt>
      <trkpt lat="48.7267" lon="-3.38859">
        <ele>82</ele>
        <time>2015-01-25T08:05:17Z</time>
      </trkpt>
      <trkpt lat="48.72667" lon="-3.38867">
        <ele>82</ele>
        <time>2015-01-25T08:05:18Z</time>
      </trkpt>
      <trkpt lat="48.72665" lon="-3.38874">
        <ele>82</ele>
        <time>2015-01-25T08:05:19Z</time>
      </trkpt>
      <trkpt lat="48.72662" lon="-3.38881">
        <ele>82</ele>
        <time>2015-01-25T08:05:20Z</time>
      </trkpt>
      <trkpt lat="48.72659" lon="-3.38888">
        <ele>82</ele>
        <time>2015-01-25T08:05:21Z</time>
      </trkpt>
      <trkpt lat="48.72656" lon="-3.38896">
        <ele>82</ele>
        <time>2015-01-25T08:05:22Z</time>
      </trkpt>
      <trkpt lat="48.72653" lon="-3.38903">
        <ele>82</ele>
        <time>2015-01-25T08:05:23Z</time>
      </trkpt>
      <trkpt lat="48.7265" lon="-3.38911">
        <ele>82</ele>
        <time>2015-01-25T08:05:24Z</time>
      </trkpt>
      <trkpt lat="48.72647" lon="-3.38918">
        <ele>82</ele>
        <time>2015-01-25T08:05:25Z</time>
      </trkpt>
      <trkpt lat="48.72644" lon="-3.38926">
        <ele>82</ele>
        <time>2015-01-25T08:05:26Z</time>
      </trkpt>
      <trkpt lat="48.7264" lon="-3.38933">
        <ele>82</ele>
        <time>2015-01-25T08:05:27Z</time>
      </trkpt>
      <trkpt lat="48.72637" lon="-3.38941">
        <ele>82</ele>
        <time>2015-01-25T08:05:28Z</time>
      </trkpt>
      <trkpt lat="48.72634" lon="-3.38949">
        <ele>82</ele>
        <time>2015-01-25T08:05:29Z</time>
      </trkpt>
      <trkpt lat="48.7263" lon="-3.38957">
        <ele>82</ele>
        <time>2015-01-25T08:05:30Z</time>
      </trkpt>
      <trkpt lat="48.72627" lon="-3.38965">
        <ele>82</ele>
        <time>2015-01-25T08:05:31Z</time>
      </trkpt>
      <trkpt lat="48.72624" lon="-3.38973">
        <ele>82</ele>
        <time>2015-01-25T08:05:32Z</time>
      </trkpt>
      <trkpt lat="48.72621" lon="-3.3898">
        <ele>82</ele>
        <time>2015-01-25T08:05:33Z</time>
      </trkpt>
      <trkpt lat="48.72617" lon="-3.38988">
        <ele>82</ele>
        <time>2015-01-25T08:05:34Z</time>
      </trkpt>
      <trkpt lat="48.72614" lon="-3.38996">
        <ele>82</ele>
        <time>2015-01-25T08:05:35Z</time>
      </trkpt>
      <trkpt lat="48.7261" lon="-3.39003">
        <ele>82</ele>
        <time>2015-01-25T08:05:36Z</time>
      </trkpt>
      <trkpt lat="48.72606" lon="-3.39011">
        <ele>82</ele>
        <time>2015-01-25T08:05:37Z</time>
      </trkpt>
      <trkpt lat="48.72602" lon="-3.39019">
        <ele>82</ele>
        <time>2015-01-25T08:05:38Z</time>
      </trkpt>
      <trkpt lat="48.72599" lon="-3.39026">
        <ele>82</ele>
        <time>2015-01-25T08:05:39Z</time>
      </trkpt>
      <trkpt lat="48.72595" lon="-3.39034">
        <ele>82</ele>
        <time>2015-01-25T08:05:40Z</time>
      </trkpt>
      <trkpt lat="48.72591" lon="-3.39041">
        <ele>82</ele>
        <time>2015-01-25T08:05:41Z</time>
      </trkpt>
      <trkpt lat="48.72586" lon="-3.39048">
        <ele>82</ele>
        <time>2015-01-25T08:05:42Z</time>
      </trkpt>
      <trkpt lat="48.72583" lon="-3.39056">
        <ele>82</ele>
        <time>2015-01-25T08:05:43Z</time>
      </trkpt>
      <trkpt lat="48.72578" lon="-3.39063">
        <ele>82</ele>
        <time>2015-01-25T08:05:44Z</time>
      </trkpt>
      <trkpt lat="48.72574" lon="-3.39071">
        <ele>82</ele>
        <time>2015-01-25T08:05:45Z</time>
      </trkpt>
      <trkpt lat="48.7257" lon="-3.39078">
        <ele>82</ele>
        <time>2015-01-25T08:05:46Z</time>
      </trkpt>
      <trkpt lat="48.72566" lon="-3.39086">
        <ele>82</ele>
        <time>2015-01-25T08:05:47Z</time>
      </trkpt>
      <trkpt lat="48.72562" lon="-3.39093">
        <ele>82</ele>
        <time>2015-01-25T08:05:48Z</time>
      </trkpt>
      <trkpt lat="48.72558" lon="-3.39101">
        <ele>82</ele>
        <time>2015-01-25T08:05:49Z</time>
      </trkpt>
      <trkpt lat="48.72554" lon="-3.39108">
        <ele>83</ele>
        <time>2015-01-25T08:05:50Z</time>
      </trkpt>
      <trkpt lat="48.7255" lon="-3.39116">
        <ele>83</ele>
        <time>2015-01-25T08:05:51Z</time>
      </trkpt>
      <trkpt lat="48.72546" lon="-3.39123">
        <ele>83</ele>
        <time>2015-01-25T08:05:52Z</time>
      </trkpt>
      <trkpt lat="48.72542" lon="-3.39131">
        <ele>83</ele>
        <time>2015-01-25T08:05:53Z</time>
      </trkpt>
      <trkpt lat="48.72538" lon="-3.39139">
        <ele>83</ele>
        <time>2015-01-25T08:05:54Z</time>
      </trkpt>
      <trkpt lat="48.72534" lon="-3.39146">
        <ele>83</ele>
        <time>2015-01-25T08:05:55Z</time>
      </trkpt>
      <trkpt lat="48.7253" lon="-3.39154">
        <ele>83</ele>
        <time>2015-01-25T08:05:56Z</time>
      </trkpt>
      <trkpt lat="48.72525" lon="-3.39161">
        <ele>83</ele>
        <time>2015-01-25T08:05:57Z</time>
      </trkpt>
      <trkpt lat="48.72522" lon="-3.39169">
        <ele>83</ele>
        <time>2015-01-25T08:05:58Z</time>
      </trkpt>
      <trkpt lat="48.72518" lon="-3.39177">
        <ele>83</ele>
        <time>2015-01-25T08:05:59Z</time>
      </trkpt>
      <trkpt lat="48.72514" lon="-3.39185">
        <ele>83</ele>
        <time>2015-01-25T08:06:00Z</time>
      </trkpt>
      <trkpt lat="48.72511" lon="-3.39192">
        <ele>84</ele>
        <time>2015-01-25T08:06:01Z</time>
      </trkpt>
      <trkpt lat="48.72507" lon="-3.392">
        <ele>84</ele>
        <time>2015-01-25T08:06:02Z</time>
      </trkpt>
      <trkpt lat="48.72504" lon="-3.39208">
        <ele>84</ele>
        <time>2015-01-25T08:06:03Z</time>
      </trkpt>
      <trkpt lat="48.72501" lon="-3.39215">
        <ele>84</ele>
        <time>2015-01-25T08:06:04Z</time>
      </trkpt>
      <trkpt lat="48.72497" lon="-3.39223">
        <ele>84</ele>
        <time>2015-01-25T08:06:05Z</time>
      </trkpt>
      <trkpt lat="48.72494" lon="-3.39231">
        <ele>84</ele>
        <time>2015-01-25T08:06:06Z</time>
      </trkpt>
      <trkpt lat="48.72491" lon="-3.39239">
        <ele>84</ele>
        <time>2015-01-25T08:06:07Z</time>
      </trkpt>
      <trkpt lat="48.72487" lon="-3.39247">
        <ele>84</ele>
        <time>2015-01-25T08:06:08Z</time>
      </trkpt>
      <trkpt lat="48.72484" lon="-3.39254">
        <ele>84</ele>
        <time>2015-01-25T08:06:09Z</time>
      </trkpt>
      <trkpt lat="48.7248" lon="-3.39262">
        <ele>84</ele>
        <time>2015-01-25T08:06:10Z</time>
      </trkpt>
      <trkpt lat="48.72477" lon="-3.3927">
        <ele>84</ele>
        <time>2015-01-25T08:06:11Z</time>
      </trkpt>
      <trkpt lat="48.72474" lon="-3.39277">
        <ele>84</ele>
        <time>2015-01-25T08:06:12Z</time>
      </trkpt>
      <trkpt lat="48.72471" lon="-3.39284">
        <ele>84</ele>
        <time>2015-01-25T08:06:13Z</time>
      </trkpt>
      <trkpt lat="48.72468" lon="-3.39291">
        <ele>84</ele>
        <time>2015-01-25T08:06:14Z</time>
      </trkpt>
      <trkpt lat="48.72465" lon="-3.39299">
        <ele>84</ele>
        <time>2015-01-25T08:06:15Z</time>
      </trkpt>
      <trkpt lat="48.72461" lon="-3.39306">
        <ele>84</ele>
        <time>2015-01-25T08:06:16Z</time>
      </trkpt>
      <trkpt lat="48.72458" lon="-3.39313">
        <ele>84</ele>
        <time>2015-01-25T08:06:17Z</time>
      </trkpt>
      <trkpt lat="48.72454" lon="-3.3932">
        <ele>84</ele>
        <time>2015-01-25T08:06:18Z</time>
      </trkpt>
      <trkpt lat="48.72451" lon="-3.39327">
        <ele>84</ele>
        <time>2015-01-25T08:06:19Z</time>
      </trkpt>
      <trkpt lat="48.72447" lon="-3.39334">
        <ele>84</ele>
        <time>2015-01-25T08:06:20Z</time>
      </trkpt>
      <trkpt lat="48.72443" lon="-3.39342">
        <ele>84</ele>
        <time>2015-01-25T08:06:21Z</time>
      </trkpt>
      <trkpt lat="48.7244" lon="-3.39349">
        <ele>84</ele>
        <time>2015-01-25T08:06:22Z</time>
      </trkpt>
      <trkpt lat="48.72436" lon="-3.39355">
        <ele>84</ele>
        <time>2015-01-25T08:06:23Z</time>
      </trkpt>
      <trkpt lat="48.72432" lon="-3.39362">
        <ele>84</ele>
        <time>2015-01-25T08:06:24Z</time>
      </trkpt>
      <trkpt lat="48.72428" lon="-3.39369">
        <ele>84</ele>
        <time>2015-01-25T08:06:25Z</time>
      </trkpt>
      <trkpt lat="48.72424" lon="-3.39376">
        <ele>84</ele>
        <time>2015-01-25T08:06:26Z</time>
      </trkpt>
      <trkpt lat="48.7242" lon="-3.39382">
        <ele>84</ele>
        <time>2015-01-25T08:06:27Z</time>
      </trkpt>
      <trkpt lat="48.72416" lon="-3.39389">
        <ele>84</ele>
        <time>2015-01-25T08:06:28Z</time>
      </trkpt>
      <trkpt lat="48.72411" lon="-3.39396">
        <ele>84</ele>
        <time>2015-01-25T08:06:29Z</time>
      </trkpt>
      <trkpt lat="48.72407" lon="-3.39402">
        <ele>84</ele>
        <time>2015-01-25T08:06:30Z</time>
      </trkpt>
      <trkpt lat="48.72402" lon="-3.39408">
        <ele>84</ele>
        <time>2015-01-25T08:06:31Z</time>
      </trkpt>
      <trkpt lat="48.72398" lon="-3.39415">
        <ele>84</ele>
        <time>2015-01-25T08:06:32Z</time>
      </trkpt>
      <trkpt lat="48.72393" lon="-3.39422">
        <ele>84</ele>
        <time>2015-01-25T08:06:33Z</time>
      </trkpt>
      <trkpt lat="48.72388" lon="-3.39429">
        <ele>84</ele>
        <time>2015-01-25T08:06:34Z</time>
      </trkpt>
      <trkpt lat="48.72383" lon="-3.39436">
        <ele>84</ele>
        <time>2015-01-25T08:06:35Z</time>
      </trkpt>
      <trkpt lat="48.72378" lon="-3.39443">
        <ele>84</ele>
        <time>2015-01-25T08:06:36Z</time>
      </trkpt>
      <trkpt lat="48.72372" lon="-3.3945">
        <ele>84</ele>
        <time>2015-01-25T08:06:37Z</time>
      </trkpt>
      <trkpt lat="48.72367" lon="-3.39457">
        <ele>84</ele>
        <time>2015-01-25T08:06:38Z</time>
      </trkpt>
      <trkpt lat="48.72362" lon="-3.39464">
        <ele>84</ele>
        <time>2015-01-25T08:06:39Z</time>
      </trkpt>
      <trkpt lat="48.72357" lon="-3.39471">
        <ele>84</ele>
        <time>2015-01-25T08:06:40Z</time>
      </trkpt>
      <trkpt lat="48.72352" lon="-3.39478">
        <ele>84</ele>
        <time>2015-01-25T08:06:41Z</time>
      </trkpt>
      <trkpt lat="48.72346" lon="-3.39486">
        <ele>84</ele>
        <time>2015-01-25T08:06:42Z</time>
      </trkpt>
      <trkpt lat="48.72341" lon="-3.39493">
        <ele>84</ele>
        <time>2015-01-25T08:06:43Z</time>
      </trkpt>
      <trkpt lat="48.72336" lon="-3.39501">
        <ele>84</ele>
        <time>2015-01-25T08:06:44Z</time>
      </trkpt>
      <trkpt lat="48.72331" lon="-3.39509">
        <ele>84</ele>
        <time>2015-01-25T08:06:45Z</time>
      </trkpt>
      <trkpt lat="48.72326" lon="-3.39517">
        <ele>84</ele>
        <time>2015-01-25T08:06:46Z</time>
      </trkpt>
      <trkpt lat="48.72321" lon="-3.39525">
        <ele>84</ele>
        <time>2015-01-25T08:06:47Z</time>
      </trkpt>
      <trkpt lat="48.72317" lon="-3.39534">
        <ele>84</ele>
        <time>2015-01-25T08:06:48Z</time>
      </trkpt>
      <trkpt lat="48.72313" lon="-3.39542">
        <ele>84</ele>
        <time>2015-01-25T08:06:49Z</time>
      </trkpt>
      <trkpt lat="48.72308" lon="-3.39551">
        <ele>83</ele>
        <time>2015-01-25T08:06:50Z</time>
      </trkpt>
      <trkpt lat="48.72304" lon="-3.39561">
        <ele>83</ele>
        <time>2015-01-25T08:06:51Z</time>
      </trkpt>
      <trkpt lat="48.723" lon="-3.3957">
        <ele>83</ele>
        <time>2015-01-25T08:06:52Z</time>
      </trkpt>
      <trkpt lat="48.72295" lon="-3.39579">
        <ele>82</ele>
        <time>2015-01-25T08:06:53Z</time>
      </trkpt>
      <trkpt lat="48.72291" lon="-3.39588">
        <ele>82</ele>
        <time>2015-01-25T08:06:54Z</time>
      </trkpt>
      <trkpt lat="48.72286" lon="-3.39596">
        <ele>82</ele>
        <time>2015-01-25T08:06:55Z</time>
      </trkpt>
      <trkpt lat="48.7228" lon="-3.39604">
        <ele>82</ele>
        <time>2015-01-25T08:06:56Z</time>
      </trkpt>
      <trkpt lat="48.72275" lon="-3.39611">
        <ele>82</ele>
        <time>2015-01-25T08:06:57Z</time>
      </trkpt>
      <trkpt lat="48.72269" lon="-3.39617">
        <ele>82</ele>
        <time>2015-01-25T08:06:58Z</time>
      </trkpt>
      <trkpt lat="48.72263" lon="-3.39623">
        <ele>81</ele>
        <time>2015-01-25T08:06:59Z</time>
      </trkpt>
      <trkpt lat="48.72256" lon="-3.39628">
        <ele>81</ele>
        <time>2015-01-25T08:07:00Z</time>
      </trkpt>
      <trkpt lat="48.7225" lon="-3.39633">
        <ele>81</ele>
        <time>2015-01-25T08:07:01Z</time>
      </trkpt>
      <trkpt lat="48.72243" lon="-3.39637">
        <ele>81</ele>
        <time>2015-01-25T08:07:02Z</time>
      </trkpt>
      <trkpt lat="48.72236" lon="-3.39643">
        <ele>80</ele>
        <time>2015-01-25T08:07:03Z</time>
      </trkpt>
      <trkpt lat="48.72229" lon="-3.39648">
        <ele>80</ele>
        <time>2015-01-25T08:07:04Z</time>
      </trkpt>
      <trkpt lat="48.72222" lon="-3.39652">
        <ele>80</ele>
        <time>2015-01-25T08:07:05Z</time>
      </trkpt>
      <trkpt lat="48.72215" lon="-3.39657">
        <ele>80</ele>
        <time>2015-01-25T08:07:06Z</time>
      </trkpt>
      <trkpt lat="48.72208" lon="-3.39662">
        <ele>79</ele>
        <time>2015-01-25T08:07:07Z</time>
      </trkpt>
      <trkpt lat="48.722" lon="-3.39667">
        <ele>79</ele>
        <time>2015-01-25T08:07:08Z</time>
      </trkpt>
      <trkpt lat="48.72193" lon="-3.39672">
        <ele>79</ele>
        <time>2015-01-25T08:07:09Z</time>
      </trkpt>
      <trkpt lat="48.72185" lon="-3.39677">
        <ele>79</ele>
        <time>2015-01-25T08:07:10Z</time>
      </trkpt>
      <trkpt lat="48.72178" lon="-3.39681">
        <ele>79</ele>
        <time>2015-01-25T08:07:11Z</time>
      </trkpt>
      <trkpt lat="48.72171" lon="-3.39686">
        <ele>79</ele>
        <time>2015-01-25T08:07:12Z</time>
      </trkpt>
      <trkpt lat="48.72163" lon="-3.3969">
        <ele>79</ele>
        <time>2015-01-25T08:07:13Z</time>
      </trkpt>
      <trkpt lat="48.72156" lon="-3.39694">
        <ele>79</ele>
        <time>2015-01-25T08:07:14Z</time>
      </trkpt>
      <trkpt lat="48.72149" lon="-3.39698">
        <ele>79</ele>
        <time>2015-01-25T08:07:15Z</time>
      </trkpt>
      <trkpt lat="48.72141" lon="-3.39703">
        <ele>79</ele>
        <time>2015-01-25T08:07:16Z</time>
      </trkpt>
      <trkpt lat="48.72134" lon="-3.39706">
        <ele>79</ele>
        <time>2015-01-25T08:07:17Z</time>
      </trkpt>
      <trkpt lat="48.72127" lon="-3.39711">
        <ele>79</ele>
        <time>2015-01-25T08:07:17Z</time>
      </trkpt>
      <trkpt lat="48.7212" lon="-3.39714">
        <ele>79</ele>
        <time>2015-01-25T08:07:19Z</time>
      </trkpt>
      <trkpt lat="48.72113" lon="-3.39718">
        <ele>79</ele>
        <time>2015-01-25T08:07:20Z</time>
      </trkpt>
      <trkpt lat="48.72106" lon="-3.39722">
        <ele>79</ele>
        <time>2015-01-25T08:07:21Z</time>
      </trkpt>
      <trkpt lat="48.72099" lon="-3.39726">
        <ele>79</ele>
        <time>2015-01-25T08:07:22Z</time>
      </trkpt>
      <trkpt lat="48.72092" lon="-3.3973">
        <ele>79</ele>
        <time>2015-01-25T08:07:23Z</time>
      </trkpt>
      <trkpt lat="48.72085" lon="-3.39734">
        <ele>79</ele>
        <time>2015-01-25T08:07:24Z</time>
      </trkpt>
      <trkpt lat="48.72078" lon="-3.39738">
        <ele>79</ele>
        <time>2015-01-25T08:07:25Z</time>
      </trkpt>
      <trkpt lat="48.72071" lon="-3.39743">
        <ele>79</ele>
        <time>2015-01-25T08:07:26Z</time>
      </trkpt>
      <trkpt lat="48.72064" lon="-3.39747">
        <ele>79</ele>
        <time>2015-01-25T08:07:27Z</time>
      </trkpt>
      <trkpt lat="48.72057" lon="-3.39751">
        <ele>79</ele>
        <time>2015-01-25T08:07:28Z</time>
      </trkpt>
      <trkpt lat="48.7205" lon="-3.39755">
        <ele>78</ele>
        <time>2015-01-25T08:07:29Z</time>
      </trkpt>
      <trkpt lat="48.72044" lon="-3.39759">
        <ele>78</ele>
        <time>2015-01-25T08:07:30Z</time>
      </trkpt>
      <trkpt lat="48.72036" lon="-3.39764">
        <ele>78</ele>
        <time>2015-01-25T08:07:31Z</time>
      </trkpt>
      <trkpt lat="48.7203" lon="-3.39768">
        <ele>78</ele>
        <time>2015-01-25T08:07:32Z</time>
      </trkpt>
      <trkpt lat="48.72023" lon="-3.39772">
        <ele>78</ele>
        <time>2015-01-25T08:07:33Z</time>
      </trkpt>
      <trkpt lat="48.72015" lon="-3.39776">
        <ele>78</ele>
        <time>2015-01-25T08:07:34Z</time>
      </trkpt>
      <trkpt lat="48.72009" lon="-3.3978">
        <ele>78</ele>
        <time>2015-01-25T08:07:35Z</time>
      </trkpt>
      <trkpt lat="48.72002" lon="-3.39784">
        <ele>78</ele>
        <time>2015-01-25T08:07:36Z</time>
      </trkpt>
      <trkpt lat="48.71995" lon="-3.39788">
        <ele>78</ele>
        <time>2015-01-25T08:07:37Z</time>
      </trkpt>
      <trkpt lat="48.71988" lon="-3.39791">
        <ele>78</ele>
        <time>2015-01-25T08:07:37Z</time>
      </trkpt>
      <trkpt lat="48.71981" lon="-3.39795">
        <ele>78</ele>
        <time>2015-01-25T08:07:39Z</time>
      </trkpt>
      <trkpt lat="48.71974" lon="-3.39798">
        <ele>78</ele>
        <time>2015-01-25T08:07:40Z</time>
      </trkpt>
      <trkpt lat="48.71967" lon="-3.398">
        <ele>78</ele>
        <time>2015-01-25T08:07:41Z</time>
      </trkpt>
      <trkpt lat="48.71961" lon="-3.39802">
        <ele>78</ele>
        <time>2015-01-25T08:07:41Z</time>
      </trkpt>
      <trkpt lat="48.71954" lon="-3.39804">
        <ele>78</ele>
        <time>2015-01-25T08:07:43Z</time>
      </trkpt>
      <trkpt lat="48.71947" lon="-3.39804">
        <ele>77</ele>
        <time>2015-01-25T08:07:44Z</time>
      </trkpt>
      <trkpt lat="48.71933" lon="-3.39803">
        <ele>77</ele>
        <time>2015-01-25T08:07:46Z</time>
      </trkpt>
      <trkpt lat="48.71926" lon="-3.39801">
        <ele>77</ele>
        <time>2015-01-25T08:07:47Z</time>
      </trkpt>
      <trkpt lat="48.71919" lon="-3.39799">
        <ele>76</ele>
        <time>2015-01-25T08:07:48Z</time>
      </trkpt>
      <trkpt lat="48.71911" lon="-3.39797">
        <ele>76</ele>
        <time>2015-01-25T08:07:49Z</time>
      </trkpt>
      <trkpt lat="48.71904" lon="-3.39795">
        <ele>76</ele>
        <time>2015-01-25T08:07:49Z</time>
      </trkpt>
      <trkpt lat="48.71896" lon="-3.39793">
        <ele>76</ele>
        <time>2015-01-25T08:07:51Z</time>
      </trkpt>
      <trkpt lat="48.71887" lon="-3.39791">
        <ele>75</ele>
        <time>2015-01-25T08:07:52Z</time>
      </trkpt>
      <trkpt lat="48.71878" lon="-3.3979">
        <ele>75</ele>
        <time>2015-01-25T08:07:53Z</time>
      </trkpt>
      <trkpt lat="48.71869" lon="-3.39789">
        <ele>74</ele>
        <time>2015-01-25T08:07:54Z</time>
      </trkpt>
      <trkpt lat="48.7186" lon="-3.39789">
        <ele>74</ele>
        <time>2015-01-25T08:07:55Z</time>
      </trkpt>
      <trkpt lat="48.71851" lon="-3.39789">
        <ele>73</ele>
        <time>2015-01-25T08:07:56Z</time>
      </trkpt>
      <trkpt lat="48.71842" lon="-3.39788">
        <ele>73</ele>
        <time>2015-01-25T08:07:57Z</time>
      </trkpt>
      <trkpt lat="48.71833" lon="-3.39787">
        <ele>72</ele>
        <time>2015-01-25T08:07:58Z</time>
      </trkpt>
      <trkpt lat="48.71823" lon="-3.39785">
        <ele>72</ele>
        <time>2015-01-25T08:07:59Z</time>
      </trkpt>
      <trkpt lat="48.71814" lon="-3.39782">
        <ele>72</ele>
        <time>2015-01-25T08:08:00Z</time>
      </trkpt>
      <trkpt lat="48.71806" lon="-3.39778">
        <ele>71</ele>
        <time>2015-01-25T08:08:01Z</time>
      </trkpt>
      <trkpt lat="48.71798" lon="-3.39774">
        <ele>71</ele>
        <time>2015-01-25T08:08:02Z</time>
      </trkpt>
      <trkpt lat="48.7179" lon="-3.3977">
        <ele>71</ele>
        <time>2015-01-25T08:08:03Z</time>
      </trkpt>
      <trkpt lat="48.71783" lon="-3.39765">
        <ele>71</ele>
        <time>2015-01-25T08:08:04Z</time>
      </trkpt>
      <trkpt lat="48.71775" lon="-3.3976">
        <ele>71</ele>
        <time>2015-01-25T08:08:05Z</time>
      </trkpt>
      <trkpt lat="48.71768" lon="-3.39755">
        <ele>71</ele>
        <time>2015-01-25T08:08:06Z</time>
      </trkpt>
      <trkpt lat="48.71761" lon="-3.39751">
        <ele>70</ele>
        <time>2015-01-25T08:08:07Z</time>
      </trkpt>
      <trkpt lat="48.71753" lon="-3.39747">
        <ele>70</ele>
        <time>2015-01-25T08:08:08Z</time>
      </trkpt>
      <trkpt lat="48.71745" lon="-3.39744">
        <ele>70</ele>
        <time>2015-01-25T08:08:09Z</time>
      </trkpt>
      <trkpt lat="48.71738" lon="-3.39742">
        <ele>70</ele>
        <time>2015-01-25T08:08:10Z</time>
      </trkpt>
      <trkpt lat="48.7173" lon="-3.39741">
        <ele>69</ele>
        <time>2015-01-25T08:08:11Z</time>
      </trkpt>
      <trkpt lat="48.71713" lon="-3.39742">
        <ele>69</ele>
        <time>2015-01-25T08:08:13Z</time>
      </trkpt>
      <trkpt lat="48.71705" lon="-3.39743">
        <ele>69</ele>
        <time>2015-01-25T08:08:14Z</time>
      </trkpt>
      <trkpt lat="48.71697" lon="-3.39746">
        <ele>69</ele>
        <time>2015-01-25T08:08:15Z</time>
      </trkpt>
      <trkpt lat="48.7169" lon="-3.3975">
        <ele>69</ele>
        <time>2015-01-25T08:08:16Z</time>
      </trkpt>
      <trkpt lat="48.71682" lon="-3.39755">
        <ele>69</ele>
        <time>2015-01-25T08:08:17Z</time>
      </trkpt>
      <trkpt lat="48.71674" lon="-3.3976">
        <ele>69</ele>
        <time>2015-01-25T08:08:17Z</time>
      </trkpt>
      <trkpt lat="48.71667" lon="-3.39767">
        <ele>69</ele>
        <time>2015-01-25T08:08:19Z</time>
      </trkpt>
      <trkpt lat="48.7166" lon="-3.39772">
        <ele>69</ele>
        <time>2015-01-25T08:08:20Z</time>
      </trkpt>
      <trkpt lat="48.71653" lon="-3.39778">
        <ele>69</ele>
        <time>2015-01-25T08:08:21Z</time>
      </trkpt>
      <trkpt lat="48.71647" lon="-3.39782">
        <ele>69</ele>
        <time>2015-01-25T08:08:21Z</time>
      </trkpt>
      <trkpt lat="48.71641" lon="-3.39787">
        <ele>69</ele>
        <time>2015-01-25T08:08:23Z</time>
      </trkpt>
      <trkpt lat="48.71635" lon="-3.3979">
        <ele>69</ele>
        <time>2015-01-25T08:08:24Z</time>
      </trkpt>
      <trkpt lat="48.71629" lon="-3.39792">
        <ele>69</ele>
        <time>2015-01-25T08:08:25Z</time>
      </trkpt>
      <trkpt lat="48.71623" lon="-3.39794">
        <ele>69</ele>
        <time>2015-01-25T08:08:25Z</time>
      </trkpt>
      <trkpt lat="48.71618" lon="-3.39796">
        <ele>69</ele>
        <time>2015-01-25T08:08:26Z</time>
      </trkpt>
      <trkpt lat="48.71613" lon="-3.39798">
        <ele>69</ele>
        <time>2015-01-25T08:08:28Z</time>
      </trkpt>
      <trkpt lat="48.71608" lon="-3.39799">
        <ele>69</ele>
        <time>2015-01-25T08:08:29Z</time>
      </trkpt>
      <trkpt lat="48.71603" lon="-3.398">
        <ele>69</ele>
        <time>2015-01-25T08:08:29Z</time>
      </trkpt>
      <trkpt lat="48.71599" lon="-3.398">
        <ele>69</ele>
        <time>2015-01-25T08:08:31Z</time>
      </trkpt>
      <trkpt lat="48.71595" lon="-3.39801">
        <ele>69</ele>
        <time>2015-01-25T08:08:32Z</time>
      </trkpt>
      <trkpt lat="48.7159" lon="-3.39802">
        <ele>69</ele>
        <time>2015-01-25T08:08:33Z</time>
      </trkpt>
      <trkpt lat="48.71584" lon="-3.39803">
        <ele>69</ele>
        <time>2015-01-25T08:08:33Z</time>
      </trkpt>
      <trkpt lat="48.71579" lon="-3.39804">
        <ele>69</ele>
        <time>2015-01-25T08:08:35Z</time>
      </trkpt>
      <trkpt lat="48.71573" lon="-3.39805">
        <ele>69</ele>
        <time>2015-01-25T08:08:36Z</time>
      </trkpt>
      <trkpt lat="48.71568" lon="-3.39805">
        <ele>69</ele>
        <time>2015-01-25T08:08:37Z</time>
      </trkpt>
      <trkpt lat="48.71562" lon="-3.39806">
        <ele>69</ele>
        <time>2015-01-25T08:08:37Z</time>
      </trkpt>
      <trkpt lat="48.71557" lon="-3.39809">
        <ele>69</ele>
        <time>2015-01-25T08:08:38Z</time>
      </trkpt>
      <trkpt lat="48.71552" lon="-3.39812">
        <ele>69</ele>
        <time>2015-01-25T08:08:40Z</time>
      </trkpt>
      <trkpt lat="48.71547" lon="-3.39816">
        <ele>69</ele>
        <time>2015-01-25T08:08:41Z</time>
      </trkpt>
      <trkpt lat="48.71542" lon="-3.39821">
        <ele>69</ele>
        <time>2015-01-25T08:08:41Z</time>
      </trkpt>
      <trkpt lat="48.71537" lon="-3.39825">
        <ele>69</ele>
        <time>2015-01-25T08:08:43Z</time>
      </trkpt>
      <trkpt lat="48.71532" lon="-3.39829">
        <ele>69</ele>
        <time>2015-01-25T08:08:44Z</time>
      </trkpt>
      <trkpt lat="48.71527" lon="-3.39834">
        <ele>69</ele>
        <time>2015-01-25T08:08:45Z</time>
      </trkpt>
      <trkpt lat="48.71521" lon="-3.39838">
        <ele>69</ele>
        <time>2015-01-25T08:08:45Z</time>
      </trkpt>
      <trkpt lat="48.71516" lon="-3.39843">
        <ele>69</ele>
        <time>2015-01-25T08:08:47Z</time>
      </trkpt>
      <trkpt lat="48.71511" lon="-3.39849">
        <ele>69</ele>
        <time>2015-01-25T08:08:48Z</time>
      </trkpt>
      <trkpt lat="48.71507" lon="-3.39856">
        <ele>69</ele>
        <time>2015-01-25T08:08:49Z</time>
      </trkpt>
      <trkpt lat="48.71503" lon="-3.39862">
        <ele>69</ele>
        <time>2015-01-25T08:08:49Z</time>
      </trkpt>
      <trkpt lat="48.71497" lon="-3.39865">
        <ele>69</ele>
        <time>2015-01-25T08:08:50Z</time>
      </trkpt>
      <trkpt lat="48.71491" lon="-3.39867">
        <ele>69</ele>
        <time>2015-01-25T08:08:52Z</time>
      </trkpt>
      <trkpt lat="48.71485" lon="-3.39866">
        <ele>69</ele>
        <time>2015-01-25T08:08:53Z</time>
      </trkpt>
      <trkpt lat="48.71479" lon="-3.39865">
        <ele>69</ele>
        <time>2015-01-25T08:08:53Z</time>
      </trkpt>
      <trkpt lat="48.71472" lon="-3.39864">
        <ele>69</ele>
        <time>2015-01-25T08:08:55Z</time>
      </trkpt>
      <trkpt lat="48.71465" lon="-3.39864">
        <ele>69</ele>
        <time>2015-01-25T08:08:56Z</time>
      </trkpt>
      <trkpt lat="48.71457" lon="-3.39865">
        <ele>69</ele>
        <time>2015-01-25T08:08:57Z</time>
      </trkpt>
      <trkpt lat="48.71449" lon="-3.39866">
        <ele>69</ele>
        <time>2015-01-25T08:08:57Z</time>
      </trkpt>
      <trkpt lat="48.71441" lon="-3.39867">
        <ele>69</ele>
        <time>2015-01-25T08:08:59Z</time>
      </trkpt>
      <trkpt lat="48.71432" lon="-3.39868">
        <ele>69</ele>
        <time>2015-01-25T08:09:00Z</time>
      </trkpt>
      <trkpt lat="48.71424" lon="-3.39869">
        <ele>69</ele>
        <time>2015-01-25T08:09:01Z</time>
      </trkpt>
      <trkpt lat="48.71415" lon="-3.39871">
        <ele>69</ele>
        <time>2015-01-25T08:09:01Z</time>
      </trkpt>
      <trkpt lat="48.71406" lon="-3.39873">
        <ele>69</ele>
        <time>2015-01-25T08:09:03Z</time>
      </trkpt>
      <trkpt lat="48.71397" lon="-3.39874">
        <ele>69</ele>
        <time>2015-01-25T08:09:04Z</time>
      </trkpt>
      <trkpt lat="48.71389" lon="-3.39876">
        <ele>69</ele>
        <time>2015-01-25T08:09:05Z</time>
      </trkpt>
      <trkpt lat="48.71381" lon="-3.39878">
        <ele>69</ele>
        <time>2015-01-25T08:09:05Z</time>
      </trkpt>
      <trkpt lat="48.71373" lon="-3.39879">
        <ele>69</ele>
        <time>2015-01-25T08:09:07Z</time>
      </trkpt>
      <trkpt lat="48.71365" lon="-3.39881">
        <ele>69</ele>
        <time>2015-01-25T08:09:08Z</time>
      </trkpt>
      <trkpt lat="48.71357" lon="-3.39882">
        <ele>69</ele>
        <time>2015-01-25T08:09:09Z</time>
      </trkpt>
      <trkpt lat="48.7135" lon="-3.39883">
        <ele>69</ele>
        <time>2015-01-25T08:09:09Z</time>
      </trkpt>
      <trkpt lat="48.71343" lon="-3.39883">
        <ele>69</ele>
        <time>2015-01-25T08:09:10Z</time>
      </trkpt>
      <trkpt lat="48.71336" lon="-3.39884">
        <ele>69</ele>
        <time>2015-01-25T08:09:12Z</time>
      </trkpt>
      <trkpt lat="48.71329" lon="-3.39884">
        <ele>69</ele>
        <time>2015-01-25T08:09:13Z</time>
      </trkpt>
      <trkpt lat="48.71322" lon="-3.39885">
        <ele>69</ele>
        <time>2015-01-25T08:09:13Z</time>
      </trkpt>
      <trkpt lat="48.71315" lon="-3.39885">
        <ele>69</ele>
        <time>2015-01-25T08:09:15Z</time>
      </trkpt>
      <trkpt lat="48.71308" lon="-3.39886">
        <ele>69</ele>
        <time>2015-01-25T08:09:15Z</time>
      </trkpt>
      <trkpt lat="48.71301" lon="-3.39886">
        <ele>69</ele>
        <time>2015-01-25T08:09:17Z</time>
      </trkpt>
      <trkpt lat="48.71294" lon="-3.39887">
        <ele>69</ele>
        <time>2015-01-25T08:09:17Z</time>
      </trkpt>
      <trkpt lat="48.71288" lon="-3.39888">
        <ele>69</ele>
        <time>2015-01-25T08:09:19Z</time>
      </trkpt>
      <trkpt lat="48.71281" lon="-3.39889">
        <ele>69</ele>
        <time>2015-01-25T08:09:19Z</time>
      </trkpt>
      <trkpt lat="48.71275" lon="-3.39891">
        <ele>69</ele>
        <time>2015-01-25T08:09:21Z</time>
      </trkpt>
      <trkpt lat="48.71268" lon="-3.39893">
        <ele>69</ele>
        <time>2015-01-25T08:09:21Z</time>
      </trkpt>
      <trkpt lat="48.71262" lon="-3.39896">
        <ele>69</ele>
        <time>2015-01-25T08:09:22Z</time>
      </trkpt>
      <trkpt lat="48.71255" lon="-3.39898">
        <ele>69</ele>
        <time>2015-01-25T08:09:24Z</time>
      </trkpt>
      <trkpt lat="48.71249" lon="-3.39902">
        <ele>69</ele>
        <time>2015-01-25T08:09:25Z</time>
      </trkpt>
      <trkpt lat="48.71243" lon="-3.39906">
        <ele>69</ele>
        <time>2015-01-25T08:09:25Z</time>
      </trkpt>
      <trkpt lat="48.71237" lon="-3.3991">
        <ele>69</ele>
        <time>2015-01-25T08:09:27Z</time>
      </trkpt>
      <trkpt lat="48.71232" lon="-3.39914">
        <ele>69</ele>
        <time>2015-01-25T08:09:28Z</time>
      </trkpt>
      <trkpt lat="48.71226" lon="-3.39919">
        <ele>69</ele>
        <time>2015-01-25T08:09:29Z</time>
      </trkpt>
      <trkpt lat="48.7122" lon="-3.39924">
        <ele>69</ele>
        <time>2015-01-25T08:09:29Z</time>
      </trkpt>
      <trkpt lat="48.71215" lon="-3.39929">
        <ele>69</ele>
        <time>2015-01-25T08:09:31Z</time>
      </trkpt>
      <trkpt lat="48.7121" lon="-3.39935">
        <ele>69</ele>
        <time>2015-01-25T08:09:31Z</time>
      </trkpt>
      <trkpt lat="48.71205" lon="-3.39941">
        <ele>69</ele>
        <time>2015-01-25T08:09:33Z</time>
      </trkpt>
      <trkpt lat="48.712" lon="-3.39947">
        <ele>69</ele>
        <time>2015-01-25T08:09:33Z</time>
      </trkpt>
      <trkpt lat="48.71196" lon="-3.39954">
        <ele>69</ele>
        <time>2015-01-25T08:09:35Z</time>
      </trkpt>
      <trkpt lat="48.71191" lon="-3.3996">
        <ele>69</ele>
        <time>2015-01-25T08:09:36Z</time>
      </trkpt>
      <trkpt lat="48.71187" lon="-3.39967">
        <ele>69</ele>
        <time>2015-01-25T08:09:37Z</time>
      </trkpt>
      <trkpt lat="48.71183" lon="-3.39975">
        <ele>69</ele>
        <time>2015-01-25T08:09:37Z</time>
      </trkpt>
      <trkpt lat="48.71179" lon="-3.39983">
        <ele>69</ele>
        <time>2015-01-25T08:09:39Z</time>
      </trkpt>
      <trkpt lat="48.71175" lon="-3.39991">
        <ele>69</ele>
        <time>2015-01-25T08:09:40Z</time>
      </trkpt>
      <trkpt lat="48.71172" lon="-3.39999">
        <ele>69</ele>
        <time>2015-01-25T08:09:41Z</time>
      </trkpt>
      <trkpt lat="48.71169" lon="-3.40007">
        <ele>69</ele>
        <time>2015-01-25T08:09:41Z</time>
      </trkpt>
      <trkpt lat="48.71165" lon="-3.40015">
        <ele>69</ele>
        <time>2015-01-25T08:09:43Z</time>
      </trkpt>
      <trkpt lat="48.71163" lon="-3.40023">
        <ele>69</ele>
        <time>2015-01-25T08:09:43Z</time>
      </trkpt>
      <trkpt lat="48.7116" lon="-3.40032">
        <ele>69</ele>
        <time>2015-01-25T08:09:45Z</time>
      </trkpt>
      <trkpt lat="48.71158" lon="-3.40041">
        <ele>69</ele>
        <time>2015-01-25T08:09:45Z</time>
      </trkpt>
      <trkpt lat="48.71156" lon="-3.4005">
        <ele>69</ele>
        <time>2015-01-25T08:09:46Z</time>
      </trkpt>
      <trkpt lat="48.71154" lon="-3.40058">
        <ele>70</ele>
        <time>2015-01-25T08:09:47Z</time>
      </trkpt>
      <trkpt lat="48.71152" lon="-3.40068">
        <ele>70</ele>
        <time>2015-01-25T08:09:49Z</time>
      </trkpt>
      <trkpt lat="48.7115" lon="-3.40077">
        <ele>70</ele>
        <time>2015-01-25T08:09:49Z</time>
      </trkpt>
      <trkpt lat="48.71148" lon="-3.40087">
        <ele>70</ele>
        <time>2015-01-25T08:09:51Z</time>
      </trkpt>
      <trkpt lat="48.71146" lon="-3.40096">
        <ele>70</ele>
        <time>2015-01-25T08:09:51Z</time>
      </trkpt>
      <trkpt lat="48.71144" lon="-3.40105">
        <ele>70</ele>
        <time>2015-01-25T08:09:52Z</time>
      </trkpt>
      <trkpt lat="48.71141" lon="-3.40114">
        <ele>70</ele>
        <time>2015-01-25T08:09:53Z</time>
      </trkpt>
      <trkpt lat="48.71139" lon="-3.40123">
        <ele>70</ele>
        <time>2015-01-25T08:09:55Z</time>
      </trkpt>
      <trkpt lat="48.71136" lon="-3.40132">
        <ele>71</ele>
        <time>2015-01-25T08:09:56Z</time>
      </trkpt>
      <trkpt lat="48.71133" lon="-3.4014">
        <ele>71</ele>
        <time>2015-01-25T08:09:57Z</time>
      </trkpt>
      <trkpt lat="48.7113" lon="-3.40149">
        <ele>71</ele>
        <time>2015-01-25T08:09:57Z</time>
      </trkpt>
      <trkpt lat="48.71126" lon="-3.40157">
        <ele>71</ele>
        <time>2015-01-25T08:09:58Z</time>
      </trkpt>
      <trkpt lat="48.71123" lon="-3.40164">
        <ele>71</ele>
        <time>2015-01-25T08:10:00Z</time>
      </trkpt>
      <trkpt lat="48.71119" lon="-3.40172">
        <ele>71</ele>
        <time>2015-01-25T08:10:01Z</time>
      </trkpt>
      <trkpt lat="48.71114" lon="-3.40179">
        <ele>71</ele>
        <time>2015-01-25T08:10:01Z</time>
      </trkpt>
      <trkpt lat="48.7111" lon="-3.40186">
        <ele>71</ele>
        <time>2015-01-25T08:10:03Z</time>
      </trkpt>
      <trkpt lat="48.71106" lon="-3.40193">
        <ele>72</ele>
        <time>2015-01-25T08:10:04Z</time>
      </trkpt>
      <trkpt lat="48.71101" lon="-3.402">
        <ele>72</ele>
        <time>2015-01-25T08:10:05Z</time>
      </trkpt>
      <trkpt lat="48.71097" lon="-3.40206">
        <ele>72</ele>
        <time>2015-01-25T08:10:05Z</time>
      </trkpt>
      <trkpt lat="48.71092" lon="-3.40212">
        <ele>72</ele>
        <time>2015-01-25T08:10:07Z</time>
      </trkpt>
      <trkpt lat="48.71087" lon="-3.40217">
        <ele>72</ele>
        <time>2015-01-25T08:10:07Z</time>
      </trkpt>
      <trkpt lat="48.71081" lon="-3.40223">
        <ele>72</ele>
        <time>2015-01-25T08:10:09Z</time>
      </trkpt>
      <trkpt lat="48.71076" lon="-3.40228">
        <ele>72</ele>
        <time>2015-01-25T08:10:09Z</time>
      </trkpt>
      <trkpt lat="48.71071" lon="-3.40233">
        <ele>72</ele>
        <time>2015-01-25T08:10:10Z</time>
      </trkpt>
      <trkpt lat="48.71065" lon="-3.40238">
        <ele>73</ele>
        <time>2015-01-25T08:10:12Z</time>
      </trkpt>
      <trkpt lat="48.71059" lon="-3.40243">
        <ele>73</ele>
        <time>2015-01-25T08:10:13Z</time>
      </trkpt>
      <trkpt lat="48.71054" lon="-3.40247">
        <ele>73</ele>
        <time>2015-01-25T08:10:13Z</time>
      </trkpt>
      <trkpt lat="48.71048" lon="-3.4025">
        <ele>73</ele>
        <time>2015-01-25T08:10:15Z</time>
      </trkpt>
      <trkpt lat="48.71042" lon="-3.40254">
        <ele>73</ele>
        <time>2015-01-25T08:10:15Z</time>
      </trkpt>
      <trkpt lat="48.71037" lon="-3.40256">
        <ele>73</ele>
        <time>2015-01-25T08:10:17Z</time>
      </trkpt>
      <trkpt lat="48.71031" lon="-3.40259">
        <ele>73</ele>
        <time>2015-01-25T08:10:17Z</time>
      </trkpt>
      <trkpt lat="48.71025" lon="-3.40261">
        <ele>73</ele>
        <time>2015-01-25T08:10:19Z</time>
      </trkpt>
      <trkpt lat="48.71019" lon="-3.40262">
        <ele>73</ele>
        <time>2015-01-25T08:10:19Z</time>
      </trkpt>
      <trkpt lat="48.71014" lon="-3.40263">
        <ele>74</ele>
        <time>2015-01-25T08:10:21Z</time>
      </trkpt>
      <trkpt lat="48.71008" lon="-3.40264">
        <ele>74</ele>
        <time>2015-01-25T08:10:21Z</time>
      </trkpt>
      <trkpt lat="48.71003" lon="-3.40265">
        <ele>74</ele>
        <time>2015-01-25T08:10:22Z</time>
      </trkpt>
      <trkpt lat="48.70997" lon="-3.40266">
        <ele>75</ele>
        <time>2015-01-25T08:10:23Z</time>
      </trkpt>
      <trkpt lat="48.70992" lon="-3.40266">
        <ele>75</ele>
        <time>2015-01-25T08:10:25Z</time>
      </trkpt>
      <trkpt lat="48.70987" lon="-3.40267">
        <ele>75</ele>
        <time>2015-01-25T08:10:25Z</time>
      </trkpt>
      <trkpt lat="48.70982" lon="-3.40267">
        <ele>76</ele>
        <time>2015-01-25T08:10:26Z</time>
      </trkpt>
      <trkpt lat="48.70976" lon="-3.40267">
        <ele>76</ele>
        <time>2015-01-25T08:10:27Z</time>
      </trkpt>
      <trkpt lat="48.70966" lon="-3.40267">
        <ele>76</ele>
        <time>2015-01-25T08:10:29Z</time>
      </trkpt>
      <trkpt lat="48.7096" lon="-3.40267">
        <ele>77</ele>
        <time>2015-01-25T08:10:31Z</time>
      </trkpt>
      <trkpt lat="48.70954" lon="-3.40266">
        <ele>77</ele>
        <time>2015-01-25T08:10:31Z</time>
      </trkpt>
      <trkpt lat="48.70948" lon="-3.40266">
        <ele>77</ele>
        <time>2015-01-25T08:10:32Z</time>
      </trkpt>
      <trkpt lat="48.70942" lon="-3.40265">
        <ele>77</ele>
        <time>2015-01-25T08:10:33Z</time>
      </trkpt>
      <trkpt lat="48.70936" lon="-3.40265">
        <ele>77</ele>
        <time>2015-01-25T08:10:34Z</time>
      </trkpt>
      <trkpt lat="48.7093" lon="-3.40264">
        <ele>78</ele>
        <time>2015-01-25T08:10:35Z</time>
      </trkpt>
      <trkpt lat="48.70924" lon="-3.40263">
        <ele>78</ele>
        <time>2015-01-25T08:10:37Z</time>
      </trkpt>
      <trkpt lat="48.70917" lon="-3.40262">
        <ele>78</ele>
        <time>2015-01-25T08:10:37Z</time>
      </trkpt>
      <trkpt lat="48.70911" lon="-3.40262">
        <ele>78</ele>
        <time>2015-01-25T08:10:38Z</time>
      </trkpt>
      <trkpt lat="48.70905" lon="-3.40261">
        <ele>78</ele>
        <time>2015-01-25T08:10:39Z</time>
      </trkpt>
      <trkpt lat="48.70898" lon="-3.4026">
        <ele>78</ele>
        <time>2015-01-25T08:10:40Z</time>
      </trkpt>
      <trkpt lat="48.70892" lon="-3.40259">
        <ele>78</ele>
        <time>2015-01-25T08:10:41Z</time>
      </trkpt>
      <trkpt lat="48.70885" lon="-3.40258">
        <ele>78</ele>
        <time>2015-01-25T08:10:43Z</time>
      </trkpt>
      <trkpt lat="48.70879" lon="-3.40257">
        <ele>78</ele>
        <time>2015-01-25T08:10:43Z</time>
      </trkpt>
      <trkpt lat="48.70872" lon="-3.40256">
        <ele>78</ele>
        <time>2015-01-25T08:10:44Z</time>
      </trkpt>
      <trkpt lat="48.70866" lon="-3.40255">
        <ele>78</ele>
        <time>2015-01-25T08:10:46Z</time>
      </trkpt>
      <trkpt lat="48.7086" lon="-3.40254">
        <ele>78</ele>
        <time>2015-01-25T08:10:46Z</time>
      </trkpt>
      <trkpt lat="48.70853" lon="-3.40253">
        <ele>78</ele>
        <time>2015-01-25T08:10:47Z</time>
      </trkpt>
      <trkpt lat="48.70847" lon="-3.40252">
        <ele>78</ele>
        <time>2015-01-25T08:10:49Z</time>
      </trkpt>
      <trkpt lat="48.70842" lon="-3.40251">
        <ele>78</ele>
        <time>2015-01-25T08:10:49Z</time>
      </trkpt>
      <trkpt lat="48.70836" lon="-3.4025">
        <ele>79</ele>
        <time>2015-01-25T08:10:50Z</time>
      </trkpt>
      <trkpt lat="48.70831" lon="-3.40249">
        <ele>79</ele>
        <time>2015-01-25T08:10:51Z</time>
      </trkpt>
      <trkpt lat="48.70825" lon="-3.40248">
        <ele>79</ele>
        <time>2015-01-25T08:10:52Z</time>
      </trkpt>
      <trkpt lat="48.7082" lon="-3.40247">
        <ele>79</ele>
        <time>2015-01-25T08:10:53Z</time>
      </trkpt>
      <trkpt lat="48.70816" lon="-3.40246">
        <ele>79</ele>
        <time>2015-01-25T08:10:55Z</time>
      </trkpt>
      <trkpt lat="48.70811" lon="-3.40245">
        <ele>79</ele>
        <time>2015-01-25T08:10:55Z</time>
      </trkpt>
      <trkpt lat="48.70806" lon="-3.40244">
        <ele>80</ele>
        <time>2015-01-25T08:10:56Z</time>
      </trkpt>
      <trkpt lat="48.70801" lon="-3.40243">
        <ele>80</ele>
        <time>2015-01-25T08:10:57Z</time>
      </trkpt>
      <trkpt lat="48.70796" lon="-3.40242">
        <ele>80</ele>
        <time>2015-01-25T08:10:58Z</time>
      </trkpt>
      <trkpt lat="48.70791" lon="-3.40242">
        <ele>80</ele>
        <time>2015-01-25T08:10:59Z</time>
      </trkpt>
      <trkpt lat="48.70786" lon="-3.40241">
        <ele>80</ele>
        <time>2015-01-25T08:11:01Z</time>
      </trkpt>
      <trkpt lat="48.70781" lon="-3.4024">
        <ele>81</ele>
        <time>2015-01-25T08:11:01Z</time>
      </trkpt>
      <trkpt lat="48.70775" lon="-3.4024">
        <ele>81</ele>
        <time>2015-01-25T08:11:02Z</time>
      </trkpt>
      <trkpt lat="48.7077" lon="-3.40239">
        <ele>81</ele>
        <time>2015-01-25T08:11:03Z</time>
      </trkpt>
      <trkpt lat="48.70764" lon="-3.40238">
        <ele>81</ele>
        <time>2015-01-25T08:11:04Z</time>
      </trkpt>
      <trkpt lat="48.70758" lon="-3.40238">
        <ele>81</ele>
        <time>2015-01-25T08:11:05Z</time>
      </trkpt>
      <trkpt lat="48.70752" lon="-3.40237">
        <ele>81</ele>
        <time>2015-01-25T08:11:07Z</time>
      </trkpt>
      <trkpt lat="48.70746" lon="-3.40235">
        <ele>81</ele>
        <time>2015-01-25T08:11:07Z</time>
      </trkpt>
      <trkpt lat="48.70741" lon="-3.40234">
        <ele>81</ele>
        <time>2015-01-25T08:11:08Z</time>
      </trkpt>
      <trkpt lat="48.70735" lon="-3.40233">
        <ele>81</ele>
        <time>2015-01-25T08:11:09Z</time>
      </trkpt>
      <trkpt lat="48.70729" lon="-3.40231">
        <ele>81</ele>
        <time>2015-01-25T08:11:10Z</time>
      </trkpt>
      <trkpt lat="48.70723" lon="-3.40229">
        <ele>81</ele>
        <time>2015-01-25T08:11:12Z</time>
      </trkpt>
      <trkpt lat="48.70717" lon="-3.40227">
        <ele>81</ele>
        <time>2015-01-25T08:11:12Z</time>
      </trkpt>
      <trkpt lat="48.70711" lon="-3.40224">
        <ele>81</ele>
        <time>2015-01-25T08:11:13Z</time>
      </trkpt>
      <trkpt lat="48.70705" lon="-3.40222">
        <ele>81</ele>
        <time>2015-01-25T08:11:14Z</time>
      </trkpt>
      <trkpt lat="48.70699" lon="-3.40219">
        <ele>81</ele>
        <time>2015-01-25T08:11:15Z</time>
      </trkpt>
      <trkpt lat="48.70693" lon="-3.40217">
        <ele>81</ele>
        <time>2015-01-25T08:11:17Z</time>
      </trkpt>
      <trkpt lat="48.70687" lon="-3.40215">
        <ele>81</ele>
        <time>2015-01-25T08:11:17Z</time>
      </trkpt>
      <trkpt lat="48.70681" lon="-3.40213">
        <ele>81</ele>
        <time>2015-01-25T08:11:19Z</time>
      </trkpt>
      <trkpt lat="48.70674" lon="-3.40212">
        <ele>82</ele>
        <time>2015-01-25T08:11:19Z</time>
      </trkpt>
      <trkpt lat="48.70668" lon="-3.40211">
        <ele>82</ele>
        <time>2015-01-25T08:11:20Z</time>
      </trkpt>
      <trkpt lat="48.70661" lon="-3.40211">
        <ele>82</ele>
        <time>2015-01-25T08:11:22Z</time>
      </trkpt>
      <trkpt lat="48.70648" lon="-3.40211">
        <ele>82</ele>
        <time>2015-01-25T08:11:23Z</time>
      </trkpt>
      <trkpt lat="48.70641" lon="-3.40211">
        <ele>82</ele>
        <time>2015-01-25T08:11:24Z</time>
      </trkpt>
      <trkpt lat="48.70635" lon="-3.40212">
        <ele>82</ele>
        <time>2015-01-25T08:11:25Z</time>
      </trkpt>
      <trkpt lat="48.70628" lon="-3.40213">
        <ele>82</ele>
        <time>2015-01-25T08:11:27Z</time>
      </trkpt>
      <trkpt lat="48.70622" lon="-3.40213">
        <ele>82</ele>
        <time>2015-01-25T08:11:27Z</time>
      </trkpt>
      <trkpt lat="48.70616" lon="-3.40214">
        <ele>82</ele>
        <time>2015-01-25T08:11:28Z</time>
      </trkpt>
      <trkpt lat="48.70609" lon="-3.40215">
        <ele>82</ele>
        <time>2015-01-25T08:11:29Z</time>
      </trkpt>
      <trkpt lat="48.70602" lon="-3.40216">
        <ele>82</ele>
        <time>2015-01-25T08:11:30Z</time>
      </trkpt>
      <trkpt lat="48.70596" lon="-3.40217">
        <ele>82</ele>
        <time>2015-01-25T08:11:32Z</time>
      </trkpt>
      <trkpt lat="48.70588" lon="-3.40218">
        <ele>82</ele>
        <time>2015-01-25T08:11:32Z</time>
      </trkpt>
      <trkpt lat="48.70581" lon="-3.40219">
        <ele>82</ele>
        <time>2015-01-25T08:11:33Z</time>
      </trkpt>
      <trkpt lat="48.70573" lon="-3.40221">
        <ele>82</ele>
        <time>2015-01-25T08:11:34Z</time>
      </trkpt>
      <trkpt lat="48.70565" lon="-3.40224">
        <ele>82</ele>
        <time>2015-01-25T08:11:35Z</time>
      </trkpt>
      <trkpt lat="48.70558" lon="-3.40226">
        <ele>82</ele>
        <time>2015-01-25T08:11:37Z</time>
      </trkpt>
      <trkpt lat="48.7055" lon="-3.40229">
        <ele>82</ele>
        <time>2015-01-25T08:11:37Z</time>
      </trkpt>
      <trkpt lat="48.70543" lon="-3.40232">
        <ele>82</ele>
        <time>2015-01-25T08:11:39Z</time>
      </trkpt>
      <trkpt lat="48.70536" lon="-3.40235">
        <ele>82</ele>
        <time>2015-01-25T08:11:39Z</time>
      </trkpt>
      <trkpt lat="48.70528" lon="-3.40238">
        <ele>82</ele>
        <time>2015-01-25T08:11:41Z</time>
      </trkpt>
      <trkpt lat="48.70521" lon="-3.40241">
        <ele>82</ele>
        <time>2015-01-25T08:11:42Z</time>
      </trkpt>
      <trkpt lat="48.70514" lon="-3.40244">
        <ele>82</ele>
        <time>2015-01-25T08:11:42Z</time>
      </trkpt>
      <trkpt lat="48.70507" lon="-3.40248">
        <ele>82</ele>
        <time>2015-01-25T08:11:43Z</time>
      </trkpt>
      <trkpt lat="48.705" lon="-3.40251">
        <ele>82</ele>
        <time>2015-01-25T08:11:44Z</time>
      </trkpt>
      <trkpt lat="48.70493" lon="-3.40254">
        <ele>82</ele>
        <time>2015-01-25T08:11:45Z</time>
      </trkpt>
      <trkpt lat="48.70486" lon="-3.40257">
        <ele>82</ele>
        <time>2015-01-25T08:11:47Z</time>
      </trkpt>
      <trkpt lat="48.70479" lon="-3.40261">
        <ele>82</ele>
        <time>2015-01-25T08:11:47Z</time>
      </trkpt>
      <trkpt lat="48.70472" lon="-3.40264">
        <ele>82</ele>
        <time>2015-01-25T08:11:48Z</time>
      </trkpt>
      <trkpt lat="48.70464" lon="-3.40267">
        <ele>82</ele>
        <time>2015-01-25T08:11:49Z</time>
      </trkpt>
      <trkpt lat="48.70457" lon="-3.4027">
        <ele>82</ele>
        <time>2015-01-25T08:11:50Z</time>
      </trkpt>
      <trkpt lat="48.7045" lon="-3.40274">
        <ele>82</ele>
        <time>2015-01-25T08:11:52Z</time>
      </trkpt>
      <trkpt lat="48.70442" lon="-3.40276">
        <ele>82</ele>
        <time>2015-01-25T08:11:52Z</time>
      </trkpt>
      <trkpt lat="48.70435" lon="-3.40279">
        <ele>82</ele>
        <time>2015-01-25T08:11:53Z</time>
      </trkpt>
      <trkpt lat="48.70427" lon="-3.40281">
        <ele>82</ele>
        <time>2015-01-25T08:11:54Z</time>
      </trkpt>
      <trkpt lat="48.7042" lon="-3.40282">
        <ele>82</ele>
        <time>2015-01-25T08:11:55Z</time>
      </trkpt>
      <trkpt lat="48.70412" lon="-3.40283">
        <ele>82</ele>
        <time>2015-01-25T08:11:57Z</time>
      </trkpt>
      <trkpt lat="48.70404" lon="-3.40284">
        <ele>82</ele>
        <time>2015-01-25T08:11:57Z</time>
      </trkpt>
      <trkpt lat="48.70397" lon="-3.40285">
        <ele>82</ele>
        <time>2015-01-25T08:11:58Z</time>
      </trkpt>
      <trkpt lat="48.70389" lon="-3.40285">
        <ele>82</ele>
        <time>2015-01-25T08:11:59Z</time>
      </trkpt>
      <trkpt lat="48.70381" lon="-3.40286">
        <ele>82</ele>
        <time>2015-01-25T08:12:00Z</time>
      </trkpt>
      <trkpt lat="48.70373" lon="-3.40286">
        <ele>82</ele>
        <time>2015-01-25T08:12:02Z</time>
      </trkpt>
      <trkpt lat="48.70365" lon="-3.40286">
        <ele>82</ele>
        <time>2015-01-25T08:12:02Z</time>
      </trkpt>
      <trkpt lat="48.70357" lon="-3.40285">
        <ele>82</ele>
        <time>2015-01-25T08:12:03Z</time>
      </trkpt>
      <trkpt lat="48.70349" lon="-3.40285">
        <ele>82</ele>
        <time>2015-01-25T08:12:04Z</time>
      </trkpt>
      <trkpt lat="48.7034" lon="-3.40285">
        <ele>82</ele>
        <time>2015-01-25T08:12:05Z</time>
      </trkpt>
      <trkpt lat="48.70332" lon="-3.40284">
        <ele>82</ele>
        <time>2015-01-25T08:12:07Z</time>
      </trkpt>
      <trkpt lat="48.70324" lon="-3.40284">
        <ele>82</ele>
        <time>2015-01-25T08:12:07Z</time>
      </trkpt>
      <trkpt lat="48.70315" lon="-3.40283">
        <ele>82</ele>
        <time>2015-01-25T08:12:08Z</time>
      </trkpt>
      <trkpt lat="48.70306" lon="-3.40282">
        <ele>82</ele>
        <time>2015-01-25T08:12:09Z</time>
      </trkpt>
      <trkpt lat="48.70298" lon="-3.40282">
        <ele>82</ele>
        <time>2015-01-25T08:12:10Z</time>
      </trkpt>
      <trkpt lat="48.70289" lon="-3.40282">
        <ele>82</ele>
        <time>2015-01-25T08:12:12Z</time>
      </trkpt>
      <trkpt lat="48.70281" lon="-3.40282">
        <ele>82</ele>
        <time>2015-01-25T08:12:12Z</time>
      </trkpt>
      <trkpt lat="48.70272" lon="-3.40283">
        <ele>82</ele>
        <time>2015-01-25T08:12:13Z</time>
      </trkpt>
      <trkpt lat="48.70264" lon="-3.40285">
        <ele>82</ele>
        <time>2015-01-25T08:12:14Z</time>
      </trkpt>
      <trkpt lat="48.70256" lon="-3.40287">
        <ele>82</ele>
        <time>2015-01-25T08:12:15Z</time>
      </trkpt>
      <trkpt lat="48.70249" lon="-3.4029">
        <ele>82</ele>
        <time>2015-01-25T08:12:17Z</time>
      </trkpt>
      <trkpt lat="48.70241" lon="-3.40293">
        <ele>82</ele>
        <time>2015-01-25T08:12:17Z</time>
      </trkpt>
      <trkpt lat="48.70234" lon="-3.40295">
        <ele>82</ele>
        <time>2015-01-25T08:12:19Z</time>
      </trkpt>
      <trkpt lat="48.70227" lon="-3.40298">
        <ele>82</ele>
        <time>2015-01-25T08:12:19Z</time>
      </trkpt>
      <trkpt lat="48.70221" lon="-3.403">
        <ele>82</ele>
        <time>2015-01-25T08:12:20Z</time>
      </trkpt>
      <trkpt lat="48.70215" lon="-3.40303">
        <ele>82</ele>
        <time>2015-01-25T08:12:22Z</time>
      </trkpt>
      <trkpt lat="48.70208" lon="-3.40305">
        <ele>82</ele>
        <time>2015-01-25T08:12:22Z</time>
      </trkpt>
      <trkpt lat="48.70203" lon="-3.40308">
        <ele>82</ele>
        <time>2015-01-25T08:12:23Z</time>
      </trkpt>
      <trkpt lat="48.70197" lon="-3.40309">
        <ele>82</ele>
        <time>2015-01-25T08:12:25Z</time>
      </trkpt>
      <trkpt lat="48.7019" lon="-3.40311">
        <ele>82</ele>
        <time>2015-01-25T08:12:25Z</time>
      </trkpt>
      <trkpt lat="48.70185" lon="-3.40313">
        <ele>82</ele>
        <time>2015-01-25T08:12:27Z</time>
      </trkpt>
      <trkpt lat="48.70179" lon="-3.40315">
        <ele>82</ele>
        <time>2015-01-25T08:12:27Z</time>
      </trkpt>
      <trkpt lat="48.70173" lon="-3.40316">
        <ele>82</ele>
        <time>2015-01-25T08:12:28Z</time>
      </trkpt>
      <trkpt lat="48.70167" lon="-3.40317">
        <ele>82</ele>
        <time>2015-01-25T08:12:29Z</time>
      </trkpt>
      <trkpt lat="48.70161" lon="-3.40318">
        <ele>83</ele>
        <time>2015-01-25T08:12:31Z</time>
      </trkpt>
      <trkpt lat="48.70155" lon="-3.40319">
        <ele>83</ele>
        <time>2015-01-25T08:12:32Z</time>
      </trkpt>
      <trkpt lat="48.7015" lon="-3.4032">
        <ele>83</ele>
        <time>2015-01-25T08:12:32Z</time>
      </trkpt>
      <trkpt lat="48.70144" lon="-3.40321">
        <ele>83</ele>
        <time>2015-01-25T08:12:33Z</time>
      </trkpt>
      <trkpt lat="48.70138" lon="-3.40321">
        <ele>83</ele>
        <time>2015-01-25T08:12:34Z</time>
      </trkpt>
      <trkpt lat="48.70133" lon="-3.40322">
        <ele>83</ele>
        <time>2015-01-25T08:12:35Z</time>
      </trkpt>
      <trkpt lat="48.70127" lon="-3.40322">
        <ele>84</ele>
        <time>2015-01-25T08:12:36Z</time>
      </trkpt>
      <trkpt lat="48.70122" lon="-3.40323">
        <ele>84</ele>
        <time>2015-01-25T08:12:38Z</time>
      </trkpt>
      <trkpt lat="48.70117" lon="-3.40323">
        <ele>84</ele>
        <time>2015-01-25T08:12:38Z</time>
      </trkpt>
      <trkpt lat="48.70111" lon="-3.40323">
        <ele>84</ele>
        <time>2015-01-25T08:12:39Z</time>
      </trkpt>
      <trkpt lat="48.70106" lon="-3.40324">
        <ele>84</ele>
        <time>2015-01-25T08:12:40Z</time>
      </trkpt>
      <trkpt lat="48.701" lon="-3.40324">
        <ele>84</ele>
        <time>2015-01-25T08:12:41Z</time>
      </trkpt>
      <trkpt lat="48.70095" lon="-3.40325">
        <ele>84</ele>
        <time>2015-01-25T08:12:43Z</time>
      </trkpt>
      <trkpt lat="48.70089" lon="-3.40325">
        <ele>85</ele>
        <time>2015-01-25T08:12:43Z</time>
      </trkpt>
      <trkpt lat="48.70083" lon="-3.40325">
        <ele>85</ele>
        <time>2015-01-25T08:12:44Z</time>
      </trkpt>
      <trkpt lat="48.70077" lon="-3.40326">
        <ele>85</ele>
        <time>2015-01-25T08:12:45Z</time>
      </trkpt>
      <trkpt lat="48.70071" lon="-3.40327">
        <ele>85</ele>
        <time>2015-01-25T08:12:46Z</time>
      </trkpt>
      <trkpt lat="48.70065" lon="-3.40328">
        <ele>85</ele>
        <time>2015-01-25T08:12:48Z</time>
      </trkpt>
      <trkpt lat="48.70059" lon="-3.40328">
        <ele>85</ele>
        <time>2015-01-25T08:12:48Z</time>
      </trkpt>
      <trkpt lat="48.70053" lon="-3.40329">
        <ele>85</ele>
        <time>2015-01-25T08:12:49Z</time>
      </trkpt>
      <trkpt lat="48.70047" lon="-3.4033">
        <ele>85</ele>
        <time>2015-01-25T08:12:50Z</time>
      </trkpt>
      <trkpt lat="48.70041" lon="-3.40331">
        <ele>86</ele>
        <time>2015-01-25T08:12:51Z</time>
      </trkpt>
      <trkpt lat="48.70035" lon="-3.40331">
        <ele>86</ele>
        <time>2015-01-25T08:12:53Z</time>
      </trkpt>
      <trkpt lat="48.70029" lon="-3.40332">
        <ele>86</ele>
        <time>2015-01-25T08:12:53Z</time>
      </trkpt>
      <trkpt lat="48.70023" lon="-3.40333">
        <ele>86</ele>
        <time>2015-01-25T08:12:55Z</time>
      </trkpt>
      <trkpt lat="48.70018" lon="-3.40334">
        <ele>86</ele>
        <time>2015-01-25T08:12:55Z</time>
      </trkpt>
      <trkpt lat="48.70012" lon="-3.40335">
        <ele>86</ele>
        <time>2015-01-25T08:12:56Z</time>
      </trkpt>
      <trkpt lat="48.70006" lon="-3.40335">
        <ele>86</ele>
        <time>2015-01-25T08:12:58Z</time>
      </trkpt>
      <trkpt lat="48.70001" lon="-3.40336">
        <ele>86</ele>
        <time>2015-01-25T08:12:59Z</time>
      </trkpt>
      <trkpt lat="48.69995" lon="-3.40336">
        <ele>86</ele>
        <time>2015-01-25T08:12:59Z</time>
      </trkpt>
      <trkpt lat="48.69989" lon="-3.40337">
        <ele>86</ele>
        <time>2015-01-25T08:13:01Z</time>
      </trkpt>
      <trkpt lat="48.69984" lon="-3.40337">
        <ele>87</ele>
        <time>2015-01-25T08:13:01Z</time>
      </trkpt>
      <trkpt lat="48.69979" lon="-3.40338">
        <ele>87</ele>
        <time>2015-01-25T08:13:03Z</time>
      </trkpt>
      <trkpt lat="48.69973" lon="-3.40338">
        <ele>87</ele>
        <time>2015-01-25T08:13:03Z</time>
      </trkpt>
      <trkpt lat="48.69968" lon="-3.40339">
        <ele>87</ele>
        <time>2015-01-25T08:13:04Z</time>
      </trkpt>
      <trkpt lat="48.69963" lon="-3.40339">
        <ele>87</ele>
        <time>2015-01-25T08:13:05Z</time>
      </trkpt>
      <trkpt lat="48.69958" lon="-3.4034">
        <ele>87</ele>
        <time>2015-01-25T08:13:06Z</time>
      </trkpt>
      <trkpt lat="48.69952" lon="-3.4034">
        <ele>87</ele>
        <time>2015-01-25T08:13:08Z</time>
      </trkpt>
      <trkpt lat="48.69947" lon="-3.40341">
        <ele>87</ele>
        <time>2015-01-25T08:13:08Z</time>
      </trkpt>
      <trkpt lat="48.69941" lon="-3.40341">
        <ele>87</ele>
        <time>2015-01-25T08:13:09Z</time>
      </trkpt>
      <trkpt lat="48.69935" lon="-3.40342">
        <ele>87</ele>
        <time>2015-01-25T08:13:10Z</time>
      </trkpt>
      <trkpt lat="48.69929" lon="-3.40342">
        <ele>87</ele>
        <time>2015-01-25T08:13:11Z</time>
      </trkpt>
      <trkpt lat="48.69923" lon="-3.40343">
        <ele>88</ele>
        <time>2015-01-25T08:13:13Z</time>
      </trkpt>
      <trkpt lat="48.69917" lon="-3.40343">
        <ele>88</ele>
        <time>2015-01-25T08:13:13Z</time>
      </trkpt>
      <trkpt lat="48.69912" lon="-3.40344">
        <ele>88</ele>
        <time>2015-01-25T08:13:14Z</time>
      </trkpt>
      <trkpt lat="48.69906" lon="-3.40344">
        <ele>88</ele>
        <time>2015-01-25T08:13:15Z</time>
      </trkpt>
      <trkpt lat="48.699" lon="-3.40345">
        <ele>88</ele>
        <time>2015-01-25T08:13:16Z</time>
      </trkpt>
      <trkpt lat="48.69894" lon="-3.40345">
        <ele>88</ele>
        <time>2015-01-25T08:13:18Z</time>
      </trkpt>
      <trkpt lat="48.69887" lon="-3.40346">
        <ele>88</ele>
        <time>2015-01-25T08:13:18Z</time>
      </trkpt>
      <trkpt lat="48.69881" lon="-3.40347">
        <ele>88</ele>
        <time>2015-01-25T08:13:19Z</time>
      </trkpt>
      <trkpt lat="48.69875" lon="-3.40348">
        <ele>88</ele>
        <time>2015-01-25T08:13:20Z</time>
      </trkpt>
      <trkpt lat="48.69869" lon="-3.4035">
        <ele>88</ele>
        <time>2015-01-25T08:13:21Z</time>
      </trkpt>
      <trkpt lat="48.69863" lon="-3.40351">
        <ele>88</ele>
        <time>2015-01-25T08:13:23Z</time>
      </trkpt>
      <trkpt lat="48.69857" lon="-3.40354">
        <ele>88</ele>
        <time>2015-01-25T08:13:23Z</time>
      </trkpt>
      <trkpt lat="48.69851" lon="-3.40356">
        <ele>89</ele>
        <time>2015-01-25T08:13:25Z</time>
      </trkpt>
      <trkpt lat="48.69845" lon="-3.40359">
        <ele>89</ele>
        <time>2015-01-25T08:13:25Z</time>
      </trkpt>
      <trkpt lat="48.69839" lon="-3.40363">
        <ele>89</ele>
        <time>2015-01-25T08:13:26Z</time>
      </trkpt>
      <trkpt lat="48.69833" lon="-3.40366">
        <ele>89</ele>
        <time>2015-01-25T08:13:28Z</time>
      </trkpt>
      <trkpt lat="48.69828" lon="-3.4037">
        <ele>89</ele>
        <time>2015-01-25T08:13:28Z</time>
      </trkpt>
      <trkpt lat="48.69822" lon="-3.40373">
        <ele>89</ele>
        <time>2015-01-25T08:13:29Z</time>
      </trkpt>
      <trkpt lat="48.69817" lon="-3.40377">
        <ele>89</ele>
        <time>2015-01-25T08:13:30Z</time>
      </trkpt>
      <trkpt lat="48.69811" lon="-3.40381">
        <ele>89</ele>
        <time>2015-01-25T08:13:31Z</time>
      </trkpt>
      <trkpt lat="48.69806" lon="-3.40384">
        <ele>89</ele>
        <time>2015-01-25T08:13:33Z</time>
      </trkpt>
      <trkpt lat="48.69801" lon="-3.40387">
        <ele>89</ele>
        <time>2015-01-25T08:13:33Z</time>
      </trkpt>
      <trkpt lat="48.69795" lon="-3.4039">
        <ele>89</ele>
        <time>2015-01-25T08:13:34Z</time>
      </trkpt>
      <trkpt lat="48.69789" lon="-3.40392">
        <ele>89</ele>
        <time>2015-01-25T08:13:35Z</time>
      </trkpt>
      <trkpt lat="48.69783" lon="-3.40395">
        <ele>89</ele>
        <time>2015-01-25T08:13:36Z</time>
      </trkpt>
      <trkpt lat="48.69776" lon="-3.40397">
        <ele>89</ele>
        <time>2015-01-25T08:13:38Z</time>
      </trkpt>
      <trkpt lat="48.6977" lon="-3.40399">
        <ele>89</ele>
        <time>2015-01-25T08:13:38Z</time>
      </trkpt>
      <trkpt lat="48.69762" lon="-3.40401">
        <ele>89</ele>
        <time>2015-01-25T08:13:39Z</time>
      </trkpt>
      <trkpt lat="48.69756" lon="-3.40403">
        <ele>89</ele>
        <time>2015-01-25T08:13:40Z</time>
      </trkpt>
      <trkpt lat="48.69748" lon="-3.40404">
        <ele>89</ele>
        <time>2015-01-25T08:13:41Z</time>
      </trkpt>
      <trkpt lat="48.69741" lon="-3.40406">
        <ele>89</ele>
        <time>2015-01-25T08:13:43Z</time>
      </trkpt>
      <trkpt lat="48.69733" lon="-3.40407">
        <ele>89</ele>
        <time>2015-01-25T08:13:43Z</time>
      </trkpt>
      <trkpt lat="48.69725" lon="-3.40407">
        <ele>89</ele>
        <time>2015-01-25T08:13:44Z</time>
      </trkpt>
      <trkpt lat="48.69717" lon="-3.40408">
        <ele>89</ele>
        <time>2015-01-25T08:13:45Z</time>
      </trkpt>
      <trkpt lat="48.69709" lon="-3.40408">
        <ele>89</ele>
        <time>2015-01-25T08:13:46Z</time>
      </trkpt>
      <trkpt lat="48.69701" lon="-3.40407">
        <ele>89</ele>
        <time>2015-01-25T08:13:48Z</time>
      </trkpt>
      <trkpt lat="48.69693" lon="-3.40407">
        <ele>89</ele>
        <time>2015-01-25T08:13:49Z</time>
      </trkpt>
      <trkpt lat="48.69685" lon="-3.40407">
        <ele>89</ele>
        <time>2015-01-25T08:13:49Z</time>
      </trkpt>
      <trkpt lat="48.69677" lon="-3.40407">
        <ele>89</ele>
        <time>2015-01-25T08:13:50Z</time>
      </trkpt>
      <trkpt lat="48.69668" lon="-3.40408">
        <ele>89</ele>
        <time>2015-01-25T08:13:51Z</time>
      </trkpt>
      <trkpt lat="48.6966" lon="-3.40409">
        <ele>89</ele>
        <time>2015-01-25T08:13:53Z</time>
      </trkpt>
      <trkpt lat="48.69652" lon="-3.4041">
        <ele>89</ele>
        <time>2015-01-25T08:13:53Z</time>
      </trkpt>
      <trkpt lat="48.69644" lon="-3.40412">
        <ele>89</ele>
        <time>2015-01-25T08:13:54Z</time>
      </trkpt>
      <trkpt lat="48.69636" lon="-3.40413">
        <ele>89</ele>
        <time>2015-01-25T08:13:55Z</time>
      </trkpt>
      <trkpt lat="48.69629" lon="-3.40414">
        <ele>89</ele>
        <time>2015-01-25T08:13:56Z</time>
      </trkpt>
      <trkpt lat="48.69621" lon="-3.40414">
        <ele>89</ele>
        <time>2015-01-25T08:13:58Z</time>
      </trkpt>
      <trkpt lat="48.69613" lon="-3.40414">
        <ele>89</ele>
        <time>2015-01-25T08:13:58Z</time>
      </trkpt>
      <trkpt lat="48.69605" lon="-3.40414">
        <ele>89</ele>
        <time>2015-01-25T08:13:59Z</time>
      </trkpt>
      <trkpt lat="48.69597" lon="-3.40413">
        <ele>89</ele>
        <time>2015-01-25T08:14:00Z</time>
      </trkpt>
      <trkpt lat="48.69589" lon="-3.40412">
        <ele>89</ele>
        <time>2015-01-25T08:14:01Z</time>
      </trkpt>
      <trkpt lat="48.69581" lon="-3.40409">
        <ele>89</ele>
        <time>2015-01-25T08:14:03Z</time>
      </trkpt>
      <trkpt lat="48.69573" lon="-3.40407">
        <ele>89</ele>
        <time>2015-01-25T08:14:03Z</time>
      </trkpt>
      <trkpt lat="48.69565" lon="-3.40405">
        <ele>89</ele>
        <time>2015-01-25T08:14:04Z</time>
      </trkpt>
      <trkpt lat="48.69558" lon="-3.40402">
        <ele>89</ele>
        <time>2015-01-25T08:14:05Z</time>
      </trkpt>
      <trkpt lat="48.6955" lon="-3.404">
        <ele>89</ele>
        <time>2015-01-25T08:14:06Z</time>
      </trkpt>
      <trkpt lat="48.69543" lon="-3.40397">
        <ele>89</ele>
        <time>2015-01-25T08:14:08Z</time>
      </trkpt>
      <trkpt lat="48.69535" lon="-3.40395">
        <ele>88</ele>
        <time>2015-01-25T08:14:08Z</time>
      </trkpt>
      <trkpt lat="48.69528" lon="-3.40392">
        <ele>88</ele>
        <time>2015-01-25T08:14:09Z</time>
      </trkpt>
      <trkpt lat="48.6952" lon="-3.4039">
        <ele>88</ele>
        <time>2015-01-25T08:14:10Z</time>
      </trkpt>
      <trkpt lat="48.69512" lon="-3.40387">
        <ele>88</ele>
        <time>2015-01-25T08:14:11Z</time>
      </trkpt>
      <trkpt lat="48.69505" lon="-3.40385">
        <ele>88</ele>
        <time>2015-01-25T08:14:13Z</time>
      </trkpt>
      <trkpt lat="48.69497" lon="-3.40384">
        <ele>88</ele>
        <time>2015-01-25T08:14:13Z</time>
      </trkpt>
      <trkpt lat="48.69489" lon="-3.40383">
        <ele>87</ele>
        <time>2015-01-25T08:14:14Z</time>
      </trkpt>
      <trkpt lat="48.69481" lon="-3.40382">
        <ele>87</ele>
        <time>2015-01-25T08:14:15Z</time>
      </trkpt>
      <trkpt lat="48.69473" lon="-3.40381">
        <ele>87</ele>
        <time>2015-01-25T08:14:16Z</time>
      </trkpt>
      <trkpt lat="48.69466" lon="-3.4038">
        <ele>87</ele>
        <time>2015-01-25T08:14:18Z</time>
      </trkpt>
      <trkpt lat="48.69458" lon="-3.4038">
        <ele>87</ele>
        <time>2015-01-25T08:14:18Z</time>
      </trkpt>
      <trkpt lat="48.69451" lon="-3.4038">
        <ele>87</ele>
        <time>2015-01-25T08:14:19Z</time>
      </trkpt>
      <trkpt lat="48.69444" lon="-3.40379">
        <ele>87</ele>
        <time>2015-01-25T08:14:20Z</time>
      </trkpt>
      <trkpt lat="48.69437" lon="-3.40379">
        <ele>87</ele>
        <time>2015-01-25T08:14:21Z</time>
      </trkpt>
      <trkpt lat="48.6943" lon="-3.40379">
        <ele>87</ele>
        <time>2015-01-25T08:14:23Z</time>
      </trkpt>
      <trkpt lat="48.69423" lon="-3.40379">
        <ele>87</ele>
        <time>2015-01-25T08:14:23Z</time>
      </trkpt>
      <trkpt lat="48.69416" lon="-3.40378">
        <ele>87</ele>
        <time>2015-01-25T08:14:24Z</time>
      </trkpt>
      <trkpt lat="48.69409" lon="-3.40377">
        <ele>87</ele>
        <time>2015-01-25T08:14:25Z</time>
      </trkpt>
      <trkpt lat="48.69402" lon="-3.40376">
        <ele>87</ele>
        <time>2015-01-25T08:14:26Z</time>
      </trkpt>
      <trkpt lat="48.69395" lon="-3.40374">
        <ele>86</ele>
        <time>2015-01-25T08:14:28Z</time>
      </trkpt>
      <trkpt lat="48.69388" lon="-3.40373">
        <ele>86</ele>
        <time>2015-01-25T08:14:28Z</time>
      </trkpt>
      <trkpt lat="48.69381" lon="-3.40371">
        <ele>86</ele>
        <time>2015-01-25T08:14:29Z</time>
      </trkpt>
      <trkpt lat="48.69373" lon="-3.40368">
        <ele>86</ele>
        <time>2015-01-25T08:14:30Z</time>
      </trkpt>
      <trkpt lat="48.69366" lon="-3.40365">
        <ele>86</ele>
        <time>2015-01-25T08:14:31Z</time>
      </trkpt>
      <trkpt lat="48.69359" lon="-3.40361">
        <ele>85</ele>
        <time>2015-01-25T08:14:33Z</time>
      </trkpt>
      <trkpt lat="48.69352" lon="-3.40357">
        <ele>85</ele>
        <time>2015-01-25T08:14:33Z</time>
      </trkpt>
      <trkpt lat="48.69345" lon="-3.40353">
        <ele>85</ele>
        <time>2015-01-25T08:14:34Z</time>
      </trkpt>
      <trkpt lat="48.69338" lon="-3.40349">
        <ele>85</ele>
        <time>2015-01-25T08:14:35Z</time>
      </trkpt>
      <trkpt lat="48.6933" lon="-3.40345">
        <ele>85</ele>
        <time>2015-01-25T08:14:36Z</time>
      </trkpt>
      <trkpt lat="48.69323" lon="-3.4034">
        <ele>85</ele>
        <time>2015-01-25T08:14:38Z</time>
      </trkpt>
      <trkpt lat="48.69315" lon="-3.40336">
        <ele>84</ele>
        <time>2015-01-25T08:14:38Z</time>
      </trkpt>
      <trkpt lat="48.69308" lon="-3.40331">
        <ele>84</ele>
        <time>2015-01-25T08:14:39Z</time>
      </trkpt>
      <trkpt lat="48.69301" lon="-3.40326">
        <ele>84</ele>
        <time>2015-01-25T08:14:40Z</time>
      </trkpt>
      <trkpt lat="48.69294" lon="-3.4032">
        <ele>84</ele>
        <time>2015-01-25T08:14:41Z</time>
      </trkpt>
      <trkpt lat="48.69286" lon="-3.40313">
        <ele>83</ele>
        <time>2015-01-25T08:14:43Z</time>
      </trkpt>
      <trkpt lat="48.6928" lon="-3.40307">
        <ele>83</ele>
        <time>2015-01-25T08:14:43Z</time>
      </trkpt>
      <trkpt lat="48.69273" lon="-3.403">
        <ele>83</ele>
        <time>2015-01-25T08:14:44Z</time>
      </trkpt>
      <trkpt lat="48.69266" lon="-3.40293">
        <ele>83</ele>
        <time>2015-01-25T08:14:45Z</time>
      </trkpt>
      <trkpt lat="48.69259" lon="-3.40285">
        <ele>82</ele>
        <time>2015-01-25T08:14:46Z</time>
      </trkpt>
      <trkpt lat="48.69252" lon="-3.40278">
        <ele>82</ele>
        <time>2015-01-25T08:14:48Z</time>
      </trkpt>
      <trkpt lat="48.69245" lon="-3.4027">
        <ele>82</ele>
        <time>2015-01-25T08:14:48Z</time>
      </trkpt>
      <trkpt lat="48.69239" lon="-3.40263">
        <ele>81</ele>
        <time>2015-01-25T08:14:49Z</time>
      </trkpt>
      <trkpt lat="48.69232" lon="-3.40255">
        <ele>81</ele>
        <time>2015-01-25T08:14:50Z</time>
      </trkpt>
      <trkpt lat="48.69225" lon="-3.40248">
        <ele>81</ele>
        <time>2015-01-25T08:14:51Z</time>
      </trkpt>
      <trkpt lat="48.69218" lon="-3.40241">
        <ele>81</ele>
        <time>2015-01-25T08:14:53Z</time>
      </trkpt>
      <trkpt lat="48.69211" lon="-3.40233">
        <ele>81</ele>
        <time>2015-01-25T08:14:53Z</time>
      </trkpt>
      <trkpt lat="48.69204" lon="-3.40226">
        <ele>81</ele>
        <time>2015-01-25T08:14:54Z</time>
      </trkpt>
      <trkpt lat="48.69196" lon="-3.40219">
        <ele>80</ele>
        <time>2015-01-25T08:14:55Z</time>
      </trkpt>
      <trkpt lat="48.69188" lon="-3.40213">
        <ele>80</ele>
        <time>2015-01-25T08:14:56Z</time>
      </trkpt>
      <trkpt lat="48.6918" lon="-3.40206">
        <ele>80</ele>
        <time>2015-01-25T08:14:58Z</time>
      </trkpt>
      <trkpt lat="48.69172" lon="-3.402">
        <ele>80</ele>
        <time>2015-01-25T08:14:58Z</time>
      </trkpt>
      <trkpt lat="48.69164" lon="-3.40194">
        <ele>79</ele>
        <time>2015-01-25T08:14:59Z</time>
      </trkpt>
      <trkpt lat="48.69156" lon="-3.40188">
        <ele>79</ele>
        <time>2015-01-25T08:15:00Z</time>
      </trkpt>
      <trkpt lat="48.69147" lon="-3.40182">
        <ele>79</ele>
        <time>2015-01-25T08:15:01Z</time>
      </trkpt>
      <trkpt lat="48.69139" lon="-3.40176">
        <ele>78</ele>
        <time>2015-01-25T08:15:03Z</time>
      </trkpt>
      <trkpt lat="48.69131" lon="-3.4017">
        <ele>78</ele>
        <time>2015-01-25T08:15:03Z</time>
      </trkpt>
      <trkpt lat="48.69123" lon="-3.40164">
        <ele>78</ele>
        <time>2015-01-25T08:15:04Z</time>
      </trkpt>
      <trkpt lat="48.69115" lon="-3.40158">
        <ele>78</ele>
        <time>2015-01-25T08:15:05Z</time>
      </trkpt>
      <trkpt lat="48.69107" lon="-3.40151">
        <ele>78</ele>
        <time>2015-01-25T08:15:06Z</time>
      </trkpt>
      <trkpt lat="48.691" lon="-3.40144">
        <ele>78</ele>
        <time>2015-01-25T08:15:08Z</time>
      </trkpt>
      <trkpt lat="48.69092" lon="-3.40137">
        <ele>78</ele>
        <time>2015-01-25T08:15:08Z</time>
      </trkpt>
      <trkpt lat="48.69085" lon="-3.4013">
        <ele>78</ele>
        <time>2015-01-25T08:15:09Z</time>
      </trkpt>
      <trkpt lat="48.69077" lon="-3.40123">
        <ele>78</ele>
        <time>2015-01-25T08:15:10Z</time>
      </trkpt>
      <trkpt lat="48.6907" lon="-3.40116">
        <ele>78</ele>
        <time>2015-01-25T08:15:11Z</time>
      </trkpt>
      <trkpt lat="48.69063" lon="-3.40109">
        <ele>77</ele>
        <time>2015-01-25T08:15:13Z</time>
      </trkpt>
      <trkpt lat="48.69056" lon="-3.40102">
        <ele>77</ele>
        <time>2015-01-25T08:15:13Z</time>
      </trkpt>
      <trkpt lat="48.69048" lon="-3.40095">
        <ele>77</ele>
        <time>2015-01-25T08:15:14Z</time>
      </trkpt>
      <trkpt lat="48.69041" lon="-3.40088">
        <ele>77</ele>
        <time>2015-01-25T08:15:15Z</time>
      </trkpt>
      <trkpt lat="48.69033" lon="-3.40081">
        <ele>77</ele>
        <time>2015-01-25T08:15:16Z</time>
      </trkpt>
      <trkpt lat="48.69025" lon="-3.40075">
        <ele>77</ele>
        <time>2015-01-25T08:15:18Z</time>
      </trkpt>
      <trkpt lat="48.69016" lon="-3.40069">
        <ele>76</ele>
        <time>2015-01-25T08:15:18Z</time>
      </trkpt>
      <trkpt lat="48.69008" lon="-3.40064">
        <ele>76</ele>
        <time>2015-01-25T08:15:19Z</time>
      </trkpt>
      <trkpt lat="48.68999" lon="-3.40059">
        <ele>76</ele>
        <time>2015-01-25T08:15:20Z</time>
      </trkpt>
      <trkpt lat="48.6899" lon="-3.40055">
        <ele>76</ele>
        <time>2015-01-25T08:15:22Z</time>
      </trkpt>
      <trkpt lat="48.68981" lon="-3.40051">
        <ele>76</ele>
        <time>2015-01-25T08:15:23Z</time>
      </trkpt>
      <trkpt lat="48.68972" lon="-3.40047">
        <ele>76</ele>
        <time>2015-01-25T08:15:23Z</time>
      </trkpt>
      <trkpt lat="48.68962" lon="-3.40043">
        <ele>76</ele>
        <time>2015-01-25T08:15:24Z</time>
      </trkpt>
      <trkpt lat="48.68953" lon="-3.40039">
        <ele>76</ele>
        <time>2015-01-25T08:15:25Z</time>
      </trkpt>
      <trkpt lat="48.68945" lon="-3.40036">
        <ele>76</ele>
        <time>2015-01-25T08:15:26Z</time>
      </trkpt>
      <trkpt lat="48.68936" lon="-3.40034">
        <ele>76</ele>
        <time>2015-01-25T08:15:28Z</time>
      </trkpt>
      <trkpt lat="48.68927" lon="-3.40031">
        <ele>76</ele>
        <time>2015-01-25T08:15:28Z</time>
      </trkpt>
      <trkpt lat="48.68918" lon="-3.40029">
        <ele>76</ele>
        <time>2015-01-25T08:15:29Z</time>
      </trkpt>
      <trkpt lat="48.6891" lon="-3.40028">
        <ele>76</ele>
        <time>2015-01-25T08:15:30Z</time>
      </trkpt>
      <trkpt lat="48.68902" lon="-3.40026">
        <ele>76</ele>
        <time>2015-01-25T08:15:31Z</time>
      </trkpt>
      <trkpt lat="48.68893" lon="-3.40025">
        <ele>76</ele>
        <time>2015-01-25T08:15:33Z</time>
      </trkpt>
      <trkpt lat="48.68885" lon="-3.40023">
        <ele>76</ele>
        <time>2015-01-25T08:15:33Z</time>
      </trkpt>
      <trkpt lat="48.68877" lon="-3.40023">
        <ele>76</ele>
        <time>2015-01-25T08:15:34Z</time>
      </trkpt>
      <trkpt lat="48.68869" lon="-3.40022">
        <ele>76</ele>
        <time>2015-01-25T08:15:35Z</time>
      </trkpt>
      <trkpt lat="48.6886" lon="-3.40021">
        <ele>76</ele>
        <time>2015-01-25T08:15:36Z</time>
      </trkpt>
      <trkpt lat="48.68852" lon="-3.4002">
        <ele>76</ele>
        <time>2015-01-25T08:15:38Z</time>
      </trkpt>
      <trkpt lat="48.68844" lon="-3.40019">
        <ele>76</ele>
        <time>2015-01-25T08:15:38Z</time>
      </trkpt>
      <trkpt lat="48.68836" lon="-3.40017">
        <ele>76</ele>
        <time>2015-01-25T08:15:39Z</time>
      </trkpt>
      <trkpt lat="48.68827" lon="-3.40014">
        <ele>76</ele>
        <time>2015-01-25T08:15:40Z</time>
      </trkpt>
      <trkpt lat="48.68819" lon="-3.40012">
        <ele>76</ele>
        <time>2015-01-25T08:15:41Z</time>
      </trkpt>
      <trkpt lat="48.68811" lon="-3.40009">
        <ele>76</ele>
        <time>2015-01-25T08:15:43Z</time>
      </trkpt>
      <trkpt lat="48.68803" lon="-3.40007">
        <ele>76</ele>
        <time>2015-01-25T08:15:43Z</time>
      </trkpt>
      <trkpt lat="48.68795" lon="-3.40004">
        <ele>76</ele>
        <time>2015-01-25T08:15:44Z</time>
      </trkpt>
      <trkpt lat="48.68788" lon="-3.40002">
        <ele>76</ele>
        <time>2015-01-25T08:15:45Z</time>
      </trkpt>
      <trkpt lat="48.6878" lon="-3.39999">
        <ele>76</ele>
        <time>2015-01-25T08:15:46Z</time>
      </trkpt>
      <trkpt lat="48.68772" lon="-3.39997">
        <ele>76</ele>
        <time>2015-01-25T08:15:48Z</time>
      </trkpt>
      <trkpt lat="48.68764" lon="-3.39994">
        <ele>76</ele>
        <time>2015-01-25T08:15:48Z</time>
      </trkpt>
      <trkpt lat="48.68757" lon="-3.39992">
        <ele>76</ele>
        <time>2015-01-25T08:15:49Z</time>
      </trkpt>
      <trkpt lat="48.68749" lon="-3.3999">
        <ele>76</ele>
        <time>2015-01-25T08:15:50Z</time>
      </trkpt>
      <trkpt lat="48.68742" lon="-3.39987">
        <ele>76</ele>
        <time>2015-01-25T08:15:51Z</time>
      </trkpt>
      <trkpt lat="48.68735" lon="-3.39985">
        <ele>76</ele>
        <time>2015-01-25T08:15:53Z</time>
      </trkpt>
      <trkpt lat="48.68728" lon="-3.39983">
        <ele>76</ele>
        <time>2015-01-25T08:15:53Z</time>
      </trkpt>
      <trkpt lat="48.68721" lon="-3.39981">
        <ele>76</ele>
        <time>2015-01-25T08:15:54Z</time>
      </trkpt>
      <trkpt lat="48.68714" lon="-3.39978">
        <ele>76</ele>
        <time>2015-01-25T08:15:55Z</time>
      </trkpt>
      <trkpt lat="48.68707" lon="-3.39976">
        <ele>76</ele>
        <time>2015-01-25T08:15:56Z</time>
      </trkpt>
      <trkpt lat="48.687" lon="-3.39973">
        <ele>76</ele>
        <time>2015-01-25T08:15:58Z</time>
      </trkpt>
      <trkpt lat="48.68692" lon="-3.39971">
        <ele>76</ele>
        <time>2015-01-25T08:15:58Z</time>
      </trkpt>
      <trkpt lat="48.68684" lon="-3.39968">
        <ele>76</ele>
        <time>2015-01-25T08:15:59Z</time>
      </trkpt>
      <trkpt lat="48.68677" lon="-3.39965">
        <ele>76</ele>
        <time>2015-01-25T08:16:00Z</time>
      </trkpt>
      <trkpt lat="48.68669" lon="-3.39962">
        <ele>76</ele>
        <time>2015-01-25T08:16:01Z</time>
      </trkpt>
      <trkpt lat="48.68662" lon="-3.3996">
        <ele>76</ele>
        <time>2015-01-25T08:16:03Z</time>
      </trkpt>
      <trkpt lat="48.68654" lon="-3.39957">
        <ele>76</ele>
        <time>2015-01-25T08:16:03Z</time>
      </trkpt>
      <trkpt lat="48.68646" lon="-3.39954">
        <ele>76</ele>
        <time>2015-01-25T08:16:04Z</time>
      </trkpt>
      <trkpt lat="48.68639" lon="-3.39952">
        <ele>76</ele>
        <time>2015-01-25T08:16:05Z</time>
      </trkpt>
      <trkpt lat="48.68632" lon="-3.39951">
        <ele>76</ele>
        <time>2015-01-25T08:16:06Z</time>
      </trkpt>
      <trkpt lat="48.68625" lon="-3.39949">
        <ele>76</ele>
        <time>2015-01-25T08:16:08Z</time>
      </trkpt>
      <trkpt lat="48.68617" lon="-3.39949">
        <ele>76</ele>
        <time>2015-01-25T08:16:08Z</time>
      </trkpt>
      <trkpt lat="48.6861" lon="-3.39948">
        <ele>76</ele>
        <time>2015-01-25T08:16:09Z</time>
      </trkpt>
      <trkpt lat="48.68602" lon="-3.39948">
        <ele>76</ele>
        <time>2015-01-25T08:16:10Z</time>
      </trkpt>
      <trkpt lat="48.68595" lon="-3.39948">
        <ele>76</ele>
        <time>2015-01-25T08:16:11Z</time>
      </trkpt>
      <trkpt lat="48.68587" lon="-3.39949">
        <ele>76</ele>
        <time>2015-01-25T08:16:13Z</time>
      </trkpt>
      <trkpt lat="48.6858" lon="-3.3995">
        <ele>76</ele>
        <time>2015-01-25T08:16:13Z</time>
      </trkpt>
      <trkpt lat="48.68573" lon="-3.39951">
        <ele>76</ele>
        <time>2015-01-25T08:16:14Z</time>
      </trkpt>
      <trkpt lat="48.68565" lon="-3.39953">
        <ele>76</ele>
        <time>2015-01-25T08:16:15Z</time>
      </trkpt>
      <trkpt lat="48.68558" lon="-3.39955">
        <ele>76</ele>
        <time>2015-01-25T08:16:16Z</time>
      </trkpt>
      <trkpt lat="48.6855" lon="-3.39957">
        <ele>76</ele>
        <time>2015-01-25T08:16:17Z</time>
      </trkpt>
      <trkpt lat="48.68543" lon="-3.39959">
        <ele>76</ele>
        <time>2015-01-25T08:16:18Z</time>
      </trkpt>
      <trkpt lat="48.68536" lon="-3.39961">
        <ele>76</ele>
        <time>2015-01-25T08:16:19Z</time>
      </trkpt>
      <trkpt lat="48.68528" lon="-3.39963">
        <ele>76</ele>
        <time>2015-01-25T08:16:20Z</time>
      </trkpt>
      <trkpt lat="48.68521" lon="-3.39965">
        <ele>76</ele>
        <time>2015-01-25T08:16:21Z</time>
      </trkpt>
      <trkpt lat="48.68513" lon="-3.39967">
        <ele>76</ele>
        <time>2015-01-25T08:16:23Z</time>
      </trkpt>
      <trkpt lat="48.68506" lon="-3.39969">
        <ele>76</ele>
        <time>2015-01-25T08:16:23Z</time>
      </trkpt>
      <trkpt lat="48.68499" lon="-3.3997">
        <ele>76</ele>
        <time>2015-01-25T08:16:24Z</time>
      </trkpt>
      <trkpt lat="48.68491" lon="-3.39971">
        <ele>76</ele>
        <time>2015-01-25T08:16:25Z</time>
      </trkpt>
      <trkpt lat="48.68484" lon="-3.39971">
        <ele>76</ele>
        <time>2015-01-25T08:16:26Z</time>
      </trkpt>
      <trkpt lat="48.68476" lon="-3.39971">
        <ele>76</ele>
        <time>2015-01-25T08:16:28Z</time>
      </trkpt>
      <trkpt lat="48.68469" lon="-3.39969">
        <ele>76</ele>
        <time>2015-01-25T08:16:28Z</time>
      </trkpt>
      <trkpt lat="48.68462" lon="-3.39966">
        <ele>76</ele>
        <time>2015-01-25T08:16:29Z</time>
      </trkpt>
      <trkpt lat="48.68454" lon="-3.39962">
        <ele>76</ele>
        <time>2015-01-25T08:16:30Z</time>
      </trkpt>
      <trkpt lat="48.68447" lon="-3.39958">
        <ele>76</ele>
        <time>2015-01-25T08:16:31Z</time>
      </trkpt>
      <trkpt lat="48.68441" lon="-3.39952">
        <ele>76</ele>
        <time>2015-01-25T08:16:33Z</time>
      </trkpt>
      <trkpt lat="48.68435" lon="-3.39946">
        <ele>76</ele>
        <time>2015-01-25T08:16:33Z</time>
      </trkpt>
      <trkpt lat="48.68428" lon="-3.39941">
        <ele>76</ele>
        <time>2015-01-25T08:16:34Z</time>
      </trkpt>
      <trkpt lat="48.68422" lon="-3.39935">
        <ele>76</ele>
        <time>2015-01-25T08:16:35Z</time>
      </trkpt>
      <trkpt lat="48.68416" lon="-3.3993">
        <ele>76</ele>
        <time>2015-01-25T08:16:36Z</time>
      </trkpt>
      <trkpt lat="48.6841" lon="-3.39925">
        <ele>76</ele>
        <time>2015-01-25T08:16:37Z</time>
      </trkpt>
      <trkpt lat="48.68404" lon="-3.3992">
        <ele>76</ele>
        <time>2015-01-25T08:16:38Z</time>
      </trkpt>
      <trkpt lat="48.68398" lon="-3.39916">
        <ele>76</ele>
        <time>2015-01-25T08:16:39Z</time>
      </trkpt>
      <trkpt lat="48.68391" lon="-3.39913">
        <ele>76</ele>
        <time>2015-01-25T08:16:40Z</time>
      </trkpt>
      <trkpt lat="48.68384" lon="-3.39909">
        <ele>76</ele>
        <time>2015-01-25T08:16:41Z</time>
      </trkpt>
      <trkpt lat="48.68377" lon="-3.39906">
        <ele>76</ele>
        <time>2015-01-25T08:16:42Z</time>
      </trkpt>
      <trkpt lat="48.68369" lon="-3.39903">
        <ele>76</ele>
        <time>2015-01-25T08:16:43Z</time>
      </trkpt>
      <trkpt lat="48.68362" lon="-3.399">
        <ele>76</ele>
        <time>2015-01-25T08:16:44Z</time>
      </trkpt>
      <trkpt lat="48.68354" lon="-3.39897">
        <ele>76</ele>
        <time>2015-01-25T08:16:45Z</time>
      </trkpt>
      <trkpt lat="48.68347" lon="-3.39895">
        <ele>76</ele>
        <time>2015-01-25T08:16:46Z</time>
      </trkpt>
      <trkpt lat="48.68339" lon="-3.39892">
        <ele>76</ele>
        <time>2015-01-25T08:16:47Z</time>
      </trkpt>
      <trkpt lat="48.68332" lon="-3.39889">
        <ele>76</ele>
        <time>2015-01-25T08:16:48Z</time>
      </trkpt>
      <trkpt lat="48.68324" lon="-3.39886">
        <ele>76</ele>
        <time>2015-01-25T08:16:49Z</time>
      </trkpt>
      <trkpt lat="48.68317" lon="-3.39883">
        <ele>76</ele>
        <time>2015-01-25T08:16:50Z</time>
      </trkpt>
      <trkpt lat="48.68309" lon="-3.3988">
        <ele>76</ele>
        <time>2015-01-25T08:16:51Z</time>
      </trkpt>
      <trkpt lat="48.68301" lon="-3.39877">
        <ele>76</ele>
        <time>2015-01-25T08:16:53Z</time>
      </trkpt>
      <trkpt lat="48.68294" lon="-3.39874">
        <ele>76</ele>
        <time>2015-01-25T08:16:53Z</time>
      </trkpt>
      <trkpt lat="48.68287" lon="-3.39872">
        <ele>76</ele>
        <time>2015-01-25T08:16:54Z</time>
      </trkpt>
      <trkpt lat="48.68279" lon="-3.39869">
        <ele>76</ele>
        <time>2015-01-25T08:16:55Z</time>
      </trkpt>
      <trkpt lat="48.68272" lon="-3.39866">
        <ele>76</ele>
        <time>2015-01-25T08:16:56Z</time>
      </trkpt>
      <trkpt lat="48.68265" lon="-3.39863">
        <ele>76</ele>
        <time>2015-01-25T08:16:57Z</time>
      </trkpt>
      <trkpt lat="48.68258" lon="-3.3986">
        <ele>76</ele>
        <time>2015-01-25T08:16:58Z</time>
      </trkpt>
      <trkpt lat="48.68251" lon="-3.39856">
        <ele>76</ele>
        <time>2015-01-25T08:16:59Z</time>
      </trkpt>
      <trkpt lat="48.68244" lon="-3.39851">
        <ele>76</ele>
        <time>2015-01-25T08:17:00Z</time>
      </trkpt>
      <trkpt lat="48.68237" lon="-3.39847">
        <ele>76</ele>
        <time>2015-01-25T08:17:01Z</time>
      </trkpt>
      <trkpt lat="48.6823" lon="-3.39842">
        <ele>76</ele>
        <time>2015-01-25T08:17:02Z</time>
      </trkpt>
      <trkpt lat="48.68224" lon="-3.39837">
        <ele>76</ele>
        <time>2015-01-25T08:17:03Z</time>
      </trkpt>
      <trkpt lat="48.68217" lon="-3.39831">
        <ele>76</ele>
        <time>2015-01-25T08:17:04Z</time>
      </trkpt>
      <trkpt lat="48.68211" lon="-3.39825">
        <ele>76</ele>
        <time>2015-01-25T08:17:05Z</time>
      </trkpt>
      <trkpt lat="48.68206" lon="-3.39818">
        <ele>76</ele>
        <time>2015-01-25T08:17:06Z</time>
      </trkpt>
      <trkpt lat="48.682" lon="-3.3981">
        <ele>76</ele>
        <time>2015-01-25T08:17:08Z</time>
      </trkpt>
      <trkpt lat="48.68194" lon="-3.39803">
        <ele>76</ele>
        <time>2015-01-25T08:17:08Z</time>
      </trkpt>
      <trkpt lat="48.68188" lon="-3.39795">
        <ele>76</ele>
        <time>2015-01-25T08:17:09Z</time>
      </trkpt>
      <trkpt lat="48.68183" lon="-3.39789">
        <ele>76</ele>
        <time>2015-01-25T08:17:10Z</time>
      </trkpt>
      <trkpt lat="48.68177" lon="-3.39782">
        <ele>76</ele>
        <time>2015-01-25T08:17:11Z</time>
      </trkpt>
      <trkpt lat="48.68172" lon="-3.39775">
        <ele>76</ele>
        <time>2015-01-25T08:17:13Z</time>
      </trkpt>
      <trkpt lat="48.68166" lon="-3.39768">
        <ele>76</ele>
        <time>2015-01-25T08:17:13Z</time>
      </trkpt>
      <trkpt lat="48.68161" lon="-3.39762">
        <ele>76</ele>
        <time>2015-01-25T08:17:14Z</time>
      </trkpt>
      <trkpt lat="48.68155" lon="-3.39756">
        <ele>76</ele>
        <time>2015-01-25T08:17:15Z</time>
      </trkpt>
      <trkpt lat="48.68148" lon="-3.39749">
        <ele>76</ele>
        <time>2015-01-25T08:17:16Z</time>
      </trkpt>
      <trkpt lat="48.68142" lon="-3.39743">
        <ele>76</ele>
        <time>2015-01-25T08:17:17Z</time>
      </trkpt>
      <trkpt lat="48.68136" lon="-3.39737">
        <ele>76</ele>
        <time>2015-01-25T08:17:18Z</time>
      </trkpt>
      <trkpt lat="48.6813" lon="-3.39731">
        <ele>76</ele>
        <time>2015-01-25T08:17:19Z</time>
      </trkpt>
      <trkpt lat="48.68123" lon="-3.39725">
        <ele>76</ele>
        <time>2015-01-25T08:17:20Z</time>
      </trkpt>
      <trkpt lat="48.68117" lon="-3.3972">
        <ele>76</ele>
        <time>2015-01-25T08:17:21Z</time>
      </trkpt>
      <trkpt lat="48.68111" lon="-3.39714">
        <ele>76</ele>
        <time>2015-01-25T08:17:22Z</time>
      </trkpt>
      <trkpt lat="48.68104" lon="-3.39708">
        <ele>76</ele>
        <time>2015-01-25T08:17:23Z</time>
      </trkpt>
      <trkpt lat="48.68098" lon="-3.39703">
        <ele>76</ele>
        <time>2015-01-25T08:17:24Z</time>
      </trkpt>
      <trkpt lat="48.68091" lon="-3.39697">
        <ele>76</ele>
        <time>2015-01-25T08:17:25Z</time>
      </trkpt>
      <trkpt lat="48.68085" lon="-3.39692">
        <ele>76</ele>
        <time>2015-01-25T08:17:26Z</time>
      </trkpt>
      <trkpt lat="48.68078" lon="-3.39686">
        <ele>76</ele>
        <time>2015-01-25T08:17:28Z</time>
      </trkpt>
      <trkpt lat="48.68072" lon="-3.39681">
        <ele>76</ele>
        <time>2015-01-25T08:17:28Z</time>
      </trkpt>
      <trkpt lat="48.68065" lon="-3.39676">
        <ele>76</ele>
        <time>2015-01-25T08:17:29Z</time>
      </trkpt>
      <trkpt lat="48.68059" lon="-3.3967">
        <ele>76</ele>
        <time>2015-01-25T08:17:30Z</time>
      </trkpt>
      <trkpt lat="48.68052" lon="-3.39665">
        <ele>76</ele>
        <time>2015-01-25T08:17:31Z</time>
      </trkpt>
      <trkpt lat="48.68046" lon="-3.39659">
        <ele>76</ele>
        <time>2015-01-25T08:17:33Z</time>
      </trkpt>
      <trkpt lat="48.68039" lon="-3.39653">
        <ele>76</ele>
        <time>2015-01-25T08:17:33Z</time>
      </trkpt>
      <trkpt lat="48.68033" lon="-3.39648">
        <ele>76</ele>
        <time>2015-01-25T08:17:34Z</time>
      </trkpt>
      <trkpt lat="48.68027" lon="-3.39643">
        <ele>76</ele>
        <time>2015-01-25T08:17:35Z</time>
      </trkpt>
      <trkpt lat="48.68021" lon="-3.39637">
        <ele>76</ele>
        <time>2015-01-25T08:17:36Z</time>
      </trkpt>
      <trkpt lat="48.68015" lon="-3.39632">
        <ele>76</ele>
        <time>2015-01-25T08:17:37Z</time>
      </trkpt>
      <trkpt lat="48.68009" lon="-3.39627">
        <ele>76</ele>
        <time>2015-01-25T08:17:38Z</time>
      </trkpt>
      <trkpt lat="48.68003" lon="-3.39622">
        <ele>76</ele>
        <time>2015-01-25T08:17:39Z</time>
      </trkpt>
      <trkpt lat="48.67998" lon="-3.39617">
        <ele>76</ele>
        <time>2015-01-25T08:17:40Z</time>
      </trkpt>
      <trkpt lat="48.67992" lon="-3.39612">
        <ele>76</ele>
        <time>2015-01-25T08:17:41Z</time>
      </trkpt>
      <trkpt lat="48.67986" lon="-3.39608">
        <ele>76</ele>
        <time>2015-01-25T08:17:43Z</time>
      </trkpt>
      <trkpt lat="48.67981" lon="-3.39604">
        <ele>76</ele>
        <time>2015-01-25T08:17:43Z</time>
      </trkpt>
      <trkpt lat="48.67975" lon="-3.396">
        <ele>76</ele>
        <time>2015-01-25T08:17:44Z</time>
      </trkpt>
      <trkpt lat="48.67969" lon="-3.39597">
        <ele>76</ele>
        <time>2015-01-25T08:17:45Z</time>
      </trkpt>
      <trkpt lat="48.67963" lon="-3.39595">
        <ele>76</ele>
        <time>2015-01-25T08:17:46Z</time>
      </trkpt>
      <trkpt lat="48.67957" lon="-3.39592">
        <ele>76</ele>
        <time>2015-01-25T08:17:47Z</time>
      </trkpt>
      <trkpt lat="48.67951" lon="-3.39591">
        <ele>76</ele>
        <time>2015-01-25T08:17:48Z</time>
      </trkpt>
      <trkpt lat="48.67944" lon="-3.39589">
        <ele>76</ele>
        <time>2015-01-25T08:17:49Z</time>
      </trkpt>
      <trkpt lat="48.67938" lon="-3.39588">
        <ele>76</ele>
        <time>2015-01-25T08:17:50Z</time>
      </trkpt>
      <trkpt lat="48.67932" lon="-3.39587">
        <ele>76</ele>
        <time>2015-01-25T08:17:51Z</time>
      </trkpt>
      <trkpt lat="48.67926" lon="-3.39586">
        <ele>76</ele>
        <time>2015-01-25T08:17:52Z</time>
      </trkpt>
      <trkpt lat="48.6792" lon="-3.39585">
        <ele>76</ele>
        <time>2015-01-25T08:17:53Z</time>
      </trkpt>
      <trkpt lat="48.67913" lon="-3.39585">
        <ele>77</ele>
        <time>2015-01-25T08:17:54Z</time>
      </trkpt>
      <trkpt lat="48.67907" lon="-3.39584">
        <ele>77</ele>
        <time>2015-01-25T08:17:55Z</time>
      </trkpt>
      <trkpt lat="48.67902" lon="-3.39583">
        <ele>77</ele>
        <time>2015-01-25T08:17:56Z</time>
      </trkpt>
      <trkpt lat="48.67896" lon="-3.39582">
        <ele>77</ele>
        <time>2015-01-25T08:17:57Z</time>
      </trkpt>
      <trkpt lat="48.6789" lon="-3.39581">
        <ele>77</ele>
        <time>2015-01-25T08:17:58Z</time>
      </trkpt>
      <trkpt lat="48.67884" lon="-3.3958">
        <ele>77</ele>
        <time>2015-01-25T08:17:59Z</time>
      </trkpt>
      <trkpt lat="48.67878" lon="-3.39579">
        <ele>77</ele>
        <time>2015-01-25T08:18:00Z</time>
      </trkpt>
      <trkpt lat="48.67871" lon="-3.39579">
        <ele>77</ele>
        <time>2015-01-25T08:18:01Z</time>
      </trkpt>
      <trkpt lat="48.67859" lon="-3.39579">
        <ele>77</ele>
        <time>2015-01-25T08:18:03Z</time>
      </trkpt>
      <trkpt lat="48.67853" lon="-3.39579">
        <ele>77</ele>
        <time>2015-01-25T08:18:04Z</time>
      </trkpt>
      <trkpt lat="48.67846" lon="-3.3958">
        <ele>77</ele>
        <time>2015-01-25T08:18:05Z</time>
      </trkpt>
      <trkpt lat="48.6784" lon="-3.3958">
        <ele>77</ele>
        <time>2015-01-25T08:18:06Z</time>
      </trkpt>
      <trkpt lat="48.67834" lon="-3.39581">
        <ele>77</ele>
        <time>2015-01-25T08:18:07Z</time>
      </trkpt>
      <trkpt lat="48.67827" lon="-3.39581">
        <ele>77</ele>
        <time>2015-01-25T08:18:08Z</time>
      </trkpt>
      <trkpt lat="48.67821" lon="-3.39582">
        <ele>77</ele>
        <time>2015-01-25T08:18:09Z</time>
      </trkpt>
      <trkpt lat="48.67815" lon="-3.39581">
        <ele>77</ele>
        <time>2015-01-25T08:18:10Z</time>
      </trkpt>
      <trkpt lat="48.67808" lon="-3.39581">
        <ele>77</ele>
        <time>2015-01-25T08:18:11Z</time>
      </trkpt>
      <trkpt lat="48.67802" lon="-3.3958">
        <ele>77</ele>
        <time>2015-01-25T08:18:12Z</time>
      </trkpt>
      <trkpt lat="48.67795" lon="-3.39578">
        <ele>77</ele>
        <time>2015-01-25T08:18:13Z</time>
      </trkpt>
      <trkpt lat="48.67789" lon="-3.39575">
        <ele>77</ele>
        <time>2015-01-25T08:18:14Z</time>
      </trkpt>
      <trkpt lat="48.67783" lon="-3.39572">
        <ele>77</ele>
        <time>2015-01-25T08:18:15Z</time>
      </trkpt>
      <trkpt lat="48.67777" lon="-3.3957">
        <ele>77</ele>
        <time>2015-01-25T08:18:16Z</time>
      </trkpt>
      <trkpt lat="48.67772" lon="-3.39567">
        <ele>77</ele>
        <time>2015-01-25T08:18:17Z</time>
      </trkpt>
      <trkpt lat="48.67766" lon="-3.39564">
        <ele>77</ele>
        <time>2015-01-25T08:18:18Z</time>
      </trkpt>
      <trkpt lat="48.67761" lon="-3.39562">
        <ele>77</ele>
        <time>2015-01-25T08:18:19Z</time>
      </trkpt>
      <trkpt lat="48.67756" lon="-3.3956">
        <ele>77</ele>
        <time>2015-01-25T08:18:20Z</time>
      </trkpt>
      <trkpt lat="48.67751" lon="-3.39557">
        <ele>77</ele>
        <time>2015-01-25T08:18:21Z</time>
      </trkpt>
      <trkpt lat="48.67746" lon="-3.39555">
        <ele>77</ele>
        <time>2015-01-25T08:18:22Z</time>
      </trkpt>
      <trkpt lat="48.67741" lon="-3.39554">
        <ele>77</ele>
        <time>2015-01-25T08:18:23Z</time>
      </trkpt>
      <trkpt lat="48.67735" lon="-3.39552">
        <ele>77</ele>
        <time>2015-01-25T08:18:24Z</time>
      </trkpt>
      <trkpt lat="48.6773" lon="-3.3955">
        <ele>77</ele>
        <time>2015-01-25T08:18:25Z</time>
      </trkpt>
      <trkpt lat="48.67724" lon="-3.39548">
        <ele>77</ele>
        <time>2015-01-25T08:18:26Z</time>
      </trkpt>
      <trkpt lat="48.67719" lon="-3.39546">
        <ele>78</ele>
        <time>2015-01-25T08:18:27Z</time>
      </trkpt>
      <trkpt lat="48.67713" lon="-3.39545">
        <ele>78</ele>
        <time>2015-01-25T08:18:28Z</time>
      </trkpt>
      <trkpt lat="48.67707" lon="-3.39543">
        <ele>78</ele>
        <time>2015-01-25T08:18:29Z</time>
      </trkpt>
      <trkpt lat="48.67701" lon="-3.39541">
        <ele>78</ele>
        <time>2015-01-25T08:18:30Z</time>
      </trkpt>
      <trkpt lat="48.67695" lon="-3.39539">
        <ele>78</ele>
        <time>2015-01-25T08:18:31Z</time>
      </trkpt>
      <trkpt lat="48.67689" lon="-3.39537">
        <ele>78</ele>
        <time>2015-01-25T08:18:32Z</time>
      </trkpt>
      <trkpt lat="48.67683" lon="-3.39535">
        <ele>79</ele>
        <time>2015-01-25T08:18:33Z</time>
      </trkpt>
      <trkpt lat="48.67676" lon="-3.39532">
        <ele>79</ele>
        <time>2015-01-25T08:18:34Z</time>
      </trkpt>
      <trkpt lat="48.6767" lon="-3.39529">
        <ele>79</ele>
        <time>2015-01-25T08:18:35Z</time>
      </trkpt>
      <trkpt lat="48.67663" lon="-3.39525">
        <ele>79</ele>
        <time>2015-01-25T08:18:36Z</time>
      </trkpt>
      <trkpt lat="48.67656" lon="-3.3952">
        <ele>79</ele>
        <time>2015-01-25T08:18:37Z</time>
      </trkpt>
      <trkpt lat="48.67648" lon="-3.39515">
        <ele>79</ele>
        <time>2015-01-25T08:18:38Z</time>
      </trkpt>
      <trkpt lat="48.67641" lon="-3.3951">
        <ele>79</ele>
        <time>2015-01-25T08:18:39Z</time>
      </trkpt>
      <trkpt lat="48.67634" lon="-3.39506">
        <ele>80</ele>
        <time>2015-01-25T08:18:40Z</time>
      </trkpt>
      <trkpt lat="48.67627" lon="-3.39501">
        <ele>80</ele>
        <time>2015-01-25T08:18:41Z</time>
      </trkpt>
      <trkpt lat="48.67619" lon="-3.39497">
        <ele>80</ele>
        <time>2015-01-25T08:18:42Z</time>
      </trkpt>
      <trkpt lat="48.67612" lon="-3.39493">
        <ele>80</ele>
        <time>2015-01-25T08:18:43Z</time>
      </trkpt>
      <trkpt lat="48.67605" lon="-3.39489">
        <ele>80</ele>
        <time>2015-01-25T08:18:44Z</time>
      </trkpt>
      <trkpt lat="48.67598" lon="-3.39485">
        <ele>80</ele>
        <time>2015-01-25T08:18:45Z</time>
      </trkpt>
      <trkpt lat="48.67591" lon="-3.39481">
        <ele>80</ele>
        <time>2015-01-25T08:18:46Z</time>
      </trkpt>
      <trkpt lat="48.67584" lon="-3.39477">
        <ele>80</ele>
        <time>2015-01-25T08:18:47Z</time>
      </trkpt>
      <trkpt lat="48.67577" lon="-3.39474">
        <ele>80</ele>
        <time>2015-01-25T08:18:48Z</time>
      </trkpt>
      <trkpt lat="48.6757" lon="-3.3947">
        <ele>80</ele>
        <time>2015-01-25T08:18:49Z</time>
      </trkpt>
      <trkpt lat="48.67563" lon="-3.39467">
        <ele>80</ele>
        <time>2015-01-25T08:18:50Z</time>
      </trkpt>
      <trkpt lat="48.67556" lon="-3.39464">
        <ele>80</ele>
        <time>2015-01-25T08:18:51Z</time>
      </trkpt>
      <trkpt lat="48.67549" lon="-3.39462">
        <ele>80</ele>
        <time>2015-01-25T08:18:52Z</time>
      </trkpt>
      <trkpt lat="48.67542" lon="-3.3946">
        <ele>80</ele>
        <time>2015-01-25T08:18:53Z</time>
      </trkpt>
      <trkpt lat="48.67535" lon="-3.39458">
        <ele>80</ele>
        <time>2015-01-25T08:18:54Z</time>
      </trkpt>
      <trkpt lat="48.67527" lon="-3.39456">
        <ele>80</ele>
        <time>2015-01-25T08:18:55Z</time>
      </trkpt>
      <trkpt lat="48.6752" lon="-3.39455">
        <ele>80</ele>
        <time>2015-01-25T08:18:56Z</time>
      </trkpt>
      <trkpt lat="48.67513" lon="-3.39453">
        <ele>80</ele>
        <time>2015-01-25T08:18:57Z</time>
      </trkpt>
      <trkpt lat="48.67506" lon="-3.39451">
        <ele>80</ele>
        <time>2015-01-25T08:18:58Z</time>
      </trkpt>
      <trkpt lat="48.67499" lon="-3.39449">
        <ele>80</ele>
        <time>2015-01-25T08:18:59Z</time>
      </trkpt>
      <trkpt lat="48.67493" lon="-3.39447">
        <ele>80</ele>
        <time>2015-01-25T08:19:00Z</time>
      </trkpt>
      <trkpt lat="48.67486" lon="-3.39445">
        <ele>80</ele>
        <time>2015-01-25T08:19:01Z</time>
      </trkpt>
      <trkpt lat="48.67479" lon="-3.39442">
        <ele>80</ele>
        <time>2015-01-25T08:19:02Z</time>
      </trkpt>
      <trkpt lat="48.67473" lon="-3.3944">
        <ele>80</ele>
        <time>2015-01-25T08:19:03Z</time>
      </trkpt>
      <trkpt lat="48.67466" lon="-3.39437">
        <ele>81</ele>
        <time>2015-01-25T08:19:04Z</time>
      </trkpt>
      <trkpt lat="48.6746" lon="-3.39434">
        <ele>81</ele>
        <time>2015-01-25T08:19:05Z</time>
      </trkpt>
      <trkpt lat="48.67454" lon="-3.39431">
        <ele>81</ele>
        <time>2015-01-25T08:19:06Z</time>
      </trkpt>
      <trkpt lat="48.67448" lon="-3.39428">
        <ele>81</ele>
        <time>2015-01-25T08:19:07Z</time>
      </trkpt>
      <trkpt lat="48.67442" lon="-3.39424">
        <ele>81</ele>
        <time>2015-01-25T08:19:08Z</time>
      </trkpt>
      <trkpt lat="48.67436" lon="-3.3942">
        <ele>81</ele>
        <time>2015-01-25T08:19:09Z</time>
      </trkpt>
      <trkpt lat="48.6743" lon="-3.39417">
        <ele>82</ele>
        <time>2015-01-25T08:19:10Z</time>
      </trkpt>
      <trkpt lat="48.67424" lon="-3.39413">
        <ele>82</ele>
        <time>2015-01-25T08:19:11Z</time>
      </trkpt>
      <trkpt lat="48.67418" lon="-3.3941">
        <ele>82</ele>
        <time>2015-01-25T08:19:12Z</time>
      </trkpt>
      <trkpt lat="48.67412" lon="-3.39407">
        <ele>82</ele>
        <time>2015-01-25T08:19:13Z</time>
      </trkpt>
      <trkpt lat="48.67406" lon="-3.39404">
        <ele>82</ele>
        <time>2015-01-25T08:19:14Z</time>
      </trkpt>
      <trkpt lat="48.674" lon="-3.39401">
        <ele>82</ele>
        <time>2015-01-25T08:19:15Z</time>
      </trkpt>
      <trkpt lat="48.67394" lon="-3.39399">
        <ele>82</ele>
        <time>2015-01-25T08:19:16Z</time>
      </trkpt>
      <trkpt lat="48.67388" lon="-3.39396">
        <ele>82</ele>
        <time>2015-01-25T08:19:17Z</time>
      </trkpt>
      <trkpt lat="48.67382" lon="-3.39394">
        <ele>82</ele>
        <time>2015-01-25T08:19:18Z</time>
      </trkpt>
      <trkpt lat="48.67377" lon="-3.39393">
        <ele>82</ele>
        <time>2015-01-25T08:19:19Z</time>
      </trkpt>
      <trkpt lat="48.67371" lon="-3.39391">
        <ele>82</ele>
        <time>2015-01-25T08:19:20Z</time>
      </trkpt>
      <trkpt lat="48.67366" lon="-3.39389">
        <ele>82</ele>
        <time>2015-01-25T08:19:21Z</time>
      </trkpt>
      <trkpt lat="48.6736" lon="-3.39388">
        <ele>82</ele>
        <time>2015-01-25T08:19:22Z</time>
      </trkpt>
      <trkpt lat="48.67355" lon="-3.39386">
        <ele>82</ele>
        <time>2015-01-25T08:19:23Z</time>
      </trkpt>
      <trkpt lat="48.67349" lon="-3.39385">
        <ele>82</ele>
        <time>2015-01-25T08:19:24Z</time>
      </trkpt>
      <trkpt lat="48.67343" lon="-3.39385">
        <ele>82</ele>
        <time>2015-01-25T08:19:25Z</time>
      </trkpt>
      <trkpt lat="48.67337" lon="-3.39385">
        <ele>82</ele>
        <time>2015-01-25T08:19:26Z</time>
      </trkpt>
      <trkpt lat="48.67331" lon="-3.39386">
        <ele>82</ele>
        <time>2015-01-25T08:19:27Z</time>
      </trkpt>
      <trkpt lat="48.67324" lon="-3.39387">
        <ele>82</ele>
        <time>2015-01-25T08:19:28Z</time>
      </trkpt>
      <trkpt lat="48.67318" lon="-3.39388">
        <ele>82</ele>
        <time>2015-01-25T08:19:29Z</time>
      </trkpt>
      <trkpt lat="48.67312" lon="-3.3939">
        <ele>82</ele>
        <time>2015-01-25T08:19:30Z</time>
      </trkpt>
      <trkpt lat="48.67306" lon="-3.39392">
        <ele>83</ele>
        <time>2015-01-25T08:19:31Z</time>
      </trkpt>
      <trkpt lat="48.673" lon="-3.39394">
        <ele>83</ele>
        <time>2015-01-25T08:19:32Z</time>
      </trkpt>
      <trkpt lat="48.67294" lon="-3.39396">
        <ele>83</ele>
        <time>2015-01-25T08:19:33Z</time>
      </trkpt>
      <trkpt lat="48.67288" lon="-3.39398">
        <ele>83</ele>
        <time>2015-01-25T08:19:34Z</time>
      </trkpt>
      <trkpt lat="48.67282" lon="-3.39401">
        <ele>83</ele>
        <time>2015-01-25T08:19:35Z</time>
      </trkpt>
      <trkpt lat="48.67276" lon="-3.39404">
        <ele>84</ele>
        <time>2015-01-25T08:19:36Z</time>
      </trkpt>
      <trkpt lat="48.67271" lon="-3.39407">
        <ele>84</ele>
        <time>2015-01-25T08:19:37Z</time>
      </trkpt>
      <trkpt lat="48.67265" lon="-3.39409">
        <ele>84</ele>
        <time>2015-01-25T08:19:38Z</time>
      </trkpt>
      <trkpt lat="48.67259" lon="-3.39412">
        <ele>84</ele>
        <time>2015-01-25T08:19:39Z</time>
      </trkpt>
      <trkpt lat="48.67253" lon="-3.39415">
        <ele>84</ele>
        <time>2015-01-25T08:19:40Z</time>
      </trkpt>
      <trkpt lat="48.67248" lon="-3.39417">
        <ele>84</ele>
        <time>2015-01-25T08:19:41Z</time>
      </trkpt>
      <trkpt lat="48.67242" lon="-3.39419">
        <ele>85</ele>
        <time>2015-01-25T08:19:42Z</time>
      </trkpt>
      <trkpt lat="48.67237" lon="-3.3942">
        <ele>85</ele>
        <time>2015-01-25T08:19:43Z</time>
      </trkpt>
      <trkpt lat="48.67231" lon="-3.39421">
        <ele>85</ele>
        <time>2015-01-25T08:19:44Z</time>
      </trkpt>
      <trkpt lat="48.67226" lon="-3.39422">
        <ele>85</ele>
        <time>2015-01-25T08:19:45Z</time>
      </trkpt>
      <trkpt lat="48.6722" lon="-3.39423">
        <ele>85</ele>
        <time>2015-01-25T08:19:46Z</time>
      </trkpt>
      <trkpt lat="48.67215" lon="-3.39424">
        <ele>86</ele>
        <time>2015-01-25T08:19:47Z</time>
      </trkpt>
      <trkpt lat="48.6721" lon="-3.39425">
        <ele>86</ele>
        <time>2015-01-25T08:19:48Z</time>
      </trkpt>
      <trkpt lat="48.67204" lon="-3.39426">
        <ele>86</ele>
        <time>2015-01-25T08:19:49Z</time>
      </trkpt>
      <trkpt lat="48.67199" lon="-3.39427">
        <ele>86</ele>
        <time>2015-01-25T08:19:50Z</time>
      </trkpt>
      <trkpt lat="48.67193" lon="-3.39428">
        <ele>86</ele>
        <time>2015-01-25T08:19:51Z</time>
      </trkpt>
      <trkpt lat="48.67187" lon="-3.39429">
        <ele>86</ele>
        <time>2015-01-25T08:19:52Z</time>
      </trkpt>
      <trkpt lat="48.67182" lon="-3.3943">
        <ele>86</ele>
        <time>2015-01-25T08:19:53Z</time>
      </trkpt>
      <trkpt lat="48.67176" lon="-3.39431">
        <ele>86</ele>
        <time>2015-01-25T08:19:54Z</time>
      </trkpt>
      <trkpt lat="48.67171" lon="-3.39432">
        <ele>86</ele>
        <time>2015-01-25T08:19:55Z</time>
      </trkpt>
      <trkpt lat="48.67165" lon="-3.39433">
        <ele>86</ele>
        <time>2015-01-25T08:19:56Z</time>
      </trkpt>
      <trkpt lat="48.6716" lon="-3.39434">
        <ele>87</ele>
        <time>2015-01-25T08:19:57Z</time>
      </trkpt>
      <trkpt lat="48.67154" lon="-3.39435">
        <ele>87</ele>
        <time>2015-01-25T08:19:58Z</time>
      </trkpt>
      <trkpt lat="48.67149" lon="-3.39436">
        <ele>87</ele>
        <time>2015-01-25T08:19:59Z</time>
      </trkpt>
      <trkpt lat="48.67143" lon="-3.39437">
        <ele>87</ele>
        <time>2015-01-25T08:20:00Z</time>
      </trkpt>
      <trkpt lat="48.67137" lon="-3.39438">
        <ele>87</ele>
        <time>2015-01-25T08:20:01Z</time>
      </trkpt>
      <trkpt lat="48.67132" lon="-3.39439">
        <ele>87</ele>
        <time>2015-01-25T08:20:02Z</time>
      </trkpt>
      <trkpt lat="48.67126" lon="-3.39441">
        <ele>87</ele>
        <time>2015-01-25T08:20:03Z</time>
      </trkpt>
      <trkpt lat="48.6712" lon="-3.39442">
        <ele>88</ele>
        <time>2015-01-25T08:20:04Z</time>
      </trkpt>
      <trkpt lat="48.67115" lon="-3.39443">
        <ele>88</ele>
        <time>2015-01-25T08:20:05Z</time>
      </trkpt>
      <trkpt lat="48.6711" lon="-3.39445">
        <ele>88</ele>
        <time>2015-01-25T08:20:06Z</time>
      </trkpt>
      <trkpt lat="48.67105" lon="-3.39446">
        <ele>88</ele>
        <time>2015-01-25T08:20:07Z</time>
      </trkpt>
      <trkpt lat="48.67099" lon="-3.39448">
        <ele>88</ele>
        <time>2015-01-25T08:20:08Z</time>
      </trkpt>
      <trkpt lat="48.67094" lon="-3.39449">
        <ele>88</ele>
        <time>2015-01-25T08:20:09Z</time>
      </trkpt>
      <trkpt lat="48.67089" lon="-3.39451">
        <ele>88</ele>
        <time>2015-01-25T08:20:10Z</time>
      </trkpt>
      <trkpt lat="48.67083" lon="-3.39452">
        <ele>88</ele>
        <time>2015-01-25T08:20:11Z</time>
      </trkpt>
      <trkpt lat="48.67078" lon="-3.39454">
        <ele>88</ele>
        <time>2015-01-25T08:20:12Z</time>
      </trkpt>
      <trkpt lat="48.67072" lon="-3.39456">
        <ele>88</ele>
        <time>2015-01-25T08:20:13Z</time>
      </trkpt>
      <trkpt lat="48.67067" lon="-3.39458">
        <ele>88</ele>
        <time>2015-01-25T08:20:14Z</time>
      </trkpt>
      <trkpt lat="48.67062" lon="-3.39461">
        <ele>88</ele>
        <time>2015-01-25T08:20:15Z</time>
      </trkpt>
      <trkpt lat="48.67057" lon="-3.39464">
        <ele>88</ele>
        <time>2015-01-25T08:20:16Z</time>
      </trkpt>
      <trkpt lat="48.67052" lon="-3.39469">
        <ele>89</ele>
        <time>2015-01-25T08:20:17Z</time>
      </trkpt>
      <trkpt lat="48.67048" lon="-3.39475">
        <ele>89</ele>
        <time>2015-01-25T08:20:18Z</time>
      </trkpt>
      <trkpt lat="48.67044" lon="-3.39482">
        <ele>89</ele>
        <time>2015-01-25T08:20:19Z</time>
      </trkpt>
      <trkpt lat="48.6704" lon="-3.39489">
        <ele>89</ele>
        <time>2015-01-25T08:20:20Z</time>
      </trkpt>
      <trkpt lat="48.67037" lon="-3.39496">
        <ele>89</ele>
        <time>2015-01-25T08:20:21Z</time>
      </trkpt>
      <trkpt lat="48.67034" lon="-3.39504">
        <ele>89</ele>
        <time>2015-01-25T08:20:22Z</time>
      </trkpt>
      <trkpt lat="48.67031" lon="-3.39512">
        <ele>89</ele>
        <time>2015-01-25T08:20:23Z</time>
      </trkpt>
      <trkpt lat="48.67028" lon="-3.3952">
        <ele>89</ele>
        <time>2015-01-25T08:20:24Z</time>
      </trkpt>
      <trkpt lat="48.67025" lon="-3.39527">
        <ele>89</ele>
        <time>2015-01-25T08:20:25Z</time>
      </trkpt>
      <trkpt lat="48.67022" lon="-3.39534">
        <ele>89</ele>
        <time>2015-01-25T08:20:26Z</time>
      </trkpt>
      <trkpt lat="48.6702" lon="-3.39541">
        <ele>89</ele>
        <time>2015-01-25T08:20:27Z</time>
      </trkpt>
      <trkpt lat="48.67017" lon="-3.39548">
        <ele>89</ele>
        <time>2015-01-25T08:20:28Z</time>
      </trkpt>
      <trkpt lat="48.67014" lon="-3.39554">
        <ele>89</ele>
        <time>2015-01-25T08:20:29Z</time>
      </trkpt>
      <trkpt lat="48.6701" lon="-3.3956">
        <ele>89</ele>
        <time>2015-01-25T08:20:30Z</time>
      </trkpt>
      <trkpt lat="48.67006" lon="-3.39565">
        <ele>89</ele>
        <time>2015-01-25T08:20:31Z</time>
      </trkpt>
      <trkpt lat="48.67" lon="-3.39569">
        <ele>89</ele>
        <time>2015-01-25T08:20:32Z</time>
      </trkpt>
      <trkpt lat="48.66995" lon="-3.3957">
        <ele>89</ele>
        <time>2015-01-25T08:20:33Z</time>
      </trkpt>
      <trkpt lat="48.66989" lon="-3.39572">
        <ele>90</ele>
        <time>2015-01-25T08:20:34Z</time>
      </trkpt>
      <trkpt lat="48.66983" lon="-3.39572">
        <ele>90</ele>
        <time>2015-01-25T08:20:35Z</time>
      </trkpt>
      <trkpt lat="48.66978" lon="-3.39574">
        <ele>90</ele>
        <time>2015-01-25T08:20:36Z</time>
      </trkpt>
      <trkpt lat="48.66972" lon="-3.39575">
        <ele>90</ele>
        <time>2015-01-25T08:20:37Z</time>
      </trkpt>
      <trkpt lat="48.66967" lon="-3.39577">
        <ele>90</ele>
        <time>2015-01-25T08:20:38Z</time>
      </trkpt>
      <trkpt lat="48.66961" lon="-3.3958">
        <ele>90</ele>
        <time>2015-01-25T08:20:39Z</time>
      </trkpt>
      <trkpt lat="48.66955" lon="-3.39582">
        <ele>90</ele>
        <time>2015-01-25T08:20:40Z</time>
      </trkpt>
      <trkpt lat="48.6695" lon="-3.39585">
        <ele>90</ele>
        <time>2015-01-25T08:20:41Z</time>
      </trkpt>
      <trkpt lat="48.66944" lon="-3.39588">
        <ele>90</ele>
        <time>2015-01-25T08:20:42Z</time>
      </trkpt>
      <trkpt lat="48.66938" lon="-3.39591">
        <ele>90</ele>
        <time>2015-01-25T08:20:43Z</time>
      </trkpt>
      <trkpt lat="48.66933" lon="-3.39595">
        <ele>90</ele>
        <time>2015-01-25T08:20:44Z</time>
      </trkpt>
      <trkpt lat="48.66927" lon="-3.39598">
        <ele>90</ele>
        <time>2015-01-25T08:20:45Z</time>
      </trkpt>
      <trkpt lat="48.66921" lon="-3.396">
        <ele>91</ele>
        <time>2015-01-25T08:20:46Z</time>
      </trkpt>
      <trkpt lat="48.66915" lon="-3.39603">
        <ele>91</ele>
        <time>2015-01-25T08:20:47Z</time>
      </trkpt>
      <trkpt lat="48.66909" lon="-3.39605">
        <ele>91</ele>
        <time>2015-01-25T08:20:48Z</time>
      </trkpt>
      <trkpt lat="48.66903" lon="-3.39608">
        <ele>91</ele>
        <time>2015-01-25T08:20:49Z</time>
      </trkpt>
      <trkpt lat="48.66898" lon="-3.39611">
        <ele>91</ele>
        <time>2015-01-25T08:20:50Z</time>
      </trkpt>
      <trkpt lat="48.66893" lon="-3.39615">
        <ele>91</ele>
        <time>2015-01-25T08:20:51Z</time>
      </trkpt>
      <trkpt lat="48.66888" lon="-3.3962">
        <ele>91</ele>
        <time>2015-01-25T08:20:52Z</time>
      </trkpt>
      <trkpt lat="48.66883" lon="-3.39626">
        <ele>91</ele>
        <time>2015-01-25T08:20:53Z</time>
      </trkpt>
      <trkpt lat="48.6688" lon="-3.39633">
        <ele>91</ele>
        <time>2015-01-25T08:20:54Z</time>
      </trkpt>
      <trkpt lat="48.66876" lon="-3.39642">
        <ele>91</ele>
        <time>2015-01-25T08:20:55Z</time>
      </trkpt>
      <trkpt lat="48.66873" lon="-3.3965">
        <ele>91</ele>
        <time>2015-01-25T08:20:56Z</time>
      </trkpt>
      <trkpt lat="48.66871" lon="-3.39658">
        <ele>91</ele>
        <time>2015-01-25T08:20:57Z</time>
      </trkpt>
      <trkpt lat="48.66867" lon="-3.39667">
        <ele>91</ele>
        <time>2015-01-25T08:20:58Z</time>
      </trkpt>
      <trkpt lat="48.66864" lon="-3.39675">
        <ele>91</ele>
        <time>2015-01-25T08:20:59Z</time>
      </trkpt>
      <trkpt lat="48.6686" lon="-3.39682">
        <ele>91</ele>
        <time>2015-01-25T08:21:00Z</time>
      </trkpt>
      <trkpt lat="48.66856" lon="-3.39688">
        <ele>91</ele>
        <time>2015-01-25T08:21:01Z</time>
      </trkpt>
      <trkpt lat="48.6685" lon="-3.39694">
        <ele>91</ele>
        <time>2015-01-25T08:21:02Z</time>
      </trkpt>
      <trkpt lat="48.66845" lon="-3.39698">
        <ele>91</ele>
        <time>2015-01-25T08:21:03Z</time>
      </trkpt>
      <trkpt lat="48.6684" lon="-3.39701">
        <ele>91</ele>
        <time>2015-01-25T08:21:04Z</time>
      </trkpt>
      <trkpt lat="48.66834" lon="-3.39703">
        <ele>92</ele>
        <time>2015-01-25T08:21:05Z</time>
      </trkpt>
      <trkpt lat="48.66828" lon="-3.39705">
        <ele>92</ele>
        <time>2015-01-25T08:21:06Z</time>
      </trkpt>
      <trkpt lat="48.66822" lon="-3.39707">
        <ele>92</ele>
        <time>2015-01-25T08:21:07Z</time>
      </trkpt>
      <trkpt lat="48.66817" lon="-3.39709">
        <ele>92</ele>
        <time>2015-01-25T08:21:08Z</time>
      </trkpt>
      <trkpt lat="48.66811" lon="-3.39711">
        <ele>92</ele>
        <time>2015-01-25T08:21:09Z</time>
      </trkpt>
      <trkpt lat="48.66805" lon="-3.39712">
        <ele>92</ele>
        <time>2015-01-25T08:21:10Z</time>
      </trkpt>
      <trkpt lat="48.66799" lon="-3.39714">
        <ele>92</ele>
        <time>2015-01-25T08:21:11Z</time>
      </trkpt>
      <trkpt lat="48.66793" lon="-3.39715">
        <ele>92</ele>
        <time>2015-01-25T08:21:12Z</time>
      </trkpt>
      <trkpt lat="48.66788" lon="-3.39717">
        <ele>92</ele>
        <time>2015-01-25T08:21:13Z</time>
      </trkpt>
      <trkpt lat="48.66783" lon="-3.39718">
        <ele>92</ele>
        <time>2015-01-25T08:21:14Z</time>
      </trkpt>
      <trkpt lat="48.66778" lon="-3.39719">
        <ele>92</ele>
        <time>2015-01-25T08:21:15Z</time>
      </trkpt>
      <trkpt lat="48.66773" lon="-3.39721">
        <ele>93</ele>
        <time>2015-01-25T08:21:16Z</time>
      </trkpt>
      <trkpt lat="48.66769" lon="-3.39722">
        <ele>93</ele>
        <time>2015-01-25T08:21:17Z</time>
      </trkpt>
      <trkpt lat="48.66764" lon="-3.39723">
        <ele>93</ele>
        <time>2015-01-25T08:21:18Z</time>
      </trkpt>
      <trkpt lat="48.66759" lon="-3.39725">
        <ele>93</ele>
        <time>2015-01-25T08:21:19Z</time>
      </trkpt>
      <trkpt lat="48.66753" lon="-3.39727">
        <ele>94</ele>
        <time>2015-01-25T08:21:20Z</time>
      </trkpt>
      <trkpt lat="48.66748" lon="-3.39729">
        <ele>94</ele>
        <time>2015-01-25T08:21:21Z</time>
      </trkpt>
      <trkpt lat="48.66742" lon="-3.39731">
        <ele>94</ele>
        <time>2015-01-25T08:21:22Z</time>
      </trkpt>
      <trkpt lat="48.66736" lon="-3.39733">
        <ele>94</ele>
        <time>2015-01-25T08:21:23Z</time>
      </trkpt>
      <trkpt lat="48.66731" lon="-3.39735">
        <ele>94</ele>
        <time>2015-01-25T08:21:24Z</time>
      </trkpt>
      <trkpt lat="48.66725" lon="-3.39736">
        <ele>94</ele>
        <time>2015-01-25T08:21:25Z</time>
      </trkpt>
      <trkpt lat="48.66719" lon="-3.39737">
        <ele>95</ele>
        <time>2015-01-25T08:21:26Z</time>
      </trkpt>
      <trkpt lat="48.66713" lon="-3.39738">
        <ele>95</ele>
        <time>2015-01-25T08:21:27Z</time>
      </trkpt>
      <trkpt lat="48.66708" lon="-3.39739">
        <ele>95</ele>
        <time>2015-01-25T08:21:28Z</time>
      </trkpt>
      <trkpt lat="48.66702" lon="-3.39739">
        <ele>95</ele>
        <time>2015-01-25T08:21:29Z</time>
      </trkpt>
      <trkpt lat="48.66691" lon="-3.39739">
        <ele>96</ele>
        <time>2015-01-25T08:21:31Z</time>
      </trkpt>
      <trkpt lat="48.66686" lon="-3.39739">
        <ele>96</ele>
        <time>2015-01-25T08:21:32Z</time>
      </trkpt>
      <trkpt lat="48.6668" lon="-3.39739">
        <ele>96</ele>
        <time>2015-01-25T08:21:33Z</time>
      </trkpt>
      <trkpt lat="48.66675" lon="-3.39738">
        <ele>96</ele>
        <time>2015-01-25T08:21:34Z</time>
      </trkpt>
      <trkpt lat="48.6667" lon="-3.39737">
        <ele>96</ele>
        <time>2015-01-25T08:21:35Z</time>
      </trkpt>
      <trkpt lat="48.66665" lon="-3.39735">
        <ele>97</ele>
        <time>2015-01-25T08:21:36Z</time>
      </trkpt>
      <trkpt lat="48.66659" lon="-3.39733">
        <ele>97</ele>
        <time>2015-01-25T08:21:37Z</time>
      </trkpt>
      <trkpt lat="48.66654" lon="-3.39732">
        <ele>97</ele>
        <time>2015-01-25T08:21:38Z</time>
      </trkpt>
      <trkpt lat="48.66648" lon="-3.3973">
        <ele>97</ele>
        <time>2015-01-25T08:21:39Z</time>
      </trkpt>
      <trkpt lat="48.66642" lon="-3.39728">
        <ele>97</ele>
        <time>2015-01-25T08:21:40Z</time>
      </trkpt>
      <trkpt lat="48.66637" lon="-3.39725">
        <ele>97</ele>
        <time>2015-01-25T08:21:41Z</time>
      </trkpt>
      <trkpt lat="48.66631" lon="-3.39723">
        <ele>97</ele>
        <time>2015-01-25T08:21:42Z</time>
      </trkpt>
      <trkpt lat="48.66626" lon="-3.39721">
        <ele>97</ele>
        <time>2015-01-25T08:21:43Z</time>
      </trkpt>
      <trkpt lat="48.6662" lon="-3.39719">
        <ele>97</ele>
        <time>2015-01-25T08:21:44Z</time>
      </trkpt>
      <trkpt lat="48.66614" lon="-3.39716">
        <ele>97</ele>
        <time>2015-01-25T08:21:45Z</time>
      </trkpt>
      <trkpt lat="48.66608" lon="-3.39714">
        <ele>97</ele>
        <time>2015-01-25T08:21:46Z</time>
      </trkpt>
      <trkpt lat="48.66602" lon="-3.39712">
        <ele>97</ele>
        <time>2015-01-25T08:21:47Z</time>
      </trkpt>
      <trkpt lat="48.66596" lon="-3.3971">
        <ele>98</ele>
        <time>2015-01-25T08:21:48Z</time>
      </trkpt>
      <trkpt lat="48.6659" lon="-3.39708">
        <ele>98</ele>
        <time>2015-01-25T08:21:49Z</time>
      </trkpt>
      <trkpt lat="48.66584" lon="-3.39706">
        <ele>98</ele>
        <time>2015-01-25T08:21:50Z</time>
      </trkpt>
      <trkpt lat="48.66578" lon="-3.39705">
        <ele>98</ele>
        <time>2015-01-25T08:21:51Z</time>
      </trkpt>
      <trkpt lat="48.66572" lon="-3.39704">
        <ele>98</ele>
        <time>2015-01-25T08:21:52Z</time>
      </trkpt>
      <trkpt lat="48.66566" lon="-3.39704">
        <ele>98</ele>
        <time>2015-01-25T08:21:53Z</time>
      </trkpt>
      <trkpt lat="48.6656" lon="-3.39703">
        <ele>98</ele>
        <time>2015-01-25T08:21:54Z</time>
      </trkpt>
      <trkpt lat="48.66554" lon="-3.39704">
        <ele>98</ele>
        <time>2015-01-25T08:21:55Z</time>
      </trkpt>
      <trkpt lat="48.66548" lon="-3.39704">
        <ele>98</ele>
        <time>2015-01-25T08:21:56Z</time>
      </trkpt>
      <trkpt lat="48.66542" lon="-3.39704">
        <ele>98</ele>
        <time>2015-01-25T08:21:57Z</time>
      </trkpt>
      <trkpt lat="48.66536" lon="-3.39704">
        <ele>98</ele>
        <time>2015-01-25T08:21:58Z</time>
      </trkpt>
      <trkpt lat="48.66531" lon="-3.39703">
        <ele>98</ele>
        <time>2015-01-25T08:21:59Z</time>
      </trkpt>
      <trkpt lat="48.66525" lon="-3.39703">
        <ele>98</ele>
        <time>2015-01-25T08:22:00Z</time>
      </trkpt>
      <trkpt lat="48.66519" lon="-3.39703">
        <ele>99</ele>
        <time>2015-01-25T08:22:01Z</time>
      </trkpt>
      <trkpt lat="48.66513" lon="-3.39702">
        <ele>99</ele>
        <time>2015-01-25T08:22:02Z</time>
      </trkpt>
      <trkpt lat="48.66508" lon="-3.39702">
        <ele>99</ele>
        <time>2015-01-25T08:22:03Z</time>
      </trkpt>
      <trkpt lat="48.66502" lon="-3.39701">
        <ele>99</ele>
        <time>2015-01-25T08:22:04Z</time>
      </trkpt>
      <trkpt lat="48.66497" lon="-3.39701">
        <ele>99</ele>
        <time>2015-01-25T08:22:05Z</time>
      </trkpt>
      <trkpt lat="48.66491" lon="-3.39701">
        <ele>99</ele>
        <time>2015-01-25T08:22:06Z</time>
      </trkpt>
      <trkpt lat="48.66486" lon="-3.39701">
        <ele>99</ele>
        <time>2015-01-25T08:22:07Z</time>
      </trkpt>
      <trkpt lat="48.6648" lon="-3.39701">
        <ele>99</ele>
        <time>2015-01-25T08:22:08Z</time>
      </trkpt>
      <trkpt lat="48.66475" lon="-3.39702">
        <ele>99</ele>
        <time>2015-01-25T08:22:09Z</time>
      </trkpt>
      <trkpt lat="48.66469" lon="-3.39704">
        <ele>99</ele>
        <time>2015-01-25T08:22:10Z</time>
      </trkpt>
      <trkpt lat="48.66464" lon="-3.39705">
        <ele>99</ele>
        <time>2015-01-25T08:22:11Z</time>
      </trkpt>
      <trkpt lat="48.66458" lon="-3.39707">
        <ele>99</ele>
        <time>2015-01-25T08:22:12Z</time>
      </trkpt>
      <trkpt lat="48.66452" lon="-3.39708">
        <ele>99</ele>
        <time>2015-01-25T08:22:13Z</time>
      </trkpt>
      <trkpt lat="48.66447" lon="-3.3971">
        <ele>99</ele>
        <time>2015-01-25T08:22:14Z</time>
      </trkpt>
      <trkpt lat="48.66441" lon="-3.39711">
        <ele>100</ele>
        <time>2015-01-25T08:22:15Z</time>
      </trkpt>
      <trkpt lat="48.66435" lon="-3.39712">
        <ele>100</ele>
        <time>2015-01-25T08:22:16Z</time>
      </trkpt>
      <trkpt lat="48.66429" lon="-3.39713">
        <ele>100</ele>
        <time>2015-01-25T08:22:17Z</time>
      </trkpt>
      <trkpt lat="48.66423" lon="-3.39713">
        <ele>100</ele>
        <time>2015-01-25T08:22:18Z</time>
      </trkpt>
      <trkpt lat="48.66417" lon="-3.39713">
        <ele>100</ele>
        <time>2015-01-25T08:22:19Z</time>
      </trkpt>
      <trkpt lat="48.66412" lon="-3.39712">
        <ele>100</ele>
        <time>2015-01-25T08:22:20Z</time>
      </trkpt>
      <trkpt lat="48.66406" lon="-3.39711">
        <ele>100</ele>
        <time>2015-01-25T08:22:21Z</time>
      </trkpt>
      <trkpt lat="48.664" lon="-3.39709">
        <ele>100</ele>
        <time>2015-01-25T08:22:22Z</time>
      </trkpt>
      <trkpt lat="48.66394" lon="-3.39707">
        <ele>100</ele>
        <time>2015-01-25T08:22:23Z</time>
      </trkpt>
      <trkpt lat="48.66388" lon="-3.39706">
        <ele>100</ele>
        <time>2015-01-25T08:22:24Z</time>
      </trkpt>
      <trkpt lat="48.66382" lon="-3.39704">
        <ele>100</ele>
        <time>2015-01-25T08:22:25Z</time>
      </trkpt>
      <trkpt lat="48.66377" lon="-3.39702">
        <ele>100</ele>
        <time>2015-01-25T08:22:26Z</time>
      </trkpt>
      <trkpt lat="48.66371" lon="-3.39701">
        <ele>100</ele>
        <time>2015-01-25T08:22:27Z</time>
      </trkpt>
      <trkpt lat="48.66365" lon="-3.39699">
        <ele>100</ele>
        <time>2015-01-25T08:22:28Z</time>
      </trkpt>
      <trkpt lat="48.66359" lon="-3.39697">
        <ele>100</ele>
        <time>2015-01-25T08:22:29Z</time>
      </trkpt>
      <trkpt lat="48.66354" lon="-3.39695">
        <ele>100</ele>
        <time>2015-01-25T08:22:30Z</time>
      </trkpt>
      <trkpt lat="48.66349" lon="-3.39693">
        <ele>100</ele>
        <time>2015-01-25T08:22:31Z</time>
      </trkpt>
      <trkpt lat="48.66344" lon="-3.39691">
        <ele>100</ele>
        <time>2015-01-25T08:22:32Z</time>
      </trkpt>
      <trkpt lat="48.66338" lon="-3.39689">
        <ele>100</ele>
        <time>2015-01-25T08:22:33Z</time>
      </trkpt>
      <trkpt lat="48.66333" lon="-3.39687">
        <ele>100</ele>
        <time>2015-01-25T08:22:34Z</time>
      </trkpt>
      <trkpt lat="48.66327" lon="-3.39685">
        <ele>100</ele>
        <time>2015-01-25T08:22:35Z</time>
      </trkpt>
      <trkpt lat="48.66322" lon="-3.39683">
        <ele>100</ele>
        <time>2015-01-25T08:22:36Z</time>
      </trkpt>
      <trkpt lat="48.66316" lon="-3.39681">
        <ele>100</ele>
        <time>2015-01-25T08:22:37Z</time>
      </trkpt>
      <trkpt lat="48.6631" lon="-3.39679">
        <ele>100</ele>
        <time>2015-01-25T08:22:38Z</time>
      </trkpt>
      <trkpt lat="48.66304" lon="-3.39677">
        <ele>100</ele>
        <time>2015-01-25T08:22:39Z</time>
      </trkpt>
      <trkpt lat="48.66298" lon="-3.39675">
        <ele>100</ele>
        <time>2015-01-25T08:22:40Z</time>
      </trkpt>
      <trkpt lat="48.66291" lon="-3.39673">
        <ele>100</ele>
        <time>2015-01-25T08:22:41Z</time>
      </trkpt>
      <trkpt lat="48.66285" lon="-3.39671">
        <ele>100</ele>
        <time>2015-01-25T08:22:42Z</time>
      </trkpt>
      <trkpt lat="48.66279" lon="-3.39668">
        <ele>100</ele>
        <time>2015-01-25T08:22:43Z</time>
      </trkpt>
      <trkpt lat="48.66273" lon="-3.39666">
        <ele>100</ele>
        <time>2015-01-25T08:22:44Z</time>
      </trkpt>
      <trkpt lat="48.66267" lon="-3.39663">
        <ele>100</ele>
        <time>2015-01-25T08:22:45Z</time>
      </trkpt>
      <trkpt lat="48.6626" lon="-3.39661">
        <ele>100</ele>
        <time>2015-01-25T08:22:46Z</time>
      </trkpt>
      <trkpt lat="48.66254" lon="-3.39658">
        <ele>100</ele>
        <time>2015-01-25T08:22:47Z</time>
      </trkpt>
      <trkpt lat="48.66248" lon="-3.39655">
        <ele>100</ele>
        <time>2015-01-25T08:22:48Z</time>
      </trkpt>
      <trkpt lat="48.66241" lon="-3.39652">
        <ele>100</ele>
        <time>2015-01-25T08:22:49Z</time>
      </trkpt>
      <trkpt lat="48.66235" lon="-3.3965">
        <ele>100</ele>
        <time>2015-01-25T08:22:50Z</time>
      </trkpt>
      <trkpt lat="48.66228" lon="-3.39647">
        <ele>100</ele>
        <time>2015-01-25T08:22:51Z</time>
      </trkpt>
      <trkpt lat="48.66222" lon="-3.39644">
        <ele>100</ele>
        <time>2015-01-25T08:22:52Z</time>
      </trkpt>
      <trkpt lat="48.66216" lon="-3.39641">
        <ele>100</ele>
        <time>2015-01-25T08:22:53Z</time>
      </trkpt>
      <trkpt lat="48.6621" lon="-3.39638">
        <ele>100</ele>
        <time>2015-01-25T08:22:54Z</time>
      </trkpt>
      <trkpt lat="48.66203" lon="-3.39635">
        <ele>100</ele>
        <time>2015-01-25T08:22:55Z</time>
      </trkpt>
      <trkpt lat="48.66197" lon="-3.39633">
        <ele>100</ele>
        <time>2015-01-25T08:22:56Z</time>
      </trkpt>
      <trkpt lat="48.66191" lon="-3.3963">
        <ele>100</ele>
        <time>2015-01-25T08:22:57Z</time>
      </trkpt>
      <trkpt lat="48.66185" lon="-3.39628">
        <ele>100</ele>
        <time>2015-01-25T08:22:58Z</time>
      </trkpt>
      <trkpt lat="48.66178" lon="-3.39625">
        <ele>100</ele>
        <time>2015-01-25T08:22:59Z</time>
      </trkpt>
      <trkpt lat="48.66172" lon="-3.39622">
        <ele>100</ele>
        <time>2015-01-25T08:23:00Z</time>
      </trkpt>
      <trkpt lat="48.66165" lon="-3.3962">
        <ele>100</ele>
        <time>2015-01-25T08:23:01Z</time>
      </trkpt>
      <trkpt lat="48.66159" lon="-3.39617">
        <ele>100</ele>
        <time>2015-01-25T08:23:02Z</time>
      </trkpt>
      <trkpt lat="48.66152" lon="-3.39615">
        <ele>100</ele>
        <time>2015-01-25T08:23:03Z</time>
      </trkpt>
      <trkpt lat="48.66146" lon="-3.39613">
        <ele>100</ele>
        <time>2015-01-25T08:23:04Z</time>
      </trkpt>
      <trkpt lat="48.66139" lon="-3.39611">
        <ele>100</ele>
        <time>2015-01-25T08:23:05Z</time>
      </trkpt>
      <trkpt lat="48.66132" lon="-3.39609">
        <ele>100</ele>
        <time>2015-01-25T08:23:06Z</time>
      </trkpt>
      <trkpt lat="48.66126" lon="-3.39607">
        <ele>100</ele>
        <time>2015-01-25T08:23:07Z</time>
      </trkpt>
      <trkpt lat="48.66119" lon="-3.39604">
        <ele>100</ele>
        <time>2015-01-25T08:23:08Z</time>
      </trkpt>
      <trkpt lat="48.66113" lon="-3.39602">
        <ele>100</ele>
        <time>2015-01-25T08:23:09Z</time>
      </trkpt>
      <trkpt lat="48.66106" lon="-3.396">
        <ele>100</ele>
        <time>2015-01-25T08:23:10Z</time>
      </trkpt>
      <trkpt lat="48.66099" lon="-3.39598">
        <ele>100</ele>
        <time>2015-01-25T08:23:11Z</time>
      </trkpt>
      <trkpt lat="48.66092" lon="-3.39596">
        <ele>100</ele>
        <time>2015-01-25T08:23:12Z</time>
      </trkpt>
      <trkpt lat="48.66086" lon="-3.39593">
        <ele>100</ele>
        <time>2015-01-25T08:23:13Z</time>
      </trkpt>
      <trkpt lat="48.66079" lon="-3.39591">
        <ele>100</ele>
        <time>2015-01-25T08:23:14Z</time>
      </trkpt>
      <trkpt lat="48.66072" lon="-3.39589">
        <ele>100</ele>
        <time>2015-01-25T08:23:15Z</time>
      </trkpt>
      <trkpt lat="48.66066" lon="-3.39586">
        <ele>100</ele>
        <time>2015-01-25T08:23:16Z</time>
      </trkpt>
      <trkpt lat="48.66059" lon="-3.39583">
        <ele>100</ele>
        <time>2015-01-25T08:23:17Z</time>
      </trkpt>
      <trkpt lat="48.66052" lon="-3.39581">
        <ele>100</ele>
        <time>2015-01-25T08:23:18Z</time>
      </trkpt>
      <trkpt lat="48.66045" lon="-3.39578">
        <ele>100</ele>
        <time>2015-01-25T08:23:19Z</time>
      </trkpt>
      <trkpt lat="48.66037" lon="-3.39575">
        <ele>100</ele>
        <time>2015-01-25T08:23:20Z</time>
      </trkpt>
      <trkpt lat="48.6603" lon="-3.39572">
        <ele>100</ele>
        <time>2015-01-25T08:23:21Z</time>
      </trkpt>
      <trkpt lat="48.66023" lon="-3.39569">
        <ele>100</ele>
        <time>2015-01-25T08:23:22Z</time>
      </trkpt>
      <trkpt lat="48.66016" lon="-3.39566">
        <ele>100</ele>
        <time>2015-01-25T08:23:23Z</time>
      </trkpt>
      <trkpt lat="48.66009" lon="-3.39563">
        <ele>100</ele>
        <time>2015-01-25T08:23:24Z</time>
      </trkpt>
      <trkpt lat="48.66003" lon="-3.3956">
        <ele>100</ele>
        <time>2015-01-25T08:23:25Z</time>
      </trkpt>
      <trkpt lat="48.65996" lon="-3.39557">
        <ele>100</ele>
        <time>2015-01-25T08:23:26Z</time>
      </trkpt>
      <trkpt lat="48.65989" lon="-3.39554">
        <ele>100</ele>
        <time>2015-01-25T08:23:27Z</time>
      </trkpt>
      <trkpt lat="48.65982" lon="-3.39551">
        <ele>100</ele>
        <time>2015-01-25T08:23:28Z</time>
      </trkpt>
      <trkpt lat="48.65975" lon="-3.39548">
        <ele>100</ele>
        <time>2015-01-25T08:23:29Z</time>
      </trkpt>
      <trkpt lat="48.65968" lon="-3.39545">
        <ele>100</ele>
        <time>2015-01-25T08:23:30Z</time>
      </trkpt>
      <trkpt lat="48.65962" lon="-3.39541">
        <ele>100</ele>
        <time>2015-01-25T08:23:31Z</time>
      </trkpt>
      <trkpt lat="48.65955" lon="-3.39537">
        <ele>100</ele>
        <time>2015-01-25T08:23:32Z</time>
      </trkpt>
      <trkpt lat="48.65948" lon="-3.39533">
        <ele>100</ele>
        <time>2015-01-25T08:23:33Z</time>
      </trkpt>
      <trkpt lat="48.65941" lon="-3.3953">
        <ele>100</ele>
        <time>2015-01-25T08:23:34Z</time>
      </trkpt>
      <trkpt lat="48.65934" lon="-3.39527">
        <ele>100</ele>
        <time>2015-01-25T08:23:35Z</time>
      </trkpt>
      <trkpt lat="48.65928" lon="-3.39524">
        <ele>100</ele>
        <time>2015-01-25T08:23:36Z</time>
      </trkpt>
      <trkpt lat="48.65921" lon="-3.39521">
        <ele>100</ele>
        <time>2015-01-25T08:23:37Z</time>
      </trkpt>
      <trkpt lat="48.65914" lon="-3.39518">
        <ele>100</ele>
        <time>2015-01-25T08:23:38Z</time>
      </trkpt>
      <trkpt lat="48.65907" lon="-3.39515">
        <ele>100</ele>
        <time>2015-01-25T08:23:39Z</time>
      </trkpt>
      <trkpt lat="48.659" lon="-3.39512">
        <ele>100</ele>
        <time>2015-01-25T08:23:40Z</time>
      </trkpt>
      <trkpt lat="48.65894" lon="-3.39509">
        <ele>100</ele>
        <time>2015-01-25T08:23:41Z</time>
      </trkpt>
      <trkpt lat="48.65887" lon="-3.39507">
        <ele>100</ele>
        <time>2015-01-25T08:23:42Z</time>
      </trkpt>
      <trkpt lat="48.6588" lon="-3.39504">
        <ele>100</ele>
        <time>2015-01-25T08:23:43Z</time>
      </trkpt>
      <trkpt lat="48.65874" lon="-3.39502">
        <ele>100</ele>
        <time>2015-01-25T08:23:44Z</time>
      </trkpt>
      <trkpt lat="48.65867" lon="-3.39499">
        <ele>100</ele>
        <time>2015-01-25T08:23:45Z</time>
      </trkpt>
      <trkpt lat="48.6586" lon="-3.39496">
        <ele>100</ele>
        <time>2015-01-25T08:23:46Z</time>
      </trkpt>
      <trkpt lat="48.65853" lon="-3.39494">
        <ele>100</ele>
        <time>2015-01-25T08:23:47Z</time>
      </trkpt>
      <trkpt lat="48.65846" lon="-3.39492">
        <ele>100</ele>
        <time>2015-01-25T08:23:48Z</time>
      </trkpt>
      <trkpt lat="48.65839" lon="-3.3949">
        <ele>100</ele>
        <time>2015-01-25T08:23:49Z</time>
      </trkpt>
      <trkpt lat="48.65832" lon="-3.39488">
        <ele>100</ele>
        <time>2015-01-25T08:23:50Z</time>
      </trkpt>
      <trkpt lat="48.65825" lon="-3.39486">
        <ele>100</ele>
        <time>2015-01-25T08:23:51Z</time>
      </trkpt>
      <trkpt lat="48.65817" lon="-3.39485">
        <ele>100</ele>
        <time>2015-01-25T08:23:52Z</time>
      </trkpt>
      <trkpt lat="48.6581" lon="-3.39483">
        <ele>100</ele>
        <time>2015-01-25T08:23:53Z</time>
      </trkpt>
      <trkpt lat="48.65803" lon="-3.39482">
        <ele>100</ele>
        <time>2015-01-25T08:23:54Z</time>
      </trkpt>
      <trkpt lat="48.65796" lon="-3.39481">
        <ele>100</ele>
        <time>2015-01-25T08:23:55Z</time>
      </trkpt>
      <trkpt lat="48.65789" lon="-3.3948">
        <ele>100</ele>
        <time>2015-01-25T08:23:56Z</time>
      </trkpt>
      <trkpt lat="48.65781" lon="-3.39478">
        <ele>100</ele>
        <time>2015-01-25T08:23:57Z</time>
      </trkpt>
      <trkpt lat="48.65775" lon="-3.39478">
        <ele>100</ele>
        <time>2015-01-25T08:23:58Z</time>
      </trkpt>
      <trkpt lat="48.65767" lon="-3.39477">
        <ele>100</ele>
        <time>2015-01-25T08:23:59Z</time>
      </trkpt>
      <trkpt lat="48.6576" lon="-3.39476">
        <ele>100</ele>
        <time>2015-01-25T08:24:00Z</time>
      </trkpt>
      <trkpt lat="48.65753" lon="-3.39475">
        <ele>100</ele>
        <time>2015-01-25T08:24:01Z</time>
      </trkpt>
      <trkpt lat="48.65746" lon="-3.39475">
        <ele>100</ele>
        <time>2015-01-25T08:24:02Z</time>
      </trkpt>
      <trkpt lat="48.65739" lon="-3.39475">
        <ele>100</ele>
        <time>2015-01-25T08:24:03Z</time>
      </trkpt>
      <trkpt lat="48.65731" lon="-3.39476">
        <ele>100</ele>
        <time>2015-01-25T08:24:04Z</time>
      </trkpt>
      <trkpt lat="48.65724" lon="-3.39476">
        <ele>100</ele>
        <time>2015-01-25T08:24:05Z</time>
      </trkpt>
      <trkpt lat="48.65717" lon="-3.39477">
        <ele>100</ele>
        <time>2015-01-25T08:24:06Z</time>
      </trkpt>
      <trkpt lat="48.6571" lon="-3.39478">
        <ele>100</ele>
        <time>2015-01-25T08:24:07Z</time>
      </trkpt>
      <trkpt lat="48.65702" lon="-3.39478">
        <ele>100</ele>
        <time>2015-01-25T08:24:08Z</time>
      </trkpt>
      <trkpt lat="48.65695" lon="-3.39479">
        <ele>100</ele>
        <time>2015-01-25T08:24:09Z</time>
      </trkpt>
      <trkpt lat="48.65687" lon="-3.39479">
        <ele>100</ele>
        <time>2015-01-25T08:24:10Z</time>
      </trkpt>
      <trkpt lat="48.6568" lon="-3.39479">
        <ele>100</ele>
        <time>2015-01-25T08:24:11Z</time>
      </trkpt>
      <trkpt lat="48.65672" lon="-3.39479">
        <ele>100</ele>
        <time>2015-01-25T08:24:12Z</time>
      </trkpt>
      <trkpt lat="48.65664" lon="-3.39478">
        <ele>100</ele>
        <time>2015-01-25T08:24:13Z</time>
      </trkpt>
      <trkpt lat="48.65649" lon="-3.39478">
        <ele>100</ele>
        <time>2015-01-25T08:24:15Z</time>
      </trkpt>
      <trkpt lat="48.65633" lon="-3.39478">
        <ele>100</ele>
        <time>2015-01-25T08:24:17Z</time>
      </trkpt>
      <trkpt lat="48.65626" lon="-3.39477">
        <ele>100</ele>
        <time>2015-01-25T08:24:18Z</time>
      </trkpt>
      <trkpt lat="48.65618" lon="-3.39475">
        <ele>100</ele>
        <time>2015-01-25T08:24:19Z</time>
      </trkpt>
      <trkpt lat="48.65611" lon="-3.39473">
        <ele>100</ele>
        <time>2015-01-25T08:24:20Z</time>
      </trkpt>
      <trkpt lat="48.65603" lon="-3.39471">
        <ele>100</ele>
        <time>2015-01-25T08:24:21Z</time>
      </trkpt>
      <trkpt lat="48.65595" lon="-3.3947">
        <ele>100</ele>
        <time>2015-01-25T08:24:22Z</time>
      </trkpt>
      <trkpt lat="48.65587" lon="-3.39468">
        <ele>100</ele>
        <time>2015-01-25T08:24:23Z</time>
      </trkpt>
      <trkpt lat="48.65579" lon="-3.39467">
        <ele>100</ele>
        <time>2015-01-25T08:24:24Z</time>
      </trkpt>
      <trkpt lat="48.65571" lon="-3.39466">
        <ele>100</ele>
        <time>2015-01-25T08:24:25Z</time>
      </trkpt>
      <trkpt lat="48.65555" lon="-3.39467">
        <ele>100</ele>
        <time>2015-01-25T08:24:27Z</time>
      </trkpt>
      <trkpt lat="48.65547" lon="-3.39468">
        <ele>100</ele>
        <time>2015-01-25T08:24:28Z</time>
      </trkpt>
      <trkpt lat="48.65539" lon="-3.3947">
        <ele>100</ele>
        <time>2015-01-25T08:24:29Z</time>
      </trkpt>
      <trkpt lat="48.65531" lon="-3.39473">
        <ele>100</ele>
        <time>2015-01-25T08:24:30Z</time>
      </trkpt>
      <trkpt lat="48.65524" lon="-3.39477">
        <ele>100</ele>
        <time>2015-01-25T08:24:31Z</time>
      </trkpt>
      <trkpt lat="48.65517" lon="-3.39481">
        <ele>100</ele>
        <time>2015-01-25T08:24:32Z</time>
      </trkpt>
      <trkpt lat="48.6551" lon="-3.39485">
        <ele>100</ele>
        <time>2015-01-25T08:24:33Z</time>
      </trkpt>
      <trkpt lat="48.65503" lon="-3.39489">
        <ele>100</ele>
        <time>2015-01-25T08:24:34Z</time>
      </trkpt>
      <trkpt lat="48.65495" lon="-3.39492">
        <ele>100</ele>
        <time>2015-01-25T08:24:35Z</time>
      </trkpt>
      <trkpt lat="48.65488" lon="-3.39494">
        <ele>100</ele>
        <time>2015-01-25T08:24:37Z</time>
      </trkpt>
      <trkpt lat="48.65481" lon="-3.39496">
        <ele>100</ele>
        <time>2015-01-25T08:24:37Z</time>
      </trkpt>
      <trkpt lat="48.65473" lon="-3.39497">
        <ele>100</ele>
        <time>2015-01-25T08:24:38Z</time>
      </trkpt>
      <trkpt lat="48.65466" lon="-3.39498">
        <ele>100</ele>
        <time>2015-01-25T08:24:39Z</time>
      </trkpt>
      <trkpt lat="48.65458" lon="-3.39499">
        <ele>100</ele>
        <time>2015-01-25T08:24:40Z</time>
      </trkpt>
      <trkpt lat="48.65451" lon="-3.39499">
        <ele>100</ele>
        <time>2015-01-25T08:24:41Z</time>
      </trkpt>
      <trkpt lat="48.65443" lon="-3.39499">
        <ele>100</ele>
        <time>2015-01-25T08:24:42Z</time>
      </trkpt>
      <trkpt lat="48.65436" lon="-3.39498">
        <ele>100</ele>
        <time>2015-01-25T08:24:43Z</time>
      </trkpt>
      <trkpt lat="48.65428" lon="-3.39497">
        <ele>100</ele>
        <time>2015-01-25T08:24:44Z</time>
      </trkpt>
      <trkpt lat="48.65421" lon="-3.39496">
        <ele>100</ele>
        <time>2015-01-25T08:24:45Z</time>
      </trkpt>
      <trkpt lat="48.65413" lon="-3.39494">
        <ele>100</ele>
        <time>2015-01-25T08:24:46Z</time>
      </trkpt>
      <trkpt lat="48.65406" lon="-3.39493">
        <ele>100</ele>
        <time>2015-01-25T08:24:47Z</time>
      </trkpt>
      <trkpt lat="48.65398" lon="-3.39491">
        <ele>100</ele>
        <time>2015-01-25T08:24:48Z</time>
      </trkpt>
      <trkpt lat="48.65391" lon="-3.39489">
        <ele>100</ele>
        <time>2015-01-25T08:24:49Z</time>
      </trkpt>
      <trkpt lat="48.65383" lon="-3.39487">
        <ele>100</ele>
        <time>2015-01-25T08:24:50Z</time>
      </trkpt>
      <trkpt lat="48.65376" lon="-3.39486">
        <ele>100</ele>
        <time>2015-01-25T08:24:51Z</time>
      </trkpt>
      <trkpt lat="48.65368" lon="-3.39484">
        <ele>100</ele>
        <time>2015-01-25T08:24:52Z</time>
      </trkpt>
      <trkpt lat="48.65361" lon="-3.39482">
        <ele>100</ele>
        <time>2015-01-25T08:24:53Z</time>
      </trkpt>
      <trkpt lat="48.65353" lon="-3.39481">
        <ele>100</ele>
        <time>2015-01-25T08:24:54Z</time>
      </trkpt>
      <trkpt lat="48.65345" lon="-3.39479">
        <ele>100</ele>
        <time>2015-01-25T08:24:55Z</time>
      </trkpt>
      <trkpt lat="48.65337" lon="-3.39477">
        <ele>100</ele>
        <time>2015-01-25T08:24:56Z</time>
      </trkpt>
      <trkpt lat="48.6533" lon="-3.39475">
        <ele>100</ele>
        <time>2015-01-25T08:24:57Z</time>
      </trkpt>
      <trkpt lat="48.65322" lon="-3.39474">
        <ele>100</ele>
        <time>2015-01-25T08:24:58Z</time>
      </trkpt>
      <trkpt lat="48.65314" lon="-3.39472">
        <ele>100</ele>
        <time>2015-01-25T08:24:59Z</time>
      </trkpt>
      <trkpt lat="48.65306" lon="-3.3947">
        <ele>100</ele>
        <time>2015-01-25T08:25:00Z</time>
      </trkpt>
      <trkpt lat="48.65298" lon="-3.39469">
        <ele>100</ele>
        <time>2015-01-25T08:25:01Z</time>
      </trkpt>
      <trkpt lat="48.6529" lon="-3.39467">
        <ele>100</ele>
        <time>2015-01-25T08:25:02Z</time>
      </trkpt>
      <trkpt lat="48.65282" lon="-3.39465">
        <ele>100</ele>
        <time>2015-01-25T08:25:03Z</time>
      </trkpt>
      <trkpt lat="48.65274" lon="-3.39463">
        <ele>100</ele>
        <time>2015-01-25T08:25:04Z</time>
      </trkpt>
      <trkpt lat="48.65266" lon="-3.39461">
        <ele>100</ele>
        <time>2015-01-25T08:25:05Z</time>
      </trkpt>
      <trkpt lat="48.65258" lon="-3.39459">
        <ele>100</ele>
        <time>2015-01-25T08:25:06Z</time>
      </trkpt>
      <trkpt lat="48.6525" lon="-3.39458">
        <ele>100</ele>
        <time>2015-01-25T08:25:07Z</time>
      </trkpt>
      <trkpt lat="48.65241" lon="-3.39456">
        <ele>100</ele>
        <time>2015-01-25T08:25:08Z</time>
      </trkpt>
      <trkpt lat="48.65233" lon="-3.39454">
        <ele>100</ele>
        <time>2015-01-25T08:25:09Z</time>
      </trkpt>
      <trkpt lat="48.65225" lon="-3.39452">
        <ele>100</ele>
        <time>2015-01-25T08:25:10Z</time>
      </trkpt>
      <trkpt lat="48.65217" lon="-3.3945">
        <ele>100</ele>
        <time>2015-01-25T08:25:11Z</time>
      </trkpt>
      <trkpt lat="48.6521" lon="-3.39448">
        <ele>100</ele>
        <time>2015-01-25T08:25:12Z</time>
      </trkpt>
      <trkpt lat="48.65202" lon="-3.39447">
        <ele>100</ele>
        <time>2015-01-25T08:25:13Z</time>
      </trkpt>
      <trkpt lat="48.65194" lon="-3.39445">
        <ele>100</ele>
        <time>2015-01-25T08:25:14Z</time>
      </trkpt>
      <trkpt lat="48.65187" lon="-3.39443">
        <ele>100</ele>
        <time>2015-01-25T08:25:15Z</time>
      </trkpt>
      <trkpt lat="48.65179" lon="-3.39441">
        <ele>100</ele>
        <time>2015-01-25T08:25:16Z</time>
      </trkpt>
      <trkpt lat="48.65172" lon="-3.39439">
        <ele>100</ele>
        <time>2015-01-25T08:25:17Z</time>
      </trkpt>
      <trkpt lat="48.65165" lon="-3.39437">
        <ele>100</ele>
        <time>2015-01-25T08:25:18Z</time>
      </trkpt>
      <trkpt lat="48.65157" lon="-3.39435">
        <ele>101</ele>
        <time>2015-01-25T08:25:19Z</time>
      </trkpt>
      <trkpt lat="48.6515" lon="-3.39433">
        <ele>101</ele>
        <time>2015-01-25T08:25:20Z</time>
      </trkpt>
      <trkpt lat="48.65143" lon="-3.39431">
        <ele>101</ele>
        <time>2015-01-25T08:25:21Z</time>
      </trkpt>
      <trkpt lat="48.65136" lon="-3.3943">
        <ele>101</ele>
        <time>2015-01-25T08:25:22Z</time>
      </trkpt>
      <trkpt lat="48.65128" lon="-3.39428">
        <ele>101</ele>
        <time>2015-01-25T08:25:23Z</time>
      </trkpt>
      <trkpt lat="48.65122" lon="-3.39426">
        <ele>101</ele>
        <time>2015-01-25T08:25:24Z</time>
      </trkpt>
      <trkpt lat="48.65115" lon="-3.39424">
        <ele>101</ele>
        <time>2015-01-25T08:25:25Z</time>
      </trkpt>
      <trkpt lat="48.65108" lon="-3.39422">
        <ele>101</ele>
        <time>2015-01-25T08:25:26Z</time>
      </trkpt>
      <trkpt lat="48.65102" lon="-3.3942">
        <ele>101</ele>
        <time>2015-01-25T08:25:27Z</time>
      </trkpt>
      <trkpt lat="48.65095" lon="-3.39418">
        <ele>101</ele>
        <time>2015-01-25T08:25:28Z</time>
      </trkpt>
      <trkpt lat="48.65088" lon="-3.39417">
        <ele>101</ele>
        <time>2015-01-25T08:25:29Z</time>
      </trkpt>
      <trkpt lat="48.65081" lon="-3.39415">
        <ele>101</ele>
        <time>2015-01-25T08:25:30Z</time>
      </trkpt>
      <trkpt lat="48.65075" lon="-3.39413">
        <ele>101</ele>
        <time>2015-01-25T08:25:31Z</time>
      </trkpt>
      <trkpt lat="48.65068" lon="-3.39411">
        <ele>102</ele>
        <time>2015-01-25T08:25:32Z</time>
      </trkpt>
      <trkpt lat="48.65062" lon="-3.3941">
        <ele>102</ele>
        <time>2015-01-25T08:25:33Z</time>
      </trkpt>
      <trkpt lat="48.65055" lon="-3.39408">
        <ele>102</ele>
        <time>2015-01-25T08:25:34Z</time>
      </trkpt>
      <trkpt lat="48.65049" lon="-3.39406">
        <ele>102</ele>
        <time>2015-01-25T08:25:35Z</time>
      </trkpt>
      <trkpt lat="48.65043" lon="-3.39405">
        <ele>102</ele>
        <time>2015-01-25T08:25:36Z</time>
      </trkpt>
      <trkpt lat="48.65037" lon="-3.39405">
        <ele>102</ele>
        <time>2015-01-25T08:25:37Z</time>
      </trkpt>
      <trkpt lat="48.65031" lon="-3.39404">
        <ele>102</ele>
        <time>2015-01-25T08:25:38Z</time>
      </trkpt>
      <trkpt lat="48.65026" lon="-3.39404">
        <ele>102</ele>
        <time>2015-01-25T08:25:39Z</time>
      </trkpt>
      <trkpt lat="48.65017" lon="-3.39404">
        <ele>102</ele>
        <time>2015-01-25T08:25:41Z</time>
      </trkpt>
      <trkpt lat="48.65013" lon="-3.39405">
        <ele>102</ele>
        <time>2015-01-25T08:25:42Z</time>
      </trkpt>
      <trkpt lat="48.65009" lon="-3.39405">
        <ele>102</ele>
        <time>2015-01-25T08:25:43Z</time>
      </trkpt>
      <trkpt lat="48.65005" lon="-3.39404">
        <ele>102</ele>
        <time>2015-01-25T08:25:44Z</time>
      </trkpt>
      <trkpt lat="48.65002" lon="-3.39403">
        <ele>102</ele>
        <time>2015-01-25T08:25:45Z</time>
      </trkpt>
      <trkpt lat="48.64999" lon="-3.394">
        <ele>102</ele>
        <time>2015-01-25T08:25:46Z</time>
      </trkpt>
      <trkpt lat="48.64996" lon="-3.39395">
        <ele>102</ele>
        <time>2015-01-25T08:25:47Z</time>
      </trkpt>
      <trkpt lat="48.64995" lon="-3.39388">
        <ele>102</ele>
        <time>2015-01-25T08:25:48Z</time>
      </trkpt>
      <trkpt lat="48.64996" lon="-3.39373">
        <ele>102</ele>
        <time>2015-01-25T08:25:50Z</time>
      </trkpt>
      <trkpt lat="48.64997" lon="-3.39365">
        <ele>102</ele>
        <time>2015-01-25T08:25:51Z</time>
      </trkpt>
      <trkpt lat="48.64999" lon="-3.39355">
        <ele>102</ele>
        <time>2015-01-25T08:25:52Z</time>
      </trkpt>
      <trkpt lat="48.65" lon="-3.39345">
        <ele>102</ele>
        <time>2015-01-25T08:25:53Z</time>
      </trkpt>
      <trkpt lat="48.65001" lon="-3.39334">
        <ele>102</ele>
        <time>2015-01-25T08:25:54Z</time>
      </trkpt>
      <trkpt lat="48.65003" lon="-3.39322">
        <ele>102</ele>
        <time>2015-01-25T08:25:55Z</time>
      </trkpt>
      <trkpt lat="48.65004" lon="-3.3931">
        <ele>102</ele>
        <time>2015-01-25T08:25:56Z</time>
      </trkpt>
      <trkpt lat="48.65005" lon="-3.39299">
        <ele>102</ele>
        <time>2015-01-25T08:25:57Z</time>
      </trkpt>
      <trkpt lat="48.65007" lon="-3.39287">
        <ele>102</ele>
        <time>2015-01-25T08:25:58Z</time>
      </trkpt>
      <trkpt lat="48.65008" lon="-3.39275">
        <ele>102</ele>
        <time>2015-01-25T08:25:59Z</time>
      </trkpt>
      <trkpt lat="48.65009" lon="-3.39264">
        <ele>102</ele>
        <time>2015-01-25T08:26:00Z</time>
      </trkpt>
      <trkpt lat="48.65011" lon="-3.39253">
        <ele>102</ele>
        <time>2015-01-25T08:26:01Z</time>
      </trkpt>
      <trkpt lat="48.65012" lon="-3.39242">
        <ele>102</ele>
        <time>2015-01-25T08:26:02Z</time>
      </trkpt>
      <trkpt lat="48.65013" lon="-3.39232">
        <ele>102</ele>
        <time>2015-01-25T08:26:03Z</time>
      </trkpt>
      <trkpt lat="48.65015" lon="-3.39222">
        <ele>102</ele>
        <time>2015-01-25T08:26:04Z</time>
      </trkpt>
      <trkpt lat="48.65016" lon="-3.39212">
        <ele>102</ele>
        <time>2015-01-25T08:26:05Z</time>
      </trkpt>
      <trkpt lat="48.65017" lon="-3.39202">
        <ele>102</ele>
        <time>2015-01-25T08:26:06Z</time>
      </trkpt>
      <trkpt lat="48.65018" lon="-3.39192">
        <ele>102</ele>
        <time>2015-01-25T08:26:07Z</time>
      </trkpt>
      <trkpt lat="48.6502" lon="-3.39181">
        <ele>102</ele>
        <time>2015-01-25T08:26:08Z</time>
      </trkpt>
      <trkpt lat="48.65021" lon="-3.39172">
        <ele>102</ele>
        <time>2015-01-25T08:26:09Z</time>
      </trkpt>
      <trkpt lat="48.65022" lon="-3.39161">
        <ele>102</ele>
        <time>2015-01-25T08:26:10Z</time>
      </trkpt>
      <trkpt lat="48.65024" lon="-3.39151">
        <ele>102</ele>
        <time>2015-01-25T08:26:11Z</time>
      </trkpt>
      <trkpt lat="48.65025" lon="-3.39141">
        <ele>102</ele>
        <time>2015-01-25T08:26:12Z</time>
      </trkpt>
      <trkpt lat="48.65027" lon="-3.39131">
        <ele>102</ele>
        <time>2015-01-25T08:26:13Z</time>
      </trkpt>
      <trkpt lat="48.65028" lon="-3.39121">
        <ele>102</ele>
        <time>2015-01-25T08:26:14Z</time>
      </trkpt>
      <trkpt lat="48.6503" lon="-3.39111">
        <ele>102</ele>
        <time>2015-01-25T08:26:15Z</time>
      </trkpt>
      <trkpt lat="48.65031" lon="-3.39101">
        <ele>102</ele>
        <time>2015-01-25T08:26:16Z</time>
      </trkpt>
      <trkpt lat="48.65032" lon="-3.3909">
        <ele>102</ele>
        <time>2015-01-25T08:26:17Z</time>
      </trkpt>
      <trkpt lat="48.65033" lon="-3.3908">
        <ele>102</ele>
        <time>2015-01-25T08:26:18Z</time>
      </trkpt>
      <trkpt lat="48.65034" lon="-3.3907">
        <ele>102</ele>
        <time>2015-01-25T08:26:19Z</time>
      </trkpt>
      <trkpt lat="48.65035" lon="-3.39059">
        <ele>102</ele>
        <time>2015-01-25T08:26:20Z</time>
      </trkpt>
      <trkpt lat="48.65034" lon="-3.39027">
        <ele>102</ele>
        <time>2015-01-25T08:26:23Z</time>
      </trkpt>
      <trkpt lat="48.65033" lon="-3.39017">
        <ele>102</ele>
        <time>2015-01-25T08:26:24Z</time>
      </trkpt>
      <trkpt lat="48.65032" lon="-3.39005">
        <ele>102</ele>
        <time>2015-01-25T08:26:25Z</time>
      </trkpt>
      <trkpt lat="48.65031" lon="-3.38994">
        <ele>102</ele>
        <time>2015-01-25T08:26:26Z</time>
      </trkpt>
      <trkpt lat="48.65029" lon="-3.38983">
        <ele>102</ele>
        <time>2015-01-25T08:26:27Z</time>
      </trkpt>
      <trkpt lat="48.65027" lon="-3.38972">
        <ele>102</ele>
        <time>2015-01-25T08:26:28Z</time>
      </trkpt>
      <trkpt lat="48.65025" lon="-3.38961">
        <ele>102</ele>
        <time>2015-01-25T08:26:29Z</time>
      </trkpt>
      <trkpt lat="48.65022" lon="-3.3895">
        <ele>102</ele>
        <time>2015-01-25T08:26:30Z</time>
      </trkpt>
      <trkpt lat="48.65018" lon="-3.3894">
        <ele>102</ele>
        <time>2015-01-25T08:26:31Z</time>
      </trkpt>
      <trkpt lat="48.65013" lon="-3.3893">
        <ele>102</ele>
        <time>2015-01-25T08:26:32Z</time>
      </trkpt>
      <trkpt lat="48.65007" lon="-3.38921">
        <ele>102</ele>
        <time>2015-01-25T08:26:33Z</time>
      </trkpt>
      <trkpt lat="48.65001" lon="-3.38913">
        <ele>102</ele>
        <time>2015-01-25T08:26:34Z</time>
      </trkpt>
      <trkpt lat="48.64995" lon="-3.38907">
        <ele>102</ele>
        <time>2015-01-25T08:26:35Z</time>
      </trkpt>
      <trkpt lat="48.64988" lon="-3.38901">
        <ele>102</ele>
        <time>2015-01-25T08:26:36Z</time>
      </trkpt>
      <trkpt lat="48.64981" lon="-3.38895">
        <ele>103</ele>
        <time>2015-01-25T08:26:37Z</time>
      </trkpt>
      <trkpt lat="48.64974" lon="-3.3889">
        <ele>103</ele>
        <time>2015-01-25T08:26:38Z</time>
      </trkpt>
      <trkpt lat="48.64967" lon="-3.38885">
        <ele>103</ele>
        <time>2015-01-25T08:26:39Z</time>
      </trkpt>
      <trkpt lat="48.6496" lon="-3.3888">
        <ele>103</ele>
        <time>2015-01-25T08:26:40Z</time>
      </trkpt>
      <trkpt lat="48.64953" lon="-3.38875">
        <ele>103</ele>
        <time>2015-01-25T08:26:41Z</time>
      </trkpt>
      <trkpt lat="48.64947" lon="-3.3887">
        <ele>103</ele>
        <time>2015-01-25T08:26:42Z</time>
      </trkpt>
      <trkpt lat="48.6494" lon="-3.38865">
        <ele>103</ele>
        <time>2015-01-25T08:26:43Z</time>
      </trkpt>
      <trkpt lat="48.64933" lon="-3.3886">
        <ele>103</ele>
        <time>2015-01-25T08:26:44Z</time>
      </trkpt>
      <trkpt lat="48.64927" lon="-3.38855">
        <ele>103</ele>
        <time>2015-01-25T08:26:45Z</time>
      </trkpt>
      <trkpt lat="48.6492" lon="-3.38849">
        <ele>103</ele>
        <time>2015-01-25T08:26:46Z</time>
      </trkpt>
      <trkpt lat="48.64913" lon="-3.38844">
        <ele>103</ele>
        <time>2015-01-25T08:26:47Z</time>
      </trkpt>
      <trkpt lat="48.64906" lon="-3.38839">
        <ele>103</ele>
        <time>2015-01-25T08:26:48Z</time>
      </trkpt>
      <trkpt lat="48.649" lon="-3.38834">
        <ele>103</ele>
        <time>2015-01-25T08:26:49Z</time>
      </trkpt>
      <trkpt lat="48.64893" lon="-3.38829">
        <ele>103</ele>
        <time>2015-01-25T08:26:50Z</time>
      </trkpt>
      <trkpt lat="48.64886" lon="-3.38824">
        <ele>103</ele>
        <time>2015-01-25T08:26:51Z</time>
      </trkpt>
      <trkpt lat="48.64879" lon="-3.3882">
        <ele>103</ele>
        <time>2015-01-25T08:26:52Z</time>
      </trkpt>
      <trkpt lat="48.64872" lon="-3.38815">
        <ele>103</ele>
        <time>2015-01-25T08:26:53Z</time>
      </trkpt>
      <trkpt lat="48.64866" lon="-3.3881">
        <ele>103</ele>
        <time>2015-01-25T08:26:54Z</time>
      </trkpt>
      <trkpt lat="48.64859" lon="-3.38805">
        <ele>103</ele>
        <time>2015-01-25T08:26:55Z</time>
      </trkpt>
      <trkpt lat="48.64853" lon="-3.38799">
        <ele>103</ele>
        <time>2015-01-25T08:26:56Z</time>
      </trkpt>
      <trkpt lat="48.64847" lon="-3.38793">
        <ele>103</ele>
        <time>2015-01-25T08:26:57Z</time>
      </trkpt>
      <trkpt lat="48.64842" lon="-3.38786">
        <ele>103</ele>
        <time>2015-01-25T08:26:58Z</time>
      </trkpt>
      <trkpt lat="48.64836" lon="-3.38779">
        <ele>103</ele>
        <time>2015-01-25T08:26:59Z</time>
      </trkpt>
      <trkpt lat="48.64831" lon="-3.38771">
        <ele>103</ele>
        <time>2015-01-25T08:27:00Z</time>
      </trkpt>
      <trkpt lat="48.64826" lon="-3.38763">
        <ele>103</ele>
        <time>2015-01-25T08:27:01Z</time>
      </trkpt>
      <trkpt lat="48.6482" lon="-3.38754">
        <ele>103</ele>
        <time>2015-01-25T08:27:02Z</time>
      </trkpt>
      <trkpt lat="48.64815" lon="-3.38745">
        <ele>103</ele>
        <time>2015-01-25T08:27:03Z</time>
      </trkpt>
      <trkpt lat="48.6481" lon="-3.38736">
        <ele>103</ele>
        <time>2015-01-25T08:27:04Z</time>
      </trkpt>
      <trkpt lat="48.64805" lon="-3.38727">
        <ele>103</ele>
        <time>2015-01-25T08:27:05Z</time>
      </trkpt>
      <trkpt lat="48.648" lon="-3.38718">
        <ele>103</ele>
        <time>2015-01-25T08:27:06Z</time>
      </trkpt>
      <trkpt lat="48.64794" lon="-3.38708">
        <ele>103</ele>
        <time>2015-01-25T08:27:07Z</time>
      </trkpt>
      <trkpt lat="48.64789" lon="-3.38699">
        <ele>103</ele>
        <time>2015-01-25T08:27:08Z</time>
      </trkpt>
      <trkpt lat="48.64783" lon="-3.3869">
        <ele>103</ele>
        <time>2015-01-25T08:27:09Z</time>
      </trkpt>
      <trkpt lat="48.64778" lon="-3.38681">
        <ele>103</ele>
        <time>2015-01-25T08:27:10Z</time>
      </trkpt>
      <trkpt lat="48.64772" lon="-3.38671">
        <ele>103</ele>
        <time>2015-01-25T08:27:11Z</time>
      </trkpt>
      <trkpt lat="48.64767" lon="-3.38662">
        <ele>103</ele>
        <time>2015-01-25T08:27:12Z</time>
      </trkpt>
      <trkpt lat="48.64761" lon="-3.38652">
        <ele>103</ele>
        <time>2015-01-25T08:27:13Z</time>
      </trkpt>
      <trkpt lat="48.64756" lon="-3.38642">
        <ele>103</ele>
        <time>2015-01-25T08:27:14Z</time>
      </trkpt>
      <trkpt lat="48.64751" lon="-3.38632">
        <ele>103</ele>
        <time>2015-01-25T08:27:15Z</time>
      </trkpt>
      <trkpt lat="48.64747" lon="-3.38622">
        <ele>103</ele>
        <time>2015-01-25T08:27:16Z</time>
      </trkpt>
      <trkpt lat="48.64743" lon="-3.38612">
        <ele>103</ele>
        <time>2015-01-25T08:27:17Z</time>
      </trkpt>
      <trkpt lat="48.64739" lon="-3.38601">
        <ele>103</ele>
        <time>2015-01-25T08:27:18Z</time>
      </trkpt>
      <trkpt lat="48.64735" lon="-3.3859">
        <ele>103</ele>
        <time>2015-01-25T08:27:19Z</time>
      </trkpt>
      <trkpt lat="48.64731" lon="-3.38579">
        <ele>103</ele>
        <time>2015-01-25T08:27:20Z</time>
      </trkpt>
      <trkpt lat="48.64727" lon="-3.38568">
        <ele>103</ele>
        <time>2015-01-25T08:27:21Z</time>
      </trkpt>
      <trkpt lat="48.64723" lon="-3.38557">
        <ele>103</ele>
        <time>2015-01-25T08:27:22Z</time>
      </trkpt>
      <trkpt lat="48.64719" lon="-3.38546">
        <ele>103</ele>
        <time>2015-01-25T08:27:23Z</time>
      </trkpt>
      <trkpt lat="48.64714" lon="-3.38535">
        <ele>103</ele>
        <time>2015-01-25T08:27:24Z</time>
      </trkpt>
      <trkpt lat="48.64709" lon="-3.38524">
        <ele>103</ele>
        <time>2015-01-25T08:27:25Z</time>
      </trkpt>
      <trkpt lat="48.64703" lon="-3.38513">
        <ele>103</ele>
        <time>2015-01-25T08:27:26Z</time>
      </trkpt>
      <trkpt lat="48.64698" lon="-3.38502">
        <ele>103</ele>
        <time>2015-01-25T08:27:27Z</time>
      </trkpt>
      <trkpt lat="48.64694" lon="-3.38491">
        <ele>103</ele>
        <time>2015-01-25T08:27:28Z</time>
      </trkpt>
      <trkpt lat="48.64689" lon="-3.3848">
        <ele>103</ele>
        <time>2015-01-25T08:27:29Z</time>
      </trkpt>
      <trkpt lat="48.64685" lon="-3.38469">
        <ele>103</ele>
        <time>2015-01-25T08:27:30Z</time>
      </trkpt>
      <trkpt lat="48.6468" lon="-3.38457">
        <ele>103</ele>
        <time>2015-01-25T08:27:31Z</time>
      </trkpt>
      <trkpt lat="48.64674" lon="-3.38446">
        <ele>103</ele>
        <time>2015-01-25T08:27:32Z</time>
      </trkpt>
      <trkpt lat="48.64669" lon="-3.38435">
        <ele>103</ele>
        <time>2015-01-25T08:27:33Z</time>
      </trkpt>
      <trkpt lat="48.64663" lon="-3.38424">
        <ele>103</ele>
        <time>2015-01-25T08:27:34Z</time>
      </trkpt>
      <trkpt lat="48.64658" lon="-3.38414">
        <ele>103</ele>
        <time>2015-01-25T08:27:35Z</time>
      </trkpt>
      <trkpt lat="48.64651" lon="-3.38404">
        <ele>103</ele>
        <time>2015-01-25T08:27:36Z</time>
      </trkpt>
      <trkpt lat="48.64644" lon="-3.38395">
        <ele>103</ele>
        <time>2015-01-25T08:27:37Z</time>
      </trkpt>
      <trkpt lat="48.64636" lon="-3.38387">
        <ele>103</ele>
        <time>2015-01-25T08:27:38Z</time>
      </trkpt>
      <trkpt lat="48.64629" lon="-3.3838">
        <ele>103</ele>
        <time>2015-01-25T08:27:39Z</time>
      </trkpt>
      <trkpt lat="48.64621" lon="-3.38373">
        <ele>103</ele>
        <time>2015-01-25T08:27:40Z</time>
      </trkpt>
      <trkpt lat="48.64613" lon="-3.38366">
        <ele>103</ele>
        <time>2015-01-25T08:27:41Z</time>
      </trkpt>
      <trkpt lat="48.64606" lon="-3.38359">
        <ele>103</ele>
        <time>2015-01-25T08:27:42Z</time>
      </trkpt>
      <trkpt lat="48.646" lon="-3.3835">
        <ele>103</ele>
        <time>2015-01-25T08:27:43Z</time>
      </trkpt>
      <trkpt lat="48.64594" lon="-3.38341">
        <ele>103</ele>
        <time>2015-01-25T08:27:44Z</time>
      </trkpt>
      <trkpt lat="48.64588" lon="-3.38332">
        <ele>103</ele>
        <time>2015-01-25T08:27:45Z</time>
      </trkpt>
      <trkpt lat="48.64584" lon="-3.38321">
        <ele>103</ele>
        <time>2015-01-25T08:27:46Z</time>
      </trkpt>
      <trkpt lat="48.64579" lon="-3.38311">
        <ele>103</ele>
        <time>2015-01-25T08:27:47Z</time>
      </trkpt>
      <trkpt lat="48.64576" lon="-3.383">
        <ele>103</ele>
        <time>2015-01-25T08:27:48Z</time>
      </trkpt>
      <trkpt lat="48.64573" lon="-3.38289">
        <ele>103</ele>
        <time>2015-01-25T08:27:49Z</time>
      </trkpt>
      <trkpt lat="48.6457" lon="-3.38278">
        <ele>103</ele>
        <time>2015-01-25T08:27:50Z</time>
      </trkpt>
      <trkpt lat="48.64567" lon="-3.38266">
        <ele>103</ele>
        <time>2015-01-25T08:27:51Z</time>
      </trkpt>
      <trkpt lat="48.64565" lon="-3.38255">
        <ele>103</ele>
        <time>2015-01-25T08:27:52Z</time>
      </trkpt>
      <trkpt lat="48.64563" lon="-3.38243">
        <ele>103</ele>
        <time>2015-01-25T08:27:53Z</time>
      </trkpt>
      <trkpt lat="48.64561" lon="-3.38231">
        <ele>103</ele>
        <time>2015-01-25T08:27:54Z</time>
      </trkpt>
      <trkpt lat="48.6456" lon="-3.38219">
        <ele>103</ele>
        <time>2015-01-25T08:27:55Z</time>
      </trkpt>
      <trkpt lat="48.64558" lon="-3.38206">
        <ele>103</ele>
        <time>2015-01-25T08:27:56Z</time>
      </trkpt>
      <trkpt lat="48.64556" lon="-3.38194">
        <ele>103</ele>
        <time>2015-01-25T08:27:57Z</time>
      </trkpt>
      <trkpt lat="48.64555" lon="-3.38182">
        <ele>103</ele>
        <time>2015-01-25T08:27:58Z</time>
      </trkpt>
      <trkpt lat="48.64552" lon="-3.38169">
        <ele>103</ele>
        <time>2015-01-25T08:27:59Z</time>
      </trkpt>
      <trkpt lat="48.6455" lon="-3.38156">
        <ele>102</ele>
        <time>2015-01-25T08:28:00Z</time>
      </trkpt>
      <trkpt lat="48.64547" lon="-3.38143">
        <ele>102</ele>
        <time>2015-01-25T08:28:01Z</time>
      </trkpt>
      <trkpt lat="48.64545" lon="-3.3813">
        <ele>102</ele>
        <time>2015-01-25T08:28:02Z</time>
      </trkpt>
      <trkpt lat="48.64542" lon="-3.38116">
        <ele>101</ele>
        <time>2015-01-25T08:28:03Z</time>
      </trkpt>
      <trkpt lat="48.64538" lon="-3.38102">
        <ele>101</ele>
        <time>2015-01-25T08:28:04Z</time>
      </trkpt>
      <trkpt lat="48.64535" lon="-3.38089">
        <ele>100</ele>
        <time>2015-01-25T08:28:05Z</time>
      </trkpt>
      <trkpt lat="48.64531" lon="-3.38075">
        <ele>100</ele>
        <time>2015-01-25T08:28:06Z</time>
      </trkpt>
      <trkpt lat="48.64528" lon="-3.38063">
        <ele>100</ele>
        <time>2015-01-25T08:28:07Z</time>
      </trkpt>
      <trkpt lat="48.64524" lon="-3.3805">
        <ele>100</ele>
        <time>2015-01-25T08:28:08Z</time>
      </trkpt>
      <trkpt lat="48.64521" lon="-3.38038">
        <ele>100</ele>
        <time>2015-01-25T08:28:09Z</time>
      </trkpt>
      <trkpt lat="48.64518" lon="-3.38027">
        <ele>100</ele>
        <time>2015-01-25T08:28:10Z</time>
      </trkpt>
      <trkpt lat="48.64515" lon="-3.38016">
        <ele>100</ele>
        <time>2015-01-25T08:28:11Z</time>
      </trkpt>
      <trkpt lat="48.64511" lon="-3.38006">
        <ele>100</ele>
        <time>2015-01-25T08:28:12Z</time>
      </trkpt>
      <trkpt lat="48.64508" lon="-3.37995">
        <ele>100</ele>
        <time>2015-01-25T08:28:13Z</time>
      </trkpt>
      <trkpt lat="48.64505" lon="-3.37985">
        <ele>100</ele>
        <time>2015-01-25T08:28:14Z</time>
      </trkpt>
      <trkpt lat="48.64501" lon="-3.37975">
        <ele>100</ele>
        <time>2015-01-25T08:28:15Z</time>
      </trkpt>
      <trkpt lat="48.64497" lon="-3.37965">
        <ele>100</ele>
        <time>2015-01-25T08:28:16Z</time>
      </trkpt>
      <trkpt lat="48.64494" lon="-3.37955">
        <ele>100</ele>
        <time>2015-01-25T08:28:17Z</time>
      </trkpt>
      <trkpt lat="48.64489" lon="-3.37946">
        <ele>100</ele>
        <time>2015-01-25T08:28:18Z</time>
      </trkpt>
      <trkpt lat="48.64484" lon="-3.37938">
        <ele>100</ele>
        <time>2015-01-25T08:28:19Z</time>
      </trkpt>
      <trkpt lat="48.6448" lon="-3.37929">
        <ele>100</ele>
        <time>2015-01-25T08:28:20Z</time>
      </trkpt>
      <trkpt lat="48.64474" lon="-3.37921">
        <ele>100</ele>
        <time>2015-01-25T08:28:21Z</time>
      </trkpt>
      <trkpt lat="48.64469" lon="-3.37914">
        <ele>100</ele>
        <time>2015-01-25T08:28:22Z</time>
      </trkpt>
      <trkpt lat="48.64464" lon="-3.37906">
        <ele>100</ele>
        <time>2015-01-25T08:28:23Z</time>
      </trkpt>
      <trkpt lat="48.64459" lon="-3.37899">
        <ele>100</ele>
        <time>2015-01-25T08:28:24Z</time>
      </trkpt>
      <trkpt lat="48.64453" lon="-3.37892">
        <ele>100</ele>
        <time>2015-01-25T08:28:25Z</time>
      </trkpt>
      <trkpt lat="48.64448" lon="-3.37885">
        <ele>100</ele>
        <time>2015-01-25T08:28:26Z</time>
      </trkpt>
      <trkpt lat="48.64443" lon="-3.37878">
        <ele>100</ele>
        <time>2015-01-25T08:28:27Z</time>
      </trkpt>
      <trkpt lat="48.64437" lon="-3.37871">
        <ele>100</ele>
        <time>2015-01-25T08:28:28Z</time>
      </trkpt>
      <trkpt lat="48.64432" lon="-3.37864">
        <ele>100</ele>
        <time>2015-01-25T08:28:29Z</time>
      </trkpt>
      <trkpt lat="48.64426" lon="-3.37857">
        <ele>100</ele>
        <time>2015-01-25T08:28:30Z</time>
      </trkpt>
      <trkpt lat="48.64421" lon="-3.37851">
        <ele>100</ele>
        <time>2015-01-25T08:28:31Z</time>
      </trkpt>
      <trkpt lat="48.64415" lon="-3.37844">
        <ele>100</ele>
        <time>2015-01-25T08:28:32Z</time>
      </trkpt>
      <trkpt lat="48.6441" lon="-3.37838">
        <ele>100</ele>
        <time>2015-01-25T08:28:33Z</time>
      </trkpt>
      <trkpt lat="48.64404" lon="-3.37831">
        <ele>100</ele>
        <time>2015-01-25T08:28:34Z</time>
      </trkpt>
      <trkpt lat="48.64398" lon="-3.37825">
        <ele>100</ele>
        <time>2015-01-25T08:28:35Z</time>
      </trkpt>
      <trkpt lat="48.64393" lon="-3.37819">
        <ele>100</ele>
        <time>2015-01-25T08:28:36Z</time>
      </trkpt>
      <trkpt lat="48.64387" lon="-3.37813">
        <ele>100</ele>
        <time>2015-01-25T08:28:37Z</time>
      </trkpt>
      <trkpt lat="48.64382" lon="-3.37807">
        <ele>100</ele>
        <time>2015-01-25T08:28:38Z</time>
      </trkpt>
      <trkpt lat="48.64376" lon="-3.37801">
        <ele>100</ele>
        <time>2015-01-25T08:28:39Z</time>
      </trkpt>
      <trkpt lat="48.64371" lon="-3.37794">
        <ele>100</ele>
        <time>2015-01-25T08:28:40Z</time>
      </trkpt>
      <trkpt lat="48.64366" lon="-3.37788">
        <ele>100</ele>
        <time>2015-01-25T08:28:41Z</time>
      </trkpt>
      <trkpt lat="48.64361" lon="-3.3778">
        <ele>100</ele>
        <time>2015-01-25T08:28:42Z</time>
      </trkpt>
      <trkpt lat="48.64357" lon="-3.37773">
        <ele>100</ele>
        <time>2015-01-25T08:28:43Z</time>
      </trkpt>
      <trkpt lat="48.64353" lon="-3.37765">
        <ele>100</ele>
        <time>2015-01-25T08:28:44Z</time>
      </trkpt>
      <trkpt lat="48.64349" lon="-3.37756">
        <ele>100</ele>
        <time>2015-01-25T08:28:45Z</time>
      </trkpt>
      <trkpt lat="48.64345" lon="-3.37746">
        <ele>100</ele>
        <time>2015-01-25T08:28:46Z</time>
      </trkpt>
      <trkpt lat="48.64342" lon="-3.37736">
        <ele>100</ele>
        <time>2015-01-25T08:28:47Z</time>
      </trkpt>
      <trkpt lat="48.64339" lon="-3.37726">
        <ele>100</ele>
        <time>2015-01-25T08:28:48Z</time>
      </trkpt>
      <trkpt lat="48.64336" lon="-3.37715">
        <ele>100</ele>
        <time>2015-01-25T08:28:49Z</time>
      </trkpt>
      <trkpt lat="48.64333" lon="-3.37703">
        <ele>100</ele>
        <time>2015-01-25T08:28:50Z</time>
      </trkpt>
      <trkpt lat="48.6433" lon="-3.37692">
        <ele>100</ele>
        <time>2015-01-25T08:28:51Z</time>
      </trkpt>
      <trkpt lat="48.64327" lon="-3.3768">
        <ele>100</ele>
        <time>2015-01-25T08:28:52Z</time>
      </trkpt>
      <trkpt lat="48.64324" lon="-3.37668">
        <ele>100</ele>
        <time>2015-01-25T08:28:53Z</time>
      </trkpt>
      <trkpt lat="48.64321" lon="-3.37655">
        <ele>100</ele>
        <time>2015-01-25T08:28:54Z</time>
      </trkpt>
      <trkpt lat="48.64318" lon="-3.37643">
        <ele>100</ele>
        <time>2015-01-25T08:28:55Z</time>
      </trkpt>
      <trkpt lat="48.64315" lon="-3.3763">
        <ele>100</ele>
        <time>2015-01-25T08:28:56Z</time>
      </trkpt>
      <trkpt lat="48.64312" lon="-3.37616">
        <ele>99</ele>
        <time>2015-01-25T08:28:57Z</time>
      </trkpt>
      <trkpt lat="48.6431" lon="-3.37603">
        <ele>99</ele>
        <time>2015-01-25T08:28:58Z</time>
      </trkpt>
      <trkpt lat="48.64307" lon="-3.37589">
        <ele>98</ele>
        <time>2015-01-25T08:28:59Z</time>
      </trkpt>
      <trkpt lat="48.64305" lon="-3.37575">
        <ele>98</ele>
        <time>2015-01-25T08:29:00Z</time>
      </trkpt>
      <trkpt lat="48.64303" lon="-3.37561">
        <ele>97</ele>
        <time>2015-01-25T08:29:01Z</time>
      </trkpt>
      <trkpt lat="48.643" lon="-3.37546">
        <ele>97</ele>
        <time>2015-01-25T08:29:02Z</time>
      </trkpt>
      <trkpt lat="48.64298" lon="-3.37533">
        <ele>97</ele>
        <time>2015-01-25T08:29:03Z</time>
      </trkpt>
      <trkpt lat="48.64296" lon="-3.37519">
        <ele>97</ele>
        <time>2015-01-25T08:29:04Z</time>
      </trkpt>
      <trkpt lat="48.64294" lon="-3.37506">
        <ele>97</ele>
        <time>2015-01-25T08:29:05Z</time>
      </trkpt>
      <trkpt lat="48.64292" lon="-3.37494">
        <ele>97</ele>
        <time>2015-01-25T08:29:06Z</time>
      </trkpt>
      <trkpt lat="48.6429" lon="-3.37483">
        <ele>97</ele>
        <time>2015-01-25T08:29:07Z</time>
      </trkpt>
      <trkpt lat="48.64288" lon="-3.37472">
        <ele>97</ele>
        <time>2015-01-25T08:29:08Z</time>
      </trkpt>
      <trkpt lat="48.64287" lon="-3.37462">
        <ele>97</ele>
        <time>2015-01-25T08:29:09Z</time>
      </trkpt>
      <trkpt lat="48.64286" lon="-3.37452">
        <ele>97</ele>
        <time>2015-01-25T08:29:10Z</time>
      </trkpt>
      <trkpt lat="48.64287" lon="-3.37434">
        <ele>97</ele>
        <time>2015-01-25T08:29:12Z</time>
      </trkpt>
      <trkpt lat="48.64287" lon="-3.37424">
        <ele>97</ele>
        <time>2015-01-25T08:29:13Z</time>
      </trkpt>
      <trkpt lat="48.64289" lon="-3.37416">
        <ele>97</ele>
        <time>2015-01-25T08:29:14Z</time>
      </trkpt>
      <trkpt lat="48.6429" lon="-3.37407">
        <ele>97</ele>
        <time>2015-01-25T08:29:15Z</time>
      </trkpt>
      <trkpt lat="48.64292" lon="-3.37398">
        <ele>97</ele>
        <time>2015-01-25T08:29:16Z</time>
      </trkpt>
      <trkpt lat="48.64294" lon="-3.37389">
        <ele>97</ele>
        <time>2015-01-25T08:29:17Z</time>
      </trkpt>
      <trkpt lat="48.64295" lon="-3.37381">
        <ele>97</ele>
        <time>2015-01-25T08:29:18Z</time>
      </trkpt>
      <trkpt lat="48.64296" lon="-3.37372">
        <ele>97</ele>
        <time>2015-01-25T08:29:19Z</time>
      </trkpt>
      <trkpt lat="48.64298" lon="-3.37365">
        <ele>97</ele>
        <time>2015-01-25T08:29:20Z</time>
      </trkpt>
      <trkpt lat="48.64299" lon="-3.37357">
        <ele>97</ele>
        <time>2015-01-25T08:29:21Z</time>
      </trkpt>
      <trkpt lat="48.643" lon="-3.37349">
        <ele>97</ele>
        <time>2015-01-25T08:29:22Z</time>
      </trkpt>
      <trkpt lat="48.64301" lon="-3.37341">
        <ele>97</ele>
        <time>2015-01-25T08:29:23Z</time>
      </trkpt>
      <trkpt lat="48.643" lon="-3.37325">
        <ele>98</ele>
        <time>2015-01-25T08:29:25Z</time>
      </trkpt>
      <trkpt lat="48.64299" lon="-3.37317">
        <ele>98</ele>
        <time>2015-01-25T08:29:26Z</time>
      </trkpt>
      <trkpt lat="48.64298" lon="-3.3731">
        <ele>99</ele>
        <time>2015-01-25T08:29:27Z</time>
      </trkpt>
      <trkpt lat="48.64296" lon="-3.37303">
        <ele>99</ele>
        <time>2015-01-25T08:29:28Z</time>
      </trkpt>
      <trkpt lat="48.64293" lon="-3.37297">
        <ele>99</ele>
        <time>2015-01-25T08:29:29Z</time>
      </trkpt>
      <trkpt lat="48.6429" lon="-3.37291">
        <ele>100</ele>
        <time>2015-01-25T08:29:30Z</time>
      </trkpt>
      <trkpt lat="48.64286" lon="-3.37286">
        <ele>100</ele>
        <time>2015-01-25T08:29:31Z</time>
      </trkpt>
      <trkpt lat="48.64282" lon="-3.37282">
        <ele>101</ele>
        <time>2015-01-25T08:29:32Z</time>
      </trkpt>
      <trkpt lat="48.64278" lon="-3.37278">
        <ele>101</ele>
        <time>2015-01-25T08:29:33Z</time>
      </trkpt>
      <trkpt lat="48.64274" lon="-3.37276">
        <ele>101</ele>
        <time>2015-01-25T08:29:34Z</time>
      </trkpt>
      <trkpt lat="48.64269" lon="-3.37274">
        <ele>102</ele>
        <time>2015-01-25T08:29:35Z</time>
      </trkpt>
      <trkpt lat="48.64265" lon="-3.37272">
        <ele>102</ele>
        <time>2015-01-25T08:29:36Z</time>
      </trkpt>
      <trkpt lat="48.6426" lon="-3.37272">
        <ele>102</ele>
        <time>2015-01-25T08:29:37Z</time>
      </trkpt>
      <trkpt lat="48.64255" lon="-3.37272">
        <ele>103</ele>
        <time>2015-01-25T08:29:38Z</time>
      </trkpt>
      <trkpt lat="48.6425" lon="-3.37273">
        <ele>103</ele>
        <time>2015-01-25T08:29:39Z</time>
      </trkpt>
      <trkpt lat="48.64246" lon="-3.37275">
        <ele>103</ele>
        <time>2015-01-25T08:29:40Z</time>
      </trkpt>
      <trkpt lat="48.64241" lon="-3.37276">
        <ele>103</ele>
        <time>2015-01-25T08:29:41Z</time>
      </trkpt>
      <trkpt lat="48.64236" lon="-3.37278">
        <ele>103</ele>
        <time>2015-01-25T08:29:42Z</time>
      </trkpt>
      <trkpt lat="48.64231" lon="-3.37281">
        <ele>103</ele>
        <time>2015-01-25T08:29:43Z</time>
      </trkpt>
      <trkpt lat="48.64227" lon="-3.37284">
        <ele>103</ele>
        <time>2015-01-25T08:29:44Z</time>
      </trkpt>
      <trkpt lat="48.64222" lon="-3.37287">
        <ele>103</ele>
        <time>2015-01-25T08:29:45Z</time>
      </trkpt>
      <trkpt lat="48.64217" lon="-3.3729">
        <ele>103</ele>
        <time>2015-01-25T08:29:46Z</time>
      </trkpt>
      <trkpt lat="48.64212" lon="-3.37292">
        <ele>104</ele>
        <time>2015-01-25T08:29:47Z</time>
      </trkpt>
      <trkpt lat="48.64207" lon="-3.37294">
        <ele>104</ele>
        <time>2015-01-25T08:29:48Z</time>
      </trkpt>
      <trkpt lat="48.64201" lon="-3.37296">
        <ele>104</ele>
        <time>2015-01-25T08:29:49Z</time>
      </trkpt>
      <trkpt lat="48.64196" lon="-3.37297">
        <ele>105</ele>
        <time>2015-01-25T08:29:50Z</time>
      </trkpt>
      <trkpt lat="48.64191" lon="-3.37298">
        <ele>105</ele>
        <time>2015-01-25T08:29:51Z</time>
      </trkpt>
      <trkpt lat="48.6418" lon="-3.37297">
        <ele>106</ele>
        <time>2015-01-25T08:29:53Z</time>
      </trkpt>
      <trkpt lat="48.64175" lon="-3.37295">
        <ele>106</ele>
        <time>2015-01-25T08:29:54Z</time>
      </trkpt>
      <trkpt lat="48.64169" lon="-3.37292">
        <ele>107</ele>
        <time>2015-01-25T08:29:55Z</time>
      </trkpt>
      <trkpt lat="48.64165" lon="-3.37289">
        <ele>107</ele>
        <time>2015-01-25T08:29:56Z</time>
      </trkpt>
      <trkpt lat="48.64161" lon="-3.37285">
        <ele>107</ele>
        <time>2015-01-25T08:29:57Z</time>
      </trkpt>
      <trkpt lat="48.64156" lon="-3.3728">
        <ele>108</ele>
        <time>2015-01-25T08:29:58Z</time>
      </trkpt>
      <trkpt lat="48.64153" lon="-3.37275">
        <ele>108</ele>
        <time>2015-01-25T08:29:59Z</time>
      </trkpt>
      <trkpt lat="48.64149" lon="-3.3727">
        <ele>109</ele>
        <time>2015-01-25T08:30:00Z</time>
      </trkpt>
      <trkpt lat="48.64146" lon="-3.37265">
        <ele>109</ele>
        <time>2015-01-25T08:30:01Z</time>
      </trkpt>
      <trkpt lat="48.64143" lon="-3.3726">
        <ele>109</ele>
        <time>2015-01-25T08:30:02Z</time>
      </trkpt>
      <trkpt lat="48.6414" lon="-3.37256">
        <ele>110</ele>
        <time>2015-01-25T08:30:03Z</time>
      </trkpt>
      <trkpt lat="48.64136" lon="-3.37252">
        <ele>110</ele>
        <time>2015-01-25T08:30:04Z</time>
      </trkpt>
      <trkpt lat="48.64133" lon="-3.37247">
        <ele>110</ele>
        <time>2015-01-25T08:30:05Z</time>
      </trkpt>
      <trkpt lat="48.6413" lon="-3.37243">
        <ele>111</ele>
        <time>2015-01-25T08:30:06Z</time>
      </trkpt>
      <trkpt lat="48.64127" lon="-3.37239">
        <ele>112</ele>
        <time>2015-01-25T08:30:07Z</time>
      </trkpt>
      <trkpt lat="48.64124" lon="-3.37236">
        <ele>112</ele>
        <time>2015-01-25T08:30:08Z</time>
      </trkpt>
      <trkpt lat="48.64121" lon="-3.37232">
        <ele>113</ele>
        <time>2015-01-25T08:30:09Z</time>
      </trkpt>
      <trkpt lat="48.64118" lon="-3.37228">
        <ele>113</ele>
        <time>2015-01-25T08:30:10Z</time>
      </trkpt>
      <trkpt lat="48.64115" lon="-3.37224">
        <ele>113</ele>
        <time>2015-01-25T08:30:11Z</time>
      </trkpt>
      <trkpt lat="48.64111" lon="-3.3722">
        <ele>114</ele>
        <time>2015-01-25T08:30:12Z</time>
      </trkpt>
      <trkpt lat="48.64108" lon="-3.37215">
        <ele>114</ele>
        <time>2015-01-25T08:30:13Z</time>
      </trkpt>
      <trkpt lat="48.64105" lon="-3.37211">
        <ele>114</ele>
        <time>2015-01-25T08:30:14Z</time>
      </trkpt>
      <trkpt lat="48.64101" lon="-3.37206">
        <ele>115</ele>
        <time>2015-01-25T08:30:15Z</time>
      </trkpt>
      <trkpt lat="48.64098" lon="-3.37202">
        <ele>115</ele>
        <time>2015-01-25T08:30:16Z</time>
      </trkpt>
      <trkpt lat="48.64094" lon="-3.37198">
        <ele>115</ele>
        <time>2015-01-25T08:30:17Z</time>
      </trkpt>
      <trkpt lat="48.6409" lon="-3.37194">
        <ele>115</ele>
        <time>2015-01-25T08:30:18Z</time>
      </trkpt>
      <trkpt lat="48.64086" lon="-3.3719">
        <ele>116</ele>
        <time>2015-01-25T08:30:19Z</time>
      </trkpt>
      <trkpt lat="48.64082" lon="-3.37187">
        <ele>116</ele>
        <time>2015-01-25T08:30:20Z</time>
      </trkpt>
      <trkpt lat="48.64078" lon="-3.37183">
        <ele>116</ele>
        <time>2015-01-25T08:30:21Z</time>
      </trkpt>
      <trkpt lat="48.64074" lon="-3.3718">
        <ele>116</ele>
        <time>2015-01-25T08:30:22Z</time>
      </trkpt>
      <trkpt lat="48.64071" lon="-3.37177">
        <ele>116</ele>
        <time>2015-01-25T08:30:23Z</time>
      </trkpt>
      <trkpt lat="48.64067" lon="-3.37174">
        <ele>116</ele>
        <time>2015-01-25T08:30:24Z</time>
      </trkpt>
      <trkpt lat="48.64063" lon="-3.37171">
        <ele>116</ele>
        <time>2015-01-25T08:30:25Z</time>
      </trkpt>
      <trkpt lat="48.64059" lon="-3.37167">
        <ele>117</ele>
        <time>2015-01-25T08:30:26Z</time>
      </trkpt>
      <trkpt lat="48.64056" lon="-3.37163">
        <ele>117</ele>
        <time>2015-01-25T08:30:27Z</time>
      </trkpt>
      <trkpt lat="48.64053" lon="-3.37159">
        <ele>117</ele>
        <time>2015-01-25T08:30:28Z</time>
      </trkpt>
      <trkpt lat="48.64049" lon="-3.37155">
        <ele>117</ele>
        <time>2015-01-25T08:30:29Z</time>
      </trkpt>
      <trkpt lat="48.64045" lon="-3.37151">
        <ele>117</ele>
        <time>2015-01-25T08:30:30Z</time>
      </trkpt>
      <trkpt lat="48.64042" lon="-3.37148">
        <ele>117</ele>
        <time>2015-01-25T08:30:31Z</time>
      </trkpt>
      <trkpt lat="48.64038" lon="-3.37144">
        <ele>117</ele>
        <time>2015-01-25T08:30:32Z</time>
      </trkpt>
      <trkpt lat="48.64035" lon="-3.3714">
        <ele>117</ele>
        <time>2015-01-25T08:30:33Z</time>
      </trkpt>
      <trkpt lat="48.64031" lon="-3.37136">
        <ele>117</ele>
        <time>2015-01-25T08:30:34Z</time>
      </trkpt>
      <trkpt lat="48.64027" lon="-3.37132">
        <ele>117</ele>
        <time>2015-01-25T08:30:35Z</time>
      </trkpt>
      <trkpt lat="48.64023" lon="-3.37128">
        <ele>117</ele>
        <time>2015-01-25T08:30:36Z</time>
      </trkpt>
      <trkpt lat="48.64019" lon="-3.37123">
        <ele>117</ele>
        <time>2015-01-25T08:30:37Z</time>
      </trkpt>
      <trkpt lat="48.64015" lon="-3.37118">
        <ele>117</ele>
        <time>2015-01-25T08:30:38Z</time>
      </trkpt>
      <trkpt lat="48.64011" lon="-3.37112">
        <ele>117</ele>
        <time>2015-01-25T08:30:39Z</time>
      </trkpt>
      <trkpt lat="48.64007" lon="-3.37105">
        <ele>117</ele>
        <time>2015-01-25T08:30:40Z</time>
      </trkpt>
      <trkpt lat="48.64003" lon="-3.37098">
        <ele>117</ele>
        <time>2015-01-25T08:30:41Z</time>
      </trkpt>
      <trkpt lat="48.63998" lon="-3.37091">
        <ele>117</ele>
        <time>2015-01-25T08:30:42Z</time>
      </trkpt>
      <trkpt lat="48.63993" lon="-3.37084">
        <ele>117</ele>
        <time>2015-01-25T08:30:43Z</time>
      </trkpt>
      <trkpt lat="48.63988" lon="-3.37076">
        <ele>117</ele>
        <time>2015-01-25T08:30:44Z</time>
      </trkpt>
      <trkpt lat="48.63982" lon="-3.37068">
        <ele>117</ele>
        <time>2015-01-25T08:30:45Z</time>
      </trkpt>
      <trkpt lat="48.63977" lon="-3.3706">
        <ele>117</ele>
        <time>2015-01-25T08:30:46Z</time>
      </trkpt>
      <trkpt lat="48.63971" lon="-3.37052">
        <ele>117</ele>
        <time>2015-01-25T08:30:47Z</time>
      </trkpt>
      <trkpt lat="48.63966" lon="-3.37043">
        <ele>117</ele>
        <time>2015-01-25T08:30:48Z</time>
      </trkpt>
      <trkpt lat="48.63961" lon="-3.37035">
        <ele>116</ele>
        <time>2015-01-25T08:30:49Z</time>
      </trkpt>
      <trkpt lat="48.63955" lon="-3.37028">
        <ele>116</ele>
        <time>2015-01-25T08:30:50Z</time>
      </trkpt>
      <trkpt lat="48.6395" lon="-3.3702">
        <ele>116</ele>
        <time>2015-01-25T08:30:51Z</time>
      </trkpt>
      <trkpt lat="48.63945" lon="-3.37013">
        <ele>116</ele>
        <time>2015-01-25T08:30:52Z</time>
      </trkpt>
      <trkpt lat="48.6394" lon="-3.37006">
        <ele>115</ele>
        <time>2015-01-25T08:30:53Z</time>
      </trkpt>
      <trkpt lat="48.63934" lon="-3.36999">
        <ele>115</ele>
        <time>2015-01-25T08:30:54Z</time>
      </trkpt>
      <trkpt lat="48.63929" lon="-3.36992">
        <ele>115</ele>
        <time>2015-01-25T08:30:55Z</time>
      </trkpt>
      <trkpt lat="48.63924" lon="-3.36985">
        <ele>115</ele>
        <time>2015-01-25T08:30:56Z</time>
      </trkpt>
      <trkpt lat="48.63919" lon="-3.36978">
        <ele>115</ele>
        <time>2015-01-25T08:30:57Z</time>
      </trkpt>
      <trkpt lat="48.63913" lon="-3.36971">
        <ele>115</ele>
        <time>2015-01-25T08:30:58Z</time>
      </trkpt>
      <trkpt lat="48.63908" lon="-3.36963">
        <ele>115</ele>
        <time>2015-01-25T08:30:59Z</time>
      </trkpt>
      <trkpt lat="48.63902" lon="-3.36956">
        <ele>115</ele>
        <time>2015-01-25T08:31:00Z</time>
      </trkpt>
      <trkpt lat="48.63896" lon="-3.36948">
        <ele>115</ele>
        <time>2015-01-25T08:31:01Z</time>
      </trkpt>
      <trkpt lat="48.6389" lon="-3.36941">
        <ele>115</ele>
        <time>2015-01-25T08:31:02Z</time>
      </trkpt>
      <trkpt lat="48.63885" lon="-3.36933">
        <ele>114</ele>
        <time>2015-01-25T08:31:03Z</time>
      </trkpt>
      <trkpt lat="48.63879" lon="-3.36926">
        <ele>114</ele>
        <time>2015-01-25T08:31:04Z</time>
      </trkpt>
      <trkpt lat="48.63874" lon="-3.36918">
        <ele>114</ele>
        <time>2015-01-25T08:31:05Z</time>
      </trkpt>
      <trkpt lat="48.63868" lon="-3.36911">
        <ele>114</ele>
        <time>2015-01-25T08:31:06Z</time>
      </trkpt>
      <trkpt lat="48.63862" lon="-3.36903">
        <ele>114</ele>
        <time>2015-01-25T08:31:07Z</time>
      </trkpt>
      <trkpt lat="48.63857" lon="-3.36896">
        <ele>114</ele>
        <time>2015-01-25T08:31:08Z</time>
      </trkpt>
      <trkpt lat="48.63852" lon="-3.36889">
        <ele>114</ele>
        <time>2015-01-25T08:31:09Z</time>
      </trkpt>
      <trkpt lat="48.63847" lon="-3.36882">
        <ele>114</ele>
        <time>2015-01-25T08:31:10Z</time>
      </trkpt>
      <trkpt lat="48.63842" lon="-3.36876">
        <ele>114</ele>
        <time>2015-01-25T08:31:11Z</time>
      </trkpt>
      <trkpt lat="48.63837" lon="-3.36869">
        <ele>114</ele>
        <time>2015-01-25T08:31:12Z</time>
      </trkpt>
      <trkpt lat="48.63833" lon="-3.36861">
        <ele>114</ele>
        <time>2015-01-25T08:31:13Z</time>
      </trkpt>
      <trkpt lat="48.63828" lon="-3.36854">
        <ele>114</ele>
        <time>2015-01-25T08:31:14Z</time>
      </trkpt>
      <trkpt lat="48.63824" lon="-3.36847">
        <ele>114</ele>
        <time>2015-01-25T08:31:15Z</time>
      </trkpt>
      <trkpt lat="48.6382" lon="-3.3684">
        <ele>114</ele>
        <time>2015-01-25T08:31:16Z</time>
      </trkpt>
      <trkpt lat="48.63816" lon="-3.36833">
        <ele>114</ele>
        <time>2015-01-25T08:31:17Z</time>
      </trkpt>
      <trkpt lat="48.63811" lon="-3.36825">
        <ele>114</ele>
        <time>2015-01-25T08:31:18Z</time>
      </trkpt>
      <trkpt lat="48.63807" lon="-3.36818">
        <ele>114</ele>
        <time>2015-01-25T08:31:19Z</time>
      </trkpt>
      <trkpt lat="48.63804" lon="-3.3681">
        <ele>114</ele>
        <time>2015-01-25T08:31:20Z</time>
      </trkpt>
      <trkpt lat="48.638" lon="-3.36803">
        <ele>114</ele>
        <time>2015-01-25T08:31:21Z</time>
      </trkpt>
      <trkpt lat="48.63796" lon="-3.36796">
        <ele>114</ele>
        <time>2015-01-25T08:31:22Z</time>
      </trkpt>
      <trkpt lat="48.63792" lon="-3.36789">
        <ele>114</ele>
        <time>2015-01-25T08:31:23Z</time>
      </trkpt>
      <trkpt lat="48.63788" lon="-3.36783">
        <ele>114</ele>
        <time>2015-01-25T08:31:24Z</time>
      </trkpt>
      <trkpt lat="48.63784" lon="-3.36777">
        <ele>114</ele>
        <time>2015-01-25T08:31:25Z</time>
      </trkpt>
      <trkpt lat="48.63781" lon="-3.36771">
        <ele>114</ele>
        <time>2015-01-25T08:31:26Z</time>
      </trkpt>
      <trkpt lat="48.63777" lon="-3.36765">
        <ele>113</ele>
        <time>2015-01-25T08:31:27Z</time>
      </trkpt>
      <trkpt lat="48.63773" lon="-3.36759">
        <ele>113</ele>
        <time>2015-01-25T08:31:28Z</time>
      </trkpt>
      <trkpt lat="48.6377" lon="-3.36752">
        <ele>113</ele>
        <time>2015-01-25T08:31:29Z</time>
      </trkpt>
      <trkpt lat="48.63769" lon="-3.36744">
        <ele>113</ele>
        <time>2015-01-25T08:31:30Z</time>
      </trkpt>
      <trkpt lat="48.6377" lon="-3.36736">
        <ele>113</ele>
        <time>2015-01-25T08:31:31Z</time>
      </trkpt>
      <trkpt lat="48.63773" lon="-3.36727">
        <ele>113</ele>
        <time>2015-01-25T08:31:32Z</time>
      </trkpt>
      <trkpt lat="48.63776" lon="-3.36718">
        <ele>113</ele>
        <time>2015-01-25T08:31:33Z</time>
      </trkpt>
      <trkpt lat="48.63778" lon="-3.36707">
        <ele>112</ele>
        <time>2015-01-25T08:31:34Z</time>
      </trkpt>
      <trkpt lat="48.63778" lon="-3.36696">
        <ele>112</ele>
        <time>2015-01-25T08:31:35Z</time>
      </trkpt>
      <trkpt lat="48.63777" lon="-3.36684">
        <ele>112</ele>
        <time>2015-01-25T08:31:36Z</time>
      </trkpt>
      <trkpt lat="48.63776" lon="-3.36671">
        <ele>112</ele>
        <time>2015-01-25T08:31:37Z</time>
      </trkpt>
      <trkpt lat="48.63774" lon="-3.36658">
        <ele>111</ele>
        <time>2015-01-25T08:31:38Z</time>
      </trkpt>
      <trkpt lat="48.63773" lon="-3.36645">
        <ele>111</ele>
        <time>2015-01-25T08:31:39Z</time>
      </trkpt>
      <trkpt lat="48.63772" lon="-3.36631">
        <ele>111</ele>
        <time>2015-01-25T08:31:40Z</time>
      </trkpt>
      <trkpt lat="48.6377" lon="-3.36616">
        <ele>110</ele>
        <time>2015-01-25T08:31:41Z</time>
      </trkpt>
      <trkpt lat="48.63768" lon="-3.36602">
        <ele>110</ele>
        <time>2015-01-25T08:31:42Z</time>
      </trkpt>
      <trkpt lat="48.63767" lon="-3.36587">
        <ele>109</ele>
        <time>2015-01-25T08:31:43Z</time>
      </trkpt>
      <trkpt lat="48.63766" lon="-3.36572">
        <ele>109</ele>
        <time>2015-01-25T08:31:44Z</time>
      </trkpt>
      <trkpt lat="48.63764" lon="-3.36557">
        <ele>108</ele>
        <time>2015-01-25T08:31:45Z</time>
      </trkpt>
      <trkpt lat="48.63763" lon="-3.36541">
        <ele>108</ele>
        <time>2015-01-25T08:31:46Z</time>
      </trkpt>
      <trkpt lat="48.63761" lon="-3.36525">
        <ele>107</ele>
        <time>2015-01-25T08:31:47Z</time>
      </trkpt>
      <trkpt lat="48.63759" lon="-3.36509">
        <ele>107</ele>
        <time>2015-01-25T08:31:48Z</time>
      </trkpt>
      <trkpt lat="48.63756" lon="-3.36494">
        <ele>106</ele>
        <time>2015-01-25T08:31:49Z</time>
      </trkpt>
      <trkpt lat="48.63753" lon="-3.36478">
        <ele>106</ele>
        <time>2015-01-25T08:31:50Z</time>
      </trkpt>
      <trkpt lat="48.6375" lon="-3.36463">
        <ele>106</ele>
        <time>2015-01-25T08:31:51Z</time>
      </trkpt>
      <trkpt lat="48.63745" lon="-3.36448">
        <ele>106</ele>
        <time>2015-01-25T08:31:52Z</time>
      </trkpt>
      <trkpt lat="48.63741" lon="-3.36434">
        <ele>106</ele>
        <time>2015-01-25T08:31:53Z</time>
      </trkpt>
      <trkpt lat="48.63737" lon="-3.3642">
        <ele>106</ele>
        <time>2015-01-25T08:31:54Z</time>
      </trkpt>
      <trkpt lat="48.63733" lon="-3.36407">
        <ele>106</ele>
        <time>2015-01-25T08:31:55Z</time>
      </trkpt>
      <trkpt lat="48.63729" lon="-3.36394">
        <ele>106</ele>
        <time>2015-01-25T08:31:56Z</time>
      </trkpt>
      <trkpt lat="48.63725" lon="-3.36381">
        <ele>106</ele>
        <time>2015-01-25T08:31:57Z</time>
      </trkpt>
      <trkpt lat="48.63721" lon="-3.36369">
        <ele>106</ele>
        <time>2015-01-25T08:31:58Z</time>
      </trkpt>
      <trkpt lat="48.63718" lon="-3.36357">
        <ele>106</ele>
        <time>2015-01-25T08:31:59Z</time>
      </trkpt>
      <trkpt lat="48.63714" lon="-3.36345">
        <ele>106</ele>
        <time>2015-01-25T08:32:00Z</time>
      </trkpt>
      <trkpt lat="48.63711" lon="-3.36334">
        <ele>106</ele>
        <time>2015-01-25T08:32:01Z</time>
      </trkpt>
      <trkpt lat="48.63708" lon="-3.36323">
        <ele>106</ele>
        <time>2015-01-25T08:32:02Z</time>
      </trkpt>
      <trkpt lat="48.63705" lon="-3.36311">
        <ele>106</ele>
        <time>2015-01-25T08:32:03Z</time>
      </trkpt>
      <trkpt lat="48.63701" lon="-3.363">
        <ele>106</ele>
        <time>2015-01-25T08:32:04Z</time>
      </trkpt>
      <trkpt lat="48.63697" lon="-3.36289">
        <ele>106</ele>
        <time>2015-01-25T08:32:05Z</time>
      </trkpt>
      <trkpt lat="48.63693" lon="-3.36278">
        <ele>106</ele>
        <time>2015-01-25T08:32:06Z</time>
      </trkpt>
      <trkpt lat="48.63689" lon="-3.36268">
        <ele>106</ele>
        <time>2015-01-25T08:32:07Z</time>
      </trkpt>
      <trkpt lat="48.63685" lon="-3.36258">
        <ele>106</ele>
        <time>2015-01-25T08:32:08Z</time>
      </trkpt>
      <trkpt lat="48.63681" lon="-3.36248">
        <ele>106</ele>
        <time>2015-01-25T08:32:09Z</time>
      </trkpt>
      <trkpt lat="48.63676" lon="-3.36239">
        <ele>106</ele>
        <time>2015-01-25T08:32:10Z</time>
      </trkpt>
      <trkpt lat="48.63672" lon="-3.3623">
        <ele>106</ele>
        <time>2015-01-25T08:32:11Z</time>
      </trkpt>
      <trkpt lat="48.63667" lon="-3.36222">
        <ele>106</ele>
        <time>2015-01-25T08:32:12Z</time>
      </trkpt>
      <trkpt lat="48.63663" lon="-3.36213">
        <ele>106</ele>
        <time>2015-01-25T08:32:13Z</time>
      </trkpt>
      <trkpt lat="48.63659" lon="-3.36205">
        <ele>106</ele>
        <time>2015-01-25T08:32:14Z</time>
      </trkpt>
      <trkpt lat="48.63654" lon="-3.36197">
        <ele>106</ele>
        <time>2015-01-25T08:32:15Z</time>
      </trkpt>
      <trkpt lat="48.63649" lon="-3.36189">
        <ele>106</ele>
        <time>2015-01-25T08:32:16Z</time>
      </trkpt>
      <trkpt lat="48.63645" lon="-3.3618">
        <ele>106</ele>
        <time>2015-01-25T08:32:17Z</time>
      </trkpt>
      <trkpt lat="48.63641" lon="-3.36172">
        <ele>106</ele>
        <time>2015-01-25T08:32:18Z</time>
      </trkpt>
      <trkpt lat="48.63636" lon="-3.36164">
        <ele>106</ele>
        <time>2015-01-25T08:32:19Z</time>
      </trkpt>
      <trkpt lat="48.63632" lon="-3.36156">
        <ele>106</ele>
        <time>2015-01-25T08:32:20Z</time>
      </trkpt>
      <trkpt lat="48.63627" lon="-3.36148">
        <ele>106</ele>
        <time>2015-01-25T08:32:21Z</time>
      </trkpt>
      <trkpt lat="48.63623" lon="-3.3614">
        <ele>106</ele>
        <time>2015-01-25T08:32:22Z</time>
      </trkpt>
      <trkpt lat="48.63618" lon="-3.36132">
        <ele>106</ele>
        <time>2015-01-25T08:32:23Z</time>
      </trkpt>
      <trkpt lat="48.63614" lon="-3.36123">
        <ele>106</ele>
        <time>2015-01-25T08:32:24Z</time>
      </trkpt>
      <trkpt lat="48.6361" lon="-3.36115">
        <ele>106</ele>
        <time>2015-01-25T08:32:25Z</time>
      </trkpt>
      <trkpt lat="48.63605" lon="-3.36107">
        <ele>106</ele>
        <time>2015-01-25T08:32:26Z</time>
      </trkpt>
      <trkpt lat="48.63601" lon="-3.36098">
        <ele>106</ele>
        <time>2015-01-25T08:32:27Z</time>
      </trkpt>
      <trkpt lat="48.63597" lon="-3.36089">
        <ele>106</ele>
        <time>2015-01-25T08:32:28Z</time>
      </trkpt>
      <trkpt lat="48.63593" lon="-3.3608">
        <ele>106</ele>
        <time>2015-01-25T08:32:29Z</time>
      </trkpt>
      <trkpt lat="48.63589" lon="-3.3607">
        <ele>106</ele>
        <time>2015-01-25T08:32:30Z</time>
      </trkpt>
      <trkpt lat="48.63586" lon="-3.3606">
        <ele>106</ele>
        <time>2015-01-25T08:32:31Z</time>
      </trkpt>
      <trkpt lat="48.63583" lon="-3.36049">
        <ele>106</ele>
        <time>2015-01-25T08:32:32Z</time>
      </trkpt>
      <trkpt lat="48.63579" lon="-3.36038">
        <ele>106</ele>
        <time>2015-01-25T08:32:33Z</time>
      </trkpt>
      <trkpt lat="48.63577" lon="-3.36026">
        <ele>106</ele>
        <time>2015-01-25T08:32:34Z</time>
      </trkpt>
      <trkpt lat="48.63574" lon="-3.36015">
        <ele>106</ele>
        <time>2015-01-25T08:32:35Z</time>
      </trkpt>
      <trkpt lat="48.63571" lon="-3.36003">
        <ele>106</ele>
        <time>2015-01-25T08:32:36Z</time>
      </trkpt>
      <trkpt lat="48.63569" lon="-3.35991">
        <ele>106</ele>
        <time>2015-01-25T08:32:37Z</time>
      </trkpt>
      <trkpt lat="48.63567" lon="-3.35979">
        <ele>106</ele>
        <time>2015-01-25T08:32:38Z</time>
      </trkpt>
      <trkpt lat="48.63564" lon="-3.35966">
        <ele>106</ele>
        <time>2015-01-25T08:32:39Z</time>
      </trkpt>
      <trkpt lat="48.63562" lon="-3.35954">
        <ele>106</ele>
        <time>2015-01-25T08:32:40Z</time>
      </trkpt>
      <trkpt lat="48.6356" lon="-3.35942">
        <ele>106</ele>
        <time>2015-01-25T08:32:41Z</time>
      </trkpt>
      <trkpt lat="48.63558" lon="-3.35929">
        <ele>106</ele>
        <time>2015-01-25T08:32:42Z</time>
      </trkpt>
      <trkpt lat="48.63556" lon="-3.35917">
        <ele>106</ele>
        <time>2015-01-25T08:32:43Z</time>
      </trkpt>
      <trkpt lat="48.63554" lon="-3.35904">
        <ele>106</ele>
        <time>2015-01-25T08:32:44Z</time>
      </trkpt>
      <trkpt lat="48.63552" lon="-3.35893">
        <ele>106</ele>
        <time>2015-01-25T08:32:45Z</time>
      </trkpt>
      <trkpt lat="48.6355" lon="-3.35881">
        <ele>106</ele>
        <time>2015-01-25T08:32:46Z</time>
      </trkpt>
      <trkpt lat="48.63547" lon="-3.35869">
        <ele>106</ele>
        <time>2015-01-25T08:32:47Z</time>
      </trkpt>
      <trkpt lat="48.63545" lon="-3.35857">
        <ele>105</ele>
        <time>2015-01-25T08:32:48Z</time>
      </trkpt>
      <trkpt lat="48.63542" lon="-3.35845">
        <ele>105</ele>
        <time>2015-01-25T08:32:49Z</time>
      </trkpt>
      <trkpt lat="48.63538" lon="-3.35833">
        <ele>105</ele>
        <time>2015-01-25T08:32:50Z</time>
      </trkpt>
      <trkpt lat="48.63534" lon="-3.35821">
        <ele>105</ele>
        <time>2015-01-25T08:32:51Z</time>
      </trkpt>
      <trkpt lat="48.6353" lon="-3.35808">
        <ele>104</ele>
        <time>2015-01-25T08:32:52Z</time>
      </trkpt>
      <trkpt lat="48.63525" lon="-3.35796">
        <ele>104</ele>
        <time>2015-01-25T08:32:53Z</time>
      </trkpt>
      <trkpt lat="48.63521" lon="-3.35784">
        <ele>104</ele>
        <time>2015-01-25T08:32:54Z</time>
      </trkpt>
      <trkpt lat="48.63515" lon="-3.35771">
        <ele>103</ele>
        <time>2015-01-25T08:32:55Z</time>
      </trkpt>
      <trkpt lat="48.6351" lon="-3.35758">
        <ele>103</ele>
        <time>2015-01-25T08:32:56Z</time>
      </trkpt>
      <trkpt lat="48.63505" lon="-3.35746">
        <ele>102</ele>
        <time>2015-01-25T08:32:57Z</time>
      </trkpt>
      <trkpt lat="48.635" lon="-3.35733">
        <ele>102</ele>
        <time>2015-01-25T08:32:58Z</time>
      </trkpt>
      <trkpt lat="48.63494" lon="-3.3572">
        <ele>101</ele>
        <time>2015-01-25T08:32:59Z</time>
      </trkpt>
      <trkpt lat="48.6349" lon="-3.35708">
        <ele>101</ele>
        <time>2015-01-25T08:33:00Z</time>
      </trkpt>
      <trkpt lat="48.63485" lon="-3.35694">
        <ele>100</ele>
        <time>2015-01-25T08:33:01Z</time>
      </trkpt>
      <trkpt lat="48.6348" lon="-3.3568">
        <ele>100</ele>
        <time>2015-01-25T08:33:02Z</time>
      </trkpt>
      <trkpt lat="48.63476" lon="-3.35665">
        <ele>99</ele>
        <time>2015-01-25T08:33:03Z</time>
      </trkpt>
      <trkpt lat="48.63472" lon="-3.35651">
        <ele>99</ele>
        <time>2015-01-25T08:33:04Z</time>
      </trkpt>
      <trkpt lat="48.63469" lon="-3.35636">
        <ele>98</ele>
        <time>2015-01-25T08:33:05Z</time>
      </trkpt>
      <trkpt lat="48.63466" lon="-3.35622">
        <ele>98</ele>
        <time>2015-01-25T08:33:06Z</time>
      </trkpt>
      <trkpt lat="48.63462" lon="-3.35606">
        <ele>98</ele>
        <time>2015-01-25T08:33:07Z</time>
      </trkpt>
      <trkpt lat="48.63459" lon="-3.35591">
        <ele>97</ele>
        <time>2015-01-25T08:33:08Z</time>
      </trkpt>
      <trkpt lat="48.63455" lon="-3.35576">
        <ele>97</ele>
        <time>2015-01-25T08:33:09Z</time>
      </trkpt>
      <trkpt lat="48.63451" lon="-3.35561">
        <ele>97</ele>
        <time>2015-01-25T08:33:10Z</time>
      </trkpt>
      <trkpt lat="48.63448" lon="-3.35546">
        <ele>96</ele>
        <time>2015-01-25T08:33:11Z</time>
      </trkpt>
      <trkpt lat="48.63444" lon="-3.35532">
        <ele>96</ele>
        <time>2015-01-25T08:33:12Z</time>
      </trkpt>
      <trkpt lat="48.6344" lon="-3.35518">
        <ele>96</ele>
        <time>2015-01-25T08:33:13Z</time>
      </trkpt>
      <trkpt lat="48.63437" lon="-3.35504">
        <ele>96</ele>
        <time>2015-01-25T08:33:14Z</time>
      </trkpt>
      <trkpt lat="48.63434" lon="-3.3549">
        <ele>96</ele>
        <time>2015-01-25T08:33:15Z</time>
      </trkpt>
      <trkpt lat="48.63431" lon="-3.35476">
        <ele>96</ele>
        <time>2015-01-25T08:33:16Z</time>
      </trkpt>
      <trkpt lat="48.63428" lon="-3.35463">
        <ele>96</ele>
        <time>2015-01-25T08:33:17Z</time>
      </trkpt>
      <trkpt lat="48.63427" lon="-3.3545">
        <ele>96</ele>
        <time>2015-01-25T08:33:18Z</time>
      </trkpt>
      <trkpt lat="48.63425" lon="-3.35437">
        <ele>96</ele>
        <time>2015-01-25T08:33:19Z</time>
      </trkpt>
      <trkpt lat="48.63424" lon="-3.35425">
        <ele>96</ele>
        <time>2015-01-25T08:33:20Z</time>
      </trkpt>
      <trkpt lat="48.63424" lon="-3.35412">
        <ele>96</ele>
        <time>2015-01-25T08:33:21Z</time>
      </trkpt>
      <trkpt lat="48.63424" lon="-3.35387">
        <ele>96</ele>
        <time>2015-01-25T08:33:23Z</time>
      </trkpt>
      <trkpt lat="48.63425" lon="-3.35376">
        <ele>96</ele>
        <time>2015-01-25T08:33:24Z</time>
      </trkpt>
      <trkpt lat="48.63425" lon="-3.35364">
        <ele>96</ele>
        <time>2015-01-25T08:33:25Z</time>
      </trkpt>
      <trkpt lat="48.63425" lon="-3.35353">
        <ele>96</ele>
        <time>2015-01-25T08:33:26Z</time>
      </trkpt>
      <trkpt lat="48.63426" lon="-3.35342">
        <ele>96</ele>
        <time>2015-01-25T08:33:27Z</time>
      </trkpt>
      <trkpt lat="48.63427" lon="-3.35332">
        <ele>96</ele>
        <time>2015-01-25T08:33:28Z</time>
      </trkpt>
      <trkpt lat="48.63427" lon="-3.35322">
        <ele>96</ele>
        <time>2015-01-25T08:33:29Z</time>
      </trkpt>
      <trkpt lat="48.63428" lon="-3.35312">
        <ele>96</ele>
        <time>2015-01-25T08:33:30Z</time>
      </trkpt>
      <trkpt lat="48.63429" lon="-3.35303">
        <ele>96</ele>
        <time>2015-01-25T08:33:31Z</time>
      </trkpt>
      <trkpt lat="48.63429" lon="-3.35294">
        <ele>96</ele>
        <time>2015-01-25T08:33:32Z</time>
      </trkpt>
      <trkpt lat="48.6343" lon="-3.35285">
        <ele>96</ele>
        <time>2015-01-25T08:33:33Z</time>
      </trkpt>
      <trkpt lat="48.6343" lon="-3.35275">
        <ele>96</ele>
        <time>2015-01-25T08:33:34Z</time>
      </trkpt>
      <trkpt lat="48.63431" lon="-3.35266">
        <ele>97</ele>
        <time>2015-01-25T08:33:35Z</time>
      </trkpt>
      <trkpt lat="48.63432" lon="-3.35256">
        <ele>97</ele>
        <time>2015-01-25T08:33:36Z</time>
      </trkpt>
      <trkpt lat="48.63432" lon="-3.35246">
        <ele>97</ele>
        <time>2015-01-25T08:33:37Z</time>
      </trkpt>
      <trkpt lat="48.63433" lon="-3.35237">
        <ele>98</ele>
        <time>2015-01-25T08:33:38Z</time>
      </trkpt>
      <trkpt lat="48.63434" lon="-3.35227">
        <ele>98</ele>
        <time>2015-01-25T08:33:39Z</time>
      </trkpt>
      <trkpt lat="48.63434" lon="-3.35217">
        <ele>99</ele>
        <time>2015-01-25T08:33:40Z</time>
      </trkpt>
      <trkpt lat="48.63435" lon="-3.35208">
        <ele>99</ele>
        <time>2015-01-25T08:33:41Z</time>
      </trkpt>
      <trkpt lat="48.63436" lon="-3.35198">
        <ele>99</ele>
        <time>2015-01-25T08:33:42Z</time>
      </trkpt>
      <trkpt lat="48.63436" lon="-3.35189">
        <ele>100</ele>
        <time>2015-01-25T08:33:43Z</time>
      </trkpt>
      <trkpt lat="48.63437" lon="-3.3518">
        <ele>100</ele>
        <time>2015-01-25T08:33:44Z</time>
      </trkpt>
      <trkpt lat="48.63437" lon="-3.35171">
        <ele>101</ele>
        <time>2015-01-25T08:33:45Z</time>
      </trkpt>
      <trkpt lat="48.63438" lon="-3.35162">
        <ele>101</ele>
        <time>2015-01-25T08:33:46Z</time>
      </trkpt>
      <trkpt lat="48.63438" lon="-3.35153">
        <ele>101</ele>
        <time>2015-01-25T08:33:47Z</time>
      </trkpt>
      <trkpt lat="48.63439" lon="-3.35144">
        <ele>102</ele>
        <time>2015-01-25T08:33:48Z</time>
      </trkpt>
      <trkpt lat="48.6344" lon="-3.35135">
        <ele>102</ele>
        <time>2015-01-25T08:33:49Z</time>
      </trkpt>
      <trkpt lat="48.6344" lon="-3.35126">
        <ele>102</ele>
        <time>2015-01-25T08:33:50Z</time>
      </trkpt>
      <trkpt lat="48.63441" lon="-3.35117">
        <ele>103</ele>
        <time>2015-01-25T08:33:51Z</time>
      </trkpt>
      <trkpt lat="48.63441" lon="-3.35107">
        <ele>103</ele>
        <time>2015-01-25T08:33:52Z</time>
      </trkpt>
      <trkpt lat="48.63442" lon="-3.35097">
        <ele>103</ele>
        <time>2015-01-25T08:33:53Z</time>
      </trkpt>
      <trkpt lat="48.63443" lon="-3.35087">
        <ele>103</ele>
        <time>2015-01-25T08:33:54Z</time>
      </trkpt>
      <trkpt lat="48.63443" lon="-3.35077">
        <ele>103</ele>
        <time>2015-01-25T08:33:55Z</time>
      </trkpt>
      <trkpt lat="48.63444" lon="-3.35067">
        <ele>103</ele>
        <time>2015-01-25T08:33:56Z</time>
      </trkpt>
      <trkpt lat="48.63444" lon="-3.35056">
        <ele>103</ele>
        <time>2015-01-25T08:33:57Z</time>
      </trkpt>
      <trkpt lat="48.63445" lon="-3.35046">
        <ele>103</ele>
        <time>2015-01-25T08:33:58Z</time>
      </trkpt>
      <trkpt lat="48.63446" lon="-3.35036">
        <ele>103</ele>
        <time>2015-01-25T08:33:59Z</time>
      </trkpt>
      <trkpt lat="48.63447" lon="-3.35025">
        <ele>103</ele>
        <time>2015-01-25T08:34:00Z</time>
      </trkpt>
      <trkpt lat="48.63447" lon="-3.35015">
        <ele>103</ele>
        <time>2015-01-25T08:34:01Z</time>
      </trkpt>
      <trkpt lat="48.63448" lon="-3.35005">
        <ele>103</ele>
        <time>2015-01-25T08:34:02Z</time>
      </trkpt>
      <trkpt lat="48.63448" lon="-3.34994">
        <ele>103</ele>
        <time>2015-01-25T08:34:03Z</time>
      </trkpt>
      <trkpt lat="48.63449" lon="-3.34984">
        <ele>103</ele>
        <time>2015-01-25T08:34:04Z</time>
      </trkpt>
      <trkpt lat="48.63449" lon="-3.34974">
        <ele>103</ele>
        <time>2015-01-25T08:34:05Z</time>
      </trkpt>
      <trkpt lat="48.63449" lon="-3.34963">
        <ele>103</ele>
        <time>2015-01-25T08:34:06Z</time>
      </trkpt>
      <trkpt lat="48.6345" lon="-3.34953">
        <ele>103</ele>
        <time>2015-01-25T08:34:07Z</time>
      </trkpt>
      <trkpt lat="48.6345" lon="-3.34942">
        <ele>103</ele>
        <time>2015-01-25T08:34:08Z</time>
      </trkpt>
      <trkpt lat="48.63451" lon="-3.34932">
        <ele>103</ele>
        <time>2015-01-25T08:34:09Z</time>
      </trkpt>
      <trkpt lat="48.63451" lon="-3.34922">
        <ele>103</ele>
        <time>2015-01-25T08:34:10Z</time>
      </trkpt>
      <trkpt lat="48.63452" lon="-3.34911">
        <ele>103</ele>
        <time>2015-01-25T08:34:11Z</time>
      </trkpt>
      <trkpt lat="48.63453" lon="-3.34901">
        <ele>103</ele>
        <time>2015-01-25T08:34:12Z</time>
      </trkpt>
      <trkpt lat="48.63453" lon="-3.3489">
        <ele>103</ele>
        <time>2015-01-25T08:34:13Z</time>
      </trkpt>
      <trkpt lat="48.63453" lon="-3.3488">
        <ele>103</ele>
        <time>2015-01-25T08:34:14Z</time>
      </trkpt>
      <trkpt lat="48.63453" lon="-3.34859">
        <ele>103</ele>
        <time>2015-01-25T08:34:16Z</time>
      </trkpt>
      <trkpt lat="48.63452" lon="-3.34848">
        <ele>103</ele>
        <time>2015-01-25T08:34:17Z</time>
      </trkpt>
      <trkpt lat="48.63451" lon="-3.34838">
        <ele>103</ele>
        <time>2015-01-25T08:34:18Z</time>
      </trkpt>
      <trkpt lat="48.6345" lon="-3.34827">
        <ele>103</ele>
        <time>2015-01-25T08:34:19Z</time>
      </trkpt>
      <trkpt lat="48.63449" lon="-3.34817">
        <ele>103</ele>
        <time>2015-01-25T08:34:20Z</time>
      </trkpt>
      <trkpt lat="48.63447" lon="-3.34807">
        <ele>103</ele>
        <time>2015-01-25T08:34:21Z</time>
      </trkpt>
      <trkpt lat="48.63445" lon="-3.34797">
        <ele>103</ele>
        <time>2015-01-25T08:34:22Z</time>
      </trkpt>
      <trkpt lat="48.63442" lon="-3.34786">
        <ele>103</ele>
        <time>2015-01-25T08:34:23Z</time>
      </trkpt>
      <trkpt lat="48.6344" lon="-3.34777">
        <ele>104</ele>
        <time>2015-01-25T08:34:24Z</time>
      </trkpt>
      <trkpt lat="48.63438" lon="-3.34767">
        <ele>104</ele>
        <time>2015-01-25T08:34:25Z</time>
      </trkpt>
      <trkpt lat="48.63435" lon="-3.34757">
        <ele>104</ele>
        <time>2015-01-25T08:34:26Z</time>
      </trkpt>
      <trkpt lat="48.63432" lon="-3.34747">
        <ele>104</ele>
        <time>2015-01-25T08:34:27Z</time>
      </trkpt>
      <trkpt lat="48.6343" lon="-3.34738">
        <ele>104</ele>
        <time>2015-01-25T08:34:28Z</time>
      </trkpt>
      <trkpt lat="48.63427" lon="-3.34728">
        <ele>104</ele>
        <time>2015-01-25T08:34:29Z</time>
      </trkpt>
      <trkpt lat="48.63424" lon="-3.34719">
        <ele>104</ele>
        <time>2015-01-25T08:34:30Z</time>
      </trkpt>
      <trkpt lat="48.63422" lon="-3.34709">
        <ele>105</ele>
        <time>2015-01-25T08:34:31Z</time>
      </trkpt>
      <trkpt lat="48.63419" lon="-3.347">
        <ele>105</ele>
        <time>2015-01-25T08:34:32Z</time>
      </trkpt>
      <trkpt lat="48.63416" lon="-3.3469">
        <ele>105</ele>
        <time>2015-01-25T08:34:33Z</time>
      </trkpt>
      <trkpt lat="48.63414" lon="-3.34681">
        <ele>105</ele>
        <time>2015-01-25T08:34:34Z</time>
      </trkpt>
      <trkpt lat="48.63411" lon="-3.34671">
        <ele>105</ele>
        <time>2015-01-25T08:34:35Z</time>
      </trkpt>
      <trkpt lat="48.63408" lon="-3.34661">
        <ele>105</ele>
        <time>2015-01-25T08:34:36Z</time>
      </trkpt>
      <trkpt lat="48.63405" lon="-3.34651">
        <ele>105</ele>
        <time>2015-01-25T08:34:37Z</time>
      </trkpt>
      <trkpt lat="48.63402" lon="-3.34642">
        <ele>105</ele>
        <time>2015-01-25T08:34:38Z</time>
      </trkpt>
      <trkpt lat="48.634" lon="-3.34631">
        <ele>105</ele>
        <time>2015-01-25T08:34:39Z</time>
      </trkpt>
      <trkpt lat="48.63396" lon="-3.34621">
        <ele>105</ele>
        <time>2015-01-25T08:34:40Z</time>
      </trkpt>
      <trkpt lat="48.63393" lon="-3.34611">
        <ele>106</ele>
        <time>2015-01-25T08:34:41Z</time>
      </trkpt>
      <trkpt lat="48.63391" lon="-3.34601">
        <ele>106</ele>
        <time>2015-01-25T08:34:42Z</time>
      </trkpt>
      <trkpt lat="48.63388" lon="-3.3459">
        <ele>106</ele>
        <time>2015-01-25T08:34:43Z</time>
      </trkpt>
      <trkpt lat="48.63385" lon="-3.3458">
        <ele>106</ele>
        <time>2015-01-25T08:34:44Z</time>
      </trkpt>
      <trkpt lat="48.63382" lon="-3.3457">
        <ele>106</ele>
        <time>2015-01-25T08:34:45Z</time>
      </trkpt>
      <trkpt lat="48.63379" lon="-3.3456">
        <ele>106</ele>
        <time>2015-01-25T08:34:46Z</time>
      </trkpt>
      <trkpt lat="48.63376" lon="-3.3455">
        <ele>106</ele>
        <time>2015-01-25T08:34:47Z</time>
      </trkpt>
      <trkpt lat="48.63373" lon="-3.34539">
        <ele>106</ele>
        <time>2015-01-25T08:34:48Z</time>
      </trkpt>
      <trkpt lat="48.63371" lon="-3.34528">
        <ele>106</ele>
        <time>2015-01-25T08:34:49Z</time>
      </trkpt>
      <trkpt lat="48.63368" lon="-3.34518">
        <ele>106</ele>
        <time>2015-01-25T08:34:50Z</time>
      </trkpt>
      <trkpt lat="48.63366" lon="-3.34507">
        <ele>106</ele>
        <time>2015-01-25T08:34:51Z</time>
      </trkpt>
      <trkpt lat="48.63363" lon="-3.34496">
        <ele>106</ele>
        <time>2015-01-25T08:34:52Z</time>
      </trkpt>
      <trkpt lat="48.63361" lon="-3.34485">
        <ele>106</ele>
        <time>2015-01-25T08:34:53Z</time>
      </trkpt>
      <trkpt lat="48.63358" lon="-3.34474">
        <ele>106</ele>
        <time>2015-01-25T08:34:54Z</time>
      </trkpt>
      <trkpt lat="48.63356" lon="-3.34464">
        <ele>106</ele>
        <time>2015-01-25T08:34:55Z</time>
      </trkpt>
      <trkpt lat="48.63353" lon="-3.34453">
        <ele>106</ele>
        <time>2015-01-25T08:34:56Z</time>
      </trkpt>
      <trkpt lat="48.63351" lon="-3.34441">
        <ele>106</ele>
        <time>2015-01-25T08:34:57Z</time>
      </trkpt>
      <trkpt lat="48.63348" lon="-3.3443">
        <ele>106</ele>
        <time>2015-01-25T08:34:58Z</time>
      </trkpt>
      <trkpt lat="48.63345" lon="-3.34419">
        <ele>106</ele>
        <time>2015-01-25T08:34:59Z</time>
      </trkpt>
      <trkpt lat="48.63343" lon="-3.34408">
        <ele>106</ele>
        <time>2015-01-25T08:35:00Z</time>
      </trkpt>
      <trkpt lat="48.6334" lon="-3.34397">
        <ele>106</ele>
        <time>2015-01-25T08:35:01Z</time>
      </trkpt>
      <trkpt lat="48.63338" lon="-3.34385">
        <ele>106</ele>
        <time>2015-01-25T08:35:02Z</time>
      </trkpt>
      <trkpt lat="48.63336" lon="-3.34374">
        <ele>106</ele>
        <time>2015-01-25T08:35:03Z</time>
      </trkpt>
      <trkpt lat="48.63333" lon="-3.34363">
        <ele>106</ele>
        <time>2015-01-25T08:35:04Z</time>
      </trkpt>
      <trkpt lat="48.6333" lon="-3.34351">
        <ele>106</ele>
        <time>2015-01-25T08:35:05Z</time>
      </trkpt>
      <trkpt lat="48.63327" lon="-3.3434">
        <ele>106</ele>
        <time>2015-01-25T08:35:06Z</time>
      </trkpt>
      <trkpt lat="48.63325" lon="-3.34328">
        <ele>106</ele>
        <time>2015-01-25T08:35:07Z</time>
      </trkpt>
      <trkpt lat="48.63322" lon="-3.34317">
        <ele>106</ele>
        <time>2015-01-25T08:35:08Z</time>
      </trkpt>
      <trkpt lat="48.63319" lon="-3.34305">
        <ele>106</ele>
        <time>2015-01-25T08:35:09Z</time>
      </trkpt>
      <trkpt lat="48.63317" lon="-3.34294">
        <ele>106</ele>
        <time>2015-01-25T08:35:10Z</time>
      </trkpt>
      <trkpt lat="48.63314" lon="-3.34282">
        <ele>106</ele>
        <time>2015-01-25T08:35:11Z</time>
      </trkpt>
      <trkpt lat="48.63311" lon="-3.34272">
        <ele>106</ele>
        <time>2015-01-25T08:35:12Z</time>
      </trkpt>
      <trkpt lat="48.63309" lon="-3.34261">
        <ele>106</ele>
        <time>2015-01-25T08:35:13Z</time>
      </trkpt>
      <trkpt lat="48.63306" lon="-3.3425">
        <ele>106</ele>
        <time>2015-01-25T08:35:14Z</time>
      </trkpt>
      <trkpt lat="48.63304" lon="-3.3424">
        <ele>106</ele>
        <time>2015-01-25T08:35:15Z</time>
      </trkpt>
      <trkpt lat="48.63302" lon="-3.3423">
        <ele>106</ele>
        <time>2015-01-25T08:35:16Z</time>
      </trkpt>
      <trkpt lat="48.633" lon="-3.34221">
        <ele>107</ele>
        <time>2015-01-25T08:35:17Z</time>
      </trkpt>
      <trkpt lat="48.63298" lon="-3.34212">
        <ele>107</ele>
        <time>2015-01-25T08:35:18Z</time>
      </trkpt>
      <trkpt lat="48.63296" lon="-3.34203">
        <ele>107</ele>
        <time>2015-01-25T08:35:19Z</time>
      </trkpt>
      <trkpt lat="48.63294" lon="-3.34193">
        <ele>107</ele>
        <time>2015-01-25T08:35:20Z</time>
      </trkpt>
      <trkpt lat="48.63292" lon="-3.34184">
        <ele>107</ele>
        <time>2015-01-25T08:35:21Z</time>
      </trkpt>
      <trkpt lat="48.6329" lon="-3.34174">
        <ele>107</ele>
        <time>2015-01-25T08:35:22Z</time>
      </trkpt>
      <trkpt lat="48.63288" lon="-3.34165">
        <ele>108</ele>
        <time>2015-01-25T08:35:23Z</time>
      </trkpt>
      <trkpt lat="48.63286" lon="-3.34156">
        <ele>108</ele>
        <time>2015-01-25T08:35:24Z</time>
      </trkpt>
      <trkpt lat="48.63284" lon="-3.34146">
        <ele>108</ele>
        <time>2015-01-25T08:35:25Z</time>
      </trkpt>
      <trkpt lat="48.63282" lon="-3.34137">
        <ele>108</ele>
        <time>2015-01-25T08:35:26Z</time>
      </trkpt>
      <trkpt lat="48.63279" lon="-3.34127">
        <ele>108</ele>
        <time>2015-01-25T08:35:27Z</time>
      </trkpt>
      <trkpt lat="48.63277" lon="-3.34118">
        <ele>108</ele>
        <time>2015-01-25T08:35:28Z</time>
      </trkpt>
      <trkpt lat="48.63275" lon="-3.34108">
        <ele>109</ele>
        <time>2015-01-25T08:35:29Z</time>
      </trkpt>
      <trkpt lat="48.63273" lon="-3.34099">
        <ele>109</ele>
        <time>2015-01-25T08:35:30Z</time>
      </trkpt>
      <trkpt lat="48.63271" lon="-3.34089">
        <ele>109</ele>
        <time>2015-01-25T08:35:31Z</time>
      </trkpt>
      <trkpt lat="48.63269" lon="-3.3408">
        <ele>109</ele>
        <time>2015-01-25T08:35:32Z</time>
      </trkpt>
      <trkpt lat="48.63267" lon="-3.34071">
        <ele>109</ele>
        <time>2015-01-25T08:35:33Z</time>
      </trkpt>
      <trkpt lat="48.63265" lon="-3.34061">
        <ele>109</ele>
        <time>2015-01-25T08:35:34Z</time>
      </trkpt>
      <trkpt lat="48.63263" lon="-3.34051">
        <ele>109</ele>
        <time>2015-01-25T08:35:35Z</time>
      </trkpt>
      <trkpt lat="48.6326" lon="-3.34042">
        <ele>109</ele>
        <time>2015-01-25T08:35:36Z</time>
      </trkpt>
      <trkpt lat="48.63258" lon="-3.34032">
        <ele>109</ele>
        <time>2015-01-25T08:35:37Z</time>
      </trkpt>
      <trkpt lat="48.63256" lon="-3.34022">
        <ele>109</ele>
        <time>2015-01-25T08:35:38Z</time>
      </trkpt>
      <trkpt lat="48.63253" lon="-3.34012">
        <ele>109</ele>
        <time>2015-01-25T08:35:39Z</time>
      </trkpt>
      <trkpt lat="48.63251" lon="-3.34002">
        <ele>109</ele>
        <time>2015-01-25T08:35:40Z</time>
      </trkpt>
      <trkpt lat="48.63249" lon="-3.33992">
        <ele>109</ele>
        <time>2015-01-25T08:35:41Z</time>
      </trkpt>
      <trkpt lat="48.63247" lon="-3.33982">
        <ele>109</ele>
        <time>2015-01-25T08:35:42Z</time>
      </trkpt>
      <trkpt lat="48.63244" lon="-3.33971">
        <ele>109</ele>
        <time>2015-01-25T08:35:43Z</time>
      </trkpt>
      <trkpt lat="48.63242" lon="-3.3396">
        <ele>109</ele>
        <time>2015-01-25T08:35:44Z</time>
      </trkpt>
      <trkpt lat="48.63239" lon="-3.33949">
        <ele>109</ele>
        <time>2015-01-25T08:35:45Z</time>
      </trkpt>
      <trkpt lat="48.63237" lon="-3.33938">
        <ele>109</ele>
        <time>2015-01-25T08:35:46Z</time>
      </trkpt>
      <trkpt lat="48.63234" lon="-3.33927">
        <ele>109</ele>
        <time>2015-01-25T08:35:47Z</time>
      </trkpt>
      <trkpt lat="48.63231" lon="-3.33916">
        <ele>109</ele>
        <time>2015-01-25T08:35:48Z</time>
      </trkpt>
      <trkpt lat="48.63229" lon="-3.33905">
        <ele>109</ele>
        <time>2015-01-25T08:35:49Z</time>
      </trkpt>
      <trkpt lat="48.63226" lon="-3.33894">
        <ele>109</ele>
        <time>2015-01-25T08:35:50Z</time>
      </trkpt>
      <trkpt lat="48.63224" lon="-3.33883">
        <ele>109</ele>
        <time>2015-01-25T08:35:51Z</time>
      </trkpt>
      <trkpt lat="48.63221" lon="-3.33872">
        <ele>109</ele>
        <time>2015-01-25T08:35:52Z</time>
      </trkpt>
      <trkpt lat="48.63219" lon="-3.33862">
        <ele>109</ele>
        <time>2015-01-25T08:35:53Z</time>
      </trkpt>
      <trkpt lat="48.63216" lon="-3.33851">
        <ele>109</ele>
        <time>2015-01-25T08:35:54Z</time>
      </trkpt>
      <trkpt lat="48.63214" lon="-3.3384">
        <ele>109</ele>
        <time>2015-01-25T08:35:55Z</time>
      </trkpt>
      <trkpt lat="48.63211" lon="-3.3383">
        <ele>109</ele>
        <time>2015-01-25T08:35:56Z</time>
      </trkpt>
      <trkpt lat="48.63208" lon="-3.33819">
        <ele>109</ele>
        <time>2015-01-25T08:35:57Z</time>
      </trkpt>
      <trkpt lat="48.63206" lon="-3.33809">
        <ele>109</ele>
        <time>2015-01-25T08:35:58Z</time>
      </trkpt>
      <trkpt lat="48.63203" lon="-3.33798">
        <ele>109</ele>
        <time>2015-01-25T08:35:59Z</time>
      </trkpt>
      <trkpt lat="48.63201" lon="-3.33787">
        <ele>109</ele>
        <time>2015-01-25T08:36:00Z</time>
      </trkpt>
      <trkpt lat="48.63198" lon="-3.33777">
        <ele>109</ele>
        <time>2015-01-25T08:36:01Z</time>
      </trkpt>
      <trkpt lat="48.63196" lon="-3.33766">
        <ele>109</ele>
        <time>2015-01-25T08:36:02Z</time>
      </trkpt>
      <trkpt lat="48.63193" lon="-3.33755">
        <ele>109</ele>
        <time>2015-01-25T08:36:03Z</time>
      </trkpt>
      <trkpt lat="48.63191" lon="-3.33744">
        <ele>109</ele>
        <time>2015-01-25T08:36:04Z</time>
      </trkpt>
      <trkpt lat="48.63189" lon="-3.33733">
        <ele>109</ele>
        <time>2015-01-25T08:36:05Z</time>
      </trkpt>
      <trkpt lat="48.63186" lon="-3.33722">
        <ele>109</ele>
        <time>2015-01-25T08:36:06Z</time>
      </trkpt>
      <trkpt lat="48.63184" lon="-3.33711">
        <ele>109</ele>
        <time>2015-01-25T08:36:07Z</time>
      </trkpt>
      <trkpt lat="48.63181" lon="-3.33699">
        <ele>109</ele>
        <time>2015-01-25T08:36:08Z</time>
      </trkpt>
      <trkpt lat="48.63179" lon="-3.33688">
        <ele>109</ele>
        <time>2015-01-25T08:36:09Z</time>
      </trkpt>
      <trkpt lat="48.63176" lon="-3.33677">
        <ele>109</ele>
        <time>2015-01-25T08:36:10Z</time>
      </trkpt>
      <trkpt lat="48.63174" lon="-3.33666">
        <ele>109</ele>
        <time>2015-01-25T08:36:11Z</time>
      </trkpt>
      <trkpt lat="48.63171" lon="-3.33655">
        <ele>110</ele>
        <time>2015-01-25T08:36:12Z</time>
      </trkpt>
      <trkpt lat="48.63169" lon="-3.33644">
        <ele>110</ele>
        <time>2015-01-25T08:36:13Z</time>
      </trkpt>
      <trkpt lat="48.63166" lon="-3.33632">
        <ele>110</ele>
        <time>2015-01-25T08:36:14Z</time>
      </trkpt>
      <trkpt lat="48.63164" lon="-3.33621">
        <ele>110</ele>
        <time>2015-01-25T08:36:15Z</time>
      </trkpt>
      <trkpt lat="48.63161" lon="-3.3361">
        <ele>110</ele>
        <time>2015-01-25T08:36:16Z</time>
      </trkpt>
      <trkpt lat="48.63159" lon="-3.33599">
        <ele>110</ele>
        <time>2015-01-25T08:36:17Z</time>
      </trkpt>
      <trkpt lat="48.63157" lon="-3.33587">
        <ele>110</ele>
        <time>2015-01-25T08:36:18Z</time>
      </trkpt>
      <trkpt lat="48.63154" lon="-3.33576">
        <ele>111</ele>
        <time>2015-01-25T08:36:19Z</time>
      </trkpt>
      <trkpt lat="48.63152" lon="-3.33565">
        <ele>111</ele>
        <time>2015-01-25T08:36:20Z</time>
      </trkpt>
      <trkpt lat="48.63149" lon="-3.33553">
        <ele>111</ele>
        <time>2015-01-25T08:36:21Z</time>
      </trkpt>
      <trkpt lat="48.63147" lon="-3.33541">
        <ele>111</ele>
        <time>2015-01-25T08:36:22Z</time>
      </trkpt>
      <trkpt lat="48.63144" lon="-3.3353">
        <ele>111</ele>
        <time>2015-01-25T08:36:23Z</time>
      </trkpt>
      <trkpt lat="48.63142" lon="-3.33519">
        <ele>111</ele>
        <time>2015-01-25T08:36:24Z</time>
      </trkpt>
      <trkpt lat="48.63139" lon="-3.33507">
        <ele>111</ele>
        <time>2015-01-25T08:36:25Z</time>
      </trkpt>
      <trkpt lat="48.63137" lon="-3.33496">
        <ele>111</ele>
        <time>2015-01-25T08:36:26Z</time>
      </trkpt>
      <trkpt lat="48.63134" lon="-3.33485">
        <ele>111</ele>
        <time>2015-01-25T08:36:27Z</time>
      </trkpt>
      <trkpt lat="48.63132" lon="-3.33474">
        <ele>112</ele>
        <time>2015-01-25T08:36:28Z</time>
      </trkpt>
      <trkpt lat="48.6313" lon="-3.33464">
        <ele>112</ele>
        <time>2015-01-25T08:36:29Z</time>
      </trkpt>
      <trkpt lat="48.63128" lon="-3.33453">
        <ele>112</ele>
        <time>2015-01-25T08:36:30Z</time>
      </trkpt>
      <trkpt lat="48.63126" lon="-3.33444">
        <ele>112</ele>
        <time>2015-01-25T08:36:31Z</time>
      </trkpt>
      <trkpt lat="48.63123" lon="-3.33434">
        <ele>112</ele>
        <time>2015-01-25T08:36:32Z</time>
      </trkpt>
      <trkpt lat="48.63121" lon="-3.33425">
        <ele>112</ele>
        <time>2015-01-25T08:36:33Z</time>
      </trkpt>
      <trkpt lat="48.63119" lon="-3.33415">
        <ele>112</ele>
        <time>2015-01-25T08:36:34Z</time>
      </trkpt>
      <trkpt lat="48.63117" lon="-3.33405">
        <ele>112</ele>
        <time>2015-01-25T08:36:35Z</time>
      </trkpt>
      <trkpt lat="48.63115" lon="-3.33395">
        <ele>113</ele>
        <time>2015-01-25T08:36:36Z</time>
      </trkpt>
      <trkpt lat="48.63113" lon="-3.33386">
        <ele>113</ele>
        <time>2015-01-25T08:36:37Z</time>
      </trkpt>
      <trkpt lat="48.6311" lon="-3.33376">
        <ele>113</ele>
        <time>2015-01-25T08:36:38Z</time>
      </trkpt>
      <trkpt lat="48.63109" lon="-3.33367">
        <ele>113</ele>
        <time>2015-01-25T08:36:39Z</time>
      </trkpt>
      <trkpt lat="48.63107" lon="-3.33358">
        <ele>113</ele>
        <time>2015-01-25T08:36:40Z</time>
      </trkpt>
      <trkpt lat="48.63105" lon="-3.33349">
        <ele>113</ele>
        <time>2015-01-25T08:36:41Z</time>
      </trkpt>
      <trkpt lat="48.63103" lon="-3.33341">
        <ele>113</ele>
        <time>2015-01-25T08:36:42Z</time>
      </trkpt>
      <trkpt lat="48.63102" lon="-3.33333">
        <ele>113</ele>
        <time>2015-01-25T08:36:43Z</time>
      </trkpt>
      <trkpt lat="48.631" lon="-3.33325">
        <ele>113</ele>
        <time>2015-01-25T08:36:44Z</time>
      </trkpt>
      <trkpt lat="48.63098" lon="-3.33317">
        <ele>113</ele>
        <time>2015-01-25T08:36:45Z</time>
      </trkpt>
      <trkpt lat="48.63097" lon="-3.3331">
        <ele>113</ele>
        <time>2015-01-25T08:36:46Z</time>
      </trkpt>
      <trkpt lat="48.63097" lon="-3.33303">
        <ele>113</ele>
        <time>2015-01-25T08:36:47Z</time>
      </trkpt>
      <trkpt lat="48.63097" lon="-3.33288">
        <ele>114</ele>
        <time>2015-01-25T08:36:49Z</time>
      </trkpt>
      <trkpt lat="48.631" lon="-3.33282">
        <ele>114</ele>
        <time>2015-01-25T08:36:50Z</time>
      </trkpt>
      <trkpt lat="48.63104" lon="-3.33278">
        <ele>114</ele>
        <time>2015-01-25T08:36:51Z</time>
      </trkpt>
      <trkpt lat="48.63108" lon="-3.33276">
        <ele>114</ele>
        <time>2015-01-25T08:36:52Z</time>
      </trkpt>
      <trkpt lat="48.63114" lon="-3.33275">
        <ele>114</ele>
        <time>2015-01-25T08:36:53Z</time>
      </trkpt>
      <trkpt lat="48.63121" lon="-3.33274">
        <ele>114</ele>
        <time>2015-01-25T08:36:54Z</time>
      </trkpt>
      <trkpt lat="48.63135" lon="-3.33274">
        <ele>114</ele>
        <time>2015-01-25T08:36:56Z</time>
      </trkpt>
      <trkpt lat="48.63143" lon="-3.33273">
        <ele>114</ele>
        <time>2015-01-25T08:36:57Z</time>
      </trkpt>
      <trkpt lat="48.63151" lon="-3.33273">
        <ele>114</ele>
        <time>2015-01-25T08:36:58Z</time>
      </trkpt>
      <trkpt lat="48.63159" lon="-3.33272">
        <ele>114</ele>
        <time>2015-01-25T08:36:59Z</time>
      </trkpt>
      <trkpt lat="48.63167" lon="-3.33271">
        <ele>114</ele>
        <time>2015-01-25T08:37:00Z</time>
      </trkpt>
      <trkpt lat="48.63176" lon="-3.3327">
        <ele>114</ele>
        <time>2015-01-25T08:37:01Z</time>
      </trkpt>
      <trkpt lat="48.63184" lon="-3.33269">
        <ele>114</ele>
        <time>2015-01-25T08:37:02Z</time>
      </trkpt>
      <trkpt lat="48.63192" lon="-3.33269">
        <ele>114</ele>
        <time>2015-01-25T08:37:03Z</time>
      </trkpt>
      <trkpt lat="48.632" lon="-3.33268">
        <ele>114</ele>
        <time>2015-01-25T08:37:04Z</time>
      </trkpt>
      <trkpt lat="48.63209" lon="-3.33267">
        <ele>114</ele>
        <time>2015-01-25T08:37:05Z</time>
      </trkpt>
      <trkpt lat="48.63217" lon="-3.33266">
        <ele>114</ele>
        <time>2015-01-25T08:37:06Z</time>
      </trkpt>
      <trkpt lat="48.63225" lon="-3.33265">
        <ele>114</ele>
        <time>2015-01-25T08:37:07Z</time>
      </trkpt>
      <trkpt lat="48.63233" lon="-3.33264">
        <ele>114</ele>
        <time>2015-01-25T08:37:08Z</time>
      </trkpt>
      <trkpt lat="48.6324" lon="-3.33263">
        <ele>114</ele>
        <time>2015-01-25T08:37:09Z</time>
      </trkpt>
      <trkpt lat="48.63248" lon="-3.33263">
        <ele>114</ele>
        <time>2015-01-25T08:37:10Z</time>
      </trkpt>
      <trkpt lat="48.63255" lon="-3.33262">
        <ele>114</ele>
        <time>2015-01-25T08:37:11Z</time>
      </trkpt>
      <trkpt lat="48.63262" lon="-3.33262">
        <ele>114</ele>
        <time>2015-01-25T08:37:12Z</time>
      </trkpt>
      <trkpt lat="48.63268" lon="-3.33261">
        <ele>114</ele>
        <time>2015-01-25T08:37:13Z</time>
      </trkpt>
      <trkpt lat="48.63274" lon="-3.33261">
        <ele>114</ele>
        <time>2015-01-25T08:37:14Z</time>
      </trkpt>
      <trkpt lat="48.63281" lon="-3.33261">
        <ele>114</ele>
        <time>2015-01-25T08:37:15Z</time>
      </trkpt>
      <trkpt lat="48.63287" lon="-3.3326">
        <ele>114</ele>
        <time>2015-01-25T08:37:16Z</time>
      </trkpt>
      <trkpt lat="48.63293" lon="-3.3326">
        <ele>114</ele>
        <time>2015-01-25T08:37:17Z</time>
      </trkpt>
      <trkpt lat="48.63299" lon="-3.3326">
        <ele>114</ele>
        <time>2015-01-25T08:37:18Z</time>
      </trkpt>
      <trkpt lat="48.63305" lon="-3.33258">
        <ele>114</ele>
        <time>2015-01-25T08:37:19Z</time>
      </trkpt>
      <trkpt lat="48.63311" lon="-3.33256">
        <ele>114</ele>
        <time>2015-01-25T08:37:20Z</time>
      </trkpt>
      <trkpt lat="48.63316" lon="-3.3325">
        <ele>114</ele>
        <time>2015-01-25T08:37:21Z</time>
      </trkpt>
      <trkpt lat="48.63319" lon="-3.33242">
        <ele>114</ele>
        <time>2015-01-25T08:37:22Z</time>
      </trkpt>
      <trkpt lat="48.6332" lon="-3.33232">
        <ele>114</ele>
        <time>2015-01-25T08:37:23Z</time>
      </trkpt>
      <trkpt lat="48.63321" lon="-3.33221">
        <ele>114</ele>
        <time>2015-01-25T08:37:24Z</time>
      </trkpt>
      <trkpt lat="48.63321" lon="-3.3321">
        <ele>114</ele>
        <time>2015-01-25T08:37:25Z</time>
      </trkpt>
      <trkpt lat="48.63322" lon="-3.33198">
        <ele>114</ele>
        <time>2015-01-25T08:37:26Z</time>
      </trkpt>
      <trkpt lat="48.63321" lon="-3.3311">
        <ele>114</ele>
        <time>2015-01-25T08:37:33Z</time>
      </trkpt>
      <trkpt lat="48.63321" lon="-3.33085">
        <ele>114</ele>
        <time>2015-01-25T08:37:35Z</time>
      </trkpt>
      <trkpt lat="48.6332" lon="-3.33072">
        <ele>114</ele>
        <time>2015-01-25T08:37:36Z</time>
      </trkpt>
      <trkpt lat="48.63318" lon="-3.3306">
        <ele>114</ele>
        <time>2015-01-25T08:37:37Z</time>
      </trkpt>
      <trkpt lat="48.63316" lon="-3.33049">
        <ele>114</ele>
        <time>2015-01-25T08:37:38Z</time>
      </trkpt>
      <trkpt lat="48.63314" lon="-3.33037">
        <ele>114</ele>
        <time>2015-01-25T08:37:39Z</time>
      </trkpt>
      <trkpt lat="48.63311" lon="-3.33026">
        <ele>114</ele>
        <time>2015-01-25T08:37:40Z</time>
      </trkpt>
      <trkpt lat="48.63308" lon="-3.33014">
        <ele>114</ele>
        <time>2015-01-25T08:37:41Z</time>
      </trkpt>
      <trkpt lat="48.63306" lon="-3.33003">
        <ele>114</ele>
        <time>2015-01-25T08:37:42Z</time>
      </trkpt>
      <trkpt lat="48.63303" lon="-3.32992">
        <ele>114</ele>
        <time>2015-01-25T08:37:43Z</time>
      </trkpt>
      <trkpt lat="48.633" lon="-3.32981">
        <ele>114</ele>
        <time>2015-01-25T08:37:44Z</time>
      </trkpt>
      <trkpt lat="48.63297" lon="-3.3297">
        <ele>114</ele>
        <time>2015-01-25T08:37:45Z</time>
      </trkpt>
      <trkpt lat="48.63294" lon="-3.32959">
        <ele>114</ele>
        <time>2015-01-25T08:37:46Z</time>
      </trkpt>
      <trkpt lat="48.63291" lon="-3.32947">
        <ele>114</ele>
        <time>2015-01-25T08:37:47Z</time>
      </trkpt>
      <trkpt lat="48.63288" lon="-3.32936">
        <ele>114</ele>
        <time>2015-01-25T08:37:48Z</time>
      </trkpt>
      <trkpt lat="48.63286" lon="-3.32925">
        <ele>114</ele>
        <time>2015-01-25T08:37:49Z</time>
      </trkpt>
      <trkpt lat="48.63283" lon="-3.32913">
        <ele>114</ele>
        <time>2015-01-25T08:37:50Z</time>
      </trkpt>
      <trkpt lat="48.6328" lon="-3.32902">
        <ele>114</ele>
        <time>2015-01-25T08:37:51Z</time>
      </trkpt>
      <trkpt lat="48.63278" lon="-3.32891">
        <ele>114</ele>
        <time>2015-01-25T08:37:52Z</time>
      </trkpt>
      <trkpt lat="48.63275" lon="-3.3288">
        <ele>114</ele>
        <time>2015-01-25T08:37:53Z</time>
      </trkpt>
      <trkpt lat="48.63273" lon="-3.32868">
        <ele>114</ele>
        <time>2015-01-25T08:37:54Z</time>
      </trkpt>
      <trkpt lat="48.63271" lon="-3.32856">
        <ele>114</ele>
        <time>2015-01-25T08:37:55Z</time>
      </trkpt>
      <trkpt lat="48.63269" lon="-3.32845">
        <ele>114</ele>
        <time>2015-01-25T08:37:56Z</time>
      </trkpt>
      <trkpt lat="48.63267" lon="-3.32833">
        <ele>114</ele>
        <time>2015-01-25T08:37:57Z</time>
      </trkpt>
      <trkpt lat="48.63266" lon="-3.32821">
        <ele>114</ele>
        <time>2015-01-25T08:37:58Z</time>
      </trkpt>
      <trkpt lat="48.63266" lon="-3.32809">
        <ele>114</ele>
        <time>2015-01-25T08:37:59Z</time>
      </trkpt>
      <trkpt lat="48.63265" lon="-3.32797">
        <ele>114</ele>
        <time>2015-01-25T08:38:00Z</time>
      </trkpt>
      <trkpt lat="48.63264" lon="-3.32785">
        <ele>114</ele>
        <time>2015-01-25T08:38:01Z</time>
      </trkpt>
      <trkpt lat="48.63264" lon="-3.32773">
        <ele>114</ele>
        <time>2015-01-25T08:38:02Z</time>
      </trkpt>
      <trkpt lat="48.63263" lon="-3.32761">
        <ele>114</ele>
        <time>2015-01-25T08:38:03Z</time>
      </trkpt>
      <trkpt lat="48.63263" lon="-3.32749">
        <ele>114</ele>
        <time>2015-01-25T08:38:04Z</time>
      </trkpt>
      <trkpt lat="48.63263" lon="-3.32738">
        <ele>114</ele>
        <time>2015-01-25T08:38:05Z</time>
      </trkpt>
      <trkpt lat="48.63262" lon="-3.32726">
        <ele>114</ele>
        <time>2015-01-25T08:38:06Z</time>
      </trkpt>
      <trkpt lat="48.63261" lon="-3.32714">
        <ele>114</ele>
        <time>2015-01-25T08:38:07Z</time>
      </trkpt>
      <trkpt lat="48.63261" lon="-3.32702">
        <ele>114</ele>
        <time>2015-01-25T08:38:08Z</time>
      </trkpt>
      <trkpt lat="48.6326" lon="-3.3269">
        <ele>114</ele>
        <time>2015-01-25T08:38:09Z</time>
      </trkpt>
      <trkpt lat="48.63259" lon="-3.32679">
        <ele>114</ele>
        <time>2015-01-25T08:38:10Z</time>
      </trkpt>
      <trkpt lat="48.63258" lon="-3.32667">
        <ele>114</ele>
        <time>2015-01-25T08:38:11Z</time>
      </trkpt>
      <trkpt lat="48.63256" lon="-3.32655">
        <ele>114</ele>
        <time>2015-01-25T08:38:12Z</time>
      </trkpt>
      <trkpt lat="48.63255" lon="-3.32644">
        <ele>114</ele>
        <time>2015-01-25T08:38:13Z</time>
      </trkpt>
      <trkpt lat="48.63254" lon="-3.32632">
        <ele>114</ele>
        <time>2015-01-25T08:38:14Z</time>
      </trkpt>
      <trkpt lat="48.63253" lon="-3.32621">
        <ele>114</ele>
        <time>2015-01-25T08:38:15Z</time>
      </trkpt>
      <trkpt lat="48.63252" lon="-3.32611">
        <ele>114</ele>
        <time>2015-01-25T08:38:16Z</time>
      </trkpt>
      <trkpt lat="48.63251" lon="-3.326">
        <ele>114</ele>
        <time>2015-01-25T08:38:17Z</time>
      </trkpt>
      <trkpt lat="48.6325" lon="-3.3259">
        <ele>114</ele>
        <time>2015-01-25T08:38:18Z</time>
      </trkpt>
      <trkpt lat="48.63249" lon="-3.32579">
        <ele>114</ele>
        <time>2015-01-25T08:38:19Z</time>
      </trkpt>
      <trkpt lat="48.63248" lon="-3.32569">
        <ele>114</ele>
        <time>2015-01-25T08:38:20Z</time>
      </trkpt>
      <trkpt lat="48.63247" lon="-3.32558">
        <ele>114</ele>
        <time>2015-01-25T08:38:21Z</time>
      </trkpt>
      <trkpt lat="48.63246" lon="-3.32547">
        <ele>114</ele>
        <time>2015-01-25T08:38:22Z</time>
      </trkpt>
      <trkpt lat="48.63245" lon="-3.32536">
        <ele>114</ele>
        <time>2015-01-25T08:38:23Z</time>
      </trkpt>
      <trkpt lat="48.63244" lon="-3.32524">
        <ele>114</ele>
        <time>2015-01-25T08:38:24Z</time>
      </trkpt>
      <trkpt lat="48.63243" lon="-3.32513">
        <ele>114</ele>
        <time>2015-01-25T08:38:25Z</time>
      </trkpt>
      <trkpt lat="48.63242" lon="-3.32501">
        <ele>114</ele>
        <time>2015-01-25T08:38:26Z</time>
      </trkpt>
      <trkpt lat="48.6324" lon="-3.32489">
        <ele>114</ele>
        <time>2015-01-25T08:38:27Z</time>
      </trkpt>
      <trkpt lat="48.63239" lon="-3.32478">
        <ele>114</ele>
        <time>2015-01-25T08:38:28Z</time>
      </trkpt>
      <trkpt lat="48.63238" lon="-3.32466">
        <ele>114</ele>
        <time>2015-01-25T08:38:29Z</time>
      </trkpt>
      <trkpt lat="48.63236" lon="-3.32453">
        <ele>114</ele>
        <time>2015-01-25T08:38:30Z</time>
      </trkpt>
      <trkpt lat="48.63234" lon="-3.32442">
        <ele>114</ele>
        <time>2015-01-25T08:38:31Z</time>
      </trkpt>
      <trkpt lat="48.63232" lon="-3.3243">
        <ele>114</ele>
        <time>2015-01-25T08:38:32Z</time>
      </trkpt>
      <trkpt lat="48.6323" lon="-3.32418">
        <ele>114</ele>
        <time>2015-01-25T08:38:33Z</time>
      </trkpt>
      <trkpt lat="48.63228" lon="-3.32406">
        <ele>114</ele>
        <time>2015-01-25T08:38:34Z</time>
      </trkpt>
      <trkpt lat="48.63225" lon="-3.32395">
        <ele>114</ele>
        <time>2015-01-25T08:38:35Z</time>
      </trkpt>
      <trkpt lat="48.63222" lon="-3.32383">
        <ele>114</ele>
        <time>2015-01-25T08:38:36Z</time>
      </trkpt>
      <trkpt lat="48.6322" lon="-3.32372">
        <ele>114</ele>
        <time>2015-01-25T08:38:37Z</time>
      </trkpt>
      <trkpt lat="48.63217" lon="-3.32361">
        <ele>114</ele>
        <time>2015-01-25T08:38:38Z</time>
      </trkpt>
      <trkpt lat="48.63215" lon="-3.32349">
        <ele>114</ele>
        <time>2015-01-25T08:38:39Z</time>
      </trkpt>
      <trkpt lat="48.63213" lon="-3.32338">
        <ele>114</ele>
        <time>2015-01-25T08:38:40Z</time>
      </trkpt>
      <trkpt lat="48.63211" lon="-3.32327">
        <ele>114</ele>
        <time>2015-01-25T08:38:41Z</time>
      </trkpt>
      <trkpt lat="48.63209" lon="-3.32316">
        <ele>114</ele>
        <time>2015-01-25T08:38:42Z</time>
      </trkpt>
      <trkpt lat="48.63208" lon="-3.32305">
        <ele>114</ele>
        <time>2015-01-25T08:38:43Z</time>
      </trkpt>
      <trkpt lat="48.63208" lon="-3.32293">
        <ele>114</ele>
        <time>2015-01-25T08:38:44Z</time>
      </trkpt>
      <trkpt lat="48.63209" lon="-3.3227">
        <ele>114</ele>
        <time>2015-01-25T08:38:46Z</time>
      </trkpt>
      <trkpt lat="48.6321" lon="-3.32259">
        <ele>114</ele>
        <time>2015-01-25T08:38:47Z</time>
      </trkpt>
      <trkpt lat="48.63211" lon="-3.32248">
        <ele>114</ele>
        <time>2015-01-25T08:38:48Z</time>
      </trkpt>
      <trkpt lat="48.63213" lon="-3.32237">
        <ele>114</ele>
        <time>2015-01-25T08:38:49Z</time>
      </trkpt>
      <trkpt lat="48.63215" lon="-3.32226">
        <ele>114</ele>
        <time>2015-01-25T08:38:50Z</time>
      </trkpt>
      <trkpt lat="48.63217" lon="-3.32215">
        <ele>114</ele>
        <time>2015-01-25T08:38:51Z</time>
      </trkpt>
      <trkpt lat="48.63219" lon="-3.32204">
        <ele>114</ele>
        <time>2015-01-25T08:38:52Z</time>
      </trkpt>
      <trkpt lat="48.63221" lon="-3.32193">
        <ele>114</ele>
        <time>2015-01-25T08:38:53Z</time>
      </trkpt>
      <trkpt lat="48.63223" lon="-3.32182">
        <ele>114</ele>
        <time>2015-01-25T08:38:54Z</time>
      </trkpt>
      <trkpt lat="48.63225" lon="-3.32172">
        <ele>114</ele>
        <time>2015-01-25T08:38:55Z</time>
      </trkpt>
      <trkpt lat="48.63228" lon="-3.32162">
        <ele>114</ele>
        <time>2015-01-25T08:38:56Z</time>
      </trkpt>
      <trkpt lat="48.63231" lon="-3.32152">
        <ele>114</ele>
        <time>2015-01-25T08:38:57Z</time>
      </trkpt>
      <trkpt lat="48.63235" lon="-3.32143">
        <ele>114</ele>
        <time>2015-01-25T08:38:58Z</time>
      </trkpt>
      <trkpt lat="48.63239" lon="-3.32134">
        <ele>114</ele>
        <time>2015-01-25T08:38:59Z</time>
      </trkpt>
      <trkpt lat="48.63244" lon="-3.32126">
        <ele>114</ele>
        <time>2015-01-25T08:39:00Z</time>
      </trkpt>
      <trkpt lat="48.6325" lon="-3.32118">
        <ele>114</ele>
        <time>2015-01-25T08:39:01Z</time>
      </trkpt>
      <trkpt lat="48.63255" lon="-3.32111">
        <ele>114</ele>
        <time>2015-01-25T08:39:02Z</time>
      </trkpt>
      <trkpt lat="48.63261" lon="-3.32104">
        <ele>114</ele>
        <time>2015-01-25T08:39:03Z</time>
      </trkpt>
      <trkpt lat="48.63268" lon="-3.32098">
        <ele>114</ele>
        <time>2015-01-25T08:39:04Z</time>
      </trkpt>
      <trkpt lat="48.63274" lon="-3.32091">
        <ele>114</ele>
        <time>2015-01-25T08:39:05Z</time>
      </trkpt>
      <trkpt lat="48.63281" lon="-3.32085">
        <ele>114</ele>
        <time>2015-01-25T08:39:06Z</time>
      </trkpt>
      <trkpt lat="48.63288" lon="-3.32078">
        <ele>114</ele>
        <time>2015-01-25T08:39:07Z</time>
      </trkpt>
      <trkpt lat="48.63295" lon="-3.32072">
        <ele>114</ele>
        <time>2015-01-25T08:39:08Z</time>
      </trkpt>
      <trkpt lat="48.63301" lon="-3.32066">
        <ele>114</ele>
        <time>2015-01-25T08:39:09Z</time>
      </trkpt>
      <trkpt lat="48.63309" lon="-3.32061">
        <ele>114</ele>
        <time>2015-01-25T08:39:10Z</time>
      </trkpt>
      <trkpt lat="48.63316" lon="-3.32056">
        <ele>114</ele>
        <time>2015-01-25T08:39:11Z</time>
      </trkpt>
      <trkpt lat="48.63323" lon="-3.32051">
        <ele>114</ele>
        <time>2015-01-25T08:39:12Z</time>
      </trkpt>
      <trkpt lat="48.6333" lon="-3.32047">
        <ele>114</ele>
        <time>2015-01-25T08:39:13Z</time>
      </trkpt>
      <trkpt lat="48.63338" lon="-3.32042">
        <ele>114</ele>
        <time>2015-01-25T08:39:14Z</time>
      </trkpt>
      <trkpt lat="48.63345" lon="-3.32037">
        <ele>114</ele>
        <time>2015-01-25T08:39:15Z</time>
      </trkpt>
      <trkpt lat="48.63353" lon="-3.32032">
        <ele>114</ele>
        <time>2015-01-25T08:39:16Z</time>
      </trkpt>
      <trkpt lat="48.6336" lon="-3.32026">
        <ele>114</ele>
        <time>2015-01-25T08:39:17Z</time>
      </trkpt>
      <trkpt lat="48.63367" lon="-3.3202">
        <ele>114</ele>
        <time>2015-01-25T08:39:18Z</time>
      </trkpt>
      <trkpt lat="48.63375" lon="-3.32013">
        <ele>114</ele>
        <time>2015-01-25T08:39:19Z</time>
      </trkpt>
      <trkpt lat="48.63382" lon="-3.32004">
        <ele>114</ele>
        <time>2015-01-25T08:39:20Z</time>
      </trkpt>
      <trkpt lat="48.63388" lon="-3.31996">
        <ele>114</ele>
        <time>2015-01-25T08:39:21Z</time>
      </trkpt>
      <trkpt lat="48.63395" lon="-3.31986">
        <ele>114</ele>
        <time>2015-01-25T08:39:22Z</time>
      </trkpt>
      <trkpt lat="48.63401" lon="-3.31976">
        <ele>114</ele>
        <time>2015-01-25T08:39:23Z</time>
      </trkpt>
      <trkpt lat="48.63406" lon="-3.31964">
        <ele>114</ele>
        <time>2015-01-25T08:39:24Z</time>
      </trkpt>
      <trkpt lat="48.63411" lon="-3.31953">
        <ele>114</ele>
        <time>2015-01-25T08:39:25Z</time>
      </trkpt>
      <trkpt lat="48.63415" lon="-3.31941">
        <ele>114</ele>
        <time>2015-01-25T08:39:26Z</time>
      </trkpt>
      <trkpt lat="48.63419" lon="-3.31928">
        <ele>114</ele>
        <time>2015-01-25T08:39:27Z</time>
      </trkpt>
      <trkpt lat="48.63422" lon="-3.31916">
        <ele>114</ele>
        <time>2015-01-25T08:39:28Z</time>
      </trkpt>
      <trkpt lat="48.63425" lon="-3.31904">
        <ele>114</ele>
        <time>2015-01-25T08:39:29Z</time>
      </trkpt>
      <trkpt lat="48.63427" lon="-3.31891">
        <ele>114</ele>
        <time>2015-01-25T08:39:30Z</time>
      </trkpt>
      <trkpt lat="48.63429" lon="-3.3188">
        <ele>114</ele>
        <time>2015-01-25T08:39:31Z</time>
      </trkpt>
      <trkpt lat="48.6343" lon="-3.31868">
        <ele>114</ele>
        <time>2015-01-25T08:39:32Z</time>
      </trkpt>
      <trkpt lat="48.6343" lon="-3.31856">
        <ele>114</ele>
        <time>2015-01-25T08:39:33Z</time>
      </trkpt>
      <trkpt lat="48.6343" lon="-3.31845">
        <ele>114</ele>
        <time>2015-01-25T08:39:34Z</time>
      </trkpt>
      <trkpt lat="48.6343" lon="-3.31833">
        <ele>114</ele>
        <time>2015-01-25T08:39:35Z</time>
      </trkpt>
      <trkpt lat="48.63429" lon="-3.31822">
        <ele>114</ele>
        <time>2015-01-25T08:39:36Z</time>
      </trkpt>
      <trkpt lat="48.63427" lon="-3.31811">
        <ele>114</ele>
        <time>2015-01-25T08:39:37Z</time>
      </trkpt>
      <trkpt lat="48.63425" lon="-3.31799">
        <ele>114</ele>
        <time>2015-01-25T08:39:38Z</time>
      </trkpt>
      <trkpt lat="48.63422" lon="-3.31788">
        <ele>114</ele>
        <time>2015-01-25T08:39:39Z</time>
      </trkpt>
      <trkpt lat="48.63419" lon="-3.31777">
        <ele>114</ele>
        <time>2015-01-25T08:39:40Z</time>
      </trkpt>
      <trkpt lat="48.63416" lon="-3.31766">
        <ele>114</ele>
        <time>2015-01-25T08:39:41Z</time>
      </trkpt>
      <trkpt lat="48.63412" lon="-3.31755">
        <ele>114</ele>
        <time>2015-01-25T08:39:42Z</time>
      </trkpt>
      <trkpt lat="48.63408" lon="-3.31744">
        <ele>114</ele>
        <time>2015-01-25T08:39:43Z</time>
      </trkpt>
      <trkpt lat="48.63403" lon="-3.31733">
        <ele>114</ele>
        <time>2015-01-25T08:39:44Z</time>
      </trkpt>
      <trkpt lat="48.63398" lon="-3.31723">
        <ele>114</ele>
        <time>2015-01-25T08:39:45Z</time>
      </trkpt>
      <trkpt lat="48.63392" lon="-3.31713">
        <ele>114</ele>
        <time>2015-01-25T08:39:46Z</time>
      </trkpt>
      <trkpt lat="48.63387" lon="-3.31704">
        <ele>114</ele>
        <time>2015-01-25T08:39:47Z</time>
      </trkpt>
      <trkpt lat="48.63381" lon="-3.31695">
        <ele>114</ele>
        <time>2015-01-25T08:39:48Z</time>
      </trkpt>
      <trkpt lat="48.63375" lon="-3.31687">
        <ele>114</ele>
        <time>2015-01-25T08:39:49Z</time>
      </trkpt>
      <trkpt lat="48.6337" lon="-3.31678">
        <ele>114</ele>
        <time>2015-01-25T08:39:50Z</time>
      </trkpt>
      <trkpt lat="48.63365" lon="-3.3167">
        <ele>114</ele>
        <time>2015-01-25T08:39:51Z</time>
      </trkpt>
      <trkpt lat="48.6336" lon="-3.31663">
        <ele>114</ele>
        <time>2015-01-25T08:39:52Z</time>
      </trkpt>
      <trkpt lat="48.63355" lon="-3.31655">
        <ele>114</ele>
        <time>2015-01-25T08:39:53Z</time>
      </trkpt>
      <trkpt lat="48.6335" lon="-3.31647">
        <ele>114</ele>
        <time>2015-01-25T08:39:54Z</time>
      </trkpt>
      <trkpt lat="48.63345" lon="-3.31639">
        <ele>114</ele>
        <time>2015-01-25T08:39:55Z</time>
      </trkpt>
      <trkpt lat="48.63339" lon="-3.31631">
        <ele>114</ele>
        <time>2015-01-25T08:39:56Z</time>
      </trkpt>
      <trkpt lat="48.63334" lon="-3.31624">
        <ele>114</ele>
        <time>2015-01-25T08:39:57Z</time>
      </trkpt>
      <trkpt lat="48.63329" lon="-3.31616">
        <ele>114</ele>
        <time>2015-01-25T08:39:58Z</time>
      </trkpt>
      <trkpt lat="48.63324" lon="-3.31608">
        <ele>114</ele>
        <time>2015-01-25T08:39:59Z</time>
      </trkpt>
      <trkpt lat="48.63319" lon="-3.31601">
        <ele>114</ele>
        <time>2015-01-25T08:40:00Z</time>
      </trkpt>
      <trkpt lat="48.63314" lon="-3.31593">
        <ele>114</ele>
        <time>2015-01-25T08:40:01Z</time>
      </trkpt>
      <trkpt lat="48.63309" lon="-3.31586">
        <ele>114</ele>
        <time>2015-01-25T08:40:02Z</time>
      </trkpt>
      <trkpt lat="48.63303" lon="-3.31579">
        <ele>114</ele>
        <time>2015-01-25T08:40:03Z</time>
      </trkpt>
      <trkpt lat="48.63298" lon="-3.31572">
        <ele>114</ele>
        <time>2015-01-25T08:40:04Z</time>
      </trkpt>
      <trkpt lat="48.63292" lon="-3.31565">
        <ele>114</ele>
        <time>2015-01-25T08:40:05Z</time>
      </trkpt>
      <trkpt lat="48.63287" lon="-3.31558">
        <ele>114</ele>
        <time>2015-01-25T08:40:06Z</time>
      </trkpt>
      <trkpt lat="48.63281" lon="-3.31551">
        <ele>114</ele>
        <time>2015-01-25T08:40:07Z</time>
      </trkpt>
      <trkpt lat="48.63275" lon="-3.31544">
        <ele>114</ele>
        <time>2015-01-25T08:40:08Z</time>
      </trkpt>
      <trkpt lat="48.63269" lon="-3.31536">
        <ele>114</ele>
        <time>2015-01-25T08:40:09Z</time>
      </trkpt>
      <trkpt lat="48.63263" lon="-3.31529">
        <ele>114</ele>
        <time>2015-01-25T08:40:10Z</time>
      </trkpt>
      <trkpt lat="48.63257" lon="-3.31522">
        <ele>114</ele>
        <time>2015-01-25T08:40:11Z</time>
      </trkpt>
      <trkpt lat="48.63252" lon="-3.31515">
        <ele>114</ele>
        <time>2015-01-25T08:40:12Z</time>
      </trkpt>
      <trkpt lat="48.63246" lon="-3.31508">
        <ele>114</ele>
        <time>2015-01-25T08:40:13Z</time>
      </trkpt>
      <trkpt lat="48.6324" lon="-3.31502">
        <ele>114</ele>
        <time>2015-01-25T08:40:14Z</time>
      </trkpt>
      <trkpt lat="48.63234" lon="-3.31495">
        <ele>114</ele>
        <time>2015-01-25T08:40:15Z</time>
      </trkpt>
      <trkpt lat="48.63229" lon="-3.31488">
        <ele>114</ele>
        <time>2015-01-25T08:40:16Z</time>
      </trkpt>
      <trkpt lat="48.63223" lon="-3.31482">
        <ele>114</ele>
        <time>2015-01-25T08:40:17Z</time>
      </trkpt>
      <trkpt lat="48.63217" lon="-3.31476">
        <ele>114</ele>
        <time>2015-01-25T08:40:18Z</time>
      </trkpt>
      <trkpt lat="48.63211" lon="-3.31469">
        <ele>114</ele>
        <time>2015-01-25T08:40:19Z</time>
      </trkpt>
      <trkpt lat="48.63205" lon="-3.31463">
        <ele>114</ele>
        <time>2015-01-25T08:40:20Z</time>
      </trkpt>
      <trkpt lat="48.632" lon="-3.31457">
        <ele>114</ele>
        <time>2015-01-25T08:40:21Z</time>
      </trkpt>
      <trkpt lat="48.63194" lon="-3.31451">
        <ele>114</ele>
        <time>2015-01-25T08:40:22Z</time>
      </trkpt>
      <trkpt lat="48.63189" lon="-3.31445">
        <ele>114</ele>
        <time>2015-01-25T08:40:23Z</time>
      </trkpt>
      <trkpt lat="48.63184" lon="-3.31439">
        <ele>114</ele>
        <time>2015-01-25T08:40:24Z</time>
      </trkpt>
      <trkpt lat="48.63179" lon="-3.31433">
        <ele>114</ele>
        <time>2015-01-25T08:40:25Z</time>
      </trkpt>
      <trkpt lat="48.63174" lon="-3.31427">
        <ele>114</ele>
        <time>2015-01-25T08:40:26Z</time>
      </trkpt>
      <trkpt lat="48.63169" lon="-3.31421">
        <ele>114</ele>
        <time>2015-01-25T08:40:27Z</time>
      </trkpt>
      <trkpt lat="48.63164" lon="-3.31416">
        <ele>114</ele>
        <time>2015-01-25T08:40:28Z</time>
      </trkpt>
      <trkpt lat="48.63159" lon="-3.3141">
        <ele>114</ele>
        <time>2015-01-25T08:40:29Z</time>
      </trkpt>
      <trkpt lat="48.63154" lon="-3.31404">
        <ele>114</ele>
        <time>2015-01-25T08:40:30Z</time>
      </trkpt>
      <trkpt lat="48.63149" lon="-3.31397">
        <ele>114</ele>
        <time>2015-01-25T08:40:31Z</time>
      </trkpt>
      <trkpt lat="48.63144" lon="-3.3139">
        <ele>114</ele>
        <time>2015-01-25T08:40:32Z</time>
      </trkpt>
      <trkpt lat="48.63139" lon="-3.31383">
        <ele>114</ele>
        <time>2015-01-25T08:40:33Z</time>
      </trkpt>
      <trkpt lat="48.63134" lon="-3.31375">
        <ele>114</ele>
        <time>2015-01-25T08:40:34Z</time>
      </trkpt>
      <trkpt lat="48.63129" lon="-3.31367">
        <ele>114</ele>
        <time>2015-01-25T08:40:35Z</time>
      </trkpt>
      <trkpt lat="48.63125" lon="-3.31357">
        <ele>114</ele>
        <time>2015-01-25T08:40:36Z</time>
      </trkpt>
      <trkpt lat="48.63122" lon="-3.31347">
        <ele>114</ele>
        <time>2015-01-25T08:40:37Z</time>
      </trkpt>
      <trkpt lat="48.63119" lon="-3.31337">
        <ele>114</ele>
        <time>2015-01-25T08:40:38Z</time>
      </trkpt>
      <trkpt lat="48.63116" lon="-3.31326">
        <ele>114</ele>
        <time>2015-01-25T08:40:39Z</time>
      </trkpt>
      <trkpt lat="48.63114" lon="-3.31314">
        <ele>114</ele>
        <time>2015-01-25T08:40:40Z</time>
      </trkpt>
      <trkpt lat="48.63113" lon="-3.31303">
        <ele>114</ele>
        <time>2015-01-25T08:40:41Z</time>
      </trkpt>
      <trkpt lat="48.63111" lon="-3.31291">
        <ele>114</ele>
        <time>2015-01-25T08:40:42Z</time>
      </trkpt>
      <trkpt lat="48.6311" lon="-3.31279">
        <ele>114</ele>
        <time>2015-01-25T08:40:43Z</time>
      </trkpt>
      <trkpt lat="48.63108" lon="-3.31267">
        <ele>114</ele>
        <time>2015-01-25T08:40:44Z</time>
      </trkpt>
      <trkpt lat="48.63107" lon="-3.31256">
        <ele>114</ele>
        <time>2015-01-25T08:40:45Z</time>
      </trkpt>
      <trkpt lat="48.63105" lon="-3.31244">
        <ele>114</ele>
        <time>2015-01-25T08:40:46Z</time>
      </trkpt>
      <trkpt lat="48.63104" lon="-3.31232">
        <ele>114</ele>
        <time>2015-01-25T08:40:47Z</time>
      </trkpt>
      <trkpt lat="48.63103" lon="-3.3122">
        <ele>114</ele>
        <time>2015-01-25T08:40:48Z</time>
      </trkpt>
      <trkpt lat="48.63102" lon="-3.31207">
        <ele>114</ele>
        <time>2015-01-25T08:40:49Z</time>
      </trkpt>
      <trkpt lat="48.63101" lon="-3.31195">
        <ele>114</ele>
        <time>2015-01-25T08:40:50Z</time>
      </trkpt>
      <trkpt lat="48.63101" lon="-3.31183">
        <ele>114</ele>
        <time>2015-01-25T08:40:51Z</time>
      </trkpt>
      <trkpt lat="48.63101" lon="-3.31171">
        <ele>114</ele>
        <time>2015-01-25T08:40:52Z</time>
      </trkpt>
      <trkpt lat="48.63102" lon="-3.31159">
        <ele>114</ele>
        <time>2015-01-25T08:40:53Z</time>
      </trkpt>
      <trkpt lat="48.63104" lon="-3.31147">
        <ele>114</ele>
        <time>2015-01-25T08:40:54Z</time>
      </trkpt>
      <trkpt lat="48.63106" lon="-3.31136">
        <ele>114</ele>
        <time>2015-01-25T08:40:55Z</time>
      </trkpt>
      <trkpt lat="48.63108" lon="-3.31124">
        <ele>114</ele>
        <time>2015-01-25T08:40:56Z</time>
      </trkpt>
      <trkpt lat="48.63111" lon="-3.31114">
        <ele>114</ele>
        <time>2015-01-25T08:40:57Z</time>
      </trkpt>
      <trkpt lat="48.63115" lon="-3.31103">
        <ele>114</ele>
        <time>2015-01-25T08:40:58Z</time>
      </trkpt>
      <trkpt lat="48.63118" lon="-3.31093">
        <ele>114</ele>
        <time>2015-01-25T08:40:59Z</time>
      </trkpt>
      <trkpt lat="48.63121" lon="-3.31083">
        <ele>114</ele>
        <time>2015-01-25T08:41:00Z</time>
      </trkpt>
      <trkpt lat="48.63124" lon="-3.31073">
        <ele>114</ele>
        <time>2015-01-25T08:41:01Z</time>
      </trkpt>
      <trkpt lat="48.63127" lon="-3.31063">
        <ele>114</ele>
        <time>2015-01-25T08:41:02Z</time>
      </trkpt>
      <trkpt lat="48.6313" lon="-3.31053">
        <ele>114</ele>
        <time>2015-01-25T08:41:03Z</time>
      </trkpt>
      <trkpt lat="48.63134" lon="-3.31043">
        <ele>114</ele>
        <time>2015-01-25T08:41:04Z</time>
      </trkpt>
      <trkpt lat="48.63136" lon="-3.31034">
        <ele>114</ele>
        <time>2015-01-25T08:41:05Z</time>
      </trkpt>
      <trkpt lat="48.63139" lon="-3.31025">
        <ele>114</ele>
        <time>2015-01-25T08:41:06Z</time>
      </trkpt>
      <trkpt lat="48.63142" lon="-3.31016">
        <ele>114</ele>
        <time>2015-01-25T08:41:07Z</time>
      </trkpt>
      <trkpt lat="48.63145" lon="-3.31008">
        <ele>114</ele>
        <time>2015-01-25T08:41:08Z</time>
      </trkpt>
      <trkpt lat="48.63147" lon="-3.30999">
        <ele>114</ele>
        <time>2015-01-25T08:41:09Z</time>
      </trkpt>
      <trkpt lat="48.63148" lon="-3.30991">
        <ele>114</ele>
        <time>2015-01-25T08:41:10Z</time>
      </trkpt>
      <trkpt lat="48.63149" lon="-3.30983">
        <ele>115</ele>
        <time>2015-01-25T08:41:11Z</time>
      </trkpt>
      <trkpt lat="48.6315" lon="-3.30975">
        <ele>115</ele>
        <time>2015-01-25T08:41:12Z</time>
      </trkpt>
      <trkpt lat="48.63149" lon="-3.30967">
        <ele>115</ele>
        <time>2015-01-25T08:41:13Z</time>
      </trkpt>
      <trkpt lat="48.6315" lon="-3.3095">
        <ele>116</ele>
        <time>2015-01-25T08:41:15Z</time>
      </trkpt>
      <trkpt lat="48.6315" lon="-3.30925">
        <ele>116</ele>
        <time>2015-01-25T08:41:18Z</time>
      </trkpt>
      <trkpt lat="48.6315" lon="-3.30916">
        <ele>117</ele>
        <time>2015-01-25T08:41:19Z</time>
      </trkpt>
      <trkpt lat="48.63149" lon="-3.30898">
        <ele>117</ele>
        <time>2015-01-25T08:41:22Z</time>
      </trkpt>
      <trkpt lat="48.63148" lon="-3.3089">
        <ele>118</ele>
        <time>2015-01-25T08:41:22Z</time>
      </trkpt>
      <trkpt lat="48.63147" lon="-3.30872">
        <ele>119</ele>
        <time>2015-01-25T08:41:24Z</time>
      </trkpt>
      <trkpt lat="48.63147" lon="-3.30863">
        <ele>119</ele>
        <time>2015-01-25T08:41:25Z</time>
      </trkpt>
      <trkpt lat="48.63146" lon="-3.30854">
        <ele>119</ele>
        <time>2015-01-25T08:41:26Z</time>
      </trkpt>
      <trkpt lat="48.63145" lon="-3.30845">
        <ele>120</ele>
        <time>2015-01-25T08:41:27Z</time>
      </trkpt>
      <trkpt lat="48.63145" lon="-3.30836">
        <ele>120</ele>
        <time>2015-01-25T08:41:28Z</time>
      </trkpt>
      <trkpt lat="48.63144" lon="-3.30828">
        <ele>120</ele>
        <time>2015-01-25T08:41:29Z</time>
      </trkpt>
      <trkpt lat="48.63144" lon="-3.30819">
        <ele>120</ele>
        <time>2015-01-25T08:41:30Z</time>
      </trkpt>
      <trkpt lat="48.63143" lon="-3.3081">
        <ele>121</ele>
        <time>2015-01-25T08:41:31Z</time>
      </trkpt>
      <trkpt lat="48.63142" lon="-3.30801">
        <ele>121</ele>
        <time>2015-01-25T08:41:32Z</time>
      </trkpt>
      <trkpt lat="48.63142" lon="-3.30792">
        <ele>121</ele>
        <time>2015-01-25T08:41:33Z</time>
      </trkpt>
      <trkpt lat="48.63141" lon="-3.30783">
        <ele>121</ele>
        <time>2015-01-25T08:41:34Z</time>
      </trkpt>
      <trkpt lat="48.6314" lon="-3.30773">
        <ele>121</ele>
        <time>2015-01-25T08:41:35Z</time>
      </trkpt>
      <trkpt lat="48.6314" lon="-3.30764">
        <ele>122</ele>
        <time>2015-01-25T08:41:36Z</time>
      </trkpt>
      <trkpt lat="48.63139" lon="-3.30754">
        <ele>122</ele>
        <time>2015-01-25T08:41:37Z</time>
      </trkpt>
      <trkpt lat="48.63139" lon="-3.30745">
        <ele>122</ele>
        <time>2015-01-25T08:41:38Z</time>
      </trkpt>
      <trkpt lat="48.63138" lon="-3.30736">
        <ele>122</ele>
        <time>2015-01-25T08:41:39Z</time>
      </trkpt>
      <trkpt lat="48.63137" lon="-3.30726">
        <ele>123</ele>
        <time>2015-01-25T08:41:40Z</time>
      </trkpt>
      <trkpt lat="48.63137" lon="-3.30717">
        <ele>123</ele>
        <time>2015-01-25T08:41:41Z</time>
      </trkpt>
      <trkpt lat="48.63136" lon="-3.30707">
        <ele>123</ele>
        <time>2015-01-25T08:41:42Z</time>
      </trkpt>
      <trkpt lat="48.63136" lon="-3.30698">
        <ele>123</ele>
        <time>2015-01-25T08:41:43Z</time>
      </trkpt>
      <trkpt lat="48.63135" lon="-3.30688">
        <ele>124</ele>
        <time>2015-01-25T08:41:44Z</time>
      </trkpt>
      <trkpt lat="48.63134" lon="-3.30679">
        <ele>124</ele>
        <time>2015-01-25T08:41:45Z</time>
      </trkpt>
      <trkpt lat="48.63133" lon="-3.30669">
        <ele>124</ele>
        <time>2015-01-25T08:41:46Z</time>
      </trkpt>
      <trkpt lat="48.63133" lon="-3.3066">
        <ele>124</ele>
        <time>2015-01-25T08:41:47Z</time>
      </trkpt>
      <trkpt lat="48.63132" lon="-3.3065">
        <ele>124</ele>
        <time>2015-01-25T08:41:48Z</time>
      </trkpt>
      <trkpt lat="48.63131" lon="-3.30641">
        <ele>124</ele>
        <time>2015-01-25T08:41:49Z</time>
      </trkpt>
      <trkpt lat="48.63131" lon="-3.30632">
        <ele>124</ele>
        <time>2015-01-25T08:41:50Z</time>
      </trkpt>
      <trkpt lat="48.6313" lon="-3.30623">
        <ele>125</ele>
        <time>2015-01-25T08:41:51Z</time>
      </trkpt>
      <trkpt lat="48.63129" lon="-3.30613">
        <ele>125</ele>
        <time>2015-01-25T08:41:52Z</time>
      </trkpt>
      <trkpt lat="48.63129" lon="-3.30604">
        <ele>125</ele>
        <time>2015-01-25T08:41:53Z</time>
      </trkpt>
      <trkpt lat="48.63129" lon="-3.30594">
        <ele>125</ele>
        <time>2015-01-25T08:41:54Z</time>
      </trkpt>
      <trkpt lat="48.63128" lon="-3.30585">
        <ele>125</ele>
        <time>2015-01-25T08:41:55Z</time>
      </trkpt>
      <trkpt lat="48.63127" lon="-3.30575">
        <ele>125</ele>
        <time>2015-01-25T08:41:56Z</time>
      </trkpt>
      <trkpt lat="48.63127" lon="-3.30566">
        <ele>125</ele>
        <time>2015-01-25T08:41:57Z</time>
      </trkpt>
      <trkpt lat="48.63126" lon="-3.30556">
        <ele>125</ele>
        <time>2015-01-25T08:41:58Z</time>
      </trkpt>
      <trkpt lat="48.63125" lon="-3.30547">
        <ele>126</ele>
        <time>2015-01-25T08:41:59Z</time>
      </trkpt>
      <trkpt lat="48.63125" lon="-3.30537">
        <ele>126</ele>
        <time>2015-01-25T08:42:00Z</time>
      </trkpt>
      <trkpt lat="48.63124" lon="-3.30528">
        <ele>126</ele>
        <time>2015-01-25T08:42:01Z</time>
      </trkpt>
      <trkpt lat="48.63123" lon="-3.30519">
        <ele>126</ele>
        <time>2015-01-25T08:42:02Z</time>
      </trkpt>
      <trkpt lat="48.63123" lon="-3.30509">
        <ele>126</ele>
        <time>2015-01-25T08:42:03Z</time>
      </trkpt>
      <trkpt lat="48.63122" lon="-3.305">
        <ele>126</ele>
        <time>2015-01-25T08:42:04Z</time>
      </trkpt>
      <trkpt lat="48.63121" lon="-3.30491">
        <ele>126</ele>
        <time>2015-01-25T08:42:05Z</time>
      </trkpt>
      <trkpt lat="48.63121" lon="-3.30482">
        <ele>126</ele>
        <time>2015-01-25T08:42:06Z</time>
      </trkpt>
      <trkpt lat="48.6312" lon="-3.30473">
        <ele>126</ele>
        <time>2015-01-25T08:42:07Z</time>
      </trkpt>
      <trkpt lat="48.63119" lon="-3.30465">
        <ele>127</ele>
        <time>2015-01-25T08:42:08Z</time>
      </trkpt>
      <trkpt lat="48.63118" lon="-3.30456">
        <ele>127</ele>
        <time>2015-01-25T08:42:09Z</time>
      </trkpt>
      <trkpt lat="48.63118" lon="-3.30447">
        <ele>127</ele>
        <time>2015-01-25T08:42:10Z</time>
      </trkpt>
      <trkpt lat="48.63117" lon="-3.30438">
        <ele>127</ele>
        <time>2015-01-25T08:42:11Z</time>
      </trkpt>
      <trkpt lat="48.63116" lon="-3.3043">
        <ele>127</ele>
        <time>2015-01-25T08:42:12Z</time>
      </trkpt>
      <trkpt lat="48.63116" lon="-3.30421">
        <ele>127</ele>
        <time>2015-01-25T08:42:13Z</time>
      </trkpt>
      <trkpt lat="48.63115" lon="-3.30412">
        <ele>127</ele>
        <time>2015-01-25T08:42:14Z</time>
      </trkpt>
      <trkpt lat="48.63114" lon="-3.30403">
        <ele>127</ele>
        <time>2015-01-25T08:42:15Z</time>
      </trkpt>
      <trkpt lat="48.63113" lon="-3.30394">
        <ele>127</ele>
        <time>2015-01-25T08:42:16Z</time>
      </trkpt>
      <trkpt lat="48.63113" lon="-3.30385">
        <ele>127</ele>
        <time>2015-01-25T08:42:17Z</time>
      </trkpt>
      <trkpt lat="48.63112" lon="-3.30368">
        <ele>128</ele>
        <time>2015-01-25T08:42:19Z</time>
      </trkpt>
      <trkpt lat="48.63112" lon="-3.3036">
        <ele>128</ele>
        <time>2015-01-25T08:42:20Z</time>
      </trkpt>
      <trkpt lat="48.63111" lon="-3.30351">
        <ele>128</ele>
        <time>2015-01-25T08:42:21Z</time>
      </trkpt>
      <trkpt lat="48.63111" lon="-3.30343">
        <ele>128</ele>
        <time>2015-01-25T08:42:22Z</time>
      </trkpt>
      <trkpt lat="48.6311" lon="-3.30335">
        <ele>128</ele>
        <time>2015-01-25T08:42:23Z</time>
      </trkpt>
      <trkpt lat="48.6311" lon="-3.30327">
        <ele>128</ele>
        <time>2015-01-25T08:42:24Z</time>
      </trkpt>
      <trkpt lat="48.63109" lon="-3.30319">
        <ele>129</ele>
        <time>2015-01-25T08:42:25Z</time>
      </trkpt>
      <trkpt lat="48.63108" lon="-3.3031">
        <ele>129</ele>
        <time>2015-01-25T08:42:26Z</time>
      </trkpt>
      <trkpt lat="48.63108" lon="-3.30301">
        <ele>129</ele>
        <time>2015-01-25T08:42:27Z</time>
      </trkpt>
      <trkpt lat="48.63107" lon="-3.30292">
        <ele>129</ele>
        <time>2015-01-25T08:42:28Z</time>
      </trkpt>
      <trkpt lat="48.63106" lon="-3.30284">
        <ele>129</ele>
        <time>2015-01-25T08:42:29Z</time>
      </trkpt>
      <trkpt lat="48.63105" lon="-3.30275">
        <ele>129</ele>
        <time>2015-01-25T08:42:30Z</time>
      </trkpt>
      <trkpt lat="48.63105" lon="-3.30266">
        <ele>129</ele>
        <time>2015-01-25T08:42:31Z</time>
      </trkpt>
      <trkpt lat="48.63104" lon="-3.30257">
        <ele>129</ele>
        <time>2015-01-25T08:42:32Z</time>
      </trkpt>
      <trkpt lat="48.63103" lon="-3.30248">
        <ele>130</ele>
        <time>2015-01-25T08:42:33Z</time>
      </trkpt>
      <trkpt lat="48.63102" lon="-3.30238">
        <ele>130</ele>
        <time>2015-01-25T08:42:34Z</time>
      </trkpt>
      <trkpt lat="48.63102" lon="-3.30229">
        <ele>130</ele>
        <time>2015-01-25T08:42:35Z</time>
      </trkpt>
      <trkpt lat="48.63101" lon="-3.3022">
        <ele>130</ele>
        <time>2015-01-25T08:42:36Z</time>
      </trkpt>
      <trkpt lat="48.631" lon="-3.3021">
        <ele>130</ele>
        <time>2015-01-25T08:42:37Z</time>
      </trkpt>
      <trkpt lat="48.63099" lon="-3.30201">
        <ele>130</ele>
        <time>2015-01-25T08:42:38Z</time>
      </trkpt>
      <trkpt lat="48.63098" lon="-3.30191">
        <ele>130</ele>
        <time>2015-01-25T08:42:39Z</time>
      </trkpt>
      <trkpt lat="48.63098" lon="-3.30181">
        <ele>130</ele>
        <time>2015-01-25T08:42:40Z</time>
      </trkpt>
      <trkpt lat="48.63097" lon="-3.30172">
        <ele>130</ele>
        <time>2015-01-25T08:42:41Z</time>
      </trkpt>
      <trkpt lat="48.63097" lon="-3.30162">
        <ele>131</ele>
        <time>2015-01-25T08:42:42Z</time>
      </trkpt>
      <trkpt lat="48.63096" lon="-3.30153">
        <ele>131</ele>
        <time>2015-01-25T08:42:43Z</time>
      </trkpt>
      <trkpt lat="48.63095" lon="-3.30143">
        <ele>131</ele>
        <time>2015-01-25T08:42:44Z</time>
      </trkpt>
      <trkpt lat="48.63094" lon="-3.30134">
        <ele>131</ele>
        <time>2015-01-25T08:42:45Z</time>
      </trkpt>
      <trkpt lat="48.63094" lon="-3.30124">
        <ele>131</ele>
        <time>2015-01-25T08:42:46Z</time>
      </trkpt>
      <trkpt lat="48.63093" lon="-3.30115">
        <ele>132</ele>
        <time>2015-01-25T08:42:47Z</time>
      </trkpt>
      <trkpt lat="48.63092" lon="-3.30106">
        <ele>132</ele>
        <time>2015-01-25T08:42:48Z</time>
      </trkpt>
      <trkpt lat="48.63091" lon="-3.30097">
        <ele>132</ele>
        <time>2015-01-25T08:42:49Z</time>
      </trkpt>
      <trkpt lat="48.63091" lon="-3.30088">
        <ele>132</ele>
        <time>2015-01-25T08:42:50Z</time>
      </trkpt>
      <trkpt lat="48.6309" lon="-3.30079">
        <ele>132</ele>
        <time>2015-01-25T08:42:51Z</time>
      </trkpt>
      <trkpt lat="48.63089" lon="-3.3007">
        <ele>132</ele>
        <time>2015-01-25T08:42:52Z</time>
      </trkpt>
      <trkpt lat="48.63088" lon="-3.30062">
        <ele>132</ele>
        <time>2015-01-25T08:42:53Z</time>
      </trkpt>
      <trkpt lat="48.63087" lon="-3.30054">
        <ele>133</ele>
        <time>2015-01-25T08:42:54Z</time>
      </trkpt>
      <trkpt lat="48.63087" lon="-3.30045">
        <ele>133</ele>
        <time>2015-01-25T08:42:55Z</time>
      </trkpt>
      <trkpt lat="48.63086" lon="-3.30037">
        <ele>133</ele>
        <time>2015-01-25T08:42:56Z</time>
      </trkpt>
      <trkpt lat="48.63086" lon="-3.3003">
        <ele>133</ele>
        <time>2015-01-25T08:42:57Z</time>
      </trkpt>
      <trkpt lat="48.63085" lon="-3.30022">
        <ele>133</ele>
        <time>2015-01-25T08:42:58Z</time>
      </trkpt>
      <trkpt lat="48.63084" lon="-3.30015">
        <ele>133</ele>
        <time>2015-01-25T08:42:59Z</time>
      </trkpt>
      <trkpt lat="48.63084" lon="-3.30009">
        <ele>133</ele>
        <time>2015-01-25T08:43:00Z</time>
      </trkpt>
      <trkpt lat="48.63083" lon="-3.30002">
        <ele>133</ele>
        <time>2015-01-25T08:43:01Z</time>
      </trkpt>
      <trkpt lat="48.63084" lon="-3.29989">
        <ele>134</ele>
        <time>2015-01-25T08:43:03Z</time>
      </trkpt>
      <trkpt lat="48.63087" lon="-3.29981">
        <ele>134</ele>
        <time>2015-01-25T08:43:04Z</time>
      </trkpt>
      <trkpt lat="48.6309" lon="-3.29974">
        <ele>134</ele>
        <time>2015-01-25T08:43:05Z</time>
      </trkpt>
      <trkpt lat="48.63095" lon="-3.29968">
        <ele>134</ele>
        <time>2015-01-25T08:43:06Z</time>
      </trkpt>
      <trkpt lat="48.631" lon="-3.29961">
        <ele>134</ele>
        <time>2015-01-25T08:43:07Z</time>
      </trkpt>
      <trkpt lat="48.63106" lon="-3.29955">
        <ele>134</ele>
        <time>2015-01-25T08:43:08Z</time>
      </trkpt>
      <trkpt lat="48.63112" lon="-3.29948">
        <ele>134</ele>
        <time>2015-01-25T08:43:09Z</time>
      </trkpt>
      <trkpt lat="48.63118" lon="-3.2994">
        <ele>134</ele>
        <time>2015-01-25T08:43:10Z</time>
      </trkpt>
      <trkpt lat="48.63125" lon="-3.29932">
        <ele>134</ele>
        <time>2015-01-25T08:43:11Z</time>
      </trkpt>
      <trkpt lat="48.63132" lon="-3.29924">
        <ele>134</ele>
        <time>2015-01-25T08:43:12Z</time>
      </trkpt>
      <trkpt lat="48.6314" lon="-3.29915">
        <ele>134</ele>
        <time>2015-01-25T08:43:13Z</time>
      </trkpt>
      <trkpt lat="48.63147" lon="-3.29907">
        <ele>134</ele>
        <time>2015-01-25T08:43:14Z</time>
      </trkpt>
      <trkpt lat="48.63155" lon="-3.29898">
        <ele>134</ele>
        <time>2015-01-25T08:43:15Z</time>
      </trkpt>
      <trkpt lat="48.63163" lon="-3.29888">
        <ele>134</ele>
        <time>2015-01-25T08:43:16Z</time>
      </trkpt>
      <trkpt lat="48.63172" lon="-3.29878">
        <ele>134</ele>
        <time>2015-01-25T08:43:17Z</time>
      </trkpt>
      <trkpt lat="48.6318" lon="-3.29868">
        <ele>133</ele>
        <time>2015-01-25T08:43:18Z</time>
      </trkpt>
      <trkpt lat="48.63189" lon="-3.29857">
        <ele>132</ele>
        <time>2015-01-25T08:43:19Z</time>
      </trkpt>
      <trkpt lat="48.63198" lon="-3.29846">
        <ele>132</ele>
        <time>2015-01-25T08:43:20Z</time>
      </trkpt>
      <trkpt lat="48.63208" lon="-3.29835">
        <ele>131</ele>
        <time>2015-01-25T08:43:21Z</time>
      </trkpt>
      <trkpt lat="48.63217" lon="-3.29824">
        <ele>130</ele>
        <time>2015-01-25T08:43:22Z</time>
      </trkpt>
      <trkpt lat="48.63227" lon="-3.29812">
        <ele>129</ele>
        <time>2015-01-25T08:43:23Z</time>
      </trkpt>
      <trkpt lat="48.63237" lon="-3.29801">
        <ele>129</ele>
        <time>2015-01-25T08:43:24Z</time>
      </trkpt>
      <trkpt lat="48.63246" lon="-3.2979">
        <ele>128</ele>
        <time>2015-01-25T08:43:25Z</time>
      </trkpt>
      <trkpt lat="48.63256" lon="-3.29779">
        <ele>127</ele>
        <time>2015-01-25T08:43:26Z</time>
      </trkpt>
      <trkpt lat="48.63266" lon="-3.29767">
        <ele>126</ele>
        <time>2015-01-25T08:43:27Z</time>
      </trkpt>
      <trkpt lat="48.63274" lon="-3.29753">
        <ele>125</ele>
        <time>2015-01-25T08:43:28Z</time>
      </trkpt>
      <trkpt lat="48.63282" lon="-3.29738">
        <ele>125</ele>
        <time>2015-01-25T08:43:29Z</time>
      </trkpt>
      <trkpt lat="48.63289" lon="-3.29721">
        <ele>124</ele>
        <time>2015-01-25T08:43:30Z</time>
      </trkpt>
      <trkpt lat="48.63294" lon="-3.29704">
        <ele>123</ele>
        <time>2015-01-25T08:43:31Z</time>
      </trkpt>
      <trkpt lat="48.633" lon="-3.29687">
        <ele>123</ele>
        <time>2015-01-25T08:43:32Z</time>
      </trkpt>
      <trkpt lat="48.63305" lon="-3.2967">
        <ele>122</ele>
        <time>2015-01-25T08:43:33Z</time>
      </trkpt>
      <trkpt lat="48.6331" lon="-3.29653">
        <ele>122</ele>
        <time>2015-01-25T08:43:34Z</time>
      </trkpt>
      <trkpt lat="48.63315" lon="-3.29636">
        <ele>122</ele>
        <time>2015-01-25T08:43:35Z</time>
      </trkpt>
      <trkpt lat="48.63321" lon="-3.29619">
        <ele>121</ele>
        <time>2015-01-25T08:43:36Z</time>
      </trkpt>
      <trkpt lat="48.63326" lon="-3.29602">
        <ele>121</ele>
        <time>2015-01-25T08:43:37Z</time>
      </trkpt>
      <trkpt lat="48.6333" lon="-3.29586">
        <ele>121</ele>
        <time>2015-01-25T08:43:38Z</time>
      </trkpt>
      <trkpt lat="48.63335" lon="-3.2957">
        <ele>121</ele>
        <time>2015-01-25T08:43:39Z</time>
      </trkpt>
      <trkpt lat="48.6334" lon="-3.29553">
        <ele>120</ele>
        <time>2015-01-25T08:43:40Z</time>
      </trkpt>
      <trkpt lat="48.63345" lon="-3.29538">
        <ele>120</ele>
        <time>2015-01-25T08:43:41Z</time>
      </trkpt>
      <trkpt lat="48.6335" lon="-3.29521">
        <ele>120</ele>
        <time>2015-01-25T08:43:42Z</time>
      </trkpt>
      <trkpt lat="48.63355" lon="-3.29506">
        <ele>120</ele>
        <time>2015-01-25T08:43:43Z</time>
      </trkpt>
      <trkpt lat="48.6336" lon="-3.29489">
        <ele>120</ele>
        <time>2015-01-25T08:43:44Z</time>
      </trkpt>
      <trkpt lat="48.63364" lon="-3.29474">
        <ele>119</ele>
        <time>2015-01-25T08:43:45Z</time>
      </trkpt>
      <trkpt lat="48.63369" lon="-3.29458">
        <ele>119</ele>
        <time>2015-01-25T08:43:46Z</time>
      </trkpt>
      <trkpt lat="48.63374" lon="-3.29442">
        <ele>119</ele>
        <time>2015-01-25T08:43:47Z</time>
      </trkpt>
      <trkpt lat="48.63378" lon="-3.29426">
        <ele>119</ele>
        <time>2015-01-25T08:43:48Z</time>
      </trkpt>
      <trkpt lat="48.63382" lon="-3.2941">
        <ele>118</ele>
        <time>2015-01-25T08:43:49Z</time>
      </trkpt>
      <trkpt lat="48.63387" lon="-3.29394">
        <ele>118</ele>
        <time>2015-01-25T08:43:50Z</time>
      </trkpt>
      <trkpt lat="48.63391" lon="-3.29378">
        <ele>118</ele>
        <time>2015-01-25T08:43:51Z</time>
      </trkpt>
      <trkpt lat="48.63396" lon="-3.29363">
        <ele>117</ele>
        <time>2015-01-25T08:43:52Z</time>
      </trkpt>
      <trkpt lat="48.634" lon="-3.29347">
        <ele>117</ele>
        <time>2015-01-25T08:43:53Z</time>
      </trkpt>
      <trkpt lat="48.63404" lon="-3.29333">
        <ele>117</ele>
        <time>2015-01-25T08:43:54Z</time>
      </trkpt>
      <trkpt lat="48.63409" lon="-3.29319">
        <ele>117</ele>
        <time>2015-01-25T08:43:55Z</time>
      </trkpt>
      <trkpt lat="48.63414" lon="-3.29304">
        <ele>116</ele>
        <time>2015-01-25T08:43:56Z</time>
      </trkpt>
      <trkpt lat="48.63418" lon="-3.2929">
        <ele>116</ele>
        <time>2015-01-25T08:43:57Z</time>
      </trkpt>
      <trkpt lat="48.63422" lon="-3.29276">
        <ele>116</ele>
        <time>2015-01-25T08:43:58Z</time>
      </trkpt>
      <trkpt lat="48.63427" lon="-3.29262">
        <ele>116</ele>
        <time>2015-01-25T08:43:59Z</time>
      </trkpt>
      <trkpt lat="48.63431" lon="-3.29248">
        <ele>116</ele>
        <time>2015-01-25T08:44:00Z</time>
      </trkpt>
      <trkpt lat="48.63435" lon="-3.29235">
        <ele>116</ele>
        <time>2015-01-25T08:44:01Z</time>
      </trkpt>
      <trkpt lat="48.63439" lon="-3.29221">
        <ele>116</ele>
        <time>2015-01-25T08:44:02Z</time>
      </trkpt>
      <trkpt lat="48.63443" lon="-3.29208">
        <ele>116</ele>
        <time>2015-01-25T08:44:03Z</time>
      </trkpt>
      <trkpt lat="48.63446" lon="-3.29195">
        <ele>116</ele>
        <time>2015-01-25T08:44:04Z</time>
      </trkpt>
      <trkpt lat="48.6345" lon="-3.29182">
        <ele>116</ele>
        <time>2015-01-25T08:44:05Z</time>
      </trkpt>
      <trkpt lat="48.63454" lon="-3.2917">
        <ele>116</ele>
        <time>2015-01-25T08:44:06Z</time>
      </trkpt>
      <trkpt lat="48.63457" lon="-3.29157">
        <ele>116</ele>
        <time>2015-01-25T08:44:07Z</time>
      </trkpt>
      <trkpt lat="48.63462" lon="-3.29145">
        <ele>116</ele>
        <time>2015-01-25T08:44:08Z</time>
      </trkpt>
      <trkpt lat="48.63466" lon="-3.29132">
        <ele>116</ele>
        <time>2015-01-25T08:44:09Z</time>
      </trkpt>
      <trkpt lat="48.6347" lon="-3.2912">
        <ele>116</ele>
        <time>2015-01-25T08:44:10Z</time>
      </trkpt>
      <trkpt lat="48.63475" lon="-3.29109">
        <ele>116</ele>
        <time>2015-01-25T08:44:11Z</time>
      </trkpt>
      <trkpt lat="48.63481" lon="-3.29099">
        <ele>116</ele>
        <time>2015-01-25T08:44:12Z</time>
      </trkpt>
      <trkpt lat="48.63488" lon="-3.29089">
        <ele>116</ele>
        <time>2015-01-25T08:44:13Z</time>
      </trkpt>
      <trkpt lat="48.63495" lon="-3.2908">
        <ele>116</ele>
        <time>2015-01-25T08:44:14Z</time>
      </trkpt>
      <trkpt lat="48.63503" lon="-3.29072">
        <ele>116</ele>
        <time>2015-01-25T08:44:15Z</time>
      </trkpt>
      <trkpt lat="48.63511" lon="-3.29064">
        <ele>116</ele>
        <time>2015-01-25T08:44:16Z</time>
      </trkpt>
      <trkpt lat="48.63518" lon="-3.29056">
        <ele>115</ele>
        <time>2015-01-25T08:44:17Z</time>
      </trkpt>
      <trkpt lat="48.63526" lon="-3.29048">
        <ele>115</ele>
        <time>2015-01-25T08:44:18Z</time>
      </trkpt>
      <trkpt lat="48.63534" lon="-3.2904">
        <ele>115</ele>
        <time>2015-01-25T08:44:19Z</time>
      </trkpt>
      <trkpt lat="48.63541" lon="-3.29032">
        <ele>115</ele>
        <time>2015-01-25T08:44:20Z</time>
      </trkpt>
      <trkpt lat="48.63549" lon="-3.29023">
        <ele>114</ele>
        <time>2015-01-25T08:44:21Z</time>
      </trkpt>
      <trkpt lat="48.63557" lon="-3.29015">
        <ele>114</ele>
        <time>2015-01-25T08:44:22Z</time>
      </trkpt>
      <trkpt lat="48.63565" lon="-3.29006">
        <ele>114</ele>
        <time>2015-01-25T08:44:23Z</time>
      </trkpt>
      <trkpt lat="48.63573" lon="-3.28997">
        <ele>114</ele>
        <time>2015-01-25T08:44:24Z</time>
      </trkpt>
      <trkpt lat="48.63582" lon="-3.28988">
        <ele>113</ele>
        <time>2015-01-25T08:44:25Z</time>
      </trkpt>
      <trkpt lat="48.6359" lon="-3.28979">
        <ele>113</ele>
        <time>2015-01-25T08:44:26Z</time>
      </trkpt>
      <trkpt lat="48.63598" lon="-3.2897">
        <ele>113</ele>
        <time>2015-01-25T08:44:27Z</time>
      </trkpt>
      <trkpt lat="48.63607" lon="-3.28961">
        <ele>112</ele>
        <time>2015-01-25T08:44:28Z</time>
      </trkpt>
      <trkpt lat="48.63615" lon="-3.28952">
        <ele>112</ele>
        <time>2015-01-25T08:44:29Z</time>
      </trkpt>
      <trkpt lat="48.63624" lon="-3.28943">
        <ele>112</ele>
        <time>2015-01-25T08:44:30Z</time>
      </trkpt>
      <trkpt lat="48.63632" lon="-3.28934">
        <ele>112</ele>
        <time>2015-01-25T08:44:31Z</time>
      </trkpt>
      <trkpt lat="48.63641" lon="-3.28925">
        <ele>111</ele>
        <time>2015-01-25T08:44:32Z</time>
      </trkpt>
      <trkpt lat="48.6365" lon="-3.28916">
        <ele>111</ele>
        <time>2015-01-25T08:44:33Z</time>
      </trkpt>
      <trkpt lat="48.63658" lon="-3.28906">
        <ele>111</ele>
        <time>2015-01-25T08:44:34Z</time>
      </trkpt>
      <trkpt lat="48.63667" lon="-3.28897">
        <ele>110</ele>
        <time>2015-01-25T08:44:35Z</time>
      </trkpt>
      <trkpt lat="48.63676" lon="-3.28888">
        <ele>110</ele>
        <time>2015-01-25T08:44:36Z</time>
      </trkpt>
      <trkpt lat="48.63684" lon="-3.28878">
        <ele>110</ele>
        <time>2015-01-25T08:44:37Z</time>
      </trkpt>
      <trkpt lat="48.63693" lon="-3.28869">
        <ele>110</ele>
        <time>2015-01-25T08:44:38Z</time>
      </trkpt>
      <trkpt lat="48.63702" lon="-3.28859">
        <ele>110</ele>
        <time>2015-01-25T08:44:39Z</time>
      </trkpt>
      <trkpt lat="48.63711" lon="-3.2885">
        <ele>109</ele>
        <time>2015-01-25T08:44:40Z</time>
      </trkpt>
      <trkpt lat="48.6372" lon="-3.2884">
        <ele>109</ele>
        <time>2015-01-25T08:44:41Z</time>
      </trkpt>
      <trkpt lat="48.6373" lon="-3.2883">
        <ele>109</ele>
        <time>2015-01-25T08:44:42Z</time>
      </trkpt>
      <trkpt lat="48.6374" lon="-3.28822">
        <ele>109</ele>
        <time>2015-01-25T08:44:43Z</time>
      </trkpt>
      <trkpt lat="48.6375" lon="-3.28815">
        <ele>108</ele>
        <time>2015-01-25T08:44:44Z</time>
      </trkpt>
      <trkpt lat="48.63762" lon="-3.28811">
        <ele>108</ele>
        <time>2015-01-25T08:44:45Z</time>
      </trkpt>
      <trkpt lat="48.63773" lon="-3.28807">
        <ele>108</ele>
        <time>2015-01-25T08:44:46Z</time>
      </trkpt>
      <trkpt lat="48.63785" lon="-3.28803">
        <ele>107</ele>
        <time>2015-01-25T08:44:47Z</time>
      </trkpt>
      <trkpt lat="48.63797" lon="-3.28798">
        <ele>107</ele>
        <time>2015-01-25T08:44:48Z</time>
      </trkpt>
      <trkpt lat="48.63808" lon="-3.28791">
        <ele>107</ele>
        <time>2015-01-25T08:44:49Z</time>
      </trkpt>
      <trkpt lat="48.6382" lon="-3.28782">
        <ele>106</ele>
        <time>2015-01-25T08:44:50Z</time>
      </trkpt>
      <trkpt lat="48.63831" lon="-3.28772">
        <ele>106</ele>
        <time>2015-01-25T08:44:51Z</time>
      </trkpt>
      <trkpt lat="48.63842" lon="-3.28762">
        <ele>106</ele>
        <time>2015-01-25T08:44:52Z</time>
      </trkpt>
      <trkpt lat="48.63852" lon="-3.28751">
        <ele>106</ele>
        <time>2015-01-25T08:44:53Z</time>
      </trkpt>
      <trkpt lat="48.63863" lon="-3.2874">
        <ele>106</ele>
        <time>2015-01-25T08:44:54Z</time>
      </trkpt>
      <trkpt lat="48.63874" lon="-3.28729">
        <ele>106</ele>
        <time>2015-01-25T08:44:55Z</time>
      </trkpt>
      <trkpt lat="48.63884" lon="-3.28719">
        <ele>106</ele>
        <time>2015-01-25T08:44:56Z</time>
      </trkpt>
      <trkpt lat="48.63895" lon="-3.28709">
        <ele>105</ele>
        <time>2015-01-25T08:44:57Z</time>
      </trkpt>
      <trkpt lat="48.63905" lon="-3.28699">
        <ele>105</ele>
        <time>2015-01-25T08:44:58Z</time>
      </trkpt>
      <trkpt lat="48.63914" lon="-3.28689">
        <ele>105</ele>
        <time>2015-01-25T08:44:59Z</time>
      </trkpt>
      <trkpt lat="48.63923" lon="-3.28679">
        <ele>105</ele>
        <time>2015-01-25T08:45:00Z</time>
      </trkpt>
      <trkpt lat="48.63932" lon="-3.2867">
        <ele>105</ele>
        <time>2015-01-25T08:45:01Z</time>
      </trkpt>
      <trkpt lat="48.6394" lon="-3.28661">
        <ele>105</ele>
        <time>2015-01-25T08:45:02Z</time>
      </trkpt>
      <trkpt lat="48.63948" lon="-3.28652">
        <ele>105</ele>
        <time>2015-01-25T08:45:03Z</time>
      </trkpt>
      <trkpt lat="48.63956" lon="-3.28642">
        <ele>105</ele>
        <time>2015-01-25T08:45:04Z</time>
      </trkpt>
      <trkpt lat="48.63963" lon="-3.28633">
        <ele>105</ele>
        <time>2015-01-25T08:45:05Z</time>
      </trkpt>
      <trkpt lat="48.6397" lon="-3.28623">
        <ele>105</ele>
        <time>2015-01-25T08:45:06Z</time>
      </trkpt>
      <trkpt lat="48.63977" lon="-3.28612">
        <ele>105</ele>
        <time>2015-01-25T08:45:07Z</time>
      </trkpt>
      <trkpt lat="48.63983" lon="-3.286">
        <ele>105</ele>
        <time>2015-01-25T08:45:08Z</time>
      </trkpt>
      <trkpt lat="48.63988" lon="-3.28588">
        <ele>105</ele>
        <time>2015-01-25T08:45:09Z</time>
      </trkpt>
      <trkpt lat="48.63993" lon="-3.28576">
        <ele>105</ele>
        <time>2015-01-25T08:45:10Z</time>
      </trkpt>
      <trkpt lat="48.63999" lon="-3.28564">
        <ele>105</ele>
        <time>2015-01-25T08:45:11Z</time>
      </trkpt>
      <trkpt lat="48.64005" lon="-3.28552">
        <ele>104</ele>
        <time>2015-01-25T08:45:12Z</time>
      </trkpt>
      <trkpt lat="48.64012" lon="-3.28541">
        <ele>104</ele>
        <time>2015-01-25T08:45:13Z</time>
      </trkpt>
      <trkpt lat="48.6402" lon="-3.28531">
        <ele>104</ele>
        <time>2015-01-25T08:45:14Z</time>
      </trkpt>
      <trkpt lat="48.64028" lon="-3.28523">
        <ele>104</ele>
        <time>2015-01-25T08:45:15Z</time>
      </trkpt>
      <trkpt lat="48.64038" lon="-3.28518">
        <ele>104</ele>
        <time>2015-01-25T08:45:16Z</time>
      </trkpt>
      <trkpt lat="48.64048" lon="-3.28515">
        <ele>104</ele>
        <time>2015-01-25T08:45:17Z</time>
      </trkpt>
      <trkpt lat="48.64058" lon="-3.28514">
        <ele>104</ele>
        <time>2015-01-25T08:45:18Z</time>
      </trkpt>
      <trkpt lat="48.64068" lon="-3.28516">
        <ele>104</ele>
        <time>2015-01-25T08:45:19Z</time>
      </trkpt>
      <trkpt lat="48.64078" lon="-3.2852">
        <ele>103</ele>
        <time>2015-01-25T08:45:20Z</time>
      </trkpt>
      <trkpt lat="48.64087" lon="-3.28525">
        <ele>103</ele>
        <time>2015-01-25T08:45:21Z</time>
      </trkpt>
      <trkpt lat="48.64096" lon="-3.2853">
        <ele>103</ele>
        <time>2015-01-25T08:45:22Z</time>
      </trkpt>
      <trkpt lat="48.64104" lon="-3.28535">
        <ele>103</ele>
        <time>2015-01-25T08:45:23Z</time>
      </trkpt>
      <trkpt lat="48.64112" lon="-3.2854">
        <ele>103</ele>
        <time>2015-01-25T08:45:24Z</time>
      </trkpt>
      <trkpt lat="48.6412" lon="-3.28545">
        <ele>103</ele>
        <time>2015-01-25T08:45:25Z</time>
      </trkpt>
      <trkpt lat="48.64128" lon="-3.2855">
        <ele>103</ele>
        <time>2015-01-25T08:45:26Z</time>
      </trkpt>
      <trkpt lat="48.64136" lon="-3.28555">
        <ele>103</ele>
        <time>2015-01-25T08:45:27Z</time>
      </trkpt>
      <trkpt lat="48.64144" lon="-3.2856">
        <ele>103</ele>
        <time>2015-01-25T08:45:28Z</time>
      </trkpt>
      <trkpt lat="48.64151" lon="-3.28564">
        <ele>103</ele>
        <time>2015-01-25T08:45:29Z</time>
      </trkpt>
      <trkpt lat="48.64159" lon="-3.28568">
        <ele>103</ele>
        <time>2015-01-25T08:45:30Z</time>
      </trkpt>
      <trkpt lat="48.64166" lon="-3.2857">
        <ele>103</ele>
        <time>2015-01-25T08:45:31Z</time>
      </trkpt>
      <trkpt lat="48.64174" lon="-3.28572">
        <ele>103</ele>
        <time>2015-01-25T08:45:32Z</time>
      </trkpt>
      <trkpt lat="48.64181" lon="-3.28573">
        <ele>103</ele>
        <time>2015-01-25T08:45:33Z</time>
      </trkpt>
      <trkpt lat="48.64188" lon="-3.28574">
        <ele>103</ele>
        <time>2015-01-25T08:45:34Z</time>
      </trkpt>
      <trkpt lat="48.64195" lon="-3.28574">
        <ele>103</ele>
        <time>2015-01-25T08:45:35Z</time>
      </trkpt>
      <trkpt lat="48.64201" lon="-3.28574">
        <ele>103</ele>
        <time>2015-01-25T08:45:36Z</time>
      </trkpt>
      <trkpt lat="48.64207" lon="-3.28573">
        <ele>103</ele>
        <time>2015-01-25T08:45:37Z</time>
      </trkpt>
      <trkpt lat="48.64214" lon="-3.28572">
        <ele>103</ele>
        <time>2015-01-25T08:45:38Z</time>
      </trkpt>
      <trkpt lat="48.64219" lon="-3.2857">
        <ele>103</ele>
        <time>2015-01-25T08:45:39Z</time>
      </trkpt>
      <trkpt lat="48.64225" lon="-3.2857">
        <ele>103</ele>
        <time>2015-01-25T08:45:40Z</time>
      </trkpt>
      <trkpt lat="48.6423" lon="-3.28571">
        <ele>103</ele>
        <time>2015-01-25T08:45:41Z</time>
      </trkpt>
      <trkpt lat="48.64235" lon="-3.28575">
        <ele>103</ele>
        <time>2015-01-25T08:45:42Z</time>
      </trkpt>
      <trkpt lat="48.6424" lon="-3.2858">
        <ele>102</ele>
        <time>2015-01-25T08:45:43Z</time>
      </trkpt>
      <trkpt lat="48.64245" lon="-3.28586">
        <ele>102</ele>
        <time>2015-01-25T08:45:44Z</time>
      </trkpt>
      <trkpt lat="48.64251" lon="-3.28591">
        <ele>102</ele>
        <time>2015-01-25T08:45:45Z</time>
      </trkpt>
      <trkpt lat="48.64257" lon="-3.28597">
        <ele>102</ele>
        <time>2015-01-25T08:45:46Z</time>
      </trkpt>
      <trkpt lat="48.64263" lon="-3.28601">
        <ele>102</ele>
        <time>2015-01-25T08:45:47Z</time>
      </trkpt>
      <trkpt lat="48.6427" lon="-3.28605">
        <ele>102</ele>
        <time>2015-01-25T08:45:48Z</time>
      </trkpt>
      <trkpt lat="48.64276" lon="-3.2861">
        <ele>102</ele>
        <time>2015-01-25T08:45:49Z</time>
      </trkpt>
      <trkpt lat="48.64283" lon="-3.28614">
        <ele>102</ele>
        <time>2015-01-25T08:45:50Z</time>
      </trkpt>
      <trkpt lat="48.64289" lon="-3.28619">
        <ele>102</ele>
        <time>2015-01-25T08:45:51Z</time>
      </trkpt>
      <trkpt lat="48.64296" lon="-3.28624">
        <ele>102</ele>
        <time>2015-01-25T08:45:52Z</time>
      </trkpt>
      <trkpt lat="48.64302" lon="-3.28627">
        <ele>102</ele>
        <time>2015-01-25T08:45:53Z</time>
      </trkpt>
      <trkpt lat="48.64308" lon="-3.28631">
        <ele>102</ele>
        <time>2015-01-25T08:45:54Z</time>
      </trkpt>
      <trkpt lat="48.64314" lon="-3.28635">
        <ele>102</ele>
        <time>2015-01-25T08:45:55Z</time>
      </trkpt>
      <trkpt lat="48.6432" lon="-3.28639">
        <ele>102</ele>
        <time>2015-01-25T08:45:56Z</time>
      </trkpt>
      <trkpt lat="48.64325" lon="-3.28643">
        <ele>102</ele>
        <time>2015-01-25T08:45:57Z</time>
      </trkpt>
      <trkpt lat="48.64332" lon="-3.28647">
        <ele>102</ele>
        <time>2015-01-25T08:45:58Z</time>
      </trkpt>
      <trkpt lat="48.64338" lon="-3.28651">
        <ele>102</ele>
        <time>2015-01-25T08:45:59Z</time>
      </trkpt>
      <trkpt lat="48.64344" lon="-3.28655">
        <ele>101</ele>
        <time>2015-01-25T08:46:00Z</time>
      </trkpt>
      <trkpt lat="48.6435" lon="-3.28659">
        <ele>101</ele>
        <time>2015-01-25T08:46:01Z</time>
      </trkpt>
      <trkpt lat="48.64356" lon="-3.28663">
        <ele>101</ele>
        <time>2015-01-25T08:46:02Z</time>
      </trkpt>
      <trkpt lat="48.64362" lon="-3.28667">
        <ele>101</ele>
        <time>2015-01-25T08:46:03Z</time>
      </trkpt>
      <trkpt lat="48.64368" lon="-3.28671">
        <ele>101</ele>
        <time>2015-01-25T08:46:04Z</time>
      </trkpt>
      <trkpt lat="48.64373" lon="-3.28674">
        <ele>101</ele>
        <time>2015-01-25T08:46:05Z</time>
      </trkpt>
      <trkpt lat="48.64379" lon="-3.28677">
        <ele>101</ele>
        <time>2015-01-25T08:46:06Z</time>
      </trkpt>
      <trkpt lat="48.64385" lon="-3.28679">
        <ele>101</ele>
        <time>2015-01-25T08:46:07Z</time>
      </trkpt>
      <trkpt lat="48.64391" lon="-3.28681">
        <ele>101</ele>
        <time>2015-01-25T08:46:08Z</time>
      </trkpt>
      <trkpt lat="48.64398" lon="-3.28682">
        <ele>101</ele>
        <time>2015-01-25T08:46:09Z</time>
      </trkpt>
      <trkpt lat="48.64405" lon="-3.28683">
        <ele>101</ele>
        <time>2015-01-25T08:46:10Z</time>
      </trkpt>
      <trkpt lat="48.64426" lon="-3.28683">
        <ele>101</ele>
        <time>2015-01-25T08:46:13Z</time>
      </trkpt>
      <trkpt lat="48.64434" lon="-3.28682">
        <ele>101</ele>
        <time>2015-01-25T08:46:14Z</time>
      </trkpt>
      <trkpt lat="48.64441" lon="-3.28682">
        <ele>101</ele>
        <time>2015-01-25T08:46:15Z</time>
      </trkpt>
      <trkpt lat="48.64456" lon="-3.28682">
        <ele>101</ele>
        <time>2015-01-25T08:46:17Z</time>
      </trkpt>
      <trkpt lat="48.64463" lon="-3.28683">
        <ele>101</ele>
        <time>2015-01-25T08:46:18Z</time>
      </trkpt>
      <trkpt lat="48.64479" lon="-3.28682">
        <ele>101</ele>
        <time>2015-01-25T08:46:20Z</time>
      </trkpt>
      <trkpt lat="48.64495" lon="-3.28683">
        <ele>101</ele>
        <time>2015-01-25T08:46:22Z</time>
      </trkpt>
      <trkpt lat="48.64503" lon="-3.28682">
        <ele>101</ele>
        <time>2015-01-25T08:46:23Z</time>
      </trkpt>
      <trkpt lat="48.64511" lon="-3.28682">
        <ele>101</ele>
        <time>2015-01-25T08:46:24Z</time>
      </trkpt>
      <trkpt lat="48.64528" lon="-3.28683">
        <ele>101</ele>
        <time>2015-01-25T08:46:26Z</time>
      </trkpt>
      <trkpt lat="48.64537" lon="-3.28684">
        <ele>101</ele>
        <time>2015-01-25T08:46:27Z</time>
      </trkpt>
      <trkpt lat="48.64546" lon="-3.28685">
        <ele>100</ele>
        <time>2015-01-25T08:46:28Z</time>
      </trkpt>
      <trkpt lat="48.64555" lon="-3.28686">
        <ele>100</ele>
        <time>2015-01-25T08:46:29Z</time>
      </trkpt>
      <trkpt lat="48.64564" lon="-3.28687">
        <ele>100</ele>
        <time>2015-01-25T08:46:30Z</time>
      </trkpt>
      <trkpt lat="48.64573" lon="-3.28689">
        <ele>99</ele>
        <time>2015-01-25T08:46:31Z</time>
      </trkpt>
      <trkpt lat="48.64582" lon="-3.2869">
        <ele>99</ele>
        <time>2015-01-25T08:46:32Z</time>
      </trkpt>
      <trkpt lat="48.64591" lon="-3.28691">
        <ele>99</ele>
        <time>2015-01-25T08:46:33Z</time>
      </trkpt>
      <trkpt lat="48.646" lon="-3.28693">
        <ele>98</ele>
        <time>2015-01-25T08:46:34Z</time>
      </trkpt>
      <trkpt lat="48.64611" lon="-3.28695">
        <ele>98</ele>
        <time>2015-01-25T08:46:35Z</time>
      </trkpt>
      <trkpt lat="48.64621" lon="-3.28696">
        <ele>98</ele>
        <time>2015-01-25T08:46:36Z</time>
      </trkpt>
      <trkpt lat="48.64631" lon="-3.28698">
        <ele>98</ele>
        <time>2015-01-25T08:46:37Z</time>
      </trkpt>
      <trkpt lat="48.64642" lon="-3.287">
        <ele>97</ele>
        <time>2015-01-25T08:46:38Z</time>
      </trkpt>
      <trkpt lat="48.64653" lon="-3.28702">
        <ele>97</ele>
        <time>2015-01-25T08:46:39Z</time>
      </trkpt>
      <trkpt lat="48.64663" lon="-3.28704">
        <ele>97</ele>
        <time>2015-01-25T08:46:40Z</time>
      </trkpt>
      <trkpt lat="48.64674" lon="-3.28707">
        <ele>97</ele>
        <time>2015-01-25T08:46:41Z</time>
      </trkpt>
      <trkpt lat="48.64685" lon="-3.28709">
        <ele>97</ele>
        <time>2015-01-25T08:46:42Z</time>
      </trkpt>
      <trkpt lat="48.64696" lon="-3.28711">
        <ele>96</ele>
        <time>2015-01-25T08:46:43Z</time>
      </trkpt>
      <trkpt lat="48.64707" lon="-3.28713">
        <ele>96</ele>
        <time>2015-01-25T08:46:44Z</time>
      </trkpt>
      <trkpt lat="48.64718" lon="-3.28716">
        <ele>96</ele>
        <time>2015-01-25T08:46:45Z</time>
      </trkpt>
      <trkpt lat="48.64729" lon="-3.28719">
        <ele>96</ele>
        <time>2015-01-25T08:46:46Z</time>
      </trkpt>
      <trkpt lat="48.6474" lon="-3.28721">
        <ele>96</ele>
        <time>2015-01-25T08:46:47Z</time>
      </trkpt>
      <trkpt lat="48.64751" lon="-3.28725">
        <ele>95</ele>
        <time>2015-01-25T08:46:48Z</time>
      </trkpt>
      <trkpt lat="48.64761" lon="-3.28729">
        <ele>95</ele>
        <time>2015-01-25T08:46:49Z</time>
      </trkpt>
      <trkpt lat="48.64771" lon="-3.28734">
        <ele>95</ele>
        <time>2015-01-25T08:46:50Z</time>
      </trkpt>
      <trkpt lat="48.64781" lon="-3.28741">
        <ele>95</ele>
        <time>2015-01-25T08:46:51Z</time>
      </trkpt>
      <trkpt lat="48.64791" lon="-3.28747">
        <ele>94</ele>
        <time>2015-01-25T08:46:52Z</time>
      </trkpt>
      <trkpt lat="48.64801" lon="-3.28754">
        <ele>94</ele>
        <time>2015-01-25T08:46:53Z</time>
      </trkpt>
      <trkpt lat="48.6481" lon="-3.28761">
        <ele>94</ele>
        <time>2015-01-25T08:46:54Z</time>
      </trkpt>
      <trkpt lat="48.64819" lon="-3.28767">
        <ele>94</ele>
        <time>2015-01-25T08:46:55Z</time>
      </trkpt>
      <trkpt lat="48.64829" lon="-3.28774">
        <ele>94</ele>
        <time>2015-01-25T08:46:56Z</time>
      </trkpt>
      <trkpt lat="48.64838" lon="-3.28781">
        <ele>94</ele>
        <time>2015-01-25T08:46:57Z</time>
      </trkpt>
      <trkpt lat="48.64847" lon="-3.28788">
        <ele>94</ele>
        <time>2015-01-25T08:46:58Z</time>
      </trkpt>
      <trkpt lat="48.64856" lon="-3.28794">
        <ele>93</ele>
        <time>2015-01-25T08:46:59Z</time>
      </trkpt>
      <trkpt lat="48.64866" lon="-3.288">
        <ele>93</ele>
        <time>2015-01-25T08:47:00Z</time>
      </trkpt>
      <trkpt lat="48.64876" lon="-3.28803">
        <ele>93</ele>
        <time>2015-01-25T08:47:01Z</time>
      </trkpt>
      <trkpt lat="48.64886" lon="-3.28803">
        <ele>93</ele>
        <time>2015-01-25T08:47:02Z</time>
      </trkpt>
      <trkpt lat="48.64896" lon="-3.288">
        <ele>93</ele>
        <time>2015-01-25T08:47:03Z</time>
      </trkpt>
      <trkpt lat="48.64905" lon="-3.28793">
        <ele>93</ele>
        <time>2015-01-25T08:47:04Z</time>
      </trkpt>
      <trkpt lat="48.64913" lon="-3.28784">
        <ele>93</ele>
        <time>2015-01-25T08:47:05Z</time>
      </trkpt>
      <trkpt lat="48.6492" lon="-3.28774">
        <ele>93</ele>
        <time>2015-01-25T08:47:06Z</time>
      </trkpt>
      <trkpt lat="48.64928" lon="-3.28764">
        <ele>93</ele>
        <time>2015-01-25T08:47:07Z</time>
      </trkpt>
      <trkpt lat="48.64935" lon="-3.28754">
        <ele>93</ele>
        <time>2015-01-25T08:47:08Z</time>
      </trkpt>
      <trkpt lat="48.64942" lon="-3.28745">
        <ele>93</ele>
        <time>2015-01-25T08:47:09Z</time>
      </trkpt>
      <trkpt lat="48.6495" lon="-3.28738">
        <ele>93</ele>
        <time>2015-01-25T08:47:10Z</time>
      </trkpt>
      <trkpt lat="48.64958" lon="-3.28732">
        <ele>93</ele>
        <time>2015-01-25T08:47:11Z</time>
      </trkpt>
      <trkpt lat="48.64966" lon="-3.28727">
        <ele>93</ele>
        <time>2015-01-25T08:47:12Z</time>
      </trkpt>
      <trkpt lat="48.64974" lon="-3.28722">
        <ele>93</ele>
        <time>2015-01-25T08:47:13Z</time>
      </trkpt>
      <trkpt lat="48.64982" lon="-3.28717">
        <ele>93</ele>
        <time>2015-01-25T08:47:14Z</time>
      </trkpt>
      <trkpt lat="48.6499" lon="-3.28713">
        <ele>93</ele>
        <time>2015-01-25T08:47:15Z</time>
      </trkpt>
      <trkpt lat="48.64998" lon="-3.28709">
        <ele>93</ele>
        <time>2015-01-25T08:47:16Z</time>
      </trkpt>
      <trkpt lat="48.65006" lon="-3.28705">
        <ele>93</ele>
        <time>2015-01-25T08:47:17Z</time>
      </trkpt>
      <trkpt lat="48.65014" lon="-3.28701">
        <ele>93</ele>
        <time>2015-01-25T08:47:18Z</time>
      </trkpt>
      <trkpt lat="48.65022" lon="-3.28697">
        <ele>93</ele>
        <time>2015-01-25T08:47:19Z</time>
      </trkpt>
      <trkpt lat="48.65029" lon="-3.28693">
        <ele>93</ele>
        <time>2015-01-25T08:47:20Z</time>
      </trkpt>
      <trkpt lat="48.65037" lon="-3.2869">
        <ele>93</ele>
        <time>2015-01-25T08:47:21Z</time>
      </trkpt>
      <trkpt lat="48.65045" lon="-3.28687">
        <ele>93</ele>
        <time>2015-01-25T08:47:22Z</time>
      </trkpt>
      <trkpt lat="48.65052" lon="-3.28685">
        <ele>93</ele>
        <time>2015-01-25T08:47:23Z</time>
      </trkpt>
      <trkpt lat="48.6506" lon="-3.28683">
        <ele>93</ele>
        <time>2015-01-25T08:47:24Z</time>
      </trkpt>
      <trkpt lat="48.65068" lon="-3.28682">
        <ele>93</ele>
        <time>2015-01-25T08:47:25Z</time>
      </trkpt>
      <trkpt lat="48.65076" lon="-3.28682">
        <ele>93</ele>
        <time>2015-01-25T08:47:26Z</time>
      </trkpt>
      <trkpt lat="48.65083" lon="-3.28683">
        <ele>93</ele>
        <time>2015-01-25T08:47:27Z</time>
      </trkpt>
      <trkpt lat="48.65091" lon="-3.28685">
        <ele>93</ele>
        <time>2015-01-25T08:47:28Z</time>
      </trkpt>
      <trkpt lat="48.65099" lon="-3.28687">
        <ele>93</ele>
        <time>2015-01-25T08:47:29Z</time>
      </trkpt>
      <trkpt lat="48.65106" lon="-3.28691">
        <ele>93</ele>
        <time>2015-01-25T08:47:30Z</time>
      </trkpt>
      <trkpt lat="48.65113" lon="-3.28695">
        <ele>93</ele>
        <time>2015-01-25T08:47:31Z</time>
      </trkpt>
      <trkpt lat="48.6512" lon="-3.28699">
        <ele>93</ele>
        <time>2015-01-25T08:47:32Z</time>
      </trkpt>
      <trkpt lat="48.65126" lon="-3.28705">
        <ele>93</ele>
        <time>2015-01-25T08:47:33Z</time>
      </trkpt>
      <trkpt lat="48.65133" lon="-3.2871">
        <ele>93</ele>
        <time>2015-01-25T08:47:34Z</time>
      </trkpt>
      <trkpt lat="48.65139" lon="-3.28715">
        <ele>93</ele>
        <time>2015-01-25T08:47:35Z</time>
      </trkpt>
      <trkpt lat="48.65146" lon="-3.28719">
        <ele>93</ele>
        <time>2015-01-25T08:47:36Z</time>
      </trkpt>
      <trkpt lat="48.65154" lon="-3.28723">
        <ele>93</ele>
        <time>2015-01-25T08:47:37Z</time>
      </trkpt>
      <trkpt lat="48.65162" lon="-3.28726">
        <ele>93</ele>
        <time>2015-01-25T08:47:38Z</time>
      </trkpt>
      <trkpt lat="48.6517" lon="-3.28729">
        <ele>93</ele>
        <time>2015-01-25T08:47:39Z</time>
      </trkpt>
      <trkpt lat="48.65178" lon="-3.28731">
        <ele>93</ele>
        <time>2015-01-25T08:47:40Z</time>
      </trkpt>
      <trkpt lat="48.65186" lon="-3.28734">
        <ele>93</ele>
        <time>2015-01-25T08:47:41Z</time>
      </trkpt>
      <trkpt lat="48.65194" lon="-3.28738">
        <ele>93</ele>
        <time>2015-01-25T08:47:42Z</time>
      </trkpt>
      <trkpt lat="48.65201" lon="-3.28742">
        <ele>93</ele>
        <time>2015-01-25T08:47:43Z</time>
      </trkpt>
      <trkpt lat="48.65208" lon="-3.28745">
        <ele>93</ele>
        <time>2015-01-25T08:47:44Z</time>
      </trkpt>
      <trkpt lat="48.65216" lon="-3.28748">
        <ele>93</ele>
        <time>2015-01-25T08:47:45Z</time>
      </trkpt>
      <trkpt lat="48.65224" lon="-3.28751">
        <ele>93</ele>
        <time>2015-01-25T08:47:46Z</time>
      </trkpt>
      <trkpt lat="48.65231" lon="-3.28753">
        <ele>93</ele>
        <time>2015-01-25T08:47:47Z</time>
      </trkpt>
      <trkpt lat="48.65239" lon="-3.28754">
        <ele>93</ele>
        <time>2015-01-25T08:47:48Z</time>
      </trkpt>
      <trkpt lat="48.65247" lon="-3.28756">
        <ele>93</ele>
        <time>2015-01-25T08:47:49Z</time>
      </trkpt>
      <trkpt lat="48.65254" lon="-3.28757">
        <ele>93</ele>
        <time>2015-01-25T08:47:50Z</time>
      </trkpt>
      <trkpt lat="48.65261" lon="-3.28758">
        <ele>93</ele>
        <time>2015-01-25T08:47:51Z</time>
      </trkpt>
      <trkpt lat="48.65268" lon="-3.28761">
        <ele>93</ele>
        <time>2015-01-25T08:47:52Z</time>
      </trkpt>
      <trkpt lat="48.65275" lon="-3.28765">
        <ele>93</ele>
        <time>2015-01-25T08:47:53Z</time>
      </trkpt>
      <trkpt lat="48.65282" lon="-3.28769">
        <ele>93</ele>
        <time>2015-01-25T08:47:54Z</time>
      </trkpt>
      <trkpt lat="48.65288" lon="-3.28775">
        <ele>93</ele>
        <time>2015-01-25T08:47:55Z</time>
      </trkpt>
      <trkpt lat="48.65293" lon="-3.28781">
        <ele>93</ele>
        <time>2015-01-25T08:47:56Z</time>
      </trkpt>
      <trkpt lat="48.65299" lon="-3.28787">
        <ele>93</ele>
        <time>2015-01-25T08:47:57Z</time>
      </trkpt>
      <trkpt lat="48.65305" lon="-3.28794">
        <ele>93</ele>
        <time>2015-01-25T08:47:58Z</time>
      </trkpt>
      <trkpt lat="48.65312" lon="-3.28801">
        <ele>93</ele>
        <time>2015-01-25T08:47:59Z</time>
      </trkpt>
      <trkpt lat="48.65319" lon="-3.28808">
        <ele>93</ele>
        <time>2015-01-25T08:48:00Z</time>
      </trkpt>
      <trkpt lat="48.65327" lon="-3.28815">
        <ele>93</ele>
        <time>2015-01-25T08:48:01Z</time>
      </trkpt>
      <trkpt lat="48.65335" lon="-3.28822">
        <ele>93</ele>
        <time>2015-01-25T08:48:02Z</time>
      </trkpt>
      <trkpt lat="48.65343" lon="-3.28829">
        <ele>93</ele>
        <time>2015-01-25T08:48:03Z</time>
      </trkpt>
      <trkpt lat="48.65352" lon="-3.28836">
        <ele>93</ele>
        <time>2015-01-25T08:48:04Z</time>
      </trkpt>
      <trkpt lat="48.65361" lon="-3.28843">
        <ele>93</ele>
        <time>2015-01-25T08:48:05Z</time>
      </trkpt>
      <trkpt lat="48.65369" lon="-3.2885">
        <ele>93</ele>
        <time>2015-01-25T08:48:06Z</time>
      </trkpt>
      <trkpt lat="48.65379" lon="-3.28856">
        <ele>93</ele>
        <time>2015-01-25T08:48:07Z</time>
      </trkpt>
      <trkpt lat="48.65388" lon="-3.28861">
        <ele>93</ele>
        <time>2015-01-25T08:48:08Z</time>
      </trkpt>
      <trkpt lat="48.65398" lon="-3.28866">
        <ele>93</ele>
        <time>2015-01-25T08:48:09Z</time>
      </trkpt>
      <trkpt lat="48.65407" lon="-3.28868">
        <ele>93</ele>
        <time>2015-01-25T08:48:10Z</time>
      </trkpt>
      <trkpt lat="48.65417" lon="-3.2887">
        <ele>93</ele>
        <time>2015-01-25T08:48:11Z</time>
      </trkpt>
      <trkpt lat="48.65427" lon="-3.28871">
        <ele>93</ele>
        <time>2015-01-25T08:48:12Z</time>
      </trkpt>
      <trkpt lat="48.65436" lon="-3.28872">
        <ele>93</ele>
        <time>2015-01-25T08:48:13Z</time>
      </trkpt>
      <trkpt lat="48.65446" lon="-3.28873">
        <ele>93</ele>
        <time>2015-01-25T08:48:14Z</time>
      </trkpt>
      <trkpt lat="48.65456" lon="-3.28874">
        <ele>93</ele>
        <time>2015-01-25T08:48:15Z</time>
      </trkpt>
      <trkpt lat="48.65466" lon="-3.28876">
        <ele>93</ele>
        <time>2015-01-25T08:48:16Z</time>
      </trkpt>
      <trkpt lat="48.65476" lon="-3.28878">
        <ele>93</ele>
        <time>2015-01-25T08:48:17Z</time>
      </trkpt>
      <trkpt lat="48.65486" lon="-3.2888">
        <ele>93</ele>
        <time>2015-01-25T08:48:18Z</time>
      </trkpt>
      <trkpt lat="48.65495" lon="-3.28883">
        <ele>93</ele>
        <time>2015-01-25T08:48:19Z</time>
      </trkpt>
      <trkpt lat="48.65505" lon="-3.28886">
        <ele>93</ele>
        <time>2015-01-25T08:48:20Z</time>
      </trkpt>
      <trkpt lat="48.65516" lon="-3.28888">
        <ele>93</ele>
        <time>2015-01-25T08:48:21Z</time>
      </trkpt>
      <trkpt lat="48.65526" lon="-3.2889">
        <ele>93</ele>
        <time>2015-01-25T08:48:22Z</time>
      </trkpt>
      <trkpt lat="48.65537" lon="-3.28893">
        <ele>93</ele>
        <time>2015-01-25T08:48:23Z</time>
      </trkpt>
      <trkpt lat="48.65547" lon="-3.28896">
        <ele>93</ele>
        <time>2015-01-25T08:48:24Z</time>
      </trkpt>
      <trkpt lat="48.65557" lon="-3.28899">
        <ele>92</ele>
        <time>2015-01-25T08:48:25Z</time>
      </trkpt>
      <trkpt lat="48.65568" lon="-3.28903">
        <ele>92</ele>
        <time>2015-01-25T08:48:26Z</time>
      </trkpt>
      <trkpt lat="48.65578" lon="-3.28908">
        <ele>92</ele>
        <time>2015-01-25T08:48:27Z</time>
      </trkpt>
      <trkpt lat="48.65588" lon="-3.28913">
        <ele>92</ele>
        <time>2015-01-25T08:48:28Z</time>
      </trkpt>
      <trkpt lat="48.65598" lon="-3.28919">
        <ele>91</ele>
        <time>2015-01-25T08:48:29Z</time>
      </trkpt>
      <trkpt lat="48.65609" lon="-3.28924">
        <ele>91</ele>
        <time>2015-01-25T08:48:30Z</time>
      </trkpt>
      <trkpt lat="48.65619" lon="-3.2893">
        <ele>91</ele>
        <time>2015-01-25T08:48:31Z</time>
      </trkpt>
      <trkpt lat="48.65629" lon="-3.28936">
        <ele>90</ele>
        <time>2015-01-25T08:48:32Z</time>
      </trkpt>
      <trkpt lat="48.6564" lon="-3.28941">
        <ele>90</ele>
        <time>2015-01-25T08:48:33Z</time>
      </trkpt>
      <trkpt lat="48.6565" lon="-3.28947">
        <ele>90</ele>
        <time>2015-01-25T08:48:34Z</time>
      </trkpt>
      <trkpt lat="48.65661" lon="-3.28953">
        <ele>90</ele>
        <time>2015-01-25T08:48:35Z</time>
      </trkpt>
      <trkpt lat="48.65672" lon="-3.28958">
        <ele>90</ele>
        <time>2015-01-25T08:48:36Z</time>
      </trkpt>
      <trkpt lat="48.65683" lon="-3.28964">
        <ele>90</ele>
        <time>2015-01-25T08:48:37Z</time>
      </trkpt>
      <trkpt lat="48.65693" lon="-3.28969">
        <ele>90</ele>
        <time>2015-01-25T08:48:38Z</time>
      </trkpt>
      <trkpt lat="48.65704" lon="-3.28974">
        <ele>90</ele>
        <time>2015-01-25T08:48:39Z</time>
      </trkpt>
      <trkpt lat="48.65716" lon="-3.28977">
        <ele>90</ele>
        <time>2015-01-25T08:48:40Z</time>
      </trkpt>
      <trkpt lat="48.65728" lon="-3.2898">
        <ele>90</ele>
        <time>2015-01-25T08:48:41Z</time>
      </trkpt>
      <trkpt lat="48.65739" lon="-3.28982">
        <ele>90</ele>
        <time>2015-01-25T08:48:42Z</time>
      </trkpt>
      <trkpt lat="48.65751" lon="-3.28984">
        <ele>90</ele>
        <time>2015-01-25T08:48:43Z</time>
      </trkpt>
      <trkpt lat="48.65762" lon="-3.28985">
        <ele>90</ele>
        <time>2015-01-25T08:48:44Z</time>
      </trkpt>
      <trkpt lat="48.65773" lon="-3.28987">
        <ele>90</ele>
        <time>2015-01-25T08:48:45Z</time>
      </trkpt>
      <trkpt lat="48.65784" lon="-3.28989">
        <ele>90</ele>
        <time>2015-01-25T08:48:46Z</time>
      </trkpt>
      <trkpt lat="48.65794" lon="-3.2899">
        <ele>90</ele>
        <time>2015-01-25T08:48:47Z</time>
      </trkpt>
      <trkpt lat="48.65805" lon="-3.28992">
        <ele>90</ele>
        <time>2015-01-25T08:48:48Z</time>
      </trkpt>
      <trkpt lat="48.65815" lon="-3.28994">
        <ele>90</ele>
        <time>2015-01-25T08:48:49Z</time>
      </trkpt>
      <trkpt lat="48.65823" lon="-3.28995">
        <ele>90</ele>
        <time>2015-01-25T08:48:50Z</time>
      </trkpt>
      <trkpt lat="48.65832" lon="-3.28997">
        <ele>90</ele>
        <time>2015-01-25T08:48:51Z</time>
      </trkpt>
      <trkpt lat="48.65841" lon="-3.28999">
        <ele>90</ele>
        <time>2015-01-25T08:48:52Z</time>
      </trkpt>
      <trkpt lat="48.6585" lon="-3.29">
        <ele>90</ele>
        <time>2015-01-25T08:48:53Z</time>
      </trkpt>
      <trkpt lat="48.65858" lon="-3.29002">
        <ele>90</ele>
        <time>2015-01-25T08:48:54Z</time>
      </trkpt>
      <trkpt lat="48.65866" lon="-3.29004">
        <ele>90</ele>
        <time>2015-01-25T08:48:55Z</time>
      </trkpt>
      <trkpt lat="48.65874" lon="-3.29005">
        <ele>90</ele>
        <time>2015-01-25T08:48:56Z</time>
      </trkpt>
      <trkpt lat="48.65883" lon="-3.29006">
        <ele>90</ele>
        <time>2015-01-25T08:48:57Z</time>
      </trkpt>
      <trkpt lat="48.65891" lon="-3.29008">
        <ele>90</ele>
        <time>2015-01-25T08:48:58Z</time>
      </trkpt>
      <trkpt lat="48.65899" lon="-3.29009">
        <ele>90</ele>
        <time>2015-01-25T08:48:59Z</time>
      </trkpt>
      <trkpt lat="48.65907" lon="-3.2901">
        <ele>90</ele>
        <time>2015-01-25T08:49:00Z</time>
      </trkpt>
      <trkpt lat="48.65915" lon="-3.2901">
        <ele>90</ele>
        <time>2015-01-25T08:49:01Z</time>
      </trkpt>
      <trkpt lat="48.65923" lon="-3.29011">
        <ele>90</ele>
        <time>2015-01-25T08:49:02Z</time>
      </trkpt>
      <trkpt lat="48.6593" lon="-3.2901">
        <ele>90</ele>
        <time>2015-01-25T08:49:03Z</time>
      </trkpt>
      <trkpt lat="48.65938" lon="-3.2901">
        <ele>90</ele>
        <time>2015-01-25T08:49:04Z</time>
      </trkpt>
      <trkpt lat="48.65945" lon="-3.2901">
        <ele>90</ele>
        <time>2015-01-25T08:49:05Z</time>
      </trkpt>
      <trkpt lat="48.65953" lon="-3.29009">
        <ele>90</ele>
        <time>2015-01-25T08:49:06Z</time>
      </trkpt>
      <trkpt lat="48.65962" lon="-3.29008">
        <ele>90</ele>
        <time>2015-01-25T08:49:07Z</time>
      </trkpt>
      <trkpt lat="48.65971" lon="-3.29006">
        <ele>90</ele>
        <time>2015-01-25T08:49:08Z</time>
      </trkpt>
      <trkpt lat="48.6598" lon="-3.29005">
        <ele>90</ele>
        <time>2015-01-25T08:49:09Z</time>
      </trkpt>
      <trkpt lat="48.65989" lon="-3.29004">
        <ele>90</ele>
        <time>2015-01-25T08:49:10Z</time>
      </trkpt>
      <trkpt lat="48.65999" lon="-3.29004">
        <ele>90</ele>
        <time>2015-01-25T08:49:11Z</time>
      </trkpt>
      <trkpt lat="48.6601" lon="-3.29005">
        <ele>90</ele>
        <time>2015-01-25T08:49:12Z</time>
      </trkpt>
      <trkpt lat="48.6602" lon="-3.29009">
        <ele>90</ele>
        <time>2015-01-25T08:49:13Z</time>
      </trkpt>
      <trkpt lat="48.6603" lon="-3.29015">
        <ele>90</ele>
        <time>2015-01-25T08:49:14Z</time>
      </trkpt>
      <trkpt lat="48.6604" lon="-3.29022">
        <ele>90</ele>
        <time>2015-01-25T08:49:15Z</time>
      </trkpt>
      <trkpt lat="48.6605" lon="-3.29029">
        <ele>90</ele>
        <time>2015-01-25T08:49:16Z</time>
      </trkpt>
      <trkpt lat="48.6606" lon="-3.29036">
        <ele>90</ele>
        <time>2015-01-25T08:49:17Z</time>
      </trkpt>
      <trkpt lat="48.66071" lon="-3.29041">
        <ele>90</ele>
        <time>2015-01-25T08:49:18Z</time>
      </trkpt>
      <trkpt lat="48.66082" lon="-3.29045">
        <ele>90</ele>
        <time>2015-01-25T08:49:19Z</time>
      </trkpt>
      <trkpt lat="48.66093" lon="-3.29047">
        <ele>90</ele>
        <time>2015-01-25T08:49:20Z</time>
      </trkpt>
      <trkpt lat="48.66104" lon="-3.29047">
        <ele>90</ele>
        <time>2015-01-25T08:49:21Z</time>
      </trkpt>
      <trkpt lat="48.66115" lon="-3.29046">
        <ele>90</ele>
        <time>2015-01-25T08:49:22Z</time>
      </trkpt>
      <trkpt lat="48.66126" lon="-3.29045">
        <ele>90</ele>
        <time>2015-01-25T08:49:23Z</time>
      </trkpt>
      <trkpt lat="48.66136" lon="-3.29043">
        <ele>90</ele>
        <time>2015-01-25T08:49:24Z</time>
      </trkpt>
      <trkpt lat="48.66146" lon="-3.29041">
        <ele>90</ele>
        <time>2015-01-25T08:49:25Z</time>
      </trkpt>
      <trkpt lat="48.66156" lon="-3.29039">
        <ele>90</ele>
        <time>2015-01-25T08:49:26Z</time>
      </trkpt>
      <trkpt lat="48.66166" lon="-3.29037">
        <ele>90</ele>
        <time>2015-01-25T08:49:27Z</time>
      </trkpt>
      <trkpt lat="48.66175" lon="-3.29035">
        <ele>90</ele>
        <time>2015-01-25T08:49:28Z</time>
      </trkpt>
      <trkpt lat="48.66183" lon="-3.29033">
        <ele>90</ele>
        <time>2015-01-25T08:49:29Z</time>
      </trkpt>
      <trkpt lat="48.66191" lon="-3.29031">
        <ele>90</ele>
        <time>2015-01-25T08:49:30Z</time>
      </trkpt>
      <trkpt lat="48.66199" lon="-3.29029">
        <ele>90</ele>
        <time>2015-01-25T08:49:31Z</time>
      </trkpt>
      <trkpt lat="48.66207" lon="-3.29027">
        <ele>90</ele>
        <time>2015-01-25T08:49:32Z</time>
      </trkpt>
      <trkpt lat="48.66214" lon="-3.29025">
        <ele>90</ele>
        <time>2015-01-25T08:49:33Z</time>
      </trkpt>
      <trkpt lat="48.66222" lon="-3.29023">
        <ele>90</ele>
        <time>2015-01-25T08:49:34Z</time>
      </trkpt>
      <trkpt lat="48.6623" lon="-3.2902">
        <ele>90</ele>
        <time>2015-01-25T08:49:35Z</time>
      </trkpt>
      <trkpt lat="48.66237" lon="-3.29018">
        <ele>90</ele>
        <time>2015-01-25T08:49:36Z</time>
      </trkpt>
      <trkpt lat="48.66245" lon="-3.29015">
        <ele>90</ele>
        <time>2015-01-25T08:49:37Z</time>
      </trkpt>
      <trkpt lat="48.66254" lon="-3.29012">
        <ele>90</ele>
        <time>2015-01-25T08:49:38Z</time>
      </trkpt>
      <trkpt lat="48.66262" lon="-3.29009">
        <ele>90</ele>
        <time>2015-01-25T08:49:39Z</time>
      </trkpt>
      <trkpt lat="48.6627" lon="-3.29006">
        <ele>90</ele>
        <time>2015-01-25T08:49:40Z</time>
      </trkpt>
      <trkpt lat="48.66279" lon="-3.29003">
        <ele>90</ele>
        <time>2015-01-25T08:49:41Z</time>
      </trkpt>
      <trkpt lat="48.66288" lon="-3.28999">
        <ele>90</ele>
        <time>2015-01-25T08:49:42Z</time>
      </trkpt>
      <trkpt lat="48.66297" lon="-3.28995">
        <ele>90</ele>
        <time>2015-01-25T08:49:43Z</time>
      </trkpt>
      <trkpt lat="48.66306" lon="-3.28992">
        <ele>90</ele>
        <time>2015-01-25T08:49:44Z</time>
      </trkpt>
      <trkpt lat="48.66314" lon="-3.28989">
        <ele>90</ele>
        <time>2015-01-25T08:49:45Z</time>
      </trkpt>
      <trkpt lat="48.66323" lon="-3.28988">
        <ele>90</ele>
        <time>2015-01-25T08:49:46Z</time>
      </trkpt>
      <trkpt lat="48.66331" lon="-3.28988">
        <ele>89</ele>
        <time>2015-01-25T08:49:47Z</time>
      </trkpt>
      <trkpt lat="48.66348" lon="-3.28988">
        <ele>89</ele>
        <time>2015-01-25T08:49:49Z</time>
      </trkpt>
      <trkpt lat="48.66356" lon="-3.28989">
        <ele>88</ele>
        <time>2015-01-25T08:49:50Z</time>
      </trkpt>
      <trkpt lat="48.66363" lon="-3.2899">
        <ele>87</ele>
        <time>2015-01-25T08:49:51Z</time>
      </trkpt>
      <trkpt lat="48.66371" lon="-3.28991">
        <ele>87</ele>
        <time>2015-01-25T08:49:52Z</time>
      </trkpt>
      <trkpt lat="48.66378" lon="-3.28992">
        <ele>87</ele>
        <time>2015-01-25T08:49:53Z</time>
      </trkpt>
      <trkpt lat="48.66385" lon="-3.28993">
        <ele>86</ele>
        <time>2015-01-25T08:49:54Z</time>
      </trkpt>
      <trkpt lat="48.66392" lon="-3.28994">
        <ele>86</ele>
        <time>2015-01-25T08:49:55Z</time>
      </trkpt>
      <trkpt lat="48.66399" lon="-3.28996">
        <ele>86</ele>
        <time>2015-01-25T08:49:56Z</time>
      </trkpt>
      <trkpt lat="48.66405" lon="-3.28997">
        <ele>85</ele>
        <time>2015-01-25T08:49:57Z</time>
      </trkpt>
      <trkpt lat="48.66412" lon="-3.28998">
        <ele>85</ele>
        <time>2015-01-25T08:49:58Z</time>
      </trkpt>
      <trkpt lat="48.66418" lon="-3.28999">
        <ele>85</ele>
        <time>2015-01-25T08:49:59Z</time>
      </trkpt>
      <trkpt lat="48.66423" lon="-3.29">
        <ele>84</ele>
        <time>2015-01-25T08:50:00Z</time>
      </trkpt>
      <trkpt lat="48.66428" lon="-3.29001">
        <ele>84</ele>
        <time>2015-01-25T08:50:01Z</time>
      </trkpt>
      <trkpt lat="48.66433" lon="-3.29002">
        <ele>84</ele>
        <time>2015-01-25T08:50:02Z</time>
      </trkpt>
      <trkpt lat="48.66437" lon="-3.29002">
        <ele>84</ele>
        <time>2015-01-25T08:50:03Z</time>
      </trkpt>
      <trkpt lat="48.6644" lon="-3.29003">
        <ele>84</ele>
        <time>2015-01-25T08:50:04Z</time>
      </trkpt>
      <trkpt lat="48.66442" lon="-3.29003">
        <ele>84</ele>
        <time>2015-01-25T08:50:05Z</time>
      </trkpt>
      <trkpt lat="48.66444" lon="-3.29004">
        <ele>84</ele>
        <time>2015-01-25T08:50:06Z</time>
      </trkpt>
      <trkpt lat="48.66447" lon="-3.29004">
        <ele>84</ele>
        <time>2015-01-25T08:50:07Z</time>
      </trkpt>
      <trkpt lat="48.66449" lon="-3.29004">
        <ele>83</ele>
        <time>2015-01-25T08:50:08Z</time>
      </trkpt>
      <trkpt lat="48.66451" lon="-3.29005">
        <ele>83</ele>
        <time>2015-01-25T08:50:09Z</time>
      </trkpt>
      <trkpt lat="48.66453" lon="-3.29005">
        <ele>83</ele>
        <time>2015-01-25T08:50:10Z</time>
      </trkpt>
      <trkpt lat="48.66455" lon="-3.29006">
        <ele>83</ele>
        <time>2015-01-25T08:50:11Z</time>
      </trkpt>
      <trkpt lat="48.66457" lon="-3.29006">
        <ele>83</ele>
        <time>2015-01-25T08:50:12Z</time>
      </trkpt>
      <trkpt lat="48.66458" lon="-3.29006">
        <ele>83</ele>
        <time>2015-01-25T08:50:13Z</time>
      </trkpt>
      <trkpt lat="48.66461" lon="-3.29006">
        <ele>83</ele>
        <time>2015-01-25T08:50:15Z</time>
      </trkpt>
      <trkpt lat="48.66463" lon="-3.29005">
        <ele>83</ele>
        <time>2015-01-25T08:50:16Z</time>
      </trkpt>
      <trkpt lat="48.66464" lon="-3.29005">
        <ele>83</ele>
        <time>2015-01-25T08:50:17Z</time>
      </trkpt>
      <trkpt lat="48.66465" lon="-3.29005">
        <ele>83</ele>
        <time>2015-01-25T08:50:18Z</time>
      </trkpt>
      <trkpt lat="48.66507" lon="-3.29006">
        <ele>81</ele>
        <time>2015-01-25T08:50:32Z</time>
      </trkpt>
      <trkpt lat="48.66511" lon="-3.29005">
        <ele>81</ele>
        <time>2015-01-25T08:50:33Z</time>
      </trkpt>
      <trkpt lat="48.66515" lon="-3.29004">
        <ele>81</ele>
        <time>2015-01-25T08:50:34Z</time>
      </trkpt>
      <trkpt lat="48.66521" lon="-3.29004">
        <ele>81</ele>
        <time>2015-01-25T08:50:35Z</time>
      </trkpt>
      <trkpt lat="48.66526" lon="-3.29004">
        <ele>81</ele>
        <time>2015-01-25T08:50:36Z</time>
      </trkpt>
      <trkpt lat="48.66533" lon="-3.29003">
        <ele>81</ele>
        <time>2015-01-25T08:50:37Z</time>
      </trkpt>
      <trkpt lat="48.66539" lon="-3.29003">
        <ele>81</ele>
        <time>2015-01-25T08:50:38Z</time>
      </trkpt>
      <trkpt lat="48.66546" lon="-3.29002">
        <ele>80</ele>
        <time>2015-01-25T08:50:39Z</time>
      </trkpt>
      <trkpt lat="48.66553" lon="-3.29002">
        <ele>80</ele>
        <time>2015-01-25T08:50:40Z</time>
      </trkpt>
      <trkpt lat="48.6656" lon="-3.29001">
        <ele>80</ele>
        <time>2015-01-25T08:50:41Z</time>
      </trkpt>
      <trkpt lat="48.66567" lon="-3.29">
        <ele>80</ele>
        <time>2015-01-25T08:50:42Z</time>
      </trkpt>
      <trkpt lat="48.66574" lon="-3.28999">
        <ele>80</ele>
        <time>2015-01-25T08:50:43Z</time>
      </trkpt>
      <trkpt lat="48.66582" lon="-3.28997">
        <ele>80</ele>
        <time>2015-01-25T08:50:44Z</time>
      </trkpt>
      <trkpt lat="48.66589" lon="-3.28995">
        <ele>80</ele>
        <time>2015-01-25T08:50:45Z</time>
      </trkpt>
      <trkpt lat="48.66596" lon="-3.28993">
        <ele>80</ele>
        <time>2015-01-25T08:50:46Z</time>
      </trkpt>
      <trkpt lat="48.66602" lon="-3.28991">
        <ele>80</ele>
        <time>2015-01-25T08:50:47Z</time>
      </trkpt>
      <trkpt lat="48.66607" lon="-3.28988">
        <ele>80</ele>
        <time>2015-01-25T08:50:48Z</time>
      </trkpt>
      <trkpt lat="48.66612" lon="-3.28986">
        <ele>80</ele>
        <time>2015-01-25T08:50:49Z</time>
      </trkpt>
      <trkpt lat="48.66617" lon="-3.28984">
        <ele>80</ele>
        <time>2015-01-25T08:50:50Z</time>
      </trkpt>
      <trkpt lat="48.66623" lon="-3.28982">
        <ele>80</ele>
        <time>2015-01-25T08:50:51Z</time>
      </trkpt>
      <trkpt lat="48.66628" lon="-3.2898">
        <ele>79</ele>
        <time>2015-01-25T08:50:52Z</time>
      </trkpt>
      <trkpt lat="48.66634" lon="-3.28978">
        <ele>79</ele>
        <time>2015-01-25T08:50:53Z</time>
      </trkpt>
      <trkpt lat="48.66639" lon="-3.28977">
        <ele>79</ele>
        <time>2015-01-25T08:50:54Z</time>
      </trkpt>
      <trkpt lat="48.66646" lon="-3.28976">
        <ele>79</ele>
        <time>2015-01-25T08:50:55Z</time>
      </trkpt>
      <trkpt lat="48.66652" lon="-3.28974">
        <ele>79</ele>
        <time>2015-01-25T08:50:56Z</time>
      </trkpt>
      <trkpt lat="48.66658" lon="-3.28972">
        <ele>79</ele>
        <time>2015-01-25T08:50:57Z</time>
      </trkpt>
      <trkpt lat="48.66664" lon="-3.28971">
        <ele>79</ele>
        <time>2015-01-25T08:50:58Z</time>
      </trkpt>
      <trkpt lat="48.66671" lon="-3.28969">
        <ele>79</ele>
        <time>2015-01-25T08:50:59Z</time>
      </trkpt>
      <trkpt lat="48.66677" lon="-3.28968">
        <ele>79</ele>
        <time>2015-01-25T08:51:00Z</time>
      </trkpt>
      <trkpt lat="48.66684" lon="-3.28967">
        <ele>78</ele>
        <time>2015-01-25T08:51:01Z</time>
      </trkpt>
      <trkpt lat="48.66691" lon="-3.28966">
        <ele>78</ele>
        <time>2015-01-25T08:51:02Z</time>
      </trkpt>
      <trkpt lat="48.66699" lon="-3.28965">
        <ele>78</ele>
        <time>2015-01-25T08:51:03Z</time>
      </trkpt>
      <trkpt lat="48.66706" lon="-3.28964">
        <ele>78</ele>
        <time>2015-01-25T08:51:04Z</time>
      </trkpt>
      <trkpt lat="48.66714" lon="-3.28963">
        <ele>78</ele>
        <time>2015-01-25T08:51:05Z</time>
      </trkpt>
      <trkpt lat="48.66722" lon="-3.28962">
        <ele>78</ele>
        <time>2015-01-25T08:51:06Z</time>
      </trkpt>
      <trkpt lat="48.66729" lon="-3.28962">
        <ele>78</ele>
        <time>2015-01-25T08:51:07Z</time>
      </trkpt>
      <trkpt lat="48.66737" lon="-3.28961">
        <ele>77</ele>
        <time>2015-01-25T08:51:08Z</time>
      </trkpt>
      <trkpt lat="48.66745" lon="-3.28961">
        <ele>77</ele>
        <time>2015-01-25T08:51:09Z</time>
      </trkpt>
      <trkpt lat="48.66752" lon="-3.2896">
        <ele>77</ele>
        <time>2015-01-25T08:51:10Z</time>
      </trkpt>
      <trkpt lat="48.6676" lon="-3.2896">
        <ele>77</ele>
        <time>2015-01-25T08:51:11Z</time>
      </trkpt>
      <trkpt lat="48.66768" lon="-3.2896">
        <ele>77</ele>
        <time>2015-01-25T08:51:12Z</time>
      </trkpt>
      <trkpt lat="48.66777" lon="-3.2896">
        <ele>77</ele>
        <time>2015-01-25T08:51:13Z</time>
      </trkpt>
      <trkpt lat="48.66785" lon="-3.28959">
        <ele>77</ele>
        <time>2015-01-25T08:51:14Z</time>
      </trkpt>
      <trkpt lat="48.66801" lon="-3.2896">
        <ele>76</ele>
        <time>2015-01-25T08:51:16Z</time>
      </trkpt>
      <trkpt lat="48.66809" lon="-3.2896">
        <ele>76</ele>
        <time>2015-01-25T08:51:17Z</time>
      </trkpt>
      <trkpt lat="48.66817" lon="-3.28961">
        <ele>76</ele>
        <time>2015-01-25T08:51:18Z</time>
      </trkpt>
      <trkpt lat="48.66825" lon="-3.28962">
        <ele>76</ele>
        <time>2015-01-25T08:51:19Z</time>
      </trkpt>
      <trkpt lat="48.66833" lon="-3.28963">
        <ele>76</ele>
        <time>2015-01-25T08:51:20Z</time>
      </trkpt>
      <trkpt lat="48.66841" lon="-3.28965">
        <ele>76</ele>
        <time>2015-01-25T08:51:21Z</time>
      </trkpt>
      <trkpt lat="48.66848" lon="-3.28966">
        <ele>76</ele>
        <time>2015-01-25T08:51:22Z</time>
      </trkpt>
      <trkpt lat="48.66856" lon="-3.28968">
        <ele>76</ele>
        <time>2015-01-25T08:51:23Z</time>
      </trkpt>
      <trkpt lat="48.66862" lon="-3.2897">
        <ele>75</ele>
        <time>2015-01-25T08:51:24Z</time>
      </trkpt>
      <trkpt lat="48.66869" lon="-3.28972">
        <ele>75</ele>
        <time>2015-01-25T08:51:25Z</time>
      </trkpt>
      <trkpt lat="48.66875" lon="-3.28974">
        <ele>75</ele>
        <time>2015-01-25T08:51:26Z</time>
      </trkpt>
      <trkpt lat="48.66882" lon="-3.28976">
        <ele>75</ele>
        <time>2015-01-25T08:51:27Z</time>
      </trkpt>
      <trkpt lat="48.66887" lon="-3.28977">
        <ele>75</ele>
        <time>2015-01-25T08:51:28Z</time>
      </trkpt>
      <trkpt lat="48.66893" lon="-3.28979">
        <ele>75</ele>
        <time>2015-01-25T08:51:29Z</time>
      </trkpt>
      <trkpt lat="48.66899" lon="-3.28981">
        <ele>75</ele>
        <time>2015-01-25T08:51:30Z</time>
      </trkpt>
      <trkpt lat="48.66905" lon="-3.28983">
        <ele>75</ele>
        <time>2015-01-25T08:51:31Z</time>
      </trkpt>
      <trkpt lat="48.66911" lon="-3.28985">
        <ele>74</ele>
        <time>2015-01-25T08:51:32Z</time>
      </trkpt>
      <trkpt lat="48.66917" lon="-3.28987">
        <ele>74</ele>
        <time>2015-01-25T08:51:33Z</time>
      </trkpt>
      <trkpt lat="48.66923" lon="-3.28989">
        <ele>74</ele>
        <time>2015-01-25T08:51:34Z</time>
      </trkpt>
      <trkpt lat="48.6693" lon="-3.28991">
        <ele>74</ele>
        <time>2015-01-25T08:51:35Z</time>
      </trkpt>
      <trkpt lat="48.66936" lon="-3.28993">
        <ele>74</ele>
        <time>2015-01-25T08:51:36Z</time>
      </trkpt>
      <trkpt lat="48.66943" lon="-3.28994">
        <ele>74</ele>
        <time>2015-01-25T08:51:37Z</time>
      </trkpt>
      <trkpt lat="48.66949" lon="-3.28996">
        <ele>74</ele>
        <time>2015-01-25T08:51:38Z</time>
      </trkpt>
      <trkpt lat="48.66956" lon="-3.28997">
        <ele>74</ele>
        <time>2015-01-25T08:51:39Z</time>
      </trkpt>
      <trkpt lat="48.66963" lon="-3.28997">
        <ele>74</ele>
        <time>2015-01-25T08:51:40Z</time>
      </trkpt>
      <trkpt lat="48.6697" lon="-3.28996">
        <ele>74</ele>
        <time>2015-01-25T08:51:41Z</time>
      </trkpt>
      <trkpt lat="48.66977" lon="-3.28995">
        <ele>73</ele>
        <time>2015-01-25T08:51:42Z</time>
      </trkpt>
      <trkpt lat="48.66984" lon="-3.28993">
        <ele>73</ele>
        <time>2015-01-25T08:51:43Z</time>
      </trkpt>
      <trkpt lat="48.66991" lon="-3.2899">
        <ele>73</ele>
        <time>2015-01-25T08:51:44Z</time>
      </trkpt>
      <trkpt lat="48.66998" lon="-3.28987">
        <ele>73</ele>
        <time>2015-01-25T08:51:45Z</time>
      </trkpt>
      <trkpt lat="48.67004" lon="-3.28984">
        <ele>73</ele>
        <time>2015-01-25T08:51:46Z</time>
      </trkpt>
      <trkpt lat="48.67012" lon="-3.2898">
        <ele>72</ele>
        <time>2015-01-25T08:51:47Z</time>
      </trkpt>
      <trkpt lat="48.67018" lon="-3.28976">
        <ele>72</ele>
        <time>2015-01-25T08:51:48Z</time>
      </trkpt>
      <trkpt lat="48.67025" lon="-3.28971">
        <ele>72</ele>
        <time>2015-01-25T08:51:49Z</time>
      </trkpt>
      <trkpt lat="48.67032" lon="-3.28965">
        <ele>72</ele>
        <time>2015-01-25T08:51:50Z</time>
      </trkpt>
      <trkpt lat="48.67039" lon="-3.28959">
        <ele>71</ele>
        <time>2015-01-25T08:51:51Z</time>
      </trkpt>
      <trkpt lat="48.67047" lon="-3.28953">
        <ele>71</ele>
        <time>2015-01-25T08:51:52Z</time>
      </trkpt>
      <trkpt lat="48.67054" lon="-3.28947">
        <ele>71</ele>
        <time>2015-01-25T08:51:53Z</time>
      </trkpt>
      <trkpt lat="48.67061" lon="-3.28941">
        <ele>70</ele>
        <time>2015-01-25T08:51:54Z</time>
      </trkpt>
      <trkpt lat="48.67067" lon="-3.28935">
        <ele>70</ele>
        <time>2015-01-25T08:51:55Z</time>
      </trkpt>
      <trkpt lat="48.67074" lon="-3.28929">
        <ele>70</ele>
        <time>2015-01-25T08:51:56Z</time>
      </trkpt>
      <trkpt lat="48.6708" lon="-3.28922">
        <ele>69</ele>
        <time>2015-01-25T08:51:57Z</time>
      </trkpt>
      <trkpt lat="48.67087" lon="-3.28915">
        <ele>69</ele>
        <time>2015-01-25T08:51:58Z</time>
      </trkpt>
      <trkpt lat="48.67093" lon="-3.28907">
        <ele>69</ele>
        <time>2015-01-25T08:51:59Z</time>
      </trkpt>
      <trkpt lat="48.67099" lon="-3.28899">
        <ele>68</ele>
        <time>2015-01-25T08:52:00Z</time>
      </trkpt>
      <trkpt lat="48.67105" lon="-3.28891">
        <ele>68</ele>
        <time>2015-01-25T08:52:01Z</time>
      </trkpt>
      <trkpt lat="48.67112" lon="-3.28883">
        <ele>68</ele>
        <time>2015-01-25T08:52:02Z</time>
      </trkpt>
      <trkpt lat="48.67118" lon="-3.28876">
        <ele>68</ele>
        <time>2015-01-25T08:52:03Z</time>
      </trkpt>
      <trkpt lat="48.67125" lon="-3.28869">
        <ele>67</ele>
        <time>2015-01-25T08:52:04Z</time>
      </trkpt>
      <trkpt lat="48.67131" lon="-3.28863">
        <ele>67</ele>
        <time>2015-01-25T08:52:05Z</time>
      </trkpt>
      <trkpt lat="48.67138" lon="-3.28858">
        <ele>67</ele>
        <time>2015-01-25T08:52:06Z</time>
      </trkpt>
      <trkpt lat="48.67146" lon="-3.28854">
        <ele>67</ele>
        <time>2015-01-25T08:52:07Z</time>
      </trkpt>
      <trkpt lat="48.67153" lon="-3.28854">
        <ele>67</ele>
        <time>2015-01-25T08:52:08Z</time>
      </trkpt>
      <trkpt lat="48.67161" lon="-3.28855">
        <ele>66</ele>
        <time>2015-01-25T08:52:09Z</time>
      </trkpt>
      <trkpt lat="48.67169" lon="-3.28857">
        <ele>66</ele>
        <time>2015-01-25T08:52:10Z</time>
      </trkpt>
      <trkpt lat="48.67177" lon="-3.28862">
        <ele>66</ele>
        <time>2015-01-25T08:52:11Z</time>
      </trkpt>
      <trkpt lat="48.67184" lon="-3.28866">
        <ele>66</ele>
        <time>2015-01-25T08:52:12Z</time>
      </trkpt>
      <trkpt lat="48.67192" lon="-3.28871">
        <ele>66</ele>
        <time>2015-01-25T08:52:13Z</time>
      </trkpt>
      <trkpt lat="48.67199" lon="-3.28876">
        <ele>66</ele>
        <time>2015-01-25T08:52:14Z</time>
      </trkpt>
      <trkpt lat="48.67205" lon="-3.28882">
        <ele>66</ele>
        <time>2015-01-25T08:52:15Z</time>
      </trkpt>
      <trkpt lat="48.67212" lon="-3.28887">
        <ele>66</ele>
        <time>2015-01-25T08:52:16Z</time>
      </trkpt>
      <trkpt lat="48.67218" lon="-3.28892">
        <ele>66</ele>
        <time>2015-01-25T08:52:17Z</time>
      </trkpt>
      <trkpt lat="48.67225" lon="-3.28897">
        <ele>66</ele>
        <time>2015-01-25T08:52:18Z</time>
      </trkpt>
      <trkpt lat="48.67231" lon="-3.28902">
        <ele>66</ele>
        <time>2015-01-25T08:52:19Z</time>
      </trkpt>
      <trkpt lat="48.67237" lon="-3.28908">
        <ele>66</ele>
        <time>2015-01-25T08:52:20Z</time>
      </trkpt>
      <trkpt lat="48.67242" lon="-3.28913">
        <ele>66</ele>
        <time>2015-01-25T08:52:21Z</time>
      </trkpt>
      <trkpt lat="48.67248" lon="-3.28918">
        <ele>66</ele>
        <time>2015-01-25T08:52:22Z</time>
      </trkpt>
      <trkpt lat="48.67253" lon="-3.28923">
        <ele>66</ele>
        <time>2015-01-25T08:52:23Z</time>
      </trkpt>
      <trkpt lat="48.67258" lon="-3.28928">
        <ele>66</ele>
        <time>2015-01-25T08:52:24Z</time>
      </trkpt>
      <trkpt lat="48.67263" lon="-3.28933">
        <ele>66</ele>
        <time>2015-01-25T08:52:25Z</time>
      </trkpt>
      <trkpt lat="48.67268" lon="-3.28938">
        <ele>66</ele>
        <time>2015-01-25T08:52:26Z</time>
      </trkpt>
      <trkpt lat="48.67273" lon="-3.28943">
        <ele>66</ele>
        <time>2015-01-25T08:52:27Z</time>
      </trkpt>
      <trkpt lat="48.67277" lon="-3.28949">
        <ele>66</ele>
        <time>2015-01-25T08:52:28Z</time>
      </trkpt>
      <trkpt lat="48.67282" lon="-3.28954">
        <ele>66</ele>
        <time>2015-01-25T08:52:29Z</time>
      </trkpt>
      <trkpt lat="48.67287" lon="-3.2896">
        <ele>66</ele>
        <time>2015-01-25T08:52:30Z</time>
      </trkpt>
      <trkpt lat="48.67291" lon="-3.28966">
        <ele>66</ele>
        <time>2015-01-25T08:52:31Z</time>
      </trkpt>
      <trkpt lat="48.67296" lon="-3.28972">
        <ele>66</ele>
        <time>2015-01-25T08:52:32Z</time>
      </trkpt>
      <trkpt lat="48.673" lon="-3.28978">
        <ele>66</ele>
        <time>2015-01-25T08:52:33Z</time>
      </trkpt>
      <trkpt lat="48.67305" lon="-3.28985">
        <ele>66</ele>
        <time>2015-01-25T08:52:34Z</time>
      </trkpt>
      <trkpt lat="48.6731" lon="-3.28991">
        <ele>66</ele>
        <time>2015-01-25T08:52:35Z</time>
      </trkpt>
      <trkpt lat="48.67315" lon="-3.28998">
        <ele>66</ele>
        <time>2015-01-25T08:52:36Z</time>
      </trkpt>
      <trkpt lat="48.6732" lon="-3.29005">
        <ele>66</ele>
        <time>2015-01-25T08:52:37Z</time>
      </trkpt>
      <trkpt lat="48.67324" lon="-3.29012">
        <ele>66</ele>
        <time>2015-01-25T08:52:38Z</time>
      </trkpt>
      <trkpt lat="48.67329" lon="-3.29018">
        <ele>66</ele>
        <time>2015-01-25T08:52:39Z</time>
      </trkpt>
      <trkpt lat="48.67333" lon="-3.29025">
        <ele>66</ele>
        <time>2015-01-25T08:52:40Z</time>
      </trkpt>
      <trkpt lat="48.67338" lon="-3.29032">
        <ele>66</ele>
        <time>2015-01-25T08:52:41Z</time>
      </trkpt>
      <trkpt lat="48.67342" lon="-3.29039">
        <ele>66</ele>
        <time>2015-01-25T08:52:42Z</time>
      </trkpt>
      <trkpt lat="48.67346" lon="-3.29046">
        <ele>66</ele>
        <time>2015-01-25T08:52:43Z</time>
      </trkpt>
      <trkpt lat="48.6735" lon="-3.29053">
        <ele>66</ele>
        <time>2015-01-25T08:52:44Z</time>
      </trkpt>
      <trkpt lat="48.67353" lon="-3.29061">
        <ele>66</ele>
        <time>2015-01-25T08:52:45Z</time>
      </trkpt>
      <trkpt lat="48.67357" lon="-3.29068">
        <ele>66</ele>
        <time>2015-01-25T08:52:46Z</time>
      </trkpt>
      <trkpt lat="48.67361" lon="-3.29076">
        <ele>66</ele>
        <time>2015-01-25T08:52:47Z</time>
      </trkpt>
      <trkpt lat="48.67364" lon="-3.29083">
        <ele>66</ele>
        <time>2015-01-25T08:52:48Z</time>
      </trkpt>
      <trkpt lat="48.67368" lon="-3.2909">
        <ele>66</ele>
        <time>2015-01-25T08:52:49Z</time>
      </trkpt>
      <trkpt lat="48.67371" lon="-3.29097">
        <ele>66</ele>
        <time>2015-01-25T08:52:50Z</time>
      </trkpt>
      <trkpt lat="48.67374" lon="-3.29103">
        <ele>66</ele>
        <time>2015-01-25T08:52:51Z</time>
      </trkpt>
      <trkpt lat="48.67378" lon="-3.29111">
        <ele>66</ele>
        <time>2015-01-25T08:52:52Z</time>
      </trkpt>
      <trkpt lat="48.67381" lon="-3.29117">
        <ele>66</ele>
        <time>2015-01-25T08:52:53Z</time>
      </trkpt>
      <trkpt lat="48.67385" lon="-3.29124">
        <ele>66</ele>
        <time>2015-01-25T08:52:54Z</time>
      </trkpt>
      <trkpt lat="48.67389" lon="-3.2913">
        <ele>66</ele>
        <time>2015-01-25T08:52:55Z</time>
      </trkpt>
      <trkpt lat="48.67393" lon="-3.29136">
        <ele>66</ele>
        <time>2015-01-25T08:52:56Z</time>
      </trkpt>
      <trkpt lat="48.67397" lon="-3.29143">
        <ele>66</ele>
        <time>2015-01-25T08:52:57Z</time>
      </trkpt>
      <trkpt lat="48.67402" lon="-3.2915">
        <ele>66</ele>
        <time>2015-01-25T08:52:58Z</time>
      </trkpt>
      <trkpt lat="48.67406" lon="-3.29155">
        <ele>66</ele>
        <time>2015-01-25T08:52:59Z</time>
      </trkpt>
      <trkpt lat="48.67411" lon="-3.29161">
        <ele>66</ele>
        <time>2015-01-25T08:53:00Z</time>
      </trkpt>
      <trkpt lat="48.67415" lon="-3.29166">
        <ele>66</ele>
        <time>2015-01-25T08:53:01Z</time>
      </trkpt>
      <trkpt lat="48.6742" lon="-3.2917">
        <ele>66</ele>
        <time>2015-01-25T08:53:02Z</time>
      </trkpt>
      <trkpt lat="48.67425" lon="-3.29174">
        <ele>66</ele>
        <time>2015-01-25T08:53:03Z</time>
      </trkpt>
      <trkpt lat="48.6743" lon="-3.29179">
        <ele>66</ele>
        <time>2015-01-25T08:53:04Z</time>
      </trkpt>
      <trkpt lat="48.67436" lon="-3.29183">
        <ele>66</ele>
        <time>2015-01-25T08:53:05Z</time>
      </trkpt>
      <trkpt lat="48.67441" lon="-3.29186">
        <ele>66</ele>
        <time>2015-01-25T08:53:06Z</time>
      </trkpt>
      <trkpt lat="48.67447" lon="-3.2919">
        <ele>66</ele>
        <time>2015-01-25T08:53:07Z</time>
      </trkpt>
      <trkpt lat="48.67453" lon="-3.29194">
        <ele>66</ele>
        <time>2015-01-25T08:53:08Z</time>
      </trkpt>
      <trkpt lat="48.67458" lon="-3.29198">
        <ele>66</ele>
        <time>2015-01-25T08:53:09Z</time>
      </trkpt>
      <trkpt lat="48.67464" lon="-3.29202">
        <ele>66</ele>
        <time>2015-01-25T08:53:10Z</time>
      </trkpt>
      <trkpt lat="48.67469" lon="-3.29207">
        <ele>66</ele>
        <time>2015-01-25T08:53:11Z</time>
      </trkpt>
      <trkpt lat="48.67474" lon="-3.29213">
        <ele>66</ele>
        <time>2015-01-25T08:53:12Z</time>
      </trkpt>
      <trkpt lat="48.67478" lon="-3.29219">
        <ele>67</ele>
        <time>2015-01-25T08:53:13Z</time>
      </trkpt>
      <trkpt lat="48.67482" lon="-3.29226">
        <ele>67</ele>
        <time>2015-01-25T08:53:14Z</time>
      </trkpt>
      <trkpt lat="48.67485" lon="-3.29233">
        <ele>67</ele>
        <time>2015-01-25T08:53:15Z</time>
      </trkpt>
      <trkpt lat="48.67487" lon="-3.29241">
        <ele>67</ele>
        <time>2015-01-25T08:53:16Z</time>
      </trkpt>
      <trkpt lat="48.67489" lon="-3.29249">
        <ele>68</ele>
        <time>2015-01-25T08:53:17Z</time>
      </trkpt>
      <trkpt lat="48.67489" lon="-3.29257">
        <ele>68</ele>
        <time>2015-01-25T08:53:18Z</time>
      </trkpt>
      <trkpt lat="48.67489" lon="-3.29274">
        <ele>68</ele>
        <time>2015-01-25T08:53:20Z</time>
      </trkpt>
      <trkpt lat="48.67488" lon="-3.29282">
        <ele>68</ele>
        <time>2015-01-25T08:53:21Z</time>
      </trkpt>
      <trkpt lat="48.67488" lon="-3.29291">
        <ele>68</ele>
        <time>2015-01-25T08:53:22Z</time>
      </trkpt>
      <trkpt lat="48.67487" lon="-3.29299">
        <ele>68</ele>
        <time>2015-01-25T08:53:23Z</time>
      </trkpt>
      <trkpt lat="48.67487" lon="-3.29308">
        <ele>69</ele>
        <time>2015-01-25T08:53:24Z</time>
      </trkpt>
      <trkpt lat="48.67486" lon="-3.29316">
        <ele>69</ele>
        <time>2015-01-25T08:53:25Z</time>
      </trkpt>
      <trkpt lat="48.67487" lon="-3.29325">
        <ele>69</ele>
        <time>2015-01-25T08:53:26Z</time>
      </trkpt>
      <trkpt lat="48.67487" lon="-3.29342">
        <ele>70</ele>
        <time>2015-01-25T08:53:28Z</time>
      </trkpt>
      <trkpt lat="48.67487" lon="-3.29349">
        <ele>70</ele>
        <time>2015-01-25T08:53:29Z</time>
      </trkpt>
      <trkpt lat="48.67488" lon="-3.29357">
        <ele>70</ele>
        <time>2015-01-25T08:53:30Z</time>
      </trkpt>
      <trkpt lat="48.67489" lon="-3.29364">
        <ele>70</ele>
        <time>2015-01-25T08:53:31Z</time>
      </trkpt>
      <trkpt lat="48.67491" lon="-3.29371">
        <ele>71</ele>
        <time>2015-01-25T08:53:32Z</time>
      </trkpt>
      <trkpt lat="48.67493" lon="-3.29379">
        <ele>71</ele>
        <time>2015-01-25T08:53:33Z</time>
      </trkpt>
      <trkpt lat="48.67495" lon="-3.29386">
        <ele>71</ele>
        <time>2015-01-25T08:53:34Z</time>
      </trkpt>
      <trkpt lat="48.67497" lon="-3.29393">
        <ele>72</ele>
        <time>2015-01-25T08:53:35Z</time>
      </trkpt>
      <trkpt lat="48.675" lon="-3.294">
        <ele>72</ele>
        <time>2015-01-25T08:53:36Z</time>
      </trkpt>
      <trkpt lat="48.67503" lon="-3.29408">
        <ele>72</ele>
        <time>2015-01-25T08:53:37Z</time>
      </trkpt>
      <trkpt lat="48.67507" lon="-3.29416">
        <ele>72</ele>
        <time>2015-01-25T08:53:38Z</time>
      </trkpt>
      <trkpt lat="48.6751" lon="-3.29424">
        <ele>73</ele>
        <time>2015-01-25T08:53:39Z</time>
      </trkpt>
      <trkpt lat="48.67513" lon="-3.29431">
        <ele>73</ele>
        <time>2015-01-25T08:53:40Z</time>
      </trkpt>
      <trkpt lat="48.67516" lon="-3.29439">
        <ele>73</ele>
        <time>2015-01-25T08:53:41Z</time>
      </trkpt>
      <trkpt lat="48.6752" lon="-3.29447">
        <ele>74</ele>
        <time>2015-01-25T08:53:42Z</time>
      </trkpt>
      <trkpt lat="48.67523" lon="-3.29455">
        <ele>74</ele>
        <time>2015-01-25T08:53:43Z</time>
      </trkpt>
      <trkpt lat="48.67526" lon="-3.29463">
        <ele>74</ele>
        <time>2015-01-25T08:53:44Z</time>
      </trkpt>
      <trkpt lat="48.6753" lon="-3.29472">
        <ele>74</ele>
        <time>2015-01-25T08:53:45Z</time>
      </trkpt>
      <trkpt lat="48.67533" lon="-3.29481">
        <ele>75</ele>
        <time>2015-01-25T08:53:46Z</time>
      </trkpt>
      <trkpt lat="48.67536" lon="-3.2949">
        <ele>75</ele>
        <time>2015-01-25T08:53:47Z</time>
      </trkpt>
      <trkpt lat="48.6754" lon="-3.29499">
        <ele>75</ele>
        <time>2015-01-25T08:53:48Z</time>
      </trkpt>
      <trkpt lat="48.67543" lon="-3.29508">
        <ele>75</ele>
        <time>2015-01-25T08:53:49Z</time>
      </trkpt>
      <trkpt lat="48.67546" lon="-3.29518">
        <ele>76</ele>
        <time>2015-01-25T08:53:50Z</time>
      </trkpt>
      <trkpt lat="48.67549" lon="-3.29527">
        <ele>76</ele>
        <time>2015-01-25T08:53:51Z</time>
      </trkpt>
      <trkpt lat="48.67552" lon="-3.29536">
        <ele>76</ele>
        <time>2015-01-25T08:53:52Z</time>
      </trkpt>
      <trkpt lat="48.67555" lon="-3.29546">
        <ele>76</ele>
        <time>2015-01-25T08:53:53Z</time>
      </trkpt>
      <trkpt lat="48.67558" lon="-3.29555">
        <ele>76</ele>
        <time>2015-01-25T08:53:54Z</time>
      </trkpt>
      <trkpt lat="48.6756" lon="-3.29564">
        <ele>77</ele>
        <time>2015-01-25T08:53:55Z</time>
      </trkpt>
      <trkpt lat="48.67562" lon="-3.29573">
        <ele>77</ele>
        <time>2015-01-25T08:53:56Z</time>
      </trkpt>
      <trkpt lat="48.67564" lon="-3.29582">
        <ele>77</ele>
        <time>2015-01-25T08:53:57Z</time>
      </trkpt>
      <trkpt lat="48.67567" lon="-3.29591">
        <ele>77</ele>
        <time>2015-01-25T08:53:58Z</time>
      </trkpt>
      <trkpt lat="48.67569" lon="-3.296">
        <ele>77</ele>
        <time>2015-01-25T08:53:59Z</time>
      </trkpt>
      <trkpt lat="48.67571" lon="-3.29608">
        <ele>77</ele>
        <time>2015-01-25T08:54:00Z</time>
      </trkpt>
      <trkpt lat="48.67574" lon="-3.29617">
        <ele>78</ele>
        <time>2015-01-25T08:54:01Z</time>
      </trkpt>
      <trkpt lat="48.67577" lon="-3.29624">
        <ele>78</ele>
        <time>2015-01-25T08:54:02Z</time>
      </trkpt>
      <trkpt lat="48.67581" lon="-3.29631">
        <ele>78</ele>
        <time>2015-01-25T08:54:03Z</time>
      </trkpt>
      <trkpt lat="48.67586" lon="-3.29637">
        <ele>78</ele>
        <time>2015-01-25T08:54:04Z</time>
      </trkpt>
      <trkpt lat="48.67592" lon="-3.29641">
        <ele>78</ele>
        <time>2015-01-25T08:54:05Z</time>
      </trkpt>
      <trkpt lat="48.67598" lon="-3.29645">
        <ele>79</ele>
        <time>2015-01-25T08:54:06Z</time>
      </trkpt>
      <trkpt lat="48.67604" lon="-3.29648">
        <ele>79</ele>
        <time>2015-01-25T08:54:07Z</time>
      </trkpt>
      <trkpt lat="48.67609" lon="-3.29652">
        <ele>79</ele>
        <time>2015-01-25T08:54:08Z</time>
      </trkpt>
      <trkpt lat="48.67615" lon="-3.29656">
        <ele>79</ele>
        <time>2015-01-25T08:54:09Z</time>
      </trkpt>
      <trkpt lat="48.67621" lon="-3.2966">
        <ele>79</ele>
        <time>2015-01-25T08:54:10Z</time>
      </trkpt>
      <trkpt lat="48.67627" lon="-3.29664">
        <ele>79</ele>
        <time>2015-01-25T08:54:11Z</time>
      </trkpt>
      <trkpt lat="48.67632" lon="-3.29668">
        <ele>80</ele>
        <time>2015-01-25T08:54:12Z</time>
      </trkpt>
      <trkpt lat="48.67638" lon="-3.29671">
        <ele>80</ele>
        <time>2015-01-25T08:54:13Z</time>
      </trkpt>
      <trkpt lat="48.67643" lon="-3.29675">
        <ele>80</ele>
        <time>2015-01-25T08:54:14Z</time>
      </trkpt>
      <trkpt lat="48.67649" lon="-3.29678">
        <ele>80</ele>
        <time>2015-01-25T08:54:15Z</time>
      </trkpt>
      <trkpt lat="48.67655" lon="-3.29681">
        <ele>80</ele>
        <time>2015-01-25T08:54:16Z</time>
      </trkpt>
      <trkpt lat="48.67661" lon="-3.29685">
        <ele>80</ele>
        <time>2015-01-25T08:54:17Z</time>
      </trkpt>
      <trkpt lat="48.67666" lon="-3.29688">
        <ele>80</ele>
        <time>2015-01-25T08:54:18Z</time>
      </trkpt>
      <trkpt lat="48.67672" lon="-3.29691">
        <ele>80</ele>
        <time>2015-01-25T08:54:19Z</time>
      </trkpt>
      <trkpt lat="48.67677" lon="-3.29695">
        <ele>81</ele>
        <time>2015-01-25T08:54:20Z</time>
      </trkpt>
      <trkpt lat="48.67683" lon="-3.29698">
        <ele>81</ele>
        <time>2015-01-25T08:54:21Z</time>
      </trkpt>
      <trkpt lat="48.67688" lon="-3.29702">
        <ele>81</ele>
        <time>2015-01-25T08:54:22Z</time>
      </trkpt>
      <trkpt lat="48.67694" lon="-3.29706">
        <ele>81</ele>
        <time>2015-01-25T08:54:23Z</time>
      </trkpt>
      <trkpt lat="48.67699" lon="-3.29712">
        <ele>81</ele>
        <time>2015-01-25T08:54:24Z</time>
      </trkpt>
      <trkpt lat="48.67704" lon="-3.29717">
        <ele>81</ele>
        <time>2015-01-25T08:54:25Z</time>
      </trkpt>
      <trkpt lat="48.67708" lon="-3.29724">
        <ele>81</ele>
        <time>2015-01-25T08:54:26Z</time>
      </trkpt>
      <trkpt lat="48.67712" lon="-3.29731">
        <ele>81</ele>
        <time>2015-01-25T08:54:27Z</time>
      </trkpt>
      <trkpt lat="48.67717" lon="-3.29738">
        <ele>81</ele>
        <time>2015-01-25T08:54:28Z</time>
      </trkpt>
      <trkpt lat="48.6772" lon="-3.29746">
        <ele>81</ele>
        <time>2015-01-25T08:54:29Z</time>
      </trkpt>
      <trkpt lat="48.67723" lon="-3.29754">
        <ele>81</ele>
        <time>2015-01-25T08:54:30Z</time>
      </trkpt>
      <trkpt lat="48.67725" lon="-3.29763">
        <ele>81</ele>
        <time>2015-01-25T08:54:31Z</time>
      </trkpt>
      <trkpt lat="48.67727" lon="-3.29772">
        <ele>81</ele>
        <time>2015-01-25T08:54:32Z</time>
      </trkpt>
      <trkpt lat="48.67729" lon="-3.29782">
        <ele>81</ele>
        <time>2015-01-25T08:54:33Z</time>
      </trkpt>
      <trkpt lat="48.67732" lon="-3.29792">
        <ele>81</ele>
        <time>2015-01-25T08:54:34Z</time>
      </trkpt>
      <trkpt lat="48.67736" lon="-3.29801">
        <ele>81</ele>
        <time>2015-01-25T08:54:35Z</time>
      </trkpt>
      <trkpt lat="48.67741" lon="-3.29809">
        <ele>81</ele>
        <time>2015-01-25T08:54:36Z</time>
      </trkpt>
      <trkpt lat="48.67746" lon="-3.29817">
        <ele>81</ele>
        <time>2015-01-25T08:54:37Z</time>
      </trkpt>
      <trkpt lat="48.67751" lon="-3.29823">
        <ele>81</ele>
        <time>2015-01-25T08:54:38Z</time>
      </trkpt>
      <trkpt lat="48.67756" lon="-3.29829">
        <ele>81</ele>
        <time>2015-01-25T08:54:39Z</time>
      </trkpt>
      <trkpt lat="48.67762" lon="-3.29835">
        <ele>81</ele>
        <time>2015-01-25T08:54:40Z</time>
      </trkpt>
      <trkpt lat="48.67767" lon="-3.29841">
        <ele>81</ele>
        <time>2015-01-25T08:54:41Z</time>
      </trkpt>
      <trkpt lat="48.67772" lon="-3.29847">
        <ele>81</ele>
        <time>2015-01-25T08:54:42Z</time>
      </trkpt>
      <trkpt lat="48.67777" lon="-3.29853">
        <ele>81</ele>
        <time>2015-01-25T08:54:43Z</time>
      </trkpt>
      <trkpt lat="48.67783" lon="-3.29858">
        <ele>81</ele>
        <time>2015-01-25T08:54:44Z</time>
      </trkpt>
      <trkpt lat="48.67788" lon="-3.29864">
        <ele>81</ele>
        <time>2015-01-25T08:54:45Z</time>
      </trkpt>
      <trkpt lat="48.67794" lon="-3.2987">
        <ele>82</ele>
        <time>2015-01-25T08:54:46Z</time>
      </trkpt>
      <trkpt lat="48.67799" lon="-3.29876">
        <ele>82</ele>
        <time>2015-01-25T08:54:47Z</time>
      </trkpt>
      <trkpt lat="48.67805" lon="-3.29882">
        <ele>82</ele>
        <time>2015-01-25T08:54:48Z</time>
      </trkpt>
      <trkpt lat="48.67811" lon="-3.29889">
        <ele>82</ele>
        <time>2015-01-25T08:54:49Z</time>
      </trkpt>
      <trkpt lat="48.67816" lon="-3.29895">
        <ele>82</ele>
        <time>2015-01-25T08:54:50Z</time>
      </trkpt>
      <trkpt lat="48.67822" lon="-3.29902">
        <ele>82</ele>
        <time>2015-01-25T08:54:51Z</time>
      </trkpt>
      <trkpt lat="48.67827" lon="-3.29909">
        <ele>82</ele>
        <time>2015-01-25T08:54:52Z</time>
      </trkpt>
      <trkpt lat="48.67833" lon="-3.29917">
        <ele>82</ele>
        <time>2015-01-25T08:54:53Z</time>
      </trkpt>
      <trkpt lat="48.67838" lon="-3.29925">
        <ele>82</ele>
        <time>2015-01-25T08:54:54Z</time>
      </trkpt>
      <trkpt lat="48.67843" lon="-3.29932">
        <ele>82</ele>
        <time>2015-01-25T08:54:55Z</time>
      </trkpt>
      <trkpt lat="48.67848" lon="-3.2994">
        <ele>82</ele>
        <time>2015-01-25T08:54:56Z</time>
      </trkpt>
      <trkpt lat="48.67854" lon="-3.29948">
        <ele>82</ele>
        <time>2015-01-25T08:54:57Z</time>
      </trkpt>
      <trkpt lat="48.67859" lon="-3.29955">
        <ele>82</ele>
        <time>2015-01-25T08:54:58Z</time>
      </trkpt>
      <trkpt lat="48.67865" lon="-3.29962">
        <ele>82</ele>
        <time>2015-01-25T08:54:59Z</time>
      </trkpt>
      <trkpt lat="48.67872" lon="-3.2997">
        <ele>82</ele>
        <time>2015-01-25T08:55:00Z</time>
      </trkpt>
      <trkpt lat="48.67878" lon="-3.29978">
        <ele>82</ele>
        <time>2015-01-25T08:55:01Z</time>
      </trkpt>
      <trkpt lat="48.67884" lon="-3.29986">
        <ele>82</ele>
        <time>2015-01-25T08:55:02Z</time>
      </trkpt>
      <trkpt lat="48.67891" lon="-3.29995">
        <ele>82</ele>
        <time>2015-01-25T08:55:03Z</time>
      </trkpt>
      <trkpt lat="48.67897" lon="-3.30005">
        <ele>82</ele>
        <time>2015-01-25T08:55:04Z</time>
      </trkpt>
      <trkpt lat="48.67903" lon="-3.30015">
        <ele>82</ele>
        <time>2015-01-25T08:55:05Z</time>
      </trkpt>
      <trkpt lat="48.67908" lon="-3.30026">
        <ele>82</ele>
        <time>2015-01-25T08:55:06Z</time>
      </trkpt>
      <trkpt lat="48.67914" lon="-3.30036">
        <ele>82</ele>
        <time>2015-01-25T08:55:07Z</time>
      </trkpt>
      <trkpt lat="48.6792" lon="-3.30046">
        <ele>82</ele>
        <time>2015-01-25T08:55:08Z</time>
      </trkpt>
      <trkpt lat="48.67925" lon="-3.30057">
        <ele>82</ele>
        <time>2015-01-25T08:55:09Z</time>
      </trkpt>
      <trkpt lat="48.6793" lon="-3.30067">
        <ele>82</ele>
        <time>2015-01-25T08:55:10Z</time>
      </trkpt>
      <trkpt lat="48.67935" lon="-3.30077">
        <ele>82</ele>
        <time>2015-01-25T08:55:11Z</time>
      </trkpt>
      <trkpt lat="48.6794" lon="-3.30087">
        <ele>82</ele>
        <time>2015-01-25T08:55:12Z</time>
      </trkpt>
      <trkpt lat="48.67945" lon="-3.30096">
        <ele>82</ele>
        <time>2015-01-25T08:55:13Z</time>
      </trkpt>
      <trkpt lat="48.6795" lon="-3.30105">
        <ele>82</ele>
        <time>2015-01-25T08:55:14Z</time>
      </trkpt>
      <trkpt lat="48.67954" lon="-3.30114">
        <ele>82</ele>
        <time>2015-01-25T08:55:15Z</time>
      </trkpt>
      <trkpt lat="48.67959" lon="-3.30122">
        <ele>82</ele>
        <time>2015-01-25T08:55:16Z</time>
      </trkpt>
      <trkpt lat="48.67963" lon="-3.30129">
        <ele>82</ele>
        <time>2015-01-25T08:55:17Z</time>
      </trkpt>
      <trkpt lat="48.67967" lon="-3.30137">
        <ele>82</ele>
        <time>2015-01-25T08:55:18Z</time>
      </trkpt>
      <trkpt lat="48.67971" lon="-3.30144">
        <ele>82</ele>
        <time>2015-01-25T08:55:19Z</time>
      </trkpt>
      <trkpt lat="48.67975" lon="-3.30151">
        <ele>82</ele>
        <time>2015-01-25T08:55:20Z</time>
      </trkpt>
      <trkpt lat="48.67979" lon="-3.30158">
        <ele>82</ele>
        <time>2015-01-25T08:55:21Z</time>
      </trkpt>
      <trkpt lat="48.67984" lon="-3.30166">
        <ele>82</ele>
        <time>2015-01-25T08:55:22Z</time>
      </trkpt>
      <trkpt lat="48.67988" lon="-3.30173">
        <ele>82</ele>
        <time>2015-01-25T08:55:23Z</time>
      </trkpt>
      <trkpt lat="48.67992" lon="-3.30181">
        <ele>82</ele>
        <time>2015-01-25T08:55:24Z</time>
      </trkpt>
      <trkpt lat="48.67997" lon="-3.3019">
        <ele>82</ele>
        <time>2015-01-25T08:55:25Z</time>
      </trkpt>
      <trkpt lat="48.68001" lon="-3.30198">
        <ele>82</ele>
        <time>2015-01-25T08:55:26Z</time>
      </trkpt>
      <trkpt lat="48.68006" lon="-3.30207">
        <ele>82</ele>
        <time>2015-01-25T08:55:27Z</time>
      </trkpt>
      <trkpt lat="48.68011" lon="-3.30216">
        <ele>82</ele>
        <time>2015-01-25T08:55:28Z</time>
      </trkpt>
      <trkpt lat="48.68016" lon="-3.30225">
        <ele>82</ele>
        <time>2015-01-25T08:55:29Z</time>
      </trkpt>
      <trkpt lat="48.68021" lon="-3.30234">
        <ele>82</ele>
        <time>2015-01-25T08:55:30Z</time>
      </trkpt>
      <trkpt lat="48.68026" lon="-3.30243">
        <ele>82</ele>
        <time>2015-01-25T08:55:31Z</time>
      </trkpt>
      <trkpt lat="48.68031" lon="-3.30252">
        <ele>82</ele>
        <time>2015-01-25T08:55:32Z</time>
      </trkpt>
      <trkpt lat="48.68036" lon="-3.30261">
        <ele>82</ele>
        <time>2015-01-25T08:55:33Z</time>
      </trkpt>
      <trkpt lat="48.68041" lon="-3.3027">
        <ele>82</ele>
        <time>2015-01-25T08:55:34Z</time>
      </trkpt>
      <trkpt lat="48.68046" lon="-3.30278">
        <ele>82</ele>
        <time>2015-01-25T08:55:35Z</time>
      </trkpt>
      <trkpt lat="48.68052" lon="-3.30287">
        <ele>82</ele>
        <time>2015-01-25T08:55:36Z</time>
      </trkpt>
      <trkpt lat="48.68057" lon="-3.30294">
        <ele>82</ele>
        <time>2015-01-25T08:55:37Z</time>
      </trkpt>
      <trkpt lat="48.68063" lon="-3.30302">
        <ele>82</ele>
        <time>2015-01-25T08:55:38Z</time>
      </trkpt>
      <trkpt lat="48.68068" lon="-3.3031">
        <ele>82</ele>
        <time>2015-01-25T08:55:39Z</time>
      </trkpt>
      <trkpt lat="48.68074" lon="-3.30317">
        <ele>82</ele>
        <time>2015-01-25T08:55:40Z</time>
      </trkpt>
      <trkpt lat="48.68079" lon="-3.30324">
        <ele>82</ele>
        <time>2015-01-25T08:55:41Z</time>
      </trkpt>
      <trkpt lat="48.68085" lon="-3.30331">
        <ele>82</ele>
        <time>2015-01-25T08:55:42Z</time>
      </trkpt>
      <trkpt lat="48.6809" lon="-3.30339">
        <ele>82</ele>
        <time>2015-01-25T08:55:43Z</time>
      </trkpt>
      <trkpt lat="48.68096" lon="-3.30345">
        <ele>82</ele>
        <time>2015-01-25T08:55:44Z</time>
      </trkpt>
      <trkpt lat="48.68102" lon="-3.30352">
        <ele>82</ele>
        <time>2015-01-25T08:55:45Z</time>
      </trkpt>
      <trkpt lat="48.68107" lon="-3.30359">
        <ele>82</ele>
        <time>2015-01-25T08:55:46Z</time>
      </trkpt>
      <trkpt lat="48.68113" lon="-3.30365">
        <ele>83</ele>
        <time>2015-01-25T08:55:47Z</time>
      </trkpt>
      <trkpt lat="48.68118" lon="-3.30373">
        <ele>83</ele>
        <time>2015-01-25T08:55:48Z</time>
      </trkpt>
      <trkpt lat="48.68124" lon="-3.3038">
        <ele>83</ele>
        <time>2015-01-25T08:55:49Z</time>
      </trkpt>
      <trkpt lat="48.6813" lon="-3.30387">
        <ele>83</ele>
        <time>2015-01-25T08:55:50Z</time>
      </trkpt>
      <trkpt lat="48.68136" lon="-3.30394">
        <ele>83</ele>
        <time>2015-01-25T08:55:51Z</time>
      </trkpt>
      <trkpt lat="48.68142" lon="-3.30401">
        <ele>84</ele>
        <time>2015-01-25T08:55:52Z</time>
      </trkpt>
      <trkpt lat="48.68148" lon="-3.30408">
        <ele>84</ele>
        <time>2015-01-25T08:55:53Z</time>
      </trkpt>
      <trkpt lat="48.68153" lon="-3.30415">
        <ele>84</ele>
        <time>2015-01-25T08:55:54Z</time>
      </trkpt>
      <trkpt lat="48.68159" lon="-3.30422">
        <ele>84</ele>
        <time>2015-01-25T08:55:55Z</time>
      </trkpt>
      <trkpt lat="48.68165" lon="-3.30428">
        <ele>84</ele>
        <time>2015-01-25T08:55:56Z</time>
      </trkpt>
      <trkpt lat="48.68171" lon="-3.30435">
        <ele>84</ele>
        <time>2015-01-25T08:55:57Z</time>
      </trkpt>
      <trkpt lat="48.68177" lon="-3.30442">
        <ele>85</ele>
        <time>2015-01-25T08:55:58Z</time>
      </trkpt>
      <trkpt lat="48.68183" lon="-3.30448">
        <ele>85</ele>
        <time>2015-01-25T08:55:59Z</time>
      </trkpt>
      <trkpt lat="48.68188" lon="-3.30455">
        <ele>85</ele>
        <time>2015-01-25T08:56:00Z</time>
      </trkpt>
      <trkpt lat="48.68194" lon="-3.30462">
        <ele>85</ele>
        <time>2015-01-25T08:56:01Z</time>
      </trkpt>
      <trkpt lat="48.68199" lon="-3.30469">
        <ele>85</ele>
        <time>2015-01-25T08:56:02Z</time>
      </trkpt>
      <trkpt lat="48.68204" lon="-3.30476">
        <ele>85</ele>
        <time>2015-01-25T08:56:03Z</time>
      </trkpt>
      <trkpt lat="48.68209" lon="-3.30484">
        <ele>85</ele>
        <time>2015-01-25T08:56:04Z</time>
      </trkpt>
      <trkpt lat="48.68214" lon="-3.30492">
        <ele>85</ele>
        <time>2015-01-25T08:56:05Z</time>
      </trkpt>
      <trkpt lat="48.68219" lon="-3.30499">
        <ele>85</ele>
        <time>2015-01-25T08:56:06Z</time>
      </trkpt>
      <trkpt lat="48.68224" lon="-3.30507">
        <ele>85</ele>
        <time>2015-01-25T08:56:07Z</time>
      </trkpt>
      <trkpt lat="48.68229" lon="-3.30514">
        <ele>86</ele>
        <time>2015-01-25T08:56:08Z</time>
      </trkpt>
      <trkpt lat="48.68234" lon="-3.30521">
        <ele>86</ele>
        <time>2015-01-25T08:56:09Z</time>
      </trkpt>
      <trkpt lat="48.68238" lon="-3.30529">
        <ele>86</ele>
        <time>2015-01-25T08:56:10Z</time>
      </trkpt>
      <trkpt lat="48.68243" lon="-3.30536">
        <ele>86</ele>
        <time>2015-01-25T08:56:11Z</time>
      </trkpt>
      <trkpt lat="48.68248" lon="-3.30543">
        <ele>87</ele>
        <time>2015-01-25T08:56:12Z</time>
      </trkpt>
      <trkpt lat="48.68253" lon="-3.3055">
        <ele>87</ele>
        <time>2015-01-25T08:56:13Z</time>
      </trkpt>
      <trkpt lat="48.68258" lon="-3.30557">
        <ele>87</ele>
        <time>2015-01-25T08:56:14Z</time>
      </trkpt>
      <trkpt lat="48.68263" lon="-3.30564">
        <ele>88</ele>
        <time>2015-01-25T08:56:15Z</time>
      </trkpt>
      <trkpt lat="48.68268" lon="-3.30571">
        <ele>88</ele>
        <time>2015-01-25T08:56:16Z</time>
      </trkpt>
      <trkpt lat="48.68273" lon="-3.30578">
        <ele>88</ele>
        <time>2015-01-25T08:56:17Z</time>
      </trkpt>
      <trkpt lat="48.68278" lon="-3.30585">
        <ele>88</ele>
        <time>2015-01-25T08:56:18Z</time>
      </trkpt>
      <trkpt lat="48.68283" lon="-3.30591">
        <ele>89</ele>
        <time>2015-01-25T08:56:19Z</time>
      </trkpt>
      <trkpt lat="48.68288" lon="-3.30598">
        <ele>89</ele>
        <time>2015-01-25T08:56:20Z</time>
      </trkpt>
      <trkpt lat="48.68293" lon="-3.30604">
        <ele>89</ele>
        <time>2015-01-25T08:56:21Z</time>
      </trkpt>
      <trkpt lat="48.68298" lon="-3.3061">
        <ele>90</ele>
        <time>2015-01-25T08:56:22Z</time>
      </trkpt>
      <trkpt lat="48.68304" lon="-3.30617">
        <ele>90</ele>
        <time>2015-01-25T08:56:23Z</time>
      </trkpt>
      <trkpt lat="48.68309" lon="-3.30624">
        <ele>90</ele>
        <time>2015-01-25T08:56:24Z</time>
      </trkpt>
      <trkpt lat="48.68314" lon="-3.3063">
        <ele>91</ele>
        <time>2015-01-25T08:56:25Z</time>
      </trkpt>
      <trkpt lat="48.68319" lon="-3.30638">
        <ele>91</ele>
        <time>2015-01-25T08:56:26Z</time>
      </trkpt>
      <trkpt lat="48.68325" lon="-3.30645">
        <ele>91</ele>
        <time>2015-01-25T08:56:27Z</time>
      </trkpt>
      <trkpt lat="48.6833" lon="-3.30653">
        <ele>92</ele>
        <time>2015-01-25T08:56:28Z</time>
      </trkpt>
      <trkpt lat="48.68334" lon="-3.30662">
        <ele>92</ele>
        <time>2015-01-25T08:56:29Z</time>
      </trkpt>
      <trkpt lat="48.68338" lon="-3.3067">
        <ele>92</ele>
        <time>2015-01-25T08:56:30Z</time>
      </trkpt>
      <trkpt lat="48.68342" lon="-3.30678">
        <ele>92</ele>
        <time>2015-01-25T08:56:31Z</time>
      </trkpt>
      <trkpt lat="48.68346" lon="-3.30687">
        <ele>93</ele>
        <time>2015-01-25T08:56:32Z</time>
      </trkpt>
      <trkpt lat="48.68351" lon="-3.30696">
        <ele>93</ele>
        <time>2015-01-25T08:56:33Z</time>
      </trkpt>
      <trkpt lat="48.68354" lon="-3.30705">
        <ele>93</ele>
        <time>2015-01-25T08:56:34Z</time>
      </trkpt>
      <trkpt lat="48.68359" lon="-3.30715">
        <ele>93</ele>
        <time>2015-01-25T08:56:35Z</time>
      </trkpt>
      <trkpt lat="48.68362" lon="-3.30724">
        <ele>93</ele>
        <time>2015-01-25T08:56:36Z</time>
      </trkpt>
      <trkpt lat="48.68366" lon="-3.30734">
        <ele>93</ele>
        <time>2015-01-25T08:56:37Z</time>
      </trkpt>
      <trkpt lat="48.68369" lon="-3.30744">
        <ele>93</ele>
        <time>2015-01-25T08:56:38Z</time>
      </trkpt>
      <trkpt lat="48.68372" lon="-3.30753">
        <ele>93</ele>
        <time>2015-01-25T08:56:39Z</time>
      </trkpt>
      <trkpt lat="48.68375" lon="-3.30763">
        <ele>93</ele>
        <time>2015-01-25T08:56:40Z</time>
      </trkpt>
      <trkpt lat="48.68378" lon="-3.30773">
        <ele>93</ele>
        <time>2015-01-25T08:56:41Z</time>
      </trkpt>
      <trkpt lat="48.68382" lon="-3.30783">
        <ele>93</ele>
        <time>2015-01-25T08:56:42Z</time>
      </trkpt>
      <trkpt lat="48.68385" lon="-3.30793">
        <ele>93</ele>
        <time>2015-01-25T08:56:43Z</time>
      </trkpt>
      <trkpt lat="48.68388" lon="-3.30802">
        <ele>93</ele>
        <time>2015-01-25T08:56:44Z</time>
      </trkpt>
      <trkpt lat="48.68392" lon="-3.30811">
        <ele>94</ele>
        <time>2015-01-25T08:56:45Z</time>
      </trkpt>
      <trkpt lat="48.68396" lon="-3.30821">
        <ele>94</ele>
        <time>2015-01-25T08:56:46Z</time>
      </trkpt>
      <trkpt lat="48.68399" lon="-3.3083">
        <ele>94</ele>
        <time>2015-01-25T08:56:47Z</time>
      </trkpt>
      <trkpt lat="48.68404" lon="-3.30838">
        <ele>94</ele>
        <time>2015-01-25T08:56:48Z</time>
      </trkpt>
      <trkpt lat="48.68408" lon="-3.30847">
        <ele>94</ele>
        <time>2015-01-25T08:56:49Z</time>
      </trkpt>
      <trkpt lat="48.68412" lon="-3.30855">
        <ele>94</ele>
        <time>2015-01-25T08:56:50Z</time>
      </trkpt>
      <trkpt lat="48.68417" lon="-3.30863">
        <ele>94</ele>
        <time>2015-01-25T08:56:51Z</time>
      </trkpt>
      <trkpt lat="48.68422" lon="-3.30871">
        <ele>94</ele>
        <time>2015-01-25T08:56:52Z</time>
      </trkpt>
      <trkpt lat="48.68427" lon="-3.30879">
        <ele>95</ele>
        <time>2015-01-25T08:56:53Z</time>
      </trkpt>
      <trkpt lat="48.68431" lon="-3.30887">
        <ele>95</ele>
        <time>2015-01-25T08:56:54Z</time>
      </trkpt>
      <trkpt lat="48.68436" lon="-3.30894">
        <ele>95</ele>
        <time>2015-01-25T08:56:55Z</time>
      </trkpt>
      <trkpt lat="48.68441" lon="-3.30902">
        <ele>95</ele>
        <time>2015-01-25T08:56:56Z</time>
      </trkpt>
      <trkpt lat="48.68446" lon="-3.3091">
        <ele>95</ele>
        <time>2015-01-25T08:56:57Z</time>
      </trkpt>
      <trkpt lat="48.68452" lon="-3.30918">
        <ele>95</ele>
        <time>2015-01-25T08:56:58Z</time>
      </trkpt>
      <trkpt lat="48.68457" lon="-3.30926">
        <ele>95</ele>
        <time>2015-01-25T08:56:59Z</time>
      </trkpt>
      <trkpt lat="48.68462" lon="-3.30934">
        <ele>96</ele>
        <time>2015-01-25T08:57:00Z</time>
      </trkpt>
      <trkpt lat="48.68467" lon="-3.30942">
        <ele>96</ele>
        <time>2015-01-25T08:57:01Z</time>
      </trkpt>
      <trkpt lat="48.68472" lon="-3.3095">
        <ele>96</ele>
        <time>2015-01-25T08:57:02Z</time>
      </trkpt>
      <trkpt lat="48.68477" lon="-3.30959">
        <ele>96</ele>
        <time>2015-01-25T08:57:03Z</time>
      </trkpt>
      <trkpt lat="48.68483" lon="-3.30967">
        <ele>96</ele>
        <time>2015-01-25T08:57:04Z</time>
      </trkpt>
      <trkpt lat="48.68488" lon="-3.30976">
        <ele>96</ele>
        <time>2015-01-25T08:57:05Z</time>
      </trkpt>
      <trkpt lat="48.68493" lon="-3.30984">
        <ele>96</ele>
        <time>2015-01-25T08:57:06Z</time>
      </trkpt>
      <trkpt lat="48.68498" lon="-3.30993">
        <ele>96</ele>
        <time>2015-01-25T08:57:07Z</time>
      </trkpt>
      <trkpt lat="48.68503" lon="-3.31001">
        <ele>96</ele>
        <time>2015-01-25T08:57:08Z</time>
      </trkpt>
      <trkpt lat="48.68508" lon="-3.31009">
        <ele>97</ele>
        <time>2015-01-25T08:57:09Z</time>
      </trkpt>
      <trkpt lat="48.68513" lon="-3.31017">
        <ele>97</ele>
        <time>2015-01-25T08:57:10Z</time>
      </trkpt>
      <trkpt lat="48.68517" lon="-3.31026">
        <ele>97</ele>
        <time>2015-01-25T08:57:11Z</time>
      </trkpt>
      <trkpt lat="48.68522" lon="-3.31034">
        <ele>97</ele>
        <time>2015-01-25T08:57:12Z</time>
      </trkpt>
      <trkpt lat="48.68525" lon="-3.31043">
        <ele>97</ele>
        <time>2015-01-25T08:57:13Z</time>
      </trkpt>
      <trkpt lat="48.68529" lon="-3.31052">
        <ele>97</ele>
        <time>2015-01-25T08:57:14Z</time>
      </trkpt>
      <trkpt lat="48.68533" lon="-3.31062">
        <ele>97</ele>
        <time>2015-01-25T08:57:15Z</time>
      </trkpt>
      <trkpt lat="48.68536" lon="-3.31071">
        <ele>98</ele>
        <time>2015-01-25T08:57:16Z</time>
      </trkpt>
      <trkpt lat="48.68539" lon="-3.31081">
        <ele>98</ele>
        <time>2015-01-25T08:57:17Z</time>
      </trkpt>
      <trkpt lat="48.68543" lon="-3.31091">
        <ele>98</ele>
        <time>2015-01-25T08:57:18Z</time>
      </trkpt>
      <trkpt lat="48.68547" lon="-3.31101">
        <ele>98</ele>
        <time>2015-01-25T08:57:19Z</time>
      </trkpt>
      <trkpt lat="48.6855" lon="-3.3111">
        <ele>98</ele>
        <time>2015-01-25T08:57:20Z</time>
      </trkpt>
      <trkpt lat="48.68555" lon="-3.31119">
        <ele>98</ele>
        <time>2015-01-25T08:57:21Z</time>
      </trkpt>
      <trkpt lat="48.6856" lon="-3.31128">
        <ele>98</ele>
        <time>2015-01-25T08:57:22Z</time>
      </trkpt>
      <trkpt lat="48.68565" lon="-3.31136">
        <ele>99</ele>
        <time>2015-01-25T08:57:23Z</time>
      </trkpt>
      <trkpt lat="48.6857" lon="-3.31144">
        <ele>99</ele>
        <time>2015-01-25T08:57:24Z</time>
      </trkpt>
      <trkpt lat="48.68576" lon="-3.31152">
        <ele>99</ele>
        <time>2015-01-25T08:57:25Z</time>
      </trkpt>
      <trkpt lat="48.68581" lon="-3.31159">
        <ele>99</ele>
        <time>2015-01-25T08:57:26Z</time>
      </trkpt>
      <trkpt lat="48.68587" lon="-3.31166">
        <ele>99</ele>
        <time>2015-01-25T08:57:27Z</time>
      </trkpt>
      <trkpt lat="48.68593" lon="-3.31173">
        <ele>99</ele>
        <time>2015-01-25T08:57:28Z</time>
      </trkpt>
      <trkpt lat="48.68599" lon="-3.3118">
        <ele>99</ele>
        <time>2015-01-25T08:57:29Z</time>
      </trkpt>
      <trkpt lat="48.68606" lon="-3.31187">
        <ele>99</ele>
        <time>2015-01-25T08:57:30Z</time>
      </trkpt>
      <trkpt lat="48.68612" lon="-3.31193">
        <ele>99</ele>
        <time>2015-01-25T08:57:31Z</time>
      </trkpt>
      <trkpt lat="48.68618" lon="-3.31201">
        <ele>99</ele>
        <time>2015-01-25T08:57:32Z</time>
      </trkpt>
      <trkpt lat="48.68624" lon="-3.31207">
        <ele>99</ele>
        <time>2015-01-25T08:57:33Z</time>
      </trkpt>
      <trkpt lat="48.6863" lon="-3.31215">
        <ele>99</ele>
        <time>2015-01-25T08:57:34Z</time>
      </trkpt>
      <trkpt lat="48.68636" lon="-3.31222">
        <ele>99</ele>
        <time>2015-01-25T08:57:35Z</time>
      </trkpt>
      <trkpt lat="48.68643" lon="-3.31229">
        <ele>99</ele>
        <time>2015-01-25T08:57:36Z</time>
      </trkpt>
      <trkpt lat="48.68649" lon="-3.31236">
        <ele>99</ele>
        <time>2015-01-25T08:57:37Z</time>
      </trkpt>
      <trkpt lat="48.68655" lon="-3.31243">
        <ele>99</ele>
        <time>2015-01-25T08:57:38Z</time>
      </trkpt>
      <trkpt lat="48.68662" lon="-3.3125">
        <ele>99</ele>
        <time>2015-01-25T08:57:39Z</time>
      </trkpt>
      <trkpt lat="48.68668" lon="-3.31257">
        <ele>99</ele>
        <time>2015-01-25T08:57:40Z</time>
      </trkpt>
      <trkpt lat="48.68675" lon="-3.31264">
        <ele>99</ele>
        <time>2015-01-25T08:57:41Z</time>
      </trkpt>
      <trkpt lat="48.68681" lon="-3.31272">
        <ele>99</ele>
        <time>2015-01-25T08:57:42Z</time>
      </trkpt>
      <trkpt lat="48.68688" lon="-3.31279">
        <ele>99</ele>
        <time>2015-01-25T08:57:43Z</time>
      </trkpt>
      <trkpt lat="48.68695" lon="-3.31287">
        <ele>99</ele>
        <time>2015-01-25T08:57:44Z</time>
      </trkpt>
      <trkpt lat="48.68701" lon="-3.31294">
        <ele>99</ele>
        <time>2015-01-25T08:57:45Z</time>
      </trkpt>
      <trkpt lat="48.68708" lon="-3.31302">
        <ele>99</ele>
        <time>2015-01-25T08:57:46Z</time>
      </trkpt>
      <trkpt lat="48.68715" lon="-3.31309">
        <ele>99</ele>
        <time>2015-01-25T08:57:47Z</time>
      </trkpt>
      <trkpt lat="48.68722" lon="-3.31317">
        <ele>99</ele>
        <time>2015-01-25T08:57:48Z</time>
      </trkpt>
      <trkpt lat="48.68729" lon="-3.31325">
        <ele>99</ele>
        <time>2015-01-25T08:57:49Z</time>
      </trkpt>
      <trkpt lat="48.68736" lon="-3.31333">
        <ele>99</ele>
        <time>2015-01-25T08:57:50Z</time>
      </trkpt>
      <trkpt lat="48.68743" lon="-3.3134">
        <ele>99</ele>
        <time>2015-01-25T08:57:51Z</time>
      </trkpt>
      <trkpt lat="48.6875" lon="-3.31348">
        <ele>99</ele>
        <time>2015-01-25T08:57:52Z</time>
      </trkpt>
      <trkpt lat="48.68757" lon="-3.31356">
        <ele>99</ele>
        <time>2015-01-25T08:57:53Z</time>
      </trkpt>
      <trkpt lat="48.68764" lon="-3.31364">
        <ele>99</ele>
        <time>2015-01-25T08:57:54Z</time>
      </trkpt>
      <trkpt lat="48.68772" lon="-3.31372">
        <ele>99</ele>
        <time>2015-01-25T08:57:55Z</time>
      </trkpt>
      <trkpt lat="48.68779" lon="-3.31381">
        <ele>99</ele>
        <time>2015-01-25T08:57:56Z</time>
      </trkpt>
      <trkpt lat="48.68786" lon="-3.3139">
        <ele>99</ele>
        <time>2015-01-25T08:57:57Z</time>
      </trkpt>
      <trkpt lat="48.68792" lon="-3.31399">
        <ele>99</ele>
        <time>2015-01-25T08:57:58Z</time>
      </trkpt>
      <trkpt lat="48.68799" lon="-3.31408">
        <ele>99</ele>
        <time>2015-01-25T08:57:59Z</time>
      </trkpt>
      <trkpt lat="48.68805" lon="-3.31418">
        <ele>99</ele>
        <time>2015-01-25T08:58:00Z</time>
      </trkpt>
      <trkpt lat="48.6881" lon="-3.31429">
        <ele>99</ele>
        <time>2015-01-25T08:58:01Z</time>
      </trkpt>
      <trkpt lat="48.68815" lon="-3.3144">
        <ele>99</ele>
        <time>2015-01-25T08:58:02Z</time>
      </trkpt>
      <trkpt lat="48.68819" lon="-3.31452">
        <ele>99</ele>
        <time>2015-01-25T08:58:03Z</time>
      </trkpt>
      <trkpt lat="48.68822" lon="-3.31463">
        <ele>99</ele>
        <time>2015-01-25T08:58:04Z</time>
      </trkpt>
      <trkpt lat="48.68826" lon="-3.31475">
        <ele>99</ele>
        <time>2015-01-25T08:58:05Z</time>
      </trkpt>
      <trkpt lat="48.68828" lon="-3.31487">
        <ele>99</ele>
        <time>2015-01-25T08:58:06Z</time>
      </trkpt>
      <trkpt lat="48.6883" lon="-3.315">
        <ele>99</ele>
        <time>2015-01-25T08:58:07Z</time>
      </trkpt>
      <trkpt lat="48.68832" lon="-3.31513">
        <ele>99</ele>
        <time>2015-01-25T08:58:08Z</time>
      </trkpt>
      <trkpt lat="48.68833" lon="-3.31526">
        <ele>99</ele>
        <time>2015-01-25T08:58:09Z</time>
      </trkpt>
      <trkpt lat="48.68834" lon="-3.3154">
        <ele>99</ele>
        <time>2015-01-25T08:58:10Z</time>
      </trkpt>
      <trkpt lat="48.68833" lon="-3.31567">
        <ele>99</ele>
        <time>2015-01-25T08:58:12Z</time>
      </trkpt>
      <trkpt lat="48.68832" lon="-3.3158">
        <ele>99</ele>
        <time>2015-01-25T08:58:13Z</time>
      </trkpt>
      <trkpt lat="48.68831" lon="-3.31593">
        <ele>99</ele>
        <time>2015-01-25T08:58:14Z</time>
      </trkpt>
      <trkpt lat="48.6883" lon="-3.31605">
        <ele>99</ele>
        <time>2015-01-25T08:58:15Z</time>
      </trkpt>
      <trkpt lat="48.68829" lon="-3.31617">
        <ele>99</ele>
        <time>2015-01-25T08:58:16Z</time>
      </trkpt>
      <trkpt lat="48.68828" lon="-3.31628">
        <ele>99</ele>
        <time>2015-01-25T08:58:17Z</time>
      </trkpt>
      <trkpt lat="48.68827" lon="-3.3164">
        <ele>99</ele>
        <time>2015-01-25T08:58:18Z</time>
      </trkpt>
      <trkpt lat="48.68826" lon="-3.31651">
        <ele>99</ele>
        <time>2015-01-25T08:58:19Z</time>
      </trkpt>
      <trkpt lat="48.68825" lon="-3.31661">
        <ele>99</ele>
        <time>2015-01-25T08:58:20Z</time>
      </trkpt>
      <trkpt lat="48.68824" lon="-3.31672">
        <ele>99</ele>
        <time>2015-01-25T08:58:21Z</time>
      </trkpt>
      <trkpt lat="48.68824" lon="-3.31681">
        <ele>99</ele>
        <time>2015-01-25T08:58:22Z</time>
      </trkpt>
      <trkpt lat="48.68822" lon="-3.31691">
        <ele>99</ele>
        <time>2015-01-25T08:58:23Z</time>
      </trkpt>
      <trkpt lat="48.68822" lon="-3.317">
        <ele>99</ele>
        <time>2015-01-25T08:58:24Z</time>
      </trkpt>
      <trkpt lat="48.68821" lon="-3.31709">
        <ele>99</ele>
        <time>2015-01-25T08:58:25Z</time>
      </trkpt>
      <trkpt lat="48.68822" lon="-3.31733">
        <ele>99</ele>
        <time>2015-01-25T08:58:28Z</time>
      </trkpt>
      <trkpt lat="48.68824" lon="-3.31739">
        <ele>99</ele>
        <time>2015-01-25T08:58:29Z</time>
      </trkpt>
      <trkpt lat="48.68827" lon="-3.31744">
        <ele>99</ele>
        <time>2015-01-25T08:58:30Z</time>
      </trkpt>
      <trkpt lat="48.68832" lon="-3.31747">
        <ele>99</ele>
        <time>2015-01-25T08:58:31Z</time>
      </trkpt>
      <trkpt lat="48.68837" lon="-3.31749">
        <ele>99</ele>
        <time>2015-01-25T08:58:32Z</time>
      </trkpt>
      <trkpt lat="48.68843" lon="-3.31749">
        <ele>99</ele>
        <time>2015-01-25T08:58:33Z</time>
      </trkpt>
      <trkpt lat="48.68849" lon="-3.3175">
        <ele>99</ele>
        <time>2015-01-25T08:58:34Z</time>
      </trkpt>
      <trkpt lat="48.68857" lon="-3.3175">
        <ele>99</ele>
        <time>2015-01-25T08:58:35Z</time>
      </trkpt>
      <trkpt lat="48.68864" lon="-3.31751">
        <ele>99</ele>
        <time>2015-01-25T08:58:36Z</time>
      </trkpt>
      <trkpt lat="48.68872" lon="-3.31752">
        <ele>99</ele>
        <time>2015-01-25T08:58:37Z</time>
      </trkpt>
      <trkpt lat="48.68881" lon="-3.31753">
        <ele>99</ele>
        <time>2015-01-25T08:58:38Z</time>
      </trkpt>
      <trkpt lat="48.6889" lon="-3.31754">
        <ele>99</ele>
        <time>2015-01-25T08:58:39Z</time>
      </trkpt>
      <trkpt lat="48.68898" lon="-3.31755">
        <ele>99</ele>
        <time>2015-01-25T08:58:40Z</time>
      </trkpt>
      <trkpt lat="48.68907" lon="-3.31756">
        <ele>99</ele>
        <time>2015-01-25T08:58:41Z</time>
      </trkpt>
      <trkpt lat="48.68916" lon="-3.31758">
        <ele>99</ele>
        <time>2015-01-25T08:58:42Z</time>
      </trkpt>
      <trkpt lat="48.68924" lon="-3.31759">
        <ele>99</ele>
        <time>2015-01-25T08:58:43Z</time>
      </trkpt>
      <trkpt lat="48.68932" lon="-3.3176">
        <ele>99</ele>
        <time>2015-01-25T08:58:44Z</time>
      </trkpt>
      <trkpt lat="48.68941" lon="-3.31761">
        <ele>99</ele>
        <time>2015-01-25T08:58:45Z</time>
      </trkpt>
      <trkpt lat="48.68949" lon="-3.31763">
        <ele>99</ele>
        <time>2015-01-25T08:58:46Z</time>
      </trkpt>
      <trkpt lat="48.68958" lon="-3.31764">
        <ele>99</ele>
        <time>2015-01-25T08:58:47Z</time>
      </trkpt>
      <trkpt lat="48.68966" lon="-3.31766">
        <ele>99</ele>
        <time>2015-01-25T08:58:48Z</time>
      </trkpt>
      <trkpt lat="48.68974" lon="-3.31767">
        <ele>99</ele>
        <time>2015-01-25T08:58:49Z</time>
      </trkpt>
      <trkpt lat="48.68983" lon="-3.31769">
        <ele>99</ele>
        <time>2015-01-25T08:58:50Z</time>
      </trkpt>
      <trkpt lat="48.68991" lon="-3.3177">
        <ele>99</ele>
        <time>2015-01-25T08:58:51Z</time>
      </trkpt>
      <trkpt lat="48.69" lon="-3.31772">
        <ele>99</ele>
        <time>2015-01-25T08:58:52Z</time>
      </trkpt>
      <trkpt lat="48.69009" lon="-3.31774">
        <ele>99</ele>
        <time>2015-01-25T08:58:53Z</time>
      </trkpt>
      <trkpt lat="48.69018" lon="-3.31775">
        <ele>99</ele>
        <time>2015-01-25T08:58:54Z</time>
      </trkpt>
      <trkpt lat="48.69027" lon="-3.31777">
        <ele>99</ele>
        <time>2015-01-25T08:58:55Z</time>
      </trkpt>
      <trkpt lat="48.69035" lon="-3.31778">
        <ele>99</ele>
        <time>2015-01-25T08:58:56Z</time>
      </trkpt>
      <trkpt lat="48.69044" lon="-3.3178">
        <ele>99</ele>
        <time>2015-01-25T08:58:57Z</time>
      </trkpt>
      <trkpt lat="48.69052" lon="-3.31782">
        <ele>99</ele>
        <time>2015-01-25T08:58:58Z</time>
      </trkpt>
      <trkpt lat="48.6906" lon="-3.31783">
        <ele>99</ele>
        <time>2015-01-25T08:58:59Z</time>
      </trkpt>
      <trkpt lat="48.69068" lon="-3.31784">
        <ele>99</ele>
        <time>2015-01-25T08:59:00Z</time>
      </trkpt>
      <trkpt lat="48.69076" lon="-3.31785">
        <ele>99</ele>
        <time>2015-01-25T08:59:01Z</time>
      </trkpt>
      <trkpt lat="48.69083" lon="-3.31786">
        <ele>99</ele>
        <time>2015-01-25T08:59:02Z</time>
      </trkpt>
      <trkpt lat="48.6909" lon="-3.31787">
        <ele>99</ele>
        <time>2015-01-25T08:59:03Z</time>
      </trkpt>
      <trkpt lat="48.69097" lon="-3.31787">
        <ele>99</ele>
        <time>2015-01-25T08:59:04Z</time>
      </trkpt>
      <trkpt lat="48.69104" lon="-3.31788">
        <ele>99</ele>
        <time>2015-01-25T08:59:05Z</time>
      </trkpt>
      <trkpt lat="48.6911" lon="-3.31788">
        <ele>99</ele>
        <time>2015-01-25T08:59:06Z</time>
      </trkpt>
      <trkpt lat="48.69115" lon="-3.31788">
        <ele>99</ele>
        <time>2015-01-25T08:59:07Z</time>
      </trkpt>
      <trkpt lat="48.69121" lon="-3.31788">
        <ele>99</ele>
        <time>2015-01-25T08:59:08Z</time>
      </trkpt>
      <trkpt lat="48.69126" lon="-3.31787">
        <ele>99</ele>
        <time>2015-01-25T08:59:09Z</time>
      </trkpt>
      <trkpt lat="48.69131" lon="-3.31787">
        <ele>99</ele>
        <time>2015-01-25T08:59:10Z</time>
      </trkpt>
      <trkpt lat="48.69146" lon="-3.31787">
        <ele>98</ele>
        <time>2015-01-25T08:59:13Z</time>
      </trkpt>
      <trkpt lat="48.6915" lon="-3.31787">
        <ele>98</ele>
        <time>2015-01-25T08:59:14Z</time>
      </trkpt>
      <trkpt lat="48.69154" lon="-3.31786">
        <ele>98</ele>
        <time>2015-01-25T08:59:15Z</time>
      </trkpt>
      <trkpt lat="48.69158" lon="-3.31785">
        <ele>98</ele>
        <time>2015-01-25T08:59:16Z</time>
      </trkpt>
      <trkpt lat="48.6916" lon="-3.31784">
        <ele>98</ele>
        <time>2015-01-25T08:59:17Z</time>
      </trkpt>
      <trkpt lat="48.69163" lon="-3.31783">
        <ele>98</ele>
        <time>2015-01-25T08:59:18Z</time>
      </trkpt>
      <trkpt lat="48.69165" lon="-3.31781">
        <ele>98</ele>
        <time>2015-01-25T08:59:19Z</time>
      </trkpt>
      <trkpt lat="48.69167" lon="-3.31781">
        <ele>98</ele>
        <time>2015-01-25T08:59:20Z</time>
      </trkpt>
      <trkpt lat="48.69168" lon="-3.3178">
        <ele>98</ele>
        <time>2015-01-25T08:59:21Z</time>
      </trkpt>
      <trkpt lat="48.69186" lon="-3.31781">
        <ele>97</ele>
        <time>2015-01-25T08:59:24Z</time>
      </trkpt>
      <trkpt lat="48.69189" lon="-3.3178">
        <ele>97</ele>
        <time>2015-01-25T08:59:25Z</time>
      </trkpt>
      <trkpt lat="48.69193" lon="-3.31779">
        <ele>97</ele>
        <time>2015-01-25T08:59:26Z</time>
      </trkpt>
      <trkpt lat="48.69197" lon="-3.31778">
        <ele>97</ele>
        <time>2015-01-25T08:59:27Z</time>
      </trkpt>
      <trkpt lat="48.69202" lon="-3.31776">
        <ele>97</ele>
        <time>2015-01-25T08:59:28Z</time>
      </trkpt>
      <trkpt lat="48.69207" lon="-3.31775">
        <ele>97</ele>
        <time>2015-01-25T08:59:29Z</time>
      </trkpt>
      <trkpt lat="48.69211" lon="-3.31773">
        <ele>97</ele>
        <time>2015-01-25T08:59:30Z</time>
      </trkpt>
      <trkpt lat="48.69216" lon="-3.31772">
        <ele>97</ele>
        <time>2015-01-25T08:59:31Z</time>
      </trkpt>
      <trkpt lat="48.69221" lon="-3.3177">
        <ele>97</ele>
        <time>2015-01-25T08:59:32Z</time>
      </trkpt>
      <trkpt lat="48.69226" lon="-3.31768">
        <ele>97</ele>
        <time>2015-01-25T08:59:33Z</time>
      </trkpt>
      <trkpt lat="48.69232" lon="-3.31767">
        <ele>97</ele>
        <time>2015-01-25T08:59:34Z</time>
      </trkpt>
      <trkpt lat="48.69238" lon="-3.31765">
        <ele>97</ele>
        <time>2015-01-25T08:59:35Z</time>
      </trkpt>
      <trkpt lat="48.69244" lon="-3.31763">
        <ele>96</ele>
        <time>2015-01-25T08:59:36Z</time>
      </trkpt>
      <trkpt lat="48.6925" lon="-3.31761">
        <ele>96</ele>
        <time>2015-01-25T08:59:37Z</time>
      </trkpt>
      <trkpt lat="48.69256" lon="-3.3176">
        <ele>96</ele>
        <time>2015-01-25T08:59:38Z</time>
      </trkpt>
      <trkpt lat="48.69263" lon="-3.31758">
        <ele>96</ele>
        <time>2015-01-25T08:59:39Z</time>
      </trkpt>
      <trkpt lat="48.6927" lon="-3.31756">
        <ele>96</ele>
        <time>2015-01-25T08:59:40Z</time>
      </trkpt>
      <trkpt lat="48.69276" lon="-3.31753">
        <ele>95</ele>
        <time>2015-01-25T08:59:41Z</time>
      </trkpt>
      <trkpt lat="48.69283" lon="-3.31751">
        <ele>95</ele>
        <time>2015-01-25T08:59:42Z</time>
      </trkpt>
      <trkpt lat="48.6929" lon="-3.31749">
        <ele>95</ele>
        <time>2015-01-25T08:59:43Z</time>
      </trkpt>
      <trkpt lat="48.69297" lon="-3.31747">
        <ele>95</ele>
        <time>2015-01-25T08:59:44Z</time>
      </trkpt>
      <trkpt lat="48.69304" lon="-3.31745">
        <ele>94</ele>
        <time>2015-01-25T08:59:45Z</time>
      </trkpt>
      <trkpt lat="48.69311" lon="-3.31743">
        <ele>94</ele>
        <time>2015-01-25T08:59:46Z</time>
      </trkpt>
      <trkpt lat="48.69318" lon="-3.31741">
        <ele>94</ele>
        <time>2015-01-25T08:59:47Z</time>
      </trkpt>
      <trkpt lat="48.69324" lon="-3.3174">
        <ele>94</ele>
        <time>2015-01-25T08:59:48Z</time>
      </trkpt>
      <trkpt lat="48.69331" lon="-3.31739">
        <ele>94</ele>
        <time>2015-01-25T08:59:49Z</time>
      </trkpt>
      <trkpt lat="48.69337" lon="-3.31738">
        <ele>94</ele>
        <time>2015-01-25T08:59:50Z</time>
      </trkpt>
      <trkpt lat="48.69344" lon="-3.31737">
        <ele>94</ele>
        <time>2015-01-25T08:59:51Z</time>
      </trkpt>
      <trkpt lat="48.6935" lon="-3.31737">
        <ele>94</ele>
        <time>2015-01-25T08:59:52Z</time>
      </trkpt>
      <trkpt lat="48.69357" lon="-3.31736">
        <ele>94</ele>
        <time>2015-01-25T08:59:53Z</time>
      </trkpt>
      <trkpt lat="48.69364" lon="-3.31736">
        <ele>94</ele>
        <time>2015-01-25T08:59:54Z</time>
      </trkpt>
      <trkpt lat="48.69371" lon="-3.31735">
        <ele>94</ele>
        <time>2015-01-25T08:59:55Z</time>
      </trkpt>
      <trkpt lat="48.69378" lon="-3.31735">
        <ele>93</ele>
        <time>2015-01-25T08:59:56Z</time>
      </trkpt>
      <trkpt lat="48.69385" lon="-3.31734">
        <ele>93</ele>
        <time>2015-01-25T08:59:57Z</time>
      </trkpt>
      <trkpt lat="48.69392" lon="-3.31734">
        <ele>93</ele>
        <time>2015-01-25T08:59:58Z</time>
      </trkpt>
      <trkpt lat="48.69398" lon="-3.31735">
        <ele>93</ele>
        <time>2015-01-25T08:59:59Z</time>
      </trkpt>
      <trkpt lat="48.6941" lon="-3.31734">
        <ele>93</ele>
        <time>2015-01-25T09:00:01Z</time>
      </trkpt>
      <trkpt lat="48.69416" lon="-3.31734">
        <ele>93</ele>
        <time>2015-01-25T09:00:02Z</time>
      </trkpt>
      <trkpt lat="48.69422" lon="-3.31734">
        <ele>93</ele>
        <time>2015-01-25T09:00:03Z</time>
      </trkpt>
      <trkpt lat="48.69427" lon="-3.31733">
        <ele>93</ele>
        <time>2015-01-25T09:00:04Z</time>
      </trkpt>
      <trkpt lat="48.69433" lon="-3.31732">
        <ele>93</ele>
        <time>2015-01-25T09:00:05Z</time>
      </trkpt>
      <trkpt lat="48.69439" lon="-3.31731">
        <ele>93</ele>
        <time>2015-01-25T09:00:06Z</time>
      </trkpt>
      <trkpt lat="48.69445" lon="-3.3173">
        <ele>93</ele>
        <time>2015-01-25T09:00:07Z</time>
      </trkpt>
      <trkpt lat="48.6945" lon="-3.31728">
        <ele>93</ele>
        <time>2015-01-25T09:00:08Z</time>
      </trkpt>
      <trkpt lat="48.69456" lon="-3.31727">
        <ele>93</ele>
        <time>2015-01-25T09:00:09Z</time>
      </trkpt>
      <trkpt lat="48.69462" lon="-3.31725">
        <ele>93</ele>
        <time>2015-01-25T09:00:10Z</time>
      </trkpt>
      <trkpt lat="48.69467" lon="-3.31722">
        <ele>93</ele>
        <time>2015-01-25T09:00:11Z</time>
      </trkpt>
      <trkpt lat="48.69473" lon="-3.31719">
        <ele>93</ele>
        <time>2015-01-25T09:00:12Z</time>
      </trkpt>
      <trkpt lat="48.69479" lon="-3.31715">
        <ele>93</ele>
        <time>2015-01-25T09:00:13Z</time>
      </trkpt>
      <trkpt lat="48.69484" lon="-3.31711">
        <ele>93</ele>
        <time>2015-01-25T09:00:14Z</time>
      </trkpt>
      <trkpt lat="48.6949" lon="-3.31706">
        <ele>92</ele>
        <time>2015-01-25T09:00:15Z</time>
      </trkpt>
      <trkpt lat="48.69496" lon="-3.31701">
        <ele>92</ele>
        <time>2015-01-25T09:00:16Z</time>
      </trkpt>
      <trkpt lat="48.69503" lon="-3.31696">
        <ele>91</ele>
        <time>2015-01-25T09:00:17Z</time>
      </trkpt>
      <trkpt lat="48.6951" lon="-3.3169">
        <ele>91</ele>
        <time>2015-01-25T09:00:18Z</time>
      </trkpt>
      <trkpt lat="48.69517" lon="-3.31684">
        <ele>90</ele>
        <time>2015-01-25T09:00:19Z</time>
      </trkpt>
      <trkpt lat="48.69524" lon="-3.31678">
        <ele>90</ele>
        <time>2015-01-25T09:00:20Z</time>
      </trkpt>
      <trkpt lat="48.69532" lon="-3.31671">
        <ele>90</ele>
        <time>2015-01-25T09:00:21Z</time>
      </trkpt>
      <trkpt lat="48.69539" lon="-3.31664">
        <ele>89</ele>
        <time>2015-01-25T09:00:22Z</time>
      </trkpt>
      <trkpt lat="48.69546" lon="-3.31657">
        <ele>89</ele>
        <time>2015-01-25T09:00:23Z</time>
      </trkpt>
      <trkpt lat="48.69553" lon="-3.31649">
        <ele>89</ele>
        <time>2015-01-25T09:00:24Z</time>
      </trkpt>
      <trkpt lat="48.6956" lon="-3.31641">
        <ele>88</ele>
        <time>2015-01-25T09:00:25Z</time>
      </trkpt>
      <trkpt lat="48.69566" lon="-3.31632">
        <ele>88</ele>
        <time>2015-01-25T09:00:26Z</time>
      </trkpt>
      <trkpt lat="48.69573" lon="-3.31622">
        <ele>88</ele>
        <time>2015-01-25T09:00:27Z</time>
      </trkpt>
      <trkpt lat="48.69579" lon="-3.31613">
        <ele>87</ele>
        <time>2015-01-25T09:00:28Z</time>
      </trkpt>
      <trkpt lat="48.69586" lon="-3.31603">
        <ele>87</ele>
        <time>2015-01-25T09:00:29Z</time>
      </trkpt>
      <trkpt lat="48.69593" lon="-3.31594">
        <ele>87</ele>
        <time>2015-01-25T09:00:30Z</time>
      </trkpt>
      <trkpt lat="48.696" lon="-3.31585">
        <ele>86</ele>
        <time>2015-01-25T09:00:31Z</time>
      </trkpt>
      <trkpt lat="48.69607" lon="-3.31577">
        <ele>86</ele>
        <time>2015-01-25T09:00:32Z</time>
      </trkpt>
      <trkpt lat="48.69614" lon="-3.3157">
        <ele>86</ele>
        <time>2015-01-25T09:00:33Z</time>
      </trkpt>
      <trkpt lat="48.69621" lon="-3.31563">
        <ele>86</ele>
        <time>2015-01-25T09:00:34Z</time>
      </trkpt>
      <trkpt lat="48.69629" lon="-3.31556">
        <ele>85</ele>
        <time>2015-01-25T09:00:35Z</time>
      </trkpt>
      <trkpt lat="48.69636" lon="-3.31549">
        <ele>85</ele>
        <time>2015-01-25T09:00:36Z</time>
      </trkpt>
      <trkpt lat="48.69643" lon="-3.31542">
        <ele>85</ele>
        <time>2015-01-25T09:00:37Z</time>
      </trkpt>
      <trkpt lat="48.69651" lon="-3.31535">
        <ele>85</ele>
        <time>2015-01-25T09:00:38Z</time>
      </trkpt>
      <trkpt lat="48.69657" lon="-3.31528">
        <ele>85</ele>
        <time>2015-01-25T09:00:39Z</time>
      </trkpt>
      <trkpt lat="48.69664" lon="-3.31519">
        <ele>85</ele>
        <time>2015-01-25T09:00:40Z</time>
      </trkpt>
      <trkpt lat="48.6967" lon="-3.31511">
        <ele>84</ele>
        <time>2015-01-25T09:00:41Z</time>
      </trkpt>
      <trkpt lat="48.69676" lon="-3.31503">
        <ele>84</ele>
        <time>2015-01-25T09:00:42Z</time>
      </trkpt>
      <trkpt lat="48.69682" lon="-3.31495">
        <ele>84</ele>
        <time>2015-01-25T09:00:43Z</time>
      </trkpt>
      <trkpt lat="48.69688" lon="-3.31487">
        <ele>84</ele>
        <time>2015-01-25T09:00:44Z</time>
      </trkpt>
      <trkpt lat="48.69694" lon="-3.31479">
        <ele>84</ele>
        <time>2015-01-25T09:00:45Z</time>
      </trkpt>
      <trkpt lat="48.697" lon="-3.3147">
        <ele>84</ele>
        <time>2015-01-25T09:00:46Z</time>
      </trkpt>
      <trkpt lat="48.69706" lon="-3.31462">
        <ele>84</ele>
        <time>2015-01-25T09:00:47Z</time>
      </trkpt>
      <trkpt lat="48.69712" lon="-3.31453">
        <ele>84</ele>
        <time>2015-01-25T09:00:48Z</time>
      </trkpt>
      <trkpt lat="48.69718" lon="-3.31445">
        <ele>84</ele>
        <time>2015-01-25T09:00:49Z</time>
      </trkpt>
      <trkpt lat="48.69724" lon="-3.31436">
        <ele>84</ele>
        <time>2015-01-25T09:00:50Z</time>
      </trkpt>
      <trkpt lat="48.6973" lon="-3.31428">
        <ele>84</ele>
        <time>2015-01-25T09:00:51Z</time>
      </trkpt>
      <trkpt lat="48.69736" lon="-3.3142">
        <ele>84</ele>
        <time>2015-01-25T09:00:52Z</time>
      </trkpt>
      <trkpt lat="48.69742" lon="-3.31412">
        <ele>84</ele>
        <time>2015-01-25T09:00:53Z</time>
      </trkpt>
      <trkpt lat="48.69748" lon="-3.31405">
        <ele>84</ele>
        <time>2015-01-25T09:00:54Z</time>
      </trkpt>
      <trkpt lat="48.69754" lon="-3.31399">
        <ele>84</ele>
        <time>2015-01-25T09:00:55Z</time>
      </trkpt>
      <trkpt lat="48.6976" lon="-3.31393">
        <ele>84</ele>
        <time>2015-01-25T09:00:56Z</time>
      </trkpt>
      <trkpt lat="48.69766" lon="-3.31388">
        <ele>84</ele>
        <time>2015-01-25T09:00:57Z</time>
      </trkpt>
      <trkpt lat="48.69772" lon="-3.31382">
        <ele>84</ele>
        <time>2015-01-25T09:00:58Z</time>
      </trkpt>
      <trkpt lat="48.69778" lon="-3.31377">
        <ele>84</ele>
        <time>2015-01-25T09:00:59Z</time>
      </trkpt>
      <trkpt lat="48.69784" lon="-3.31372">
        <ele>84</ele>
        <time>2015-01-25T09:01:00Z</time>
      </trkpt>
      <trkpt lat="48.6979" lon="-3.31367">
        <ele>84</ele>
        <time>2015-01-25T09:01:01Z</time>
      </trkpt>
      <trkpt lat="48.69797" lon="-3.31361">
        <ele>84</ele>
        <time>2015-01-25T09:01:02Z</time>
      </trkpt>
      <trkpt lat="48.69803" lon="-3.31356">
        <ele>84</ele>
        <time>2015-01-25T09:01:03Z</time>
      </trkpt>
      <trkpt lat="48.69809" lon="-3.31351">
        <ele>84</ele>
        <time>2015-01-25T09:01:04Z</time>
      </trkpt>
      <trkpt lat="48.69816" lon="-3.31346">
        <ele>84</ele>
        <time>2015-01-25T09:01:05Z</time>
      </trkpt>
      <trkpt lat="48.69823" lon="-3.3134">
        <ele>84</ele>
        <time>2015-01-25T09:01:06Z</time>
      </trkpt>
      <trkpt lat="48.69829" lon="-3.31335">
        <ele>84</ele>
        <time>2015-01-25T09:01:07Z</time>
      </trkpt>
      <trkpt lat="48.69836" lon="-3.31329">
        <ele>84</ele>
        <time>2015-01-25T09:01:08Z</time>
      </trkpt>
      <trkpt lat="48.69843" lon="-3.31323">
        <ele>84</ele>
        <time>2015-01-25T09:01:09Z</time>
      </trkpt>
      <trkpt lat="48.69849" lon="-3.31316">
        <ele>83</ele>
        <time>2015-01-25T09:01:10Z</time>
      </trkpt>
      <trkpt lat="48.69857" lon="-3.31309">
        <ele>83</ele>
        <time>2015-01-25T09:01:11Z</time>
      </trkpt>
      <trkpt lat="48.69864" lon="-3.31302">
        <ele>83</ele>
        <time>2015-01-25T09:01:12Z</time>
      </trkpt>
      <trkpt lat="48.69871" lon="-3.31294">
        <ele>83</ele>
        <time>2015-01-25T09:01:13Z</time>
      </trkpt>
      <trkpt lat="48.69878" lon="-3.31285">
        <ele>83</ele>
        <time>2015-01-25T09:01:14Z</time>
      </trkpt>
      <trkpt lat="48.69885" lon="-3.31276">
        <ele>82</ele>
        <time>2015-01-25T09:01:15Z</time>
      </trkpt>
      <trkpt lat="48.69891" lon="-3.31267">
        <ele>82</ele>
        <time>2015-01-25T09:01:16Z</time>
      </trkpt>
      <trkpt lat="48.69898" lon="-3.31258">
        <ele>82</ele>
        <time>2015-01-25T09:01:17Z</time>
      </trkpt>
      <trkpt lat="48.69904" lon="-3.31249">
        <ele>82</ele>
        <time>2015-01-25T09:01:18Z</time>
      </trkpt>
      <trkpt lat="48.6991" lon="-3.3124">
        <ele>82</ele>
        <time>2015-01-25T09:01:19Z</time>
      </trkpt>
      <trkpt lat="48.69917" lon="-3.31231">
        <ele>82</ele>
        <time>2015-01-25T09:01:20Z</time>
      </trkpt>
      <trkpt lat="48.69923" lon="-3.31222">
        <ele>82</ele>
        <time>2015-01-25T09:01:21Z</time>
      </trkpt>
      <trkpt lat="48.6993" lon="-3.31214">
        <ele>82</ele>
        <time>2015-01-25T09:01:22Z</time>
      </trkpt>
      <trkpt lat="48.69937" lon="-3.31205">
        <ele>82</ele>
        <time>2015-01-25T09:01:23Z</time>
      </trkpt>
      <trkpt lat="48.69944" lon="-3.31197">
        <ele>82</ele>
        <time>2015-01-25T09:01:24Z</time>
      </trkpt>
      <trkpt lat="48.69951" lon="-3.31189">
        <ele>82</ele>
        <time>2015-01-25T09:01:25Z</time>
      </trkpt>
      <trkpt lat="48.69958" lon="-3.31181">
        <ele>82</ele>
        <time>2015-01-25T09:01:26Z</time>
      </trkpt>
      <trkpt lat="48.69964" lon="-3.31172">
        <ele>82</ele>
        <time>2015-01-25T09:01:27Z</time>
      </trkpt>
      <trkpt lat="48.6997" lon="-3.31163">
        <ele>81</ele>
        <time>2015-01-25T09:01:28Z</time>
      </trkpt>
      <trkpt lat="48.69976" lon="-3.31154">
        <ele>81</ele>
        <time>2015-01-25T09:01:29Z</time>
      </trkpt>
      <trkpt lat="48.69982" lon="-3.31145">
        <ele>81</ele>
        <time>2015-01-25T09:01:30Z</time>
      </trkpt>
      <trkpt lat="48.69988" lon="-3.31136">
        <ele>81</ele>
        <time>2015-01-25T09:01:31Z</time>
      </trkpt>
      <trkpt lat="48.69993" lon="-3.31128">
        <ele>81</ele>
        <time>2015-01-25T09:01:32Z</time>
      </trkpt>
      <trkpt lat="48.69999" lon="-3.31119">
        <ele>81</ele>
        <time>2015-01-25T09:01:33Z</time>
      </trkpt>
      <trkpt lat="48.70005" lon="-3.31111">
        <ele>81</ele>
        <time>2015-01-25T09:01:34Z</time>
      </trkpt>
      <trkpt lat="48.7001" lon="-3.31103">
        <ele>81</ele>
        <time>2015-01-25T09:01:35Z</time>
      </trkpt>
      <trkpt lat="48.70016" lon="-3.31095">
        <ele>81</ele>
        <time>2015-01-25T09:01:36Z</time>
      </trkpt>
      <trkpt lat="48.70021" lon="-3.31087">
        <ele>81</ele>
        <time>2015-01-25T09:01:37Z</time>
      </trkpt>
      <trkpt lat="48.70027" lon="-3.31079">
        <ele>81</ele>
        <time>2015-01-25T09:01:38Z</time>
      </trkpt>
      <trkpt lat="48.70033" lon="-3.3107">
        <ele>81</ele>
        <time>2015-01-25T09:01:39Z</time>
      </trkpt>
      <trkpt lat="48.70038" lon="-3.31062">
        <ele>81</ele>
        <time>2015-01-25T09:01:40Z</time>
      </trkpt>
      <trkpt lat="48.70044" lon="-3.31053">
        <ele>81</ele>
        <time>2015-01-25T09:01:41Z</time>
      </trkpt>
      <trkpt lat="48.70049" lon="-3.31045">
        <ele>81</ele>
        <time>2015-01-25T09:01:42Z</time>
      </trkpt>
      <trkpt lat="48.70055" lon="-3.31036">
        <ele>81</ele>
        <time>2015-01-25T09:01:43Z</time>
      </trkpt>
      <trkpt lat="48.70061" lon="-3.31028">
        <ele>81</ele>
        <time>2015-01-25T09:01:44Z</time>
      </trkpt>
      <trkpt lat="48.70066" lon="-3.31019">
        <ele>81</ele>
        <time>2015-01-25T09:01:45Z</time>
      </trkpt>
      <trkpt lat="48.70072" lon="-3.3101">
        <ele>81</ele>
        <time>2015-01-25T09:01:46Z</time>
      </trkpt>
      <trkpt lat="48.70077" lon="-3.31001">
        <ele>81</ele>
        <time>2015-01-25T09:01:47Z</time>
      </trkpt>
      <trkpt lat="48.70083" lon="-3.30993">
        <ele>81</ele>
        <time>2015-01-25T09:01:48Z</time>
      </trkpt>
      <trkpt lat="48.70088" lon="-3.30983">
        <ele>81</ele>
        <time>2015-01-25T09:01:49Z</time>
      </trkpt>
      <trkpt lat="48.70093" lon="-3.30974">
        <ele>81</ele>
        <time>2015-01-25T09:01:50Z</time>
      </trkpt>
      <trkpt lat="48.70098" lon="-3.30965">
        <ele>81</ele>
        <time>2015-01-25T09:01:51Z</time>
      </trkpt>
      <trkpt lat="48.70103" lon="-3.30956">
        <ele>81</ele>
        <time>2015-01-25T09:01:52Z</time>
      </trkpt>
      <trkpt lat="48.70107" lon="-3.30946">
        <ele>81</ele>
        <time>2015-01-25T09:01:53Z</time>
      </trkpt>
      <trkpt lat="48.70111" lon="-3.30938">
        <ele>81</ele>
        <time>2015-01-25T09:01:54Z</time>
      </trkpt>
      <trkpt lat="48.70116" lon="-3.3093">
        <ele>81</ele>
        <time>2015-01-25T09:01:55Z</time>
      </trkpt>
      <trkpt lat="48.7012" lon="-3.30922">
        <ele>81</ele>
        <time>2015-01-25T09:01:56Z</time>
      </trkpt>
      <trkpt lat="48.70124" lon="-3.30914">
        <ele>81</ele>
        <time>2015-01-25T09:01:57Z</time>
      </trkpt>
      <trkpt lat="48.70129" lon="-3.30906">
        <ele>81</ele>
        <time>2015-01-25T09:01:58Z</time>
      </trkpt>
      <trkpt lat="48.70133" lon="-3.30899">
        <ele>81</ele>
        <time>2015-01-25T09:01:59Z</time>
      </trkpt>
      <trkpt lat="48.70137" lon="-3.30891">
        <ele>81</ele>
        <time>2015-01-25T09:02:00Z</time>
      </trkpt>
      <trkpt lat="48.70142" lon="-3.30884">
        <ele>81</ele>
        <time>2015-01-25T09:02:01Z</time>
      </trkpt>
      <trkpt lat="48.70147" lon="-3.30876">
        <ele>81</ele>
        <time>2015-01-25T09:02:02Z</time>
      </trkpt>
      <trkpt lat="48.70151" lon="-3.30869">
        <ele>81</ele>
        <time>2015-01-25T09:02:03Z</time>
      </trkpt>
      <trkpt lat="48.70156" lon="-3.30861">
        <ele>81</ele>
        <time>2015-01-25T09:02:04Z</time>
      </trkpt>
      <trkpt lat="48.70161" lon="-3.30854">
        <ele>81</ele>
        <time>2015-01-25T09:02:05Z</time>
      </trkpt>
      <trkpt lat="48.70167" lon="-3.30847">
        <ele>81</ele>
        <time>2015-01-25T09:02:06Z</time>
      </trkpt>
      <trkpt lat="48.70172" lon="-3.30839">
        <ele>81</ele>
        <time>2015-01-25T09:02:07Z</time>
      </trkpt>
      <trkpt lat="48.70177" lon="-3.30831">
        <ele>81</ele>
        <time>2015-01-25T09:02:08Z</time>
      </trkpt>
      <trkpt lat="48.70182" lon="-3.30823">
        <ele>81</ele>
        <time>2015-01-25T09:02:09Z</time>
      </trkpt>
      <trkpt lat="48.70188" lon="-3.30815">
        <ele>81</ele>
        <time>2015-01-25T09:02:10Z</time>
      </trkpt>
      <trkpt lat="48.70193" lon="-3.30806">
        <ele>81</ele>
        <time>2015-01-25T09:02:11Z</time>
      </trkpt>
      <trkpt lat="48.70199" lon="-3.30798">
        <ele>80</ele>
        <time>2015-01-25T09:02:12Z</time>
      </trkpt>
      <trkpt lat="48.70205" lon="-3.30789">
        <ele>80</ele>
        <time>2015-01-25T09:02:13Z</time>
      </trkpt>
      <trkpt lat="48.70211" lon="-3.30781">
        <ele>80</ele>
        <time>2015-01-25T09:02:14Z</time>
      </trkpt>
      <trkpt lat="48.70217" lon="-3.30773">
        <ele>80</ele>
        <time>2015-01-25T09:02:15Z</time>
      </trkpt>
      <trkpt lat="48.70223" lon="-3.30765">
        <ele>79</ele>
        <time>2015-01-25T09:02:16Z</time>
      </trkpt>
      <trkpt lat="48.70229" lon="-3.30757">
        <ele>79</ele>
        <time>2015-01-25T09:02:17Z</time>
      </trkpt>
      <trkpt lat="48.70235" lon="-3.30749">
        <ele>79</ele>
        <time>2015-01-25T09:02:18Z</time>
      </trkpt>
      <trkpt lat="48.70242" lon="-3.30742">
        <ele>79</ele>
        <time>2015-01-25T09:02:19Z</time>
      </trkpt>
      <trkpt lat="48.70248" lon="-3.30734">
        <ele>79</ele>
        <time>2015-01-25T09:02:20Z</time>
      </trkpt>
      <trkpt lat="48.70255" lon="-3.30726">
        <ele>78</ele>
        <time>2015-01-25T09:02:21Z</time>
      </trkpt>
      <trkpt lat="48.70261" lon="-3.30719">
        <ele>78</ele>
        <time>2015-01-25T09:02:22Z</time>
      </trkpt>
      <trkpt lat="48.70267" lon="-3.30711">
        <ele>78</ele>
        <time>2015-01-25T09:02:23Z</time>
      </trkpt>
      <trkpt lat="48.70274" lon="-3.30704">
        <ele>78</ele>
        <time>2015-01-25T09:02:24Z</time>
      </trkpt>
      <trkpt lat="48.7028" lon="-3.30696">
        <ele>78</ele>
        <time>2015-01-25T09:02:25Z</time>
      </trkpt>
      <trkpt lat="48.70287" lon="-3.30688">
        <ele>78</ele>
        <time>2015-01-25T09:02:26Z</time>
      </trkpt>
      <trkpt lat="48.70294" lon="-3.30681">
        <ele>78</ele>
        <time>2015-01-25T09:02:27Z</time>
      </trkpt>
      <trkpt lat="48.703" lon="-3.30673">
        <ele>78</ele>
        <time>2015-01-25T09:02:28Z</time>
      </trkpt>
      <trkpt lat="48.70307" lon="-3.30665">
        <ele>78</ele>
        <time>2015-01-25T09:02:29Z</time>
      </trkpt>
      <trkpt lat="48.70313" lon="-3.30658">
        <ele>78</ele>
        <time>2015-01-25T09:02:30Z</time>
      </trkpt>
      <trkpt lat="48.70319" lon="-3.3065">
        <ele>78</ele>
        <time>2015-01-25T09:02:31Z</time>
      </trkpt>
      <trkpt lat="48.70326" lon="-3.30642">
        <ele>78</ele>
        <time>2015-01-25T09:02:32Z</time>
      </trkpt>
      <trkpt lat="48.70332" lon="-3.30635">
        <ele>78</ele>
        <time>2015-01-25T09:02:33Z</time>
      </trkpt>
      <trkpt lat="48.70338" lon="-3.30627">
        <ele>78</ele>
        <time>2015-01-25T09:02:34Z</time>
      </trkpt>
      <trkpt lat="48.70345" lon="-3.30619">
        <ele>78</ele>
        <time>2015-01-25T09:02:35Z</time>
      </trkpt>
      <trkpt lat="48.70351" lon="-3.30612">
        <ele>78</ele>
        <time>2015-01-25T09:02:36Z</time>
      </trkpt>
      <trkpt lat="48.70358" lon="-3.30604">
        <ele>78</ele>
        <time>2015-01-25T09:02:37Z</time>
      </trkpt>
      <trkpt lat="48.70364" lon="-3.30596">
        <ele>78</ele>
        <time>2015-01-25T09:02:38Z</time>
      </trkpt>
      <trkpt lat="48.7037" lon="-3.30589">
        <ele>78</ele>
        <time>2015-01-25T09:02:39Z</time>
      </trkpt>
      <trkpt lat="48.70377" lon="-3.30582">
        <ele>78</ele>
        <time>2015-01-25T09:02:40Z</time>
      </trkpt>
      <trkpt lat="48.70383" lon="-3.30574">
        <ele>78</ele>
        <time>2015-01-25T09:02:41Z</time>
      </trkpt>
      <trkpt lat="48.7039" lon="-3.30567">
        <ele>77</ele>
        <time>2015-01-25T09:02:42Z</time>
      </trkpt>
      <trkpt lat="48.70397" lon="-3.3056">
        <ele>77</ele>
        <time>2015-01-25T09:02:43Z</time>
      </trkpt>
      <trkpt lat="48.70404" lon="-3.30553">
        <ele>77</ele>
        <time>2015-01-25T09:02:44Z</time>
      </trkpt>
      <trkpt lat="48.70411" lon="-3.30546">
        <ele>77</ele>
        <time>2015-01-25T09:02:45Z</time>
      </trkpt>
      <trkpt lat="48.70419" lon="-3.30539">
        <ele>76</ele>
        <time>2015-01-25T09:02:46Z</time>
      </trkpt>
      <trkpt lat="48.70426" lon="-3.30532">
        <ele>76</ele>
        <time>2015-01-25T09:02:47Z</time>
      </trkpt>
      <trkpt lat="48.70434" lon="-3.30526">
        <ele>76</ele>
        <time>2015-01-25T09:02:48Z</time>
      </trkpt>
      <trkpt lat="48.70441" lon="-3.30519">
        <ele>76</ele>
        <time>2015-01-25T09:02:49Z</time>
      </trkpt>
      <trkpt lat="48.70449" lon="-3.30513">
        <ele>75</ele>
        <time>2015-01-25T09:02:50Z</time>
      </trkpt>
      <trkpt lat="48.70456" lon="-3.30506">
        <ele>75</ele>
        <time>2015-01-25T09:02:51Z</time>
      </trkpt>
      <trkpt lat="48.70464" lon="-3.30499">
        <ele>75</ele>
        <time>2015-01-25T09:02:52Z</time>
      </trkpt>
      <trkpt lat="48.70472" lon="-3.30493">
        <ele>75</ele>
        <time>2015-01-25T09:02:53Z</time>
      </trkpt>
      <trkpt lat="48.70479" lon="-3.30486">
        <ele>75</ele>
        <time>2015-01-25T09:02:54Z</time>
      </trkpt>
      <trkpt lat="48.70487" lon="-3.30479">
        <ele>74</ele>
        <time>2015-01-25T09:02:55Z</time>
      </trkpt>
      <trkpt lat="48.70495" lon="-3.30472">
        <ele>74</ele>
        <time>2015-01-25T09:02:56Z</time>
      </trkpt>
      <trkpt lat="48.70502" lon="-3.30465">
        <ele>74</ele>
        <time>2015-01-25T09:02:57Z</time>
      </trkpt>
      <trkpt lat="48.7051" lon="-3.30458">
        <ele>74</ele>
        <time>2015-01-25T09:02:58Z</time>
      </trkpt>
      <trkpt lat="48.70518" lon="-3.3045">
        <ele>73</ele>
        <time>2015-01-25T09:02:59Z</time>
      </trkpt>
      <trkpt lat="48.70525" lon="-3.30442">
        <ele>73</ele>
        <time>2015-01-25T09:03:00Z</time>
      </trkpt>
      <trkpt lat="48.70533" lon="-3.30433">
        <ele>73</ele>
        <time>2015-01-25T09:03:01Z</time>
      </trkpt>
      <trkpt lat="48.70541" lon="-3.30425">
        <ele>72</ele>
        <time>2015-01-25T09:03:02Z</time>
      </trkpt>
      <trkpt lat="48.70548" lon="-3.30417">
        <ele>72</ele>
        <time>2015-01-25T09:03:03Z</time>
      </trkpt>
      <trkpt lat="48.70556" lon="-3.30409">
        <ele>72</ele>
        <time>2015-01-25T09:03:04Z</time>
      </trkpt>
      <trkpt lat="48.70564" lon="-3.30401">
        <ele>72</ele>
        <time>2015-01-25T09:03:05Z</time>
      </trkpt>
      <trkpt lat="48.70571" lon="-3.30394">
        <ele>72</ele>
        <time>2015-01-25T09:03:06Z</time>
      </trkpt>
      <trkpt lat="48.70579" lon="-3.30387">
        <ele>72</ele>
        <time>2015-01-25T09:03:07Z</time>
      </trkpt>
      <trkpt lat="48.70587" lon="-3.3038">
        <ele>72</ele>
        <time>2015-01-25T09:03:08Z</time>
      </trkpt>
      <trkpt lat="48.70594" lon="-3.30374">
        <ele>72</ele>
        <time>2015-01-25T09:03:09Z</time>
      </trkpt>
      <trkpt lat="48.70601" lon="-3.30369">
        <ele>72</ele>
        <time>2015-01-25T09:03:10Z</time>
      </trkpt>
      <trkpt lat="48.70608" lon="-3.30363">
        <ele>72</ele>
        <time>2015-01-25T09:03:11Z</time>
      </trkpt>
      <trkpt lat="48.70615" lon="-3.30358">
        <ele>72</ele>
        <time>2015-01-25T09:03:12Z</time>
      </trkpt>
      <trkpt lat="48.70622" lon="-3.30353">
        <ele>72</ele>
        <time>2015-01-25T09:03:13Z</time>
      </trkpt>
      <trkpt lat="48.70629" lon="-3.30348">
        <ele>72</ele>
        <time>2015-01-25T09:03:14Z</time>
      </trkpt>
      <trkpt lat="48.70635" lon="-3.30343">
        <ele>72</ele>
        <time>2015-01-25T09:03:15Z</time>
      </trkpt>
      <trkpt lat="48.70642" lon="-3.30338">
        <ele>72</ele>
        <time>2015-01-25T09:03:16Z</time>
      </trkpt>
      <trkpt lat="48.70648" lon="-3.30333">
        <ele>72</ele>
        <time>2015-01-25T09:03:17Z</time>
      </trkpt>
      <trkpt lat="48.70654" lon="-3.30328">
        <ele>72</ele>
        <time>2015-01-25T09:03:18Z</time>
      </trkpt>
      <trkpt lat="48.70661" lon="-3.30323">
        <ele>72</ele>
        <time>2015-01-25T09:03:19Z</time>
      </trkpt>
      <trkpt lat="48.70667" lon="-3.30318">
        <ele>72</ele>
        <time>2015-01-25T09:03:20Z</time>
      </trkpt>
      <trkpt lat="48.70673" lon="-3.30313">
        <ele>72</ele>
        <time>2015-01-25T09:03:21Z</time>
      </trkpt>
      <trkpt lat="48.7068" lon="-3.30309">
        <ele>72</ele>
        <time>2015-01-25T09:03:22Z</time>
      </trkpt>
      <trkpt lat="48.70686" lon="-3.30304">
        <ele>72</ele>
        <time>2015-01-25T09:03:23Z</time>
      </trkpt>
      <trkpt lat="48.70692" lon="-3.30299">
        <ele>72</ele>
        <time>2015-01-25T09:03:24Z</time>
      </trkpt>
      <trkpt lat="48.70698" lon="-3.30295">
        <ele>72</ele>
        <time>2015-01-25T09:03:25Z</time>
      </trkpt>
      <trkpt lat="48.70704" lon="-3.3029">
        <ele>72</ele>
        <time>2015-01-25T09:03:26Z</time>
      </trkpt>
      <trkpt lat="48.7071" lon="-3.30286">
        <ele>72</ele>
        <time>2015-01-25T09:03:27Z</time>
      </trkpt>
      <trkpt lat="48.70716" lon="-3.30281">
        <ele>72</ele>
        <time>2015-01-25T09:03:28Z</time>
      </trkpt>
      <trkpt lat="48.70722" lon="-3.30277">
        <ele>72</ele>
        <time>2015-01-25T09:03:29Z</time>
      </trkpt>
      <trkpt lat="48.70728" lon="-3.30273">
        <ele>72</ele>
        <time>2015-01-25T09:03:30Z</time>
      </trkpt>
      <trkpt lat="48.70734" lon="-3.30269">
        <ele>72</ele>
        <time>2015-01-25T09:03:31Z</time>
      </trkpt>
      <trkpt lat="48.7074" lon="-3.30264">
        <ele>72</ele>
        <time>2015-01-25T09:03:32Z</time>
      </trkpt>
      <trkpt lat="48.70747" lon="-3.3026">
        <ele>72</ele>
        <time>2015-01-25T09:03:33Z</time>
      </trkpt>
      <trkpt lat="48.70753" lon="-3.30256">
        <ele>72</ele>
        <time>2015-01-25T09:03:34Z</time>
      </trkpt>
      <trkpt lat="48.70759" lon="-3.30252">
        <ele>73</ele>
        <time>2015-01-25T09:03:35Z</time>
      </trkpt>
      <trkpt lat="48.70765" lon="-3.30248">
        <ele>73</ele>
        <time>2015-01-25T09:03:36Z</time>
      </trkpt>
      <trkpt lat="48.70771" lon="-3.30244">
        <ele>73</ele>
        <time>2015-01-25T09:03:37Z</time>
      </trkpt>
      <trkpt lat="48.70778" lon="-3.30241">
        <ele>73</ele>
        <time>2015-01-25T09:03:38Z</time>
      </trkpt>
      <trkpt lat="48.70784" lon="-3.30237">
        <ele>73</ele>
        <time>2015-01-25T09:03:39Z</time>
      </trkpt>
      <trkpt lat="48.7079" lon="-3.30234">
        <ele>73</ele>
        <time>2015-01-25T09:03:40Z</time>
      </trkpt>
      <trkpt lat="48.70796" lon="-3.30231">
        <ele>74</ele>
        <time>2015-01-25T09:03:41Z</time>
      </trkpt>
      <trkpt lat="48.70802" lon="-3.30228">
        <ele>74</ele>
        <time>2015-01-25T09:03:42Z</time>
      </trkpt>
      <trkpt lat="48.70807" lon="-3.30225">
        <ele>74</ele>
        <time>2015-01-25T09:03:43Z</time>
      </trkpt>
      <trkpt lat="48.70813" lon="-3.30222">
        <ele>74</ele>
        <time>2015-01-25T09:03:44Z</time>
      </trkpt>
      <trkpt lat="48.70818" lon="-3.30219">
        <ele>75</ele>
        <time>2015-01-25T09:03:45Z</time>
      </trkpt>
      <trkpt lat="48.70824" lon="-3.30216">
        <ele>75</ele>
        <time>2015-01-25T09:03:46Z</time>
      </trkpt>
      <trkpt lat="48.7083" lon="-3.30213">
        <ele>75</ele>
        <time>2015-01-25T09:03:47Z</time>
      </trkpt>
      <trkpt lat="48.70836" lon="-3.30209">
        <ele>75</ele>
        <time>2015-01-25T09:03:48Z</time>
      </trkpt>
      <trkpt lat="48.70842" lon="-3.30207">
        <ele>75</ele>
        <time>2015-01-25T09:03:49Z</time>
      </trkpt>
      <trkpt lat="48.70847" lon="-3.30204">
        <ele>75</ele>
        <time>2015-01-25T09:03:50Z</time>
      </trkpt>
      <trkpt lat="48.70853" lon="-3.30201">
        <ele>76</ele>
        <time>2015-01-25T09:03:51Z</time>
      </trkpt>
      <trkpt lat="48.70859" lon="-3.30199">
        <ele>76</ele>
        <time>2015-01-25T09:03:52Z</time>
      </trkpt>
      <trkpt lat="48.70865" lon="-3.30196">
        <ele>76</ele>
        <time>2015-01-25T09:03:53Z</time>
      </trkpt>
      <trkpt lat="48.70871" lon="-3.30193">
        <ele>76</ele>
        <time>2015-01-25T09:03:54Z</time>
      </trkpt>
      <trkpt lat="48.70876" lon="-3.3019">
        <ele>76</ele>
        <time>2015-01-25T09:03:55Z</time>
      </trkpt>
      <trkpt lat="48.70882" lon="-3.30187">
        <ele>76</ele>
        <time>2015-01-25T09:03:56Z</time>
      </trkpt>
      <trkpt lat="48.70887" lon="-3.30184">
        <ele>76</ele>
        <time>2015-01-25T09:03:57Z</time>
      </trkpt>
      <trkpt lat="48.70892" lon="-3.30181">
        <ele>76</ele>
        <time>2015-01-25T09:03:58Z</time>
      </trkpt>
      <trkpt lat="48.70897" lon="-3.30178">
        <ele>76</ele>
        <time>2015-01-25T09:03:59Z</time>
      </trkpt>
      <trkpt lat="48.70903" lon="-3.30175">
        <ele>77</ele>
        <time>2015-01-25T09:04:00Z</time>
      </trkpt>
      <trkpt lat="48.70908" lon="-3.30171">
        <ele>77</ele>
        <time>2015-01-25T09:04:01Z</time>
      </trkpt>
      <trkpt lat="48.70914" lon="-3.30168">
        <ele>77</ele>
        <time>2015-01-25T09:04:02Z</time>
      </trkpt>
      <trkpt lat="48.70919" lon="-3.30164">
        <ele>77</ele>
        <time>2015-01-25T09:04:03Z</time>
      </trkpt>
      <trkpt lat="48.70925" lon="-3.3016">
        <ele>77</ele>
        <time>2015-01-25T09:04:04Z</time>
      </trkpt>
      <trkpt lat="48.7093" lon="-3.30156">
        <ele>77</ele>
        <time>2015-01-25T09:04:05Z</time>
      </trkpt>
      <trkpt lat="48.70935" lon="-3.30152">
        <ele>77</ele>
        <time>2015-01-25T09:04:06Z</time>
      </trkpt>
      <trkpt lat="48.70941" lon="-3.30147">
        <ele>77</ele>
        <time>2015-01-25T09:04:07Z</time>
      </trkpt>
      <trkpt lat="48.70946" lon="-3.30143">
        <ele>78</ele>
        <time>2015-01-25T09:04:08Z</time>
      </trkpt>
      <trkpt lat="48.70951" lon="-3.30138">
        <ele>78</ele>
        <time>2015-01-25T09:04:09Z</time>
      </trkpt>
      <trkpt lat="48.70956" lon="-3.30133">
        <ele>78</ele>
        <time>2015-01-25T09:04:10Z</time>
      </trkpt>
      <trkpt lat="48.70961" lon="-3.30129">
        <ele>78</ele>
        <time>2015-01-25T09:04:11Z</time>
      </trkpt>
      <trkpt lat="48.70966" lon="-3.30124">
        <ele>78</ele>
        <time>2015-01-25T09:04:12Z</time>
      </trkpt>
      <trkpt lat="48.7097" lon="-3.30119">
        <ele>78</ele>
        <time>2015-01-25T09:04:13Z</time>
      </trkpt>
      <trkpt lat="48.70975" lon="-3.30114">
        <ele>79</ele>
        <time>2015-01-25T09:04:14Z</time>
      </trkpt>
      <trkpt lat="48.70979" lon="-3.30109">
        <ele>79</ele>
        <time>2015-01-25T09:04:15Z</time>
      </trkpt>
      <trkpt lat="48.70983" lon="-3.30104">
        <ele>79</ele>
        <time>2015-01-25T09:04:16Z</time>
      </trkpt>
      <trkpt lat="48.70987" lon="-3.301">
        <ele>79</ele>
        <time>2015-01-25T09:04:17Z</time>
      </trkpt>
      <trkpt lat="48.70991" lon="-3.30095">
        <ele>79</ele>
        <time>2015-01-25T09:04:18Z</time>
      </trkpt>
      <trkpt lat="48.70995" lon="-3.3009">
        <ele>79</ele>
        <time>2015-01-25T09:04:19Z</time>
      </trkpt>
      <trkpt lat="48.70999" lon="-3.30085">
        <ele>79</ele>
        <time>2015-01-25T09:04:20Z</time>
      </trkpt>
      <trkpt lat="48.71003" lon="-3.3008">
        <ele>79</ele>
        <time>2015-01-25T09:04:21Z</time>
      </trkpt>
      <trkpt lat="48.71006" lon="-3.30075">
        <ele>79</ele>
        <time>2015-01-25T09:04:22Z</time>
      </trkpt>
      <trkpt lat="48.7101" lon="-3.3007">
        <ele>79</ele>
        <time>2015-01-25T09:04:23Z</time>
      </trkpt>
      <trkpt lat="48.71014" lon="-3.30065">
        <ele>79</ele>
        <time>2015-01-25T09:04:24Z</time>
      </trkpt>
      <trkpt lat="48.71017" lon="-3.3006">
        <ele>79</ele>
        <time>2015-01-25T09:04:25Z</time>
      </trkpt>
      <trkpt lat="48.71021" lon="-3.30056">
        <ele>79</ele>
        <time>2015-01-25T09:04:26Z</time>
      </trkpt>
      <trkpt lat="48.71024" lon="-3.3005">
        <ele>79</ele>
        <time>2015-01-25T09:04:27Z</time>
      </trkpt>
      <trkpt lat="48.71028" lon="-3.30045">
        <ele>79</ele>
        <time>2015-01-25T09:04:28Z</time>
      </trkpt>
      <trkpt lat="48.71032" lon="-3.3004">
        <ele>79</ele>
        <time>2015-01-25T09:04:29Z</time>
      </trkpt>
      <trkpt lat="48.71035" lon="-3.30035">
        <ele>79</ele>
        <time>2015-01-25T09:04:30Z</time>
      </trkpt>
      <trkpt lat="48.71038" lon="-3.3003">
        <ele>79</ele>
        <time>2015-01-25T09:04:31Z</time>
      </trkpt>
      <trkpt lat="48.71041" lon="-3.30025">
        <ele>79</ele>
        <time>2015-01-25T09:04:32Z</time>
      </trkpt>
      <trkpt lat="48.71045" lon="-3.3002">
        <ele>79</ele>
        <time>2015-01-25T09:04:33Z</time>
      </trkpt>
      <trkpt lat="48.71048" lon="-3.30015">
        <ele>79</ele>
        <time>2015-01-25T09:04:34Z</time>
      </trkpt>
      <trkpt lat="48.71051" lon="-3.30011">
        <ele>79</ele>
        <time>2015-01-25T09:04:35Z</time>
      </trkpt>
      <trkpt lat="48.71054" lon="-3.30006">
        <ele>79</ele>
        <time>2015-01-25T09:04:36Z</time>
      </trkpt>
      <trkpt lat="48.71058" lon="-3.30001">
        <ele>79</ele>
        <time>2015-01-25T09:04:37Z</time>
      </trkpt>
      <trkpt lat="48.71061" lon="-3.29996">
        <ele>79</ele>
        <time>2015-01-25T09:04:38Z</time>
      </trkpt>
      <trkpt lat="48.71064" lon="-3.29991">
        <ele>79</ele>
        <time>2015-01-25T09:04:39Z</time>
      </trkpt>
      <trkpt lat="48.71067" lon="-3.29986">
        <ele>79</ele>
        <time>2015-01-25T09:04:40Z</time>
      </trkpt>
      <trkpt lat="48.7107" lon="-3.29982">
        <ele>79</ele>
        <time>2015-01-25T09:04:41Z</time>
      </trkpt>
      <trkpt lat="48.71073" lon="-3.29977">
        <ele>79</ele>
        <time>2015-01-25T09:04:42Z</time>
      </trkpt>
      <trkpt lat="48.71075" lon="-3.29972">
        <ele>79</ele>
        <time>2015-01-25T09:04:43Z</time>
      </trkpt>
      <trkpt lat="48.71078" lon="-3.29968">
        <ele>79</ele>
        <time>2015-01-25T09:04:44Z</time>
      </trkpt>
      <trkpt lat="48.71081" lon="-3.29964">
        <ele>79</ele>
        <time>2015-01-25T09:04:45Z</time>
      </trkpt>
      <trkpt lat="48.71084" lon="-3.2996">
        <ele>79</ele>
        <time>2015-01-25T09:04:46Z</time>
      </trkpt>
      <trkpt lat="48.71088" lon="-3.29956">
        <ele>79</ele>
        <time>2015-01-25T09:04:47Z</time>
      </trkpt>
      <trkpt lat="48.7109" lon="-3.29952">
        <ele>79</ele>
        <time>2015-01-25T09:04:48Z</time>
      </trkpt>
      <trkpt lat="48.71093" lon="-3.29947">
        <ele>79</ele>
        <time>2015-01-25T09:04:49Z</time>
      </trkpt>
      <trkpt lat="48.71095" lon="-3.29942">
        <ele>79</ele>
        <time>2015-01-25T09:04:50Z</time>
      </trkpt>
      <trkpt lat="48.71098" lon="-3.29938">
        <ele>79</ele>
        <time>2015-01-25T09:04:51Z</time>
      </trkpt>
      <trkpt lat="48.71101" lon="-3.29935">
        <ele>79</ele>
        <time>2015-01-25T09:04:52Z</time>
      </trkpt>
      <trkpt lat="48.71104" lon="-3.29931">
        <ele>79</ele>
        <time>2015-01-25T09:04:53Z</time>
      </trkpt>
      <trkpt lat="48.71106" lon="-3.29928">
        <ele>79</ele>
        <time>2015-01-25T09:04:54Z</time>
      </trkpt>
      <trkpt lat="48.71109" lon="-3.29924">
        <ele>79</ele>
        <time>2015-01-25T09:04:55Z</time>
      </trkpt>
      <trkpt lat="48.71112" lon="-3.29921">
        <ele>79</ele>
        <time>2015-01-25T09:04:56Z</time>
      </trkpt>
      <trkpt lat="48.71115" lon="-3.29917">
        <ele>79</ele>
        <time>2015-01-25T09:04:57Z</time>
      </trkpt>
      <trkpt lat="48.71117" lon="-3.29914">
        <ele>79</ele>
        <time>2015-01-25T09:04:58Z</time>
      </trkpt>
      <trkpt lat="48.7112" lon="-3.2991">
        <ele>79</ele>
        <time>2015-01-25T09:04:59Z</time>
      </trkpt>
      <trkpt lat="48.71122" lon="-3.29907">
        <ele>79</ele>
        <time>2015-01-25T09:05:00Z</time>
      </trkpt>
      <trkpt lat="48.71125" lon="-3.29904">
        <ele>79</ele>
        <time>2015-01-25T09:05:01Z</time>
      </trkpt>
      <trkpt lat="48.71128" lon="-3.29901">
        <ele>79</ele>
        <time>2015-01-25T09:05:02Z</time>
      </trkpt>
      <trkpt lat="48.7113" lon="-3.29899">
        <ele>79</ele>
        <time>2015-01-25T09:05:03Z</time>
      </trkpt>
      <trkpt lat="48.71134" lon="-3.29896">
        <ele>79</ele>
        <time>2015-01-25T09:05:04Z</time>
      </trkpt>
      <trkpt lat="48.71136" lon="-3.29893">
        <ele>79</ele>
        <time>2015-01-25T09:05:05Z</time>
      </trkpt>
      <trkpt lat="48.71139" lon="-3.2989">
        <ele>79</ele>
        <time>2015-01-25T09:05:06Z</time>
      </trkpt>
      <trkpt lat="48.71141" lon="-3.29886">
        <ele>79</ele>
        <time>2015-01-25T09:05:07Z</time>
      </trkpt>
      <trkpt lat="48.71144" lon="-3.29883">
        <ele>79</ele>
        <time>2015-01-25T09:05:08Z</time>
      </trkpt>
      <trkpt lat="48.71147" lon="-3.2988">
        <ele>79</ele>
        <time>2015-01-25T09:05:09Z</time>
      </trkpt>
      <trkpt lat="48.71149" lon="-3.29876">
        <ele>79</ele>
        <time>2015-01-25T09:05:10Z</time>
      </trkpt>
      <trkpt lat="48.71152" lon="-3.29873">
        <ele>79</ele>
        <time>2015-01-25T09:05:11Z</time>
      </trkpt>
      <trkpt lat="48.71155" lon="-3.2987">
        <ele>79</ele>
        <time>2015-01-25T09:05:12Z</time>
      </trkpt>
      <trkpt lat="48.71158" lon="-3.29867">
        <ele>79</ele>
        <time>2015-01-25T09:05:13Z</time>
      </trkpt>
      <trkpt lat="48.71161" lon="-3.29863">
        <ele>79</ele>
        <time>2015-01-25T09:05:14Z</time>
      </trkpt>
      <trkpt lat="48.71164" lon="-3.2986">
        <ele>79</ele>
        <time>2015-01-25T09:05:15Z</time>
      </trkpt>
      <trkpt lat="48.71167" lon="-3.29857">
        <ele>79</ele>
        <time>2015-01-25T09:05:16Z</time>
      </trkpt>
      <trkpt lat="48.7117" lon="-3.29853">
        <ele>79</ele>
        <time>2015-01-25T09:05:17Z</time>
      </trkpt>
      <trkpt lat="48.71173" lon="-3.2985">
        <ele>79</ele>
        <time>2015-01-25T09:05:18Z</time>
      </trkpt>
      <trkpt lat="48.71176" lon="-3.29847">
        <ele>79</ele>
        <time>2015-01-25T09:05:19Z</time>
      </trkpt>
      <trkpt lat="48.71179" lon="-3.29844">
        <ele>79</ele>
        <time>2015-01-25T09:05:20Z</time>
      </trkpt>
      <trkpt lat="48.71182" lon="-3.2984">
        <ele>79</ele>
        <time>2015-01-25T09:05:21Z</time>
      </trkpt>
      <trkpt lat="48.71185" lon="-3.29837">
        <ele>79</ele>
        <time>2015-01-25T09:05:22Z</time>
      </trkpt>
      <trkpt lat="48.71188" lon="-3.29834">
        <ele>79</ele>
        <time>2015-01-25T09:05:23Z</time>
      </trkpt>
      <trkpt lat="48.71191" lon="-3.2983">
        <ele>79</ele>
        <time>2015-01-25T09:05:24Z</time>
      </trkpt>
      <trkpt lat="48.71194" lon="-3.29827">
        <ele>79</ele>
        <time>2015-01-25T09:05:25Z</time>
      </trkpt>
      <trkpt lat="48.71197" lon="-3.29823">
        <ele>79</ele>
        <time>2015-01-25T09:05:26Z</time>
      </trkpt>
      <trkpt lat="48.712" lon="-3.2982">
        <ele>79</ele>
        <time>2015-01-25T09:05:27Z</time>
      </trkpt>
      <trkpt lat="48.71203" lon="-3.29816">
        <ele>79</ele>
        <time>2015-01-25T09:05:28Z</time>
      </trkpt>
      <trkpt lat="48.71207" lon="-3.29813">
        <ele>79</ele>
        <time>2015-01-25T09:05:29Z</time>
      </trkpt>
      <trkpt lat="48.71209" lon="-3.29809">
        <ele>79</ele>
        <time>2015-01-25T09:05:30Z</time>
      </trkpt>
      <trkpt lat="48.71212" lon="-3.29806">
        <ele>79</ele>
        <time>2015-01-25T09:05:31Z</time>
      </trkpt>
      <trkpt lat="48.71215" lon="-3.29802">
        <ele>79</ele>
        <time>2015-01-25T09:05:32Z</time>
      </trkpt>
      <trkpt lat="48.71218" lon="-3.29799">
        <ele>79</ele>
        <time>2015-01-25T09:05:33Z</time>
      </trkpt>
      <trkpt lat="48.71222" lon="-3.29795">
        <ele>79</ele>
        <time>2015-01-25T09:05:34Z</time>
      </trkpt>
      <trkpt lat="48.71225" lon="-3.29792">
        <ele>79</ele>
        <time>2015-01-25T09:05:35Z</time>
      </trkpt>
      <trkpt lat="48.71227" lon="-3.29788">
        <ele>79</ele>
        <time>2015-01-25T09:05:36Z</time>
      </trkpt>
      <trkpt lat="48.7123" lon="-3.29784">
        <ele>79</ele>
        <time>2015-01-25T09:05:37Z</time>
      </trkpt>
      <trkpt lat="48.71233" lon="-3.2978">
        <ele>79</ele>
        <time>2015-01-25T09:05:38Z</time>
      </trkpt>
      <trkpt lat="48.71236" lon="-3.29777">
        <ele>79</ele>
        <time>2015-01-25T09:05:39Z</time>
      </trkpt>
      <trkpt lat="48.71238" lon="-3.29773">
        <ele>79</ele>
        <time>2015-01-25T09:05:40Z</time>
      </trkpt>
      <trkpt lat="48.71241" lon="-3.29769">
        <ele>79</ele>
        <time>2015-01-25T09:05:41Z</time>
      </trkpt>
      <trkpt lat="48.71244" lon="-3.29765">
        <ele>79</ele>
        <time>2015-01-25T09:05:42Z</time>
      </trkpt>
      <trkpt lat="48.71247" lon="-3.29762">
        <ele>80</ele>
        <time>2015-01-25T09:05:43Z</time>
      </trkpt>
      <trkpt lat="48.71249" lon="-3.29758">
        <ele>80</ele>
        <time>2015-01-25T09:05:44Z</time>
      </trkpt>
      <trkpt lat="48.71252" lon="-3.29754">
        <ele>80</ele>
        <time>2015-01-25T09:05:45Z</time>
      </trkpt>
      <trkpt lat="48.71255" lon="-3.2975">
        <ele>80</ele>
        <time>2015-01-25T09:05:46Z</time>
      </trkpt>
      <trkpt lat="48.71257" lon="-3.29746">
        <ele>80</ele>
        <time>2015-01-25T09:05:47Z</time>
      </trkpt>
      <trkpt lat="48.7126" lon="-3.29743">
        <ele>80</ele>
        <time>2015-01-25T09:05:48Z</time>
      </trkpt>
      <trkpt lat="48.71262" lon="-3.29739">
        <ele>80</ele>
        <time>2015-01-25T09:05:49Z</time>
      </trkpt>
      <trkpt lat="48.71265" lon="-3.29735">
        <ele>80</ele>
        <time>2015-01-25T09:05:50Z</time>
      </trkpt>
      <trkpt lat="48.71267" lon="-3.29732">
        <ele>80</ele>
        <time>2015-01-25T09:05:51Z</time>
      </trkpt>
      <trkpt lat="48.7127" lon="-3.29728">
        <ele>81</ele>
        <time>2015-01-25T09:05:52Z</time>
      </trkpt>
      <trkpt lat="48.71273" lon="-3.29725">
        <ele>81</ele>
        <time>2015-01-25T09:05:53Z</time>
      </trkpt>
      <trkpt lat="48.71275" lon="-3.29721">
        <ele>81</ele>
        <time>2015-01-25T09:05:54Z</time>
      </trkpt>
      <trkpt lat="48.71278" lon="-3.29717">
        <ele>81</ele>
        <time>2015-01-25T09:05:55Z</time>
      </trkpt>
      <trkpt lat="48.7128" lon="-3.29713">
        <ele>81</ele>
        <time>2015-01-25T09:05:56Z</time>
      </trkpt>
      <trkpt lat="48.71283" lon="-3.29709">
        <ele>81</ele>
        <time>2015-01-25T09:05:57Z</time>
      </trkpt>
      <trkpt lat="48.71286" lon="-3.29705">
        <ele>81</ele>
        <time>2015-01-25T09:05:58Z</time>
      </trkpt>
      <trkpt lat="48.7129" lon="-3.29701">
        <ele>81</ele>
        <time>2015-01-25T09:05:59Z</time>
      </trkpt>
      <trkpt lat="48.71293" lon="-3.29696">
        <ele>81</ele>
        <time>2015-01-25T09:06:00Z</time>
      </trkpt>
      <trkpt lat="48.71297" lon="-3.2969">
        <ele>81</ele>
        <time>2015-01-25T09:06:01Z</time>
      </trkpt>
      <trkpt lat="48.71301" lon="-3.29685">
        <ele>82</ele>
        <time>2015-01-25T09:06:02Z</time>
      </trkpt>
      <trkpt lat="48.71305" lon="-3.29679">
        <ele>82</ele>
        <time>2015-01-25T09:06:03Z</time>
      </trkpt>
      <trkpt lat="48.71309" lon="-3.29672">
        <ele>82</ele>
        <time>2015-01-25T09:06:04Z</time>
      </trkpt>
      <trkpt lat="48.71313" lon="-3.29666">
        <ele>82</ele>
        <time>2015-01-25T09:06:05Z</time>
      </trkpt>
      <trkpt lat="48.71318" lon="-3.29659">
        <ele>82</ele>
        <time>2015-01-25T09:06:06Z</time>
      </trkpt>
      <trkpt lat="48.71322" lon="-3.29653">
        <ele>82</ele>
        <time>2015-01-25T09:06:07Z</time>
      </trkpt>
      <trkpt lat="48.71326" lon="-3.29646">
        <ele>82</ele>
        <time>2015-01-25T09:06:08Z</time>
      </trkpt>
      <trkpt lat="48.71331" lon="-3.29641">
        <ele>82</ele>
        <time>2015-01-25T09:06:09Z</time>
      </trkpt>
      <trkpt lat="48.71335" lon="-3.29635">
        <ele>82</ele>
        <time>2015-01-25T09:06:10Z</time>
      </trkpt>
      <trkpt lat="48.71339" lon="-3.29629">
        <ele>82</ele>
        <time>2015-01-25T09:06:11Z</time>
      </trkpt>
      <trkpt lat="48.71342" lon="-3.29623">
        <ele>82</ele>
        <time>2015-01-25T09:06:12Z</time>
      </trkpt>
      <trkpt lat="48.71346" lon="-3.29618">
        <ele>82</ele>
        <time>2015-01-25T09:06:13Z</time>
      </trkpt>
      <trkpt lat="48.7135" lon="-3.29612">
        <ele>82</ele>
        <time>2015-01-25T09:06:14Z</time>
      </trkpt>
      <trkpt lat="48.71354" lon="-3.29606">
        <ele>82</ele>
        <time>2015-01-25T09:06:15Z</time>
      </trkpt>
      <trkpt lat="48.71358" lon="-3.29601">
        <ele>82</ele>
        <time>2015-01-25T09:06:16Z</time>
      </trkpt>
      <trkpt lat="48.71362" lon="-3.29595">
        <ele>82</ele>
        <time>2015-01-25T09:06:17Z</time>
      </trkpt>
      <trkpt lat="48.71367" lon="-3.29589">
        <ele>82</ele>
        <time>2015-01-25T09:06:18Z</time>
      </trkpt>
      <trkpt lat="48.71371" lon="-3.29583">
        <ele>82</ele>
        <time>2015-01-25T09:06:19Z</time>
      </trkpt>
      <trkpt lat="48.71375" lon="-3.29577">
        <ele>82</ele>
        <time>2015-01-25T09:06:20Z</time>
      </trkpt>
      <trkpt lat="48.71379" lon="-3.29571">
        <ele>82</ele>
        <time>2015-01-25T09:06:21Z</time>
      </trkpt>
      <trkpt lat="48.71383" lon="-3.29565">
        <ele>82</ele>
        <time>2015-01-25T09:06:22Z</time>
      </trkpt>
      <trkpt lat="48.71387" lon="-3.29559">
        <ele>82</ele>
        <time>2015-01-25T09:06:23Z</time>
      </trkpt>
      <trkpt lat="48.71391" lon="-3.29554">
        <ele>82</ele>
        <time>2015-01-25T09:06:24Z</time>
      </trkpt>
      <trkpt lat="48.71395" lon="-3.29548">
        <ele>82</ele>
        <time>2015-01-25T09:06:25Z</time>
      </trkpt>
      <trkpt lat="48.71399" lon="-3.29542">
        <ele>82</ele>
        <time>2015-01-25T09:06:26Z</time>
      </trkpt>
      <trkpt lat="48.71403" lon="-3.29537">
        <ele>82</ele>
        <time>2015-01-25T09:06:27Z</time>
      </trkpt>
      <trkpt lat="48.71407" lon="-3.29531">
        <ele>82</ele>
        <time>2015-01-25T09:06:28Z</time>
      </trkpt>
      <trkpt lat="48.71411" lon="-3.29525">
        <ele>82</ele>
        <time>2015-01-25T09:06:29Z</time>
      </trkpt>
      <trkpt lat="48.71415" lon="-3.2952">
        <ele>82</ele>
        <time>2015-01-25T09:06:30Z</time>
      </trkpt>
      <trkpt lat="48.71419" lon="-3.29514">
        <ele>83</ele>
        <time>2015-01-25T09:06:31Z</time>
      </trkpt>
      <trkpt lat="48.71423" lon="-3.29508">
        <ele>83</ele>
        <time>2015-01-25T09:06:32Z</time>
      </trkpt>
      <trkpt lat="48.71427" lon="-3.29503">
        <ele>83</ele>
        <time>2015-01-25T09:06:33Z</time>
      </trkpt>
      <trkpt lat="48.71431" lon="-3.29497">
        <ele>83</ele>
        <time>2015-01-25T09:06:34Z</time>
      </trkpt>
      <trkpt lat="48.71435" lon="-3.29492">
        <ele>83</ele>
        <time>2015-01-25T09:06:35Z</time>
      </trkpt>
      <trkpt lat="48.71439" lon="-3.29486">
        <ele>83</ele>
        <time>2015-01-25T09:06:36Z</time>
      </trkpt>
      <trkpt lat="48.71443" lon="-3.2948">
        <ele>83</ele>
        <time>2015-01-25T09:06:37Z</time>
      </trkpt>
      <trkpt lat="48.71447" lon="-3.29474">
        <ele>83</ele>
        <time>2015-01-25T09:06:38Z</time>
      </trkpt>
      <trkpt lat="48.71451" lon="-3.29468">
        <ele>83</ele>
        <time>2015-01-25T09:06:39Z</time>
      </trkpt>
      <trkpt lat="48.71455" lon="-3.29462">
        <ele>83</ele>
        <time>2015-01-25T09:06:40Z</time>
      </trkpt>
      <trkpt lat="48.71459" lon="-3.29457">
        <ele>83</ele>
        <time>2015-01-25T09:06:41Z</time>
      </trkpt>
      <trkpt lat="48.71463" lon="-3.29451">
        <ele>83</ele>
        <time>2015-01-25T09:06:42Z</time>
      </trkpt>
      <trkpt lat="48.71467" lon="-3.29445">
        <ele>83</ele>
        <time>2015-01-25T09:06:43Z</time>
      </trkpt>
      <trkpt lat="48.71471" lon="-3.2944">
        <ele>83</ele>
        <time>2015-01-25T09:06:44Z</time>
      </trkpt>
      <trkpt lat="48.71475" lon="-3.29435">
        <ele>83</ele>
        <time>2015-01-25T09:06:45Z</time>
      </trkpt>
      <trkpt lat="48.71479" lon="-3.2943">
        <ele>83</ele>
        <time>2015-01-25T09:06:46Z</time>
      </trkpt>
      <trkpt lat="48.71482" lon="-3.29424">
        <ele>83</ele>
        <time>2015-01-25T09:06:47Z</time>
      </trkpt>
      <trkpt lat="48.71486" lon="-3.29418">
        <ele>83</ele>
        <time>2015-01-25T09:06:48Z</time>
      </trkpt>
      <trkpt lat="48.7149" lon="-3.29413">
        <ele>83</ele>
        <time>2015-01-25T09:06:49Z</time>
      </trkpt>
      <trkpt lat="48.71494" lon="-3.29407">
        <ele>83</ele>
        <time>2015-01-25T09:06:50Z</time>
      </trkpt>
      <trkpt lat="48.71497" lon="-3.29402">
        <ele>83</ele>
        <time>2015-01-25T09:06:51Z</time>
      </trkpt>
      <trkpt lat="48.71501" lon="-3.29397">
        <ele>83</ele>
        <time>2015-01-25T09:06:52Z</time>
      </trkpt>
      <trkpt lat="48.71504" lon="-3.29393">
        <ele>83</ele>
        <time>2015-01-25T09:06:53Z</time>
      </trkpt>
      <trkpt lat="48.71508" lon="-3.29388">
        <ele>83</ele>
        <time>2015-01-25T09:06:54Z</time>
      </trkpt>
      <trkpt lat="48.71511" lon="-3.29383">
        <ele>83</ele>
        <time>2015-01-25T09:06:55Z</time>
      </trkpt>
      <trkpt lat="48.71514" lon="-3.29379">
        <ele>83</ele>
        <time>2015-01-25T09:06:56Z</time>
      </trkpt>
      <trkpt lat="48.71517" lon="-3.29374">
        <ele>83</ele>
        <time>2015-01-25T09:06:57Z</time>
      </trkpt>
      <trkpt lat="48.71521" lon="-3.2937">
        <ele>83</ele>
        <time>2015-01-25T09:06:58Z</time>
      </trkpt>
      <trkpt lat="48.71524" lon="-3.29366">
        <ele>83</ele>
        <time>2015-01-25T09:06:59Z</time>
      </trkpt>
      <trkpt lat="48.71527" lon="-3.29362">
        <ele>83</ele>
        <time>2015-01-25T09:07:00Z</time>
      </trkpt>
      <trkpt lat="48.71529" lon="-3.29358">
        <ele>83</ele>
        <time>2015-01-25T09:07:01Z</time>
      </trkpt>
      <trkpt lat="48.71532" lon="-3.29353">
        <ele>83</ele>
        <time>2015-01-25T09:07:02Z</time>
      </trkpt>
      <trkpt lat="48.71534" lon="-3.29348">
        <ele>83</ele>
        <time>2015-01-25T09:07:03Z</time>
      </trkpt>
      <trkpt lat="48.71535" lon="-3.29343">
        <ele>83</ele>
        <time>2015-01-25T09:07:04Z</time>
      </trkpt>
      <trkpt lat="48.71537" lon="-3.29339">
        <ele>83</ele>
        <time>2015-01-25T09:07:05Z</time>
      </trkpt>
      <trkpt lat="48.71539" lon="-3.29335">
        <ele>83</ele>
        <time>2015-01-25T09:07:06Z</time>
      </trkpt>
      <trkpt lat="48.71541" lon="-3.29333">
        <ele>83</ele>
        <time>2015-01-25T09:07:07Z</time>
      </trkpt>
      <trkpt lat="48.71544" lon="-3.29334">
        <ele>83</ele>
        <time>2015-01-25T09:07:08Z</time>
      </trkpt>
      <trkpt lat="48.71546" lon="-3.29336">
        <ele>83</ele>
        <time>2015-01-25T09:07:09Z</time>
      </trkpt>
      <trkpt lat="48.71548" lon="-3.29338">
        <ele>83</ele>
        <time>2015-01-25T09:07:10Z</time>
      </trkpt>
      <trkpt lat="48.71548" lon="-3.2934">
        <ele>83</ele>
        <time>2015-01-25T09:07:11Z</time>
      </trkpt>
      <trkpt lat="48.71547" lon="-3.29347">
        <ele>83</ele>
        <time>2015-01-25T09:07:13Z</time>
      </trkpt>
      <trkpt lat="48.71545" lon="-3.2935">
        <ele>83</ele>
        <time>2015-01-25T09:07:14Z</time>
      </trkpt>
      <trkpt lat="48.71543" lon="-3.29353">
        <ele>83</ele>
        <time>2015-01-25T09:07:15Z</time>
      </trkpt>
      <trkpt lat="48.71541" lon="-3.29355">
        <ele>83</ele>
        <time>2015-01-25T09:07:16Z</time>
      </trkpt>
      <trkpt lat="48.71539" lon="-3.29358">
        <ele>83</ele>
        <time>2015-01-25T09:07:17Z</time>
      </trkpt>
      <trkpt lat="48.71537" lon="-3.2936">
        <ele>83</ele>
        <time>2015-01-25T09:07:18Z</time>
      </trkpt>
      <trkpt lat="48.71535" lon="-3.29363">
        <ele>83</ele>
        <time>2015-01-25T09:07:19Z</time>
      </trkpt>
      <trkpt lat="48.71533" lon="-3.29365">
        <ele>83</ele>
        <time>2015-01-25T09:07:20Z</time>
      </trkpt>
      <trkpt lat="48.71531" lon="-3.29368">
        <ele>83</ele>
        <time>2015-01-25T09:07:21Z</time>
      </trkpt>
      <trkpt lat="48.71528" lon="-3.29371">
        <ele>83</ele>
        <time>2015-01-25T09:07:22Z</time>
      </trkpt>
      <trkpt lat="48.71525" lon="-3.29375">
        <ele>83</ele>
        <time>2015-01-25T09:07:23Z</time>
      </trkpt>
      <trkpt lat="48.71522" lon="-3.29379">
        <ele>83</ele>
        <time>2015-01-25T09:07:24Z</time>
      </trkpt>
      <trkpt lat="48.71519" lon="-3.29382">
        <ele>83</ele>
        <time>2015-01-25T09:07:25Z</time>
      </trkpt>
      <trkpt lat="48.71517" lon="-3.29386">
        <ele>83</ele>
        <time>2015-01-25T09:07:26Z</time>
      </trkpt>
      <trkpt lat="48.71515" lon="-3.29389">
        <ele>83</ele>
        <time>2015-01-25T09:07:27Z</time>
      </trkpt>
      <trkpt lat="48.71513" lon="-3.29392">
        <ele>83</ele>
        <time>2015-01-25T09:07:28Z</time>
      </trkpt>
      <trkpt lat="48.7151" lon="-3.29395">
        <ele>83</ele>
        <time>2015-01-25T09:07:29Z</time>
      </trkpt>
      <trkpt lat="48.71508" lon="-3.29398">
        <ele>83</ele>
        <time>2015-01-25T09:07:30Z</time>
      </trkpt>
      <trkpt lat="48.71507" lon="-3.294">
        <ele>83</ele>
        <time>2015-01-25T09:07:31Z</time>
      </trkpt>
      <trkpt lat="48.71505" lon="-3.29403">
        <ele>83</ele>
        <time>2015-01-25T09:07:32Z</time>
      </trkpt>
      <trkpt lat="48.71503" lon="-3.29405">
        <ele>83</ele>
        <time>2015-01-25T09:07:33Z</time>
      </trkpt>
      <trkpt lat="48.71502" lon="-3.29407">
        <ele>83</ele>
        <time>2015-01-25T09:07:34Z</time>
      </trkpt>
      <trkpt lat="48.715" lon="-3.2941">
        <ele>83</ele>
        <time>2015-01-25T09:07:35Z</time>
      </trkpt>
      <trkpt lat="48.71498" lon="-3.29412">
        <ele>83</ele>
        <time>2015-01-25T09:07:36Z</time>
      </trkpt>
      <trkpt lat="48.71497" lon="-3.29415">
        <ele>83</ele>
        <time>2015-01-25T09:07:37Z</time>
      </trkpt>
      <trkpt lat="48.71495" lon="-3.29417">
        <ele>83</ele>
        <time>2015-01-25T09:07:38Z</time>
      </trkpt>
      <trkpt lat="48.71493" lon="-3.2942">
        <ele>83</ele>
        <time>2015-01-25T09:07:39Z</time>
      </trkpt>
      <trkpt lat="48.71492" lon="-3.29422">
        <ele>83</ele>
        <time>2015-01-25T09:07:40Z</time>
      </trkpt>
      <trkpt lat="48.7149" lon="-3.29424">
        <ele>83</ele>
        <time>2015-01-25T09:07:41Z</time>
      </trkpt>
      <trkpt lat="48.71489" lon="-3.29426">
        <ele>83</ele>
        <time>2015-01-25T09:07:42Z</time>
      </trkpt>
      <trkpt lat="48.71487" lon="-3.29428">
        <ele>83</ele>
        <time>2015-01-25T09:07:43Z</time>
      </trkpt>
      <trkpt lat="48.71486" lon="-3.2943">
        <ele>83</ele>
        <time>2015-01-25T09:07:44Z</time>
      </trkpt>
      <trkpt lat="48.71485" lon="-3.29432">
        <ele>83</ele>
        <time>2015-01-25T09:07:45Z</time>
      </trkpt>
      <trkpt lat="48.71484" lon="-3.29433">
        <ele>83</ele>
        <time>2015-01-25T09:07:46Z</time>
      </trkpt>
      <trkpt lat="48.71482" lon="-3.29435">
        <ele>83</ele>
        <time>2015-01-25T09:07:47Z</time>
      </trkpt>
      <trkpt lat="48.71481" lon="-3.29437">
        <ele>83</ele>
        <time>2015-01-25T09:07:48Z</time>
      </trkpt>
      <trkpt lat="48.7148" lon="-3.2944">
        <ele>83</ele>
        <time>2015-01-25T09:07:49Z</time>
      </trkpt>
      <trkpt lat="48.71478" lon="-3.29442">
        <ele>83</ele>
        <time>2015-01-25T09:07:50Z</time>
      </trkpt>
      <trkpt lat="48.71477" lon="-3.29443">
        <ele>83</ele>
        <time>2015-01-25T09:07:51Z</time>
      </trkpt>
      <trkpt lat="48.71476" lon="-3.29445">
        <ele>83</ele>
        <time>2015-01-25T09:07:52Z</time>
      </trkpt>
      <trkpt lat="48.71474" lon="-3.29446">
        <ele>83</ele>
        <time>2015-01-25T09:07:53Z</time>
      </trkpt>
      <trkpt lat="48.71473" lon="-3.29445">
        <ele>83</ele>
        <time>2015-01-25T09:07:54Z</time>
      </trkpt>
      <trkpt lat="48.71474" lon="-3.29439">
        <ele>83</ele>
        <time>2015-01-25T09:07:56Z</time>
      </trkpt>
      <trkpt lat="48.71477" lon="-3.29434">
        <ele>83</ele>
        <time>2015-01-25T09:07:57Z</time>
      </trkpt>
      <trkpt lat="48.71481" lon="-3.29429">
        <ele>83</ele>
        <time>2015-01-25T09:07:58Z</time>
      </trkpt>
      <trkpt lat="48.71485" lon="-3.29423">
        <ele>83</ele>
        <time>2015-01-25T09:07:59Z</time>
      </trkpt>
      <trkpt lat="48.7149" lon="-3.29416">
        <ele>83</ele>
        <time>2015-01-25T09:08:00Z</time>
      </trkpt>
      <trkpt lat="48.71495" lon="-3.29409">
        <ele>83</ele>
        <time>2015-01-25T09:08:01Z</time>
      </trkpt>
      <trkpt lat="48.715" lon="-3.294">
        <ele>83</ele>
        <time>2015-01-25T09:08:02Z</time>
      </trkpt>
      <trkpt lat="48.71506" lon="-3.29393">
        <ele>83</ele>
        <time>2015-01-25T09:08:03Z</time>
      </trkpt>
      <trkpt lat="48.71512" lon="-3.29384">
        <ele>83</ele>
        <time>2015-01-25T09:08:04Z</time>
      </trkpt>
      <trkpt lat="48.71518" lon="-3.29377">
        <ele>83</ele>
        <time>2015-01-25T09:08:05Z</time>
      </trkpt>
      <trkpt lat="48.71524" lon="-3.29369">
        <ele>83</ele>
        <time>2015-01-25T09:08:06Z</time>
      </trkpt>
      <trkpt lat="48.7153" lon="-3.29361">
        <ele>83</ele>
        <time>2015-01-25T09:08:07Z</time>
      </trkpt>
      <trkpt lat="48.71536" lon="-3.29354">
        <ele>83</ele>
        <time>2015-01-25T09:08:08Z</time>
      </trkpt>
      <trkpt lat="48.71542" lon="-3.29346">
        <ele>83</ele>
        <time>2015-01-25T09:08:09Z</time>
      </trkpt>
      <trkpt lat="48.71548" lon="-3.29339">
        <ele>83</ele>
        <time>2015-01-25T09:08:10Z</time>
      </trkpt>
      <trkpt lat="48.71555" lon="-3.29332">
        <ele>83</ele>
        <time>2015-01-25T09:08:11Z</time>
      </trkpt>
      <trkpt lat="48.71561" lon="-3.29326">
        <ele>83</ele>
        <time>2015-01-25T09:08:12Z</time>
      </trkpt>
      <trkpt lat="48.71568" lon="-3.29319">
        <ele>83</ele>
        <time>2015-01-25T09:08:13Z</time>
      </trkpt>
      <trkpt lat="48.71575" lon="-3.29312">
        <ele>83</ele>
        <time>2015-01-25T09:08:14Z</time>
      </trkpt>
      <trkpt lat="48.71582" lon="-3.29306">
        <ele>83</ele>
        <time>2015-01-25T09:08:15Z</time>
      </trkpt>
      <trkpt lat="48.71589" lon="-3.293">
        <ele>83</ele>
        <time>2015-01-25T09:08:16Z</time>
      </trkpt>
      <trkpt lat="48.71596" lon="-3.29294">
        <ele>83</ele>
        <time>2015-01-25T09:08:17Z</time>
      </trkpt>
      <trkpt lat="48.71603" lon="-3.29288">
        <ele>83</ele>
        <time>2015-01-25T09:08:18Z</time>
      </trkpt>
      <trkpt lat="48.7161" lon="-3.29282">
        <ele>83</ele>
        <time>2015-01-25T09:08:19Z</time>
      </trkpt>
      <trkpt lat="48.71618" lon="-3.29276">
        <ele>83</ele>
        <time>2015-01-25T09:08:20Z</time>
      </trkpt>
      <trkpt lat="48.71625" lon="-3.29271">
        <ele>83</ele>
        <time>2015-01-25T09:08:21Z</time>
      </trkpt>
      <trkpt lat="48.71633" lon="-3.29266">
        <ele>83</ele>
        <time>2015-01-25T09:08:22Z</time>
      </trkpt>
      <trkpt lat="48.7164" lon="-3.29261">
        <ele>83</ele>
        <time>2015-01-25T09:08:23Z</time>
      </trkpt>
      <trkpt lat="48.71648" lon="-3.29256">
        <ele>83</ele>
        <time>2015-01-25T09:08:24Z</time>
      </trkpt>
      <trkpt lat="48.71656" lon="-3.29251">
        <ele>83</ele>
        <time>2015-01-25T09:08:25Z</time>
      </trkpt>
      <trkpt lat="48.71664" lon="-3.29246">
        <ele>83</ele>
        <time>2015-01-25T09:08:26Z</time>
      </trkpt>
      <trkpt lat="48.71672" lon="-3.29242">
        <ele>83</ele>
        <time>2015-01-25T09:08:27Z</time>
      </trkpt>
      <trkpt lat="48.7168" lon="-3.29238">
        <ele>83</ele>
        <time>2015-01-25T09:08:28Z</time>
      </trkpt>
      <trkpt lat="48.71689" lon="-3.29234">
        <ele>83</ele>
        <time>2015-01-25T09:08:29Z</time>
      </trkpt>
      <trkpt lat="48.71697" lon="-3.2923">
        <ele>83</ele>
        <time>2015-01-25T09:08:30Z</time>
      </trkpt>
      <trkpt lat="48.71706" lon="-3.29226">
        <ele>83</ele>
        <time>2015-01-25T09:08:31Z</time>
      </trkpt>
      <trkpt lat="48.71714" lon="-3.29222">
        <ele>83</ele>
        <time>2015-01-25T09:08:32Z</time>
      </trkpt>
      <trkpt lat="48.71723" lon="-3.29219">
        <ele>83</ele>
        <time>2015-01-25T09:08:33Z</time>
      </trkpt>
      <trkpt lat="48.71732" lon="-3.29216">
        <ele>83</ele>
        <time>2015-01-25T09:08:34Z</time>
      </trkpt>
      <trkpt lat="48.71741" lon="-3.29214">
        <ele>83</ele>
        <time>2015-01-25T09:08:35Z</time>
      </trkpt>
      <trkpt lat="48.7175" lon="-3.29211">
        <ele>83</ele>
        <time>2015-01-25T09:08:36Z</time>
      </trkpt>
      <trkpt lat="48.71759" lon="-3.29209">
        <ele>83</ele>
        <time>2015-01-25T09:08:37Z</time>
      </trkpt>
      <trkpt lat="48.71768" lon="-3.29207">
        <ele>82</ele>
        <time>2015-01-25T09:08:38Z</time>
      </trkpt>
      <trkpt lat="48.71777" lon="-3.29205">
        <ele>82</ele>
        <time>2015-01-25T09:08:39Z</time>
      </trkpt>
      <trkpt lat="48.71786" lon="-3.29202">
        <ele>82</ele>
        <time>2015-01-25T09:08:40Z</time>
      </trkpt>
      <trkpt lat="48.71796" lon="-3.292">
        <ele>82</ele>
        <time>2015-01-25T09:08:41Z</time>
      </trkpt>
      <trkpt lat="48.71805" lon="-3.29198">
        <ele>82</ele>
        <time>2015-01-25T09:08:42Z</time>
      </trkpt>
      <trkpt lat="48.71814" lon="-3.29196">
        <ele>81</ele>
        <time>2015-01-25T09:08:43Z</time>
      </trkpt>
      <trkpt lat="48.71824" lon="-3.29194">
        <ele>81</ele>
        <time>2015-01-25T09:08:44Z</time>
      </trkpt>
      <trkpt lat="48.71833" lon="-3.29191">
        <ele>81</ele>
        <time>2015-01-25T09:08:45Z</time>
      </trkpt>
      <trkpt lat="48.71842" lon="-3.29189">
        <ele>81</ele>
        <time>2015-01-25T09:08:46Z</time>
      </trkpt>
      <trkpt lat="48.71852" lon="-3.29187">
        <ele>80</ele>
        <time>2015-01-25T09:08:47Z</time>
      </trkpt>
      <trkpt lat="48.71861" lon="-3.29185">
        <ele>80</ele>
        <time>2015-01-25T09:08:48Z</time>
      </trkpt>
      <trkpt lat="48.7187" lon="-3.29183">
        <ele>80</ele>
        <time>2015-01-25T09:08:49Z</time>
      </trkpt>
      <trkpt lat="48.7188" lon="-3.29181">
        <ele>80</ele>
        <time>2015-01-25T09:08:50Z</time>
      </trkpt>
      <trkpt lat="48.71889" lon="-3.29178">
        <ele>80</ele>
        <time>2015-01-25T09:08:51Z</time>
      </trkpt>
      <trkpt lat="48.71899" lon="-3.29176">
        <ele>80</ele>
        <time>2015-01-25T09:08:52Z</time>
      </trkpt>
      <trkpt lat="48.71908" lon="-3.29174">
        <ele>80</ele>
        <time>2015-01-25T09:08:53Z</time>
      </trkpt>
      <trkpt lat="48.71917" lon="-3.29172">
        <ele>79</ele>
        <time>2015-01-25T09:08:54Z</time>
      </trkpt>
      <trkpt lat="48.71926" lon="-3.2917">
        <ele>79</ele>
        <time>2015-01-25T09:08:55Z</time>
      </trkpt>
      <trkpt lat="48.71935" lon="-3.29168">
        <ele>79</ele>
        <time>2015-01-25T09:08:56Z</time>
      </trkpt>
      <trkpt lat="48.71944" lon="-3.29167">
        <ele>79</ele>
        <time>2015-01-25T09:08:57Z</time>
      </trkpt>
      <trkpt lat="48.71953" lon="-3.29166">
        <ele>79</ele>
        <time>2015-01-25T09:08:58Z</time>
      </trkpt>
      <trkpt lat="48.71962" lon="-3.29164">
        <ele>79</ele>
        <time>2015-01-25T09:08:59Z</time>
      </trkpt>
      <trkpt lat="48.71971" lon="-3.29162">
        <ele>79</ele>
        <time>2015-01-25T09:09:00Z</time>
      </trkpt>
      <trkpt lat="48.71979" lon="-3.2916">
        <ele>79</ele>
        <time>2015-01-25T09:09:01Z</time>
      </trkpt>
      <trkpt lat="48.71988" lon="-3.29158">
        <ele>79</ele>
        <time>2015-01-25T09:09:02Z</time>
      </trkpt>
      <trkpt lat="48.71997" lon="-3.29156">
        <ele>79</ele>
        <time>2015-01-25T09:09:03Z</time>
      </trkpt>
      <trkpt lat="48.72005" lon="-3.29153">
        <ele>78</ele>
        <time>2015-01-25T09:09:04Z</time>
      </trkpt>
      <trkpt lat="48.72014" lon="-3.29151">
        <ele>78</ele>
        <time>2015-01-25T09:09:05Z</time>
      </trkpt>
      <trkpt lat="48.72023" lon="-3.29148">
        <ele>78</ele>
        <time>2015-01-25T09:09:06Z</time>
      </trkpt>
      <trkpt lat="48.72031" lon="-3.29144">
        <ele>78</ele>
        <time>2015-01-25T09:09:07Z</time>
      </trkpt>
      <trkpt lat="48.72041" lon="-3.29141">
        <ele>78</ele>
        <time>2015-01-25T09:09:08Z</time>
      </trkpt>
      <trkpt lat="48.7205" lon="-3.29138">
        <ele>78</ele>
        <time>2015-01-25T09:09:09Z</time>
      </trkpt>
      <trkpt lat="48.72059" lon="-3.29134">
        <ele>78</ele>
        <time>2015-01-25T09:09:10Z</time>
      </trkpt>
      <trkpt lat="48.72068" lon="-3.29131">
        <ele>78</ele>
        <time>2015-01-25T09:09:11Z</time>
      </trkpt>
      <trkpt lat="48.72078" lon="-3.29128">
        <ele>78</ele>
        <time>2015-01-25T09:09:12Z</time>
      </trkpt>
      <trkpt lat="48.72087" lon="-3.29123">
        <ele>78</ele>
        <time>2015-01-25T09:09:13Z</time>
      </trkpt>
      <trkpt lat="48.72096" lon="-3.29119">
        <ele>78</ele>
        <time>2015-01-25T09:09:14Z</time>
      </trkpt>
      <trkpt lat="48.72105" lon="-3.29115">
        <ele>78</ele>
        <time>2015-01-25T09:09:15Z</time>
      </trkpt>
      <trkpt lat="48.72115" lon="-3.2911">
        <ele>78</ele>
        <time>2015-01-25T09:09:16Z</time>
      </trkpt>
      <trkpt lat="48.72124" lon="-3.29104">
        <ele>78</ele>
        <time>2015-01-25T09:09:17Z</time>
      </trkpt>
      <trkpt lat="48.72132" lon="-3.29099">
        <ele>78</ele>
        <time>2015-01-25T09:09:18Z</time>
      </trkpt>
      <trkpt lat="48.72141" lon="-3.29093">
        <ele>78</ele>
        <time>2015-01-25T09:09:19Z</time>
      </trkpt>
      <trkpt lat="48.7215" lon="-3.29086">
        <ele>78</ele>
        <time>2015-01-25T09:09:20Z</time>
      </trkpt>
      <trkpt lat="48.72158" lon="-3.2908">
        <ele>78</ele>
        <time>2015-01-25T09:09:21Z</time>
      </trkpt>
      <trkpt lat="48.72166" lon="-3.29074">
        <ele>78</ele>
        <time>2015-01-25T09:09:22Z</time>
      </trkpt>
      <trkpt lat="48.72174" lon="-3.29068">
        <ele>78</ele>
        <time>2015-01-25T09:09:23Z</time>
      </trkpt>
      <trkpt lat="48.72183" lon="-3.29062">
        <ele>77</ele>
        <time>2015-01-25T09:09:24Z</time>
      </trkpt>
      <trkpt lat="48.72191" lon="-3.29055">
        <ele>77</ele>
        <time>2015-01-25T09:09:25Z</time>
      </trkpt>
      <trkpt lat="48.722" lon="-3.29049">
        <ele>77</ele>
        <time>2015-01-25T09:09:26Z</time>
      </trkpt>
      <trkpt lat="48.72208" lon="-3.29043">
        <ele>77</ele>
        <time>2015-01-25T09:09:27Z</time>
      </trkpt>
      <trkpt lat="48.72216" lon="-3.29037">
        <ele>77</ele>
        <time>2015-01-25T09:09:28Z</time>
      </trkpt>
      <trkpt lat="48.72224" lon="-3.2903">
        <ele>77</ele>
        <time>2015-01-25T09:09:29Z</time>
      </trkpt>
      <trkpt lat="48.72232" lon="-3.29024">
        <ele>77</ele>
        <time>2015-01-25T09:09:30Z</time>
      </trkpt>
      <trkpt lat="48.72241" lon="-3.29017">
        <ele>77</ele>
        <time>2015-01-25T09:09:31Z</time>
      </trkpt>
      <trkpt lat="48.72249" lon="-3.29011">
        <ele>77</ele>
        <time>2015-01-25T09:09:32Z</time>
      </trkpt>
      <trkpt lat="48.72258" lon="-3.29004">
        <ele>77</ele>
        <time>2015-01-25T09:09:33Z</time>
      </trkpt>
      <trkpt lat="48.72266" lon="-3.28997">
        <ele>77</ele>
        <time>2015-01-25T09:09:34Z</time>
      </trkpt>
      <trkpt lat="48.72274" lon="-3.28991">
        <ele>77</ele>
        <time>2015-01-25T09:09:35Z</time>
      </trkpt>
      <trkpt lat="48.72283" lon="-3.28984">
        <ele>77</ele>
        <time>2015-01-25T09:09:36Z</time>
      </trkpt>
      <trkpt lat="48.72291" lon="-3.28977">
        <ele>76</ele>
        <time>2015-01-25T09:09:37Z</time>
      </trkpt>
      <trkpt lat="48.723" lon="-3.2897">
        <ele>76</ele>
        <time>2015-01-25T09:09:38Z</time>
      </trkpt>
      <trkpt lat="48.72308" lon="-3.28962">
        <ele>76</ele>
        <time>2015-01-25T09:09:39Z</time>
      </trkpt>
      <trkpt lat="48.72317" lon="-3.28955">
        <ele>76</ele>
        <time>2015-01-25T09:09:40Z</time>
      </trkpt>
      <trkpt lat="48.72325" lon="-3.28947">
        <ele>76</ele>
        <time>2015-01-25T09:09:41Z</time>
      </trkpt>
      <trkpt lat="48.72333" lon="-3.28939">
        <ele>75</ele>
        <time>2015-01-25T09:09:42Z</time>
      </trkpt>
      <trkpt lat="48.72342" lon="-3.28931">
        <ele>75</ele>
        <time>2015-01-25T09:09:43Z</time>
      </trkpt>
      <trkpt lat="48.7235" lon="-3.28923">
        <ele>75</ele>
        <time>2015-01-25T09:09:44Z</time>
      </trkpt>
      <trkpt lat="48.72359" lon="-3.28915">
        <ele>75</ele>
        <time>2015-01-25T09:09:45Z</time>
      </trkpt>
      <trkpt lat="48.72368" lon="-3.28907">
        <ele>74</ele>
        <time>2015-01-25T09:09:46Z</time>
      </trkpt>
      <trkpt lat="48.72377" lon="-3.28899">
        <ele>74</ele>
        <time>2015-01-25T09:09:47Z</time>
      </trkpt>
      <trkpt lat="48.72387" lon="-3.2889">
        <ele>73</ele>
        <time>2015-01-25T09:09:48Z</time>
      </trkpt>
      <trkpt lat="48.72396" lon="-3.28881">
        <ele>72</ele>
        <time>2015-01-25T09:09:49Z</time>
      </trkpt>
      <trkpt lat="48.72406" lon="-3.28872">
        <ele>72</ele>
        <time>2015-01-25T09:09:50Z</time>
      </trkpt>
      <trkpt lat="48.72416" lon="-3.28862">
        <ele>71</ele>
        <time>2015-01-25T09:09:51Z</time>
      </trkpt>
      <trkpt lat="48.72425" lon="-3.28852">
        <ele>71</ele>
        <time>2015-01-25T09:09:52Z</time>
      </trkpt>
      <trkpt lat="48.72435" lon="-3.28842">
        <ele>70</ele>
        <time>2015-01-25T09:09:53Z</time>
      </trkpt>
      <trkpt lat="48.72445" lon="-3.28831">
        <ele>69</ele>
        <time>2015-01-25T09:09:54Z</time>
      </trkpt>
      <trkpt lat="48.72455" lon="-3.28819">
        <ele>69</ele>
        <time>2015-01-25T09:09:55Z</time>
      </trkpt>
      <trkpt lat="48.72465" lon="-3.28808">
        <ele>68</ele>
        <time>2015-01-25T09:09:56Z</time>
      </trkpt>
      <trkpt lat="48.72476" lon="-3.28797">
        <ele>67</ele>
        <time>2015-01-25T09:09:57Z</time>
      </trkpt>
      <trkpt lat="48.72487" lon="-3.28785">
        <ele>66</ele>
        <time>2015-01-25T09:09:58Z</time>
      </trkpt>
      <trkpt lat="48.72498" lon="-3.28774">
        <ele>66</ele>
        <time>2015-01-25T09:09:59Z</time>
      </trkpt>
      <trkpt lat="48.72509" lon="-3.28763">
        <ele>65</ele>
        <time>2015-01-25T09:10:00Z</time>
      </trkpt>
      <trkpt lat="48.72521" lon="-3.28751">
        <ele>64</ele>
        <time>2015-01-25T09:10:01Z</time>
      </trkpt>
      <trkpt lat="48.72532" lon="-3.2874">
        <ele>63</ele>
        <time>2015-01-25T09:10:02Z</time>
      </trkpt>
      <trkpt lat="48.72543" lon="-3.28729">
        <ele>63</ele>
        <time>2015-01-25T09:10:03Z</time>
      </trkpt>
      <trkpt lat="48.72555" lon="-3.28718">
        <ele>62</ele>
        <time>2015-01-25T09:10:04Z</time>
      </trkpt>
      <trkpt lat="48.72567" lon="-3.28707">
        <ele>61</ele>
        <time>2015-01-25T09:10:05Z</time>
      </trkpt>
      <trkpt lat="48.72578" lon="-3.28697">
        <ele>60</ele>
        <time>2015-01-25T09:10:06Z</time>
      </trkpt>
      <trkpt lat="48.72591" lon="-3.28688">
        <ele>60</ele>
        <time>2015-01-25T09:10:07Z</time>
      </trkpt>
      <trkpt lat="48.72603" lon="-3.28679">
        <ele>59</ele>
        <time>2015-01-25T09:10:08Z</time>
      </trkpt>
      <trkpt lat="48.72615" lon="-3.28671">
        <ele>58</ele>
        <time>2015-01-25T09:10:09Z</time>
      </trkpt>
      <trkpt lat="48.72628" lon="-3.28663">
        <ele>57</ele>
        <time>2015-01-25T09:10:10Z</time>
      </trkpt>
      <trkpt lat="48.72641" lon="-3.28655">
        <ele>57</ele>
        <time>2015-01-25T09:10:11Z</time>
      </trkpt>
      <trkpt lat="48.72654" lon="-3.28648">
        <ele>56</ele>
        <time>2015-01-25T09:10:12Z</time>
      </trkpt>
      <trkpt lat="48.72667" lon="-3.2864">
        <ele>55</ele>
        <time>2015-01-25T09:10:13Z</time>
      </trkpt>
      <trkpt lat="48.7268" lon="-3.28631">
        <ele>54</ele>
        <time>2015-01-25T09:10:14Z</time>
      </trkpt>
      <trkpt lat="48.72693" lon="-3.28623">
        <ele>53</ele>
        <time>2015-01-25T09:10:15Z</time>
      </trkpt>
      <trkpt lat="48.72706" lon="-3.28614">
        <ele>52</ele>
        <time>2015-01-25T09:10:16Z</time>
      </trkpt>
      <trkpt lat="48.72718" lon="-3.28606">
        <ele>52</ele>
        <time>2015-01-25T09:10:17Z</time>
      </trkpt>
      <trkpt lat="48.72731" lon="-3.28597">
        <ele>51</ele>
        <time>2015-01-25T09:10:18Z</time>
      </trkpt>
      <trkpt lat="48.72743" lon="-3.28588">
        <ele>50</ele>
        <time>2015-01-25T09:10:19Z</time>
      </trkpt>
      <trkpt lat="48.72755" lon="-3.28578">
        <ele>50</ele>
        <time>2015-01-25T09:10:20Z</time>
      </trkpt>
      <trkpt lat="48.72766" lon="-3.28568">
        <ele>49</ele>
        <time>2015-01-25T09:10:21Z</time>
      </trkpt>
      <trkpt lat="48.72777" lon="-3.28558">
        <ele>49</ele>
        <time>2015-01-25T09:10:22Z</time>
      </trkpt>
      <trkpt lat="48.72789" lon="-3.28548">
        <ele>48</ele>
        <time>2015-01-25T09:10:23Z</time>
      </trkpt>
      <trkpt lat="48.728" lon="-3.28538">
        <ele>47</ele>
        <time>2015-01-25T09:10:24Z</time>
      </trkpt>
      <trkpt lat="48.72812" lon="-3.28528">
        <ele>47</ele>
        <time>2015-01-25T09:10:25Z</time>
      </trkpt>
      <trkpt lat="48.72824" lon="-3.28519">
        <ele>46</ele>
        <time>2015-01-25T09:10:26Z</time>
      </trkpt>
      <trkpt lat="48.72836" lon="-3.2851">
        <ele>45</ele>
        <time>2015-01-25T09:10:27Z</time>
      </trkpt>
      <trkpt lat="48.72849" lon="-3.28502">
        <ele>44</ele>
        <time>2015-01-25T09:10:28Z</time>
      </trkpt>
      <trkpt lat="48.72862" lon="-3.28496">
        <ele>43</ele>
        <time>2015-01-25T09:10:29Z</time>
      </trkpt>
      <trkpt lat="48.72874" lon="-3.28489">
        <ele>42</ele>
        <time>2015-01-25T09:10:30Z</time>
      </trkpt>
      <trkpt lat="48.72886" lon="-3.28484">
        <ele>41</ele>
        <time>2015-01-25T09:10:31Z</time>
      </trkpt>
      <trkpt lat="48.72898" lon="-3.28478">
        <ele>40</ele>
        <time>2015-01-25T09:10:32Z</time>
      </trkpt>
      <trkpt lat="48.7291" lon="-3.28473">
        <ele>39</ele>
        <time>2015-01-25T09:10:33Z</time>
      </trkpt>
      <trkpt lat="48.72923" lon="-3.28466">
        <ele>38</ele>
        <time>2015-01-25T09:10:34Z</time>
      </trkpt>
      <trkpt lat="48.72935" lon="-3.28459">
        <ele>37</ele>
        <time>2015-01-25T09:10:35Z</time>
      </trkpt>
      <trkpt lat="48.72948" lon="-3.2845">
        <ele>36</ele>
        <time>2015-01-25T09:10:36Z</time>
      </trkpt>
      <trkpt lat="48.72961" lon="-3.28441">
        <ele>35</ele>
        <time>2015-01-25T09:10:37Z</time>
      </trkpt>
      <trkpt lat="48.72974" lon="-3.28431">
        <ele>34</ele>
        <time>2015-01-25T09:10:38Z</time>
      </trkpt>
      <trkpt lat="48.72986" lon="-3.28421">
        <ele>33</ele>
        <time>2015-01-25T09:10:39Z</time>
      </trkpt>
      <trkpt lat="48.72999" lon="-3.28411">
        <ele>32</ele>
        <time>2015-01-25T09:10:40Z</time>
      </trkpt>
      <trkpt lat="48.73011" lon="-3.284">
        <ele>31</ele>
        <time>2015-01-25T09:10:41Z</time>
      </trkpt>
      <trkpt lat="48.73024" lon="-3.28389">
        <ele>30</ele>
        <time>2015-01-25T09:10:42Z</time>
      </trkpt>
      <trkpt lat="48.73036" lon="-3.28377">
        <ele>29</ele>
        <time>2015-01-25T09:10:43Z</time>
      </trkpt>
      <trkpt lat="48.73048" lon="-3.28365">
        <ele>28</ele>
        <time>2015-01-25T09:10:44Z</time>
      </trkpt>
      <trkpt lat="48.73058" lon="-3.28351">
        <ele>27</ele>
        <time>2015-01-25T09:10:45Z</time>
      </trkpt>
      <trkpt lat="48.73068" lon="-3.28337">
        <ele>26</ele>
        <time>2015-01-25T09:10:46Z</time>
      </trkpt>
      <trkpt lat="48.73077" lon="-3.28321">
        <ele>25</ele>
        <time>2015-01-25T09:10:47Z</time>
      </trkpt>
      <trkpt lat="48.73085" lon="-3.28304">
        <ele>25</ele>
        <time>2015-01-25T09:10:48Z</time>
      </trkpt>
      <trkpt lat="48.73092" lon="-3.28287">
        <ele>24</ele>
        <time>2015-01-25T09:10:49Z</time>
      </trkpt>
      <trkpt lat="48.73099" lon="-3.2827">
        <ele>23</ele>
        <time>2015-01-25T09:10:50Z</time>
      </trkpt>
      <trkpt lat="48.73105" lon="-3.28252">
        <ele>23</ele>
        <time>2015-01-25T09:10:51Z</time>
      </trkpt>
      <trkpt lat="48.73111" lon="-3.28234">
        <ele>22</ele>
        <time>2015-01-25T09:10:52Z</time>
      </trkpt>
      <trkpt lat="48.73117" lon="-3.28216">
        <ele>22</ele>
        <time>2015-01-25T09:10:53Z</time>
      </trkpt>
      <trkpt lat="48.73124" lon="-3.28198">
        <ele>21</ele>
        <time>2015-01-25T09:10:54Z</time>
      </trkpt>
      <trkpt lat="48.7313" lon="-3.2818">
        <ele>20</ele>
        <time>2015-01-25T09:10:55Z</time>
      </trkpt>
      <trkpt lat="48.73136" lon="-3.28162">
        <ele>20</ele>
        <time>2015-01-25T09:10:56Z</time>
      </trkpt>
      <trkpt lat="48.73142" lon="-3.28144">
        <ele>19</ele>
        <time>2015-01-25T09:10:57Z</time>
      </trkpt>
      <trkpt lat="48.73148" lon="-3.28126">
        <ele>19</ele>
        <time>2015-01-25T09:10:58Z</time>
      </trkpt>
      <trkpt lat="48.73154" lon="-3.28108">
        <ele>19</ele>
        <time>2015-01-25T09:10:59Z</time>
      </trkpt>
      <trkpt lat="48.7316" lon="-3.2809">
        <ele>18</ele>
        <time>2015-01-25T09:11:00Z</time>
      </trkpt>
      <trkpt lat="48.73166" lon="-3.28073">
        <ele>18</ele>
        <time>2015-01-25T09:11:01Z</time>
      </trkpt>
      <trkpt lat="48.73172" lon="-3.28056">
        <ele>18</ele>
        <time>2015-01-25T09:11:02Z</time>
      </trkpt>
      <trkpt lat="48.73179" lon="-3.2804">
        <ele>17</ele>
        <time>2015-01-25T09:11:03Z</time>
      </trkpt>
      <trkpt lat="48.73186" lon="-3.28024">
        <ele>17</ele>
        <time>2015-01-25T09:11:04Z</time>
      </trkpt>
      <trkpt lat="48.73194" lon="-3.28009">
        <ele>16</ele>
        <time>2015-01-25T09:11:05Z</time>
      </trkpt>
      <trkpt lat="48.73203" lon="-3.27995">
        <ele>16</ele>
        <time>2015-01-25T09:11:06Z</time>
      </trkpt>
      <trkpt lat="48.73211" lon="-3.27982">
        <ele>16</ele>
        <time>2015-01-25T09:11:07Z</time>
      </trkpt>
      <trkpt lat="48.7322" lon="-3.27968">
        <ele>15</ele>
        <time>2015-01-25T09:11:08Z</time>
      </trkpt>
      <trkpt lat="48.73228" lon="-3.27955">
        <ele>15</ele>
        <time>2015-01-25T09:11:09Z</time>
      </trkpt>
      <trkpt lat="48.73236" lon="-3.27942">
        <ele>15</ele>
        <time>2015-01-25T09:11:10Z</time>
      </trkpt>
      <trkpt lat="48.73244" lon="-3.2793">
        <ele>15</ele>
        <time>2015-01-25T09:11:11Z</time>
      </trkpt>
      <trkpt lat="48.73252" lon="-3.27917">
        <ele>15</ele>
        <time>2015-01-25T09:11:12Z</time>
      </trkpt>
      <trkpt lat="48.7326" lon="-3.27904">
        <ele>14</ele>
        <time>2015-01-25T09:11:13Z</time>
      </trkpt>
      <trkpt lat="48.73267" lon="-3.2789">
        <ele>14</ele>
        <time>2015-01-25T09:11:14Z</time>
      </trkpt>
      <trkpt lat="48.73274" lon="-3.27876">
        <ele>14</ele>
        <time>2015-01-25T09:11:15Z</time>
      </trkpt>
      <trkpt lat="48.7328" lon="-3.27862">
        <ele>14</ele>
        <time>2015-01-25T09:11:16Z</time>
      </trkpt>
      <trkpt lat="48.73288" lon="-3.27849">
        <ele>13</ele>
        <time>2015-01-25T09:11:17Z</time>
      </trkpt>
      <trkpt lat="48.73295" lon="-3.27837">
        <ele>13</ele>
        <time>2015-01-25T09:11:18Z</time>
      </trkpt>
      <trkpt lat="48.73302" lon="-3.27825">
        <ele>13</ele>
        <time>2015-01-25T09:11:19Z</time>
      </trkpt>
      <trkpt lat="48.7331" lon="-3.27814">
        <ele>12</ele>
        <time>2015-01-25T09:11:20Z</time>
      </trkpt>
      <trkpt lat="48.73318" lon="-3.27803">
        <ele>12</ele>
        <time>2015-01-25T09:11:21Z</time>
      </trkpt>
      <trkpt lat="48.73326" lon="-3.27792">
        <ele>11</ele>
        <time>2015-01-25T09:11:22Z</time>
      </trkpt>
      <trkpt lat="48.73335" lon="-3.27781">
        <ele>11</ele>
        <time>2015-01-25T09:11:23Z</time>
      </trkpt>
      <trkpt lat="48.73344" lon="-3.27771">
        <ele>11</ele>
        <time>2015-01-25T09:11:24Z</time>
      </trkpt>
      <trkpt lat="48.73353" lon="-3.27762">
        <ele>10</ele>
        <time>2015-01-25T09:11:25Z</time>
      </trkpt>
      <trkpt lat="48.73362" lon="-3.27754">
        <ele>10</ele>
        <time>2015-01-25T09:11:26Z</time>
      </trkpt>
      <trkpt lat="48.73372" lon="-3.27747">
        <ele>10</ele>
        <time>2015-01-25T09:11:27Z</time>
      </trkpt>
      <trkpt lat="48.73382" lon="-3.27741">
        <ele>9</ele>
        <time>2015-01-25T09:11:28Z</time>
      </trkpt>
      <trkpt lat="48.73392" lon="-3.27736">
        <ele>9</ele>
        <time>2015-01-25T09:11:29Z</time>
      </trkpt>
      <trkpt lat="48.73402" lon="-3.27732">
        <ele>9</ele>
        <time>2015-01-25T09:11:30Z</time>
      </trkpt>
      <trkpt lat="48.73412" lon="-3.27728">
        <ele>9</ele>
        <time>2015-01-25T09:11:31Z</time>
      </trkpt>
      <trkpt lat="48.73421" lon="-3.27724">
        <ele>9</ele>
        <time>2015-01-25T09:11:32Z</time>
      </trkpt>
      <trkpt lat="48.7343" lon="-3.2772">
        <ele>9</ele>
        <time>2015-01-25T09:11:33Z</time>
      </trkpt>
      <trkpt lat="48.73439" lon="-3.27716">
        <ele>9</ele>
        <time>2015-01-25T09:11:34Z</time>
      </trkpt>
      <trkpt lat="48.73447" lon="-3.27711">
        <ele>9</ele>
        <time>2015-01-25T09:11:35Z</time>
      </trkpt>
      <trkpt lat="48.73455" lon="-3.27706">
        <ele>9</ele>
        <time>2015-01-25T09:11:36Z</time>
      </trkpt>
      <trkpt lat="48.73463" lon="-3.27701">
        <ele>9</ele>
        <time>2015-01-25T09:11:37Z</time>
      </trkpt>
      <trkpt lat="48.73471" lon="-3.27695">
        <ele>9</ele>
        <time>2015-01-25T09:11:38Z</time>
      </trkpt>
      <trkpt lat="48.73478" lon="-3.27689">
        <ele>9</ele>
        <time>2015-01-25T09:11:39Z</time>
      </trkpt>
      <trkpt lat="48.73485" lon="-3.27683">
        <ele>9</ele>
        <time>2015-01-25T09:11:40Z</time>
      </trkpt>
      <trkpt lat="48.73492" lon="-3.27676">
        <ele>9</ele>
        <time>2015-01-25T09:11:41Z</time>
      </trkpt>
      <trkpt lat="48.73499" lon="-3.27669">
        <ele>9</ele>
        <time>2015-01-25T09:11:42Z</time>
      </trkpt>
      <trkpt lat="48.73506" lon="-3.27661">
        <ele>9</ele>
        <time>2015-01-25T09:11:43Z</time>
      </trkpt>
      <trkpt lat="48.73513" lon="-3.27653">
        <ele>9</ele>
        <time>2015-01-25T09:11:44Z</time>
      </trkpt>
      <trkpt lat="48.73519" lon="-3.27645">
        <ele>9</ele>
        <time>2015-01-25T09:11:45Z</time>
      </trkpt>
      <trkpt lat="48.73525" lon="-3.27637">
        <ele>9</ele>
        <time>2015-01-25T09:11:46Z</time>
      </trkpt>
      <trkpt lat="48.73532" lon="-3.27628">
        <ele>9</ele>
        <time>2015-01-25T09:11:47Z</time>
      </trkpt>
      <trkpt lat="48.73538" lon="-3.2762">
        <ele>9</ele>
        <time>2015-01-25T09:11:48Z</time>
      </trkpt>
      <trkpt lat="48.73544" lon="-3.27611">
        <ele>9</ele>
        <time>2015-01-25T09:11:49Z</time>
      </trkpt>
      <trkpt lat="48.7355" lon="-3.27602">
        <ele>9</ele>
        <time>2015-01-25T09:11:50Z</time>
      </trkpt>
      <trkpt lat="48.73556" lon="-3.27593">
        <ele>9</ele>
        <time>2015-01-25T09:11:51Z</time>
      </trkpt>
      <trkpt lat="48.73562" lon="-3.27584">
        <ele>9</ele>
        <time>2015-01-25T09:11:52Z</time>
      </trkpt>
      <trkpt lat="48.73567" lon="-3.27575">
        <ele>9</ele>
        <time>2015-01-25T09:11:53Z</time>
      </trkpt>
      <trkpt lat="48.73572" lon="-3.27566">
        <ele>9</ele>
        <time>2015-01-25T09:11:54Z</time>
      </trkpt>
      <trkpt lat="48.73577" lon="-3.27556">
        <ele>9</ele>
        <time>2015-01-25T09:11:55Z</time>
      </trkpt>
      <trkpt lat="48.73582" lon="-3.27546">
        <ele>9</ele>
        <time>2015-01-25T09:11:56Z</time>
      </trkpt>
      <trkpt lat="48.73587" lon="-3.27536">
        <ele>9</ele>
        <time>2015-01-25T09:11:57Z</time>
      </trkpt>
      <trkpt lat="48.73592" lon="-3.27526">
        <ele>9</ele>
        <time>2015-01-25T09:11:58Z</time>
      </trkpt>
      <trkpt lat="48.73597" lon="-3.27516">
        <ele>9</ele>
        <time>2015-01-25T09:11:59Z</time>
      </trkpt>
      <trkpt lat="48.73601" lon="-3.27505">
        <ele>9</ele>
        <time>2015-01-25T09:12:00Z</time>
      </trkpt>
      <trkpt lat="48.73606" lon="-3.27495">
        <ele>9</ele>
        <time>2015-01-25T09:12:01Z</time>
      </trkpt>
      <trkpt lat="48.7361" lon="-3.27484">
        <ele>9</ele>
        <time>2015-01-25T09:12:02Z</time>
      </trkpt>
      <trkpt lat="48.73615" lon="-3.27473">
        <ele>9</ele>
        <time>2015-01-25T09:12:03Z</time>
      </trkpt>
      <trkpt lat="48.73619" lon="-3.27462">
        <ele>9</ele>
        <time>2015-01-25T09:12:04Z</time>
      </trkpt>
      <trkpt lat="48.73624" lon="-3.27451">
        <ele>9</ele>
        <time>2015-01-25T09:12:05Z</time>
      </trkpt>
      <trkpt lat="48.73629" lon="-3.27441">
        <ele>9</ele>
        <time>2015-01-25T09:12:06Z</time>
      </trkpt>
      <trkpt lat="48.73634" lon="-3.27431">
        <ele>9</ele>
        <time>2015-01-25T09:12:07Z</time>
      </trkpt>
      <trkpt lat="48.73638" lon="-3.27422">
        <ele>9</ele>
        <time>2015-01-25T09:12:08Z</time>
      </trkpt>
      <trkpt lat="48.73643" lon="-3.27412">
        <ele>9</ele>
        <time>2015-01-25T09:12:09Z</time>
      </trkpt>
      <trkpt lat="48.73648" lon="-3.27403">
        <ele>9</ele>
        <time>2015-01-25T09:12:10Z</time>
      </trkpt>
      <trkpt lat="48.73653" lon="-3.27395">
        <ele>9</ele>
        <time>2015-01-25T09:12:11Z</time>
      </trkpt>
      <trkpt lat="48.73658" lon="-3.27386">
        <ele>9</ele>
        <time>2015-01-25T09:12:12Z</time>
      </trkpt>
      <trkpt lat="48.73663" lon="-3.27378">
        <ele>9</ele>
        <time>2015-01-25T09:12:13Z</time>
      </trkpt>
      <trkpt lat="48.73668" lon="-3.27369">
        <ele>9</ele>
        <time>2015-01-25T09:12:14Z</time>
      </trkpt>
      <trkpt lat="48.73673" lon="-3.27361">
        <ele>9</ele>
        <time>2015-01-25T09:12:15Z</time>
      </trkpt>
      <trkpt lat="48.73677" lon="-3.27353">
        <ele>9</ele>
        <time>2015-01-25T09:12:16Z</time>
      </trkpt>
      <trkpt lat="48.73682" lon="-3.27345">
        <ele>9</ele>
        <time>2015-01-25T09:12:17Z</time>
      </trkpt>
      <trkpt lat="48.73687" lon="-3.27337">
        <ele>9</ele>
        <time>2015-01-25T09:12:18Z</time>
      </trkpt>
      <trkpt lat="48.73692" lon="-3.27329">
        <ele>9</ele>
        <time>2015-01-25T09:12:19Z</time>
      </trkpt>
      <trkpt lat="48.73696" lon="-3.27321">
        <ele>10</ele>
        <time>2015-01-25T09:12:20Z</time>
      </trkpt>
      <trkpt lat="48.737" lon="-3.27312">
        <ele>10</ele>
        <time>2015-01-25T09:12:21Z</time>
      </trkpt>
      <trkpt lat="48.73704" lon="-3.27303">
        <ele>10</ele>
        <time>2015-01-25T09:12:22Z</time>
      </trkpt>
      <trkpt lat="48.73708" lon="-3.27294">
        <ele>10</ele>
        <time>2015-01-25T09:12:23Z</time>
      </trkpt>
      <trkpt lat="48.73711" lon="-3.27285">
        <ele>10</ele>
        <time>2015-01-25T09:12:24Z</time>
      </trkpt>
      <trkpt lat="48.73715" lon="-3.27275">
        <ele>10</ele>
        <time>2015-01-25T09:12:25Z</time>
      </trkpt>
      <trkpt lat="48.73719" lon="-3.27266">
        <ele>10</ele>
        <time>2015-01-25T09:12:26Z</time>
      </trkpt>
      <trkpt lat="48.73722" lon="-3.27256">
        <ele>11</ele>
        <time>2015-01-25T09:12:27Z</time>
      </trkpt>
      <trkpt lat="48.73726" lon="-3.27246">
        <ele>11</ele>
        <time>2015-01-25T09:12:28Z</time>
      </trkpt>
      <trkpt lat="48.73729" lon="-3.27236">
        <ele>11</ele>
        <time>2015-01-25T09:12:29Z</time>
      </trkpt>
      <trkpt lat="48.73733" lon="-3.27226">
        <ele>11</ele>
        <time>2015-01-25T09:12:30Z</time>
      </trkpt>
      <trkpt lat="48.73737" lon="-3.27216">
        <ele>11</ele>
        <time>2015-01-25T09:12:31Z</time>
      </trkpt>
      <trkpt lat="48.7374" lon="-3.27205">
        <ele>11</ele>
        <time>2015-01-25T09:12:32Z</time>
      </trkpt>
      <trkpt lat="48.73743" lon="-3.27194">
        <ele>11</ele>
        <time>2015-01-25T09:12:33Z</time>
      </trkpt>
      <trkpt lat="48.73746" lon="-3.27183">
        <ele>11</ele>
        <time>2015-01-25T09:12:34Z</time>
      </trkpt>
      <trkpt lat="48.7375" lon="-3.27172">
        <ele>11</ele>
        <time>2015-01-25T09:12:35Z</time>
      </trkpt>
      <trkpt lat="48.73752" lon="-3.27161">
        <ele>11</ele>
        <time>2015-01-25T09:12:36Z</time>
      </trkpt>
      <trkpt lat="48.73755" lon="-3.2715">
        <ele>11</ele>
        <time>2015-01-25T09:12:37Z</time>
      </trkpt>
      <trkpt lat="48.73757" lon="-3.27138">
        <ele>11</ele>
        <time>2015-01-25T09:12:38Z</time>
      </trkpt>
      <trkpt lat="48.7376" lon="-3.27127">
        <ele>11</ele>
        <time>2015-01-25T09:12:39Z</time>
      </trkpt>
      <trkpt lat="48.73763" lon="-3.27116">
        <ele>11</ele>
        <time>2015-01-25T09:12:40Z</time>
      </trkpt>
      <trkpt lat="48.73765" lon="-3.27106">
        <ele>11</ele>
        <time>2015-01-25T09:12:41Z</time>
      </trkpt>
      <trkpt lat="48.73767" lon="-3.27095">
        <ele>11</ele>
        <time>2015-01-25T09:12:42Z</time>
      </trkpt>
      <trkpt lat="48.73769" lon="-3.27084">
        <ele>11</ele>
        <time>2015-01-25T09:12:43Z</time>
      </trkpt>
      <trkpt lat="48.73772" lon="-3.27074">
        <ele>11</ele>
        <time>2015-01-25T09:12:44Z</time>
      </trkpt>
      <trkpt lat="48.73774" lon="-3.27063">
        <ele>11</ele>
        <time>2015-01-25T09:12:45Z</time>
      </trkpt>
      <trkpt lat="48.73777" lon="-3.27052">
        <ele>11</ele>
        <time>2015-01-25T09:12:46Z</time>
      </trkpt>
      <trkpt lat="48.73779" lon="-3.27041">
        <ele>11</ele>
        <time>2015-01-25T09:12:47Z</time>
      </trkpt>
      <trkpt lat="48.73781" lon="-3.27031">
        <ele>12</ele>
        <time>2015-01-25T09:12:48Z</time>
      </trkpt>
      <trkpt lat="48.73783" lon="-3.2702">
        <ele>12</ele>
        <time>2015-01-25T09:12:49Z</time>
      </trkpt>
      <trkpt lat="48.73786" lon="-3.2701">
        <ele>12</ele>
        <time>2015-01-25T09:12:50Z</time>
      </trkpt>
      <trkpt lat="48.73789" lon="-3.27">
        <ele>13</ele>
        <time>2015-01-25T09:12:51Z</time>
      </trkpt>
      <trkpt lat="48.73792" lon="-3.26991">
        <ele>13</ele>
        <time>2015-01-25T09:12:52Z</time>
      </trkpt>
      <trkpt lat="48.73795" lon="-3.26982">
        <ele>13</ele>
        <time>2015-01-25T09:12:53Z</time>
      </trkpt>
      <trkpt lat="48.738" lon="-3.26974">
        <ele>14</ele>
        <time>2015-01-25T09:12:54Z</time>
      </trkpt>
      <trkpt lat="48.73803" lon="-3.26967">
        <ele>14</ele>
        <time>2015-01-25T09:12:55Z</time>
      </trkpt>
      <trkpt lat="48.73808" lon="-3.2696">
        <ele>14</ele>
        <time>2015-01-25T09:12:56Z</time>
      </trkpt>
      <trkpt lat="48.73812" lon="-3.26954">
        <ele>15</ele>
        <time>2015-01-25T09:12:57Z</time>
      </trkpt>
      <trkpt lat="48.73817" lon="-3.26948">
        <ele>15</ele>
        <time>2015-01-25T09:12:58Z</time>
      </trkpt>
      <trkpt lat="48.73821" lon="-3.26942">
        <ele>16</ele>
        <time>2015-01-25T09:12:59Z</time>
      </trkpt>
      <trkpt lat="48.73826" lon="-3.26936">
        <ele>16</ele>
        <time>2015-01-25T09:13:00Z</time>
      </trkpt>
      <trkpt lat="48.73831" lon="-3.2693">
        <ele>17</ele>
        <time>2015-01-25T09:13:01Z</time>
      </trkpt>
      <trkpt lat="48.73836" lon="-3.26924">
        <ele>17</ele>
        <time>2015-01-25T09:13:02Z</time>
      </trkpt>
      <trkpt lat="48.73841" lon="-3.26919">
        <ele>17</ele>
        <time>2015-01-25T09:13:03Z</time>
      </trkpt>
      <trkpt lat="48.73846" lon="-3.26913">
        <ele>17</ele>
        <time>2015-01-25T09:13:04Z</time>
      </trkpt>
      <trkpt lat="48.73851" lon="-3.26908">
        <ele>18</ele>
        <time>2015-01-25T09:13:05Z</time>
      </trkpt>
      <trkpt lat="48.73856" lon="-3.26902">
        <ele>18</ele>
        <time>2015-01-25T09:13:06Z</time>
      </trkpt>
      <trkpt lat="48.73862" lon="-3.26897">
        <ele>18</ele>
        <time>2015-01-25T09:13:07Z</time>
      </trkpt>
      <trkpt lat="48.73867" lon="-3.26892">
        <ele>19</ele>
        <time>2015-01-25T09:13:08Z</time>
      </trkpt>
      <trkpt lat="48.73873" lon="-3.26887">
        <ele>19</ele>
        <time>2015-01-25T09:13:09Z</time>
      </trkpt>
      <trkpt lat="48.73879" lon="-3.26882">
        <ele>19</ele>
        <time>2015-01-25T09:13:10Z</time>
      </trkpt>
      <trkpt lat="48.73885" lon="-3.26878">
        <ele>19</ele>
        <time>2015-01-25T09:13:11Z</time>
      </trkpt>
      <trkpt lat="48.73891" lon="-3.26874">
        <ele>20</ele>
        <time>2015-01-25T09:13:12Z</time>
      </trkpt>
      <trkpt lat="48.73897" lon="-3.2687">
        <ele>20</ele>
        <time>2015-01-25T09:13:13Z</time>
      </trkpt>
      <trkpt lat="48.73904" lon="-3.26865">
        <ele>20</ele>
        <time>2015-01-25T09:13:14Z</time>
      </trkpt>
      <trkpt lat="48.73909" lon="-3.26861">
        <ele>21</ele>
        <time>2015-01-25T09:13:15Z</time>
      </trkpt>
      <trkpt lat="48.73916" lon="-3.26856">
        <ele>21</ele>
        <time>2015-01-25T09:13:16Z</time>
      </trkpt>
      <trkpt lat="48.73922" lon="-3.26852">
        <ele>21</ele>
        <time>2015-01-25T09:13:17Z</time>
      </trkpt>
      <trkpt lat="48.73928" lon="-3.26848">
        <ele>21</ele>
        <time>2015-01-25T09:13:18Z</time>
      </trkpt>
      <trkpt lat="48.73935" lon="-3.26844">
        <ele>22</ele>
        <time>2015-01-25T09:13:19Z</time>
      </trkpt>
      <trkpt lat="48.73941" lon="-3.26839">
        <ele>22</ele>
        <time>2015-01-25T09:13:20Z</time>
      </trkpt>
      <trkpt lat="48.73947" lon="-3.26834">
        <ele>22</ele>
        <time>2015-01-25T09:13:21Z</time>
      </trkpt>
      <trkpt lat="48.73954" lon="-3.26829">
        <ele>22</ele>
        <time>2015-01-25T09:13:22Z</time>
      </trkpt>
      <trkpt lat="48.7396" lon="-3.26824">
        <ele>22</ele>
        <time>2015-01-25T09:13:23Z</time>
      </trkpt>
      <trkpt lat="48.73966" lon="-3.26819">
        <ele>22</ele>
        <time>2015-01-25T09:13:24Z</time>
      </trkpt>
      <trkpt lat="48.73972" lon="-3.26814">
        <ele>22</ele>
        <time>2015-01-25T09:13:25Z</time>
      </trkpt>
      <trkpt lat="48.73978" lon="-3.26809">
        <ele>22</ele>
        <time>2015-01-25T09:13:26Z</time>
      </trkpt>
      <trkpt lat="48.73984" lon="-3.26803">
        <ele>22</ele>
        <time>2015-01-25T09:13:27Z</time>
      </trkpt>
      <trkpt lat="48.7399" lon="-3.26799">
        <ele>22</ele>
        <time>2015-01-25T09:13:28Z</time>
      </trkpt>
      <trkpt lat="48.73996" lon="-3.26793">
        <ele>22</ele>
        <time>2015-01-25T09:13:29Z</time>
      </trkpt>
      <trkpt lat="48.74002" lon="-3.26788">
        <ele>22</ele>
        <time>2015-01-25T09:13:30Z</time>
      </trkpt>
      <trkpt lat="48.74008" lon="-3.26783">
        <ele>22</ele>
        <time>2015-01-25T09:13:31Z</time>
      </trkpt>
      <trkpt lat="48.74014" lon="-3.26777">
        <ele>22</ele>
        <time>2015-01-25T09:13:32Z</time>
      </trkpt>
      <trkpt lat="48.7402" lon="-3.26771">
        <ele>22</ele>
        <time>2015-01-25T09:13:33Z</time>
      </trkpt>
      <trkpt lat="48.74026" lon="-3.26764">
        <ele>22</ele>
        <time>2015-01-25T09:13:34Z</time>
      </trkpt>
      <trkpt lat="48.74032" lon="-3.26757">
        <ele>22</ele>
        <time>2015-01-25T09:13:35Z</time>
      </trkpt>
      <trkpt lat="48.74038" lon="-3.2675">
        <ele>22</ele>
        <time>2015-01-25T09:13:36Z</time>
      </trkpt>
      <trkpt lat="48.74044" lon="-3.26742">
        <ele>22</ele>
        <time>2015-01-25T09:13:37Z</time>
      </trkpt>
      <trkpt lat="48.7405" lon="-3.26735">
        <ele>22</ele>
        <time>2015-01-25T09:13:38Z</time>
      </trkpt>
      <trkpt lat="48.74056" lon="-3.26727">
        <ele>22</ele>
        <time>2015-01-25T09:13:39Z</time>
      </trkpt>
      <trkpt lat="48.74063" lon="-3.26719">
        <ele>22</ele>
        <time>2015-01-25T09:13:40Z</time>
      </trkpt>
      <trkpt lat="48.74069" lon="-3.26711">
        <ele>22</ele>
        <time>2015-01-25T09:13:41Z</time>
      </trkpt>
      <trkpt lat="48.74076" lon="-3.26702">
        <ele>22</ele>
        <time>2015-01-25T09:13:42Z</time>
      </trkpt>
      <trkpt lat="48.74083" lon="-3.26692">
        <ele>22</ele>
        <time>2015-01-25T09:13:43Z</time>
      </trkpt>
      <trkpt lat="48.74089" lon="-3.2668">
        <ele>22</ele>
        <time>2015-01-25T09:13:44Z</time>
      </trkpt>
      <trkpt lat="48.74096" lon="-3.26668">
        <ele>22</ele>
        <time>2015-01-25T09:13:45Z</time>
      </trkpt>
      <trkpt lat="48.74101" lon="-3.26655">
        <ele>22</ele>
        <time>2015-01-25T09:13:46Z</time>
      </trkpt>
      <trkpt lat="48.74107" lon="-3.26642">
        <ele>22</ele>
        <time>2015-01-25T09:13:47Z</time>
      </trkpt>
      <trkpt lat="48.74112" lon="-3.2663">
        <ele>22</ele>
        <time>2015-01-25T09:13:48Z</time>
      </trkpt>
      <trkpt lat="48.74117" lon="-3.26617">
        <ele>21</ele>
        <time>2015-01-25T09:13:49Z</time>
      </trkpt>
      <trkpt lat="48.74122" lon="-3.26605">
        <ele>21</ele>
        <time>2015-01-25T09:13:50Z</time>
      </trkpt>
      <trkpt lat="48.74127" lon="-3.26594">
        <ele>21</ele>
        <time>2015-01-25T09:13:51Z</time>
      </trkpt>
      <trkpt lat="48.74133" lon="-3.26583">
        <ele>21</ele>
        <time>2015-01-25T09:13:52Z</time>
      </trkpt>
      <trkpt lat="48.74139" lon="-3.26574">
        <ele>21</ele>
        <time>2015-01-25T09:13:53Z</time>
      </trkpt>
      <trkpt lat="48.74145" lon="-3.26565">
        <ele>21</ele>
        <time>2015-01-25T09:13:54Z</time>
      </trkpt>
      <trkpt lat="48.74151" lon="-3.26557">
        <ele>21</ele>
        <time>2015-01-25T09:13:55Z</time>
      </trkpt>
      <trkpt lat="48.74158" lon="-3.2655">
        <ele>21</ele>
        <time>2015-01-25T09:13:56Z</time>
      </trkpt>
      <trkpt lat="48.74164" lon="-3.26544">
        <ele>21</ele>
        <time>2015-01-25T09:13:57Z</time>
      </trkpt>
      <trkpt lat="48.74171" lon="-3.26539">
        <ele>21</ele>
        <time>2015-01-25T09:13:58Z</time>
      </trkpt>
      <trkpt lat="48.74178" lon="-3.26534">
        <ele>21</ele>
        <time>2015-01-25T09:13:59Z</time>
      </trkpt>
      <trkpt lat="48.74185" lon="-3.2653">
        <ele>21</ele>
        <time>2015-01-25T09:14:00Z</time>
      </trkpt>
      <trkpt lat="48.74192" lon="-3.26526">
        <ele>21</ele>
        <time>2015-01-25T09:14:01Z</time>
      </trkpt>
      <trkpt lat="48.74199" lon="-3.26522">
        <ele>21</ele>
        <time>2015-01-25T09:14:02Z</time>
      </trkpt>
      <trkpt lat="48.74206" lon="-3.26518">
        <ele>21</ele>
        <time>2015-01-25T09:14:03Z</time>
      </trkpt>
      <trkpt lat="48.74213" lon="-3.26514">
        <ele>21</ele>
        <time>2015-01-25T09:14:04Z</time>
      </trkpt>
      <trkpt lat="48.7422" lon="-3.2651">
        <ele>21</ele>
        <time>2015-01-25T09:14:05Z</time>
      </trkpt>
      <trkpt lat="48.74227" lon="-3.26504">
        <ele>21</ele>
        <time>2015-01-25T09:14:06Z</time>
      </trkpt>
      <trkpt lat="48.74234" lon="-3.26498">
        <ele>21</ele>
        <time>2015-01-25T09:14:07Z</time>
      </trkpt>
      <trkpt lat="48.7424" lon="-3.26492">
        <ele>21</ele>
        <time>2015-01-25T09:14:08Z</time>
      </trkpt>
      <trkpt lat="48.74246" lon="-3.26484">
        <ele>21</ele>
        <time>2015-01-25T09:14:09Z</time>
      </trkpt>
      <trkpt lat="48.74251" lon="-3.26477">
        <ele>21</ele>
        <time>2015-01-25T09:14:10Z</time>
      </trkpt>
      <trkpt lat="48.74257" lon="-3.26469">
        <ele>21</ele>
        <time>2015-01-25T09:14:11Z</time>
      </trkpt>
      <trkpt lat="48.74262" lon="-3.26461">
        <ele>21</ele>
        <time>2015-01-25T09:14:12Z</time>
      </trkpt>
      <trkpt lat="48.74267" lon="-3.26454">
        <ele>21</ele>
        <time>2015-01-25T09:14:13Z</time>
      </trkpt>
      <trkpt lat="48.74272" lon="-3.26446">
        <ele>21</ele>
        <time>2015-01-25T09:14:14Z</time>
      </trkpt>
      <trkpt lat="48.74277" lon="-3.26439">
        <ele>21</ele>
        <time>2015-01-25T09:14:15Z</time>
      </trkpt>
      <trkpt lat="48.74282" lon="-3.26431">
        <ele>21</ele>
        <time>2015-01-25T09:14:16Z</time>
      </trkpt>
      <trkpt lat="48.74287" lon="-3.26424">
        <ele>21</ele>
        <time>2015-01-25T09:14:17Z</time>
      </trkpt>
      <trkpt lat="48.74292" lon="-3.26417">
        <ele>21</ele>
        <time>2015-01-25T09:14:18Z</time>
      </trkpt>
      <trkpt lat="48.74297" lon="-3.2641">
        <ele>21</ele>
        <time>2015-01-25T09:14:19Z</time>
      </trkpt>
      <trkpt lat="48.74302" lon="-3.26403">
        <ele>21</ele>
        <time>2015-01-25T09:14:20Z</time>
      </trkpt>
      <trkpt lat="48.74306" lon="-3.26396">
        <ele>21</ele>
        <time>2015-01-25T09:14:21Z</time>
      </trkpt>
      <trkpt lat="48.74311" lon="-3.26391">
        <ele>21</ele>
        <time>2015-01-25T09:14:22Z</time>
      </trkpt>
      <trkpt lat="48.74316" lon="-3.26385">
        <ele>21</ele>
        <time>2015-01-25T09:14:23Z</time>
      </trkpt>
      <trkpt lat="48.74322" lon="-3.2638">
        <ele>21</ele>
        <time>2015-01-25T09:14:24Z</time>
      </trkpt>
      <trkpt lat="48.74328" lon="-3.26376">
        <ele>21</ele>
        <time>2015-01-25T09:14:25Z</time>
      </trkpt>
      <trkpt lat="48.74335" lon="-3.26371">
        <ele>21</ele>
        <time>2015-01-25T09:14:26Z</time>
      </trkpt>
      <trkpt lat="48.74342" lon="-3.26366">
        <ele>21</ele>
        <time>2015-01-25T09:14:27Z</time>
      </trkpt>
      <trkpt lat="48.74349" lon="-3.26362">
        <ele>21</ele>
        <time>2015-01-25T09:14:28Z</time>
      </trkpt>
      <trkpt lat="48.74356" lon="-3.26359">
        <ele>21</ele>
        <time>2015-01-25T09:14:29Z</time>
      </trkpt>
      <trkpt lat="48.74363" lon="-3.26354">
        <ele>21</ele>
        <time>2015-01-25T09:14:30Z</time>
      </trkpt>
      <trkpt lat="48.74369" lon="-3.2635">
        <ele>21</ele>
        <time>2015-01-25T09:14:31Z</time>
      </trkpt>
      <trkpt lat="48.74375" lon="-3.26346">
        <ele>21</ele>
        <time>2015-01-25T09:14:32Z</time>
      </trkpt>
      <trkpt lat="48.7438" lon="-3.26342">
        <ele>20</ele>
        <time>2015-01-25T09:14:33Z</time>
      </trkpt>
      <trkpt lat="48.74386" lon="-3.26338">
        <ele>20</ele>
        <time>2015-01-25T09:14:34Z</time>
      </trkpt>
      <trkpt lat="48.74392" lon="-3.26333">
        <ele>19</ele>
        <time>2015-01-25T09:14:35Z</time>
      </trkpt>
      <trkpt lat="48.74399" lon="-3.26327">
        <ele>19</ele>
        <time>2015-01-25T09:14:36Z</time>
      </trkpt>
      <trkpt lat="48.74406" lon="-3.26322">
        <ele>18</ele>
        <time>2015-01-25T09:14:37Z</time>
      </trkpt>
      <trkpt lat="48.74412" lon="-3.26317">
        <ele>18</ele>
        <time>2015-01-25T09:14:38Z</time>
      </trkpt>
      <trkpt lat="48.74417" lon="-3.26312">
        <ele>17</ele>
        <time>2015-01-25T09:14:39Z</time>
      </trkpt>
      <trkpt lat="48.74422" lon="-3.26308">
        <ele>17</ele>
        <time>2015-01-25T09:14:40Z</time>
      </trkpt>
      <trkpt lat="48.74427" lon="-3.26303">
        <ele>16</ele>
        <time>2015-01-25T09:14:41Z</time>
      </trkpt>
      <trkpt lat="48.74433" lon="-3.263">
        <ele>15</ele>
        <time>2015-01-25T09:14:42Z</time>
      </trkpt>
      <trkpt lat="48.74439" lon="-3.26301">
        <ele>15</ele>
        <time>2015-01-25T09:14:43Z</time>
      </trkpt>
      <trkpt lat="48.74444" lon="-3.26306">
        <ele>14</ele>
        <time>2015-01-25T09:14:44Z</time>
      </trkpt>
      <trkpt lat="48.74449" lon="-3.26314">
        <ele>13</ele>
        <time>2015-01-25T09:14:45Z</time>
      </trkpt>
      <trkpt lat="48.74452" lon="-3.26323">
        <ele>13</ele>
        <time>2015-01-25T09:14:46Z</time>
      </trkpt>
      <trkpt lat="48.74456" lon="-3.26333">
        <ele>12</ele>
        <time>2015-01-25T09:14:47Z</time>
      </trkpt>
      <trkpt lat="48.74459" lon="-3.26343">
        <ele>12</ele>
        <time>2015-01-25T09:14:48Z</time>
      </trkpt>
      <trkpt lat="48.74462" lon="-3.26353">
        <ele>12</ele>
        <time>2015-01-25T09:14:49Z</time>
      </trkpt>
      <trkpt lat="48.74466" lon="-3.26363">
        <ele>12</ele>
        <time>2015-01-25T09:14:50Z</time>
      </trkpt>
      <trkpt lat="48.74469" lon="-3.26372">
        <ele>12</ele>
        <time>2015-01-25T09:14:51Z</time>
      </trkpt>
      <trkpt lat="48.74473" lon="-3.26381">
        <ele>12</ele>
        <time>2015-01-25T09:14:52Z</time>
      </trkpt>
      <trkpt lat="48.74477" lon="-3.26391">
        <ele>12</ele>
        <time>2015-01-25T09:14:53Z</time>
      </trkpt>
      <trkpt lat="48.7448" lon="-3.26399">
        <ele>12</ele>
        <time>2015-01-25T09:14:54Z</time>
      </trkpt>
      <trkpt lat="48.74484" lon="-3.26408">
        <ele>12</ele>
        <time>2015-01-25T09:14:55Z</time>
      </trkpt>
      <trkpt lat="48.74489" lon="-3.26415">
        <ele>12</ele>
        <time>2015-01-25T09:14:56Z</time>
      </trkpt>
      <trkpt lat="48.74495" lon="-3.26423">
        <ele>12</ele>
        <time>2015-01-25T09:14:57Z</time>
      </trkpt>
      <trkpt lat="48.745" lon="-3.2643">
        <ele>12</ele>
        <time>2015-01-25T09:14:58Z</time>
      </trkpt>
      <trkpt lat="48.74505" lon="-3.26438">
        <ele>12</ele>
        <time>2015-01-25T09:14:59Z</time>
      </trkpt>
      <trkpt lat="48.74511" lon="-3.26445">
        <ele>12</ele>
        <time>2015-01-25T09:15:00Z</time>
      </trkpt>
      <trkpt lat="48.74516" lon="-3.26453">
        <ele>12</ele>
        <time>2015-01-25T09:15:01Z</time>
      </trkpt>
      <trkpt lat="48.74522" lon="-3.26461">
        <ele>12</ele>
        <time>2015-01-25T09:15:02Z</time>
      </trkpt>
      <trkpt lat="48.74528" lon="-3.26469">
        <ele>12</ele>
        <time>2015-01-25T09:15:03Z</time>
      </trkpt>
      <trkpt lat="48.74534" lon="-3.26477">
        <ele>12</ele>
        <time>2015-01-25T09:15:04Z</time>
      </trkpt>
      <trkpt lat="48.7454" lon="-3.26486">
        <ele>12</ele>
        <time>2015-01-25T09:15:05Z</time>
      </trkpt>
      <trkpt lat="48.74546" lon="-3.26495">
        <ele>12</ele>
        <time>2015-01-25T09:15:06Z</time>
      </trkpt>
      <trkpt lat="48.74552" lon="-3.26505">
        <ele>12</ele>
        <time>2015-01-25T09:15:07Z</time>
      </trkpt>
      <trkpt lat="48.74558" lon="-3.26515">
        <ele>12</ele>
        <time>2015-01-25T09:15:08Z</time>
      </trkpt>
      <trkpt lat="48.74563" lon="-3.26526">
        <ele>12</ele>
        <time>2015-01-25T09:15:09Z</time>
      </trkpt>
      <trkpt lat="48.74568" lon="-3.26537">
        <ele>12</ele>
        <time>2015-01-25T09:15:10Z</time>
      </trkpt>
      <trkpt lat="48.74572" lon="-3.26549">
        <ele>12</ele>
        <time>2015-01-25T09:15:11Z</time>
      </trkpt>
      <trkpt lat="48.74577" lon="-3.2656">
        <ele>12</ele>
        <time>2015-01-25T09:15:12Z</time>
      </trkpt>
      <trkpt lat="48.74582" lon="-3.26571">
        <ele>12</ele>
        <time>2015-01-25T09:15:13Z</time>
      </trkpt>
      <trkpt lat="48.74586" lon="-3.26582">
        <ele>12</ele>
        <time>2015-01-25T09:15:14Z</time>
      </trkpt>
      <trkpt lat="48.74591" lon="-3.26592">
        <ele>12</ele>
        <time>2015-01-25T09:15:15Z</time>
      </trkpt>
      <trkpt lat="48.74596" lon="-3.26602">
        <ele>12</ele>
        <time>2015-01-25T09:15:16Z</time>
      </trkpt>
      <trkpt lat="48.74601" lon="-3.26611">
        <ele>12</ele>
        <time>2015-01-25T09:15:17Z</time>
      </trkpt>
      <trkpt lat="48.74608" lon="-3.26619">
        <ele>12</ele>
        <time>2015-01-25T09:15:18Z</time>
      </trkpt>
      <trkpt lat="48.74614" lon="-3.26625">
        <ele>12</ele>
        <time>2015-01-25T09:15:19Z</time>
      </trkpt>
      <trkpt lat="48.7462" lon="-3.26632">
        <ele>12</ele>
        <time>2015-01-25T09:15:20Z</time>
      </trkpt>
      <trkpt lat="48.74627" lon="-3.26639">
        <ele>12</ele>
        <time>2015-01-25T09:15:21Z</time>
      </trkpt>
      <trkpt lat="48.74633" lon="-3.26645">
        <ele>12</ele>
        <time>2015-01-25T09:15:22Z</time>
      </trkpt>
      <trkpt lat="48.7464" lon="-3.26652">
        <ele>12</ele>
        <time>2015-01-25T09:15:23Z</time>
      </trkpt>
      <trkpt lat="48.74647" lon="-3.26658">
        <ele>12</ele>
        <time>2015-01-25T09:15:24Z</time>
      </trkpt>
      <trkpt lat="48.74653" lon="-3.26663">
        <ele>12</ele>
        <time>2015-01-25T09:15:25Z</time>
      </trkpt>
      <trkpt lat="48.7466" lon="-3.2667">
        <ele>12</ele>
        <time>2015-01-25T09:15:26Z</time>
      </trkpt>
      <trkpt lat="48.74666" lon="-3.26676">
        <ele>12</ele>
        <time>2015-01-25T09:15:27Z</time>
      </trkpt>
      <trkpt lat="48.74673" lon="-3.26683">
        <ele>12</ele>
        <time>2015-01-25T09:15:28Z</time>
      </trkpt>
      <trkpt lat="48.74679" lon="-3.2669">
        <ele>12</ele>
        <time>2015-01-25T09:15:29Z</time>
      </trkpt>
      <trkpt lat="48.74685" lon="-3.26697">
        <ele>11</ele>
        <time>2015-01-25T09:15:30Z</time>
      </trkpt>
      <trkpt lat="48.74691" lon="-3.26705">
        <ele>11</ele>
        <time>2015-01-25T09:15:31Z</time>
      </trkpt>
      <trkpt lat="48.74696" lon="-3.26713">
        <ele>11</ele>
        <time>2015-01-25T09:15:32Z</time>
      </trkpt>
      <trkpt lat="48.74702" lon="-3.26722">
        <ele>11</ele>
        <time>2015-01-25T09:15:33Z</time>
      </trkpt>
      <trkpt lat="48.74707" lon="-3.2673">
        <ele>11</ele>
        <time>2015-01-25T09:15:34Z</time>
      </trkpt>
      <trkpt lat="48.74712" lon="-3.26739">
        <ele>11</ele>
        <time>2015-01-25T09:15:35Z</time>
      </trkpt>
      <trkpt lat="48.74717" lon="-3.26748">
        <ele>11</ele>
        <time>2015-01-25T09:15:36Z</time>
      </trkpt>
      <trkpt lat="48.74722" lon="-3.26756">
        <ele>11</ele>
        <time>2015-01-25T09:15:37Z</time>
      </trkpt>
      <trkpt lat="48.74728" lon="-3.26765">
        <ele>11</ele>
        <time>2015-01-25T09:15:38Z</time>
      </trkpt>
      <trkpt lat="48.74733" lon="-3.26773">
        <ele>11</ele>
        <time>2015-01-25T09:15:39Z</time>
      </trkpt>
      <trkpt lat="48.74738" lon="-3.26782">
        <ele>11</ele>
        <time>2015-01-25T09:15:40Z</time>
      </trkpt>
      <trkpt lat="48.74743" lon="-3.2679">
        <ele>11</ele>
        <time>2015-01-25T09:15:41Z</time>
      </trkpt>
      <trkpt lat="48.74747" lon="-3.26798">
        <ele>11</ele>
        <time>2015-01-25T09:15:42Z</time>
      </trkpt>
      <trkpt lat="48.74752" lon="-3.26807">
        <ele>11</ele>
        <time>2015-01-25T09:15:43Z</time>
      </trkpt>
      <trkpt lat="48.74757" lon="-3.26815">
        <ele>11</ele>
        <time>2015-01-25T09:15:44Z</time>
      </trkpt>
      <trkpt lat="48.74761" lon="-3.26823">
        <ele>11</ele>
        <time>2015-01-25T09:15:45Z</time>
      </trkpt>
      <trkpt lat="48.74765" lon="-3.26831">
        <ele>11</ele>
        <time>2015-01-25T09:15:46Z</time>
      </trkpt>
      <trkpt lat="48.7477" lon="-3.26839">
        <ele>11</ele>
        <time>2015-01-25T09:15:47Z</time>
      </trkpt>
      <trkpt lat="48.74774" lon="-3.26847">
        <ele>11</ele>
        <time>2015-01-25T09:15:48Z</time>
      </trkpt>
      <trkpt lat="48.74778" lon="-3.26855">
        <ele>11</ele>
        <time>2015-01-25T09:15:49Z</time>
      </trkpt>
      <trkpt lat="48.74782" lon="-3.26863">
        <ele>11</ele>
        <time>2015-01-25T09:15:50Z</time>
      </trkpt>
      <trkpt lat="48.74787" lon="-3.26871">
        <ele>11</ele>
        <time>2015-01-25T09:15:51Z</time>
      </trkpt>
      <trkpt lat="48.74791" lon="-3.2688">
        <ele>11</ele>
        <time>2015-01-25T09:15:52Z</time>
      </trkpt>
      <trkpt lat="48.74796" lon="-3.26888">
        <ele>11</ele>
        <time>2015-01-25T09:15:53Z</time>
      </trkpt>
      <trkpt lat="48.74801" lon="-3.26897">
        <ele>11</ele>
        <time>2015-01-25T09:15:54Z</time>
      </trkpt>
      <trkpt lat="48.74806" lon="-3.26905">
        <ele>11</ele>
        <time>2015-01-25T09:15:55Z</time>
      </trkpt>
      <trkpt lat="48.74812" lon="-3.26913">
        <ele>11</ele>
        <time>2015-01-25T09:15:56Z</time>
      </trkpt>
      <trkpt lat="48.74818" lon="-3.26921">
        <ele>11</ele>
        <time>2015-01-25T09:15:57Z</time>
      </trkpt>
      <trkpt lat="48.74824" lon="-3.26929">
        <ele>11</ele>
        <time>2015-01-25T09:15:58Z</time>
      </trkpt>
      <trkpt lat="48.7483" lon="-3.26936">
        <ele>11</ele>
        <time>2015-01-25T09:15:59Z</time>
      </trkpt>
      <trkpt lat="48.74837" lon="-3.26943">
        <ele>11</ele>
        <time>2015-01-25T09:16:00Z</time>
      </trkpt>
      <trkpt lat="48.74843" lon="-3.2695">
        <ele>11</ele>
        <time>2015-01-25T09:16:01Z</time>
      </trkpt>
      <trkpt lat="48.74849" lon="-3.26956">
        <ele>11</ele>
        <time>2015-01-25T09:16:02Z</time>
      </trkpt>
      <trkpt lat="48.74855" lon="-3.26962">
        <ele>11</ele>
        <time>2015-01-25T09:16:03Z</time>
      </trkpt>
      <trkpt lat="48.7486" lon="-3.26967">
        <ele>11</ele>
        <time>2015-01-25T09:16:04Z</time>
      </trkpt>
      <trkpt lat="48.74866" lon="-3.26972">
        <ele>11</ele>
        <time>2015-01-25T09:16:05Z</time>
      </trkpt>
      <trkpt lat="48.74871" lon="-3.26976">
        <ele>11</ele>
        <time>2015-01-25T09:16:06Z</time>
      </trkpt>
      <trkpt lat="48.74876" lon="-3.26981">
        <ele>11</ele>
        <time>2015-01-25T09:16:07Z</time>
      </trkpt>
      <trkpt lat="48.7488" lon="-3.26985">
        <ele>11</ele>
        <time>2015-01-25T09:16:08Z</time>
      </trkpt>
      <trkpt lat="48.74884" lon="-3.26988">
        <ele>11</ele>
        <time>2015-01-25T09:16:09Z</time>
      </trkpt>
      <trkpt lat="48.74888" lon="-3.26991">
        <ele>11</ele>
        <time>2015-01-25T09:16:10Z</time>
      </trkpt>
      <trkpt lat="48.74891" lon="-3.26993">
        <ele>11</ele>
        <time>2015-01-25T09:16:11Z</time>
      </trkpt>
      <trkpt lat="48.74895" lon="-3.26992">
        <ele>11</ele>
        <time>2015-01-25T09:16:12Z</time>
      </trkpt>
      <trkpt lat="48.74899" lon="-3.2699">
        <ele>11</ele>
        <time>2015-01-25T09:16:13Z</time>
      </trkpt>
      <trkpt lat="48.74903" lon="-3.26985">
        <ele>11</ele>
        <time>2015-01-25T09:16:14Z</time>
      </trkpt>
      <trkpt lat="48.74905" lon="-3.26977">
        <ele>11</ele>
        <time>2015-01-25T09:16:15Z</time>
      </trkpt>
      <trkpt lat="48.74907" lon="-3.26967">
        <ele>11</ele>
        <time>2015-01-25T09:16:16Z</time>
      </trkpt>
      <trkpt lat="48.74908" lon="-3.26956">
        <ele>11</ele>
        <time>2015-01-25T09:16:17Z</time>
      </trkpt>
      <trkpt lat="48.74909" lon="-3.26943">
        <ele>11</ele>
        <time>2015-01-25T09:16:18Z</time>
      </trkpt>
      <trkpt lat="48.7491" lon="-3.2693">
        <ele>10</ele>
        <time>2015-01-25T09:16:19Z</time>
      </trkpt>
      <trkpt lat="48.74912" lon="-3.26916">
        <ele>10</ele>
        <time>2015-01-25T09:16:20Z</time>
      </trkpt>
      <trkpt lat="48.74914" lon="-3.26902">
        <ele>9</ele>
        <time>2015-01-25T09:16:21Z</time>
      </trkpt>
      <trkpt lat="48.74917" lon="-3.26888">
        <ele>9</ele>
        <time>2015-01-25T09:16:22Z</time>
      </trkpt>
      <trkpt lat="48.7492" lon="-3.26874">
        <ele>9</ele>
        <time>2015-01-25T09:16:23Z</time>
      </trkpt>
      <trkpt lat="48.74923" lon="-3.26862">
        <ele>9</ele>
        <time>2015-01-25T09:16:24Z</time>
      </trkpt>
      <trkpt lat="48.74927" lon="-3.2685">
        <ele>9</ele>
        <time>2015-01-25T09:16:25Z</time>
      </trkpt>
      <trkpt lat="48.74932" lon="-3.26838">
        <ele>9</ele>
        <time>2015-01-25T09:16:26Z</time>
      </trkpt>
      <trkpt lat="48.74937" lon="-3.26829">
        <ele>9</ele>
        <time>2015-01-25T09:16:27Z</time>
      </trkpt>
      <trkpt lat="48.74943" lon="-3.2682">
        <ele>9</ele>
        <time>2015-01-25T09:16:28Z</time>
      </trkpt>
      <trkpt lat="48.74949" lon="-3.26813">
        <ele>9</ele>
        <time>2015-01-25T09:16:29Z</time>
      </trkpt>
      <trkpt lat="48.74955" lon="-3.26806">
        <ele>9</ele>
        <time>2015-01-25T09:16:30Z</time>
      </trkpt>
      <trkpt lat="48.74961" lon="-3.26801">
        <ele>9</ele>
        <time>2015-01-25T09:16:31Z</time>
      </trkpt>
      <trkpt lat="48.74967" lon="-3.26796">
        <ele>9</ele>
        <time>2015-01-25T09:16:32Z</time>
      </trkpt>
      <trkpt lat="48.74974" lon="-3.26792">
        <ele>9</ele>
        <time>2015-01-25T09:16:33Z</time>
      </trkpt>
      <trkpt lat="48.74979" lon="-3.26787">
        <ele>9</ele>
        <time>2015-01-25T09:16:34Z</time>
      </trkpt>
      <trkpt lat="48.74984" lon="-3.26781">
        <ele>9</ele>
        <time>2015-01-25T09:16:35Z</time>
      </trkpt>
      <trkpt lat="48.74989" lon="-3.26774">
        <ele>9</ele>
        <time>2015-01-25T09:16:36Z</time>
      </trkpt>
      <trkpt lat="48.74993" lon="-3.26768">
        <ele>9</ele>
        <time>2015-01-25T09:16:37Z</time>
      </trkpt>
      <trkpt lat="48.74999" lon="-3.26765">
        <ele>9</ele>
        <time>2015-01-25T09:16:38Z</time>
      </trkpt>
      <trkpt lat="48.75006" lon="-3.26763">
        <ele>9</ele>
        <time>2015-01-25T09:16:39Z</time>
      </trkpt>
      <trkpt lat="48.75014" lon="-3.26762">
        <ele>9</ele>
        <time>2015-01-25T09:16:40Z</time>
      </trkpt>
      <trkpt lat="48.75021" lon="-3.26759">
        <ele>9</ele>
        <time>2015-01-25T09:16:41Z</time>
      </trkpt>
      <trkpt lat="48.75029" lon="-3.26755">
        <ele>9</ele>
        <time>2015-01-25T09:16:42Z</time>
      </trkpt>
      <trkpt lat="48.75037" lon="-3.2675">
        <ele>9</ele>
        <time>2015-01-25T09:16:43Z</time>
      </trkpt>
      <trkpt lat="48.75045" lon="-3.26745">
        <ele>9</ele>
        <time>2015-01-25T09:16:44Z</time>
      </trkpt>
      <trkpt lat="48.75052" lon="-3.26739">
        <ele>9</ele>
        <time>2015-01-25T09:16:45Z</time>
      </trkpt>
      <trkpt lat="48.7506" lon="-3.26733">
        <ele>9</ele>
        <time>2015-01-25T09:16:46Z</time>
      </trkpt>
      <trkpt lat="48.75068" lon="-3.26728">
        <ele>9</ele>
        <time>2015-01-25T09:16:47Z</time>
      </trkpt>
      <trkpt lat="48.75076" lon="-3.26723">
        <ele>9</ele>
        <time>2015-01-25T09:16:48Z</time>
      </trkpt>
      <trkpt lat="48.75084" lon="-3.26718">
        <ele>9</ele>
        <time>2015-01-25T09:16:49Z</time>
      </trkpt>
      <trkpt lat="48.75092" lon="-3.26713">
        <ele>9</ele>
        <time>2015-01-25T09:16:50Z</time>
      </trkpt>
      <trkpt lat="48.75101" lon="-3.26708">
        <ele>9</ele>
        <time>2015-01-25T09:16:51Z</time>
      </trkpt>
      <trkpt lat="48.75109" lon="-3.26704">
        <ele>9</ele>
        <time>2015-01-25T09:16:52Z</time>
      </trkpt>
      <trkpt lat="48.75117" lon="-3.26699">
        <ele>9</ele>
        <time>2015-01-25T09:16:53Z</time>
      </trkpt>
      <trkpt lat="48.75126" lon="-3.26694">
        <ele>9</ele>
        <time>2015-01-25T09:16:54Z</time>
      </trkpt>
      <trkpt lat="48.75134" lon="-3.26689">
        <ele>9</ele>
        <time>2015-01-25T09:16:55Z</time>
      </trkpt>
      <trkpt lat="48.75142" lon="-3.26684">
        <ele>9</ele>
        <time>2015-01-25T09:16:56Z</time>
      </trkpt>
      <trkpt lat="48.7515" lon="-3.26678">
        <ele>9</ele>
        <time>2015-01-25T09:16:57Z</time>
      </trkpt>
      <trkpt lat="48.75157" lon="-3.26673">
        <ele>9</ele>
        <time>2015-01-25T09:16:58Z</time>
      </trkpt>
      <trkpt lat="48.75164" lon="-3.26667">
        <ele>9</ele>
        <time>2015-01-25T09:16:59Z</time>
      </trkpt>
      <trkpt lat="48.75171" lon="-3.2666">
        <ele>9</ele>
        <time>2015-01-25T09:17:00Z</time>
      </trkpt>
      <trkpt lat="48.75178" lon="-3.26654">
        <ele>9</ele>
        <time>2015-01-25T09:17:01Z</time>
      </trkpt>
      <trkpt lat="48.75184" lon="-3.26646">
        <ele>9</ele>
        <time>2015-01-25T09:17:02Z</time>
      </trkpt>
      <trkpt lat="48.7519" lon="-3.26637">
        <ele>9</ele>
        <time>2015-01-25T09:17:03Z</time>
      </trkpt>
      <trkpt lat="48.75196" lon="-3.26628">
        <ele>9</ele>
        <time>2015-01-25T09:17:04Z</time>
      </trkpt>
      <trkpt lat="48.75202" lon="-3.26619">
        <ele>9</ele>
        <time>2015-01-25T09:17:05Z</time>
      </trkpt>
      <trkpt lat="48.75208" lon="-3.26608">
        <ele>9</ele>
        <time>2015-01-25T09:17:06Z</time>
      </trkpt>
      <trkpt lat="48.75214" lon="-3.26598">
        <ele>9</ele>
        <time>2015-01-25T09:17:07Z</time>
      </trkpt>
      <trkpt lat="48.75219" lon="-3.26587">
        <ele>9</ele>
        <time>2015-01-25T09:17:08Z</time>
      </trkpt>
      <trkpt lat="48.75225" lon="-3.26575">
        <ele>9</ele>
        <time>2015-01-25T09:17:09Z</time>
      </trkpt>
      <trkpt lat="48.7523" lon="-3.26564">
        <ele>9</ele>
        <time>2015-01-25T09:17:10Z</time>
      </trkpt>
      <trkpt lat="48.75236" lon="-3.26553">
        <ele>9</ele>
        <time>2015-01-25T09:17:11Z</time>
      </trkpt>
      <trkpt lat="48.75241" lon="-3.26542">
        <ele>9</ele>
        <time>2015-01-25T09:17:12Z</time>
      </trkpt>
      <trkpt lat="48.75247" lon="-3.26531">
        <ele>9</ele>
        <time>2015-01-25T09:17:13Z</time>
      </trkpt>
      <trkpt lat="48.75252" lon="-3.2652">
        <ele>9</ele>
        <time>2015-01-25T09:17:14Z</time>
      </trkpt>
      <trkpt lat="48.75257" lon="-3.26508">
        <ele>9</ele>
        <time>2015-01-25T09:17:15Z</time>
      </trkpt>
      <trkpt lat="48.75262" lon="-3.26497">
        <ele>9</ele>
        <time>2015-01-25T09:17:16Z</time>
      </trkpt>
      <trkpt lat="48.75266" lon="-3.26484">
        <ele>9</ele>
        <time>2015-01-25T09:17:17Z</time>
      </trkpt>
      <trkpt lat="48.75269" lon="-3.26472">
        <ele>9</ele>
        <time>2015-01-25T09:17:18Z</time>
      </trkpt>
      <trkpt lat="48.75272" lon="-3.26459">
        <ele>9</ele>
        <time>2015-01-25T09:17:19Z</time>
      </trkpt>
      <trkpt lat="48.75273" lon="-3.26445">
        <ele>9</ele>
        <time>2015-01-25T09:17:20Z</time>
      </trkpt>
      <trkpt lat="48.75274" lon="-3.26432">
        <ele>9</ele>
        <time>2015-01-25T09:17:21Z</time>
      </trkpt>
      <trkpt lat="48.75273" lon="-3.26405">
        <ele>9</ele>
        <time>2015-01-25T09:17:23Z</time>
      </trkpt>
      <trkpt lat="48.75271" lon="-3.26392">
        <ele>9</ele>
        <time>2015-01-25T09:17:24Z</time>
      </trkpt>
      <trkpt lat="48.75269" lon="-3.26379">
        <ele>9</ele>
        <time>2015-01-25T09:17:25Z</time>
      </trkpt>
      <trkpt lat="48.75265" lon="-3.26367">
        <ele>9</ele>
        <time>2015-01-25T09:17:26Z</time>
      </trkpt>
      <trkpt lat="48.75262" lon="-3.26355">
        <ele>9</ele>
        <time>2015-01-25T09:17:27Z</time>
      </trkpt>
      <trkpt lat="48.75259" lon="-3.26343">
        <ele>9</ele>
        <time>2015-01-25T09:17:28Z</time>
      </trkpt>
      <trkpt lat="48.75256" lon="-3.26331">
        <ele>9</ele>
        <time>2015-01-25T09:17:29Z</time>
      </trkpt>
      <trkpt lat="48.75253" lon="-3.2632">
        <ele>9</ele>
        <time>2015-01-25T09:17:30Z</time>
      </trkpt>
      <trkpt lat="48.75249" lon="-3.26309">
        <ele>9</ele>
        <time>2015-01-25T09:17:31Z</time>
      </trkpt>
      <trkpt lat="48.75247" lon="-3.26298">
        <ele>9</ele>
        <time>2015-01-25T09:17:32Z</time>
      </trkpt>
      <trkpt lat="48.75244" lon="-3.26287">
        <ele>9</ele>
        <time>2015-01-25T09:17:33Z</time>
      </trkpt>
      <trkpt lat="48.75241" lon="-3.26276">
        <ele>9</ele>
        <time>2015-01-25T09:17:34Z</time>
      </trkpt>
      <trkpt lat="48.75238" lon="-3.26265">
        <ele>9</ele>
        <time>2015-01-25T09:17:35Z</time>
      </trkpt>
      <trkpt lat="48.75236" lon="-3.26254">
        <ele>9</ele>
        <time>2015-01-25T09:17:36Z</time>
      </trkpt>
      <trkpt lat="48.75234" lon="-3.26242">
        <ele>9</ele>
        <time>2015-01-25T09:17:37Z</time>
      </trkpt>
      <trkpt lat="48.75232" lon="-3.26231">
        <ele>9</ele>
        <time>2015-01-25T09:17:38Z</time>
      </trkpt>
      <trkpt lat="48.7523" lon="-3.26219">
        <ele>9</ele>
        <time>2015-01-25T09:17:39Z</time>
      </trkpt>
      <trkpt lat="48.7523" lon="-3.26207">
        <ele>9</ele>
        <time>2015-01-25T09:17:40Z</time>
      </trkpt>
      <trkpt lat="48.7523" lon="-3.26195">
        <ele>9</ele>
        <time>2015-01-25T09:17:41Z</time>
      </trkpt>
      <trkpt lat="48.75232" lon="-3.26183">
        <ele>9</ele>
        <time>2015-01-25T09:17:42Z</time>
      </trkpt>
      <trkpt lat="48.75234" lon="-3.26172">
        <ele>9</ele>
        <time>2015-01-25T09:17:43Z</time>
      </trkpt>
      <trkpt lat="48.75238" lon="-3.26162">
        <ele>9</ele>
        <time>2015-01-25T09:17:44Z</time>
      </trkpt>
      <trkpt lat="48.75241" lon="-3.26151">
        <ele>9</ele>
        <time>2015-01-25T09:17:45Z</time>
      </trkpt>
      <trkpt lat="48.75245" lon="-3.26142">
        <ele>9</ele>
        <time>2015-01-25T09:17:46Z</time>
      </trkpt>
      <trkpt lat="48.75249" lon="-3.26133">
        <ele>9</ele>
        <time>2015-01-25T09:17:47Z</time>
      </trkpt>
      <trkpt lat="48.75255" lon="-3.26125">
        <ele>9</ele>
        <time>2015-01-25T09:17:48Z</time>
      </trkpt>
      <trkpt lat="48.75262" lon="-3.26119">
        <ele>9</ele>
        <time>2015-01-25T09:17:49Z</time>
      </trkpt>
      <trkpt lat="48.7527" lon="-3.26115">
        <ele>9</ele>
        <time>2015-01-25T09:17:50Z</time>
      </trkpt>
      <trkpt lat="48.75278" lon="-3.26111">
        <ele>9</ele>
        <time>2015-01-25T09:17:51Z</time>
      </trkpt>
      <trkpt lat="48.75287" lon="-3.26108">
        <ele>9</ele>
        <time>2015-01-25T09:17:52Z</time>
      </trkpt>
      <trkpt lat="48.75296" lon="-3.26106">
        <ele>9</ele>
        <time>2015-01-25T09:17:53Z</time>
      </trkpt>
      <trkpt lat="48.75304" lon="-3.26104">
        <ele>9</ele>
        <time>2015-01-25T09:17:54Z</time>
      </trkpt>
      <trkpt lat="48.75313" lon="-3.26102">
        <ele>9</ele>
        <time>2015-01-25T09:17:55Z</time>
      </trkpt>
      <trkpt lat="48.75322" lon="-3.261">
        <ele>9</ele>
        <time>2015-01-25T09:17:56Z</time>
      </trkpt>
      <trkpt lat="48.75331" lon="-3.26099">
        <ele>9</ele>
        <time>2015-01-25T09:17:57Z</time>
      </trkpt>
      <trkpt lat="48.7534" lon="-3.26098">
        <ele>9</ele>
        <time>2015-01-25T09:17:58Z</time>
      </trkpt>
      <trkpt lat="48.75349" lon="-3.26097">
        <ele>9</ele>
        <time>2015-01-25T09:17:59Z</time>
      </trkpt>
      <trkpt lat="48.75357" lon="-3.26095">
        <ele>9</ele>
        <time>2015-01-25T09:18:00Z</time>
      </trkpt>
      <trkpt lat="48.75366" lon="-3.26094">
        <ele>9</ele>
        <time>2015-01-25T09:18:01Z</time>
      </trkpt>
      <trkpt lat="48.75375" lon="-3.26093">
        <ele>9</ele>
        <time>2015-01-25T09:18:02Z</time>
      </trkpt>
      <trkpt lat="48.75384" lon="-3.26092">
        <ele>9</ele>
        <time>2015-01-25T09:18:03Z</time>
      </trkpt>
      <trkpt lat="48.75393" lon="-3.2609">
        <ele>9</ele>
        <time>2015-01-25T09:18:04Z</time>
      </trkpt>
      <trkpt lat="48.75402" lon="-3.26088">
        <ele>9</ele>
        <time>2015-01-25T09:18:05Z</time>
      </trkpt>
      <trkpt lat="48.7541" lon="-3.26087">
        <ele>9</ele>
        <time>2015-01-25T09:18:06Z</time>
      </trkpt>
      <trkpt lat="48.75419" lon="-3.26085">
        <ele>9</ele>
        <time>2015-01-25T09:18:07Z</time>
      </trkpt>
      <trkpt lat="48.75428" lon="-3.26083">
        <ele>9</ele>
        <time>2015-01-25T09:18:08Z</time>
      </trkpt>
      <trkpt lat="48.75437" lon="-3.26082">
        <ele>9</ele>
        <time>2015-01-25T09:18:09Z</time>
      </trkpt>
      <trkpt lat="48.75446" lon="-3.2608">
        <ele>9</ele>
        <time>2015-01-25T09:18:10Z</time>
      </trkpt>
      <trkpt lat="48.75454" lon="-3.26079">
        <ele>9</ele>
        <time>2015-01-25T09:18:11Z</time>
      </trkpt>
      <trkpt lat="48.75463" lon="-3.26077">
        <ele>9</ele>
        <time>2015-01-25T09:18:12Z</time>
      </trkpt>
      <trkpt lat="48.75471" lon="-3.26076">
        <ele>9</ele>
        <time>2015-01-25T09:18:13Z</time>
      </trkpt>
      <trkpt lat="48.7548" lon="-3.26074">
        <ele>9</ele>
        <time>2015-01-25T09:18:14Z</time>
      </trkpt>
      <trkpt lat="48.75488" lon="-3.26073">
        <ele>9</ele>
        <time>2015-01-25T09:18:15Z</time>
      </trkpt>
      <trkpt lat="48.75497" lon="-3.26071">
        <ele>9</ele>
        <time>2015-01-25T09:18:16Z</time>
      </trkpt>
      <trkpt lat="48.75505" lon="-3.2607">
        <ele>9</ele>
        <time>2015-01-25T09:18:17Z</time>
      </trkpt>
      <trkpt lat="48.75513" lon="-3.26069">
        <ele>9</ele>
        <time>2015-01-25T09:18:18Z</time>
      </trkpt>
      <trkpt lat="48.75522" lon="-3.26067">
        <ele>9</ele>
        <time>2015-01-25T09:18:19Z</time>
      </trkpt>
      <trkpt lat="48.7553" lon="-3.26066">
        <ele>9</ele>
        <time>2015-01-25T09:18:20Z</time>
      </trkpt>
      <trkpt lat="48.75539" lon="-3.26064">
        <ele>9</ele>
        <time>2015-01-25T09:18:21Z</time>
      </trkpt>
      <trkpt lat="48.75547" lon="-3.26063">
        <ele>9</ele>
        <time>2015-01-25T09:18:22Z</time>
      </trkpt>
      <trkpt lat="48.75555" lon="-3.26061">
        <ele>9</ele>
        <time>2015-01-25T09:18:23Z</time>
      </trkpt>
      <trkpt lat="48.75563" lon="-3.2606">
        <ele>9</ele>
        <time>2015-01-25T09:18:24Z</time>
      </trkpt>
      <trkpt lat="48.75571" lon="-3.26059">
        <ele>9</ele>
        <time>2015-01-25T09:18:25Z</time>
      </trkpt>
      <trkpt lat="48.75579" lon="-3.26057">
        <ele>9</ele>
        <time>2015-01-25T09:18:26Z</time>
      </trkpt>
      <trkpt lat="48.75588" lon="-3.26056">
        <ele>9</ele>
        <time>2015-01-25T09:18:27Z</time>
      </trkpt>
      <trkpt lat="48.75595" lon="-3.26054">
        <ele>9</ele>
        <time>2015-01-25T09:18:28Z</time>
      </trkpt>
      <trkpt lat="48.75603" lon="-3.26053">
        <ele>9</ele>
        <time>2015-01-25T09:18:29Z</time>
      </trkpt>
      <trkpt lat="48.7561" lon="-3.26052">
        <ele>9</ele>
        <time>2015-01-25T09:18:30Z</time>
      </trkpt>
      <trkpt lat="48.75617" lon="-3.26051">
        <ele>9</ele>
        <time>2015-01-25T09:18:31Z</time>
      </trkpt>
      <trkpt lat="48.75623" lon="-3.26051">
        <ele>9</ele>
        <time>2015-01-25T09:18:32Z</time>
      </trkpt>
      <trkpt lat="48.75629" lon="-3.2605">
        <ele>9</ele>
        <time>2015-01-25T09:18:33Z</time>
      </trkpt>
      <trkpt lat="48.75635" lon="-3.26048">
        <ele>9</ele>
        <time>2015-01-25T09:18:34Z</time>
      </trkpt>
      <trkpt lat="48.75641" lon="-3.26047">
        <ele>9</ele>
        <time>2015-01-25T09:18:35Z</time>
      </trkpt>
      <trkpt lat="48.75647" lon="-3.26046">
        <ele>9</ele>
        <time>2015-01-25T09:18:36Z</time>
      </trkpt>
      <trkpt lat="48.75653" lon="-3.26045">
        <ele>9</ele>
        <time>2015-01-25T09:18:37Z</time>
      </trkpt>
      <trkpt lat="48.75659" lon="-3.26045">
        <ele>9</ele>
        <time>2015-01-25T09:18:38Z</time>
      </trkpt>
      <trkpt lat="48.75665" lon="-3.26043">
        <ele>9</ele>
        <time>2015-01-25T09:18:39Z</time>
      </trkpt>
      <trkpt lat="48.75671" lon="-3.26042">
        <ele>9</ele>
        <time>2015-01-25T09:18:40Z</time>
      </trkpt>
      <trkpt lat="48.75677" lon="-3.2604">
        <ele>9</ele>
        <time>2015-01-25T09:18:41Z</time>
      </trkpt>
      <trkpt lat="48.75683" lon="-3.26038">
        <ele>9</ele>
        <time>2015-01-25T09:18:42Z</time>
      </trkpt>
      <trkpt lat="48.75689" lon="-3.26035">
        <ele>9</ele>
        <time>2015-01-25T09:18:43Z</time>
      </trkpt>
      <trkpt lat="48.75695" lon="-3.26032">
        <ele>9</ele>
        <time>2015-01-25T09:18:44Z</time>
      </trkpt>
      <trkpt lat="48.75701" lon="-3.26029">
        <ele>9</ele>
        <time>2015-01-25T09:18:45Z</time>
      </trkpt>
      <trkpt lat="48.75707" lon="-3.26026">
        <ele>9</ele>
        <time>2015-01-25T09:18:46Z</time>
      </trkpt>
      <trkpt lat="48.75713" lon="-3.26023">
        <ele>9</ele>
        <time>2015-01-25T09:18:47Z</time>
      </trkpt>
      <trkpt lat="48.75719" lon="-3.26019">
        <ele>9</ele>
        <time>2015-01-25T09:18:48Z</time>
      </trkpt>
      <trkpt lat="48.75726" lon="-3.26014">
        <ele>9</ele>
        <time>2015-01-25T09:18:49Z</time>
      </trkpt>
      <trkpt lat="48.75732" lon="-3.26009">
        <ele>10</ele>
        <time>2015-01-25T09:18:50Z</time>
      </trkpt>
      <trkpt lat="48.75738" lon="-3.26004">
        <ele>10</ele>
        <time>2015-01-25T09:18:51Z</time>
      </trkpt>
      <trkpt lat="48.75744" lon="-3.25997">
        <ele>10</ele>
        <time>2015-01-25T09:18:52Z</time>
      </trkpt>
      <trkpt lat="48.7575" lon="-3.25989">
        <ele>10</ele>
        <time>2015-01-25T09:18:53Z</time>
      </trkpt>
      <trkpt lat="48.75755" lon="-3.25982">
        <ele>10</ele>
        <time>2015-01-25T09:18:54Z</time>
      </trkpt>
      <trkpt lat="48.75761" lon="-3.25974">
        <ele>10</ele>
        <time>2015-01-25T09:18:55Z</time>
      </trkpt>
      <trkpt lat="48.75767" lon="-3.25965">
        <ele>10</ele>
        <time>2015-01-25T09:18:56Z</time>
      </trkpt>
      <trkpt lat="48.75772" lon="-3.25957">
        <ele>10</ele>
        <time>2015-01-25T09:18:57Z</time>
      </trkpt>
      <trkpt lat="48.75777" lon="-3.25947">
        <ele>10</ele>
        <time>2015-01-25T09:18:58Z</time>
      </trkpt>
      <trkpt lat="48.75783" lon="-3.25938">
        <ele>10</ele>
        <time>2015-01-25T09:18:59Z</time>
      </trkpt>
      <trkpt lat="48.75788" lon="-3.25928">
        <ele>10</ele>
        <time>2015-01-25T09:19:00Z</time>
      </trkpt>
      <trkpt lat="48.75792" lon="-3.25917">
        <ele>10</ele>
        <time>2015-01-25T09:19:01Z</time>
      </trkpt>
      <trkpt lat="48.75797" lon="-3.25906">
        <ele>10</ele>
        <time>2015-01-25T09:19:02Z</time>
      </trkpt>
      <trkpt lat="48.75801" lon="-3.25894">
        <ele>10</ele>
        <time>2015-01-25T09:19:03Z</time>
      </trkpt>
      <trkpt lat="48.75805" lon="-3.25882">
        <ele>10</ele>
        <time>2015-01-25T09:19:04Z</time>
      </trkpt>
      <trkpt lat="48.75809" lon="-3.25869">
        <ele>10</ele>
        <time>2015-01-25T09:19:05Z</time>
      </trkpt>
      <trkpt lat="48.75813" lon="-3.25857">
        <ele>10</ele>
        <time>2015-01-25T09:19:06Z</time>
      </trkpt>
      <trkpt lat="48.75816" lon="-3.25845">
        <ele>10</ele>
        <time>2015-01-25T09:19:07Z</time>
      </trkpt>
      <trkpt lat="48.7582" lon="-3.25832">
        <ele>10</ele>
        <time>2015-01-25T09:19:08Z</time>
      </trkpt>
      <trkpt lat="48.75824" lon="-3.2582">
        <ele>10</ele>
        <time>2015-01-25T09:19:09Z</time>
      </trkpt>
      <trkpt lat="48.75827" lon="-3.25808">
        <ele>10</ele>
        <time>2015-01-25T09:19:10Z</time>
      </trkpt>
      <trkpt lat="48.75831" lon="-3.25795">
        <ele>10</ele>
        <time>2015-01-25T09:19:11Z</time>
      </trkpt>
      <trkpt lat="48.75835" lon="-3.25783">
        <ele>10</ele>
        <time>2015-01-25T09:19:12Z</time>
      </trkpt>
      <trkpt lat="48.75838" lon="-3.25771">
        <ele>10</ele>
        <time>2015-01-25T09:19:13Z</time>
      </trkpt>
      <trkpt lat="48.75842" lon="-3.25759">
        <ele>10</ele>
        <time>2015-01-25T09:19:14Z</time>
      </trkpt>
      <trkpt lat="48.75845" lon="-3.25747">
        <ele>10</ele>
        <time>2015-01-25T09:19:15Z</time>
      </trkpt>
      <trkpt lat="48.75849" lon="-3.25736">
        <ele>10</ele>
        <time>2015-01-25T09:19:16Z</time>
      </trkpt>
      <trkpt lat="48.75852" lon="-3.25724">
        <ele>10</ele>
        <time>2015-01-25T09:19:17Z</time>
      </trkpt>
      <trkpt lat="48.75856" lon="-3.25712">
        <ele>10</ele>
        <time>2015-01-25T09:19:18Z</time>
      </trkpt>
      <trkpt lat="48.75859" lon="-3.25701">
        <ele>10</ele>
        <time>2015-01-25T09:19:19Z</time>
      </trkpt>
      <trkpt lat="48.75863" lon="-3.25689">
        <ele>10</ele>
        <time>2015-01-25T09:19:20Z</time>
      </trkpt>
      <trkpt lat="48.75866" lon="-3.25677">
        <ele>10</ele>
        <time>2015-01-25T09:19:21Z</time>
      </trkpt>
      <trkpt lat="48.75869" lon="-3.25666">
        <ele>10</ele>
        <time>2015-01-25T09:19:22Z</time>
      </trkpt>
      <trkpt lat="48.75873" lon="-3.25654">
        <ele>10</ele>
        <time>2015-01-25T09:19:23Z</time>
      </trkpt>
      <trkpt lat="48.75876" lon="-3.25643">
        <ele>10</ele>
        <time>2015-01-25T09:19:24Z</time>
      </trkpt>
      <trkpt lat="48.7588" lon="-3.25631">
        <ele>10</ele>
        <time>2015-01-25T09:19:25Z</time>
      </trkpt>
      <trkpt lat="48.75883" lon="-3.25619">
        <ele>10</ele>
        <time>2015-01-25T09:19:26Z</time>
      </trkpt>
      <trkpt lat="48.75886" lon="-3.25607">
        <ele>10</ele>
        <time>2015-01-25T09:19:27Z</time>
      </trkpt>
      <trkpt lat="48.7589" lon="-3.25595">
        <ele>10</ele>
        <time>2015-01-25T09:19:28Z</time>
      </trkpt>
      <trkpt lat="48.75893" lon="-3.25583">
        <ele>10</ele>
        <time>2015-01-25T09:19:29Z</time>
      </trkpt>
      <trkpt lat="48.75896" lon="-3.25571">
        <ele>10</ele>
        <time>2015-01-25T09:19:30Z</time>
      </trkpt>
      <trkpt lat="48.75899" lon="-3.25559">
        <ele>10</ele>
        <time>2015-01-25T09:19:31Z</time>
      </trkpt>
      <trkpt lat="48.75902" lon="-3.25547">
        <ele>10</ele>
        <time>2015-01-25T09:19:32Z</time>
      </trkpt>
      <trkpt lat="48.75905" lon="-3.25535">
        <ele>10</ele>
        <time>2015-01-25T09:19:33Z</time>
      </trkpt>
      <trkpt lat="48.75908" lon="-3.25523">
        <ele>10</ele>
        <time>2015-01-25T09:19:34Z</time>
      </trkpt>
      <trkpt lat="48.7591" lon="-3.25512">
        <ele>10</ele>
        <time>2015-01-25T09:19:35Z</time>
      </trkpt>
      <trkpt lat="48.75913" lon="-3.255">
        <ele>10</ele>
        <time>2015-01-25T09:19:36Z</time>
      </trkpt>
      <trkpt lat="48.75915" lon="-3.25489">
        <ele>10</ele>
        <time>2015-01-25T09:19:37Z</time>
      </trkpt>
      <trkpt lat="48.75917" lon="-3.25478">
        <ele>10</ele>
        <time>2015-01-25T09:19:38Z</time>
      </trkpt>
      <trkpt lat="48.75919" lon="-3.25467">
        <ele>10</ele>
        <time>2015-01-25T09:19:39Z</time>
      </trkpt>
      <trkpt lat="48.75921" lon="-3.25457">
        <ele>10</ele>
        <time>2015-01-25T09:19:40Z</time>
      </trkpt>
      <trkpt lat="48.75923" lon="-3.25446">
        <ele>10</ele>
        <time>2015-01-25T09:19:41Z</time>
      </trkpt>
      <trkpt lat="48.75925" lon="-3.25435">
        <ele>10</ele>
        <time>2015-01-25T09:19:42Z</time>
      </trkpt>
      <trkpt lat="48.75927" lon="-3.25424">
        <ele>10</ele>
        <time>2015-01-25T09:19:43Z</time>
      </trkpt>
      <trkpt lat="48.7593" lon="-3.25413">
        <ele>10</ele>
        <time>2015-01-25T09:19:44Z</time>
      </trkpt>
      <trkpt lat="48.75932" lon="-3.25402">
        <ele>10</ele>
        <time>2015-01-25T09:19:45Z</time>
      </trkpt>
      <trkpt lat="48.75934" lon="-3.25391">
        <ele>10</ele>
        <time>2015-01-25T09:19:46Z</time>
      </trkpt>
      <trkpt lat="48.75936" lon="-3.2538">
        <ele>11</ele>
        <time>2015-01-25T09:19:47Z</time>
      </trkpt>
      <trkpt lat="48.75938" lon="-3.2537">
        <ele>11</ele>
        <time>2015-01-25T09:19:48Z</time>
      </trkpt>
      <trkpt lat="48.7594" lon="-3.25359">
        <ele>11</ele>
        <time>2015-01-25T09:19:49Z</time>
      </trkpt>
      <trkpt lat="48.75943" lon="-3.25348">
        <ele>12</ele>
        <time>2015-01-25T09:19:50Z</time>
      </trkpt>
      <trkpt lat="48.75946" lon="-3.25337">
        <ele>12</ele>
        <time>2015-01-25T09:19:51Z</time>
      </trkpt>
      <trkpt lat="48.75949" lon="-3.25326">
        <ele>12</ele>
        <time>2015-01-25T09:19:52Z</time>
      </trkpt>
      <trkpt lat="48.75952" lon="-3.25315">
        <ele>13</ele>
        <time>2015-01-25T09:19:53Z</time>
      </trkpt>
      <trkpt lat="48.75956" lon="-3.25305">
        <ele>13</ele>
        <time>2015-01-25T09:19:54Z</time>
      </trkpt>
      <trkpt lat="48.7596" lon="-3.25294">
        <ele>13</ele>
        <time>2015-01-25T09:19:55Z</time>
      </trkpt>
      <trkpt lat="48.75964" lon="-3.25284">
        <ele>14</ele>
        <time>2015-01-25T09:19:56Z</time>
      </trkpt>
      <trkpt lat="48.75968" lon="-3.25274">
        <ele>14</ele>
        <time>2015-01-25T09:19:57Z</time>
      </trkpt>
      <trkpt lat="48.75972" lon="-3.25264">
        <ele>14</ele>
        <time>2015-01-25T09:19:58Z</time>
      </trkpt>
      <trkpt lat="48.75977" lon="-3.25255">
        <ele>15</ele>
        <time>2015-01-25T09:19:59Z</time>
      </trkpt>
      <trkpt lat="48.75982" lon="-3.25245">
        <ele>15</ele>
        <time>2015-01-25T09:20:00Z</time>
      </trkpt>
      <trkpt lat="48.75986" lon="-3.25236">
        <ele>15</ele>
        <time>2015-01-25T09:20:01Z</time>
      </trkpt>
      <trkpt lat="48.75991" lon="-3.25227">
        <ele>16</ele>
        <time>2015-01-25T09:20:02Z</time>
      </trkpt>
      <trkpt lat="48.75997" lon="-3.25218">
        <ele>16</ele>
        <time>2015-01-25T09:20:03Z</time>
      </trkpt>
      <trkpt lat="48.76002" lon="-3.25209">
        <ele>16</ele>
        <time>2015-01-25T09:20:04Z</time>
      </trkpt>
      <trkpt lat="48.76008" lon="-3.25201">
        <ele>17</ele>
        <time>2015-01-25T09:20:05Z</time>
      </trkpt>
      <trkpt lat="48.76013" lon="-3.25193">
        <ele>17</ele>
        <time>2015-01-25T09:20:06Z</time>
      </trkpt>
      <trkpt lat="48.76019" lon="-3.25185">
        <ele>17</ele>
        <time>2015-01-25T09:20:07Z</time>
      </trkpt>
      <trkpt lat="48.76025" lon="-3.25178">
        <ele>17</ele>
        <time>2015-01-25T09:20:08Z</time>
      </trkpt>
      <trkpt lat="48.7603" lon="-3.2517">
        <ele>18</ele>
        <time>2015-01-25T09:20:09Z</time>
      </trkpt>
      <trkpt lat="48.76036" lon="-3.25163">
        <ele>18</ele>
        <time>2015-01-25T09:20:10Z</time>
      </trkpt>
      <trkpt lat="48.76042" lon="-3.25156">
        <ele>18</ele>
        <time>2015-01-25T09:20:11Z</time>
      </trkpt>
      <trkpt lat="48.76048" lon="-3.25149">
        <ele>18</ele>
        <time>2015-01-25T09:20:12Z</time>
      </trkpt>
      <trkpt lat="48.76053" lon="-3.25141">
        <ele>19</ele>
        <time>2015-01-25T09:20:13Z</time>
      </trkpt>
      <trkpt lat="48.76059" lon="-3.25134">
        <ele>19</ele>
        <time>2015-01-25T09:20:14Z</time>
      </trkpt>
      <trkpt lat="48.76065" lon="-3.25126">
        <ele>19</ele>
        <time>2015-01-25T09:20:15Z</time>
      </trkpt>
      <trkpt lat="48.76071" lon="-3.25119">
        <ele>19</ele>
        <time>2015-01-25T09:20:16Z</time>
      </trkpt>
      <trkpt lat="48.76077" lon="-3.25111">
        <ele>20</ele>
        <time>2015-01-25T09:20:17Z</time>
      </trkpt>
      <trkpt lat="48.76083" lon="-3.25104">
        <ele>20</ele>
        <time>2015-01-25T09:20:18Z</time>
      </trkpt>
      <trkpt lat="48.76088" lon="-3.25097">
        <ele>20</ele>
        <time>2015-01-25T09:20:19Z</time>
      </trkpt>
      <trkpt lat="48.76094" lon="-3.25089">
        <ele>20</ele>
        <time>2015-01-25T09:20:20Z</time>
      </trkpt>
      <trkpt lat="48.761" lon="-3.25082">
        <ele>21</ele>
        <time>2015-01-25T09:20:21Z</time>
      </trkpt>
      <trkpt lat="48.76105" lon="-3.25075">
        <ele>21</ele>
        <time>2015-01-25T09:20:22Z</time>
      </trkpt>
      <trkpt lat="48.76111" lon="-3.25068">
        <ele>21</ele>
        <time>2015-01-25T09:20:23Z</time>
      </trkpt>
      <trkpt lat="48.76117" lon="-3.25061">
        <ele>21</ele>
        <time>2015-01-25T09:20:24Z</time>
      </trkpt>
      <trkpt lat="48.76122" lon="-3.25053">
        <ele>21</ele>
        <time>2015-01-25T09:20:25Z</time>
      </trkpt>
      <trkpt lat="48.76128" lon="-3.25046">
        <ele>22</ele>
        <time>2015-01-25T09:20:26Z</time>
      </trkpt>
      <trkpt lat="48.76134" lon="-3.25039">
        <ele>22</ele>
        <time>2015-01-25T09:20:27Z</time>
      </trkpt>
      <trkpt lat="48.76139" lon="-3.25032">
        <ele>22</ele>
        <time>2015-01-25T09:20:28Z</time>
      </trkpt>
      <trkpt lat="48.76145" lon="-3.25024">
        <ele>22</ele>
        <time>2015-01-25T09:20:29Z</time>
      </trkpt>
      <trkpt lat="48.76151" lon="-3.25017">
        <ele>22</ele>
        <time>2015-01-25T09:20:30Z</time>
      </trkpt>
      <trkpt lat="48.76157" lon="-3.2501">
        <ele>22</ele>
        <time>2015-01-25T09:20:31Z</time>
      </trkpt>
      <trkpt lat="48.76162" lon="-3.25003">
        <ele>22</ele>
        <time>2015-01-25T09:20:32Z</time>
      </trkpt>
      <trkpt lat="48.76168" lon="-3.24995">
        <ele>22</ele>
        <time>2015-01-25T09:20:33Z</time>
      </trkpt>
      <trkpt lat="48.76174" lon="-3.24988">
        <ele>22</ele>
        <time>2015-01-25T09:20:34Z</time>
      </trkpt>
      <trkpt lat="48.7618" lon="-3.24981">
        <ele>22</ele>
        <time>2015-01-25T09:20:35Z</time>
      </trkpt>
      <trkpt lat="48.76186" lon="-3.24973">
        <ele>23</ele>
        <time>2015-01-25T09:20:36Z</time>
      </trkpt>
      <trkpt lat="48.76192" lon="-3.24966">
        <ele>23</ele>
        <time>2015-01-25T09:20:37Z</time>
      </trkpt>
      <trkpt lat="48.76198" lon="-3.24958">
        <ele>23</ele>
        <time>2015-01-25T09:20:38Z</time>
      </trkpt>
      <trkpt lat="48.76204" lon="-3.2495">
        <ele>23</ele>
        <time>2015-01-25T09:20:39Z</time>
      </trkpt>
      <trkpt lat="48.7621" lon="-3.24942">
        <ele>23</ele>
        <time>2015-01-25T09:20:40Z</time>
      </trkpt>
      <trkpt lat="48.76216" lon="-3.24935">
        <ele>23</ele>
        <time>2015-01-25T09:20:41Z</time>
      </trkpt>
      <trkpt lat="48.76222" lon="-3.24927">
        <ele>23</ele>
        <time>2015-01-25T09:20:42Z</time>
      </trkpt>
      <trkpt lat="48.76228" lon="-3.24919">
        <ele>23</ele>
        <time>2015-01-25T09:20:43Z</time>
      </trkpt>
      <trkpt lat="48.76234" lon="-3.24911">
        <ele>23</ele>
        <time>2015-01-25T09:20:44Z</time>
      </trkpt>
      <trkpt lat="48.76241" lon="-3.24903">
        <ele>23</ele>
        <time>2015-01-25T09:20:45Z</time>
      </trkpt>
      <trkpt lat="48.76247" lon="-3.24895">
        <ele>23</ele>
        <time>2015-01-25T09:20:46Z</time>
      </trkpt>
      <trkpt lat="48.76253" lon="-3.24887">
        <ele>23</ele>
        <time>2015-01-25T09:20:47Z</time>
      </trkpt>
      <trkpt lat="48.7626" lon="-3.24879">
        <ele>23</ele>
        <time>2015-01-25T09:20:48Z</time>
      </trkpt>
      <trkpt lat="48.76266" lon="-3.24871">
        <ele>23</ele>
        <time>2015-01-25T09:20:49Z</time>
      </trkpt>
      <trkpt lat="48.76272" lon="-3.24863">
        <ele>23</ele>
        <time>2015-01-25T09:20:50Z</time>
      </trkpt>
      <trkpt lat="48.76279" lon="-3.24855">
        <ele>23</ele>
        <time>2015-01-25T09:20:51Z</time>
      </trkpt>
      <trkpt lat="48.76285" lon="-3.24847">
        <ele>23</ele>
        <time>2015-01-25T09:20:52Z</time>
      </trkpt>
      <trkpt lat="48.76291" lon="-3.24839">
        <ele>23</ele>
        <time>2015-01-25T09:20:53Z</time>
      </trkpt>
      <trkpt lat="48.76297" lon="-3.24831">
        <ele>23</ele>
        <time>2015-01-25T09:20:54Z</time>
      </trkpt>
      <trkpt lat="48.76304" lon="-3.24823">
        <ele>24</ele>
        <time>2015-01-25T09:20:55Z</time>
      </trkpt>
      <trkpt lat="48.7631" lon="-3.24815">
        <ele>24</ele>
        <time>2015-01-25T09:20:56Z</time>
      </trkpt>
      <trkpt lat="48.76316" lon="-3.24807">
        <ele>24</ele>
        <time>2015-01-25T09:20:57Z</time>
      </trkpt>
      <trkpt lat="48.76322" lon="-3.24799">
        <ele>24</ele>
        <time>2015-01-25T09:20:58Z</time>
      </trkpt>
      <trkpt lat="48.76329" lon="-3.24791">
        <ele>24</ele>
        <time>2015-01-25T09:20:59Z</time>
      </trkpt>
      <trkpt lat="48.76335" lon="-3.24783">
        <ele>24</ele>
        <time>2015-01-25T09:21:00Z</time>
      </trkpt>
      <trkpt lat="48.76341" lon="-3.24775">
        <ele>24</ele>
        <time>2015-01-25T09:21:01Z</time>
      </trkpt>
      <trkpt lat="48.76347" lon="-3.24767">
        <ele>24</ele>
        <time>2015-01-25T09:21:02Z</time>
      </trkpt>
      <trkpt lat="48.76353" lon="-3.2476">
        <ele>24</ele>
        <time>2015-01-25T09:21:03Z</time>
      </trkpt>
      <trkpt lat="48.7636" lon="-3.24752">
        <ele>24</ele>
        <time>2015-01-25T09:21:04Z</time>
      </trkpt>
      <trkpt lat="48.76366" lon="-3.24744">
        <ele>24</ele>
        <time>2015-01-25T09:21:05Z</time>
      </trkpt>
      <trkpt lat="48.76372" lon="-3.24736">
        <ele>24</ele>
        <time>2015-01-25T09:21:06Z</time>
      </trkpt>
      <trkpt lat="48.76378" lon="-3.24728">
        <ele>24</ele>
        <time>2015-01-25T09:21:07Z</time>
      </trkpt>
      <trkpt lat="48.76384" lon="-3.2472">
        <ele>24</ele>
        <time>2015-01-25T09:21:08Z</time>
      </trkpt>
      <trkpt lat="48.7639" lon="-3.24712">
        <ele>24</ele>
        <time>2015-01-25T09:21:09Z</time>
      </trkpt>
      <trkpt lat="48.76397" lon="-3.24705">
        <ele>24</ele>
        <time>2015-01-25T09:21:10Z</time>
      </trkpt>
      <trkpt lat="48.76403" lon="-3.24697">
        <ele>24</ele>
        <time>2015-01-25T09:21:11Z</time>
      </trkpt>
      <trkpt lat="48.76409" lon="-3.2469">
        <ele>24</ele>
        <time>2015-01-25T09:21:12Z</time>
      </trkpt>
      <trkpt lat="48.76415" lon="-3.24682">
        <ele>24</ele>
        <time>2015-01-25T09:21:13Z</time>
      </trkpt>
      <trkpt lat="48.76421" lon="-3.24674">
        <ele>24</ele>
        <time>2015-01-25T09:21:14Z</time>
      </trkpt>
      <trkpt lat="48.76427" lon="-3.24666">
        <ele>24</ele>
        <time>2015-01-25T09:21:15Z</time>
      </trkpt>
      <trkpt lat="48.76433" lon="-3.24658">
        <ele>25</ele>
        <time>2015-01-25T09:21:16Z</time>
      </trkpt>
      <trkpt lat="48.76439" lon="-3.24651">
        <ele>25</ele>
        <time>2015-01-25T09:21:17Z</time>
      </trkpt>
      <trkpt lat="48.76445" lon="-3.24643">
        <ele>25</ele>
        <time>2015-01-25T09:21:18Z</time>
      </trkpt>
      <trkpt lat="48.76451" lon="-3.24635">
        <ele>25</ele>
        <time>2015-01-25T09:21:19Z</time>
      </trkpt>
      <trkpt lat="48.76457" lon="-3.24628">
        <ele>25</ele>
        <time>2015-01-25T09:21:20Z</time>
      </trkpt>
      <trkpt lat="48.76463" lon="-3.2462">
        <ele>25</ele>
        <time>2015-01-25T09:21:21Z</time>
      </trkpt>
      <trkpt lat="48.76469" lon="-3.24612">
        <ele>25</ele>
        <time>2015-01-25T09:21:22Z</time>
      </trkpt>
      <trkpt lat="48.76476" lon="-3.24605">
        <ele>25</ele>
        <time>2015-01-25T09:21:23Z</time>
      </trkpt>
      <trkpt lat="48.76481" lon="-3.24597">
        <ele>25</ele>
        <time>2015-01-25T09:21:24Z</time>
      </trkpt>
      <trkpt lat="48.76487" lon="-3.24589">
        <ele>25</ele>
        <time>2015-01-25T09:21:25Z</time>
      </trkpt>
      <trkpt lat="48.76493" lon="-3.24582">
        <ele>25</ele>
        <time>2015-01-25T09:21:26Z</time>
      </trkpt>
      <trkpt lat="48.76499" lon="-3.24574">
        <ele>25</ele>
        <time>2015-01-25T09:21:27Z</time>
      </trkpt>
      <trkpt lat="48.76506" lon="-3.24566">
        <ele>25</ele>
        <time>2015-01-25T09:21:28Z</time>
      </trkpt>
      <trkpt lat="48.76512" lon="-3.24558">
        <ele>25</ele>
        <time>2015-01-25T09:21:29Z</time>
      </trkpt>
      <trkpt lat="48.76518" lon="-3.2455">
        <ele>25</ele>
        <time>2015-01-25T09:21:30Z</time>
      </trkpt>
      <trkpt lat="48.76524" lon="-3.24542">
        <ele>25</ele>
        <time>2015-01-25T09:21:31Z</time>
      </trkpt>
      <trkpt lat="48.7653" lon="-3.24534">
        <ele>25</ele>
        <time>2015-01-25T09:21:32Z</time>
      </trkpt>
      <trkpt lat="48.76537" lon="-3.24526">
        <ele>26</ele>
        <time>2015-01-25T09:21:33Z</time>
      </trkpt>
      <trkpt lat="48.76543" lon="-3.24518">
        <ele>26</ele>
        <time>2015-01-25T09:21:34Z</time>
      </trkpt>
      <trkpt lat="48.76549" lon="-3.2451">
        <ele>26</ele>
        <time>2015-01-25T09:21:35Z</time>
      </trkpt>
      <trkpt lat="48.76556" lon="-3.24502">
        <ele>26</ele>
        <time>2015-01-25T09:21:36Z</time>
      </trkpt>
      <trkpt lat="48.76562" lon="-3.24494">
        <ele>26</ele>
        <time>2015-01-25T09:21:37Z</time>
      </trkpt>
      <trkpt lat="48.76568" lon="-3.24486">
        <ele>26</ele>
        <time>2015-01-25T09:21:38Z</time>
      </trkpt>
      <trkpt lat="48.76574" lon="-3.24478">
        <ele>26</ele>
        <time>2015-01-25T09:21:39Z</time>
      </trkpt>
      <trkpt lat="48.76581" lon="-3.24471">
        <ele>26</ele>
        <time>2015-01-25T09:21:40Z</time>
      </trkpt>
      <trkpt lat="48.76587" lon="-3.24463">
        <ele>26</ele>
        <time>2015-01-25T09:21:41Z</time>
      </trkpt>
      <trkpt lat="48.76593" lon="-3.24455">
        <ele>26</ele>
        <time>2015-01-25T09:21:42Z</time>
      </trkpt>
      <trkpt lat="48.76599" lon="-3.24447">
        <ele>26</ele>
        <time>2015-01-25T09:21:43Z</time>
      </trkpt>
      <trkpt lat="48.76605" lon="-3.24439">
        <ele>26</ele>
        <time>2015-01-25T09:21:44Z</time>
      </trkpt>
      <trkpt lat="48.76611" lon="-3.24432">
        <ele>26</ele>
        <time>2015-01-25T09:21:45Z</time>
      </trkpt>
      <trkpt lat="48.76617" lon="-3.24424">
        <ele>26</ele>
        <time>2015-01-25T09:21:46Z</time>
      </trkpt>
      <trkpt lat="48.76624" lon="-3.24416">
        <ele>26</ele>
        <time>2015-01-25T09:21:47Z</time>
      </trkpt>
      <trkpt lat="48.7663" lon="-3.24409">
        <ele>26</ele>
        <time>2015-01-25T09:21:48Z</time>
      </trkpt>
      <trkpt lat="48.76636" lon="-3.24401">
        <ele>27</ele>
        <time>2015-01-25T09:21:49Z</time>
      </trkpt>
      <trkpt lat="48.76642" lon="-3.24393">
        <ele>27</ele>
        <time>2015-01-25T09:21:50Z</time>
      </trkpt>
      <trkpt lat="48.76648" lon="-3.24385">
        <ele>27</ele>
        <time>2015-01-25T09:21:51Z</time>
      </trkpt>
      <trkpt lat="48.76654" lon="-3.24377">
        <ele>27</ele>
        <time>2015-01-25T09:21:52Z</time>
      </trkpt>
      <trkpt lat="48.7666" lon="-3.2437">
        <ele>27</ele>
        <time>2015-01-25T09:21:53Z</time>
      </trkpt>
      <trkpt lat="48.76666" lon="-3.24362">
        <ele>27</ele>
        <time>2015-01-25T09:21:54Z</time>
      </trkpt>
      <trkpt lat="48.76672" lon="-3.24354">
        <ele>27</ele>
        <time>2015-01-25T09:21:55Z</time>
      </trkpt>
      <trkpt lat="48.76678" lon="-3.24346">
        <ele>27</ele>
        <time>2015-01-25T09:21:56Z</time>
      </trkpt>
      <trkpt lat="48.76685" lon="-3.24338">
        <ele>27</ele>
        <time>2015-01-25T09:21:57Z</time>
      </trkpt>
      <trkpt lat="48.76691" lon="-3.2433">
        <ele>27</ele>
        <time>2015-01-25T09:21:58Z</time>
      </trkpt>
      <trkpt lat="48.76697" lon="-3.24322">
        <ele>27</ele>
        <time>2015-01-25T09:21:59Z</time>
      </trkpt>
      <trkpt lat="48.76703" lon="-3.24315">
        <ele>27</ele>
        <time>2015-01-25T09:22:00Z</time>
      </trkpt>
      <trkpt lat="48.76709" lon="-3.24307">
        <ele>27</ele>
        <time>2015-01-25T09:22:01Z</time>
      </trkpt>
      <trkpt lat="48.76715" lon="-3.24299">
        <ele>27</ele>
        <time>2015-01-25T09:22:02Z</time>
      </trkpt>
      <trkpt lat="48.76722" lon="-3.24291">
        <ele>27</ele>
        <time>2015-01-25T09:22:03Z</time>
      </trkpt>
      <trkpt lat="48.76728" lon="-3.24284">
        <ele>27</ele>
        <time>2015-01-25T09:22:04Z</time>
      </trkpt>
      <trkpt lat="48.76733" lon="-3.24276">
        <ele>27</ele>
        <time>2015-01-25T09:22:05Z</time>
      </trkpt>
      <trkpt lat="48.7674" lon="-3.24268">
        <ele>27</ele>
        <time>2015-01-25T09:22:06Z</time>
      </trkpt>
      <trkpt lat="48.76746" lon="-3.2426">
        <ele>27</ele>
        <time>2015-01-25T09:22:07Z</time>
      </trkpt>
      <trkpt lat="48.76752" lon="-3.24253">
        <ele>27</ele>
        <time>2015-01-25T09:22:08Z</time>
      </trkpt>
      <trkpt lat="48.76758" lon="-3.24245">
        <ele>27</ele>
        <time>2015-01-25T09:22:09Z</time>
      </trkpt>
      <trkpt lat="48.76764" lon="-3.24237">
        <ele>27</ele>
        <time>2015-01-25T09:22:10Z</time>
      </trkpt>
      <trkpt lat="48.7677" lon="-3.24229">
        <ele>27</ele>
        <time>2015-01-25T09:22:11Z</time>
      </trkpt>
      <trkpt lat="48.76777" lon="-3.24221">
        <ele>27</ele>
        <time>2015-01-25T09:22:12Z</time>
      </trkpt>
      <trkpt lat="48.76783" lon="-3.24213">
        <ele>27</ele>
        <time>2015-01-25T09:22:13Z</time>
      </trkpt>
      <trkpt lat="48.76789" lon="-3.24205">
        <ele>27</ele>
        <time>2015-01-25T09:22:14Z</time>
      </trkpt>
      <trkpt lat="48.76796" lon="-3.24197">
        <ele>27</ele>
        <time>2015-01-25T09:22:15Z</time>
      </trkpt>
      <trkpt lat="48.76802" lon="-3.24189">
        <ele>27</ele>
        <time>2015-01-25T09:22:16Z</time>
      </trkpt>
      <trkpt lat="48.76808" lon="-3.24181">
        <ele>27</ele>
        <time>2015-01-25T09:22:17Z</time>
      </trkpt>
      <trkpt lat="48.76814" lon="-3.24173">
        <ele>27</ele>
        <time>2015-01-25T09:22:18Z</time>
      </trkpt>
      <trkpt lat="48.7682" lon="-3.24166">
        <ele>27</ele>
        <time>2015-01-25T09:22:19Z</time>
      </trkpt>
      <trkpt lat="48.76826" lon="-3.24158">
        <ele>27</ele>
        <time>2015-01-25T09:22:20Z</time>
      </trkpt>
      <trkpt lat="48.76833" lon="-3.2415">
        <ele>27</ele>
        <time>2015-01-25T09:22:21Z</time>
      </trkpt>
      <trkpt lat="48.76839" lon="-3.24142">
        <ele>27</ele>
        <time>2015-01-25T09:22:22Z</time>
      </trkpt>
      <trkpt lat="48.76846" lon="-3.24134">
        <ele>27</ele>
        <time>2015-01-25T09:22:23Z</time>
      </trkpt>
      <trkpt lat="48.76852" lon="-3.24126">
        <ele>28</ele>
        <time>2015-01-25T09:22:24Z</time>
      </trkpt>
      <trkpt lat="48.76859" lon="-3.24119">
        <ele>28</ele>
        <time>2015-01-25T09:22:25Z</time>
      </trkpt>
      <trkpt lat="48.76865" lon="-3.24111">
        <ele>28</ele>
        <time>2015-01-25T09:22:26Z</time>
      </trkpt>
      <trkpt lat="48.76872" lon="-3.24104">
        <ele>28</ele>
        <time>2015-01-25T09:22:27Z</time>
      </trkpt>
      <trkpt lat="48.76879" lon="-3.24097">
        <ele>28</ele>
        <time>2015-01-25T09:22:28Z</time>
      </trkpt>
      <trkpt lat="48.76885" lon="-3.2409">
        <ele>28</ele>
        <time>2015-01-25T09:22:29Z</time>
      </trkpt>
      <trkpt lat="48.76892" lon="-3.24082">
        <ele>28</ele>
        <time>2015-01-25T09:22:30Z</time>
      </trkpt>
      <trkpt lat="48.76899" lon="-3.24076">
        <ele>28</ele>
        <time>2015-01-25T09:22:31Z</time>
      </trkpt>
      <trkpt lat="48.76905" lon="-3.24069">
        <ele>28</ele>
        <time>2015-01-25T09:22:32Z</time>
      </trkpt>
      <trkpt lat="48.76913" lon="-3.24062">
        <ele>28</ele>
        <time>2015-01-25T09:22:33Z</time>
      </trkpt>
      <trkpt lat="48.7692" lon="-3.24055">
        <ele>28</ele>
        <time>2015-01-25T09:22:34Z</time>
      </trkpt>
      <trkpt lat="48.76926" lon="-3.24048">
        <ele>28</ele>
        <time>2015-01-25T09:22:35Z</time>
      </trkpt>
      <trkpt lat="48.76933" lon="-3.24041">
        <ele>28</ele>
        <time>2015-01-25T09:22:36Z</time>
      </trkpt>
      <trkpt lat="48.7694" lon="-3.24034">
        <ele>28</ele>
        <time>2015-01-25T09:22:37Z</time>
      </trkpt>
      <trkpt lat="48.76947" lon="-3.24028">
        <ele>28</ele>
        <time>2015-01-25T09:22:38Z</time>
      </trkpt>
      <trkpt lat="48.76954" lon="-3.24022">
        <ele>28</ele>
        <time>2015-01-25T09:22:39Z</time>
      </trkpt>
      <trkpt lat="48.76961" lon="-3.24015">
        <ele>28</ele>
        <time>2015-01-25T09:22:40Z</time>
      </trkpt>
      <trkpt lat="48.76968" lon="-3.24009">
        <ele>28</ele>
        <time>2015-01-25T09:22:41Z</time>
      </trkpt>
      <trkpt lat="48.76975" lon="-3.24003">
        <ele>28</ele>
        <time>2015-01-25T09:22:42Z</time>
      </trkpt>
      <trkpt lat="48.76982" lon="-3.23997">
        <ele>29</ele>
        <time>2015-01-25T09:22:43Z</time>
      </trkpt>
      <trkpt lat="48.76989" lon="-3.23991">
        <ele>29</ele>
        <time>2015-01-25T09:22:44Z</time>
      </trkpt>
      <trkpt lat="48.76996" lon="-3.23985">
        <ele>29</ele>
        <time>2015-01-25T09:22:45Z</time>
      </trkpt>
      <trkpt lat="48.77003" lon="-3.23979">
        <ele>29</ele>
        <time>2015-01-25T09:22:46Z</time>
      </trkpt>
      <trkpt lat="48.7701" lon="-3.23974">
        <ele>29</ele>
        <time>2015-01-25T09:22:47Z</time>
      </trkpt>
      <trkpt lat="48.77017" lon="-3.23968">
        <ele>29</ele>
        <time>2015-01-25T09:22:48Z</time>
      </trkpt>
      <trkpt lat="48.77024" lon="-3.23963">
        <ele>29</ele>
        <time>2015-01-25T09:22:49Z</time>
      </trkpt>
      <trkpt lat="48.77031" lon="-3.23957">
        <ele>29</ele>
        <time>2015-01-25T09:22:50Z</time>
      </trkpt>
      <trkpt lat="48.77039" lon="-3.23952">
        <ele>29</ele>
        <time>2015-01-25T09:22:51Z</time>
      </trkpt>
      <trkpt lat="48.77046" lon="-3.23947">
        <ele>30</ele>
        <time>2015-01-25T09:22:52Z</time>
      </trkpt>
      <trkpt lat="48.77053" lon="-3.23941">
        <ele>30</ele>
        <time>2015-01-25T09:22:53Z</time>
      </trkpt>
      <trkpt lat="48.7706" lon="-3.23936">
        <ele>30</ele>
        <time>2015-01-25T09:22:54Z</time>
      </trkpt>
      <trkpt lat="48.77068" lon="-3.23931">
        <ele>30</ele>
        <time>2015-01-25T09:22:55Z</time>
      </trkpt>
      <trkpt lat="48.77075" lon="-3.23926">
        <ele>30</ele>
        <time>2015-01-25T09:22:56Z</time>
      </trkpt>
      <trkpt lat="48.77082" lon="-3.23921">
        <ele>30</ele>
        <time>2015-01-25T09:22:57Z</time>
      </trkpt>
      <trkpt lat="48.77089" lon="-3.23917">
        <ele>30</ele>
        <time>2015-01-25T09:22:58Z</time>
      </trkpt>
      <trkpt lat="48.77097" lon="-3.23912">
        <ele>30</ele>
        <time>2015-01-25T09:22:59Z</time>
      </trkpt>
      <trkpt lat="48.77104" lon="-3.23907">
        <ele>31</ele>
        <time>2015-01-25T09:23:00Z</time>
      </trkpt>
      <trkpt lat="48.77111" lon="-3.23903">
        <ele>31</ele>
        <time>2015-01-25T09:23:01Z</time>
      </trkpt>
      <trkpt lat="48.77118" lon="-3.23898">
        <ele>31</ele>
        <time>2015-01-25T09:23:02Z</time>
      </trkpt>
      <trkpt lat="48.77126" lon="-3.23893">
        <ele>31</ele>
        <time>2015-01-25T09:23:03Z</time>
      </trkpt>
      <trkpt lat="48.77133" lon="-3.23888">
        <ele>31</ele>
        <time>2015-01-25T09:23:04Z</time>
      </trkpt>
      <trkpt lat="48.7714" lon="-3.23884">
        <ele>31</ele>
        <time>2015-01-25T09:23:05Z</time>
      </trkpt>
      <trkpt lat="48.77147" lon="-3.23879">
        <ele>32</ele>
        <time>2015-01-25T09:23:06Z</time>
      </trkpt>
      <trkpt lat="48.77154" lon="-3.23874">
        <ele>32</ele>
        <time>2015-01-25T09:23:07Z</time>
      </trkpt>
      <trkpt lat="48.77161" lon="-3.23869">
        <ele>32</ele>
        <time>2015-01-25T09:23:08Z</time>
      </trkpt>
      <trkpt lat="48.77168" lon="-3.23865">
        <ele>32</ele>
        <time>2015-01-25T09:23:09Z</time>
      </trkpt>
      <trkpt lat="48.77176" lon="-3.2386">
        <ele>32</ele>
        <time>2015-01-25T09:23:10Z</time>
      </trkpt>
      <trkpt lat="48.77183" lon="-3.23855">
        <ele>33</ele>
        <time>2015-01-25T09:23:11Z</time>
      </trkpt>
      <trkpt lat="48.7719" lon="-3.2385">
        <ele>33</ele>
        <time>2015-01-25T09:23:12Z</time>
      </trkpt>
      <trkpt lat="48.77197" lon="-3.23846">
        <ele>33</ele>
        <time>2015-01-25T09:23:13Z</time>
      </trkpt>
      <trkpt lat="48.77204" lon="-3.23841">
        <ele>33</ele>
        <time>2015-01-25T09:23:14Z</time>
      </trkpt>
      <trkpt lat="48.77211" lon="-3.23837">
        <ele>33</ele>
        <time>2015-01-25T09:23:15Z</time>
      </trkpt>
      <trkpt lat="48.77217" lon="-3.23832">
        <ele>34</ele>
        <time>2015-01-25T09:23:16Z</time>
      </trkpt>
      <trkpt lat="48.77224" lon="-3.23828">
        <ele>34</ele>
        <time>2015-01-25T09:23:17Z</time>
      </trkpt>
      <trkpt lat="48.7723" lon="-3.23824">
        <ele>34</ele>
        <time>2015-01-25T09:23:18Z</time>
      </trkpt>
      <trkpt lat="48.77237" lon="-3.23821">
        <ele>35</ele>
        <time>2015-01-25T09:23:19Z</time>
      </trkpt>
      <trkpt lat="48.77243" lon="-3.23816">
        <ele>35</ele>
        <time>2015-01-25T09:23:20Z</time>
      </trkpt>
      <trkpt lat="48.77248" lon="-3.23812">
        <ele>36</ele>
        <time>2015-01-25T09:23:21Z</time>
      </trkpt>
      <trkpt lat="48.77253" lon="-3.23807">
        <ele>36</ele>
        <time>2015-01-25T09:23:22Z</time>
      </trkpt>
      <trkpt lat="48.77258" lon="-3.23801">
        <ele>36</ele>
        <time>2015-01-25T09:23:23Z</time>
      </trkpt>
      <trkpt lat="48.77262" lon="-3.23796">
        <ele>36</ele>
        <time>2015-01-25T09:23:24Z</time>
      </trkpt>
      <trkpt lat="48.77265" lon="-3.23789">
        <ele>37</ele>
        <time>2015-01-25T09:23:25Z</time>
      </trkpt>
      <trkpt lat="48.77268" lon="-3.23783">
        <ele>37</ele>
        <time>2015-01-25T09:23:26Z</time>
      </trkpt>
      <trkpt lat="48.77271" lon="-3.23777">
        <ele>37</ele>
        <time>2015-01-25T09:23:27Z</time>
      </trkpt>
      <trkpt lat="48.77274" lon="-3.23773">
        <ele>37</ele>
        <time>2015-01-25T09:23:28Z</time>
      </trkpt>
      <trkpt lat="48.77278" lon="-3.23769">
        <ele>37</ele>
        <time>2015-01-25T09:23:29Z</time>
      </trkpt>
      <trkpt lat="48.77282" lon="-3.23767">
        <ele>37</ele>
        <time>2015-01-25T09:23:30Z</time>
      </trkpt>
      <trkpt lat="48.77286" lon="-3.23767">
        <ele>37</ele>
        <time>2015-01-25T09:23:31Z</time>
      </trkpt>
      <trkpt lat="48.77291" lon="-3.23768">
        <ele>37</ele>
        <time>2015-01-25T09:23:32Z</time>
      </trkpt>
      <trkpt lat="48.77296" lon="-3.23769">
        <ele>38</ele>
        <time>2015-01-25T09:23:33Z</time>
      </trkpt>
      <trkpt lat="48.77301" lon="-3.23769">
        <ele>38</ele>
        <time>2015-01-25T09:23:34Z</time>
      </trkpt>
      <trkpt lat="48.77307" lon="-3.23769">
        <ele>38</ele>
        <time>2015-01-25T09:23:35Z</time>
      </trkpt>
      <trkpt lat="48.77312" lon="-3.23768">
        <ele>38</ele>
        <time>2015-01-25T09:23:36Z</time>
      </trkpt>
      <trkpt lat="48.77318" lon="-3.23765">
        <ele>38</ele>
        <time>2015-01-25T09:23:37Z</time>
      </trkpt>
      <trkpt lat="48.77324" lon="-3.23762">
        <ele>38</ele>
        <time>2015-01-25T09:23:38Z</time>
      </trkpt>
      <trkpt lat="48.77329" lon="-3.23759">
        <ele>38</ele>
        <time>2015-01-25T09:23:39Z</time>
      </trkpt>
      <trkpt lat="48.77335" lon="-3.23755">
        <ele>38</ele>
        <time>2015-01-25T09:23:40Z</time>
      </trkpt>
      <trkpt lat="48.77341" lon="-3.23752">
        <ele>38</ele>
        <time>2015-01-25T09:23:41Z</time>
      </trkpt>
      <trkpt lat="48.77347" lon="-3.23748">
        <ele>38</ele>
        <time>2015-01-25T09:23:42Z</time>
      </trkpt>
      <trkpt lat="48.77353" lon="-3.23743">
        <ele>39</ele>
        <time>2015-01-25T09:23:43Z</time>
      </trkpt>
      <trkpt lat="48.77358" lon="-3.23739">
        <ele>39</ele>
        <time>2015-01-25T09:23:44Z</time>
      </trkpt>
      <trkpt lat="48.77364" lon="-3.23735">
        <ele>39</ele>
        <time>2015-01-25T09:23:45Z</time>
      </trkpt>
      <trkpt lat="48.77369" lon="-3.23731">
        <ele>39</ele>
        <time>2015-01-25T09:23:46Z</time>
      </trkpt>
      <trkpt lat="48.77375" lon="-3.23727">
        <ele>39</ele>
        <time>2015-01-25T09:23:47Z</time>
      </trkpt>
      <trkpt lat="48.7738" lon="-3.23724">
        <ele>40</ele>
        <time>2015-01-25T09:23:48Z</time>
      </trkpt>
      <trkpt lat="48.77386" lon="-3.2372">
        <ele>40</ele>
        <time>2015-01-25T09:23:49Z</time>
      </trkpt>
      <trkpt lat="48.77391" lon="-3.23717">
        <ele>40</ele>
        <time>2015-01-25T09:23:50Z</time>
      </trkpt>
      <trkpt lat="48.77396" lon="-3.23713">
        <ele>40</ele>
        <time>2015-01-25T09:23:51Z</time>
      </trkpt>
      <trkpt lat="48.77402" lon="-3.2371">
        <ele>40</ele>
        <time>2015-01-25T09:23:52Z</time>
      </trkpt>
      <trkpt lat="48.77407" lon="-3.23706">
        <ele>41</ele>
        <time>2015-01-25T09:23:53Z</time>
      </trkpt>
      <trkpt lat="48.77413" lon="-3.23702">
        <ele>41</ele>
        <time>2015-01-25T09:23:54Z</time>
      </trkpt>
      <trkpt lat="48.77419" lon="-3.23698">
        <ele>41</ele>
        <time>2015-01-25T09:23:55Z</time>
      </trkpt>
      <trkpt lat="48.77424" lon="-3.23694">
        <ele>41</ele>
        <time>2015-01-25T09:23:56Z</time>
      </trkpt>
      <trkpt lat="48.7743" lon="-3.2369">
        <ele>41</ele>
        <time>2015-01-25T09:23:57Z</time>
      </trkpt>
      <trkpt lat="48.77436" lon="-3.23687">
        <ele>42</ele>
        <time>2015-01-25T09:23:58Z</time>
      </trkpt>
      <trkpt lat="48.77441" lon="-3.23683">
        <ele>42</ele>
        <time>2015-01-25T09:23:59Z</time>
      </trkpt>
      <trkpt lat="48.77447" lon="-3.23679">
        <ele>42</ele>
        <time>2015-01-25T09:24:00Z</time>
      </trkpt>
      <trkpt lat="48.77453" lon="-3.23675">
        <ele>42</ele>
        <time>2015-01-25T09:24:01Z</time>
      </trkpt>
      <trkpt lat="48.77459" lon="-3.23671">
        <ele>42</ele>
        <time>2015-01-25T09:24:02Z</time>
      </trkpt>
      <trkpt lat="48.77465" lon="-3.23667">
        <ele>43</ele>
        <time>2015-01-25T09:24:03Z</time>
      </trkpt>
      <trkpt lat="48.7747" lon="-3.23663">
        <ele>43</ele>
        <time>2015-01-25T09:24:04Z</time>
      </trkpt>
      <trkpt lat="48.77476" lon="-3.23659">
        <ele>43</ele>
        <time>2015-01-25T09:24:05Z</time>
      </trkpt>
      <trkpt lat="48.77482" lon="-3.23655">
        <ele>43</ele>
        <time>2015-01-25T09:24:06Z</time>
      </trkpt>
      <trkpt lat="48.77487" lon="-3.23651">
        <ele>43</ele>
        <time>2015-01-25T09:24:07Z</time>
      </trkpt>
      <trkpt lat="48.77493" lon="-3.23647">
        <ele>44</ele>
        <time>2015-01-25T09:24:08Z</time>
      </trkpt>
      <trkpt lat="48.77499" lon="-3.23643">
        <ele>44</ele>
        <time>2015-01-25T09:24:09Z</time>
      </trkpt>
      <trkpt lat="48.77504" lon="-3.23639">
        <ele>44</ele>
        <time>2015-01-25T09:24:10Z</time>
      </trkpt>
      <trkpt lat="48.7751" lon="-3.23636">
        <ele>44</ele>
        <time>2015-01-25T09:24:11Z</time>
      </trkpt>
      <trkpt lat="48.77515" lon="-3.23632">
        <ele>44</ele>
        <time>2015-01-25T09:24:12Z</time>
      </trkpt>
      <trkpt lat="48.77521" lon="-3.23628">
        <ele>44</ele>
        <time>2015-01-25T09:24:13Z</time>
      </trkpt>
      <trkpt lat="48.77526" lon="-3.23624">
        <ele>45</ele>
        <time>2015-01-25T09:24:14Z</time>
      </trkpt>
      <trkpt lat="48.77532" lon="-3.23621">
        <ele>45</ele>
        <time>2015-01-25T09:24:15Z</time>
      </trkpt>
      <trkpt lat="48.77538" lon="-3.23617">
        <ele>45</ele>
        <time>2015-01-25T09:24:16Z</time>
      </trkpt>
      <trkpt lat="48.77543" lon="-3.23614">
        <ele>45</ele>
        <time>2015-01-25T09:24:17Z</time>
      </trkpt>
      <trkpt lat="48.77549" lon="-3.2361">
        <ele>45</ele>
        <time>2015-01-25T09:24:18Z</time>
      </trkpt>
      <trkpt lat="48.77554" lon="-3.23606">
        <ele>46</ele>
        <time>2015-01-25T09:24:19Z</time>
      </trkpt>
      <trkpt lat="48.77559" lon="-3.23603">
        <ele>46</ele>
        <time>2015-01-25T09:24:20Z</time>
      </trkpt>
      <trkpt lat="48.77565" lon="-3.23599">
        <ele>46</ele>
        <time>2015-01-25T09:24:21Z</time>
      </trkpt>
      <trkpt lat="48.7757" lon="-3.23596">
        <ele>46</ele>
        <time>2015-01-25T09:24:22Z</time>
      </trkpt>
      <trkpt lat="48.77576" lon="-3.23592">
        <ele>46</ele>
        <time>2015-01-25T09:24:23Z</time>
      </trkpt>
      <trkpt lat="48.77581" lon="-3.23588">
        <ele>46</ele>
        <time>2015-01-25T09:24:24Z</time>
      </trkpt>
      <trkpt lat="48.77586" lon="-3.23585">
        <ele>47</ele>
        <time>2015-01-25T09:24:25Z</time>
      </trkpt>
      <trkpt lat="48.77592" lon="-3.23581">
        <ele>47</ele>
        <time>2015-01-25T09:24:26Z</time>
      </trkpt>
      <trkpt lat="48.77597" lon="-3.23578">
        <ele>47</ele>
        <time>2015-01-25T09:24:27Z</time>
      </trkpt>
      <trkpt lat="48.77603" lon="-3.23574">
        <ele>47</ele>
        <time>2015-01-25T09:24:28Z</time>
      </trkpt>
      <trkpt lat="48.77608" lon="-3.2357">
        <ele>47</ele>
        <time>2015-01-25T09:24:29Z</time>
      </trkpt>
      <trkpt lat="48.77614" lon="-3.23566">
        <ele>47</ele>
        <time>2015-01-25T09:24:30Z</time>
      </trkpt>
      <trkpt lat="48.7762" lon="-3.23563">
        <ele>48</ele>
        <time>2015-01-25T09:24:31Z</time>
      </trkpt>
      <trkpt lat="48.77625" lon="-3.23559">
        <ele>48</ele>
        <time>2015-01-25T09:24:32Z</time>
      </trkpt>
      <trkpt lat="48.77631" lon="-3.23555">
        <ele>48</ele>
        <time>2015-01-25T09:24:33Z</time>
      </trkpt>
      <trkpt lat="48.77636" lon="-3.23551">
        <ele>48</ele>
        <time>2015-01-25T09:24:34Z</time>
      </trkpt>
      <trkpt lat="48.77642" lon="-3.23548">
        <ele>48</ele>
        <time>2015-01-25T09:24:35Z</time>
      </trkpt>
      <trkpt lat="48.77648" lon="-3.23544">
        <ele>48</ele>
        <time>2015-01-25T09:24:36Z</time>
      </trkpt>
      <trkpt lat="48.77653" lon="-3.2354">
        <ele>49</ele>
        <time>2015-01-25T09:24:37Z</time>
      </trkpt>
      <trkpt lat="48.77659" lon="-3.23537">
        <ele>49</ele>
        <time>2015-01-25T09:24:38Z</time>
      </trkpt>
      <trkpt lat="48.77664" lon="-3.23533">
        <ele>49</ele>
        <time>2015-01-25T09:24:39Z</time>
      </trkpt>
      <trkpt lat="48.7767" lon="-3.2353">
        <ele>49</ele>
        <time>2015-01-25T09:24:40Z</time>
      </trkpt>
      <trkpt lat="48.77675" lon="-3.23526">
        <ele>50</ele>
        <time>2015-01-25T09:24:41Z</time>
      </trkpt>
      <trkpt lat="48.7768" lon="-3.23523">
        <ele>50</ele>
        <time>2015-01-25T09:24:42Z</time>
      </trkpt>
      <trkpt lat="48.77685" lon="-3.23519">
        <ele>50</ele>
        <time>2015-01-25T09:24:43Z</time>
      </trkpt>
      <trkpt lat="48.7769" lon="-3.23516">
        <ele>50</ele>
        <time>2015-01-25T09:24:44Z</time>
      </trkpt>
      <trkpt lat="48.77695" lon="-3.23512">
        <ele>51</ele>
        <time>2015-01-25T09:24:45Z</time>
      </trkpt>
      <trkpt lat="48.77701" lon="-3.23509">
        <ele>51</ele>
        <time>2015-01-25T09:24:46Z</time>
      </trkpt>
      <trkpt lat="48.77706" lon="-3.23505">
        <ele>51</ele>
        <time>2015-01-25T09:24:47Z</time>
      </trkpt>
      <trkpt lat="48.77711" lon="-3.23502">
        <ele>52</ele>
        <time>2015-01-25T09:24:48Z</time>
      </trkpt>
      <trkpt lat="48.77716" lon="-3.23498">
        <ele>52</ele>
        <time>2015-01-25T09:24:49Z</time>
      </trkpt>
      <trkpt lat="48.77721" lon="-3.23495">
        <ele>52</ele>
        <time>2015-01-25T09:24:50Z</time>
      </trkpt>
      <trkpt lat="48.77727" lon="-3.23491">
        <ele>53</ele>
        <time>2015-01-25T09:24:51Z</time>
      </trkpt>
      <trkpt lat="48.77732" lon="-3.23488">
        <ele>53</ele>
        <time>2015-01-25T09:24:52Z</time>
      </trkpt>
      <trkpt lat="48.77737" lon="-3.23484">
        <ele>54</ele>
        <time>2015-01-25T09:24:53Z</time>
      </trkpt>
      <trkpt lat="48.77743" lon="-3.2348">
        <ele>54</ele>
        <time>2015-01-25T09:24:54Z</time>
      </trkpt>
      <trkpt lat="48.77748" lon="-3.23477">
        <ele>54</ele>
        <time>2015-01-25T09:24:55Z</time>
      </trkpt>
      <trkpt lat="48.77753" lon="-3.23474">
        <ele>55</ele>
        <time>2015-01-25T09:24:56Z</time>
      </trkpt>
      <trkpt lat="48.77758" lon="-3.2347">
        <ele>55</ele>
        <time>2015-01-25T09:24:57Z</time>
      </trkpt>
      <trkpt lat="48.77763" lon="-3.23467">
        <ele>55</ele>
        <time>2015-01-25T09:24:58Z</time>
      </trkpt>
      <trkpt lat="48.77767" lon="-3.23464">
        <ele>56</ele>
        <time>2015-01-25T09:24:59Z</time>
      </trkpt>
      <trkpt lat="48.77772" lon="-3.23461">
        <ele>56</ele>
        <time>2015-01-25T09:25:00Z</time>
      </trkpt>
      <trkpt lat="48.77776" lon="-3.23458">
        <ele>56</ele>
        <time>2015-01-25T09:25:01Z</time>
      </trkpt>
      <trkpt lat="48.77781" lon="-3.23455">
        <ele>57</ele>
        <time>2015-01-25T09:25:02Z</time>
      </trkpt>
      <trkpt lat="48.77786" lon="-3.23452">
        <ele>57</ele>
        <time>2015-01-25T09:25:03Z</time>
      </trkpt>
      <trkpt lat="48.77791" lon="-3.23448">
        <ele>57</ele>
        <time>2015-01-25T09:25:04Z</time>
      </trkpt>
      <trkpt lat="48.77796" lon="-3.23445">
        <ele>58</ele>
        <time>2015-01-25T09:25:05Z</time>
      </trkpt>
      <trkpt lat="48.77801" lon="-3.23441">
        <ele>58</ele>
        <time>2015-01-25T09:25:06Z</time>
      </trkpt>
      <trkpt lat="48.77807" lon="-3.23438">
        <ele>58</ele>
        <time>2015-01-25T09:25:07Z</time>
      </trkpt>
      <trkpt lat="48.77812" lon="-3.23435">
        <ele>59</ele>
        <time>2015-01-25T09:25:08Z</time>
      </trkpt>
      <trkpt lat="48.77817" lon="-3.23431">
        <ele>59</ele>
        <time>2015-01-25T09:25:09Z</time>
      </trkpt>
      <trkpt lat="48.77822" lon="-3.23428">
        <ele>59</ele>
        <time>2015-01-25T09:25:10Z</time>
      </trkpt>
      <trkpt lat="48.77828" lon="-3.23424">
        <ele>60</ele>
        <time>2015-01-25T09:25:11Z</time>
      </trkpt>
      <trkpt lat="48.77833" lon="-3.23421">
        <ele>60</ele>
        <time>2015-01-25T09:25:12Z</time>
      </trkpt>
      <trkpt lat="48.77837" lon="-3.23418">
        <ele>60</ele>
        <time>2015-01-25T09:25:13Z</time>
      </trkpt>
      <trkpt lat="48.77842" lon="-3.23414">
        <ele>60</ele>
        <time>2015-01-25T09:25:14Z</time>
      </trkpt>
      <trkpt lat="48.77847" lon="-3.23411">
        <ele>61</ele>
        <time>2015-01-25T09:25:15Z</time>
      </trkpt>
      <trkpt lat="48.77851" lon="-3.23408">
        <ele>61</ele>
        <time>2015-01-25T09:25:16Z</time>
      </trkpt>
      <trkpt lat="48.77855" lon="-3.23405">
        <ele>61</ele>
        <time>2015-01-25T09:25:17Z</time>
      </trkpt>
      <trkpt lat="48.77859" lon="-3.23401">
        <ele>61</ele>
        <time>2015-01-25T09:25:18Z</time>
      </trkpt>
      <trkpt lat="48.77863" lon="-3.23398">
        <ele>62</ele>
        <time>2015-01-25T09:25:19Z</time>
      </trkpt>
      <trkpt lat="48.77866" lon="-3.23394">
        <ele>62</ele>
        <time>2015-01-25T09:25:20Z</time>
      </trkpt>
      <trkpt lat="48.77869" lon="-3.2339">
        <ele>62</ele>
        <time>2015-01-25T09:25:21Z</time>
      </trkpt>
      <trkpt lat="48.77871" lon="-3.23385">
        <ele>62</ele>
        <time>2015-01-25T09:25:22Z</time>
      </trkpt>
      <trkpt lat="48.77873" lon="-3.2338">
        <ele>62</ele>
        <time>2015-01-25T09:25:23Z</time>
      </trkpt>
      <trkpt lat="48.77875" lon="-3.23374">
        <ele>62</ele>
        <time>2015-01-25T09:25:24Z</time>
      </trkpt>
      <trkpt lat="48.77877" lon="-3.23368">
        <ele>62</ele>
        <time>2015-01-25T09:25:25Z</time>
      </trkpt>
      <trkpt lat="48.77878" lon="-3.2336">
        <ele>62</ele>
        <time>2015-01-25T09:25:26Z</time>
      </trkpt>
      <trkpt lat="48.7788" lon="-3.23353">
        <ele>62</ele>
        <time>2015-01-25T09:25:27Z</time>
      </trkpt>
      <trkpt lat="48.77883" lon="-3.23347">
        <ele>62</ele>
        <time>2015-01-25T09:25:28Z</time>
      </trkpt>
      <trkpt lat="48.77887" lon="-3.23343">
        <ele>62</ele>
        <time>2015-01-25T09:25:29Z</time>
      </trkpt>
      <trkpt lat="48.77892" lon="-3.23342">
        <ele>62</ele>
        <time>2015-01-25T09:25:30Z</time>
      </trkpt>
      <trkpt lat="48.77897" lon="-3.23344">
        <ele>62</ele>
        <time>2015-01-25T09:25:31Z</time>
      </trkpt>
      <trkpt lat="48.77901" lon="-3.23349">
        <ele>62</ele>
        <time>2015-01-25T09:25:32Z</time>
      </trkpt>
      <trkpt lat="48.77904" lon="-3.23356">
        <ele>62</ele>
        <time>2015-01-25T09:25:33Z</time>
      </trkpt>
      <trkpt lat="48.77905" lon="-3.23365">
        <ele>62</ele>
        <time>2015-01-25T09:25:34Z</time>
      </trkpt>
      <trkpt lat="48.77905" lon="-3.23399">
        <ele>62</ele>
        <time>2015-01-25T09:25:38Z</time>
      </trkpt>
      <trkpt lat="48.77906" lon="-3.23416">
        <ele>62</ele>
        <time>2015-01-25T09:25:40Z</time>
      </trkpt>
      <trkpt lat="48.77906" lon="-3.23425">
        <ele>62</ele>
        <time>2015-01-25T09:25:41Z</time>
      </trkpt>
      <trkpt lat="48.77907" lon="-3.23432">
        <ele>62</ele>
        <time>2015-01-25T09:25:42Z</time>
      </trkpt>
      <trkpt lat="48.77907" lon="-3.2344">
        <ele>62</ele>
        <time>2015-01-25T09:25:43Z</time>
      </trkpt>
      <trkpt lat="48.77908" lon="-3.23448">
        <ele>62</ele>
        <time>2015-01-25T09:25:44Z</time>
      </trkpt>
      <trkpt lat="48.77909" lon="-3.23455">
        <ele>62</ele>
        <time>2015-01-25T09:25:45Z</time>
      </trkpt>
      <trkpt lat="48.7791" lon="-3.23463">
        <ele>62</ele>
        <time>2015-01-25T09:25:46Z</time>
      </trkpt>
      <trkpt lat="48.77911" lon="-3.23471">
        <ele>62</ele>
        <time>2015-01-25T09:25:47Z</time>
      </trkpt>
      <trkpt lat="48.77912" lon="-3.23478">
        <ele>63</ele>
        <time>2015-01-25T09:25:48Z</time>
      </trkpt>
      <trkpt lat="48.77913" lon="-3.23486">
        <ele>63</ele>
        <time>2015-01-25T09:25:49Z</time>
      </trkpt>
      <trkpt lat="48.77915" lon="-3.23494">
        <ele>63</ele>
        <time>2015-01-25T09:25:50Z</time>
      </trkpt>
      <trkpt lat="48.77916" lon="-3.23501">
        <ele>63</ele>
        <time>2015-01-25T09:25:51Z</time>
      </trkpt>
      <trkpt lat="48.77918" lon="-3.2351">
        <ele>64</ele>
        <time>2015-01-25T09:25:52Z</time>
      </trkpt>
      <trkpt lat="48.7792" lon="-3.23518">
        <ele>64</ele>
        <time>2015-01-25T09:25:53Z</time>
      </trkpt>
      <trkpt lat="48.77921" lon="-3.23526">
        <ele>64</ele>
        <time>2015-01-25T09:25:54Z</time>
      </trkpt>
      <trkpt lat="48.77923" lon="-3.23534">
        <ele>64</ele>
        <time>2015-01-25T09:25:55Z</time>
      </trkpt>
      <trkpt lat="48.77924" lon="-3.23542">
        <ele>65</ele>
        <time>2015-01-25T09:25:56Z</time>
      </trkpt>
      <trkpt lat="48.77926" lon="-3.2355">
        <ele>65</ele>
        <time>2015-01-25T09:25:57Z</time>
      </trkpt>
      <trkpt lat="48.77927" lon="-3.23559">
        <ele>65</ele>
        <time>2015-01-25T09:25:58Z</time>
      </trkpt>
      <trkpt lat="48.77929" lon="-3.23567">
        <ele>65</ele>
        <time>2015-01-25T09:25:59Z</time>
      </trkpt>
      <trkpt lat="48.77931" lon="-3.23575">
        <ele>65</ele>
        <time>2015-01-25T09:26:00Z</time>
      </trkpt>
      <trkpt lat="48.77932" lon="-3.23583">
        <ele>66</ele>
        <time>2015-01-25T09:26:01Z</time>
      </trkpt>
      <trkpt lat="48.77934" lon="-3.23592">
        <ele>66</ele>
        <time>2015-01-25T09:26:02Z</time>
      </trkpt>
      <trkpt lat="48.77936" lon="-3.23601">
        <ele>66</ele>
        <time>2015-01-25T09:26:03Z</time>
      </trkpt>
      <trkpt lat="48.77938" lon="-3.2361">
        <ele>66</ele>
        <time>2015-01-25T09:26:04Z</time>
      </trkpt>
      <trkpt lat="48.7794" lon="-3.2362">
        <ele>66</ele>
        <time>2015-01-25T09:26:05Z</time>
      </trkpt>
      <trkpt lat="48.77942" lon="-3.23629">
        <ele>66</ele>
        <time>2015-01-25T09:26:06Z</time>
      </trkpt>
      <trkpt lat="48.77943" lon="-3.23639">
        <ele>66</ele>
        <time>2015-01-25T09:26:07Z</time>
      </trkpt>
      <trkpt lat="48.77946" lon="-3.23649">
        <ele>66</ele>
        <time>2015-01-25T09:26:08Z</time>
      </trkpt>
      <trkpt lat="48.77948" lon="-3.23659">
        <ele>66</ele>
        <time>2015-01-25T09:26:09Z</time>
      </trkpt>
      <trkpt lat="48.7795" lon="-3.2367">
        <ele>66</ele>
        <time>2015-01-25T09:26:10Z</time>
      </trkpt>
      <trkpt lat="48.77952" lon="-3.2368">
        <ele>66</ele>
        <time>2015-01-25T09:26:11Z</time>
      </trkpt>
      <trkpt lat="48.77954" lon="-3.23691">
        <ele>66</ele>
        <time>2015-01-25T09:26:12Z</time>
      </trkpt>
      <trkpt lat="48.77956" lon="-3.23702">
        <ele>66</ele>
        <time>2015-01-25T09:26:13Z</time>
      </trkpt>
      <trkpt lat="48.77959" lon="-3.23713">
        <ele>66</ele>
        <time>2015-01-25T09:26:14Z</time>
      </trkpt>
      <trkpt lat="48.77961" lon="-3.23724">
        <ele>66</ele>
        <time>2015-01-25T09:26:15Z</time>
      </trkpt>
      <trkpt lat="48.77963" lon="-3.23736">
        <ele>66</ele>
        <time>2015-01-25T09:26:16Z</time>
      </trkpt>
      <trkpt lat="48.77966" lon="-3.23747">
        <ele>66</ele>
        <time>2015-01-25T09:26:17Z</time>
      </trkpt>
      <trkpt lat="48.77968" lon="-3.23759">
        <ele>66</ele>
        <time>2015-01-25T09:26:18Z</time>
      </trkpt>
      <trkpt lat="48.7797" lon="-3.2377">
        <ele>66</ele>
        <time>2015-01-25T09:26:19Z</time>
      </trkpt>
      <trkpt lat="48.77972" lon="-3.23781">
        <ele>66</ele>
        <time>2015-01-25T09:26:20Z</time>
      </trkpt>
      <trkpt lat="48.77974" lon="-3.23793">
        <ele>66</ele>
        <time>2015-01-25T09:26:21Z</time>
      </trkpt>
      <trkpt lat="48.77977" lon="-3.23804">
        <ele>66</ele>
        <time>2015-01-25T09:26:22Z</time>
      </trkpt>
      <trkpt lat="48.77979" lon="-3.23816">
        <ele>66</ele>
        <time>2015-01-25T09:26:23Z</time>
      </trkpt>
      <trkpt lat="48.77982" lon="-3.23828">
        <ele>66</ele>
        <time>2015-01-25T09:26:24Z</time>
      </trkpt>
      <trkpt lat="48.77984" lon="-3.23839">
        <ele>66</ele>
        <time>2015-01-25T09:26:25Z</time>
      </trkpt>
      <trkpt lat="48.77986" lon="-3.23851">
        <ele>66</ele>
        <time>2015-01-25T09:26:26Z</time>
      </trkpt>
      <trkpt lat="48.77989" lon="-3.23863">
        <ele>66</ele>
        <time>2015-01-25T09:26:27Z</time>
      </trkpt>
      <trkpt lat="48.77991" lon="-3.23875">
        <ele>65</ele>
        <time>2015-01-25T09:26:28Z</time>
      </trkpt>
      <trkpt lat="48.77994" lon="-3.23888">
        <ele>65</ele>
        <time>2015-01-25T09:26:29Z</time>
      </trkpt>
      <trkpt lat="48.77996" lon="-3.23901">
        <ele>64</ele>
        <time>2015-01-25T09:26:30Z</time>
      </trkpt>
      <trkpt lat="48.77999" lon="-3.23914">
        <ele>64</ele>
        <time>2015-01-25T09:26:31Z</time>
      </trkpt>
      <trkpt lat="48.78002" lon="-3.23927">
        <ele>63</ele>
        <time>2015-01-25T09:26:32Z</time>
      </trkpt>
      <trkpt lat="48.78005" lon="-3.23941">
        <ele>63</ele>
        <time>2015-01-25T09:26:33Z</time>
      </trkpt>
      <trkpt lat="48.78008" lon="-3.23956">
        <ele>62</ele>
        <time>2015-01-25T09:26:34Z</time>
      </trkpt>
      <trkpt lat="48.78011" lon="-3.23971">
        <ele>61</ele>
        <time>2015-01-25T09:26:35Z</time>
      </trkpt>
      <trkpt lat="48.78014" lon="-3.23985">
        <ele>61</ele>
        <time>2015-01-25T09:26:36Z</time>
      </trkpt>
      <trkpt lat="48.78017" lon="-3.24">
        <ele>60</ele>
        <time>2015-01-25T09:26:37Z</time>
      </trkpt>
      <trkpt lat="48.78019" lon="-3.24015">
        <ele>59</ele>
        <time>2015-01-25T09:26:38Z</time>
      </trkpt>
      <trkpt lat="48.78022" lon="-3.2403">
        <ele>58</ele>
        <time>2015-01-25T09:26:39Z</time>
      </trkpt>
      <trkpt lat="48.78025" lon="-3.24044">
        <ele>58</ele>
        <time>2015-01-25T09:26:40Z</time>
      </trkpt>
      <trkpt lat="48.78028" lon="-3.24057">
        <ele>57</ele>
        <time>2015-01-25T09:26:41Z</time>
      </trkpt>
      <trkpt lat="48.78031" lon="-3.24071">
        <ele>56</ele>
        <time>2015-01-25T09:26:42Z</time>
      </trkpt>
      <trkpt lat="48.78033" lon="-3.24084">
        <ele>55</ele>
        <time>2015-01-25T09:26:43Z</time>
      </trkpt>
      <trkpt lat="48.78036" lon="-3.24097">
        <ele>55</ele>
        <time>2015-01-25T09:26:44Z</time>
      </trkpt>
      <trkpt lat="48.78039" lon="-3.24108">
        <ele>54</ele>
        <time>2015-01-25T09:26:45Z</time>
      </trkpt>
      <trkpt lat="48.78043" lon="-3.24118">
        <ele>53</ele>
        <time>2015-01-25T09:26:46Z</time>
      </trkpt>
      <trkpt lat="48.78046" lon="-3.24128">
        <ele>53</ele>
        <time>2015-01-25T09:26:47Z</time>
      </trkpt>
      <trkpt lat="48.78048" lon="-3.24138">
        <ele>53</ele>
        <time>2015-01-25T09:26:48Z</time>
      </trkpt>
      <trkpt lat="48.78046" lon="-3.24147">
        <ele>52</ele>
        <time>2015-01-25T09:26:49Z</time>
      </trkpt>
      <trkpt lat="48.78042" lon="-3.24155">
        <ele>52</ele>
        <time>2015-01-25T09:26:50Z</time>
      </trkpt>
      <trkpt lat="48.78037" lon="-3.24161">
        <ele>52</ele>
        <time>2015-01-25T09:26:51Z</time>
      </trkpt>
      <trkpt lat="48.7803" lon="-3.24167">
        <ele>52</ele>
        <time>2015-01-25T09:26:52Z</time>
      </trkpt>
      <trkpt lat="48.78024" lon="-3.24173">
        <ele>52</ele>
        <time>2015-01-25T09:26:53Z</time>
      </trkpt>
      <trkpt lat="48.78017" lon="-3.24179">
        <ele>52</ele>
        <time>2015-01-25T09:26:54Z</time>
      </trkpt>
      <trkpt lat="48.78011" lon="-3.24185">
        <ele>52</ele>
        <time>2015-01-25T09:26:55Z</time>
      </trkpt>
      <trkpt lat="48.78005" lon="-3.24192">
        <ele>52</ele>
        <time>2015-01-25T09:26:56Z</time>
      </trkpt>
      <trkpt lat="48.77999" lon="-3.24199">
        <ele>52</ele>
        <time>2015-01-25T09:26:57Z</time>
      </trkpt>
      <trkpt lat="48.77993" lon="-3.24206">
        <ele>52</ele>
        <time>2015-01-25T09:26:58Z</time>
      </trkpt>
      <trkpt lat="48.77987" lon="-3.24214">
        <ele>52</ele>
        <time>2015-01-25T09:26:59Z</time>
      </trkpt>
      <trkpt lat="48.77981" lon="-3.24223">
        <ele>52</ele>
        <time>2015-01-25T09:27:00Z</time>
      </trkpt>
      <trkpt lat="48.77975" lon="-3.24232">
        <ele>52</ele>
        <time>2015-01-25T09:27:01Z</time>
      </trkpt>
      <trkpt lat="48.77969" lon="-3.2424">
        <ele>52</ele>
        <time>2015-01-25T09:27:02Z</time>
      </trkpt>
      <trkpt lat="48.77963" lon="-3.24249">
        <ele>52</ele>
        <time>2015-01-25T09:27:03Z</time>
      </trkpt>
      <trkpt lat="48.77957" lon="-3.24258">
        <ele>52</ele>
        <time>2015-01-25T09:27:04Z</time>
      </trkpt>
      <trkpt lat="48.77951" lon="-3.24267">
        <ele>52</ele>
        <time>2015-01-25T09:27:05Z</time>
      </trkpt>
      <trkpt lat="48.77945" lon="-3.24276">
        <ele>52</ele>
        <time>2015-01-25T09:27:06Z</time>
      </trkpt>
      <trkpt lat="48.77938" lon="-3.24285">
        <ele>52</ele>
        <time>2015-01-25T09:27:07Z</time>
      </trkpt>
      <trkpt lat="48.77932" lon="-3.24294">
        <ele>52</ele>
        <time>2015-01-25T09:27:08Z</time>
      </trkpt>
      <trkpt lat="48.77925" lon="-3.24303">
        <ele>52</ele>
        <time>2015-01-25T09:27:09Z</time>
      </trkpt>
      <trkpt lat="48.77919" lon="-3.24311">
        <ele>52</ele>
        <time>2015-01-25T09:27:10Z</time>
      </trkpt>
      <trkpt lat="48.77912" lon="-3.2432">
        <ele>52</ele>
        <time>2015-01-25T09:27:11Z</time>
      </trkpt>
      <trkpt lat="48.77906" lon="-3.24328">
        <ele>52</ele>
        <time>2015-01-25T09:27:12Z</time>
      </trkpt>
      <trkpt lat="48.77899" lon="-3.24336">
        <ele>52</ele>
        <time>2015-01-25T09:27:13Z</time>
      </trkpt>
      <trkpt lat="48.77892" lon="-3.24344">
        <ele>52</ele>
        <time>2015-01-25T09:27:14Z</time>
      </trkpt>
      <trkpt lat="48.77885" lon="-3.24352">
        <ele>52</ele>
        <time>2015-01-25T09:27:15Z</time>
      </trkpt>
      <trkpt lat="48.77879" lon="-3.24359">
        <ele>52</ele>
        <time>2015-01-25T09:27:16Z</time>
      </trkpt>
      <trkpt lat="48.77872" lon="-3.24366">
        <ele>52</ele>
        <time>2015-01-25T09:27:17Z</time>
      </trkpt>
      <trkpt lat="48.77865" lon="-3.24373">
        <ele>52</ele>
        <time>2015-01-25T09:27:18Z</time>
      </trkpt>
      <trkpt lat="48.7786" lon="-3.24378">
        <ele>52</ele>
        <time>2015-01-25T09:27:19Z</time>
      </trkpt>
      <trkpt lat="48.77855" lon="-3.24382">
        <ele>52</ele>
        <time>2015-01-25T09:27:20Z</time>
      </trkpt>
      <trkpt lat="48.77852" lon="-3.24385">
        <ele>52</ele>
        <time>2015-01-25T09:27:21Z</time>
      </trkpt>
      <trkpt lat="48.77849" lon="-3.24388">
        <ele>52</ele>
        <time>2015-01-25T09:27:22Z</time>
      </trkpt>
      <trkpt lat="48.77846" lon="-3.24391">
        <ele>52</ele>
        <time>2015-01-25T09:27:23Z</time>
      </trkpt>
      <trkpt lat="48.77843" lon="-3.24394">
        <ele>52</ele>
        <time>2015-01-25T09:27:24Z</time>
      </trkpt>
      <trkpt lat="48.7784" lon="-3.24398">
        <ele>52</ele>
        <time>2015-01-25T09:27:25Z</time>
      </trkpt>
      <trkpt lat="48.77836" lon="-3.24402">
        <ele>52</ele>
        <time>2015-01-25T09:27:26Z</time>
      </trkpt>
      <trkpt lat="48.77832" lon="-3.24405">
        <ele>52</ele>
        <time>2015-01-25T09:27:27Z</time>
      </trkpt>
      <trkpt lat="48.77828" lon="-3.24407">
        <ele>52</ele>
        <time>2015-01-25T09:27:28Z</time>
      </trkpt>
      <trkpt lat="48.77824" lon="-3.2441">
        <ele>52</ele>
        <time>2015-01-25T09:27:29Z</time>
      </trkpt>
      <trkpt lat="48.77821" lon="-3.24414">
        <ele>52</ele>
        <time>2015-01-25T09:27:30Z</time>
      </trkpt>
      <trkpt lat="48.77817" lon="-3.24419">
        <ele>52</ele>
        <time>2015-01-25T09:27:31Z</time>
      </trkpt>
      <trkpt lat="48.77813" lon="-3.24423">
        <ele>52</ele>
        <time>2015-01-25T09:27:32Z</time>
      </trkpt>
      <trkpt lat="48.77809" lon="-3.24428">
        <ele>52</ele>
        <time>2015-01-25T09:27:33Z</time>
      </trkpt>
      <trkpt lat="48.77805" lon="-3.24433">
        <ele>52</ele>
        <time>2015-01-25T09:27:34Z</time>
      </trkpt>
      <trkpt lat="48.77801" lon="-3.24438">
        <ele>52</ele>
        <time>2015-01-25T09:27:35Z</time>
      </trkpt>
      <trkpt lat="48.77797" lon="-3.24443">
        <ele>52</ele>
        <time>2015-01-25T09:27:36Z</time>
      </trkpt>
      <trkpt lat="48.77793" lon="-3.24448">
        <ele>52</ele>
        <time>2015-01-25T09:27:37Z</time>
      </trkpt>
      <trkpt lat="48.77789" lon="-3.24454">
        <ele>52</ele>
        <time>2015-01-25T09:27:38Z</time>
      </trkpt>
      <trkpt lat="48.77784" lon="-3.24459">
        <ele>52</ele>
        <time>2015-01-25T09:27:39Z</time>
      </trkpt>
      <trkpt lat="48.7778" lon="-3.24465">
        <ele>52</ele>
        <time>2015-01-25T09:27:40Z</time>
      </trkpt>
      <trkpt lat="48.77776" lon="-3.2447">
        <ele>52</ele>
        <time>2015-01-25T09:27:41Z</time>
      </trkpt>
      <trkpt lat="48.77771" lon="-3.24476">
        <ele>52</ele>
        <time>2015-01-25T09:27:42Z</time>
      </trkpt>
      <trkpt lat="48.77767" lon="-3.24482">
        <ele>52</ele>
        <time>2015-01-25T09:27:43Z</time>
      </trkpt>
      <trkpt lat="48.77763" lon="-3.24488">
        <ele>52</ele>
        <time>2015-01-25T09:27:44Z</time>
      </trkpt>
      <trkpt lat="48.77758" lon="-3.24495">
        <ele>52</ele>
        <time>2015-01-25T09:27:45Z</time>
      </trkpt>
      <trkpt lat="48.77754" lon="-3.24501">
        <ele>52</ele>
        <time>2015-01-25T09:27:46Z</time>
      </trkpt>
      <trkpt lat="48.7775" lon="-3.24508">
        <ele>52</ele>
        <time>2015-01-25T09:27:47Z</time>
      </trkpt>
      <trkpt lat="48.77746" lon="-3.24515">
        <ele>52</ele>
        <time>2015-01-25T09:27:48Z</time>
      </trkpt>
      <trkpt lat="48.77742" lon="-3.24522">
        <ele>52</ele>
        <time>2015-01-25T09:27:49Z</time>
      </trkpt>
      <trkpt lat="48.77739" lon="-3.2453">
        <ele>52</ele>
        <time>2015-01-25T09:27:50Z</time>
      </trkpt>
      <trkpt lat="48.77735" lon="-3.24537">
        <ele>52</ele>
        <time>2015-01-25T09:27:51Z</time>
      </trkpt>
      <trkpt lat="48.77731" lon="-3.24545">
        <ele>52</ele>
        <time>2015-01-25T09:27:52Z</time>
      </trkpt>
      <trkpt lat="48.77727" lon="-3.24553">
        <ele>52</ele>
        <time>2015-01-25T09:27:53Z</time>
      </trkpt>
      <trkpt lat="48.77724" lon="-3.24561">
        <ele>52</ele>
        <time>2015-01-25T09:27:54Z</time>
      </trkpt>
      <trkpt lat="48.7772" lon="-3.24569">
        <ele>52</ele>
        <time>2015-01-25T09:27:55Z</time>
      </trkpt>
      <trkpt lat="48.77716" lon="-3.24577">
        <ele>52</ele>
        <time>2015-01-25T09:27:56Z</time>
      </trkpt>
      <trkpt lat="48.77712" lon="-3.24585">
        <ele>52</ele>
        <time>2015-01-25T09:27:57Z</time>
      </trkpt>
      <trkpt lat="48.77708" lon="-3.24593">
        <ele>52</ele>
        <time>2015-01-25T09:27:58Z</time>
      </trkpt>
      <trkpt lat="48.77704" lon="-3.24601">
        <ele>52</ele>
        <time>2015-01-25T09:27:59Z</time>
      </trkpt>
      <trkpt lat="48.777" lon="-3.2461">
        <ele>52</ele>
        <time>2015-01-25T09:28:00Z</time>
      </trkpt>
      <trkpt lat="48.77696" lon="-3.24619">
        <ele>52</ele>
        <time>2015-01-25T09:28:01Z</time>
      </trkpt>
      <trkpt lat="48.77692" lon="-3.24628">
        <ele>52</ele>
        <time>2015-01-25T09:28:02Z</time>
      </trkpt>
      <trkpt lat="48.77687" lon="-3.24637">
        <ele>52</ele>
        <time>2015-01-25T09:28:03Z</time>
      </trkpt>
      <trkpt lat="48.77683" lon="-3.24646">
        <ele>52</ele>
        <time>2015-01-25T09:28:04Z</time>
      </trkpt>
      <trkpt lat="48.77679" lon="-3.24656">
        <ele>52</ele>
        <time>2015-01-25T09:28:05Z</time>
      </trkpt>
      <trkpt lat="48.77674" lon="-3.24665">
        <ele>52</ele>
        <time>2015-01-25T09:28:06Z</time>
      </trkpt>
      <trkpt lat="48.7767" lon="-3.24674">
        <ele>52</ele>
        <time>2015-01-25T09:28:07Z</time>
      </trkpt>
      <trkpt lat="48.77666" lon="-3.24683">
        <ele>52</ele>
        <time>2015-01-25T09:28:08Z</time>
      </trkpt>
      <trkpt lat="48.77662" lon="-3.24691">
        <ele>52</ele>
        <time>2015-01-25T09:28:09Z</time>
      </trkpt>
      <trkpt lat="48.77657" lon="-3.247">
        <ele>52</ele>
        <time>2015-01-25T09:28:10Z</time>
      </trkpt>
      <trkpt lat="48.77653" lon="-3.24708">
        <ele>52</ele>
        <time>2015-01-25T09:28:11Z</time>
      </trkpt>
      <trkpt lat="48.77649" lon="-3.24716">
        <ele>52</ele>
        <time>2015-01-25T09:28:12Z</time>
      </trkpt>
      <trkpt lat="48.77644" lon="-3.24725">
        <ele>52</ele>
        <time>2015-01-25T09:28:13Z</time>
      </trkpt>
      <trkpt lat="48.7764" lon="-3.24733">
        <ele>52</ele>
        <time>2015-01-25T09:28:14Z</time>
      </trkpt>
      <trkpt lat="48.77637" lon="-3.24743">
        <ele>52</ele>
        <time>2015-01-25T09:28:15Z</time>
      </trkpt>
      <trkpt lat="48.77636" lon="-3.24753">
        <ele>52</ele>
        <time>2015-01-25T09:28:16Z</time>
      </trkpt>
      <trkpt lat="48.77634" lon="-3.24763">
        <ele>52</ele>
        <time>2015-01-25T09:28:17Z</time>
      </trkpt>
      <trkpt lat="48.77632" lon="-3.24773">
        <ele>52</ele>
        <time>2015-01-25T09:28:18Z</time>
      </trkpt>
      <trkpt lat="48.77627" lon="-3.24782">
        <ele>52</ele>
        <time>2015-01-25T09:28:19Z</time>
      </trkpt>
      <trkpt lat="48.77622" lon="-3.2479">
        <ele>52</ele>
        <time>2015-01-25T09:28:20Z</time>
      </trkpt>
      <trkpt lat="48.77615" lon="-3.24797">
        <ele>52</ele>
        <time>2015-01-25T09:28:21Z</time>
      </trkpt>
      <trkpt lat="48.7761" lon="-3.24806">
        <ele>52</ele>
        <time>2015-01-25T09:28:22Z</time>
      </trkpt>
      <trkpt lat="48.77604" lon="-3.24815">
        <ele>52</ele>
        <time>2015-01-25T09:28:23Z</time>
      </trkpt>
      <trkpt lat="48.77599" lon="-3.24825">
        <ele>52</ele>
        <time>2015-01-25T09:28:24Z</time>
      </trkpt>
      <trkpt lat="48.77594" lon="-3.24835">
        <ele>52</ele>
        <time>2015-01-25T09:28:25Z</time>
      </trkpt>
      <trkpt lat="48.77589" lon="-3.24846">
        <ele>52</ele>
        <time>2015-01-25T09:28:26Z</time>
      </trkpt>
      <trkpt lat="48.77583" lon="-3.24857">
        <ele>52</ele>
        <time>2015-01-25T09:28:27Z</time>
      </trkpt>
      <trkpt lat="48.77578" lon="-3.24868">
        <ele>52</ele>
        <time>2015-01-25T09:28:28Z</time>
      </trkpt>
      <trkpt lat="48.77573" lon="-3.24878">
        <ele>52</ele>
        <time>2015-01-25T09:28:29Z</time>
      </trkpt>
      <trkpt lat="48.77568" lon="-3.24889">
        <ele>52</ele>
        <time>2015-01-25T09:28:30Z</time>
      </trkpt>
      <trkpt lat="48.77563" lon="-3.249">
        <ele>52</ele>
        <time>2015-01-25T09:28:31Z</time>
      </trkpt>
      <trkpt lat="48.77558" lon="-3.2491">
        <ele>52</ele>
        <time>2015-01-25T09:28:32Z</time>
      </trkpt>
      <trkpt lat="48.77553" lon="-3.24921">
        <ele>52</ele>
        <time>2015-01-25T09:28:33Z</time>
      </trkpt>
      <trkpt lat="48.77548" lon="-3.24931">
        <ele>52</ele>
        <time>2015-01-25T09:28:34Z</time>
      </trkpt>
      <trkpt lat="48.77543" lon="-3.24941">
        <ele>52</ele>
        <time>2015-01-25T09:28:35Z</time>
      </trkpt>
      <trkpt lat="48.77538" lon="-3.24951">
        <ele>52</ele>
        <time>2015-01-25T09:28:36Z</time>
      </trkpt>
      <trkpt lat="48.77533" lon="-3.2496">
        <ele>52</ele>
        <time>2015-01-25T09:28:37Z</time>
      </trkpt>
      <trkpt lat="48.77528" lon="-3.2497">
        <ele>52</ele>
        <time>2015-01-25T09:28:38Z</time>
      </trkpt>
      <trkpt lat="48.77523" lon="-3.24979">
        <ele>52</ele>
        <time>2015-01-25T09:28:39Z</time>
      </trkpt>
      <trkpt lat="48.77519" lon="-3.24988">
        <ele>52</ele>
        <time>2015-01-25T09:28:40Z</time>
      </trkpt>
      <trkpt lat="48.77515" lon="-3.24997">
        <ele>52</ele>
        <time>2015-01-25T09:28:41Z</time>
      </trkpt>
      <trkpt lat="48.77511" lon="-3.25006">
        <ele>52</ele>
        <time>2015-01-25T09:28:42Z</time>
      </trkpt>
      <trkpt lat="48.77506" lon="-3.25015">
        <ele>52</ele>
        <time>2015-01-25T09:28:43Z</time>
      </trkpt>
      <trkpt lat="48.77502" lon="-3.25024">
        <ele>52</ele>
        <time>2015-01-25T09:28:44Z</time>
      </trkpt>
      <trkpt lat="48.77498" lon="-3.25033">
        <ele>52</ele>
        <time>2015-01-25T09:28:45Z</time>
      </trkpt>
      <trkpt lat="48.77494" lon="-3.25041">
        <ele>52</ele>
        <time>2015-01-25T09:28:46Z</time>
      </trkpt>
      <trkpt lat="48.77489" lon="-3.2505">
        <ele>52</ele>
        <time>2015-01-25T09:28:47Z</time>
      </trkpt>
      <trkpt lat="48.77485" lon="-3.25059">
        <ele>52</ele>
        <time>2015-01-25T09:28:48Z</time>
      </trkpt>
      <trkpt lat="48.77481" lon="-3.25068">
        <ele>52</ele>
        <time>2015-01-25T09:28:49Z</time>
      </trkpt>
      <trkpt lat="48.77477" lon="-3.25078">
        <ele>52</ele>
        <time>2015-01-25T09:28:50Z</time>
      </trkpt>
      <trkpt lat="48.77472" lon="-3.25087">
        <ele>52</ele>
        <time>2015-01-25T09:28:51Z</time>
      </trkpt>
      <trkpt lat="48.77468" lon="-3.25096">
        <ele>52</ele>
        <time>2015-01-25T09:28:52Z</time>
      </trkpt>
      <trkpt lat="48.77464" lon="-3.25105">
        <ele>52</ele>
        <time>2015-01-25T09:28:53Z</time>
      </trkpt>
      <trkpt lat="48.77459" lon="-3.25114">
        <ele>52</ele>
        <time>2015-01-25T09:28:54Z</time>
      </trkpt>
      <trkpt lat="48.77455" lon="-3.25124">
        <ele>52</ele>
        <time>2015-01-25T09:28:55Z</time>
      </trkpt>
      <trkpt lat="48.77451" lon="-3.25134">
        <ele>52</ele>
        <time>2015-01-25T09:28:56Z</time>
      </trkpt>
      <trkpt lat="48.77447" lon="-3.25145">
        <ele>52</ele>
        <time>2015-01-25T09:28:57Z</time>
      </trkpt>
      <trkpt lat="48.77443" lon="-3.25155">
        <ele>52</ele>
        <time>2015-01-25T09:28:58Z</time>
      </trkpt>
      <trkpt lat="48.77439" lon="-3.25165">
        <ele>52</ele>
        <time>2015-01-25T09:28:59Z</time>
      </trkpt>
      <trkpt lat="48.77435" lon="-3.25176">
        <ele>52</ele>
        <time>2015-01-25T09:29:00Z</time>
      </trkpt>
      <trkpt lat="48.77431" lon="-3.25186">
        <ele>52</ele>
        <time>2015-01-25T09:29:01Z</time>
      </trkpt>
      <trkpt lat="48.77427" lon="-3.25197">
        <ele>52</ele>
        <time>2015-01-25T09:29:02Z</time>
      </trkpt>
      <trkpt lat="48.77423" lon="-3.25208">
        <ele>52</ele>
        <time>2015-01-25T09:29:03Z</time>
      </trkpt>
      <trkpt lat="48.7742" lon="-3.25219">
        <ele>52</ele>
        <time>2015-01-25T09:29:04Z</time>
      </trkpt>
      <trkpt lat="48.77416" lon="-3.2523">
        <ele>52</ele>
        <time>2015-01-25T09:29:05Z</time>
      </trkpt>
      <trkpt lat="48.77412" lon="-3.25241">
        <ele>52</ele>
        <time>2015-01-25T09:29:06Z</time>
      </trkpt>
      <trkpt lat="48.77408" lon="-3.25252">
        <ele>52</ele>
        <time>2015-01-25T09:29:07Z</time>
      </trkpt>
      <trkpt lat="48.77404" lon="-3.25263">
        <ele>52</ele>
        <time>2015-01-25T09:29:08Z</time>
      </trkpt>
      <trkpt lat="48.77401" lon="-3.25274">
        <ele>52</ele>
        <time>2015-01-25T09:29:09Z</time>
      </trkpt>
      <trkpt lat="48.77398" lon="-3.25286">
        <ele>52</ele>
        <time>2015-01-25T09:29:10Z</time>
      </trkpt>
      <trkpt lat="48.77394" lon="-3.25297">
        <ele>52</ele>
        <time>2015-01-25T09:29:11Z</time>
      </trkpt>
      <trkpt lat="48.77391" lon="-3.25309">
        <ele>52</ele>
        <time>2015-01-25T09:29:12Z</time>
      </trkpt>
      <trkpt lat="48.77388" lon="-3.25321">
        <ele>52</ele>
        <time>2015-01-25T09:29:13Z</time>
      </trkpt>
      <trkpt lat="48.77385" lon="-3.25333">
        <ele>52</ele>
        <time>2015-01-25T09:29:14Z</time>
      </trkpt>
      <trkpt lat="48.77382" lon="-3.25345">
        <ele>52</ele>
        <time>2015-01-25T09:29:15Z</time>
      </trkpt>
      <trkpt lat="48.77379" lon="-3.25358">
        <ele>52</ele>
        <time>2015-01-25T09:29:16Z</time>
      </trkpt>
      <trkpt lat="48.77376" lon="-3.25371">
        <ele>51</ele>
        <time>2015-01-25T09:29:17Z</time>
      </trkpt>
      <trkpt lat="48.77373" lon="-3.25383">
        <ele>51</ele>
        <time>2015-01-25T09:29:18Z</time>
      </trkpt>
      <trkpt lat="48.7737" lon="-3.25396">
        <ele>51</ele>
        <time>2015-01-25T09:29:19Z</time>
      </trkpt>
      <trkpt lat="48.77367" lon="-3.25409">
        <ele>51</ele>
        <time>2015-01-25T09:29:20Z</time>
      </trkpt>
      <trkpt lat="48.77364" lon="-3.25421">
        <ele>51</ele>
        <time>2015-01-25T09:29:21Z</time>
      </trkpt>
      <trkpt lat="48.77361" lon="-3.25433">
        <ele>51</ele>
        <time>2015-01-25T09:29:22Z</time>
      </trkpt>
      <trkpt lat="48.77358" lon="-3.25445">
        <ele>51</ele>
        <time>2015-01-25T09:29:23Z</time>
      </trkpt>
      <trkpt lat="48.77355" lon="-3.25457">
        <ele>51</ele>
        <time>2015-01-25T09:29:24Z</time>
      </trkpt>
      <trkpt lat="48.77352" lon="-3.25469">
        <ele>51</ele>
        <time>2015-01-25T09:29:25Z</time>
      </trkpt>
      <trkpt lat="48.77349" lon="-3.25481">
        <ele>51</ele>
        <time>2015-01-25T09:29:26Z</time>
      </trkpt>
      <trkpt lat="48.77346" lon="-3.25493">
        <ele>51</ele>
        <time>2015-01-25T09:29:27Z</time>
      </trkpt>
      <trkpt lat="48.77344" lon="-3.25504">
        <ele>51</ele>
        <time>2015-01-25T09:29:28Z</time>
      </trkpt>
      <trkpt lat="48.77341" lon="-3.25516">
        <ele>51</ele>
        <time>2015-01-25T09:29:29Z</time>
      </trkpt>
      <trkpt lat="48.77338" lon="-3.25527">
        <ele>51</ele>
        <time>2015-01-25T09:29:30Z</time>
      </trkpt>
      <trkpt lat="48.77335" lon="-3.25539">
        <ele>51</ele>
        <time>2015-01-25T09:29:31Z</time>
      </trkpt>
      <trkpt lat="48.77332" lon="-3.25551">
        <ele>51</ele>
        <time>2015-01-25T09:29:32Z</time>
      </trkpt>
      <trkpt lat="48.77329" lon="-3.25562">
        <ele>51</ele>
        <time>2015-01-25T09:29:33Z</time>
      </trkpt>
      <trkpt lat="48.77326" lon="-3.25573">
        <ele>51</ele>
        <time>2015-01-25T09:29:34Z</time>
      </trkpt>
      <trkpt lat="48.77324" lon="-3.25585">
        <ele>51</ele>
        <time>2015-01-25T09:29:35Z</time>
      </trkpt>
      <trkpt lat="48.77321" lon="-3.25597">
        <ele>51</ele>
        <time>2015-01-25T09:29:36Z</time>
      </trkpt>
      <trkpt lat="48.77318" lon="-3.25608">
        <ele>51</ele>
        <time>2015-01-25T09:29:37Z</time>
      </trkpt>
      <trkpt lat="48.77315" lon="-3.2562">
        <ele>51</ele>
        <time>2015-01-25T09:29:38Z</time>
      </trkpt>
      <trkpt lat="48.77312" lon="-3.25631">
        <ele>51</ele>
        <time>2015-01-25T09:29:39Z</time>
      </trkpt>
      <trkpt lat="48.77309" lon="-3.25643">
        <ele>51</ele>
        <time>2015-01-25T09:29:40Z</time>
      </trkpt>
      <trkpt lat="48.77306" lon="-3.25655">
        <ele>51</ele>
        <time>2015-01-25T09:29:41Z</time>
      </trkpt>
      <trkpt lat="48.77304" lon="-3.25666">
        <ele>51</ele>
        <time>2015-01-25T09:29:42Z</time>
      </trkpt>
      <trkpt lat="48.77301" lon="-3.25677">
        <ele>51</ele>
        <time>2015-01-25T09:29:43Z</time>
      </trkpt>
      <trkpt lat="48.77298" lon="-3.25689">
        <ele>51</ele>
        <time>2015-01-25T09:29:44Z</time>
      </trkpt>
      <trkpt lat="48.77296" lon="-3.25701">
        <ele>51</ele>
        <time>2015-01-25T09:29:45Z</time>
      </trkpt>
      <trkpt lat="48.77293" lon="-3.25712">
        <ele>51</ele>
        <time>2015-01-25T09:29:46Z</time>
      </trkpt>
      <trkpt lat="48.7729" lon="-3.25724">
        <ele>51</ele>
        <time>2015-01-25T09:29:47Z</time>
      </trkpt>
      <trkpt lat="48.77287" lon="-3.25735">
        <ele>51</ele>
        <time>2015-01-25T09:29:48Z</time>
      </trkpt>
      <trkpt lat="48.77284" lon="-3.25746">
        <ele>51</ele>
        <time>2015-01-25T09:29:49Z</time>
      </trkpt>
      <trkpt lat="48.77282" lon="-3.25758">
        <ele>51</ele>
        <time>2015-01-25T09:29:50Z</time>
      </trkpt>
      <trkpt lat="48.77279" lon="-3.25769">
        <ele>51</ele>
        <time>2015-01-25T09:29:51Z</time>
      </trkpt>
      <trkpt lat="48.77276" lon="-3.2578">
        <ele>51</ele>
        <time>2015-01-25T09:29:52Z</time>
      </trkpt>
      <trkpt lat="48.77273" lon="-3.25792">
        <ele>51</ele>
        <time>2015-01-25T09:29:53Z</time>
      </trkpt>
      <trkpt lat="48.7727" lon="-3.25803">
        <ele>51</ele>
        <time>2015-01-25T09:29:54Z</time>
      </trkpt>
      <trkpt lat="48.77267" lon="-3.25814">
        <ele>51</ele>
        <time>2015-01-25T09:29:55Z</time>
      </trkpt>
      <trkpt lat="48.77264" lon="-3.25825">
        <ele>51</ele>
        <time>2015-01-25T09:29:56Z</time>
      </trkpt>
      <trkpt lat="48.77261" lon="-3.25836">
        <ele>51</ele>
        <time>2015-01-25T09:29:57Z</time>
      </trkpt>
      <trkpt lat="48.77258" lon="-3.25847">
        <ele>51</ele>
        <time>2015-01-25T09:29:58Z</time>
      </trkpt>
      <trkpt lat="48.77255" lon="-3.25857">
        <ele>51</ele>
        <time>2015-01-25T09:29:59Z</time>
      </trkpt>
      <trkpt lat="48.77252" lon="-3.25868">
        <ele>51</ele>
        <time>2015-01-25T09:30:00Z</time>
      </trkpt>
      <trkpt lat="48.77249" lon="-3.25878">
        <ele>51</ele>
        <time>2015-01-25T09:30:01Z</time>
      </trkpt>
      <trkpt lat="48.77246" lon="-3.25889">
        <ele>51</ele>
        <time>2015-01-25T09:30:02Z</time>
      </trkpt>
      <trkpt lat="48.77243" lon="-3.25899">
        <ele>51</ele>
        <time>2015-01-25T09:30:03Z</time>
      </trkpt>
      <trkpt lat="48.7724" lon="-3.25909">
        <ele>51</ele>
        <time>2015-01-25T09:30:04Z</time>
      </trkpt>
      <trkpt lat="48.77237" lon="-3.25919">
        <ele>51</ele>
        <time>2015-01-25T09:30:05Z</time>
      </trkpt>
      <trkpt lat="48.77233" lon="-3.25929">
        <ele>51</ele>
        <time>2015-01-25T09:30:06Z</time>
      </trkpt>
      <trkpt lat="48.7723" lon="-3.25939">
        <ele>51</ele>
        <time>2015-01-25T09:30:07Z</time>
      </trkpt>
      <trkpt lat="48.77227" lon="-3.2595">
        <ele>51</ele>
        <time>2015-01-25T09:30:08Z</time>
      </trkpt>
      <trkpt lat="48.77223" lon="-3.2596">
        <ele>51</ele>
        <time>2015-01-25T09:30:09Z</time>
      </trkpt>
      <trkpt lat="48.7722" lon="-3.2597">
        <ele>51</ele>
        <time>2015-01-25T09:30:10Z</time>
      </trkpt>
      <trkpt lat="48.77217" lon="-3.2598">
        <ele>51</ele>
        <time>2015-01-25T09:30:11Z</time>
      </trkpt>
      <trkpt lat="48.77213" lon="-3.2599">
        <ele>51</ele>
        <time>2015-01-25T09:30:12Z</time>
      </trkpt>
      <trkpt lat="48.7721" lon="-3.26">
        <ele>51</ele>
        <time>2015-01-25T09:30:13Z</time>
      </trkpt>
      <trkpt lat="48.77207" lon="-3.26009">
        <ele>51</ele>
        <time>2015-01-25T09:30:14Z</time>
      </trkpt>
      <trkpt lat="48.77204" lon="-3.26018">
        <ele>51</ele>
        <time>2015-01-25T09:30:15Z</time>
      </trkpt>
      <trkpt lat="48.77201" lon="-3.26028">
        <ele>51</ele>
        <time>2015-01-25T09:30:16Z</time>
      </trkpt>
      <trkpt lat="48.77198" lon="-3.26037">
        <ele>51</ele>
        <time>2015-01-25T09:30:17Z</time>
      </trkpt>
      <trkpt lat="48.77195" lon="-3.26046">
        <ele>51</ele>
        <time>2015-01-25T09:30:18Z</time>
      </trkpt>
      <trkpt lat="48.77192" lon="-3.26055">
        <ele>51</ele>
        <time>2015-01-25T09:30:19Z</time>
      </trkpt>
      <trkpt lat="48.77189" lon="-3.26064">
        <ele>51</ele>
        <time>2015-01-25T09:30:20Z</time>
      </trkpt>
      <trkpt lat="48.77186" lon="-3.26073">
        <ele>51</ele>
        <time>2015-01-25T09:30:21Z</time>
      </trkpt>
      <trkpt lat="48.77183" lon="-3.26082">
        <ele>51</ele>
        <time>2015-01-25T09:30:22Z</time>
      </trkpt>
      <trkpt lat="48.7718" lon="-3.26091">
        <ele>51</ele>
        <time>2015-01-25T09:30:23Z</time>
      </trkpt>
      <trkpt lat="48.77177" lon="-3.261">
        <ele>51</ele>
        <time>2015-01-25T09:30:24Z</time>
      </trkpt>
      <trkpt lat="48.77174" lon="-3.26109">
        <ele>51</ele>
        <time>2015-01-25T09:30:25Z</time>
      </trkpt>
      <trkpt lat="48.77171" lon="-3.26118">
        <ele>51</ele>
        <time>2015-01-25T09:30:26Z</time>
      </trkpt>
      <trkpt lat="48.77168" lon="-3.26128">
        <ele>51</ele>
        <time>2015-01-25T09:30:27Z</time>
      </trkpt>
      <trkpt lat="48.77165" lon="-3.26137">
        <ele>51</ele>
        <time>2015-01-25T09:30:28Z</time>
      </trkpt>
      <trkpt lat="48.77162" lon="-3.26146">
        <ele>51</ele>
        <time>2015-01-25T09:30:29Z</time>
      </trkpt>
      <trkpt lat="48.77159" lon="-3.26156">
        <ele>51</ele>
        <time>2015-01-25T09:30:30Z</time>
      </trkpt>
      <trkpt lat="48.77156" lon="-3.26165">
        <ele>51</ele>
        <time>2015-01-25T09:30:31Z</time>
      </trkpt>
      <trkpt lat="48.77154" lon="-3.26175">
        <ele>51</ele>
        <time>2015-01-25T09:30:32Z</time>
      </trkpt>
      <trkpt lat="48.77152" lon="-3.26185">
        <ele>51</ele>
        <time>2015-01-25T09:30:33Z</time>
      </trkpt>
      <trkpt lat="48.7715" lon="-3.26194">
        <ele>51</ele>
        <time>2015-01-25T09:30:34Z</time>
      </trkpt>
      <trkpt lat="48.77148" lon="-3.26204">
        <ele>51</ele>
        <time>2015-01-25T09:30:35Z</time>
      </trkpt>
      <trkpt lat="48.77146" lon="-3.26214">
        <ele>51</ele>
        <time>2015-01-25T09:30:36Z</time>
      </trkpt>
      <trkpt lat="48.77144" lon="-3.26224">
        <ele>51</ele>
        <time>2015-01-25T09:30:37Z</time>
      </trkpt>
      <trkpt lat="48.77142" lon="-3.26233">
        <ele>51</ele>
        <time>2015-01-25T09:30:38Z</time>
      </trkpt>
      <trkpt lat="48.7714" lon="-3.26243">
        <ele>51</ele>
        <time>2015-01-25T09:30:39Z</time>
      </trkpt>
      <trkpt lat="48.77139" lon="-3.26253">
        <ele>52</ele>
        <time>2015-01-25T09:30:40Z</time>
      </trkpt>
      <trkpt lat="48.77137" lon="-3.26262">
        <ele>52</ele>
        <time>2015-01-25T09:30:41Z</time>
      </trkpt>
      <trkpt lat="48.77136" lon="-3.26272">
        <ele>52</ele>
        <time>2015-01-25T09:30:42Z</time>
      </trkpt>
      <trkpt lat="48.77134" lon="-3.26281">
        <ele>52</ele>
        <time>2015-01-25T09:30:43Z</time>
      </trkpt>
      <trkpt lat="48.77132" lon="-3.26291">
        <ele>52</ele>
        <time>2015-01-25T09:30:44Z</time>
      </trkpt>
      <trkpt lat="48.77131" lon="-3.26301">
        <ele>52</ele>
        <time>2015-01-25T09:30:45Z</time>
      </trkpt>
      <trkpt lat="48.77129" lon="-3.26311">
        <ele>52</ele>
        <time>2015-01-25T09:30:46Z</time>
      </trkpt>
      <trkpt lat="48.77128" lon="-3.26321">
        <ele>52</ele>
        <time>2015-01-25T09:30:47Z</time>
      </trkpt>
      <trkpt lat="48.77126" lon="-3.26331">
        <ele>53</ele>
        <time>2015-01-25T09:30:48Z</time>
      </trkpt>
      <trkpt lat="48.77124" lon="-3.26341">
        <ele>53</ele>
        <time>2015-01-25T09:30:49Z</time>
      </trkpt>
      <trkpt lat="48.77123" lon="-3.2635">
        <ele>53</ele>
        <time>2015-01-25T09:30:50Z</time>
      </trkpt>
      <trkpt lat="48.77121" lon="-3.2636">
        <ele>53</ele>
        <time>2015-01-25T09:30:51Z</time>
      </trkpt>
      <trkpt lat="48.7712" lon="-3.26369">
        <ele>53</ele>
        <time>2015-01-25T09:30:52Z</time>
      </trkpt>
      <trkpt lat="48.77118" lon="-3.26379">
        <ele>53</ele>
        <time>2015-01-25T09:30:53Z</time>
      </trkpt>
      <trkpt lat="48.77117" lon="-3.26388">
        <ele>53</ele>
        <time>2015-01-25T09:30:54Z</time>
      </trkpt>
      <trkpt lat="48.77115" lon="-3.26398">
        <ele>54</ele>
        <time>2015-01-25T09:30:55Z</time>
      </trkpt>
      <trkpt lat="48.77113" lon="-3.26407">
        <ele>54</ele>
        <time>2015-01-25T09:30:56Z</time>
      </trkpt>
      <trkpt lat="48.77112" lon="-3.26417">
        <ele>54</ele>
        <time>2015-01-25T09:30:57Z</time>
      </trkpt>
      <trkpt lat="48.77111" lon="-3.26426">
        <ele>54</ele>
        <time>2015-01-25T09:30:58Z</time>
      </trkpt>
      <trkpt lat="48.77109" lon="-3.26435">
        <ele>54</ele>
        <time>2015-01-25T09:30:59Z</time>
      </trkpt>
      <trkpt lat="48.77108" lon="-3.26445">
        <ele>54</ele>
        <time>2015-01-25T09:31:00Z</time>
      </trkpt>
      <trkpt lat="48.77106" lon="-3.26455">
        <ele>55</ele>
        <time>2015-01-25T09:31:01Z</time>
      </trkpt>
      <trkpt lat="48.77104" lon="-3.26464">
        <ele>55</ele>
        <time>2015-01-25T09:31:02Z</time>
      </trkpt>
      <trkpt lat="48.77103" lon="-3.26474">
        <ele>55</ele>
        <time>2015-01-25T09:31:03Z</time>
      </trkpt>
      <trkpt lat="48.77101" lon="-3.26484">
        <ele>55</ele>
        <time>2015-01-25T09:31:04Z</time>
      </trkpt>
      <trkpt lat="48.77099" lon="-3.26494">
        <ele>55</ele>
        <time>2015-01-25T09:31:05Z</time>
      </trkpt>
      <trkpt lat="48.77098" lon="-3.26504">
        <ele>56</ele>
        <time>2015-01-25T09:31:06Z</time>
      </trkpt>
      <trkpt lat="48.77096" lon="-3.26515">
        <ele>56</ele>
        <time>2015-01-25T09:31:07Z</time>
      </trkpt>
      <trkpt lat="48.77095" lon="-3.26525">
        <ele>56</ele>
        <time>2015-01-25T09:31:08Z</time>
      </trkpt>
      <trkpt lat="48.77093" lon="-3.26535">
        <ele>56</ele>
        <time>2015-01-25T09:31:09Z</time>
      </trkpt>
      <trkpt lat="48.77091" lon="-3.26546">
        <ele>56</ele>
        <time>2015-01-25T09:31:10Z</time>
      </trkpt>
      <trkpt lat="48.77089" lon="-3.26556">
        <ele>56</ele>
        <time>2015-01-25T09:31:11Z</time>
      </trkpt>
      <trkpt lat="48.77088" lon="-3.26566">
        <ele>56</ele>
        <time>2015-01-25T09:31:12Z</time>
      </trkpt>
      <trkpt lat="48.77086" lon="-3.26576">
        <ele>57</ele>
        <time>2015-01-25T09:31:13Z</time>
      </trkpt>
      <trkpt lat="48.77085" lon="-3.26586">
        <ele>57</ele>
        <time>2015-01-25T09:31:14Z</time>
      </trkpt>
      <trkpt lat="48.77083" lon="-3.26596">
        <ele>57</ele>
        <time>2015-01-25T09:31:15Z</time>
      </trkpt>
      <trkpt lat="48.77082" lon="-3.26605">
        <ele>57</ele>
        <time>2015-01-25T09:31:16Z</time>
      </trkpt>
      <trkpt lat="48.7708" lon="-3.26615">
        <ele>57</ele>
        <time>2015-01-25T09:31:17Z</time>
      </trkpt>
      <trkpt lat="48.77079" lon="-3.26624">
        <ele>57</ele>
        <time>2015-01-25T09:31:18Z</time>
      </trkpt>
      <trkpt lat="48.77077" lon="-3.26634">
        <ele>58</ele>
        <time>2015-01-25T09:31:19Z</time>
      </trkpt>
      <trkpt lat="48.77075" lon="-3.26643">
        <ele>58</ele>
        <time>2015-01-25T09:31:20Z</time>
      </trkpt>
      <trkpt lat="48.77074" lon="-3.26652">
        <ele>58</ele>
        <time>2015-01-25T09:31:21Z</time>
      </trkpt>
      <trkpt lat="48.77072" lon="-3.26661">
        <ele>58</ele>
        <time>2015-01-25T09:31:22Z</time>
      </trkpt>
      <trkpt lat="48.7707" lon="-3.26671">
        <ele>59</ele>
        <time>2015-01-25T09:31:23Z</time>
      </trkpt>
      <trkpt lat="48.77068" lon="-3.2668">
        <ele>59</ele>
        <time>2015-01-25T09:31:24Z</time>
      </trkpt>
      <trkpt lat="48.77066" lon="-3.26689">
        <ele>59</ele>
        <time>2015-01-25T09:31:25Z</time>
      </trkpt>
      <trkpt lat="48.77063" lon="-3.26699">
        <ele>59</ele>
        <time>2015-01-25T09:31:26Z</time>
      </trkpt>
      <trkpt lat="48.77061" lon="-3.26709">
        <ele>60</ele>
        <time>2015-01-25T09:31:27Z</time>
      </trkpt>
      <trkpt lat="48.77059" lon="-3.26718">
        <ele>60</ele>
        <time>2015-01-25T09:31:28Z</time>
      </trkpt>
      <trkpt lat="48.77056" lon="-3.26728">
        <ele>60</ele>
        <time>2015-01-25T09:31:29Z</time>
      </trkpt>
      <trkpt lat="48.77054" lon="-3.26738">
        <ele>60</ele>
        <time>2015-01-25T09:31:30Z</time>
      </trkpt>
      <trkpt lat="48.77052" lon="-3.26748">
        <ele>60</ele>
        <time>2015-01-25T09:31:31Z</time>
      </trkpt>
      <trkpt lat="48.77049" lon="-3.26758">
        <ele>60</ele>
        <time>2015-01-25T09:31:32Z</time>
      </trkpt>
      <trkpt lat="48.77046" lon="-3.26768">
        <ele>60</ele>
        <time>2015-01-25T09:31:33Z</time>
      </trkpt>
      <trkpt lat="48.77044" lon="-3.26778">
        <ele>61</ele>
        <time>2015-01-25T09:31:34Z</time>
      </trkpt>
      <trkpt lat="48.77041" lon="-3.26789">
        <ele>61</ele>
        <time>2015-01-25T09:31:35Z</time>
      </trkpt>
      <trkpt lat="48.77039" lon="-3.26798">
        <ele>61</ele>
        <time>2015-01-25T09:31:36Z</time>
      </trkpt>
      <trkpt lat="48.77036" lon="-3.26808">
        <ele>61</ele>
        <time>2015-01-25T09:31:37Z</time>
      </trkpt>
      <trkpt lat="48.77033" lon="-3.26818">
        <ele>61</ele>
        <time>2015-01-25T09:31:38Z</time>
      </trkpt>
      <trkpt lat="48.7703" lon="-3.26829">
        <ele>61</ele>
        <time>2015-01-25T09:31:39Z</time>
      </trkpt>
      <trkpt lat="48.77027" lon="-3.26838">
        <ele>61</ele>
        <time>2015-01-25T09:31:40Z</time>
      </trkpt>
      <trkpt lat="48.77024" lon="-3.26849">
        <ele>62</ele>
        <time>2015-01-25T09:31:41Z</time>
      </trkpt>
      <trkpt lat="48.77021" lon="-3.26859">
        <ele>62</ele>
        <time>2015-01-25T09:31:42Z</time>
      </trkpt>
      <trkpt lat="48.77017" lon="-3.2687">
        <ele>62</ele>
        <time>2015-01-25T09:31:43Z</time>
      </trkpt>
      <trkpt lat="48.77014" lon="-3.2688">
        <ele>62</ele>
        <time>2015-01-25T09:31:44Z</time>
      </trkpt>
      <trkpt lat="48.77011" lon="-3.26891">
        <ele>62</ele>
        <time>2015-01-25T09:31:45Z</time>
      </trkpt>
      <trkpt lat="48.77008" lon="-3.26901">
        <ele>62</ele>
        <time>2015-01-25T09:31:46Z</time>
      </trkpt>
      <trkpt lat="48.77005" lon="-3.26911">
        <ele>62</ele>
        <time>2015-01-25T09:31:47Z</time>
      </trkpt>
      <trkpt lat="48.77002" lon="-3.26921">
        <ele>62</ele>
        <time>2015-01-25T09:31:48Z</time>
      </trkpt>
      <trkpt lat="48.76999" lon="-3.26931">
        <ele>62</ele>
        <time>2015-01-25T09:31:49Z</time>
      </trkpt>
      <trkpt lat="48.76996" lon="-3.2694">
        <ele>62</ele>
        <time>2015-01-25T09:31:50Z</time>
      </trkpt>
      <trkpt lat="48.76993" lon="-3.2695">
        <ele>62</ele>
        <time>2015-01-25T09:31:51Z</time>
      </trkpt>
      <trkpt lat="48.7699" lon="-3.2696">
        <ele>62</ele>
        <time>2015-01-25T09:31:52Z</time>
      </trkpt>
      <trkpt lat="48.76986" lon="-3.2697">
        <ele>62</ele>
        <time>2015-01-25T09:31:53Z</time>
      </trkpt>
      <trkpt lat="48.76983" lon="-3.26981">
        <ele>62</ele>
        <time>2015-01-25T09:31:54Z</time>
      </trkpt>
      <trkpt lat="48.7698" lon="-3.26991">
        <ele>62</ele>
        <time>2015-01-25T09:31:55Z</time>
      </trkpt>
      <trkpt lat="48.76977" lon="-3.27001">
        <ele>62</ele>
        <time>2015-01-25T09:31:56Z</time>
      </trkpt>
      <trkpt lat="48.76974" lon="-3.27012">
        <ele>62</ele>
        <time>2015-01-25T09:31:57Z</time>
      </trkpt>
      <trkpt lat="48.7697" lon="-3.27022">
        <ele>62</ele>
        <time>2015-01-25T09:31:58Z</time>
      </trkpt>
      <trkpt lat="48.76967" lon="-3.27032">
        <ele>62</ele>
        <time>2015-01-25T09:31:59Z</time>
      </trkpt>
      <trkpt lat="48.76964" lon="-3.27043">
        <ele>62</ele>
        <time>2015-01-25T09:32:00Z</time>
      </trkpt>
      <trkpt lat="48.76961" lon="-3.27053">
        <ele>62</ele>
        <time>2015-01-25T09:32:01Z</time>
      </trkpt>
      <trkpt lat="48.76957" lon="-3.27063">
        <ele>62</ele>
        <time>2015-01-25T09:32:02Z</time>
      </trkpt>
      <trkpt lat="48.76954" lon="-3.27074">
        <ele>62</ele>
        <time>2015-01-25T09:32:03Z</time>
      </trkpt>
      <trkpt lat="48.7695" lon="-3.27084">
        <ele>62</ele>
        <time>2015-01-25T09:32:04Z</time>
      </trkpt>
      <trkpt lat="48.76946" lon="-3.27095">
        <ele>62</ele>
        <time>2015-01-25T09:32:05Z</time>
      </trkpt>
      <trkpt lat="48.76942" lon="-3.27105">
        <ele>62</ele>
        <time>2015-01-25T09:32:06Z</time>
      </trkpt>
      <trkpt lat="48.76938" lon="-3.27115">
        <ele>62</ele>
        <time>2015-01-25T09:32:07Z</time>
      </trkpt>
      <trkpt lat="48.76934" lon="-3.27125">
        <ele>62</ele>
        <time>2015-01-25T09:32:08Z</time>
      </trkpt>
      <trkpt lat="48.76929" lon="-3.27135">
        <ele>62</ele>
        <time>2015-01-25T09:32:09Z</time>
      </trkpt>
      <trkpt lat="48.76925" lon="-3.27145">
        <ele>62</ele>
        <time>2015-01-25T09:32:10Z</time>
      </trkpt>
      <trkpt lat="48.7692" lon="-3.27155">
        <ele>62</ele>
        <time>2015-01-25T09:32:11Z</time>
      </trkpt>
      <trkpt lat="48.76916" lon="-3.27165">
        <ele>62</ele>
        <time>2015-01-25T09:32:12Z</time>
      </trkpt>
      <trkpt lat="48.76911" lon="-3.27176">
        <ele>62</ele>
        <time>2015-01-25T09:32:13Z</time>
      </trkpt>
      <trkpt lat="48.76906" lon="-3.27186">
        <ele>62</ele>
        <time>2015-01-25T09:32:14Z</time>
      </trkpt>
      <trkpt lat="48.76902" lon="-3.27196">
        <ele>62</ele>
        <time>2015-01-25T09:32:15Z</time>
      </trkpt>
      <trkpt lat="48.76897" lon="-3.27206">
        <ele>62</ele>
        <time>2015-01-25T09:32:16Z</time>
      </trkpt>
      <trkpt lat="48.76892" lon="-3.27216">
        <ele>62</ele>
        <time>2015-01-25T09:32:17Z</time>
      </trkpt>
      <trkpt lat="48.76888" lon="-3.27226">
        <ele>62</ele>
        <time>2015-01-25T09:32:18Z</time>
      </trkpt>
      <trkpt lat="48.76883" lon="-3.27236">
        <ele>62</ele>
        <time>2015-01-25T09:32:19Z</time>
      </trkpt>
      <trkpt lat="48.76878" lon="-3.27246">
        <ele>62</ele>
        <time>2015-01-25T09:32:20Z</time>
      </trkpt>
      <trkpt lat="48.76873" lon="-3.27257">
        <ele>62</ele>
        <time>2015-01-25T09:32:21Z</time>
      </trkpt>
      <trkpt lat="48.76868" lon="-3.27267">
        <ele>62</ele>
        <time>2015-01-25T09:32:22Z</time>
      </trkpt>
      <trkpt lat="48.76864" lon="-3.27277">
        <ele>62</ele>
        <time>2015-01-25T09:32:23Z</time>
      </trkpt>
      <trkpt lat="48.76859" lon="-3.27288">
        <ele>62</ele>
        <time>2015-01-25T09:32:24Z</time>
      </trkpt>
      <trkpt lat="48.76854" lon="-3.27299">
        <ele>62</ele>
        <time>2015-01-25T09:32:25Z</time>
      </trkpt>
      <trkpt lat="48.76849" lon="-3.27309">
        <ele>62</ele>
        <time>2015-01-25T09:32:26Z</time>
      </trkpt>
      <trkpt lat="48.76844" lon="-3.2732">
        <ele>62</ele>
        <time>2015-01-25T09:32:27Z</time>
      </trkpt>
      <trkpt lat="48.7684" lon="-3.27331">
        <ele>62</ele>
        <time>2015-01-25T09:32:28Z</time>
      </trkpt>
      <trkpt lat="48.76836" lon="-3.27342">
        <ele>62</ele>
        <time>2015-01-25T09:32:29Z</time>
      </trkpt>
      <trkpt lat="48.76831" lon="-3.27354">
        <ele>62</ele>
        <time>2015-01-25T09:32:30Z</time>
      </trkpt>
      <trkpt lat="48.76827" lon="-3.27365">
        <ele>62</ele>
        <time>2015-01-25T09:32:31Z</time>
      </trkpt>
      <trkpt lat="48.76823" lon="-3.27377">
        <ele>62</ele>
        <time>2015-01-25T09:32:32Z</time>
      </trkpt>
      <trkpt lat="48.76819" lon="-3.27389">
        <ele>62</ele>
        <time>2015-01-25T09:32:33Z</time>
      </trkpt>
      <trkpt lat="48.76815" lon="-3.274">
        <ele>62</ele>
        <time>2015-01-25T09:32:34Z</time>
      </trkpt>
      <trkpt lat="48.76811" lon="-3.27412">
        <ele>62</ele>
        <time>2015-01-25T09:32:35Z</time>
      </trkpt>
      <trkpt lat="48.76806" lon="-3.27424">
        <ele>62</ele>
        <time>2015-01-25T09:32:36Z</time>
      </trkpt>
      <trkpt lat="48.76802" lon="-3.27436">
        <ele>62</ele>
        <time>2015-01-25T09:32:37Z</time>
      </trkpt>
      <trkpt lat="48.76797" lon="-3.27449">
        <ele>62</ele>
        <time>2015-01-25T09:32:38Z</time>
      </trkpt>
      <trkpt lat="48.76793" lon="-3.27461">
        <ele>62</ele>
        <time>2015-01-25T09:32:39Z</time>
      </trkpt>
      <trkpt lat="48.76789" lon="-3.27474">
        <ele>62</ele>
        <time>2015-01-25T09:32:40Z</time>
      </trkpt>
      <trkpt lat="48.76784" lon="-3.27486">
        <ele>62</ele>
        <time>2015-01-25T09:32:41Z</time>
      </trkpt>
      <trkpt lat="48.7678" lon="-3.27498">
        <ele>62</ele>
        <time>2015-01-25T09:32:42Z</time>
      </trkpt>
      <trkpt lat="48.76775" lon="-3.27511">
        <ele>62</ele>
        <time>2015-01-25T09:32:43Z</time>
      </trkpt>
      <trkpt lat="48.7677" lon="-3.27522">
        <ele>62</ele>
        <time>2015-01-25T09:32:44Z</time>
      </trkpt>
      <trkpt lat="48.76766" lon="-3.27535">
        <ele>62</ele>
        <time>2015-01-25T09:32:45Z</time>
      </trkpt>
      <trkpt lat="48.76762" lon="-3.27547">
        <ele>62</ele>
        <time>2015-01-25T09:32:46Z</time>
      </trkpt>
      <trkpt lat="48.76757" lon="-3.27558">
        <ele>61</ele>
        <time>2015-01-25T09:32:47Z</time>
      </trkpt>
      <trkpt lat="48.76753" lon="-3.2757">
        <ele>61</ele>
        <time>2015-01-25T09:32:48Z</time>
      </trkpt>
      <trkpt lat="48.76748" lon="-3.27583">
        <ele>61</ele>
        <time>2015-01-25T09:32:49Z</time>
      </trkpt>
      <trkpt lat="48.76744" lon="-3.27595">
        <ele>61</ele>
        <time>2015-01-25T09:32:50Z</time>
      </trkpt>
      <trkpt lat="48.76739" lon="-3.27607">
        <ele>61</ele>
        <time>2015-01-25T09:32:51Z</time>
      </trkpt>
      <trkpt lat="48.76735" lon="-3.2762">
        <ele>60</ele>
        <time>2015-01-25T09:32:52Z</time>
      </trkpt>
      <trkpt lat="48.7673" lon="-3.27632">
        <ele>60</ele>
        <time>2015-01-25T09:32:53Z</time>
      </trkpt>
      <trkpt lat="48.76726" lon="-3.27645">
        <ele>60</ele>
        <time>2015-01-25T09:32:54Z</time>
      </trkpt>
      <trkpt lat="48.76722" lon="-3.27658">
        <ele>60</ele>
        <time>2015-01-25T09:32:55Z</time>
      </trkpt>
      <trkpt lat="48.76717" lon="-3.2767">
        <ele>60</ele>
        <time>2015-01-25T09:32:56Z</time>
      </trkpt>
      <trkpt lat="48.76713" lon="-3.27683">
        <ele>60</ele>
        <time>2015-01-25T09:32:57Z</time>
      </trkpt>
      <trkpt lat="48.76709" lon="-3.27695">
        <ele>60</ele>
        <time>2015-01-25T09:32:58Z</time>
      </trkpt>
      <trkpt lat="48.76704" lon="-3.27707">
        <ele>60</ele>
        <time>2015-01-25T09:32:59Z</time>
      </trkpt>
      <trkpt lat="48.767" lon="-3.27719">
        <ele>60</ele>
        <time>2015-01-25T09:33:00Z</time>
      </trkpt>
      <trkpt lat="48.76696" lon="-3.2773">
        <ele>59</ele>
        <time>2015-01-25T09:33:01Z</time>
      </trkpt>
      <trkpt lat="48.76691" lon="-3.27742">
        <ele>59</ele>
        <time>2015-01-25T09:33:02Z</time>
      </trkpt>
      <trkpt lat="48.76687" lon="-3.27754">
        <ele>59</ele>
        <time>2015-01-25T09:33:03Z</time>
      </trkpt>
      <trkpt lat="48.76683" lon="-3.27766">
        <ele>59</ele>
        <time>2015-01-25T09:33:04Z</time>
      </trkpt>
      <trkpt lat="48.76679" lon="-3.27779">
        <ele>59</ele>
        <time>2015-01-25T09:33:05Z</time>
      </trkpt>
      <trkpt lat="48.76674" lon="-3.27791">
        <ele>59</ele>
        <time>2015-01-25T09:33:06Z</time>
      </trkpt>
      <trkpt lat="48.7667" lon="-3.27802">
        <ele>59</ele>
        <time>2015-01-25T09:33:07Z</time>
      </trkpt>
      <trkpt lat="48.76666" lon="-3.27814">
        <ele>59</ele>
        <time>2015-01-25T09:33:08Z</time>
      </trkpt>
      <trkpt lat="48.76661" lon="-3.27826">
        <ele>58</ele>
        <time>2015-01-25T09:33:09Z</time>
      </trkpt>
      <trkpt lat="48.76657" lon="-3.27838">
        <ele>58</ele>
        <time>2015-01-25T09:33:10Z</time>
      </trkpt>
      <trkpt lat="48.76652" lon="-3.27849">
        <ele>58</ele>
        <time>2015-01-25T09:33:11Z</time>
      </trkpt>
      <trkpt lat="48.76647" lon="-3.27861">
        <ele>58</ele>
        <time>2015-01-25T09:33:12Z</time>
      </trkpt>
      <trkpt lat="48.76643" lon="-3.27872">
        <ele>58</ele>
        <time>2015-01-25T09:33:13Z</time>
      </trkpt>
      <trkpt lat="48.76638" lon="-3.27884">
        <ele>58</ele>
        <time>2015-01-25T09:33:14Z</time>
      </trkpt>
      <trkpt lat="48.76633" lon="-3.27895">
        <ele>58</ele>
        <time>2015-01-25T09:33:15Z</time>
      </trkpt>
      <trkpt lat="48.76628" lon="-3.27907">
        <ele>58</ele>
        <time>2015-01-25T09:33:16Z</time>
      </trkpt>
      <trkpt lat="48.76623" lon="-3.27918">
        <ele>58</ele>
        <time>2015-01-25T09:33:17Z</time>
      </trkpt>
      <trkpt lat="48.76619" lon="-3.27929">
        <ele>58</ele>
        <time>2015-01-25T09:33:18Z</time>
      </trkpt>
      <trkpt lat="48.76614" lon="-3.2794">
        <ele>58</ele>
        <time>2015-01-25T09:33:19Z</time>
      </trkpt>
      <trkpt lat="48.76609" lon="-3.27951">
        <ele>58</ele>
        <time>2015-01-25T09:33:20Z</time>
      </trkpt>
      <trkpt lat="48.76605" lon="-3.27961">
        <ele>58</ele>
        <time>2015-01-25T09:33:21Z</time>
      </trkpt>
      <trkpt lat="48.766" lon="-3.27972">
        <ele>58</ele>
        <time>2015-01-25T09:33:22Z</time>
      </trkpt>
      <trkpt lat="48.76596" lon="-3.27983">
        <ele>58</ele>
        <time>2015-01-25T09:33:23Z</time>
      </trkpt>
      <trkpt lat="48.76591" lon="-3.27993">
        <ele>58</ele>
        <time>2015-01-25T09:33:24Z</time>
      </trkpt>
      <trkpt lat="48.76586" lon="-3.28004">
        <ele>58</ele>
        <time>2015-01-25T09:33:25Z</time>
      </trkpt>
      <trkpt lat="48.76582" lon="-3.28015">
        <ele>58</ele>
        <time>2015-01-25T09:33:26Z</time>
      </trkpt>
      <trkpt lat="48.76577" lon="-3.28026">
        <ele>58</ele>
        <time>2015-01-25T09:33:27Z</time>
      </trkpt>
      <trkpt lat="48.76572" lon="-3.28036">
        <ele>58</ele>
        <time>2015-01-25T09:33:28Z</time>
      </trkpt>
      <trkpt lat="48.76567" lon="-3.28047">
        <ele>58</ele>
        <time>2015-01-25T09:33:29Z</time>
      </trkpt>
      <trkpt lat="48.76563" lon="-3.28057">
        <ele>58</ele>
        <time>2015-01-25T09:33:30Z</time>
      </trkpt>
      <trkpt lat="48.76558" lon="-3.28068">
        <ele>58</ele>
        <time>2015-01-25T09:33:31Z</time>
      </trkpt>
      <trkpt lat="48.76553" lon="-3.28078">
        <ele>58</ele>
        <time>2015-01-25T09:33:32Z</time>
      </trkpt>
      <trkpt lat="48.76548" lon="-3.28089">
        <ele>58</ele>
        <time>2015-01-25T09:33:33Z</time>
      </trkpt>
      <trkpt lat="48.76542" lon="-3.28099">
        <ele>58</ele>
        <time>2015-01-25T09:33:34Z</time>
      </trkpt>
      <trkpt lat="48.76537" lon="-3.2811">
        <ele>57</ele>
        <time>2015-01-25T09:33:35Z</time>
      </trkpt>
      <trkpt lat="48.76531" lon="-3.28121">
        <ele>57</ele>
        <time>2015-01-25T09:33:36Z</time>
      </trkpt>
      <trkpt lat="48.76526" lon="-3.28132">
        <ele>57</ele>
        <time>2015-01-25T09:33:37Z</time>
      </trkpt>
      <trkpt lat="48.7652" lon="-3.28143">
        <ele>57</ele>
        <time>2015-01-25T09:33:38Z</time>
      </trkpt>
      <trkpt lat="48.76515" lon="-3.28154">
        <ele>57</ele>
        <time>2015-01-25T09:33:39Z</time>
      </trkpt>
      <trkpt lat="48.76509" lon="-3.28165">
        <ele>57</ele>
        <time>2015-01-25T09:33:40Z</time>
      </trkpt>
      <trkpt lat="48.76504" lon="-3.28175">
        <ele>56</ele>
        <time>2015-01-25T09:33:41Z</time>
      </trkpt>
      <trkpt lat="48.76499" lon="-3.28186">
        <ele>56</ele>
        <time>2015-01-25T09:33:42Z</time>
      </trkpt>
      <trkpt lat="48.76494" lon="-3.28198">
        <ele>56</ele>
        <time>2015-01-25T09:33:43Z</time>
      </trkpt>
      <trkpt lat="48.76489" lon="-3.2821">
        <ele>56</ele>
        <time>2015-01-25T09:33:44Z</time>
      </trkpt>
      <trkpt lat="48.76484" lon="-3.28221">
        <ele>55</ele>
        <time>2015-01-25T09:33:45Z</time>
      </trkpt>
      <trkpt lat="48.76479" lon="-3.28233">
        <ele>55</ele>
        <time>2015-01-25T09:33:46Z</time>
      </trkpt>
      <trkpt lat="48.76475" lon="-3.28245">
        <ele>55</ele>
        <time>2015-01-25T09:33:47Z</time>
      </trkpt>
      <trkpt lat="48.76471" lon="-3.28257">
        <ele>54</ele>
        <time>2015-01-25T09:33:48Z</time>
      </trkpt>
      <trkpt lat="48.76466" lon="-3.2827">
        <ele>54</ele>
        <time>2015-01-25T09:33:49Z</time>
      </trkpt>
      <trkpt lat="48.76461" lon="-3.28283">
        <ele>54</ele>
        <time>2015-01-25T09:33:50Z</time>
      </trkpt>
      <trkpt lat="48.76456" lon="-3.28296">
        <ele>53</ele>
        <time>2015-01-25T09:33:51Z</time>
      </trkpt>
      <trkpt lat="48.76452" lon="-3.28309">
        <ele>53</ele>
        <time>2015-01-25T09:33:52Z</time>
      </trkpt>
      <trkpt lat="48.76447" lon="-3.28322">
        <ele>53</ele>
        <time>2015-01-25T09:33:53Z</time>
      </trkpt>
      <trkpt lat="48.76442" lon="-3.28336">
        <ele>52</ele>
        <time>2015-01-25T09:33:54Z</time>
      </trkpt>
      <trkpt lat="48.76437" lon="-3.2835">
        <ele>52</ele>
        <time>2015-01-25T09:33:55Z</time>
      </trkpt>
      <trkpt lat="48.76432" lon="-3.28364">
        <ele>51</ele>
        <time>2015-01-25T09:33:56Z</time>
      </trkpt>
      <trkpt lat="48.76428" lon="-3.28378">
        <ele>51</ele>
        <time>2015-01-25T09:33:57Z</time>
      </trkpt>
      <trkpt lat="48.76423" lon="-3.28393">
        <ele>50</ele>
        <time>2015-01-25T09:33:58Z</time>
      </trkpt>
      <trkpt lat="48.76419" lon="-3.28408">
        <ele>50</ele>
        <time>2015-01-25T09:33:59Z</time>
      </trkpt>
      <trkpt lat="48.76414" lon="-3.28423">
        <ele>49</ele>
        <time>2015-01-25T09:34:00Z</time>
      </trkpt>
      <trkpt lat="48.76409" lon="-3.28438">
        <ele>49</ele>
        <time>2015-01-25T09:34:01Z</time>
      </trkpt>
      <trkpt lat="48.76405" lon="-3.28453">
        <ele>49</ele>
        <time>2015-01-25T09:34:02Z</time>
      </trkpt>
      <trkpt lat="48.764" lon="-3.28468">
        <ele>48</ele>
        <time>2015-01-25T09:34:03Z</time>
      </trkpt>
      <trkpt lat="48.76396" lon="-3.28483">
        <ele>48</ele>
        <time>2015-01-25T09:34:04Z</time>
      </trkpt>
      <trkpt lat="48.76392" lon="-3.28498">
        <ele>48</ele>
        <time>2015-01-25T09:34:05Z</time>
      </trkpt>
      <trkpt lat="48.76387" lon="-3.28513">
        <ele>47</ele>
        <time>2015-01-25T09:34:06Z</time>
      </trkpt>
      <trkpt lat="48.76383" lon="-3.28528">
        <ele>47</ele>
        <time>2015-01-25T09:34:07Z</time>
      </trkpt>
      <trkpt lat="48.76379" lon="-3.28542">
        <ele>47</ele>
        <time>2015-01-25T09:34:08Z</time>
      </trkpt>
      <trkpt lat="48.76375" lon="-3.28557">
        <ele>46</ele>
        <time>2015-01-25T09:34:09Z</time>
      </trkpt>
      <trkpt lat="48.76371" lon="-3.28572">
        <ele>46</ele>
        <time>2015-01-25T09:34:10Z</time>
      </trkpt>
      <trkpt lat="48.76366" lon="-3.28587">
        <ele>46</ele>
        <time>2015-01-25T09:34:11Z</time>
      </trkpt>
      <trkpt lat="48.76362" lon="-3.28602">
        <ele>46</ele>
        <time>2015-01-25T09:34:12Z</time>
      </trkpt>
      <trkpt lat="48.76358" lon="-3.28617">
        <ele>45</ele>
        <time>2015-01-25T09:34:13Z</time>
      </trkpt>
      <trkpt lat="48.76354" lon="-3.28632">
        <ele>45</ele>
        <time>2015-01-25T09:34:14Z</time>
      </trkpt>
      <trkpt lat="48.7635" lon="-3.28647">
        <ele>45</ele>
        <time>2015-01-25T09:34:15Z</time>
      </trkpt>
      <trkpt lat="48.76345" lon="-3.28661">
        <ele>44</ele>
        <time>2015-01-25T09:34:16Z</time>
      </trkpt>
      <trkpt lat="48.76341" lon="-3.28676">
        <ele>44</ele>
        <time>2015-01-25T09:34:17Z</time>
      </trkpt>
      <trkpt lat="48.76337" lon="-3.28691">
        <ele>44</ele>
        <time>2015-01-25T09:34:18Z</time>
      </trkpt>
      <trkpt lat="48.76333" lon="-3.28705">
        <ele>44</ele>
        <time>2015-01-25T09:34:19Z</time>
      </trkpt>
      <trkpt lat="48.76329" lon="-3.28719">
        <ele>44</ele>
        <time>2015-01-25T09:34:20Z</time>
      </trkpt>
      <trkpt lat="48.76326" lon="-3.28733">
        <ele>44</ele>
        <time>2015-01-25T09:34:21Z</time>
      </trkpt>
      <trkpt lat="48.76322" lon="-3.28747">
        <ele>43</ele>
        <time>2015-01-25T09:34:22Z</time>
      </trkpt>
      <trkpt lat="48.76318" lon="-3.28761">
        <ele>43</ele>
        <time>2015-01-25T09:34:23Z</time>
      </trkpt>
      <trkpt lat="48.76314" lon="-3.28774">
        <ele>43</ele>
        <time>2015-01-25T09:34:24Z</time>
      </trkpt>
      <trkpt lat="48.7631" lon="-3.28788">
        <ele>43</ele>
        <time>2015-01-25T09:34:25Z</time>
      </trkpt>
      <trkpt lat="48.76307" lon="-3.28801">
        <ele>43</ele>
        <time>2015-01-25T09:34:26Z</time>
      </trkpt>
      <trkpt lat="48.76303" lon="-3.28814">
        <ele>43</ele>
        <time>2015-01-25T09:34:27Z</time>
      </trkpt>
      <trkpt lat="48.76299" lon="-3.28827">
        <ele>43</ele>
        <time>2015-01-25T09:34:28Z</time>
      </trkpt>
      <trkpt lat="48.76296" lon="-3.28839">
        <ele>43</ele>
        <time>2015-01-25T09:34:29Z</time>
      </trkpt>
      <trkpt lat="48.76292" lon="-3.28852">
        <ele>43</ele>
        <time>2015-01-25T09:34:30Z</time>
      </trkpt>
      <trkpt lat="48.76289" lon="-3.28864">
        <ele>43</ele>
        <time>2015-01-25T09:34:31Z</time>
      </trkpt>
      <trkpt lat="48.76285" lon="-3.28876">
        <ele>43</ele>
        <time>2015-01-25T09:34:32Z</time>
      </trkpt>
      <trkpt lat="48.76281" lon="-3.28888">
        <ele>43</ele>
        <time>2015-01-25T09:34:33Z</time>
      </trkpt>
      <trkpt lat="48.76277" lon="-3.28899">
        <ele>43</ele>
        <time>2015-01-25T09:34:34Z</time>
      </trkpt>
      <trkpt lat="48.76273" lon="-3.2891">
        <ele>43</ele>
        <time>2015-01-25T09:34:35Z</time>
      </trkpt>
      <trkpt lat="48.76268" lon="-3.28922">
        <ele>43</ele>
        <time>2015-01-25T09:34:36Z</time>
      </trkpt>
      <trkpt lat="48.76263" lon="-3.28933">
        <ele>43</ele>
        <time>2015-01-25T09:34:37Z</time>
      </trkpt>
      <trkpt lat="48.76258" lon="-3.28943">
        <ele>43</ele>
        <time>2015-01-25T09:34:38Z</time>
      </trkpt>
      <trkpt lat="48.76252" lon="-3.28954">
        <ele>43</ele>
        <time>2015-01-25T09:34:39Z</time>
      </trkpt>
      <trkpt lat="48.76247" lon="-3.28964">
        <ele>43</ele>
        <time>2015-01-25T09:34:40Z</time>
      </trkpt>
      <trkpt lat="48.76241" lon="-3.28974">
        <ele>42</ele>
        <time>2015-01-25T09:34:41Z</time>
      </trkpt>
      <trkpt lat="48.76235" lon="-3.28984">
        <ele>42</ele>
        <time>2015-01-25T09:34:42Z</time>
      </trkpt>
      <trkpt lat="48.76229" lon="-3.28994">
        <ele>42</ele>
        <time>2015-01-25T09:34:43Z</time>
      </trkpt>
      <trkpt lat="48.76223" lon="-3.29003">
        <ele>42</ele>
        <time>2015-01-25T09:34:44Z</time>
      </trkpt>
      <trkpt lat="48.76216" lon="-3.29013">
        <ele>42</ele>
        <time>2015-01-25T09:34:45Z</time>
      </trkpt>
      <trkpt lat="48.7621" lon="-3.29022">
        <ele>42</ele>
        <time>2015-01-25T09:34:46Z</time>
      </trkpt>
      <trkpt lat="48.76203" lon="-3.29032">
        <ele>42</ele>
        <time>2015-01-25T09:34:47Z</time>
      </trkpt>
      <trkpt lat="48.76196" lon="-3.29042">
        <ele>41</ele>
        <time>2015-01-25T09:34:48Z</time>
      </trkpt>
      <trkpt lat="48.76189" lon="-3.29051">
        <ele>41</ele>
        <time>2015-01-25T09:34:49Z</time>
      </trkpt>
      <trkpt lat="48.76183" lon="-3.29062">
        <ele>41</ele>
        <time>2015-01-25T09:34:50Z</time>
      </trkpt>
      <trkpt lat="48.76176" lon="-3.29072">
        <ele>41</ele>
        <time>2015-01-25T09:34:51Z</time>
      </trkpt>
      <trkpt lat="48.76168" lon="-3.29082">
        <ele>40</ele>
        <time>2015-01-25T09:34:52Z</time>
      </trkpt>
      <trkpt lat="48.76162" lon="-3.29093">
        <ele>40</ele>
        <time>2015-01-25T09:34:53Z</time>
      </trkpt>
      <trkpt lat="48.76155" lon="-3.29104">
        <ele>40</ele>
        <time>2015-01-25T09:34:54Z</time>
      </trkpt>
      <trkpt lat="48.76148" lon="-3.29116">
        <ele>39</ele>
        <time>2015-01-25T09:34:55Z</time>
      </trkpt>
      <trkpt lat="48.76142" lon="-3.29127">
        <ele>39</ele>
        <time>2015-01-25T09:34:56Z</time>
      </trkpt>
      <trkpt lat="48.76136" lon="-3.29138">
        <ele>39</ele>
        <time>2015-01-25T09:34:57Z</time>
      </trkpt>
      <trkpt lat="48.76131" lon="-3.29149">
        <ele>38</ele>
        <time>2015-01-25T09:34:58Z</time>
      </trkpt>
      <trkpt lat="48.76125" lon="-3.29161">
        <ele>38</ele>
        <time>2015-01-25T09:34:59Z</time>
      </trkpt>
      <trkpt lat="48.7612" lon="-3.29173">
        <ele>38</ele>
        <time>2015-01-25T09:35:00Z</time>
      </trkpt>
      <trkpt lat="48.76115" lon="-3.29185">
        <ele>37</ele>
        <time>2015-01-25T09:35:01Z</time>
      </trkpt>
      <trkpt lat="48.7611" lon="-3.29198">
        <ele>37</ele>
        <time>2015-01-25T09:35:02Z</time>
      </trkpt>
      <trkpt lat="48.76106" lon="-3.29211">
        <ele>36</ele>
        <time>2015-01-25T09:35:03Z</time>
      </trkpt>
      <trkpt lat="48.76102" lon="-3.29223">
        <ele>36</ele>
        <time>2015-01-25T09:35:04Z</time>
      </trkpt>
      <trkpt lat="48.76097" lon="-3.29236">
        <ele>36</ele>
        <time>2015-01-25T09:35:05Z</time>
      </trkpt>
      <trkpt lat="48.76094" lon="-3.29248">
        <ele>35</ele>
        <time>2015-01-25T09:35:06Z</time>
      </trkpt>
      <trkpt lat="48.7609" lon="-3.2926">
        <ele>35</ele>
        <time>2015-01-25T09:35:07Z</time>
      </trkpt>
      <trkpt lat="48.76086" lon="-3.29273">
        <ele>34</ele>
        <time>2015-01-25T09:35:08Z</time>
      </trkpt>
      <trkpt lat="48.76082" lon="-3.29285">
        <ele>34</ele>
        <time>2015-01-25T09:35:09Z</time>
      </trkpt>
      <trkpt lat="48.76079" lon="-3.29297">
        <ele>33</ele>
        <time>2015-01-25T09:35:10Z</time>
      </trkpt>
      <trkpt lat="48.76075" lon="-3.29308">
        <ele>32</ele>
        <time>2015-01-25T09:35:11Z</time>
      </trkpt>
      <trkpt lat="48.76071" lon="-3.29319">
        <ele>31</ele>
        <time>2015-01-25T09:35:12Z</time>
      </trkpt>
      <trkpt lat="48.76068" lon="-3.2933">
        <ele>31</ele>
        <time>2015-01-25T09:35:13Z</time>
      </trkpt>
      <trkpt lat="48.76066" lon="-3.29344">
        <ele>30</ele>
        <time>2015-01-25T09:35:14Z</time>
      </trkpt>
      <trkpt lat="48.76065" lon="-3.29358">
        <ele>29</ele>
        <time>2015-01-25T09:35:15Z</time>
      </trkpt>
      <trkpt lat="48.76066" lon="-3.29372">
        <ele>28</ele>
        <time>2015-01-25T09:35:16Z</time>
      </trkpt>
      <trkpt lat="48.76065" lon="-3.29384">
        <ele>27</ele>
        <time>2015-01-25T09:35:17Z</time>
      </trkpt>
      <trkpt lat="48.76063" lon="-3.29396">
        <ele>27</ele>
        <time>2015-01-25T09:35:18Z</time>
      </trkpt>
      <trkpt lat="48.76059" lon="-3.29407">
        <ele>26</ele>
        <time>2015-01-25T09:35:19Z</time>
      </trkpt>
      <trkpt lat="48.76054" lon="-3.29416">
        <ele>26</ele>
        <time>2015-01-25T09:35:20Z</time>
      </trkpt>
      <trkpt lat="48.76047" lon="-3.29423">
        <ele>26</ele>
        <time>2015-01-25T09:35:21Z</time>
      </trkpt>
      <trkpt lat="48.76039" lon="-3.29429">
        <ele>25</ele>
        <time>2015-01-25T09:35:22Z</time>
      </trkpt>
      <trkpt lat="48.76032" lon="-3.29435">
        <ele>25</ele>
        <time>2015-01-25T09:35:23Z</time>
      </trkpt>
      <trkpt lat="48.76025" lon="-3.29444">
        <ele>25</ele>
        <time>2015-01-25T09:35:24Z</time>
      </trkpt>
      <trkpt lat="48.7602" lon="-3.29454">
        <ele>24</ele>
        <time>2015-01-25T09:35:25Z</time>
      </trkpt>
      <trkpt lat="48.76018" lon="-3.29467">
        <ele>24</ele>
        <time>2015-01-25T09:35:26Z</time>
      </trkpt>
      <trkpt lat="48.76016" lon="-3.2948">
        <ele>24</ele>
        <time>2015-01-25T09:35:27Z</time>
      </trkpt>
      <trkpt lat="48.76014" lon="-3.29493">
        <ele>24</ele>
        <time>2015-01-25T09:35:28Z</time>
      </trkpt>
      <trkpt lat="48.76012" lon="-3.29505">
        <ele>24</ele>
        <time>2015-01-25T09:35:29Z</time>
      </trkpt>
      <trkpt lat="48.76009" lon="-3.29517">
        <ele>24</ele>
        <time>2015-01-25T09:35:30Z</time>
      </trkpt>
      <trkpt lat="48.76006" lon="-3.29529">
        <ele>24</ele>
        <time>2015-01-25T09:35:31Z</time>
      </trkpt>
      <trkpt lat="48.76002" lon="-3.29539">
        <ele>24</ele>
        <time>2015-01-25T09:35:32Z</time>
      </trkpt>
      <trkpt lat="48.75999" lon="-3.2955">
        <ele>24</ele>
        <time>2015-01-25T09:35:33Z</time>
      </trkpt>
      <trkpt lat="48.75995" lon="-3.2956">
        <ele>24</ele>
        <time>2015-01-25T09:35:34Z</time>
      </trkpt>
      <trkpt lat="48.75992" lon="-3.2957">
        <ele>24</ele>
        <time>2015-01-25T09:35:35Z</time>
      </trkpt>
      <trkpt lat="48.75988" lon="-3.2958">
        <ele>24</ele>
        <time>2015-01-25T09:35:36Z</time>
      </trkpt>
      <trkpt lat="48.75985" lon="-3.29591">
        <ele>24</ele>
        <time>2015-01-25T09:35:37Z</time>
      </trkpt>
      <trkpt lat="48.75982" lon="-3.29601">
        <ele>24</ele>
        <time>2015-01-25T09:35:38Z</time>
      </trkpt>
      <trkpt lat="48.75978" lon="-3.29611">
        <ele>24</ele>
        <time>2015-01-25T09:35:39Z</time>
      </trkpt>
      <trkpt lat="48.75975" lon="-3.29621">
        <ele>24</ele>
        <time>2015-01-25T09:35:40Z</time>
      </trkpt>
      <trkpt lat="48.75972" lon="-3.29632">
        <ele>24</ele>
        <time>2015-01-25T09:35:41Z</time>
      </trkpt>
      <trkpt lat="48.75968" lon="-3.29642">
        <ele>24</ele>
        <time>2015-01-25T09:35:42Z</time>
      </trkpt>
      <trkpt lat="48.75965" lon="-3.29653">
        <ele>24</ele>
        <time>2015-01-25T09:35:43Z</time>
      </trkpt>
      <trkpt lat="48.75962" lon="-3.29663">
        <ele>24</ele>
        <time>2015-01-25T09:35:44Z</time>
      </trkpt>
      <trkpt lat="48.75958" lon="-3.29673">
        <ele>24</ele>
        <time>2015-01-25T09:35:45Z</time>
      </trkpt>
      <trkpt lat="48.75955" lon="-3.29683">
        <ele>24</ele>
        <time>2015-01-25T09:35:46Z</time>
      </trkpt>
      <trkpt lat="48.75952" lon="-3.29693">
        <ele>24</ele>
        <time>2015-01-25T09:35:47Z</time>
      </trkpt>
      <trkpt lat="48.75948" lon="-3.29703">
        <ele>24</ele>
        <time>2015-01-25T09:35:48Z</time>
      </trkpt>
      <trkpt lat="48.75945" lon="-3.29713">
        <ele>24</ele>
        <time>2015-01-25T09:35:49Z</time>
      </trkpt>
      <trkpt lat="48.75942" lon="-3.29722">
        <ele>24</ele>
        <time>2015-01-25T09:35:50Z</time>
      </trkpt>
      <trkpt lat="48.75939" lon="-3.29731">
        <ele>24</ele>
        <time>2015-01-25T09:35:51Z</time>
      </trkpt>
      <trkpt lat="48.75936" lon="-3.2974">
        <ele>24</ele>
        <time>2015-01-25T09:35:52Z</time>
      </trkpt>
      <trkpt lat="48.75933" lon="-3.29749">
        <ele>24</ele>
        <time>2015-01-25T09:35:53Z</time>
      </trkpt>
      <trkpt lat="48.7593" lon="-3.29758">
        <ele>24</ele>
        <time>2015-01-25T09:35:54Z</time>
      </trkpt>
      <trkpt lat="48.75927" lon="-3.29767">
        <ele>25</ele>
        <time>2015-01-25T09:35:55Z</time>
      </trkpt>
      <trkpt lat="48.75925" lon="-3.29776">
        <ele>25</ele>
        <time>2015-01-25T09:35:56Z</time>
      </trkpt>
      <trkpt lat="48.75922" lon="-3.29785">
        <ele>25</ele>
        <time>2015-01-25T09:35:57Z</time>
      </trkpt>
      <trkpt lat="48.75919" lon="-3.29794">
        <ele>25</ele>
        <time>2015-01-25T09:35:58Z</time>
      </trkpt>
      <trkpt lat="48.75916" lon="-3.29803">
        <ele>25</ele>
        <time>2015-01-25T09:35:59Z</time>
      </trkpt>
      <trkpt lat="48.75912" lon="-3.29813">
        <ele>26</ele>
        <time>2015-01-25T09:36:00Z</time>
      </trkpt>
      <trkpt lat="48.75909" lon="-3.29822">
        <ele>26</ele>
        <time>2015-01-25T09:36:01Z</time>
      </trkpt>
      <trkpt lat="48.75906" lon="-3.29831">
        <ele>26</ele>
        <time>2015-01-25T09:36:02Z</time>
      </trkpt>
      <trkpt lat="48.75903" lon="-3.2984">
        <ele>26</ele>
        <time>2015-01-25T09:36:03Z</time>
      </trkpt>
      <trkpt lat="48.759" lon="-3.2985">
        <ele>26</ele>
        <time>2015-01-25T09:36:04Z</time>
      </trkpt>
      <trkpt lat="48.75897" lon="-3.29859">
        <ele>26</ele>
        <time>2015-01-25T09:36:05Z</time>
      </trkpt>
      <trkpt lat="48.75894" lon="-3.29869">
        <ele>26</ele>
        <time>2015-01-25T09:36:06Z</time>
      </trkpt>
      <trkpt lat="48.75891" lon="-3.29878">
        <ele>27</ele>
        <time>2015-01-25T09:36:07Z</time>
      </trkpt>
      <trkpt lat="48.75888" lon="-3.29887">
        <ele>27</ele>
        <time>2015-01-25T09:36:08Z</time>
      </trkpt>
      <trkpt lat="48.75885" lon="-3.29896">
        <ele>27</ele>
        <time>2015-01-25T09:36:09Z</time>
      </trkpt>
      <trkpt lat="48.75882" lon="-3.29905">
        <ele>27</ele>
        <time>2015-01-25T09:36:10Z</time>
      </trkpt>
      <trkpt lat="48.75879" lon="-3.29914">
        <ele>27</ele>
        <time>2015-01-25T09:36:11Z</time>
      </trkpt>
      <trkpt lat="48.75876" lon="-3.29923">
        <ele>27</ele>
        <time>2015-01-25T09:36:12Z</time>
      </trkpt>
      <trkpt lat="48.75873" lon="-3.29933">
        <ele>27</ele>
        <time>2015-01-25T09:36:13Z</time>
      </trkpt>
      <trkpt lat="48.7587" lon="-3.29942">
        <ele>27</ele>
        <time>2015-01-25T09:36:14Z</time>
      </trkpt>
      <trkpt lat="48.75867" lon="-3.29951">
        <ele>27</ele>
        <time>2015-01-25T09:36:15Z</time>
      </trkpt>
      <trkpt lat="48.75864" lon="-3.2996">
        <ele>27</ele>
        <time>2015-01-25T09:36:16Z</time>
      </trkpt>
      <trkpt lat="48.75861" lon="-3.2997">
        <ele>28</ele>
        <time>2015-01-25T09:36:17Z</time>
      </trkpt>
      <trkpt lat="48.75857" lon="-3.2998">
        <ele>28</ele>
        <time>2015-01-25T09:36:18Z</time>
      </trkpt>
      <trkpt lat="48.75854" lon="-3.2999">
        <ele>28</ele>
        <time>2015-01-25T09:36:19Z</time>
      </trkpt>
      <trkpt lat="48.75851" lon="-3.29999">
        <ele>28</ele>
        <time>2015-01-25T09:36:20Z</time>
      </trkpt>
      <trkpt lat="48.75848" lon="-3.30009">
        <ele>28</ele>
        <time>2015-01-25T09:36:21Z</time>
      </trkpt>
      <trkpt lat="48.75844" lon="-3.30019">
        <ele>28</ele>
        <time>2015-01-25T09:36:22Z</time>
      </trkpt>
      <trkpt lat="48.75841" lon="-3.30029">
        <ele>28</ele>
        <time>2015-01-25T09:36:23Z</time>
      </trkpt>
      <trkpt lat="48.75838" lon="-3.30039">
        <ele>28</ele>
        <time>2015-01-25T09:36:24Z</time>
      </trkpt>
      <trkpt lat="48.75835" lon="-3.30049">
        <ele>28</ele>
        <time>2015-01-25T09:36:25Z</time>
      </trkpt>
      <trkpt lat="48.75832" lon="-3.30059">
        <ele>28</ele>
        <time>2015-01-25T09:36:26Z</time>
      </trkpt>
      <trkpt lat="48.75828" lon="-3.30068">
        <ele>28</ele>
        <time>2015-01-25T09:36:27Z</time>
      </trkpt>
      <trkpt lat="48.75825" lon="-3.30078">
        <ele>28</ele>
        <time>2015-01-25T09:36:28Z</time>
      </trkpt>
      <trkpt lat="48.75822" lon="-3.30088">
        <ele>28</ele>
        <time>2015-01-25T09:36:29Z</time>
      </trkpt>
      <trkpt lat="48.75819" lon="-3.30098">
        <ele>28</ele>
        <time>2015-01-25T09:36:30Z</time>
      </trkpt>
      <trkpt lat="48.75816" lon="-3.30108">
        <ele>28</ele>
        <time>2015-01-25T09:36:31Z</time>
      </trkpt>
      <trkpt lat="48.75812" lon="-3.30118">
        <ele>28</ele>
        <time>2015-01-25T09:36:32Z</time>
      </trkpt>
      <trkpt lat="48.75809" lon="-3.30128">
        <ele>28</ele>
        <time>2015-01-25T09:36:33Z</time>
      </trkpt>
      <trkpt lat="48.75806" lon="-3.30138">
        <ele>28</ele>
        <time>2015-01-25T09:36:34Z</time>
      </trkpt>
      <trkpt lat="48.75803" lon="-3.30148">
        <ele>28</ele>
        <time>2015-01-25T09:36:35Z</time>
      </trkpt>
      <trkpt lat="48.75799" lon="-3.30159">
        <ele>28</ele>
        <time>2015-01-25T09:36:36Z</time>
      </trkpt>
      <trkpt lat="48.75796" lon="-3.30169">
        <ele>28</ele>
        <time>2015-01-25T09:36:37Z</time>
      </trkpt>
      <trkpt lat="48.75793" lon="-3.30179">
        <ele>28</ele>
        <time>2015-01-25T09:36:38Z</time>
      </trkpt>
      <trkpt lat="48.7579" lon="-3.30189">
        <ele>28</ele>
        <time>2015-01-25T09:36:39Z</time>
      </trkpt>
      <trkpt lat="48.75787" lon="-3.302">
        <ele>28</ele>
        <time>2015-01-25T09:36:40Z</time>
      </trkpt>
      <trkpt lat="48.75783" lon="-3.3021">
        <ele>28</ele>
        <time>2015-01-25T09:36:41Z</time>
      </trkpt>
      <trkpt lat="48.7578" lon="-3.30221">
        <ele>28</ele>
        <time>2015-01-25T09:36:42Z</time>
      </trkpt>
      <trkpt lat="48.75777" lon="-3.30232">
        <ele>28</ele>
        <time>2015-01-25T09:36:43Z</time>
      </trkpt>
      <trkpt lat="48.75774" lon="-3.30243">
        <ele>28</ele>
        <time>2015-01-25T09:36:44Z</time>
      </trkpt>
      <trkpt lat="48.75771" lon="-3.30254">
        <ele>28</ele>
        <time>2015-01-25T09:36:45Z</time>
      </trkpt>
      <trkpt lat="48.75767" lon="-3.30264">
        <ele>28</ele>
        <time>2015-01-25T09:36:46Z</time>
      </trkpt>
      <trkpt lat="48.75764" lon="-3.30275">
        <ele>28</ele>
        <time>2015-01-25T09:36:47Z</time>
      </trkpt>
      <trkpt lat="48.75761" lon="-3.30286">
        <ele>28</ele>
        <time>2015-01-25T09:36:48Z</time>
      </trkpt>
      <trkpt lat="48.75757" lon="-3.30297">
        <ele>28</ele>
        <time>2015-01-25T09:36:49Z</time>
      </trkpt>
      <trkpt lat="48.75754" lon="-3.30308">
        <ele>28</ele>
        <time>2015-01-25T09:36:50Z</time>
      </trkpt>
      <trkpt lat="48.75751" lon="-3.30319">
        <ele>28</ele>
        <time>2015-01-25T09:36:51Z</time>
      </trkpt>
      <trkpt lat="48.75748" lon="-3.30329">
        <ele>28</ele>
        <time>2015-01-25T09:36:52Z</time>
      </trkpt>
      <trkpt lat="48.75745" lon="-3.3034">
        <ele>28</ele>
        <time>2015-01-25T09:36:53Z</time>
      </trkpt>
      <trkpt lat="48.75741" lon="-3.3035">
        <ele>28</ele>
        <time>2015-01-25T09:36:54Z</time>
      </trkpt>
      <trkpt lat="48.75738" lon="-3.30361">
        <ele>28</ele>
        <time>2015-01-25T09:36:55Z</time>
      </trkpt>
      <trkpt lat="48.75735" lon="-3.30372">
        <ele>28</ele>
        <time>2015-01-25T09:36:56Z</time>
      </trkpt>
      <trkpt lat="48.75732" lon="-3.30382">
        <ele>28</ele>
        <time>2015-01-25T09:36:57Z</time>
      </trkpt>
      <trkpt lat="48.75729" lon="-3.30393">
        <ele>28</ele>
        <time>2015-01-25T09:36:58Z</time>
      </trkpt>
      <trkpt lat="48.75726" lon="-3.30404">
        <ele>28</ele>
        <time>2015-01-25T09:36:59Z</time>
      </trkpt>
      <trkpt lat="48.75722" lon="-3.30415">
        <ele>28</ele>
        <time>2015-01-25T09:37:00Z</time>
      </trkpt>
      <trkpt lat="48.75719" lon="-3.30425">
        <ele>28</ele>
        <time>2015-01-25T09:37:01Z</time>
      </trkpt>
      <trkpt lat="48.75716" lon="-3.30436">
        <ele>28</ele>
        <time>2015-01-25T09:37:02Z</time>
      </trkpt>
      <trkpt lat="48.75712" lon="-3.30447">
        <ele>28</ele>
        <time>2015-01-25T09:37:03Z</time>
      </trkpt>
      <trkpt lat="48.75709" lon="-3.30458">
        <ele>28</ele>
        <time>2015-01-25T09:37:04Z</time>
      </trkpt>
      <trkpt lat="48.75706" lon="-3.30469">
        <ele>28</ele>
        <time>2015-01-25T09:37:05Z</time>
      </trkpt>
      <trkpt lat="48.75703" lon="-3.3048">
        <ele>28</ele>
        <time>2015-01-25T09:37:06Z</time>
      </trkpt>
      <trkpt lat="48.757" lon="-3.30491">
        <ele>28</ele>
        <time>2015-01-25T09:37:07Z</time>
      </trkpt>
      <trkpt lat="48.75696" lon="-3.30502">
        <ele>28</ele>
        <time>2015-01-25T09:37:08Z</time>
      </trkpt>
      <trkpt lat="48.75693" lon="-3.30513">
        <ele>28</ele>
        <time>2015-01-25T09:37:09Z</time>
      </trkpt>
      <trkpt lat="48.7569" lon="-3.30524">
        <ele>28</ele>
        <time>2015-01-25T09:37:10Z</time>
      </trkpt>
      <trkpt lat="48.75687" lon="-3.30535">
        <ele>28</ele>
        <time>2015-01-25T09:37:11Z</time>
      </trkpt>
      <trkpt lat="48.75683" lon="-3.30546">
        <ele>28</ele>
        <time>2015-01-25T09:37:12Z</time>
      </trkpt>
      <trkpt lat="48.7568" lon="-3.30557">
        <ele>28</ele>
        <time>2015-01-25T09:37:13Z</time>
      </trkpt>
      <trkpt lat="48.75677" lon="-3.30568">
        <ele>28</ele>
        <time>2015-01-25T09:37:14Z</time>
      </trkpt>
      <trkpt lat="48.75674" lon="-3.30578">
        <ele>28</ele>
        <time>2015-01-25T09:37:15Z</time>
      </trkpt>
      <trkpt lat="48.7567" lon="-3.30589">
        <ele>28</ele>
        <time>2015-01-25T09:37:16Z</time>
      </trkpt>
      <trkpt lat="48.75667" lon="-3.306">
        <ele>28</ele>
        <time>2015-01-25T09:37:17Z</time>
      </trkpt>
      <trkpt lat="48.75664" lon="-3.3061">
        <ele>28</ele>
        <time>2015-01-25T09:37:18Z</time>
      </trkpt>
      <trkpt lat="48.75661" lon="-3.30621">
        <ele>28</ele>
        <time>2015-01-25T09:37:19Z</time>
      </trkpt>
      <trkpt lat="48.75658" lon="-3.30632">
        <ele>28</ele>
        <time>2015-01-25T09:37:20Z</time>
      </trkpt>
      <trkpt lat="48.75654" lon="-3.30643">
        <ele>28</ele>
        <time>2015-01-25T09:37:21Z</time>
      </trkpt>
      <trkpt lat="48.75651" lon="-3.30654">
        <ele>28</ele>
        <time>2015-01-25T09:37:22Z</time>
      </trkpt>
      <trkpt lat="48.75648" lon="-3.30664">
        <ele>28</ele>
        <time>2015-01-25T09:37:23Z</time>
      </trkpt>
      <trkpt lat="48.75645" lon="-3.30675">
        <ele>28</ele>
        <time>2015-01-25T09:37:24Z</time>
      </trkpt>
      <trkpt lat="48.75641" lon="-3.30686">
        <ele>28</ele>
        <time>2015-01-25T09:37:25Z</time>
      </trkpt>
      <trkpt lat="48.75638" lon="-3.30697">
        <ele>28</ele>
        <time>2015-01-25T09:37:26Z</time>
      </trkpt>
      <trkpt lat="48.75635" lon="-3.30709">
        <ele>28</ele>
        <time>2015-01-25T09:37:27Z</time>
      </trkpt>
      <trkpt lat="48.75631" lon="-3.3072">
        <ele>28</ele>
        <time>2015-01-25T09:37:28Z</time>
      </trkpt>
      <trkpt lat="48.75628" lon="-3.30731">
        <ele>28</ele>
        <time>2015-01-25T09:37:29Z</time>
      </trkpt>
      <trkpt lat="48.75625" lon="-3.30742">
        <ele>28</ele>
        <time>2015-01-25T09:37:30Z</time>
      </trkpt>
      <trkpt lat="48.75621" lon="-3.30752">
        <ele>28</ele>
        <time>2015-01-25T09:37:31Z</time>
      </trkpt>
      <trkpt lat="48.75618" lon="-3.30763">
        <ele>28</ele>
        <time>2015-01-25T09:37:32Z</time>
      </trkpt>
      <trkpt lat="48.75615" lon="-3.30774">
        <ele>28</ele>
        <time>2015-01-25T09:37:33Z</time>
      </trkpt>
      <trkpt lat="48.75612" lon="-3.30785">
        <ele>28</ele>
        <time>2015-01-25T09:37:34Z</time>
      </trkpt>
      <trkpt lat="48.75608" lon="-3.30796">
        <ele>28</ele>
        <time>2015-01-25T09:37:35Z</time>
      </trkpt>
      <trkpt lat="48.75605" lon="-3.30806">
        <ele>28</ele>
        <time>2015-01-25T09:37:36Z</time>
      </trkpt>
      <trkpt lat="48.75602" lon="-3.30817">
        <ele>28</ele>
        <time>2015-01-25T09:37:37Z</time>
      </trkpt>
      <trkpt lat="48.75599" lon="-3.30828">
        <ele>28</ele>
        <time>2015-01-25T09:37:38Z</time>
      </trkpt>
      <trkpt lat="48.75596" lon="-3.30839">
        <ele>28</ele>
        <time>2015-01-25T09:37:39Z</time>
      </trkpt>
      <trkpt lat="48.75593" lon="-3.3085">
        <ele>28</ele>
        <time>2015-01-25T09:37:40Z</time>
      </trkpt>
      <trkpt lat="48.75589" lon="-3.3086">
        <ele>28</ele>
        <time>2015-01-25T09:37:41Z</time>
      </trkpt>
      <trkpt lat="48.75586" lon="-3.30871">
        <ele>28</ele>
        <time>2015-01-25T09:37:42Z</time>
      </trkpt>
      <trkpt lat="48.75583" lon="-3.30882">
        <ele>28</ele>
        <time>2015-01-25T09:37:43Z</time>
      </trkpt>
      <trkpt lat="48.7558" lon="-3.30893">
        <ele>28</ele>
        <time>2015-01-25T09:37:44Z</time>
      </trkpt>
      <trkpt lat="48.75577" lon="-3.30903">
        <ele>28</ele>
        <time>2015-01-25T09:37:45Z</time>
      </trkpt>
      <trkpt lat="48.75573" lon="-3.30914">
        <ele>28</ele>
        <time>2015-01-25T09:37:46Z</time>
      </trkpt>
      <trkpt lat="48.7557" lon="-3.30925">
        <ele>28</ele>
        <time>2015-01-25T09:37:47Z</time>
      </trkpt>
      <trkpt lat="48.75567" lon="-3.30935">
        <ele>28</ele>
        <time>2015-01-25T09:37:48Z</time>
      </trkpt>
      <trkpt lat="48.75564" lon="-3.30945">
        <ele>28</ele>
        <time>2015-01-25T09:37:49Z</time>
      </trkpt>
      <trkpt lat="48.75561" lon="-3.30956">
        <ele>28</ele>
        <time>2015-01-25T09:37:50Z</time>
      </trkpt>
      <trkpt lat="48.75558" lon="-3.30966">
        <ele>28</ele>
        <time>2015-01-25T09:37:51Z</time>
      </trkpt>
      <trkpt lat="48.75555" lon="-3.30976">
        <ele>28</ele>
        <time>2015-01-25T09:37:52Z</time>
      </trkpt>
      <trkpt lat="48.75552" lon="-3.30987">
        <ele>28</ele>
        <time>2015-01-25T09:37:53Z</time>
      </trkpt>
      <trkpt lat="48.75549" lon="-3.30997">
        <ele>28</ele>
        <time>2015-01-25T09:37:54Z</time>
      </trkpt>
      <trkpt lat="48.75546" lon="-3.31007">
        <ele>28</ele>
        <time>2015-01-25T09:37:55Z</time>
      </trkpt>
      <trkpt lat="48.75543" lon="-3.31018">
        <ele>28</ele>
        <time>2015-01-25T09:37:56Z</time>
      </trkpt>
      <trkpt lat="48.7554" lon="-3.31028">
        <ele>28</ele>
        <time>2015-01-25T09:37:57Z</time>
      </trkpt>
      <trkpt lat="48.75537" lon="-3.31038">
        <ele>28</ele>
        <time>2015-01-25T09:37:58Z</time>
      </trkpt>
      <trkpt lat="48.75534" lon="-3.31048">
        <ele>28</ele>
        <time>2015-01-25T09:37:59Z</time>
      </trkpt>
      <trkpt lat="48.75531" lon="-3.31058">
        <ele>28</ele>
        <time>2015-01-25T09:38:00Z</time>
      </trkpt>
      <trkpt lat="48.75528" lon="-3.31068">
        <ele>28</ele>
        <time>2015-01-25T09:38:01Z</time>
      </trkpt>
      <trkpt lat="48.75525" lon="-3.31078">
        <ele>28</ele>
        <time>2015-01-25T09:38:02Z</time>
      </trkpt>
      <trkpt lat="48.75522" lon="-3.31087">
        <ele>28</ele>
        <time>2015-01-25T09:38:03Z</time>
      </trkpt>
      <trkpt lat="48.75519" lon="-3.31097">
        <ele>28</ele>
        <time>2015-01-25T09:38:04Z</time>
      </trkpt>
      <trkpt lat="48.75517" lon="-3.31107">
        <ele>28</ele>
        <time>2015-01-25T09:38:05Z</time>
      </trkpt>
      <trkpt lat="48.75513" lon="-3.31117">
        <ele>28</ele>
        <time>2015-01-25T09:38:06Z</time>
      </trkpt>
      <trkpt lat="48.75511" lon="-3.31126">
        <ele>28</ele>
        <time>2015-01-25T09:38:07Z</time>
      </trkpt>
      <trkpt lat="48.75508" lon="-3.31136">
        <ele>28</ele>
        <time>2015-01-25T09:38:08Z</time>
      </trkpt>
      <trkpt lat="48.75505" lon="-3.31146">
        <ele>28</ele>
        <time>2015-01-25T09:38:09Z</time>
      </trkpt>
      <trkpt lat="48.75502" lon="-3.31156">
        <ele>28</ele>
        <time>2015-01-25T09:38:10Z</time>
      </trkpt>
      <trkpt lat="48.75499" lon="-3.31166">
        <ele>28</ele>
        <time>2015-01-25T09:38:11Z</time>
      </trkpt>
      <trkpt lat="48.75496" lon="-3.31176">
        <ele>28</ele>
        <time>2015-01-25T09:38:12Z</time>
      </trkpt>
      <trkpt lat="48.75493" lon="-3.31186">
        <ele>28</ele>
        <time>2015-01-25T09:38:13Z</time>
      </trkpt>
      <trkpt lat="48.7549" lon="-3.31195">
        <ele>28</ele>
        <time>2015-01-25T09:38:14Z</time>
      </trkpt>
      <trkpt lat="48.75487" lon="-3.31205">
        <ele>28</ele>
        <time>2015-01-25T09:38:15Z</time>
      </trkpt>
      <trkpt lat="48.75484" lon="-3.31215">
        <ele>28</ele>
        <time>2015-01-25T09:38:16Z</time>
      </trkpt>
      <trkpt lat="48.75482" lon="-3.31224">
        <ele>28</ele>
        <time>2015-01-25T09:38:17Z</time>
      </trkpt>
      <trkpt lat="48.75479" lon="-3.31234">
        <ele>28</ele>
        <time>2015-01-25T09:38:18Z</time>
      </trkpt>
      <trkpt lat="48.75476" lon="-3.31243">
        <ele>28</ele>
        <time>2015-01-25T09:38:19Z</time>
      </trkpt>
      <trkpt lat="48.75474" lon="-3.31253">
        <ele>28</ele>
        <time>2015-01-25T09:38:20Z</time>
      </trkpt>
      <trkpt lat="48.75471" lon="-3.31262">
        <ele>29</ele>
        <time>2015-01-25T09:38:21Z</time>
      </trkpt>
      <trkpt lat="48.75469" lon="-3.31271">
        <ele>29</ele>
        <time>2015-01-25T09:38:22Z</time>
      </trkpt>
      <trkpt lat="48.75467" lon="-3.3128">
        <ele>29</ele>
        <time>2015-01-25T09:38:23Z</time>
      </trkpt>
      <trkpt lat="48.75465" lon="-3.3129">
        <ele>30</ele>
        <time>2015-01-25T09:38:24Z</time>
      </trkpt>
      <trkpt lat="48.75462" lon="-3.313">
        <ele>30</ele>
        <time>2015-01-25T09:38:25Z</time>
      </trkpt>
      <trkpt lat="48.75461" lon="-3.31309">
        <ele>30</ele>
        <time>2015-01-25T09:38:26Z</time>
      </trkpt>
      <trkpt lat="48.75459" lon="-3.31318">
        <ele>30</ele>
        <time>2015-01-25T09:38:27Z</time>
      </trkpt>
      <trkpt lat="48.75457" lon="-3.31327">
        <ele>31</ele>
        <time>2015-01-25T09:38:28Z</time>
      </trkpt>
      <trkpt lat="48.75456" lon="-3.31335">
        <ele>31</ele>
        <time>2015-01-25T09:38:29Z</time>
      </trkpt>
      <trkpt lat="48.75454" lon="-3.31344">
        <ele>31</ele>
        <time>2015-01-25T09:38:30Z</time>
      </trkpt>
      <trkpt lat="48.75453" lon="-3.31353">
        <ele>31</ele>
        <time>2015-01-25T09:38:31Z</time>
      </trkpt>
      <trkpt lat="48.75452" lon="-3.31361">
        <ele>32</ele>
        <time>2015-01-25T09:38:32Z</time>
      </trkpt>
      <trkpt lat="48.7545" lon="-3.3137">
        <ele>32</ele>
        <time>2015-01-25T09:38:33Z</time>
      </trkpt>
      <trkpt lat="48.75449" lon="-3.31379">
        <ele>32</ele>
        <time>2015-01-25T09:38:34Z</time>
      </trkpt>
      <trkpt lat="48.75448" lon="-3.31388">
        <ele>32</ele>
        <time>2015-01-25T09:38:35Z</time>
      </trkpt>
      <trkpt lat="48.75447" lon="-3.31397">
        <ele>33</ele>
        <time>2015-01-25T09:38:36Z</time>
      </trkpt>
      <trkpt lat="48.75446" lon="-3.31405">
        <ele>33</ele>
        <time>2015-01-25T09:38:37Z</time>
      </trkpt>
      <trkpt lat="48.75446" lon="-3.31414">
        <ele>33</ele>
        <time>2015-01-25T09:38:38Z</time>
      </trkpt>
      <trkpt lat="48.75445" lon="-3.31423">
        <ele>33</ele>
        <time>2015-01-25T09:38:39Z</time>
      </trkpt>
      <trkpt lat="48.75444" lon="-3.31432">
        <ele>34</ele>
        <time>2015-01-25T09:38:40Z</time>
      </trkpt>
      <trkpt lat="48.75444" lon="-3.31441">
        <ele>34</ele>
        <time>2015-01-25T09:38:41Z</time>
      </trkpt>
      <trkpt lat="48.75443" lon="-3.3145">
        <ele>34</ele>
        <time>2015-01-25T09:38:42Z</time>
      </trkpt>
      <trkpt lat="48.75443" lon="-3.31477">
        <ele>34</ele>
        <time>2015-01-25T09:38:45Z</time>
      </trkpt>
      <trkpt lat="48.75442" lon="-3.31486">
        <ele>35</ele>
        <time>2015-01-25T09:38:46Z</time>
      </trkpt>
      <trkpt lat="48.75443" lon="-3.31565">
        <ele>35</ele>
        <time>2015-01-25T09:38:54Z</time>
      </trkpt>
      <trkpt lat="48.75442" lon="-3.31636">
        <ele>35</ele>
        <time>2015-01-25T09:39:01Z</time>
      </trkpt>
      <trkpt lat="48.75443" lon="-3.31715">
        <ele>35</ele>
        <time>2015-01-25T09:39:08Z</time>
      </trkpt>
      <trkpt lat="48.75442" lon="-3.31727">
        <ele>35</ele>
        <time>2015-01-25T09:39:09Z</time>
      </trkpt>
      <trkpt lat="48.75442" lon="-3.31762">
        <ele>35</ele>
        <time>2015-01-25T09:39:12Z</time>
      </trkpt>
      <trkpt lat="48.75442" lon="-3.31785">
        <ele>35</ele>
        <time>2015-01-25T09:39:14Z</time>
      </trkpt>
      <trkpt lat="48.75442" lon="-3.31868">
        <ele>35</ele>
        <time>2015-01-25T09:39:21Z</time>
      </trkpt>
      <trkpt lat="48.75442" lon="-3.3188">
        <ele>35</ele>
        <time>2015-01-25T09:39:22Z</time>
      </trkpt>
      <trkpt lat="48.75442" lon="-3.31925">
        <ele>35</ele>
        <time>2015-01-25T09:39:26Z</time>
      </trkpt>
      <trkpt lat="48.75441" lon="-3.32103">
        <ele>35</ele>
        <time>2015-01-25T09:39:42Z</time>
      </trkpt>
      <trkpt lat="48.75441" lon="-3.32266">
        <ele>35</ele>
        <time>2015-01-25T09:39:57Z</time>
      </trkpt>
      <trkpt lat="48.75441" lon="-3.32323">
        <ele>35</ele>
        <time>2015-01-25T09:40:02Z</time>
      </trkpt>
      <trkpt lat="48.7544" lon="-3.32344">
        <ele>35</ele>
        <time>2015-01-25T09:40:04Z</time>
      </trkpt>
      <trkpt lat="48.7544" lon="-3.32365">
        <ele>35</ele>
        <time>2015-01-25T09:40:06Z</time>
      </trkpt>
      <trkpt lat="48.75439" lon="-3.32385">
        <ele>35</ele>
        <time>2015-01-25T09:40:08Z</time>
      </trkpt>
      <trkpt lat="48.75439" lon="-3.32395">
        <ele>35</ele>
        <time>2015-01-25T09:40:09Z</time>
      </trkpt>
      <trkpt lat="48.75439" lon="-3.32405">
        <ele>35</ele>
        <time>2015-01-25T09:40:10Z</time>
      </trkpt>
      <trkpt lat="48.75438" lon="-3.32424">
        <ele>35</ele>
        <time>2015-01-25T09:40:12Z</time>
      </trkpt>
      <trkpt lat="48.75438" lon="-3.32433">
        <ele>35</ele>
        <time>2015-01-25T09:40:13Z</time>
      </trkpt>
      <trkpt lat="48.75437" lon="-3.32442">
        <ele>35</ele>
        <time>2015-01-25T09:40:14Z</time>
      </trkpt>
      <trkpt lat="48.75437" lon="-3.32451">
        <ele>35</ele>
        <time>2015-01-25T09:40:15Z</time>
      </trkpt>
      <trkpt lat="48.75436" lon="-3.32459">
        <ele>35</ele>
        <time>2015-01-25T09:40:16Z</time>
      </trkpt>
      <trkpt lat="48.75438" lon="-3.32467">
        <ele>35</ele>
        <time>2015-01-25T09:40:17Z</time>
      </trkpt>
      <trkpt lat="48.75441" lon="-3.32474">
        <ele>35</ele>
        <time>2015-01-25T09:40:18Z</time>
      </trkpt>
      <trkpt lat="48.75445" lon="-3.32479">
        <ele>35</ele>
        <time>2015-01-25T09:40:19Z</time>
      </trkpt>
      <trkpt lat="48.7545" lon="-3.32483">
        <ele>35</ele>
        <time>2015-01-25T09:40:20Z</time>
      </trkpt>
      <trkpt lat="48.75456" lon="-3.32485">
        <ele>35</ele>
        <time>2015-01-25T09:40:21Z</time>
      </trkpt>
      <trkpt lat="48.75462" lon="-3.32485">
        <ele>35</ele>
        <time>2015-01-25T09:40:22Z</time>
      </trkpt>
      <trkpt lat="48.75468" lon="-3.32485">
        <ele>35</ele>
        <time>2015-01-25T09:40:23Z</time>
      </trkpt>
      <trkpt lat="48.75474" lon="-3.32485">
        <ele>35</ele>
        <time>2015-01-25T09:40:24Z</time>
      </trkpt>
      <trkpt lat="48.7548" lon="-3.32484">
        <ele>35</ele>
        <time>2015-01-25T09:40:25Z</time>
      </trkpt>
      <trkpt lat="48.75486" lon="-3.32484">
        <ele>35</ele>
        <time>2015-01-25T09:40:26Z</time>
      </trkpt>
      <trkpt lat="48.75491" lon="-3.32484">
        <ele>35</ele>
        <time>2015-01-25T09:40:27Z</time>
      </trkpt>
      <trkpt lat="48.75496" lon="-3.32484">
        <ele>35</ele>
        <time>2015-01-25T09:40:28Z</time>
      </trkpt>
      <trkpt lat="48.75502" lon="-3.32483">
        <ele>35</ele>
        <time>2015-01-25T09:40:29Z</time>
      </trkpt>
      <trkpt lat="48.75512" lon="-3.32483">
        <ele>35</ele>
        <time>2015-01-25T09:40:31Z</time>
      </trkpt>
      <trkpt lat="48.75528" lon="-3.32483">
        <ele>36</ele>
        <time>2015-01-25T09:40:34Z</time>
      </trkpt>
      <trkpt lat="48.75534" lon="-3.32484">
        <ele>37</ele>
        <time>2015-01-25T09:40:35Z</time>
      </trkpt>
      <trkpt lat="48.75539" lon="-3.32484">
        <ele>37</ele>
        <time>2015-01-25T09:40:36Z</time>
      </trkpt>
      <trkpt lat="48.75544" lon="-3.32485">
        <ele>37</ele>
        <time>2015-01-25T09:40:37Z</time>
      </trkpt>
      <trkpt lat="48.75549" lon="-3.32486">
        <ele>38</ele>
        <time>2015-01-25T09:40:38Z</time>
      </trkpt>
      <trkpt lat="48.75554" lon="-3.32488">
        <ele>38</ele>
        <time>2015-01-25T09:40:39Z</time>
      </trkpt>
      <trkpt lat="48.75559" lon="-3.3249">
        <ele>39</ele>
        <time>2015-01-25T09:40:40Z</time>
      </trkpt>
      <trkpt lat="48.75564" lon="-3.32492">
        <ele>39</ele>
        <time>2015-01-25T09:40:41Z</time>
      </trkpt>
      <trkpt lat="48.7557" lon="-3.32494">
        <ele>39</ele>
        <time>2015-01-25T09:40:42Z</time>
      </trkpt>
      <trkpt lat="48.75575" lon="-3.32496">
        <ele>39</ele>
        <time>2015-01-25T09:40:43Z</time>
      </trkpt>
      <trkpt lat="48.7558" lon="-3.32499">
        <ele>40</ele>
        <time>2015-01-25T09:40:44Z</time>
      </trkpt>
      <trkpt lat="48.75585" lon="-3.32502">
        <ele>40</ele>
        <time>2015-01-25T09:40:45Z</time>
      </trkpt>
      <trkpt lat="48.7559" lon="-3.32505">
        <ele>40</ele>
        <time>2015-01-25T09:40:46Z</time>
      </trkpt>
      <trkpt lat="48.75595" lon="-3.32508">
        <ele>40</ele>
        <time>2015-01-25T09:40:47Z</time>
      </trkpt>
      <trkpt lat="48.756" lon="-3.32511">
        <ele>40</ele>
        <time>2015-01-25T09:40:48Z</time>
      </trkpt>
      <trkpt lat="48.75605" lon="-3.32514">
        <ele>41</ele>
        <time>2015-01-25T09:40:49Z</time>
      </trkpt>
      <trkpt lat="48.7561" lon="-3.32518">
        <ele>41</ele>
        <time>2015-01-25T09:40:50Z</time>
      </trkpt>
      <trkpt lat="48.75615" lon="-3.32522">
        <ele>41</ele>
        <time>2015-01-25T09:40:51Z</time>
      </trkpt>
      <trkpt lat="48.7562" lon="-3.32526">
        <ele>41</ele>
        <time>2015-01-25T09:40:52Z</time>
      </trkpt>
      <trkpt lat="48.75626" lon="-3.3253">
        <ele>41</ele>
        <time>2015-01-25T09:40:53Z</time>
      </trkpt>
      <trkpt lat="48.75631" lon="-3.32533">
        <ele>41</ele>
        <time>2015-01-25T09:40:54Z</time>
      </trkpt>
      <trkpt lat="48.75636" lon="-3.32538">
        <ele>41</ele>
        <time>2015-01-25T09:40:55Z</time>
      </trkpt>
      <trkpt lat="48.75641" lon="-3.32541">
        <ele>41</ele>
        <time>2015-01-25T09:40:56Z</time>
      </trkpt>
      <trkpt lat="48.75647" lon="-3.32546">
        <ele>41</ele>
        <time>2015-01-25T09:40:57Z</time>
      </trkpt>
      <trkpt lat="48.75652" lon="-3.3255">
        <ele>41</ele>
        <time>2015-01-25T09:40:58Z</time>
      </trkpt>
      <trkpt lat="48.75658" lon="-3.32554">
        <ele>41</ele>
        <time>2015-01-25T09:40:59Z</time>
      </trkpt>
      <trkpt lat="48.75663" lon="-3.32558">
        <ele>42</ele>
        <time>2015-01-25T09:41:00Z</time>
      </trkpt>
      <trkpt lat="48.75668" lon="-3.32563">
        <ele>42</ele>
        <time>2015-01-25T09:41:01Z</time>
      </trkpt>
      <trkpt lat="48.75674" lon="-3.32567">
        <ele>42</ele>
        <time>2015-01-25T09:41:02Z</time>
      </trkpt>
      <trkpt lat="48.7568" lon="-3.32571">
        <ele>42</ele>
        <time>2015-01-25T09:41:03Z</time>
      </trkpt>
      <trkpt lat="48.75686" lon="-3.32574">
        <ele>42</ele>
        <time>2015-01-25T09:41:04Z</time>
      </trkpt>
      <trkpt lat="48.75692" lon="-3.32576">
        <ele>42</ele>
        <time>2015-01-25T09:41:05Z</time>
      </trkpt>
      <trkpt lat="48.75698" lon="-3.32579">
        <ele>42</ele>
        <time>2015-01-25T09:41:06Z</time>
      </trkpt>
      <trkpt lat="48.75705" lon="-3.3258">
        <ele>42</ele>
        <time>2015-01-25T09:41:07Z</time>
      </trkpt>
      <trkpt lat="48.75711" lon="-3.32581">
        <ele>42</ele>
        <time>2015-01-25T09:41:08Z</time>
      </trkpt>
      <trkpt lat="48.75718" lon="-3.32582">
        <ele>42</ele>
        <time>2015-01-25T09:41:09Z</time>
      </trkpt>
      <trkpt lat="48.75731" lon="-3.32581">
        <ele>42</ele>
        <time>2015-01-25T09:41:11Z</time>
      </trkpt>
      <trkpt lat="48.75737" lon="-3.3258">
        <ele>42</ele>
        <time>2015-01-25T09:41:12Z</time>
      </trkpt>
      <trkpt lat="48.75742" lon="-3.32579">
        <ele>42</ele>
        <time>2015-01-25T09:41:13Z</time>
      </trkpt>
      <trkpt lat="48.75748" lon="-3.32578">
        <ele>42</ele>
        <time>2015-01-25T09:41:14Z</time>
      </trkpt>
      <trkpt lat="48.75755" lon="-3.32578">
        <ele>42</ele>
        <time>2015-01-25T09:41:15Z</time>
      </trkpt>
      <trkpt lat="48.75761" lon="-3.32577">
        <ele>42</ele>
        <time>2015-01-25T09:41:16Z</time>
      </trkpt>
      <trkpt lat="48.75767" lon="-3.32577">
        <ele>42</ele>
        <time>2015-01-25T09:41:17Z</time>
      </trkpt>
      <trkpt lat="48.75774" lon="-3.32577">
        <ele>42</ele>
        <time>2015-01-25T09:41:18Z</time>
      </trkpt>
      <trkpt lat="48.7578" lon="-3.32577">
        <ele>42</ele>
        <time>2015-01-25T09:41:19Z</time>
      </trkpt>
      <trkpt lat="48.75787" lon="-3.32578">
        <ele>42</ele>
        <time>2015-01-25T09:41:20Z</time>
      </trkpt>
      <trkpt lat="48.75793" lon="-3.3258">
        <ele>42</ele>
        <time>2015-01-25T09:41:21Z</time>
      </trkpt>
      <trkpt lat="48.758" lon="-3.32582">
        <ele>42</ele>
        <time>2015-01-25T09:41:22Z</time>
      </trkpt>
      <trkpt lat="48.75806" lon="-3.32586">
        <ele>42</ele>
        <time>2015-01-25T09:41:23Z</time>
      </trkpt>
      <trkpt lat="48.75812" lon="-3.3259">
        <ele>42</ele>
        <time>2015-01-25T09:41:24Z</time>
      </trkpt>
      <trkpt lat="48.75818" lon="-3.32593">
        <ele>42</ele>
        <time>2015-01-25T09:41:25Z</time>
      </trkpt>
      <trkpt lat="48.75824" lon="-3.32598">
        <ele>42</ele>
        <time>2015-01-25T09:41:26Z</time>
      </trkpt>
      <trkpt lat="48.7583" lon="-3.32603">
        <ele>42</ele>
        <time>2015-01-25T09:41:27Z</time>
      </trkpt>
      <trkpt lat="48.75836" lon="-3.32609">
        <ele>42</ele>
        <time>2015-01-25T09:41:28Z</time>
      </trkpt>
      <trkpt lat="48.75841" lon="-3.32616">
        <ele>42</ele>
        <time>2015-01-25T09:41:29Z</time>
      </trkpt>
      <trkpt lat="48.75846" lon="-3.32624">
        <ele>42</ele>
        <time>2015-01-25T09:41:30Z</time>
      </trkpt>
      <trkpt lat="48.7585" lon="-3.32633">
        <ele>42</ele>
        <time>2015-01-25T09:41:31Z</time>
      </trkpt>
      <trkpt lat="48.75853" lon="-3.32644">
        <ele>42</ele>
        <time>2015-01-25T09:41:32Z</time>
      </trkpt>
      <trkpt lat="48.75855" lon="-3.32654">
        <ele>42</ele>
        <time>2015-01-25T09:41:33Z</time>
      </trkpt>
      <trkpt lat="48.75857" lon="-3.32665">
        <ele>42</ele>
        <time>2015-01-25T09:41:34Z</time>
      </trkpt>
      <trkpt lat="48.75859" lon="-3.32676">
        <ele>42</ele>
        <time>2015-01-25T09:41:35Z</time>
      </trkpt>
      <trkpt lat="48.75861" lon="-3.32688">
        <ele>42</ele>
        <time>2015-01-25T09:41:36Z</time>
      </trkpt>
      <trkpt lat="48.75863" lon="-3.327">
        <ele>42</ele>
        <time>2015-01-25T09:41:37Z</time>
      </trkpt>
      <trkpt lat="48.75865" lon="-3.32713">
        <ele>42</ele>
        <time>2015-01-25T09:41:38Z</time>
      </trkpt>
      <trkpt lat="48.75867" lon="-3.32726">
        <ele>42</ele>
        <time>2015-01-25T09:41:39Z</time>
      </trkpt>
      <trkpt lat="48.75869" lon="-3.32739">
        <ele>42</ele>
        <time>2015-01-25T09:41:40Z</time>
      </trkpt>
      <trkpt lat="48.75871" lon="-3.32753">
        <ele>42</ele>
        <time>2015-01-25T09:41:41Z</time>
      </trkpt>
      <trkpt lat="48.75874" lon="-3.32768">
        <ele>42</ele>
        <time>2015-01-25T09:41:42Z</time>
      </trkpt>
      <trkpt lat="48.75876" lon="-3.32783">
        <ele>42</ele>
        <time>2015-01-25T09:41:43Z</time>
      </trkpt>
      <trkpt lat="48.75878" lon="-3.32798">
        <ele>42</ele>
        <time>2015-01-25T09:41:44Z</time>
      </trkpt>
      <trkpt lat="48.7588" lon="-3.32814">
        <ele>41</ele>
        <time>2015-01-25T09:41:45Z</time>
      </trkpt>
      <trkpt lat="48.75883" lon="-3.3283">
        <ele>40</ele>
        <time>2015-01-25T09:41:46Z</time>
      </trkpt>
      <trkpt lat="48.75886" lon="-3.32846">
        <ele>40</ele>
        <time>2015-01-25T09:41:47Z</time>
      </trkpt>
      <trkpt lat="48.75889" lon="-3.32862">
        <ele>39</ele>
        <time>2015-01-25T09:41:48Z</time>
      </trkpt>
      <trkpt lat="48.75894" lon="-3.32878">
        <ele>38</ele>
        <time>2015-01-25T09:41:49Z</time>
      </trkpt>
      <trkpt lat="48.75899" lon="-3.32893">
        <ele>38</ele>
        <time>2015-01-25T09:41:50Z</time>
      </trkpt>
      <trkpt lat="48.75906" lon="-3.32907">
        <ele>37</ele>
        <time>2015-01-25T09:41:51Z</time>
      </trkpt>
      <trkpt lat="48.75912" lon="-3.32921">
        <ele>37</ele>
        <time>2015-01-25T09:41:52Z</time>
      </trkpt>
      <trkpt lat="48.75919" lon="-3.32933">
        <ele>37</ele>
        <time>2015-01-25T09:41:53Z</time>
      </trkpt>
      <trkpt lat="48.75924" lon="-3.32945">
        <ele>37</ele>
        <time>2015-01-25T09:41:54Z</time>
      </trkpt>
      <trkpt lat="48.75928" lon="-3.32957">
        <ele>37</ele>
        <time>2015-01-25T09:41:55Z</time>
      </trkpt>
      <trkpt lat="48.75931" lon="-3.32968">
        <ele>37</ele>
        <time>2015-01-25T09:41:56Z</time>
      </trkpt>
      <trkpt lat="48.75934" lon="-3.3298">
        <ele>37</ele>
        <time>2015-01-25T09:41:57Z</time>
      </trkpt>
      <trkpt lat="48.75937" lon="-3.32991">
        <ele>37</ele>
        <time>2015-01-25T09:41:58Z</time>
      </trkpt>
      <trkpt lat="48.75939" lon="-3.33003">
        <ele>37</ele>
        <time>2015-01-25T09:41:59Z</time>
      </trkpt>
      <trkpt lat="48.75941" lon="-3.33013">
        <ele>37</ele>
        <time>2015-01-25T09:42:00Z</time>
      </trkpt>
      <trkpt lat="48.75943" lon="-3.33024">
        <ele>37</ele>
        <time>2015-01-25T09:42:01Z</time>
      </trkpt>
      <trkpt lat="48.75945" lon="-3.33034">
        <ele>37</ele>
        <time>2015-01-25T09:42:02Z</time>
      </trkpt>
      <trkpt lat="48.75947" lon="-3.33045">
        <ele>37</ele>
        <time>2015-01-25T09:42:03Z</time>
      </trkpt>
      <trkpt lat="48.75949" lon="-3.33055">
        <ele>37</ele>
        <time>2015-01-25T09:42:04Z</time>
      </trkpt>
      <trkpt lat="48.75951" lon="-3.33064">
        <ele>37</ele>
        <time>2015-01-25T09:42:05Z</time>
      </trkpt>
      <trkpt lat="48.75954" lon="-3.33074">
        <ele>37</ele>
        <time>2015-01-25T09:42:06Z</time>
      </trkpt>
      <trkpt lat="48.75956" lon="-3.33083">
        <ele>37</ele>
        <time>2015-01-25T09:42:07Z</time>
      </trkpt>
      <trkpt lat="48.75957" lon="-3.33093">
        <ele>37</ele>
        <time>2015-01-25T09:42:08Z</time>
      </trkpt>
      <trkpt lat="48.75959" lon="-3.33102">
        <ele>37</ele>
        <time>2015-01-25T09:42:09Z</time>
      </trkpt>
      <trkpt lat="48.75962" lon="-3.33112">
        <ele>37</ele>
        <time>2015-01-25T09:42:10Z</time>
      </trkpt>
      <trkpt lat="48.75964" lon="-3.33121">
        <ele>38</ele>
        <time>2015-01-25T09:42:11Z</time>
      </trkpt>
      <trkpt lat="48.75966" lon="-3.33131">
        <ele>38</ele>
        <time>2015-01-25T09:42:12Z</time>
      </trkpt>
      <trkpt lat="48.75967" lon="-3.3314">
        <ele>39</ele>
        <time>2015-01-25T09:42:13Z</time>
      </trkpt>
      <trkpt lat="48.75969" lon="-3.3315">
        <ele>39</ele>
        <time>2015-01-25T09:42:14Z</time>
      </trkpt>
      <trkpt lat="48.75971" lon="-3.33159">
        <ele>40</ele>
        <time>2015-01-25T09:42:15Z</time>
      </trkpt>
      <trkpt lat="48.75973" lon="-3.33168">
        <ele>40</ele>
        <time>2015-01-25T09:42:16Z</time>
      </trkpt>
      <trkpt lat="48.75975" lon="-3.33176">
        <ele>41</ele>
        <time>2015-01-25T09:42:17Z</time>
      </trkpt>
      <trkpt lat="48.75977" lon="-3.33185">
        <ele>41</ele>
        <time>2015-01-25T09:42:18Z</time>
      </trkpt>
      <trkpt lat="48.75978" lon="-3.33193">
        <ele>41</ele>
        <time>2015-01-25T09:42:19Z</time>
      </trkpt>
      <trkpt lat="48.7598" lon="-3.33201">
        <ele>42</ele>
        <time>2015-01-25T09:42:20Z</time>
      </trkpt>
      <trkpt lat="48.75982" lon="-3.33209">
        <ele>42</ele>
        <time>2015-01-25T09:42:21Z</time>
      </trkpt>
      <trkpt lat="48.75984" lon="-3.33217">
        <ele>43</ele>
        <time>2015-01-25T09:42:22Z</time>
      </trkpt>
      <trkpt lat="48.75986" lon="-3.33225">
        <ele>43</ele>
        <time>2015-01-25T09:42:23Z</time>
      </trkpt>
      <trkpt lat="48.75989" lon="-3.33233">
        <ele>44</ele>
        <time>2015-01-25T09:42:24Z</time>
      </trkpt>
      <trkpt lat="48.75991" lon="-3.33241">
        <ele>44</ele>
        <time>2015-01-25T09:42:25Z</time>
      </trkpt>
      <trkpt lat="48.75993" lon="-3.33249">
        <ele>44</ele>
        <time>2015-01-25T09:42:26Z</time>
      </trkpt>
      <trkpt lat="48.75996" lon="-3.33257">
        <ele>45</ele>
        <time>2015-01-25T09:42:27Z</time>
      </trkpt>
      <trkpt lat="48.75999" lon="-3.33265">
        <ele>45</ele>
        <time>2015-01-25T09:42:28Z</time>
      </trkpt>
      <trkpt lat="48.76001" lon="-3.33273">
        <ele>45</ele>
        <time>2015-01-25T09:42:29Z</time>
      </trkpt>
      <trkpt lat="48.76004" lon="-3.33281">
        <ele>45</ele>
        <time>2015-01-25T09:42:30Z</time>
      </trkpt>
      <trkpt lat="48.76007" lon="-3.33289">
        <ele>46</ele>
        <time>2015-01-25T09:42:31Z</time>
      </trkpt>
      <trkpt lat="48.76011" lon="-3.33296">
        <ele>46</ele>
        <time>2015-01-25T09:42:32Z</time>
      </trkpt>
      <trkpt lat="48.76014" lon="-3.33304">
        <ele>46</ele>
        <time>2015-01-25T09:42:33Z</time>
      </trkpt>
      <trkpt lat="48.76018" lon="-3.33312">
        <ele>46</ele>
        <time>2015-01-25T09:42:34Z</time>
      </trkpt>
      <trkpt lat="48.76022" lon="-3.33319">
        <ele>47</ele>
        <time>2015-01-25T09:42:35Z</time>
      </trkpt>
      <trkpt lat="48.76025" lon="-3.33327">
        <ele>47</ele>
        <time>2015-01-25T09:42:36Z</time>
      </trkpt>
      <trkpt lat="48.7603" lon="-3.33334">
        <ele>47</ele>
        <time>2015-01-25T09:42:37Z</time>
      </trkpt>
      <trkpt lat="48.76033" lon="-3.33341">
        <ele>47</ele>
        <time>2015-01-25T09:42:38Z</time>
      </trkpt>
      <trkpt lat="48.76038" lon="-3.33348">
        <ele>47</ele>
        <time>2015-01-25T09:42:39Z</time>
      </trkpt>
      <trkpt lat="48.76042" lon="-3.33355">
        <ele>47</ele>
        <time>2015-01-25T09:42:40Z</time>
      </trkpt>
      <trkpt lat="48.76046" lon="-3.33362">
        <ele>48</ele>
        <time>2015-01-25T09:42:41Z</time>
      </trkpt>
      <trkpt lat="48.76051" lon="-3.33368">
        <ele>48</ele>
        <time>2015-01-25T09:42:42Z</time>
      </trkpt>
      <trkpt lat="48.76056" lon="-3.33375">
        <ele>48</ele>
        <time>2015-01-25T09:42:43Z</time>
      </trkpt>
      <trkpt lat="48.7606" lon="-3.33382">
        <ele>48</ele>
        <time>2015-01-25T09:42:44Z</time>
      </trkpt>
      <trkpt lat="48.76065" lon="-3.33388">
        <ele>48</ele>
        <time>2015-01-25T09:42:45Z</time>
      </trkpt>
      <trkpt lat="48.76069" lon="-3.33395">
        <ele>49</ele>
        <time>2015-01-25T09:42:46Z</time>
      </trkpt>
      <trkpt lat="48.76074" lon="-3.33401">
        <ele>49</ele>
        <time>2015-01-25T09:42:47Z</time>
      </trkpt>
      <trkpt lat="48.76078" lon="-3.33408">
        <ele>49</ele>
        <time>2015-01-25T09:42:48Z</time>
      </trkpt>
      <trkpt lat="48.76083" lon="-3.33414">
        <ele>49</ele>
        <time>2015-01-25T09:42:49Z</time>
      </trkpt>
      <trkpt lat="48.76087" lon="-3.33421">
        <ele>49</ele>
        <time>2015-01-25T09:42:50Z</time>
      </trkpt>
      <trkpt lat="48.76092" lon="-3.33428">
        <ele>50</ele>
        <time>2015-01-25T09:42:51Z</time>
      </trkpt>
      <trkpt lat="48.76096" lon="-3.33435">
        <ele>50</ele>
        <time>2015-01-25T09:42:52Z</time>
      </trkpt>
      <trkpt lat="48.761" lon="-3.33442">
        <ele>50</ele>
        <time>2015-01-25T09:42:53Z</time>
      </trkpt>
      <trkpt lat="48.76104" lon="-3.33449">
        <ele>50</ele>
        <time>2015-01-25T09:42:54Z</time>
      </trkpt>
      <trkpt lat="48.76108" lon="-3.33455">
        <ele>51</ele>
        <time>2015-01-25T09:42:55Z</time>
      </trkpt>
      <trkpt lat="48.76112" lon="-3.33462">
        <ele>51</ele>
        <time>2015-01-25T09:42:56Z</time>
      </trkpt>
      <trkpt lat="48.76115" lon="-3.33468">
        <ele>51</ele>
        <time>2015-01-25T09:42:57Z</time>
      </trkpt>
      <trkpt lat="48.76119" lon="-3.33474">
        <ele>52</ele>
        <time>2015-01-25T09:42:58Z</time>
      </trkpt>
      <trkpt lat="48.76122" lon="-3.33481">
        <ele>52</ele>
        <time>2015-01-25T09:42:59Z</time>
      </trkpt>
      <trkpt lat="48.76126" lon="-3.33487">
        <ele>52</ele>
        <time>2015-01-25T09:43:00Z</time>
      </trkpt>
      <trkpt lat="48.76129" lon="-3.33493">
        <ele>53</ele>
        <time>2015-01-25T09:43:01Z</time>
      </trkpt>
      <trkpt lat="48.76132" lon="-3.335">
        <ele>53</ele>
        <time>2015-01-25T09:43:02Z</time>
      </trkpt>
      <trkpt lat="48.76136" lon="-3.33506">
        <ele>53</ele>
        <time>2015-01-25T09:43:03Z</time>
      </trkpt>
      <trkpt lat="48.76139" lon="-3.33513">
        <ele>54</ele>
        <time>2015-01-25T09:43:04Z</time>
      </trkpt>
      <trkpt lat="48.76142" lon="-3.3352">
        <ele>54</ele>
        <time>2015-01-25T09:43:05Z</time>
      </trkpt>
      <trkpt lat="48.76146" lon="-3.33526">
        <ele>54</ele>
        <time>2015-01-25T09:43:06Z</time>
      </trkpt>
      <trkpt lat="48.76149" lon="-3.33533">
        <ele>55</ele>
        <time>2015-01-25T09:43:07Z</time>
      </trkpt>
      <trkpt lat="48.76152" lon="-3.3354">
        <ele>55</ele>
        <time>2015-01-25T09:43:08Z</time>
      </trkpt>
      <trkpt lat="48.76154" lon="-3.33547">
        <ele>55</ele>
        <time>2015-01-25T09:43:09Z</time>
      </trkpt>
      <trkpt lat="48.76157" lon="-3.33553">
        <ele>56</ele>
        <time>2015-01-25T09:43:10Z</time>
      </trkpt>
      <trkpt lat="48.7616" lon="-3.3356">
        <ele>56</ele>
        <time>2015-01-25T09:43:11Z</time>
      </trkpt>
      <trkpt lat="48.76163" lon="-3.33567">
        <ele>57</ele>
        <time>2015-01-25T09:43:12Z</time>
      </trkpt>
      <trkpt lat="48.76165" lon="-3.33573">
        <ele>57</ele>
        <time>2015-01-25T09:43:13Z</time>
      </trkpt>
      <trkpt lat="48.76168" lon="-3.3358">
        <ele>57</ele>
        <time>2015-01-25T09:43:14Z</time>
      </trkpt>
      <trkpt lat="48.7617" lon="-3.33586">
        <ele>58</ele>
        <time>2015-01-25T09:43:15Z</time>
      </trkpt>
      <trkpt lat="48.76173" lon="-3.33592">
        <ele>58</ele>
        <time>2015-01-25T09:43:16Z</time>
      </trkpt>
      <trkpt lat="48.76176" lon="-3.33598">
        <ele>58</ele>
        <time>2015-01-25T09:43:17Z</time>
      </trkpt>
      <trkpt lat="48.76178" lon="-3.33605">
        <ele>59</ele>
        <time>2015-01-25T09:43:18Z</time>
      </trkpt>
      <trkpt lat="48.76181" lon="-3.33611">
        <ele>59</ele>
        <time>2015-01-25T09:43:19Z</time>
      </trkpt>
      <trkpt lat="48.76183" lon="-3.33618">
        <ele>60</ele>
        <time>2015-01-25T09:43:20Z</time>
      </trkpt>
      <trkpt lat="48.76186" lon="-3.33624">
        <ele>60</ele>
        <time>2015-01-25T09:43:21Z</time>
      </trkpt>
      <trkpt lat="48.76188" lon="-3.3363">
        <ele>60</ele>
        <time>2015-01-25T09:43:22Z</time>
      </trkpt>
      <trkpt lat="48.7619" lon="-3.33637">
        <ele>61</ele>
        <time>2015-01-25T09:43:23Z</time>
      </trkpt>
      <trkpt lat="48.76192" lon="-3.33643">
        <ele>61</ele>
        <time>2015-01-25T09:43:24Z</time>
      </trkpt>
      <trkpt lat="48.76195" lon="-3.33649">
        <ele>61</ele>
        <time>2015-01-25T09:43:25Z</time>
      </trkpt>
      <trkpt lat="48.76197" lon="-3.33656">
        <ele>62</ele>
        <time>2015-01-25T09:43:26Z</time>
      </trkpt>
      <trkpt lat="48.76199" lon="-3.33663">
        <ele>62</ele>
        <time>2015-01-25T09:43:27Z</time>
      </trkpt>
      <trkpt lat="48.76202" lon="-3.33669">
        <ele>62</ele>
        <time>2015-01-25T09:43:28Z</time>
      </trkpt>
      <trkpt lat="48.76204" lon="-3.33676">
        <ele>63</ele>
        <time>2015-01-25T09:43:29Z</time>
      </trkpt>
      <trkpt lat="48.76206" lon="-3.33682">
        <ele>63</ele>
        <time>2015-01-25T09:43:30Z</time>
      </trkpt>
      <trkpt lat="48.76209" lon="-3.33689">
        <ele>63</ele>
        <time>2015-01-25T09:43:31Z</time>
      </trkpt>
      <trkpt lat="48.76211" lon="-3.33696">
        <ele>64</ele>
        <time>2015-01-25T09:43:32Z</time>
      </trkpt>
      <trkpt lat="48.76213" lon="-3.33702">
        <ele>64</ele>
        <time>2015-01-25T09:43:33Z</time>
      </trkpt>
      <trkpt lat="48.76215" lon="-3.33709">
        <ele>64</ele>
        <time>2015-01-25T09:43:34Z</time>
      </trkpt>
      <trkpt lat="48.76217" lon="-3.33716">
        <ele>64</ele>
        <time>2015-01-25T09:43:35Z</time>
      </trkpt>
      <trkpt lat="48.76219" lon="-3.33723">
        <ele>65</ele>
        <time>2015-01-25T09:43:36Z</time>
      </trkpt>
      <trkpt lat="48.76221" lon="-3.3373">
        <ele>65</ele>
        <time>2015-01-25T09:43:37Z</time>
      </trkpt>
      <trkpt lat="48.76223" lon="-3.33737">
        <ele>65</ele>
        <time>2015-01-25T09:43:38Z</time>
      </trkpt>
      <trkpt lat="48.76225" lon="-3.33744">
        <ele>65</ele>
        <time>2015-01-25T09:43:39Z</time>
      </trkpt>
      <trkpt lat="48.76227" lon="-3.33752">
        <ele>65</ele>
        <time>2015-01-25T09:43:40Z</time>
      </trkpt>
      <trkpt lat="48.76229" lon="-3.33758">
        <ele>66</ele>
        <time>2015-01-25T09:43:41Z</time>
      </trkpt>
      <trkpt lat="48.76231" lon="-3.33765">
        <ele>66</ele>
        <time>2015-01-25T09:43:42Z</time>
      </trkpt>
      <trkpt lat="48.76233" lon="-3.33772">
        <ele>66</ele>
        <time>2015-01-25T09:43:43Z</time>
      </trkpt>
      <trkpt lat="48.76235" lon="-3.33779">
        <ele>66</ele>
        <time>2015-01-25T09:43:44Z</time>
      </trkpt>
      <trkpt lat="48.76237" lon="-3.33786">
        <ele>67</ele>
        <time>2015-01-25T09:43:45Z</time>
      </trkpt>
      <trkpt lat="48.76239" lon="-3.33794">
        <ele>67</ele>
        <time>2015-01-25T09:43:46Z</time>
      </trkpt>
      <trkpt lat="48.76241" lon="-3.33801">
        <ele>67</ele>
        <time>2015-01-25T09:43:47Z</time>
      </trkpt>
      <trkpt lat="48.76243" lon="-3.33807">
        <ele>67</ele>
        <time>2015-01-25T09:43:48Z</time>
      </trkpt>
      <trkpt lat="48.76245" lon="-3.33814">
        <ele>68</ele>
        <time>2015-01-25T09:43:49Z</time>
      </trkpt>
      <trkpt lat="48.76247" lon="-3.33821">
        <ele>68</ele>
        <time>2015-01-25T09:43:50Z</time>
      </trkpt>
      <trkpt lat="48.76249" lon="-3.33828">
        <ele>68</ele>
        <time>2015-01-25T09:43:51Z</time>
      </trkpt>
      <trkpt lat="48.7625" lon="-3.33835">
        <ele>68</ele>
        <time>2015-01-25T09:43:52Z</time>
      </trkpt>
      <trkpt lat="48.76252" lon="-3.33842">
        <ele>68</ele>
        <time>2015-01-25T09:43:53Z</time>
      </trkpt>
      <trkpt lat="48.76254" lon="-3.33849">
        <ele>69</ele>
        <time>2015-01-25T09:43:54Z</time>
      </trkpt>
      <trkpt lat="48.76256" lon="-3.33856">
        <ele>69</ele>
        <time>2015-01-25T09:43:55Z</time>
      </trkpt>
      <trkpt lat="48.76258" lon="-3.33863">
        <ele>69</ele>
        <time>2015-01-25T09:43:56Z</time>
      </trkpt>
      <trkpt lat="48.7626" lon="-3.3387">
        <ele>69</ele>
        <time>2015-01-25T09:43:57Z</time>
      </trkpt>
      <trkpt lat="48.76262" lon="-3.33877">
        <ele>69</ele>
        <time>2015-01-25T09:43:58Z</time>
      </trkpt>
      <trkpt lat="48.76264" lon="-3.33884">
        <ele>70</ele>
        <time>2015-01-25T09:43:59Z</time>
      </trkpt>
      <trkpt lat="48.76266" lon="-3.33891">
        <ele>70</ele>
        <time>2015-01-25T09:44:00Z</time>
      </trkpt>
      <trkpt lat="48.76268" lon="-3.33898">
        <ele>70</ele>
        <time>2015-01-25T09:44:01Z</time>
      </trkpt>
      <trkpt lat="48.7627" lon="-3.33905">
        <ele>70</ele>
        <time>2015-01-25T09:44:02Z</time>
      </trkpt>
      <trkpt lat="48.76273" lon="-3.33912">
        <ele>70</ele>
        <time>2015-01-25T09:44:03Z</time>
      </trkpt>
      <trkpt lat="48.76275" lon="-3.33919">
        <ele>71</ele>
        <time>2015-01-25T09:44:04Z</time>
      </trkpt>
      <trkpt lat="48.76277" lon="-3.33926">
        <ele>71</ele>
        <time>2015-01-25T09:44:05Z</time>
      </trkpt>
      <trkpt lat="48.76279" lon="-3.33932">
        <ele>71</ele>
        <time>2015-01-25T09:44:06Z</time>
      </trkpt>
      <trkpt lat="48.76282" lon="-3.33939">
        <ele>71</ele>
        <time>2015-01-25T09:44:07Z</time>
      </trkpt>
      <trkpt lat="48.76284" lon="-3.33946">
        <ele>71</ele>
        <time>2015-01-25T09:44:08Z</time>
      </trkpt>
      <trkpt lat="48.76287" lon="-3.33953">
        <ele>71</ele>
        <time>2015-01-25T09:44:09Z</time>
      </trkpt>
      <trkpt lat="48.7629" lon="-3.3396">
        <ele>72</ele>
        <time>2015-01-25T09:44:10Z</time>
      </trkpt>
      <trkpt lat="48.76293" lon="-3.33967">
        <ele>72</ele>
        <time>2015-01-25T09:44:11Z</time>
      </trkpt>
      <trkpt lat="48.76296" lon="-3.33974">
        <ele>72</ele>
        <time>2015-01-25T09:44:12Z</time>
      </trkpt>
      <trkpt lat="48.76299" lon="-3.33981">
        <ele>72</ele>
        <time>2015-01-25T09:44:13Z</time>
      </trkpt>
      <trkpt lat="48.76302" lon="-3.33987">
        <ele>72</ele>
        <time>2015-01-25T09:44:14Z</time>
      </trkpt>
      <trkpt lat="48.76305" lon="-3.33994">
        <ele>72</ele>
        <time>2015-01-25T09:44:15Z</time>
      </trkpt>
      <trkpt lat="48.76308" lon="-3.34">
        <ele>72</ele>
        <time>2015-01-25T09:44:16Z</time>
      </trkpt>
      <trkpt lat="48.76311" lon="-3.34007">
        <ele>73</ele>
        <time>2015-01-25T09:44:17Z</time>
      </trkpt>
      <trkpt lat="48.76315" lon="-3.34014">
        <ele>73</ele>
        <time>2015-01-25T09:44:18Z</time>
      </trkpt>
      <trkpt lat="48.76318" lon="-3.3402">
        <ele>73</ele>
        <time>2015-01-25T09:44:19Z</time>
      </trkpt>
      <trkpt lat="48.76322" lon="-3.34027">
        <ele>73</ele>
        <time>2015-01-25T09:44:20Z</time>
      </trkpt>
      <trkpt lat="48.76325" lon="-3.34034">
        <ele>73</ele>
        <time>2015-01-25T09:44:21Z</time>
      </trkpt>
      <trkpt lat="48.76329" lon="-3.34041">
        <ele>73</ele>
        <time>2015-01-25T09:44:22Z</time>
      </trkpt>
      <trkpt lat="48.76332" lon="-3.34047">
        <ele>73</ele>
        <time>2015-01-25T09:44:23Z</time>
      </trkpt>
      <trkpt lat="48.76336" lon="-3.34054">
        <ele>73</ele>
        <time>2015-01-25T09:44:24Z</time>
      </trkpt>
      <trkpt lat="48.7634" lon="-3.3406">
        <ele>74</ele>
        <time>2015-01-25T09:44:25Z</time>
      </trkpt>
      <trkpt lat="48.76344" lon="-3.34067">
        <ele>74</ele>
        <time>2015-01-25T09:44:26Z</time>
      </trkpt>
      <trkpt lat="48.76348" lon="-3.34073">
        <ele>74</ele>
        <time>2015-01-25T09:44:27Z</time>
      </trkpt>
      <trkpt lat="48.76352" lon="-3.34079">
        <ele>74</ele>
        <time>2015-01-25T09:44:28Z</time>
      </trkpt>
      <trkpt lat="48.76355" lon="-3.34085">
        <ele>74</ele>
        <time>2015-01-25T09:44:29Z</time>
      </trkpt>
      <trkpt lat="48.76359" lon="-3.34091">
        <ele>74</ele>
        <time>2015-01-25T09:44:30Z</time>
      </trkpt>
      <trkpt lat="48.76363" lon="-3.34097">
        <ele>74</ele>
        <time>2015-01-25T09:44:31Z</time>
      </trkpt>
      <trkpt lat="48.76367" lon="-3.34103">
        <ele>74</ele>
        <time>2015-01-25T09:44:32Z</time>
      </trkpt>
      <trkpt lat="48.76371" lon="-3.34109">
        <ele>75</ele>
        <time>2015-01-25T09:44:33Z</time>
      </trkpt>
      <trkpt lat="48.76374" lon="-3.34115">
        <ele>75</ele>
        <time>2015-01-25T09:44:34Z</time>
      </trkpt>
      <trkpt lat="48.76378" lon="-3.34121">
        <ele>75</ele>
        <time>2015-01-25T09:44:35Z</time>
      </trkpt>
      <trkpt lat="48.76382" lon="-3.34127">
        <ele>75</ele>
        <time>2015-01-25T09:44:36Z</time>
      </trkpt>
      <trkpt lat="48.76386" lon="-3.34133">
        <ele>75</ele>
        <time>2015-01-25T09:44:37Z</time>
      </trkpt>
      <trkpt lat="48.7639" lon="-3.34138">
        <ele>75</ele>
        <time>2015-01-25T09:44:38Z</time>
      </trkpt>
      <trkpt lat="48.76394" lon="-3.34144">
        <ele>76</ele>
        <time>2015-01-25T09:44:39Z</time>
      </trkpt>
      <trkpt lat="48.76397" lon="-3.3415">
        <ele>76</ele>
        <time>2015-01-25T09:44:40Z</time>
      </trkpt>
      <trkpt lat="48.76401" lon="-3.34156">
        <ele>76</ele>
        <time>2015-01-25T09:44:41Z</time>
      </trkpt>
      <trkpt lat="48.76405" lon="-3.34162">
        <ele>76</ele>
        <time>2015-01-25T09:44:42Z</time>
      </trkpt>
      <trkpt lat="48.76408" lon="-3.34167">
        <ele>76</ele>
        <time>2015-01-25T09:44:43Z</time>
      </trkpt>
      <trkpt lat="48.76412" lon="-3.34173">
        <ele>76</ele>
        <time>2015-01-25T09:44:44Z</time>
      </trkpt>
      <trkpt lat="48.76416" lon="-3.34178">
        <ele>77</ele>
        <time>2015-01-25T09:44:45Z</time>
      </trkpt>
      <trkpt lat="48.76419" lon="-3.34184">
        <ele>77</ele>
        <time>2015-01-25T09:44:46Z</time>
      </trkpt>
      <trkpt lat="48.76423" lon="-3.34189">
        <ele>77</ele>
        <time>2015-01-25T09:44:47Z</time>
      </trkpt>
      <trkpt lat="48.76426" lon="-3.34194">
        <ele>77</ele>
        <time>2015-01-25T09:44:48Z</time>
      </trkpt>
      <trkpt lat="48.76429" lon="-3.34199">
        <ele>77</ele>
        <time>2015-01-25T09:44:49Z</time>
      </trkpt>
      <trkpt lat="48.76433" lon="-3.34205">
        <ele>78</ele>
        <time>2015-01-25T09:44:50Z</time>
      </trkpt>
      <trkpt lat="48.76437" lon="-3.3421">
        <ele>78</ele>
        <time>2015-01-25T09:44:51Z</time>
      </trkpt>
      <trkpt lat="48.7644" lon="-3.34215">
        <ele>78</ele>
        <time>2015-01-25T09:44:52Z</time>
      </trkpt>
      <trkpt lat="48.76443" lon="-3.34221">
        <ele>78</ele>
        <time>2015-01-25T09:44:53Z</time>
      </trkpt>
      <trkpt lat="48.76447" lon="-3.34226">
        <ele>78</ele>
        <time>2015-01-25T09:44:54Z</time>
      </trkpt>
      <trkpt lat="48.7645" lon="-3.34231">
        <ele>79</ele>
        <time>2015-01-25T09:44:55Z</time>
      </trkpt>
      <trkpt lat="48.76454" lon="-3.34236">
        <ele>79</ele>
        <time>2015-01-25T09:44:56Z</time>
      </trkpt>
      <trkpt lat="48.76457" lon="-3.34241">
        <ele>79</ele>
        <time>2015-01-25T09:44:57Z</time>
      </trkpt>
      <trkpt lat="48.7646" lon="-3.34246">
        <ele>79</ele>
        <time>2015-01-25T09:44:58Z</time>
      </trkpt>
      <trkpt lat="48.76464" lon="-3.34251">
        <ele>79</ele>
        <time>2015-01-25T09:44:59Z</time>
      </trkpt>
      <trkpt lat="48.76467" lon="-3.34256">
        <ele>80</ele>
        <time>2015-01-25T09:45:00Z</time>
      </trkpt>
      <trkpt lat="48.7647" lon="-3.34261">
        <ele>80</ele>
        <time>2015-01-25T09:45:01Z</time>
      </trkpt>
      <trkpt lat="48.76473" lon="-3.34266">
        <ele>80</ele>
        <time>2015-01-25T09:45:02Z</time>
      </trkpt>
      <trkpt lat="48.76476" lon="-3.34271">
        <ele>80</ele>
        <time>2015-01-25T09:45:03Z</time>
      </trkpt>
      <trkpt lat="48.76479" lon="-3.34276">
        <ele>81</ele>
        <time>2015-01-25T09:45:04Z</time>
      </trkpt>
      <trkpt lat="48.76483" lon="-3.34281">
        <ele>81</ele>
        <time>2015-01-25T09:45:05Z</time>
      </trkpt>
      <trkpt lat="48.76486" lon="-3.34286">
        <ele>81</ele>
        <time>2015-01-25T09:45:06Z</time>
      </trkpt>
      <trkpt lat="48.76489" lon="-3.34292">
        <ele>81</ele>
        <time>2015-01-25T09:45:07Z</time>
      </trkpt>
      <trkpt lat="48.76493" lon="-3.34297">
        <ele>82</ele>
        <time>2015-01-25T09:45:08Z</time>
      </trkpt>
      <trkpt lat="48.76496" lon="-3.34303">
        <ele>82</ele>
        <time>2015-01-25T09:45:09Z</time>
      </trkpt>
      <trkpt lat="48.76499" lon="-3.34308">
        <ele>83</ele>
        <time>2015-01-25T09:45:10Z</time>
      </trkpt>
      <trkpt lat="48.76503" lon="-3.34313">
        <ele>83</ele>
        <time>2015-01-25T09:45:11Z</time>
      </trkpt>
      <trkpt lat="48.76506" lon="-3.34318">
        <ele>83</ele>
        <time>2015-01-25T09:45:12Z</time>
      </trkpt>
      <trkpt lat="48.76508" lon="-3.34323">
        <ele>84</ele>
        <time>2015-01-25T09:45:13Z</time>
      </trkpt>
      <trkpt lat="48.76511" lon="-3.34328">
        <ele>84</ele>
        <time>2015-01-25T09:45:14Z</time>
      </trkpt>
      <trkpt lat="48.76514" lon="-3.34333">
        <ele>84</ele>
        <time>2015-01-25T09:45:15Z</time>
      </trkpt>
      <trkpt lat="48.76517" lon="-3.34338">
        <ele>85</ele>
        <time>2015-01-25T09:45:16Z</time>
      </trkpt>
      <trkpt lat="48.76521" lon="-3.34343">
        <ele>85</ele>
        <time>2015-01-25T09:45:17Z</time>
      </trkpt>
      <trkpt lat="48.76524" lon="-3.34348">
        <ele>85</ele>
        <time>2015-01-25T09:45:18Z</time>
      </trkpt>
      <trkpt lat="48.76527" lon="-3.34353">
        <ele>86</ele>
        <time>2015-01-25T09:45:19Z</time>
      </trkpt>
      <trkpt lat="48.7653" lon="-3.34359">
        <ele>86</ele>
        <time>2015-01-25T09:45:20Z</time>
      </trkpt>
      <trkpt lat="48.76533" lon="-3.34364">
        <ele>86</ele>
        <time>2015-01-25T09:45:21Z</time>
      </trkpt>
      <trkpt lat="48.76537" lon="-3.3437">
        <ele>87</ele>
        <time>2015-01-25T09:45:22Z</time>
      </trkpt>
      <trkpt lat="48.7654" lon="-3.34375">
        <ele>87</ele>
        <time>2015-01-25T09:45:23Z</time>
      </trkpt>
      <trkpt lat="48.76545" lon="-3.34381">
        <ele>87</ele>
        <time>2015-01-25T09:45:24Z</time>
      </trkpt>
      <trkpt lat="48.76549" lon="-3.34386">
        <ele>87</ele>
        <time>2015-01-25T09:45:25Z</time>
      </trkpt>
      <trkpt lat="48.76554" lon="-3.34392">
        <ele>88</ele>
        <time>2015-01-25T09:45:26Z</time>
      </trkpt>
      <trkpt lat="48.76559" lon="-3.34397">
        <ele>88</ele>
        <time>2015-01-25T09:45:27Z</time>
      </trkpt>
      <trkpt lat="48.76565" lon="-3.34402">
        <ele>88</ele>
        <time>2015-01-25T09:45:28Z</time>
      </trkpt>
      <trkpt lat="48.76571" lon="-3.34407">
        <ele>88</ele>
        <time>2015-01-25T09:45:29Z</time>
      </trkpt>
      <trkpt lat="48.76577" lon="-3.3441">
        <ele>88</ele>
        <time>2015-01-25T09:45:30Z</time>
      </trkpt>
      <trkpt lat="48.76584" lon="-3.34414">
        <ele>88</ele>
        <time>2015-01-25T09:45:31Z</time>
      </trkpt>
      <trkpt lat="48.76591" lon="-3.34417">
        <ele>88</ele>
        <time>2015-01-25T09:45:32Z</time>
      </trkpt>
      <trkpt lat="48.76598" lon="-3.3442">
        <ele>88</ele>
        <time>2015-01-25T09:45:33Z</time>
      </trkpt>
      <trkpt lat="48.76605" lon="-3.34423">
        <ele>88</ele>
        <time>2015-01-25T09:45:34Z</time>
      </trkpt>
      <trkpt lat="48.76613" lon="-3.34426">
        <ele>88</ele>
        <time>2015-01-25T09:45:35Z</time>
      </trkpt>
      <trkpt lat="48.76621" lon="-3.34428">
        <ele>88</ele>
        <time>2015-01-25T09:45:36Z</time>
      </trkpt>
      <trkpt lat="48.76628" lon="-3.3443">
        <ele>88</ele>
        <time>2015-01-25T09:45:37Z</time>
      </trkpt>
      <trkpt lat="48.76636" lon="-3.34431">
        <ele>88</ele>
        <time>2015-01-25T09:45:38Z</time>
      </trkpt>
      <trkpt lat="48.76644" lon="-3.34432">
        <ele>88</ele>
        <time>2015-01-25T09:45:39Z</time>
      </trkpt>
      <trkpt lat="48.76652" lon="-3.34433">
        <ele>88</ele>
        <time>2015-01-25T09:45:40Z</time>
      </trkpt>
      <trkpt lat="48.7666" lon="-3.34433">
        <ele>88</ele>
        <time>2015-01-25T09:45:41Z</time>
      </trkpt>
      <trkpt lat="48.76669" lon="-3.34432">
        <ele>88</ele>
        <time>2015-01-25T09:45:42Z</time>
      </trkpt>
      <trkpt lat="48.76677" lon="-3.34431">
        <ele>88</ele>
        <time>2015-01-25T09:45:43Z</time>
      </trkpt>
      <trkpt lat="48.76685" lon="-3.34428">
        <ele>88</ele>
        <time>2015-01-25T09:45:44Z</time>
      </trkpt>
      <trkpt lat="48.76693" lon="-3.34425">
        <ele>88</ele>
        <time>2015-01-25T09:45:45Z</time>
      </trkpt>
      <trkpt lat="48.76701" lon="-3.34421">
        <ele>88</ele>
        <time>2015-01-25T09:45:46Z</time>
      </trkpt>
      <trkpt lat="48.76708" lon="-3.34417">
        <ele>88</ele>
        <time>2015-01-25T09:45:47Z</time>
      </trkpt>
      <trkpt lat="48.76715" lon="-3.34413">
        <ele>88</ele>
        <time>2015-01-25T09:45:48Z</time>
      </trkpt>
      <trkpt lat="48.76722" lon="-3.34409">
        <ele>88</ele>
        <time>2015-01-25T09:45:49Z</time>
      </trkpt>
      <trkpt lat="48.76728" lon="-3.34405">
        <ele>88</ele>
        <time>2015-01-25T09:45:50Z</time>
      </trkpt>
      <trkpt lat="48.76735" lon="-3.34401">
        <ele>88</ele>
        <time>2015-01-25T09:45:51Z</time>
      </trkpt>
      <trkpt lat="48.76741" lon="-3.34397">
        <ele>88</ele>
        <time>2015-01-25T09:45:52Z</time>
      </trkpt>
      <trkpt lat="48.76747" lon="-3.34394">
        <ele>88</ele>
        <time>2015-01-25T09:45:53Z</time>
      </trkpt>
      <trkpt lat="48.76752" lon="-3.3439">
        <ele>88</ele>
        <time>2015-01-25T09:45:54Z</time>
      </trkpt>
      <trkpt lat="48.76758" lon="-3.34387">
        <ele>88</ele>
        <time>2015-01-25T09:45:55Z</time>
      </trkpt>
      <trkpt lat="48.76764" lon="-3.34384">
        <ele>89</ele>
        <time>2015-01-25T09:45:56Z</time>
      </trkpt>
      <trkpt lat="48.76769" lon="-3.34381">
        <ele>89</ele>
        <time>2015-01-25T09:45:57Z</time>
      </trkpt>
      <trkpt lat="48.76775" lon="-3.34379">
        <ele>89</ele>
        <time>2015-01-25T09:45:58Z</time>
      </trkpt>
      <trkpt lat="48.7678" lon="-3.34376">
        <ele>90</ele>
        <time>2015-01-25T09:45:59Z</time>
      </trkpt>
      <trkpt lat="48.76785" lon="-3.34373">
        <ele>90</ele>
        <time>2015-01-25T09:46:00Z</time>
      </trkpt>
      <trkpt lat="48.76791" lon="-3.34369">
        <ele>90</ele>
        <time>2015-01-25T09:46:01Z</time>
      </trkpt>
      <trkpt lat="48.76796" lon="-3.34366">
        <ele>90</ele>
        <time>2015-01-25T09:46:02Z</time>
      </trkpt>
      <trkpt lat="48.76802" lon="-3.34364">
        <ele>91</ele>
        <time>2015-01-25T09:46:03Z</time>
      </trkpt>
      <trkpt lat="48.76807" lon="-3.34362">
        <ele>91</ele>
        <time>2015-01-25T09:46:04Z</time>
      </trkpt>
      <trkpt lat="48.76813" lon="-3.34359">
        <ele>91</ele>
        <time>2015-01-25T09:46:05Z</time>
      </trkpt>
      <trkpt lat="48.76817" lon="-3.34357">
        <ele>92</ele>
        <time>2015-01-25T09:46:06Z</time>
      </trkpt>
      <trkpt lat="48.76821" lon="-3.34355">
        <ele>92</ele>
        <time>2015-01-25T09:46:07Z</time>
      </trkpt>
      <trkpt lat="48.76824" lon="-3.34354">
        <ele>92</ele>
        <time>2015-01-25T09:46:08Z</time>
      </trkpt>
      <trkpt lat="48.76827" lon="-3.34353">
        <ele>93</ele>
        <time>2015-01-25T09:46:09Z</time>
      </trkpt>
      <trkpt lat="48.76829" lon="-3.34352">
        <ele>93</ele>
        <time>2015-01-25T09:46:10Z</time>
      </trkpt>
      <trkpt lat="48.76831" lon="-3.34352">
        <ele>93</ele>
        <time>2015-01-25T09:46:11Z</time>
      </trkpt>
      <trkpt lat="48.76834" lon="-3.34353">
        <ele>93</ele>
        <time>2015-01-25T09:46:12Z</time>
      </trkpt>
      <trkpt lat="48.76836" lon="-3.34356">
        <ele>94</ele>
        <time>2015-01-25T09:46:13Z</time>
      </trkpt>
      <trkpt lat="48.76837" lon="-3.34361">
        <ele>94</ele>
        <time>2015-01-25T09:46:14Z</time>
      </trkpt>
      <trkpt lat="48.76836" lon="-3.34373">
        <ele>94</ele>
        <time>2015-01-25T09:46:16Z</time>
      </trkpt>
      <trkpt lat="48.76836" lon="-3.34379">
        <ele>94</ele>
        <time>2015-01-25T09:46:17Z</time>
      </trkpt>
      <trkpt lat="48.76836" lon="-3.34397">
        <ele>94</ele>
        <time>2015-01-25T09:46:20Z</time>
      </trkpt>
      <trkpt lat="48.76835" lon="-3.34415">
        <ele>94</ele>
        <time>2015-01-25T09:46:23Z</time>
      </trkpt>
      <trkpt lat="48.76835" lon="-3.34421">
        <ele>94</ele>
        <time>2015-01-25T09:46:24Z</time>
      </trkpt>
      <trkpt lat="48.76834" lon="-3.34427">
        <ele>94</ele>
        <time>2015-01-25T09:46:25Z</time>
      </trkpt>
      <trkpt lat="48.76834" lon="-3.34434">
        <ele>94</ele>
        <time>2015-01-25T09:46:26Z</time>
      </trkpt>
      <trkpt lat="48.76833" lon="-3.3444">
        <ele>94</ele>
        <time>2015-01-25T09:46:27Z</time>
      </trkpt>
      <trkpt lat="48.76833" lon="-3.34447">
        <ele>94</ele>
        <time>2015-01-25T09:46:28Z</time>
      </trkpt>
      <trkpt lat="48.76832" lon="-3.34454">
        <ele>94</ele>
        <time>2015-01-25T09:46:29Z</time>
      </trkpt>
      <trkpt lat="48.76832" lon="-3.34462">
        <ele>94</ele>
        <time>2015-01-25T09:46:30Z</time>
      </trkpt>
      <trkpt lat="48.76831" lon="-3.34469">
        <ele>94</ele>
        <time>2015-01-25T09:46:31Z</time>
      </trkpt>
      <trkpt lat="48.7683" lon="-3.34476">
        <ele>94</ele>
        <time>2015-01-25T09:46:32Z</time>
      </trkpt>
      <trkpt lat="48.76828" lon="-3.34483">
        <ele>94</ele>
        <time>2015-01-25T09:46:33Z</time>
      </trkpt>
      <trkpt lat="48.76825" lon="-3.34491">
        <ele>94</ele>
        <time>2015-01-25T09:46:34Z</time>
      </trkpt>
      <trkpt lat="48.76823" lon="-3.34499">
        <ele>94</ele>
        <time>2015-01-25T09:46:35Z</time>
      </trkpt>
      <trkpt lat="48.7682" lon="-3.34507">
        <ele>94</ele>
        <time>2015-01-25T09:46:36Z</time>
      </trkpt>
      <trkpt lat="48.76816" lon="-3.34515">
        <ele>94</ele>
        <time>2015-01-25T09:46:37Z</time>
      </trkpt>
      <trkpt lat="48.76813" lon="-3.34523">
        <ele>94</ele>
        <time>2015-01-25T09:46:38Z</time>
      </trkpt>
      <trkpt lat="48.76809" lon="-3.34531">
        <ele>94</ele>
        <time>2015-01-25T09:46:39Z</time>
      </trkpt>
      <trkpt lat="48.76805" lon="-3.34539">
        <ele>94</ele>
        <time>2015-01-25T09:46:40Z</time>
      </trkpt>
      <trkpt lat="48.768" lon="-3.34546">
        <ele>94</ele>
        <time>2015-01-25T09:46:41Z</time>
      </trkpt>
      <trkpt lat="48.76796" lon="-3.34553">
        <ele>94</ele>
        <time>2015-01-25T09:46:42Z</time>
      </trkpt>
      <trkpt lat="48.76791" lon="-3.3456">
        <ele>94</ele>
        <time>2015-01-25T09:46:43Z</time>
      </trkpt>
      <trkpt lat="48.76785" lon="-3.34566">
        <ele>94</ele>
        <time>2015-01-25T09:46:44Z</time>
      </trkpt>
      <trkpt lat="48.76779" lon="-3.34572">
        <ele>94</ele>
        <time>2015-01-25T09:46:45Z</time>
      </trkpt>
      <trkpt lat="48.76773" lon="-3.34577">
        <ele>94</ele>
        <time>2015-01-25T09:46:46Z</time>
      </trkpt>
      <trkpt lat="48.76768" lon="-3.34583">
        <ele>94</ele>
        <time>2015-01-25T09:46:47Z</time>
      </trkpt>
      <trkpt lat="48.76762" lon="-3.34589">
        <ele>94</ele>
        <time>2015-01-25T09:46:48Z</time>
      </trkpt>
      <trkpt lat="48.76756" lon="-3.34594">
        <ele>94</ele>
        <time>2015-01-25T09:46:49Z</time>
      </trkpt>
      <trkpt lat="48.76751" lon="-3.34601">
        <ele>94</ele>
        <time>2015-01-25T09:46:50Z</time>
      </trkpt>
      <trkpt lat="48.76745" lon="-3.34607">
        <ele>94</ele>
        <time>2015-01-25T09:46:51Z</time>
      </trkpt>
      <trkpt lat="48.7674" lon="-3.34614">
        <ele>94</ele>
        <time>2015-01-25T09:46:52Z</time>
      </trkpt>
      <trkpt lat="48.76735" lon="-3.34622">
        <ele>94</ele>
        <time>2015-01-25T09:46:53Z</time>
      </trkpt>
      <trkpt lat="48.7673" lon="-3.34629">
        <ele>94</ele>
        <time>2015-01-25T09:46:54Z</time>
      </trkpt>
      <trkpt lat="48.76725" lon="-3.34637">
        <ele>94</ele>
        <time>2015-01-25T09:46:55Z</time>
      </trkpt>
      <trkpt lat="48.7672" lon="-3.34644">
        <ele>94</ele>
        <time>2015-01-25T09:46:56Z</time>
      </trkpt>
      <trkpt lat="48.76715" lon="-3.3465">
        <ele>94</ele>
        <time>2015-01-25T09:46:57Z</time>
      </trkpt>
      <trkpt lat="48.7671" lon="-3.34657">
        <ele>94</ele>
        <time>2015-01-25T09:46:58Z</time>
      </trkpt>
      <trkpt lat="48.76704" lon="-3.34664">
        <ele>94</ele>
        <time>2015-01-25T09:46:59Z</time>
      </trkpt>
      <trkpt lat="48.76698" lon="-3.34669">
        <ele>94</ele>
        <time>2015-01-25T09:47:00Z</time>
      </trkpt>
      <trkpt lat="48.76692" lon="-3.34675">
        <ele>94</ele>
        <time>2015-01-25T09:47:01Z</time>
      </trkpt>
      <trkpt lat="48.76685" lon="-3.3468">
        <ele>94</ele>
        <time>2015-01-25T09:47:02Z</time>
      </trkpt>
      <trkpt lat="48.76678" lon="-3.34685">
        <ele>94</ele>
        <time>2015-01-25T09:47:03Z</time>
      </trkpt>
      <trkpt lat="48.76672" lon="-3.34691">
        <ele>94</ele>
        <time>2015-01-25T09:47:04Z</time>
      </trkpt>
      <trkpt lat="48.76666" lon="-3.34697">
        <ele>94</ele>
        <time>2015-01-25T09:47:05Z</time>
      </trkpt>
      <trkpt lat="48.7666" lon="-3.34703">
        <ele>94</ele>
        <time>2015-01-25T09:47:06Z</time>
      </trkpt>
      <trkpt lat="48.76654" lon="-3.3471">
        <ele>94</ele>
        <time>2015-01-25T09:47:07Z</time>
      </trkpt>
      <trkpt lat="48.76648" lon="-3.34717">
        <ele>94</ele>
        <time>2015-01-25T09:47:08Z</time>
      </trkpt>
      <trkpt lat="48.76643" lon="-3.34725">
        <ele>94</ele>
        <time>2015-01-25T09:47:09Z</time>
      </trkpt>
      <trkpt lat="48.76638" lon="-3.34733">
        <ele>94</ele>
        <time>2015-01-25T09:47:10Z</time>
      </trkpt>
      <trkpt lat="48.76633" lon="-3.3474">
        <ele>94</ele>
        <time>2015-01-25T09:47:11Z</time>
      </trkpt>
      <trkpt lat="48.76628" lon="-3.34748">
        <ele>94</ele>
        <time>2015-01-25T09:47:12Z</time>
      </trkpt>
      <trkpt lat="48.76624" lon="-3.34756">
        <ele>94</ele>
        <time>2015-01-25T09:47:13Z</time>
      </trkpt>
      <trkpt lat="48.7662" lon="-3.34765">
        <ele>94</ele>
        <time>2015-01-25T09:47:14Z</time>
      </trkpt>
      <trkpt lat="48.76617" lon="-3.34774">
        <ele>94</ele>
        <time>2015-01-25T09:47:15Z</time>
      </trkpt>
      <trkpt lat="48.76616" lon="-3.34784">
        <ele>94</ele>
        <time>2015-01-25T09:47:16Z</time>
      </trkpt>
      <trkpt lat="48.76615" lon="-3.34794">
        <ele>94</ele>
        <time>2015-01-25T09:47:17Z</time>
      </trkpt>
      <trkpt lat="48.76616" lon="-3.34805">
        <ele>94</ele>
        <time>2015-01-25T09:47:18Z</time>
      </trkpt>
      <trkpt lat="48.76617" lon="-3.34815">
        <ele>94</ele>
        <time>2015-01-25T09:47:19Z</time>
      </trkpt>
      <trkpt lat="48.7662" lon="-3.34824">
        <ele>94</ele>
        <time>2015-01-25T09:47:20Z</time>
      </trkpt>
      <trkpt lat="48.76624" lon="-3.34833">
        <ele>94</ele>
        <time>2015-01-25T09:47:21Z</time>
      </trkpt>
      <trkpt lat="48.76629" lon="-3.34842">
        <ele>94</ele>
        <time>2015-01-25T09:47:22Z</time>
      </trkpt>
      <trkpt lat="48.76634" lon="-3.3485">
        <ele>94</ele>
        <time>2015-01-25T09:47:23Z</time>
      </trkpt>
      <trkpt lat="48.76639" lon="-3.34858">
        <ele>94</ele>
        <time>2015-01-25T09:47:24Z</time>
      </trkpt>
      <trkpt lat="48.76645" lon="-3.34866">
        <ele>94</ele>
        <time>2015-01-25T09:47:25Z</time>
      </trkpt>
      <trkpt lat="48.7665" lon="-3.34875">
        <ele>94</ele>
        <time>2015-01-25T09:47:26Z</time>
      </trkpt>
      <trkpt lat="48.76655" lon="-3.34883">
        <ele>94</ele>
        <time>2015-01-25T09:47:27Z</time>
      </trkpt>
      <trkpt lat="48.7666" lon="-3.34892">
        <ele>94</ele>
        <time>2015-01-25T09:47:28Z</time>
      </trkpt>
      <trkpt lat="48.76664" lon="-3.34902">
        <ele>94</ele>
        <time>2015-01-25T09:47:29Z</time>
      </trkpt>
      <trkpt lat="48.76668" lon="-3.34912">
        <ele>94</ele>
        <time>2015-01-25T09:47:30Z</time>
      </trkpt>
      <trkpt lat="48.76672" lon="-3.34923">
        <ele>94</ele>
        <time>2015-01-25T09:47:31Z</time>
      </trkpt>
      <trkpt lat="48.76675" lon="-3.34933">
        <ele>94</ele>
        <time>2015-01-25T09:47:32Z</time>
      </trkpt>
      <trkpt lat="48.76679" lon="-3.34944">
        <ele>94</ele>
        <time>2015-01-25T09:47:33Z</time>
      </trkpt>
      <trkpt lat="48.76682" lon="-3.34955">
        <ele>94</ele>
        <time>2015-01-25T09:47:34Z</time>
      </trkpt>
      <trkpt lat="48.76685" lon="-3.34965">
        <ele>94</ele>
        <time>2015-01-25T09:47:35Z</time>
      </trkpt>
      <trkpt lat="48.76689" lon="-3.34976">
        <ele>94</ele>
        <time>2015-01-25T09:47:36Z</time>
      </trkpt>
      <trkpt lat="48.76692" lon="-3.34986">
        <ele>94</ele>
        <time>2015-01-25T09:47:37Z</time>
      </trkpt>
      <trkpt lat="48.76695" lon="-3.34996">
        <ele>94</ele>
        <time>2015-01-25T09:47:38Z</time>
      </trkpt>
      <trkpt lat="48.76698" lon="-3.35006">
        <ele>94</ele>
        <time>2015-01-25T09:47:39Z</time>
      </trkpt>
      <trkpt lat="48.76701" lon="-3.35016">
        <ele>94</ele>
        <time>2015-01-25T09:47:40Z</time>
      </trkpt>
      <trkpt lat="48.76705" lon="-3.35026">
        <ele>94</ele>
        <time>2015-01-25T09:47:41Z</time>
      </trkpt>
      <trkpt lat="48.76709" lon="-3.35035">
        <ele>94</ele>
        <time>2015-01-25T09:47:42Z</time>
      </trkpt>
      <trkpt lat="48.76713" lon="-3.35045">
        <ele>94</ele>
        <time>2015-01-25T09:47:43Z</time>
      </trkpt>
      <trkpt lat="48.76717" lon="-3.35054">
        <ele>94</ele>
        <time>2015-01-25T09:47:44Z</time>
      </trkpt>
      <trkpt lat="48.76723" lon="-3.35062">
        <ele>94</ele>
        <time>2015-01-25T09:47:45Z</time>
      </trkpt>
      <trkpt lat="48.76729" lon="-3.35069">
        <ele>94</ele>
        <time>2015-01-25T09:47:46Z</time>
      </trkpt>
      <trkpt lat="48.76735" lon="-3.35077">
        <ele>94</ele>
        <time>2015-01-25T09:47:47Z</time>
      </trkpt>
      <trkpt lat="48.76741" lon="-3.35085">
        <ele>94</ele>
        <time>2015-01-25T09:47:48Z</time>
      </trkpt>
      <trkpt lat="48.76746" lon="-3.35094">
        <ele>94</ele>
        <time>2015-01-25T09:47:49Z</time>
      </trkpt>
      <trkpt lat="48.7675" lon="-3.35104">
        <ele>94</ele>
        <time>2015-01-25T09:47:50Z</time>
      </trkpt>
      <trkpt lat="48.76753" lon="-3.35115">
        <ele>94</ele>
        <time>2015-01-25T09:47:51Z</time>
      </trkpt>
      <trkpt lat="48.76756" lon="-3.35127">
        <ele>94</ele>
        <time>2015-01-25T09:47:52Z</time>
      </trkpt>
      <trkpt lat="48.76759" lon="-3.35138">
        <ele>94</ele>
        <time>2015-01-25T09:47:53Z</time>
      </trkpt>
      <trkpt lat="48.76762" lon="-3.3515">
        <ele>94</ele>
        <time>2015-01-25T09:47:54Z</time>
      </trkpt>
      <trkpt lat="48.76764" lon="-3.35162">
        <ele>94</ele>
        <time>2015-01-25T09:47:55Z</time>
      </trkpt>
      <trkpt lat="48.76767" lon="-3.35174">
        <ele>94</ele>
        <time>2015-01-25T09:47:56Z</time>
      </trkpt>
      <trkpt lat="48.7677" lon="-3.35186">
        <ele>94</ele>
        <time>2015-01-25T09:47:57Z</time>
      </trkpt>
      <trkpt lat="48.76773" lon="-3.35198">
        <ele>94</ele>
        <time>2015-01-25T09:47:58Z</time>
      </trkpt>
      <trkpt lat="48.76775" lon="-3.3521">
        <ele>94</ele>
        <time>2015-01-25T09:47:59Z</time>
      </trkpt>
      <trkpt lat="48.76778" lon="-3.35222">
        <ele>94</ele>
        <time>2015-01-25T09:48:00Z</time>
      </trkpt>
      <trkpt lat="48.76781" lon="-3.35234">
        <ele>94</ele>
        <time>2015-01-25T09:48:01Z</time>
      </trkpt>
      <trkpt lat="48.76784" lon="-3.35246">
        <ele>94</ele>
        <time>2015-01-25T09:48:02Z</time>
      </trkpt>
      <trkpt lat="48.76787" lon="-3.35257">
        <ele>94</ele>
        <time>2015-01-25T09:48:03Z</time>
      </trkpt>
      <trkpt lat="48.7679" lon="-3.35269">
        <ele>94</ele>
        <time>2015-01-25T09:48:04Z</time>
      </trkpt>
      <trkpt lat="48.76794" lon="-3.3528">
        <ele>94</ele>
        <time>2015-01-25T09:48:05Z</time>
      </trkpt>
      <trkpt lat="48.76798" lon="-3.3529">
        <ele>94</ele>
        <time>2015-01-25T09:48:06Z</time>
      </trkpt>
      <trkpt lat="48.76802" lon="-3.353">
        <ele>94</ele>
        <time>2015-01-25T09:48:07Z</time>
      </trkpt>
      <trkpt lat="48.76806" lon="-3.3531">
        <ele>94</ele>
        <time>2015-01-25T09:48:08Z</time>
      </trkpt>
      <trkpt lat="48.7681" lon="-3.35319">
        <ele>94</ele>
        <time>2015-01-25T09:48:09Z</time>
      </trkpt>
      <trkpt lat="48.76814" lon="-3.35329">
        <ele>94</ele>
        <time>2015-01-25T09:48:10Z</time>
      </trkpt>
      <trkpt lat="48.76818" lon="-3.35338">
        <ele>94</ele>
        <time>2015-01-25T09:48:11Z</time>
      </trkpt>
      <trkpt lat="48.76823" lon="-3.35347">
        <ele>94</ele>
        <time>2015-01-25T09:48:12Z</time>
      </trkpt>
      <trkpt lat="48.76827" lon="-3.35357">
        <ele>94</ele>
        <time>2015-01-25T09:48:13Z</time>
      </trkpt>
      <trkpt lat="48.76831" lon="-3.35366">
        <ele>94</ele>
        <time>2015-01-25T09:48:14Z</time>
      </trkpt>
      <trkpt lat="48.76835" lon="-3.35376">
        <ele>94</ele>
        <time>2015-01-25T09:48:15Z</time>
      </trkpt>
      <trkpt lat="48.76838" lon="-3.35386">
        <ele>94</ele>
        <time>2015-01-25T09:48:16Z</time>
      </trkpt>
      <trkpt lat="48.76841" lon="-3.35396">
        <ele>94</ele>
        <time>2015-01-25T09:48:17Z</time>
      </trkpt>
      <trkpt lat="48.76843" lon="-3.35406">
        <ele>94</ele>
        <time>2015-01-25T09:48:18Z</time>
      </trkpt>
      <trkpt lat="48.76845" lon="-3.35416">
        <ele>94</ele>
        <time>2015-01-25T09:48:19Z</time>
      </trkpt>
      <trkpt lat="48.76847" lon="-3.35425">
        <ele>94</ele>
        <time>2015-01-25T09:48:20Z</time>
      </trkpt>
      <trkpt lat="48.76848" lon="-3.35433">
        <ele>94</ele>
        <time>2015-01-25T09:48:21Z</time>
      </trkpt>
      <trkpt lat="48.76849" lon="-3.35441">
        <ele>94</ele>
        <time>2015-01-25T09:48:22Z</time>
      </trkpt>
      <trkpt lat="48.76851" lon="-3.35449">
        <ele>94</ele>
        <time>2015-01-25T09:48:23Z</time>
      </trkpt>
      <trkpt lat="48.76852" lon="-3.35457">
        <ele>94</ele>
        <time>2015-01-25T09:48:24Z</time>
      </trkpt>
      <trkpt lat="48.76855" lon="-3.35464">
        <ele>94</ele>
        <time>2015-01-25T09:48:25Z</time>
      </trkpt>
      <trkpt lat="48.76857" lon="-3.35471">
        <ele>94</ele>
        <time>2015-01-25T09:48:26Z</time>
      </trkpt>
      <trkpt lat="48.76858" lon="-3.35478">
        <ele>94</ele>
        <time>2015-01-25T09:48:27Z</time>
      </trkpt>
      <trkpt lat="48.76859" lon="-3.35486">
        <ele>94</ele>
        <time>2015-01-25T09:48:28Z</time>
      </trkpt>
      <trkpt lat="48.7686" lon="-3.35494">
        <ele>94</ele>
        <time>2015-01-25T09:48:29Z</time>
      </trkpt>
      <trkpt lat="48.76859" lon="-3.35503">
        <ele>94</ele>
        <time>2015-01-25T09:48:30Z</time>
      </trkpt>
      <trkpt lat="48.76858" lon="-3.35513">
        <ele>94</ele>
        <time>2015-01-25T09:48:31Z</time>
      </trkpt>
      <trkpt lat="48.76857" lon="-3.35522">
        <ele>94</ele>
        <time>2015-01-25T09:48:32Z</time>
      </trkpt>
      <trkpt lat="48.76856" lon="-3.35532">
        <ele>94</ele>
        <time>2015-01-25T09:48:33Z</time>
      </trkpt>
      <trkpt lat="48.76854" lon="-3.35542">
        <ele>94</ele>
        <time>2015-01-25T09:48:34Z</time>
      </trkpt>
      <trkpt lat="48.76853" lon="-3.35553">
        <ele>94</ele>
        <time>2015-01-25T09:48:35Z</time>
      </trkpt>
      <trkpt lat="48.76852" lon="-3.35563">
        <ele>94</ele>
        <time>2015-01-25T09:48:36Z</time>
      </trkpt>
      <trkpt lat="48.76851" lon="-3.35574">
        <ele>94</ele>
        <time>2015-01-25T09:48:37Z</time>
      </trkpt>
      <trkpt lat="48.76851" lon="-3.35584">
        <ele>94</ele>
        <time>2015-01-25T09:48:38Z</time>
      </trkpt>
      <trkpt lat="48.7685" lon="-3.35595">
        <ele>94</ele>
        <time>2015-01-25T09:48:39Z</time>
      </trkpt>
      <trkpt lat="48.76849" lon="-3.35606">
        <ele>94</ele>
        <time>2015-01-25T09:48:40Z</time>
      </trkpt>
      <trkpt lat="48.76849" lon="-3.35639">
        <ele>94</ele>
        <time>2015-01-25T09:48:43Z</time>
      </trkpt>
      <trkpt lat="48.76849" lon="-3.35649">
        <ele>94</ele>
        <time>2015-01-25T09:48:44Z</time>
      </trkpt>
      <trkpt lat="48.7685" lon="-3.35671">
        <ele>94</ele>
        <time>2015-01-25T09:48:46Z</time>
      </trkpt>
      <trkpt lat="48.76851" lon="-3.35682">
        <ele>94</ele>
        <time>2015-01-25T09:48:47Z</time>
      </trkpt>
      <trkpt lat="48.76851" lon="-3.35693">
        <ele>94</ele>
        <time>2015-01-25T09:48:48Z</time>
      </trkpt>
      <trkpt lat="48.76852" lon="-3.35704">
        <ele>94</ele>
        <time>2015-01-25T09:48:49Z</time>
      </trkpt>
      <trkpt lat="48.76853" lon="-3.35714">
        <ele>94</ele>
        <time>2015-01-25T09:48:50Z</time>
      </trkpt>
      <trkpt lat="48.76855" lon="-3.35725">
        <ele>94</ele>
        <time>2015-01-25T09:48:51Z</time>
      </trkpt>
      <trkpt lat="48.76856" lon="-3.35735">
        <ele>94</ele>
        <time>2015-01-25T09:48:52Z</time>
      </trkpt>
      <trkpt lat="48.76858" lon="-3.35746">
        <ele>94</ele>
        <time>2015-01-25T09:48:53Z</time>
      </trkpt>
      <trkpt lat="48.7686" lon="-3.35756">
        <ele>94</ele>
        <time>2015-01-25T09:48:54Z</time>
      </trkpt>
      <trkpt lat="48.76862" lon="-3.35766">
        <ele>94</ele>
        <time>2015-01-25T09:48:55Z</time>
      </trkpt>
      <trkpt lat="48.76865" lon="-3.35777">
        <ele>94</ele>
        <time>2015-01-25T09:48:56Z</time>
      </trkpt>
      <trkpt lat="48.76867" lon="-3.35787">
        <ele>94</ele>
        <time>2015-01-25T09:48:57Z</time>
      </trkpt>
      <trkpt lat="48.76869" lon="-3.35797">
        <ele>94</ele>
        <time>2015-01-25T09:48:58Z</time>
      </trkpt>
      <trkpt lat="48.76872" lon="-3.35807">
        <ele>95</ele>
        <time>2015-01-25T09:48:59Z</time>
      </trkpt>
      <trkpt lat="48.76874" lon="-3.35818">
        <ele>95</ele>
        <time>2015-01-25T09:49:00Z</time>
      </trkpt>
      <trkpt lat="48.76877" lon="-3.35828">
        <ele>95</ele>
        <time>2015-01-25T09:49:01Z</time>
      </trkpt>
      <trkpt lat="48.7688" lon="-3.35839">
        <ele>95</ele>
        <time>2015-01-25T09:49:02Z</time>
      </trkpt>
      <trkpt lat="48.76882" lon="-3.35849">
        <ele>96</ele>
        <time>2015-01-25T09:49:03Z</time>
      </trkpt>
      <trkpt lat="48.76885" lon="-3.3586">
        <ele>96</ele>
        <time>2015-01-25T09:49:04Z</time>
      </trkpt>
      <trkpt lat="48.76888" lon="-3.35871">
        <ele>96</ele>
        <time>2015-01-25T09:49:05Z</time>
      </trkpt>
      <trkpt lat="48.7689" lon="-3.35882">
        <ele>96</ele>
        <time>2015-01-25T09:49:06Z</time>
      </trkpt>
      <trkpt lat="48.76893" lon="-3.35893">
        <ele>97</ele>
        <time>2015-01-25T09:49:07Z</time>
      </trkpt>
      <trkpt lat="48.76896" lon="-3.35904">
        <ele>97</ele>
        <time>2015-01-25T09:49:08Z</time>
      </trkpt>
      <trkpt lat="48.76898" lon="-3.35915">
        <ele>97</ele>
        <time>2015-01-25T09:49:09Z</time>
      </trkpt>
      <trkpt lat="48.76901" lon="-3.35926">
        <ele>97</ele>
        <time>2015-01-25T09:49:10Z</time>
      </trkpt>
      <trkpt lat="48.76904" lon="-3.35937">
        <ele>98</ele>
        <time>2015-01-25T09:49:11Z</time>
      </trkpt>
      <trkpt lat="48.76907" lon="-3.35948">
        <ele>98</ele>
        <time>2015-01-25T09:49:12Z</time>
      </trkpt>
      <trkpt lat="48.7691" lon="-3.35959">
        <ele>98</ele>
        <time>2015-01-25T09:49:13Z</time>
      </trkpt>
      <trkpt lat="48.76913" lon="-3.35971">
        <ele>98</ele>
        <time>2015-01-25T09:49:14Z</time>
      </trkpt>
      <trkpt lat="48.76915" lon="-3.35982">
        <ele>98</ele>
        <time>2015-01-25T09:49:15Z</time>
      </trkpt>
      <trkpt lat="48.76918" lon="-3.35994">
        <ele>99</ele>
        <time>2015-01-25T09:49:16Z</time>
      </trkpt>
      <trkpt lat="48.76921" lon="-3.36006">
        <ele>99</ele>
        <time>2015-01-25T09:49:17Z</time>
      </trkpt>
      <trkpt lat="48.76924" lon="-3.36017">
        <ele>99</ele>
        <time>2015-01-25T09:49:18Z</time>
      </trkpt>
      <trkpt lat="48.76927" lon="-3.36029">
        <ele>99</ele>
        <time>2015-01-25T09:49:19Z</time>
      </trkpt>
      <trkpt lat="48.7693" lon="-3.3604">
        <ele>99</ele>
        <time>2015-01-25T09:49:20Z</time>
      </trkpt>
      <trkpt lat="48.76933" lon="-3.36051">
        <ele>99</ele>
        <time>2015-01-25T09:49:21Z</time>
      </trkpt>
      <trkpt lat="48.76935" lon="-3.36063">
        <ele>99</ele>
        <time>2015-01-25T09:49:22Z</time>
      </trkpt>
      <trkpt lat="48.76938" lon="-3.36073">
        <ele>99</ele>
        <time>2015-01-25T09:49:23Z</time>
      </trkpt>
      <trkpt lat="48.76941" lon="-3.36084">
        <ele>99</ele>
        <time>2015-01-25T09:49:24Z</time>
      </trkpt>
      <trkpt lat="48.76943" lon="-3.36095">
        <ele>99</ele>
        <time>2015-01-25T09:49:25Z</time>
      </trkpt>
      <trkpt lat="48.76946" lon="-3.36105">
        <ele>99</ele>
        <time>2015-01-25T09:49:26Z</time>
      </trkpt>
      <trkpt lat="48.76949" lon="-3.36115">
        <ele>99</ele>
        <time>2015-01-25T09:49:27Z</time>
      </trkpt>
      <trkpt lat="48.76952" lon="-3.36125">
        <ele>99</ele>
        <time>2015-01-25T09:49:28Z</time>
      </trkpt>
      <trkpt lat="48.76955" lon="-3.36135">
        <ele>100</ele>
        <time>2015-01-25T09:49:29Z</time>
      </trkpt>
      <trkpt lat="48.76959" lon="-3.36145">
        <ele>100</ele>
        <time>2015-01-25T09:49:30Z</time>
      </trkpt>
      <trkpt lat="48.76962" lon="-3.36154">
        <ele>100</ele>
        <time>2015-01-25T09:49:31Z</time>
      </trkpt>
      <trkpt lat="48.76966" lon="-3.36164">
        <ele>100</ele>
        <time>2015-01-25T09:49:32Z</time>
      </trkpt>
      <trkpt lat="48.7697" lon="-3.36173">
        <ele>100</ele>
        <time>2015-01-25T09:49:33Z</time>
      </trkpt>
      <trkpt lat="48.76974" lon="-3.36182">
        <ele>100</ele>
        <time>2015-01-25T09:49:34Z</time>
      </trkpt>
      <trkpt lat="48.76979" lon="-3.36192">
        <ele>100</ele>
        <time>2015-01-25T09:49:35Z</time>
      </trkpt>
      <trkpt lat="48.76983" lon="-3.36201">
        <ele>100</ele>
        <time>2015-01-25T09:49:36Z</time>
      </trkpt>
      <trkpt lat="48.76988" lon="-3.3621">
        <ele>100</ele>
        <time>2015-01-25T09:49:37Z</time>
      </trkpt>
      <trkpt lat="48.76993" lon="-3.3622">
        <ele>100</ele>
        <time>2015-01-25T09:49:38Z</time>
      </trkpt>
      <trkpt lat="48.76998" lon="-3.36229">
        <ele>100</ele>
        <time>2015-01-25T09:49:39Z</time>
      </trkpt>
      <trkpt lat="48.77004" lon="-3.36239">
        <ele>100</ele>
        <time>2015-01-25T09:49:40Z</time>
      </trkpt>
      <trkpt lat="48.77009" lon="-3.36248">
        <ele>100</ele>
        <time>2015-01-25T09:49:41Z</time>
      </trkpt>
      <trkpt lat="48.77014" lon="-3.36257">
        <ele>100</ele>
        <time>2015-01-25T09:49:42Z</time>
      </trkpt>
      <trkpt lat="48.7702" lon="-3.36266">
        <ele>100</ele>
        <time>2015-01-25T09:49:43Z</time>
      </trkpt>
      <trkpt lat="48.77025" lon="-3.36276">
        <ele>100</ele>
        <time>2015-01-25T09:49:44Z</time>
      </trkpt>
      <trkpt lat="48.7703" lon="-3.36285">
        <ele>100</ele>
        <time>2015-01-25T09:49:45Z</time>
      </trkpt>
      <trkpt lat="48.77036" lon="-3.36294">
        <ele>100</ele>
        <time>2015-01-25T09:49:46Z</time>
      </trkpt>
      <trkpt lat="48.77041" lon="-3.36303">
        <ele>100</ele>
        <time>2015-01-25T09:49:47Z</time>
      </trkpt>
      <trkpt lat="48.77046" lon="-3.36313">
        <ele>100</ele>
        <time>2015-01-25T09:49:48Z</time>
      </trkpt>
      <trkpt lat="48.77052" lon="-3.36322">
        <ele>100</ele>
        <time>2015-01-25T09:49:49Z</time>
      </trkpt>
      <trkpt lat="48.77057" lon="-3.36331">
        <ele>100</ele>
        <time>2015-01-25T09:49:50Z</time>
      </trkpt>
      <trkpt lat="48.77062" lon="-3.3634">
        <ele>100</ele>
        <time>2015-01-25T09:49:51Z</time>
      </trkpt>
      <trkpt lat="48.77067" lon="-3.36349">
        <ele>100</ele>
        <time>2015-01-25T09:49:52Z</time>
      </trkpt>
      <trkpt lat="48.77072" lon="-3.36357">
        <ele>100</ele>
        <time>2015-01-25T09:49:53Z</time>
      </trkpt>
      <trkpt lat="48.77077" lon="-3.36366">
        <ele>100</ele>
        <time>2015-01-25T09:49:54Z</time>
      </trkpt>
      <trkpt lat="48.77082" lon="-3.36375">
        <ele>100</ele>
        <time>2015-01-25T09:49:55Z</time>
      </trkpt>
      <trkpt lat="48.77087" lon="-3.36384">
        <ele>100</ele>
        <time>2015-01-25T09:49:56Z</time>
      </trkpt>
      <trkpt lat="48.77092" lon="-3.36392">
        <ele>100</ele>
        <time>2015-01-25T09:49:57Z</time>
      </trkpt>
      <trkpt lat="48.77097" lon="-3.36401">
        <ele>100</ele>
        <time>2015-01-25T09:49:58Z</time>
      </trkpt>
      <trkpt lat="48.77102" lon="-3.3641">
        <ele>100</ele>
        <time>2015-01-25T09:49:59Z</time>
      </trkpt>
      <trkpt lat="48.77107" lon="-3.36419">
        <ele>100</ele>
        <time>2015-01-25T09:50:00Z</time>
      </trkpt>
      <trkpt lat="48.77112" lon="-3.36428">
        <ele>100</ele>
        <time>2015-01-25T09:50:01Z</time>
      </trkpt>
      <trkpt lat="48.77117" lon="-3.36437">
        <ele>100</ele>
        <time>2015-01-25T09:50:02Z</time>
      </trkpt>
      <trkpt lat="48.77122" lon="-3.36446">
        <ele>100</ele>
        <time>2015-01-25T09:50:03Z</time>
      </trkpt>
      <trkpt lat="48.77127" lon="-3.36455">
        <ele>100</ele>
        <time>2015-01-25T09:50:04Z</time>
      </trkpt>
      <trkpt lat="48.77132" lon="-3.36463">
        <ele>100</ele>
        <time>2015-01-25T09:50:05Z</time>
      </trkpt>
      <trkpt lat="48.77137" lon="-3.36472">
        <ele>100</ele>
        <time>2015-01-25T09:50:06Z</time>
      </trkpt>
      <trkpt lat="48.77142" lon="-3.36481">
        <ele>100</ele>
        <time>2015-01-25T09:50:07Z</time>
      </trkpt>
      <trkpt lat="48.77147" lon="-3.3649">
        <ele>100</ele>
        <time>2015-01-25T09:50:08Z</time>
      </trkpt>
      <trkpt lat="48.77151" lon="-3.36498">
        <ele>100</ele>
        <time>2015-01-25T09:50:09Z</time>
      </trkpt>
      <trkpt lat="48.77156" lon="-3.36506">
        <ele>100</ele>
        <time>2015-01-25T09:50:10Z</time>
      </trkpt>
      <trkpt lat="48.77161" lon="-3.36514">
        <ele>100</ele>
        <time>2015-01-25T09:50:11Z</time>
      </trkpt>
      <trkpt lat="48.77165" lon="-3.36522">
        <ele>100</ele>
        <time>2015-01-25T09:50:12Z</time>
      </trkpt>
      <trkpt lat="48.7717" lon="-3.3653">
        <ele>100</ele>
        <time>2015-01-25T09:50:13Z</time>
      </trkpt>
      <trkpt lat="48.77174" lon="-3.36538">
        <ele>100</ele>
        <time>2015-01-25T09:50:14Z</time>
      </trkpt>
      <trkpt lat="48.77178" lon="-3.36545">
        <ele>100</ele>
        <time>2015-01-25T09:50:15Z</time>
      </trkpt>
      <trkpt lat="48.77183" lon="-3.36552">
        <ele>100</ele>
        <time>2015-01-25T09:50:16Z</time>
      </trkpt>
      <trkpt lat="48.77187" lon="-3.36559">
        <ele>100</ele>
        <time>2015-01-25T09:50:17Z</time>
      </trkpt>
      <trkpt lat="48.77192" lon="-3.36566">
        <ele>100</ele>
        <time>2015-01-25T09:50:18Z</time>
      </trkpt>
      <trkpt lat="48.77197" lon="-3.36572">
        <ele>100</ele>
        <time>2015-01-25T09:50:19Z</time>
      </trkpt>
      <trkpt lat="48.77202" lon="-3.36576">
        <ele>100</ele>
        <time>2015-01-25T09:50:20Z</time>
      </trkpt>
      <trkpt lat="48.77208" lon="-3.36577">
        <ele>100</ele>
        <time>2015-01-25T09:50:21Z</time>
      </trkpt>
      <trkpt lat="48.77215" lon="-3.36576">
        <ele>100</ele>
        <time>2015-01-25T09:50:22Z</time>
      </trkpt>
      <trkpt lat="48.77222" lon="-3.36572">
        <ele>100</ele>
        <time>2015-01-25T09:50:23Z</time>
      </trkpt>
      <trkpt lat="48.77228" lon="-3.36565">
        <ele>100</ele>
        <time>2015-01-25T09:50:24Z</time>
      </trkpt>
      <trkpt lat="48.77234" lon="-3.36556">
        <ele>100</ele>
        <time>2015-01-25T09:50:25Z</time>
      </trkpt>
      <trkpt lat="48.7724" lon="-3.36547">
        <ele>100</ele>
        <time>2015-01-25T09:50:26Z</time>
      </trkpt>
      <trkpt lat="48.77245" lon="-3.36538">
        <ele>100</ele>
        <time>2015-01-25T09:50:27Z</time>
      </trkpt>
      <trkpt lat="48.77251" lon="-3.36529">
        <ele>100</ele>
        <time>2015-01-25T09:50:28Z</time>
      </trkpt>
      <trkpt lat="48.77257" lon="-3.3652">
        <ele>100</ele>
        <time>2015-01-25T09:50:29Z</time>
      </trkpt>
      <trkpt lat="48.77263" lon="-3.3651">
        <ele>100</ele>
        <time>2015-01-25T09:50:30Z</time>
      </trkpt>
      <trkpt lat="48.77268" lon="-3.365">
        <ele>100</ele>
        <time>2015-01-25T09:50:31Z</time>
      </trkpt>
      <trkpt lat="48.77274" lon="-3.3649">
        <ele>100</ele>
        <time>2015-01-25T09:50:32Z</time>
      </trkpt>
      <trkpt lat="48.7728" lon="-3.3648">
        <ele>100</ele>
        <time>2015-01-25T09:50:33Z</time>
      </trkpt>
      <trkpt lat="48.77286" lon="-3.3647">
        <ele>100</ele>
        <time>2015-01-25T09:50:34Z</time>
      </trkpt>
      <trkpt lat="48.77292" lon="-3.36459">
        <ele>100</ele>
        <time>2015-01-25T09:50:35Z</time>
      </trkpt>
      <trkpt lat="48.77298" lon="-3.36449">
        <ele>100</ele>
        <time>2015-01-25T09:50:36Z</time>
      </trkpt>
      <trkpt lat="48.77303" lon="-3.36437">
        <ele>100</ele>
        <time>2015-01-25T09:50:37Z</time>
      </trkpt>
      <trkpt lat="48.77309" lon="-3.36426">
        <ele>100</ele>
        <time>2015-01-25T09:50:38Z</time>
      </trkpt>
      <trkpt lat="48.77314" lon="-3.36413">
        <ele>100</ele>
        <time>2015-01-25T09:50:39Z</time>
      </trkpt>
      <trkpt lat="48.77319" lon="-3.36401">
        <ele>100</ele>
        <time>2015-01-25T09:50:40Z</time>
      </trkpt>
      <trkpt lat="48.77324" lon="-3.36388">
        <ele>100</ele>
        <time>2015-01-25T09:50:41Z</time>
      </trkpt>
      <trkpt lat="48.77329" lon="-3.36375">
        <ele>100</ele>
        <time>2015-01-25T09:50:42Z</time>
      </trkpt>
      <trkpt lat="48.77333" lon="-3.36362">
        <ele>100</ele>
        <time>2015-01-25T09:50:43Z</time>
      </trkpt>
      <trkpt lat="48.77339" lon="-3.36349">
        <ele>100</ele>
        <time>2015-01-25T09:50:44Z</time>
      </trkpt>
      <trkpt lat="48.77344" lon="-3.36337">
        <ele>100</ele>
        <time>2015-01-25T09:50:45Z</time>
      </trkpt>
      <trkpt lat="48.77349" lon="-3.36324">
        <ele>100</ele>
        <time>2015-01-25T09:50:46Z</time>
      </trkpt>
      <trkpt lat="48.77354" lon="-3.36312">
        <ele>100</ele>
        <time>2015-01-25T09:50:47Z</time>
      </trkpt>
      <trkpt lat="48.77359" lon="-3.363">
        <ele>100</ele>
        <time>2015-01-25T09:50:48Z</time>
      </trkpt>
      <trkpt lat="48.77365" lon="-3.36289">
        <ele>100</ele>
        <time>2015-01-25T09:50:49Z</time>
      </trkpt>
      <trkpt lat="48.7737" lon="-3.36278">
        <ele>100</ele>
        <time>2015-01-25T09:50:50Z</time>
      </trkpt>
      <trkpt lat="48.77376" lon="-3.36266">
        <ele>100</ele>
        <time>2015-01-25T09:50:51Z</time>
      </trkpt>
      <trkpt lat="48.77381" lon="-3.36256">
        <ele>100</ele>
        <time>2015-01-25T09:50:52Z</time>
      </trkpt>
      <trkpt lat="48.77386" lon="-3.36245">
        <ele>100</ele>
        <time>2015-01-25T09:50:53Z</time>
      </trkpt>
      <trkpt lat="48.77392" lon="-3.36234">
        <ele>100</ele>
        <time>2015-01-25T09:50:54Z</time>
      </trkpt>
      <trkpt lat="48.77397" lon="-3.36223">
        <ele>100</ele>
        <time>2015-01-25T09:50:55Z</time>
      </trkpt>
      <trkpt lat="48.77402" lon="-3.36212">
        <ele>100</ele>
        <time>2015-01-25T09:50:56Z</time>
      </trkpt>
      <trkpt lat="48.77407" lon="-3.36202">
        <ele>100</ele>
        <time>2015-01-25T09:50:57Z</time>
      </trkpt>
      <trkpt lat="48.77412" lon="-3.36191">
        <ele>100</ele>
        <time>2015-01-25T09:50:58Z</time>
      </trkpt>
      <trkpt lat="48.77417" lon="-3.3618">
        <ele>100</ele>
        <time>2015-01-25T09:50:59Z</time>
      </trkpt>
      <trkpt lat="48.77422" lon="-3.36169">
        <ele>100</ele>
        <time>2015-01-25T09:51:00Z</time>
      </trkpt>
      <trkpt lat="48.77427" lon="-3.36158">
        <ele>100</ele>
        <time>2015-01-25T09:51:01Z</time>
      </trkpt>
      <trkpt lat="48.77433" lon="-3.36147">
        <ele>100</ele>
        <time>2015-01-25T09:51:02Z</time>
      </trkpt>
      <trkpt lat="48.77438" lon="-3.36137">
        <ele>100</ele>
        <time>2015-01-25T09:51:03Z</time>
      </trkpt>
      <trkpt lat="48.77443" lon="-3.36126">
        <ele>100</ele>
        <time>2015-01-25T09:51:04Z</time>
      </trkpt>
      <trkpt lat="48.77448" lon="-3.36115">
        <ele>100</ele>
        <time>2015-01-25T09:51:05Z</time>
      </trkpt>
      <trkpt lat="48.77453" lon="-3.36103">
        <ele>100</ele>
        <time>2015-01-25T09:51:06Z</time>
      </trkpt>
      <trkpt lat="48.77458" lon="-3.36092">
        <ele>100</ele>
        <time>2015-01-25T09:51:07Z</time>
      </trkpt>
      <trkpt lat="48.77463" lon="-3.36081">
        <ele>100</ele>
        <time>2015-01-25T09:51:08Z</time>
      </trkpt>
      <trkpt lat="48.77468" lon="-3.36069">
        <ele>100</ele>
        <time>2015-01-25T09:51:09Z</time>
      </trkpt>
      <trkpt lat="48.77472" lon="-3.36057">
        <ele>100</ele>
        <time>2015-01-25T09:51:10Z</time>
      </trkpt>
      <trkpt lat="48.77477" lon="-3.36046">
        <ele>100</ele>
        <time>2015-01-25T09:51:11Z</time>
      </trkpt>
      <trkpt lat="48.77481" lon="-3.36034">
        <ele>100</ele>
        <time>2015-01-25T09:51:12Z</time>
      </trkpt>
      <trkpt lat="48.77485" lon="-3.36022">
        <ele>100</ele>
        <time>2015-01-25T09:51:13Z</time>
      </trkpt>
      <trkpt lat="48.77489" lon="-3.3601">
        <ele>100</ele>
        <time>2015-01-25T09:51:14Z</time>
      </trkpt>
      <trkpt lat="48.77493" lon="-3.35998">
        <ele>100</ele>
        <time>2015-01-25T09:51:15Z</time>
      </trkpt>
      <trkpt lat="48.77496" lon="-3.35986">
        <ele>100</ele>
        <time>2015-01-25T09:51:16Z</time>
      </trkpt>
      <trkpt lat="48.775" lon="-3.35974">
        <ele>100</ele>
        <time>2015-01-25T09:51:17Z</time>
      </trkpt>
      <trkpt lat="48.77503" lon="-3.35962">
        <ele>100</ele>
        <time>2015-01-25T09:51:18Z</time>
      </trkpt>
      <trkpt lat="48.77507" lon="-3.3595">
        <ele>100</ele>
        <time>2015-01-25T09:51:19Z</time>
      </trkpt>
      <trkpt lat="48.7751" lon="-3.35938">
        <ele>100</ele>
        <time>2015-01-25T09:51:20Z</time>
      </trkpt>
      <trkpt lat="48.77513" lon="-3.35926">
        <ele>100</ele>
        <time>2015-01-25T09:51:21Z</time>
      </trkpt>
      <trkpt lat="48.77517" lon="-3.35913">
        <ele>100</ele>
        <time>2015-01-25T09:51:22Z</time>
      </trkpt>
      <trkpt lat="48.7752" lon="-3.35902">
        <ele>100</ele>
        <time>2015-01-25T09:51:23Z</time>
      </trkpt>
      <trkpt lat="48.77524" lon="-3.3589">
        <ele>100</ele>
        <time>2015-01-25T09:51:24Z</time>
      </trkpt>
      <trkpt lat="48.77528" lon="-3.35878">
        <ele>100</ele>
        <time>2015-01-25T09:51:25Z</time>
      </trkpt>
      <trkpt lat="48.77533" lon="-3.35866">
        <ele>100</ele>
        <time>2015-01-25T09:51:26Z</time>
      </trkpt>
      <trkpt lat="48.77538" lon="-3.35854">
        <ele>100</ele>
        <time>2015-01-25T09:51:27Z</time>
      </trkpt>
      <trkpt lat="48.77543" lon="-3.35843">
        <ele>100</ele>
        <time>2015-01-25T09:51:28Z</time>
      </trkpt>
      <trkpt lat="48.77549" lon="-3.35831">
        <ele>100</ele>
        <time>2015-01-25T09:51:29Z</time>
      </trkpt>
      <trkpt lat="48.77554" lon="-3.3582">
        <ele>100</ele>
        <time>2015-01-25T09:51:30Z</time>
      </trkpt>
      <trkpt lat="48.7756" lon="-3.35808">
        <ele>100</ele>
        <time>2015-01-25T09:51:31Z</time>
      </trkpt>
      <trkpt lat="48.77565" lon="-3.35796">
        <ele>100</ele>
        <time>2015-01-25T09:51:32Z</time>
      </trkpt>
      <trkpt lat="48.77571" lon="-3.35783">
        <ele>100</ele>
        <time>2015-01-25T09:51:33Z</time>
      </trkpt>
      <trkpt lat="48.77576" lon="-3.35771">
        <ele>100</ele>
        <time>2015-01-25T09:51:34Z</time>
      </trkpt>
      <trkpt lat="48.77581" lon="-3.35758">
        <ele>100</ele>
        <time>2015-01-25T09:51:35Z</time>
      </trkpt>
      <trkpt lat="48.77586" lon="-3.35745">
        <ele>100</ele>
        <time>2015-01-25T09:51:36Z</time>
      </trkpt>
      <trkpt lat="48.7759" lon="-3.35732">
        <ele>100</ele>
        <time>2015-01-25T09:51:37Z</time>
      </trkpt>
      <trkpt lat="48.77595" lon="-3.35718">
        <ele>100</ele>
        <time>2015-01-25T09:51:38Z</time>
      </trkpt>
      <trkpt lat="48.776" lon="-3.35705">
        <ele>100</ele>
        <time>2015-01-25T09:51:39Z</time>
      </trkpt>
      <trkpt lat="48.77604" lon="-3.35692">
        <ele>100</ele>
        <time>2015-01-25T09:51:40Z</time>
      </trkpt>
      <trkpt lat="48.77608" lon="-3.35679">
        <ele>100</ele>
        <time>2015-01-25T09:51:41Z</time>
      </trkpt>
      <trkpt lat="48.77612" lon="-3.35665">
        <ele>100</ele>
        <time>2015-01-25T09:51:42Z</time>
      </trkpt>
      <trkpt lat="48.77615" lon="-3.35651">
        <ele>100</ele>
        <time>2015-01-25T09:51:43Z</time>
      </trkpt>
      <trkpt lat="48.77619" lon="-3.35638">
        <ele>100</ele>
        <time>2015-01-25T09:51:44Z</time>
      </trkpt>
      <trkpt lat="48.77622" lon="-3.35624">
        <ele>100</ele>
        <time>2015-01-25T09:51:45Z</time>
      </trkpt>
      <trkpt lat="48.77626" lon="-3.3561">
        <ele>100</ele>
        <time>2015-01-25T09:51:46Z</time>
      </trkpt>
      <trkpt lat="48.7763" lon="-3.35596">
        <ele>100</ele>
        <time>2015-01-25T09:51:47Z</time>
      </trkpt>
      <trkpt lat="48.77635" lon="-3.35583">
        <ele>100</ele>
        <time>2015-01-25T09:51:48Z</time>
      </trkpt>
      <trkpt lat="48.7764" lon="-3.35569">
        <ele>100</ele>
        <time>2015-01-25T09:51:49Z</time>
      </trkpt>
      <trkpt lat="48.77645" lon="-3.35556">
        <ele>100</ele>
        <time>2015-01-25T09:51:50Z</time>
      </trkpt>
      <trkpt lat="48.7765" lon="-3.35542">
        <ele>100</ele>
        <time>2015-01-25T09:51:51Z</time>
      </trkpt>
      <trkpt lat="48.77655" lon="-3.35529">
        <ele>100</ele>
        <time>2015-01-25T09:51:52Z</time>
      </trkpt>
      <trkpt lat="48.77661" lon="-3.35516">
        <ele>100</ele>
        <time>2015-01-25T09:51:53Z</time>
      </trkpt>
      <trkpt lat="48.77666" lon="-3.35503">
        <ele>100</ele>
        <time>2015-01-25T09:51:54Z</time>
      </trkpt>
      <trkpt lat="48.77671" lon="-3.3549">
        <ele>100</ele>
        <time>2015-01-25T09:51:55Z</time>
      </trkpt>
      <trkpt lat="48.77677" lon="-3.35477">
        <ele>100</ele>
        <time>2015-01-25T09:51:56Z</time>
      </trkpt>
      <trkpt lat="48.77683" lon="-3.35464">
        <ele>100</ele>
        <time>2015-01-25T09:51:57Z</time>
      </trkpt>
      <trkpt lat="48.77688" lon="-3.3545">
        <ele>100</ele>
        <time>2015-01-25T09:51:58Z</time>
      </trkpt>
      <trkpt lat="48.77694" lon="-3.35437">
        <ele>100</ele>
        <time>2015-01-25T09:51:59Z</time>
      </trkpt>
      <trkpt lat="48.77699" lon="-3.35423">
        <ele>100</ele>
        <time>2015-01-25T09:52:00Z</time>
      </trkpt>
      <trkpt lat="48.77705" lon="-3.3541">
        <ele>100</ele>
        <time>2015-01-25T09:52:01Z</time>
      </trkpt>
      <trkpt lat="48.7771" lon="-3.35397">
        <ele>100</ele>
        <time>2015-01-25T09:52:02Z</time>
      </trkpt>
      <trkpt lat="48.77716" lon="-3.35383">
        <ele>100</ele>
        <time>2015-01-25T09:52:03Z</time>
      </trkpt>
      <trkpt lat="48.77721" lon="-3.3537">
        <ele>100</ele>
        <time>2015-01-25T09:52:04Z</time>
      </trkpt>
      <trkpt lat="48.77726" lon="-3.35357">
        <ele>100</ele>
        <time>2015-01-25T09:52:05Z</time>
      </trkpt>
      <trkpt lat="48.7773" lon="-3.35344">
        <ele>100</ele>
        <time>2015-01-25T09:52:06Z</time>
      </trkpt>
      <trkpt lat="48.77735" lon="-3.35331">
        <ele>100</ele>
        <time>2015-01-25T09:52:07Z</time>
      </trkpt>
      <trkpt lat="48.77739" lon="-3.35317">
        <ele>100</ele>
        <time>2015-01-25T09:52:08Z</time>
      </trkpt>
      <trkpt lat="48.77743" lon="-3.35304">
        <ele>100</ele>
        <time>2015-01-25T09:52:09Z</time>
      </trkpt>
      <trkpt lat="48.77747" lon="-3.35291">
        <ele>100</ele>
        <time>2015-01-25T09:52:10Z</time>
      </trkpt>
      <trkpt lat="48.77751" lon="-3.35278">
        <ele>100</ele>
        <time>2015-01-25T09:52:11Z</time>
      </trkpt>
      <trkpt lat="48.77755" lon="-3.35264">
        <ele>100</ele>
        <time>2015-01-25T09:52:12Z</time>
      </trkpt>
      <trkpt lat="48.77759" lon="-3.35251">
        <ele>100</ele>
        <time>2015-01-25T09:52:13Z</time>
      </trkpt>
      <trkpt lat="48.77763" lon="-3.35238">
        <ele>100</ele>
        <time>2015-01-25T09:52:14Z</time>
      </trkpt>
      <trkpt lat="48.77767" lon="-3.35225">
        <ele>100</ele>
        <time>2015-01-25T09:52:15Z</time>
      </trkpt>
      <trkpt lat="48.77771" lon="-3.35211">
        <ele>100</ele>
        <time>2015-01-25T09:52:16Z</time>
      </trkpt>
      <trkpt lat="48.77775" lon="-3.35198">
        <ele>100</ele>
        <time>2015-01-25T09:52:17Z</time>
      </trkpt>
      <trkpt lat="48.77778" lon="-3.35184">
        <ele>100</ele>
        <time>2015-01-25T09:52:18Z</time>
      </trkpt>
      <trkpt lat="48.77781" lon="-3.3517">
        <ele>100</ele>
        <time>2015-01-25T09:52:19Z</time>
      </trkpt>
      <trkpt lat="48.77784" lon="-3.35157">
        <ele>100</ele>
        <time>2015-01-25T09:52:20Z</time>
      </trkpt>
      <trkpt lat="48.77787" lon="-3.35143">
        <ele>100</ele>
        <time>2015-01-25T09:52:21Z</time>
      </trkpt>
      <trkpt lat="48.7779" lon="-3.3513">
        <ele>100</ele>
        <time>2015-01-25T09:52:22Z</time>
      </trkpt>
      <trkpt lat="48.77792" lon="-3.35116">
        <ele>100</ele>
        <time>2015-01-25T09:52:23Z</time>
      </trkpt>
      <trkpt lat="48.77795" lon="-3.35102">
        <ele>100</ele>
        <time>2015-01-25T09:52:24Z</time>
      </trkpt>
      <trkpt lat="48.77798" lon="-3.35089">
        <ele>100</ele>
        <time>2015-01-25T09:52:25Z</time>
      </trkpt>
      <trkpt lat="48.77801" lon="-3.35075">
        <ele>100</ele>
        <time>2015-01-25T09:52:26Z</time>
      </trkpt>
      <trkpt lat="48.77803" lon="-3.35062">
        <ele>100</ele>
        <time>2015-01-25T09:52:27Z</time>
      </trkpt>
      <trkpt lat="48.77805" lon="-3.35048">
        <ele>100</ele>
        <time>2015-01-25T09:52:28Z</time>
      </trkpt>
      <trkpt lat="48.77808" lon="-3.35033">
        <ele>100</ele>
        <time>2015-01-25T09:52:29Z</time>
      </trkpt>
      <trkpt lat="48.77809" lon="-3.35019">
        <ele>100</ele>
        <time>2015-01-25T09:52:30Z</time>
      </trkpt>
      <trkpt lat="48.7781" lon="-3.35005">
        <ele>100</ele>
        <time>2015-01-25T09:52:31Z</time>
      </trkpt>
      <trkpt lat="48.77811" lon="-3.3499">
        <ele>100</ele>
        <time>2015-01-25T09:52:32Z</time>
      </trkpt>
      <trkpt lat="48.77811" lon="-3.34975">
        <ele>100</ele>
        <time>2015-01-25T09:52:33Z</time>
      </trkpt>
      <trkpt lat="48.77812" lon="-3.3496">
        <ele>100</ele>
        <time>2015-01-25T09:52:34Z</time>
      </trkpt>
      <trkpt lat="48.77813" lon="-3.34945">
        <ele>100</ele>
        <time>2015-01-25T09:52:35Z</time>
      </trkpt>
      <trkpt lat="48.77815" lon="-3.34929">
        <ele>100</ele>
        <time>2015-01-25T09:52:36Z</time>
      </trkpt>
      <trkpt lat="48.77818" lon="-3.34913">
        <ele>100</ele>
        <time>2015-01-25T09:52:37Z</time>
      </trkpt>
      <trkpt lat="48.77821" lon="-3.34897">
        <ele>100</ele>
        <time>2015-01-25T09:52:38Z</time>
      </trkpt>
      <trkpt lat="48.77826" lon="-3.34881">
        <ele>100</ele>
        <time>2015-01-25T09:52:39Z</time>
      </trkpt>
      <trkpt lat="48.7783" lon="-3.34866">
        <ele>100</ele>
        <time>2015-01-25T09:52:40Z</time>
      </trkpt>
      <trkpt lat="48.77835" lon="-3.3485">
        <ele>100</ele>
        <time>2015-01-25T09:52:41Z</time>
      </trkpt>
      <trkpt lat="48.7784" lon="-3.34834">
        <ele>100</ele>
        <time>2015-01-25T09:52:42Z</time>
      </trkpt>
      <trkpt lat="48.77845" lon="-3.34818">
        <ele>100</ele>
        <time>2015-01-25T09:52:43Z</time>
      </trkpt>
      <trkpt lat="48.77849" lon="-3.34801">
        <ele>100</ele>
        <time>2015-01-25T09:52:44Z</time>
      </trkpt>
      <trkpt lat="48.77853" lon="-3.34785">
        <ele>100</ele>
        <time>2015-01-25T09:52:45Z</time>
      </trkpt>
      <trkpt lat="48.77857" lon="-3.34768">
        <ele>100</ele>
        <time>2015-01-25T09:52:46Z</time>
      </trkpt>
      <trkpt lat="48.7786" lon="-3.34751">
        <ele>100</ele>
        <time>2015-01-25T09:52:47Z</time>
      </trkpt>
      <trkpt lat="48.77864" lon="-3.34735">
        <ele>100</ele>
        <time>2015-01-25T09:52:48Z</time>
      </trkpt>
      <trkpt lat="48.77868" lon="-3.34719">
        <ele>100</ele>
        <time>2015-01-25T09:52:49Z</time>
      </trkpt>
      <trkpt lat="48.77872" lon="-3.34703">
        <ele>100</ele>
        <time>2015-01-25T09:52:50Z</time>
      </trkpt>
      <trkpt lat="48.77876" lon="-3.34688">
        <ele>100</ele>
        <time>2015-01-25T09:52:51Z</time>
      </trkpt>
      <trkpt lat="48.77879" lon="-3.34673">
        <ele>100</ele>
        <time>2015-01-25T09:52:52Z</time>
      </trkpt>
      <trkpt lat="48.77882" lon="-3.34659">
        <ele>100</ele>
        <time>2015-01-25T09:52:53Z</time>
      </trkpt>
      <trkpt lat="48.77885" lon="-3.34644">
        <ele>100</ele>
        <time>2015-01-25T09:52:54Z</time>
      </trkpt>
      <trkpt lat="48.77888" lon="-3.3463">
        <ele>100</ele>
        <time>2015-01-25T09:52:55Z</time>
      </trkpt>
      <trkpt lat="48.7789" lon="-3.34616">
        <ele>100</ele>
        <time>2015-01-25T09:52:56Z</time>
      </trkpt>
      <trkpt lat="48.77893" lon="-3.34602">
        <ele>100</ele>
        <time>2015-01-25T09:52:57Z</time>
      </trkpt>
      <trkpt lat="48.77895" lon="-3.34588">
        <ele>100</ele>
        <time>2015-01-25T09:52:58Z</time>
      </trkpt>
      <trkpt lat="48.77898" lon="-3.34574">
        <ele>100</ele>
        <time>2015-01-25T09:52:59Z</time>
      </trkpt>
      <trkpt lat="48.779" lon="-3.34561">
        <ele>100</ele>
        <time>2015-01-25T09:53:00Z</time>
      </trkpt>
      <trkpt lat="48.77903" lon="-3.34548">
        <ele>100</ele>
        <time>2015-01-25T09:53:01Z</time>
      </trkpt>
      <trkpt lat="48.77905" lon="-3.34535">
        <ele>100</ele>
        <time>2015-01-25T09:53:02Z</time>
      </trkpt>
      <trkpt lat="48.77908" lon="-3.34522">
        <ele>100</ele>
        <time>2015-01-25T09:53:03Z</time>
      </trkpt>
      <trkpt lat="48.77911" lon="-3.3451">
        <ele>100</ele>
        <time>2015-01-25T09:53:04Z</time>
      </trkpt>
      <trkpt lat="48.77914" lon="-3.34498">
        <ele>100</ele>
        <time>2015-01-25T09:53:05Z</time>
      </trkpt>
      <trkpt lat="48.77918" lon="-3.34485">
        <ele>100</ele>
        <time>2015-01-25T09:53:06Z</time>
      </trkpt>
      <trkpt lat="48.77921" lon="-3.34472">
        <ele>100</ele>
        <time>2015-01-25T09:53:07Z</time>
      </trkpt>
      <trkpt lat="48.77925" lon="-3.3446">
        <ele>100</ele>
        <time>2015-01-25T09:53:08Z</time>
      </trkpt>
      <trkpt lat="48.77928" lon="-3.34447">
        <ele>100</ele>
        <time>2015-01-25T09:53:09Z</time>
      </trkpt>
      <trkpt lat="48.77932" lon="-3.34435">
        <ele>100</ele>
        <time>2015-01-25T09:53:10Z</time>
      </trkpt>
      <trkpt lat="48.77936" lon="-3.34422">
        <ele>99</ele>
        <time>2015-01-25T09:53:11Z</time>
      </trkpt>
      <trkpt lat="48.77939" lon="-3.34409">
        <ele>99</ele>
        <time>2015-01-25T09:53:12Z</time>
      </trkpt>
      <trkpt lat="48.77943" lon="-3.34397">
        <ele>99</ele>
        <time>2015-01-25T09:53:13Z</time>
      </trkpt>
      <trkpt lat="48.77947" lon="-3.34384">
        <ele>99</ele>
        <time>2015-01-25T09:53:14Z</time>
      </trkpt>
      <trkpt lat="48.77951" lon="-3.34373">
        <ele>99</ele>
        <time>2015-01-25T09:53:15Z</time>
      </trkpt>
      <trkpt lat="48.77956" lon="-3.34361">
        <ele>99</ele>
        <time>2015-01-25T09:53:16Z</time>
      </trkpt>
      <trkpt lat="48.77961" lon="-3.34349">
        <ele>99</ele>
        <time>2015-01-25T09:53:17Z</time>
      </trkpt>
      <trkpt lat="48.77966" lon="-3.34338">
        <ele>99</ele>
        <time>2015-01-25T09:53:18Z</time>
      </trkpt>
      <trkpt lat="48.77971" lon="-3.34327">
        <ele>99</ele>
        <time>2015-01-25T09:53:19Z</time>
      </trkpt>
      <trkpt lat="48.77975" lon="-3.34315">
        <ele>99</ele>
        <time>2015-01-25T09:53:20Z</time>
      </trkpt>
      <trkpt lat="48.7798" lon="-3.34304">
        <ele>99</ele>
        <time>2015-01-25T09:53:21Z</time>
      </trkpt>
      <trkpt lat="48.77985" lon="-3.34293">
        <ele>99</ele>
        <time>2015-01-25T09:53:22Z</time>
      </trkpt>
      <trkpt lat="48.7799" lon="-3.34281">
        <ele>99</ele>
        <time>2015-01-25T09:53:23Z</time>
      </trkpt>
      <trkpt lat="48.77994" lon="-3.34269">
        <ele>99</ele>
        <time>2015-01-25T09:53:24Z</time>
      </trkpt>
      <trkpt lat="48.77998" lon="-3.34257">
        <ele>99</ele>
        <time>2015-01-25T09:53:25Z</time>
      </trkpt>
      <trkpt lat="48.78001" lon="-3.34245">
        <ele>99</ele>
        <time>2015-01-25T09:53:26Z</time>
      </trkpt>
      <trkpt lat="48.78004" lon="-3.34233">
        <ele>99</ele>
        <time>2015-01-25T09:53:27Z</time>
      </trkpt>
      <trkpt lat="48.78007" lon="-3.3422">
        <ele>99</ele>
        <time>2015-01-25T09:53:28Z</time>
      </trkpt>
      <trkpt lat="48.78009" lon="-3.34207">
        <ele>99</ele>
        <time>2015-01-25T09:53:29Z</time>
      </trkpt>
      <trkpt lat="48.78011" lon="-3.34194">
        <ele>99</ele>
        <time>2015-01-25T09:53:30Z</time>
      </trkpt>
      <trkpt lat="48.78013" lon="-3.34181">
        <ele>99</ele>
        <time>2015-01-25T09:53:31Z</time>
      </trkpt>
      <trkpt lat="48.78014" lon="-3.34167">
        <ele>99</ele>
        <time>2015-01-25T09:53:32Z</time>
      </trkpt>
      <trkpt lat="48.78015" lon="-3.34153">
        <ele>99</ele>
        <time>2015-01-25T09:53:33Z</time>
      </trkpt>
      <trkpt lat="48.78016" lon="-3.3414">
        <ele>99</ele>
        <time>2015-01-25T09:53:34Z</time>
      </trkpt>
      <trkpt lat="48.78017" lon="-3.34126">
        <ele>99</ele>
        <time>2015-01-25T09:53:35Z</time>
      </trkpt>
      <trkpt lat="48.78017" lon="-3.34113">
        <ele>99</ele>
        <time>2015-01-25T09:53:36Z</time>
      </trkpt>
      <trkpt lat="48.78019" lon="-3.341">
        <ele>99</ele>
        <time>2015-01-25T09:53:37Z</time>
      </trkpt>
      <trkpt lat="48.7802" lon="-3.34088">
        <ele>99</ele>
        <time>2015-01-25T09:53:38Z</time>
      </trkpt>
      <trkpt lat="48.78023" lon="-3.34076">
        <ele>99</ele>
        <time>2015-01-25T09:53:39Z</time>
      </trkpt>
      <trkpt lat="48.78025" lon="-3.34065">
        <ele>99</ele>
        <time>2015-01-25T09:53:40Z</time>
      </trkpt>
      <trkpt lat="48.78028" lon="-3.34054">
        <ele>99</ele>
        <time>2015-01-25T09:53:41Z</time>
      </trkpt>
      <trkpt lat="48.78031" lon="-3.34043">
        <ele>99</ele>
        <time>2015-01-25T09:53:42Z</time>
      </trkpt>
      <trkpt lat="48.78034" lon="-3.34033">
        <ele>99</ele>
        <time>2015-01-25T09:53:43Z</time>
      </trkpt>
      <trkpt lat="48.78037" lon="-3.34022">
        <ele>99</ele>
        <time>2015-01-25T09:53:44Z</time>
      </trkpt>
      <trkpt lat="48.7804" lon="-3.3401">
        <ele>99</ele>
        <time>2015-01-25T09:53:45Z</time>
      </trkpt>
      <trkpt lat="48.78042" lon="-3.33999">
        <ele>99</ele>
        <time>2015-01-25T09:53:46Z</time>
      </trkpt>
      <trkpt lat="48.78044" lon="-3.33987">
        <ele>99</ele>
        <time>2015-01-25T09:53:47Z</time>
      </trkpt>
      <trkpt lat="48.78047" lon="-3.33975">
        <ele>99</ele>
        <time>2015-01-25T09:53:48Z</time>
      </trkpt>
      <trkpt lat="48.78049" lon="-3.33962">
        <ele>99</ele>
        <time>2015-01-25T09:53:49Z</time>
      </trkpt>
      <trkpt lat="48.78051" lon="-3.3395">
        <ele>99</ele>
        <time>2015-01-25T09:53:50Z</time>
      </trkpt>
      <trkpt lat="48.78053" lon="-3.33937">
        <ele>99</ele>
        <time>2015-01-25T09:53:51Z</time>
      </trkpt>
      <trkpt lat="48.78056" lon="-3.33925">
        <ele>99</ele>
        <time>2015-01-25T09:53:52Z</time>
      </trkpt>
      <trkpt lat="48.78058" lon="-3.33912">
        <ele>99</ele>
        <time>2015-01-25T09:53:53Z</time>
      </trkpt>
      <trkpt lat="48.78061" lon="-3.33899">
        <ele>99</ele>
        <time>2015-01-25T09:53:54Z</time>
      </trkpt>
      <trkpt lat="48.78064" lon="-3.33885">
        <ele>99</ele>
        <time>2015-01-25T09:53:55Z</time>
      </trkpt>
      <trkpt lat="48.78067" lon="-3.33872">
        <ele>99</ele>
        <time>2015-01-25T09:53:56Z</time>
      </trkpt>
      <trkpt lat="48.7807" lon="-3.33858">
        <ele>99</ele>
        <time>2015-01-25T09:53:57Z</time>
      </trkpt>
      <trkpt lat="48.78073" lon="-3.33843">
        <ele>99</ele>
        <time>2015-01-25T09:53:58Z</time>
      </trkpt>
      <trkpt lat="48.78075" lon="-3.33828">
        <ele>99</ele>
        <time>2015-01-25T09:53:59Z</time>
      </trkpt>
      <trkpt lat="48.78078" lon="-3.33812">
        <ele>99</ele>
        <time>2015-01-25T09:54:00Z</time>
      </trkpt>
      <trkpt lat="48.78081" lon="-3.33797">
        <ele>99</ele>
        <time>2015-01-25T09:54:01Z</time>
      </trkpt>
      <trkpt lat="48.78084" lon="-3.33782">
        <ele>99</ele>
        <time>2015-01-25T09:54:02Z</time>
      </trkpt>
      <trkpt lat="48.78087" lon="-3.33767">
        <ele>99</ele>
        <time>2015-01-25T09:54:03Z</time>
      </trkpt>
      <trkpt lat="48.78091" lon="-3.33753">
        <ele>98</ele>
        <time>2015-01-25T09:54:04Z</time>
      </trkpt>
      <trkpt lat="48.78094" lon="-3.33739">
        <ele>98</ele>
        <time>2015-01-25T09:54:05Z</time>
      </trkpt>
      <trkpt lat="48.78098" lon="-3.33725">
        <ele>98</ele>
        <time>2015-01-25T09:54:06Z</time>
      </trkpt>
      <trkpt lat="48.78101" lon="-3.33712">
        <ele>98</ele>
        <time>2015-01-25T09:54:07Z</time>
      </trkpt>
      <trkpt lat="48.78105" lon="-3.33699">
        <ele>98</ele>
        <time>2015-01-25T09:54:08Z</time>
      </trkpt>
      <trkpt lat="48.78109" lon="-3.33688">
        <ele>98</ele>
        <time>2015-01-25T09:54:09Z</time>
      </trkpt>
      <trkpt lat="48.78113" lon="-3.33676">
        <ele>98</ele>
        <time>2015-01-25T09:54:10Z</time>
      </trkpt>
      <trkpt lat="48.78118" lon="-3.33664">
        <ele>98</ele>
        <time>2015-01-25T09:54:11Z</time>
      </trkpt>
      <trkpt lat="48.78123" lon="-3.33651">
        <ele>98</ele>
        <time>2015-01-25T09:54:12Z</time>
      </trkpt>
      <trkpt lat="48.78128" lon="-3.3364">
        <ele>98</ele>
        <time>2015-01-25T09:54:13Z</time>
      </trkpt>
      <trkpt lat="48.78132" lon="-3.33627">
        <ele>98</ele>
        <time>2015-01-25T09:54:14Z</time>
      </trkpt>
      <trkpt lat="48.78136" lon="-3.33614">
        <ele>98</ele>
        <time>2015-01-25T09:54:15Z</time>
      </trkpt>
      <trkpt lat="48.7814" lon="-3.33601">
        <ele>98</ele>
        <time>2015-01-25T09:54:16Z</time>
      </trkpt>
      <trkpt lat="48.78144" lon="-3.33588">
        <ele>98</ele>
        <time>2015-01-25T09:54:17Z</time>
      </trkpt>
      <trkpt lat="48.78148" lon="-3.33575">
        <ele>98</ele>
        <time>2015-01-25T09:54:18Z</time>
      </trkpt>
      <trkpt lat="48.78152" lon="-3.33563">
        <ele>98</ele>
        <time>2015-01-25T09:54:19Z</time>
      </trkpt>
      <trkpt lat="48.78156" lon="-3.33552">
        <ele>98</ele>
        <time>2015-01-25T09:54:20Z</time>
      </trkpt>
      <trkpt lat="48.7816" lon="-3.33541">
        <ele>98</ele>
        <time>2015-01-25T09:54:21Z</time>
      </trkpt>
      <trkpt lat="48.78164" lon="-3.33531">
        <ele>98</ele>
        <time>2015-01-25T09:54:22Z</time>
      </trkpt>
      <trkpt lat="48.78168" lon="-3.33521">
        <ele>98</ele>
        <time>2015-01-25T09:54:23Z</time>
      </trkpt>
      <trkpt lat="48.78173" lon="-3.33512">
        <ele>98</ele>
        <time>2015-01-25T09:54:24Z</time>
      </trkpt>
      <trkpt lat="48.78177" lon="-3.33503">
        <ele>98</ele>
        <time>2015-01-25T09:54:25Z</time>
      </trkpt>
      <trkpt lat="48.78182" lon="-3.33493">
        <ele>98</ele>
        <time>2015-01-25T09:54:26Z</time>
      </trkpt>
      <trkpt lat="48.78188" lon="-3.33485">
        <ele>98</ele>
        <time>2015-01-25T09:54:27Z</time>
      </trkpt>
      <trkpt lat="48.78194" lon="-3.33476">
        <ele>98</ele>
        <time>2015-01-25T09:54:28Z</time>
      </trkpt>
      <trkpt lat="48.782" lon="-3.33467">
        <ele>98</ele>
        <time>2015-01-25T09:54:29Z</time>
      </trkpt>
      <trkpt lat="48.78207" lon="-3.3346">
        <ele>98</ele>
        <time>2015-01-25T09:54:30Z</time>
      </trkpt>
      <trkpt lat="48.78214" lon="-3.33452">
        <ele>98</ele>
        <time>2015-01-25T09:54:31Z</time>
      </trkpt>
      <trkpt lat="48.7822" lon="-3.33445">
        <ele>98</ele>
        <time>2015-01-25T09:54:32Z</time>
      </trkpt>
      <trkpt lat="48.78227" lon="-3.33437">
        <ele>98</ele>
        <time>2015-01-25T09:54:33Z</time>
      </trkpt>
      <trkpt lat="48.78234" lon="-3.3343">
        <ele>98</ele>
        <time>2015-01-25T09:54:34Z</time>
      </trkpt>
      <trkpt lat="48.7824" lon="-3.33423">
        <ele>98</ele>
        <time>2015-01-25T09:54:35Z</time>
      </trkpt>
      <trkpt lat="48.78247" lon="-3.33416">
        <ele>98</ele>
        <time>2015-01-25T09:54:36Z</time>
      </trkpt>
      <trkpt lat="48.78252" lon="-3.33408">
        <ele>98</ele>
        <time>2015-01-25T09:54:37Z</time>
      </trkpt>
      <trkpt lat="48.78258" lon="-3.33399">
        <ele>98</ele>
        <time>2015-01-25T09:54:38Z</time>
      </trkpt>
      <trkpt lat="48.78263" lon="-3.3339">
        <ele>98</ele>
        <time>2015-01-25T09:54:39Z</time>
      </trkpt>
      <trkpt lat="48.78268" lon="-3.3338">
        <ele>98</ele>
        <time>2015-01-25T09:54:40Z</time>
      </trkpt>
      <trkpt lat="48.78273" lon="-3.33371">
        <ele>98</ele>
        <time>2015-01-25T09:54:41Z</time>
      </trkpt>
      <trkpt lat="48.78278" lon="-3.33361">
        <ele>98</ele>
        <time>2015-01-25T09:54:42Z</time>
      </trkpt>
      <trkpt lat="48.78284" lon="-3.3335">
        <ele>98</ele>
        <time>2015-01-25T09:54:43Z</time>
      </trkpt>
      <trkpt lat="48.78289" lon="-3.3334">
        <ele>98</ele>
        <time>2015-01-25T09:54:44Z</time>
      </trkpt>
      <trkpt lat="48.78294" lon="-3.3333">
        <ele>98</ele>
        <time>2015-01-25T09:54:45Z</time>
      </trkpt>
      <trkpt lat="48.78299" lon="-3.3332">
        <ele>98</ele>
        <time>2015-01-25T09:54:46Z</time>
      </trkpt>
      <trkpt lat="48.78305" lon="-3.3331">
        <ele>98</ele>
        <time>2015-01-25T09:54:47Z</time>
      </trkpt>
      <trkpt lat="48.7831" lon="-3.33299">
        <ele>98</ele>
        <time>2015-01-25T09:54:48Z</time>
      </trkpt>
      <trkpt lat="48.78315" lon="-3.33289">
        <ele>98</ele>
        <time>2015-01-25T09:54:49Z</time>
      </trkpt>
      <trkpt lat="48.7832" lon="-3.33278">
        <ele>98</ele>
        <time>2015-01-25T09:54:50Z</time>
      </trkpt>
      <trkpt lat="48.78326" lon="-3.33268">
        <ele>98</ele>
        <time>2015-01-25T09:54:51Z</time>
      </trkpt>
      <trkpt lat="48.78331" lon="-3.33257">
        <ele>98</ele>
        <time>2015-01-25T09:54:52Z</time>
      </trkpt>
      <trkpt lat="48.78335" lon="-3.33246">
        <ele>98</ele>
        <time>2015-01-25T09:54:53Z</time>
      </trkpt>
      <trkpt lat="48.7834" lon="-3.33236">
        <ele>98</ele>
        <time>2015-01-25T09:54:54Z</time>
      </trkpt>
      <trkpt lat="48.78345" lon="-3.33225">
        <ele>98</ele>
        <time>2015-01-25T09:54:55Z</time>
      </trkpt>
      <trkpt lat="48.7835" lon="-3.33215">
        <ele>98</ele>
        <time>2015-01-25T09:54:56Z</time>
      </trkpt>
      <trkpt lat="48.78354" lon="-3.33205">
        <ele>98</ele>
        <time>2015-01-25T09:54:57Z</time>
      </trkpt>
      <trkpt lat="48.78359" lon="-3.33195">
        <ele>98</ele>
        <time>2015-01-25T09:54:58Z</time>
      </trkpt>
      <trkpt lat="48.78363" lon="-3.33185">
        <ele>98</ele>
        <time>2015-01-25T09:54:59Z</time>
      </trkpt>
      <trkpt lat="48.78368" lon="-3.33175">
        <ele>98</ele>
        <time>2015-01-25T09:55:00Z</time>
      </trkpt>
      <trkpt lat="48.78372" lon="-3.33166">
        <ele>98</ele>
        <time>2015-01-25T09:55:01Z</time>
      </trkpt>
      <trkpt lat="48.78376" lon="-3.33156">
        <ele>98</ele>
        <time>2015-01-25T09:55:02Z</time>
      </trkpt>
      <trkpt lat="48.78381" lon="-3.33147">
        <ele>98</ele>
        <time>2015-01-25T09:55:03Z</time>
      </trkpt>
      <trkpt lat="48.78385" lon="-3.33137">
        <ele>98</ele>
        <time>2015-01-25T09:55:04Z</time>
      </trkpt>
      <trkpt lat="48.78389" lon="-3.33127">
        <ele>98</ele>
        <time>2015-01-25T09:55:05Z</time>
      </trkpt>
      <trkpt lat="48.78394" lon="-3.33117">
        <ele>98</ele>
        <time>2015-01-25T09:55:06Z</time>
      </trkpt>
      <trkpt lat="48.78398" lon="-3.33106">
        <ele>98</ele>
        <time>2015-01-25T09:55:07Z</time>
      </trkpt>
      <trkpt lat="48.78403" lon="-3.33096">
        <ele>98</ele>
        <time>2015-01-25T09:55:08Z</time>
      </trkpt>
      <trkpt lat="48.78407" lon="-3.33085">
        <ele>98</ele>
        <time>2015-01-25T09:55:09Z</time>
      </trkpt>
      <trkpt lat="48.78412" lon="-3.33075">
        <ele>98</ele>
        <time>2015-01-25T09:55:10Z</time>
      </trkpt>
      <trkpt lat="48.78416" lon="-3.33064">
        <ele>98</ele>
        <time>2015-01-25T09:55:11Z</time>
      </trkpt>
      <trkpt lat="48.78421" lon="-3.33053">
        <ele>98</ele>
        <time>2015-01-25T09:55:12Z</time>
      </trkpt>
      <trkpt lat="48.78426" lon="-3.33042">
        <ele>98</ele>
        <time>2015-01-25T09:55:13Z</time>
      </trkpt>
      <trkpt lat="48.7843" lon="-3.33032">
        <ele>98</ele>
        <time>2015-01-25T09:55:14Z</time>
      </trkpt>
      <trkpt lat="48.78435" lon="-3.33022">
        <ele>98</ele>
        <time>2015-01-25T09:55:15Z</time>
      </trkpt>
      <trkpt lat="48.78439" lon="-3.33012">
        <ele>98</ele>
        <time>2015-01-25T09:55:16Z</time>
      </trkpt>
      <trkpt lat="48.78444" lon="-3.33002">
        <ele>98</ele>
        <time>2015-01-25T09:55:17Z</time>
      </trkpt>
      <trkpt lat="48.78448" lon="-3.32992">
        <ele>98</ele>
        <time>2015-01-25T09:55:18Z</time>
      </trkpt>
      <trkpt lat="48.78453" lon="-3.32981">
        <ele>98</ele>
        <time>2015-01-25T09:55:19Z</time>
      </trkpt>
      <trkpt lat="48.78457" lon="-3.32972">
        <ele>98</ele>
        <time>2015-01-25T09:55:20Z</time>
      </trkpt>
      <trkpt lat="48.78462" lon="-3.32962">
        <ele>98</ele>
        <time>2015-01-25T09:55:21Z</time>
      </trkpt>
      <trkpt lat="48.78467" lon="-3.32954">
        <ele>98</ele>
        <time>2015-01-25T09:55:22Z</time>
      </trkpt>
      <trkpt lat="48.78473" lon="-3.32947">
        <ele>98</ele>
        <time>2015-01-25T09:55:23Z</time>
      </trkpt>
      <trkpt lat="48.78478" lon="-3.32942">
        <ele>98</ele>
        <time>2015-01-25T09:55:24Z</time>
      </trkpt>
      <trkpt lat="48.78484" lon="-3.32937">
        <ele>98</ele>
        <time>2015-01-25T09:55:25Z</time>
      </trkpt>
      <trkpt lat="48.78489" lon="-3.32931">
        <ele>98</ele>
        <time>2015-01-25T09:55:26Z</time>
      </trkpt>
      <trkpt lat="48.78494" lon="-3.32924">
        <ele>98</ele>
        <time>2015-01-25T09:55:27Z</time>
      </trkpt>
      <trkpt lat="48.78497" lon="-3.32915">
        <ele>98</ele>
        <time>2015-01-25T09:55:28Z</time>
      </trkpt>
      <trkpt lat="48.785" lon="-3.32906">
        <ele>98</ele>
        <time>2015-01-25T09:55:29Z</time>
      </trkpt>
      <trkpt lat="48.78505" lon="-3.32899">
        <ele>98</ele>
        <time>2015-01-25T09:55:30Z</time>
      </trkpt>
      <trkpt lat="48.7851" lon="-3.32894">
        <ele>98</ele>
        <time>2015-01-25T09:55:31Z</time>
      </trkpt>
      <trkpt lat="48.78516" lon="-3.32892">
        <ele>98</ele>
        <time>2015-01-25T09:55:32Z</time>
      </trkpt>
      <trkpt lat="48.78522" lon="-3.32895">
        <ele>98</ele>
        <time>2015-01-25T09:55:33Z</time>
      </trkpt>
      <trkpt lat="48.78527" lon="-3.32901">
        <ele>98</ele>
        <time>2015-01-25T09:55:34Z</time>
      </trkpt>
      <trkpt lat="48.7853" lon="-3.32909">
        <ele>98</ele>
        <time>2015-01-25T09:55:35Z</time>
      </trkpt>
      <trkpt lat="48.78532" lon="-3.32918">
        <ele>98</ele>
        <time>2015-01-25T09:55:36Z</time>
      </trkpt>
      <trkpt lat="48.78531" lon="-3.32927">
        <ele>98</ele>
        <time>2015-01-25T09:55:37Z</time>
      </trkpt>
      <trkpt lat="48.7853" lon="-3.32937">
        <ele>98</ele>
        <time>2015-01-25T09:55:38Z</time>
      </trkpt>
      <trkpt lat="48.78529" lon="-3.32946">
        <ele>98</ele>
        <time>2015-01-25T09:55:39Z</time>
      </trkpt>
      <trkpt lat="48.78529" lon="-3.32956">
        <ele>98</ele>
        <time>2015-01-25T09:55:40Z</time>
      </trkpt>
      <trkpt lat="48.78529" lon="-3.32966">
        <ele>98</ele>
        <time>2015-01-25T09:55:41Z</time>
      </trkpt>
      <trkpt lat="48.78531" lon="-3.32976">
        <ele>98</ele>
        <time>2015-01-25T09:55:42Z</time>
      </trkpt>
      <trkpt lat="48.78533" lon="-3.32986">
        <ele>98</ele>
        <time>2015-01-25T09:55:43Z</time>
      </trkpt>
      <trkpt lat="48.78536" lon="-3.32995">
        <ele>98</ele>
        <time>2015-01-25T09:55:44Z</time>
      </trkpt>
      <trkpt lat="48.78539" lon="-3.33005">
        <ele>98</ele>
        <time>2015-01-25T09:55:45Z</time>
      </trkpt>
      <trkpt lat="48.78541" lon="-3.33014">
        <ele>98</ele>
        <time>2015-01-25T09:55:46Z</time>
      </trkpt>
      <trkpt lat="48.78545" lon="-3.33024">
        <ele>98</ele>
        <time>2015-01-25T09:55:47Z</time>
      </trkpt>
      <trkpt lat="48.78548" lon="-3.33033">
        <ele>98</ele>
        <time>2015-01-25T09:55:48Z</time>
      </trkpt>
      <trkpt lat="48.78552" lon="-3.33042">
        <ele>98</ele>
        <time>2015-01-25T09:55:49Z</time>
      </trkpt>
      <trkpt lat="48.78555" lon="-3.3305">
        <ele>98</ele>
        <time>2015-01-25T09:55:50Z</time>
      </trkpt>
      <trkpt lat="48.78559" lon="-3.33059">
        <ele>98</ele>
        <time>2015-01-25T09:55:51Z</time>
      </trkpt>
      <trkpt lat="48.78563" lon="-3.33067">
        <ele>98</ele>
        <time>2015-01-25T09:55:52Z</time>
      </trkpt>
      <trkpt lat="48.78567" lon="-3.33076">
        <ele>98</ele>
        <time>2015-01-25T09:55:53Z</time>
      </trkpt>
      <trkpt lat="48.78571" lon="-3.33085">
        <ele>98</ele>
        <time>2015-01-25T09:55:54Z</time>
      </trkpt>
      <trkpt lat="48.78575" lon="-3.33094">
        <ele>98</ele>
        <time>2015-01-25T09:55:55Z</time>
      </trkpt>
      <trkpt lat="48.7858" lon="-3.33102">
        <ele>98</ele>
        <time>2015-01-25T09:55:56Z</time>
      </trkpt>
      <trkpt lat="48.78585" lon="-3.33111">
        <ele>98</ele>
        <time>2015-01-25T09:55:57Z</time>
      </trkpt>
      <trkpt lat="48.7859" lon="-3.33119">
        <ele>98</ele>
        <time>2015-01-25T09:55:58Z</time>
      </trkpt>
      <trkpt lat="48.78595" lon="-3.33127">
        <ele>98</ele>
        <time>2015-01-25T09:55:59Z</time>
      </trkpt>
      <trkpt lat="48.78601" lon="-3.33136">
        <ele>98</ele>
        <time>2015-01-25T09:56:00Z</time>
      </trkpt>
      <trkpt lat="48.78606" lon="-3.33145">
        <ele>98</ele>
        <time>2015-01-25T09:56:01Z</time>
      </trkpt>
      <trkpt lat="48.78612" lon="-3.33154">
        <ele>98</ele>
        <time>2015-01-25T09:56:02Z</time>
      </trkpt>
      <trkpt lat="48.78618" lon="-3.33163">
        <ele>98</ele>
        <time>2015-01-25T09:56:03Z</time>
      </trkpt>
      <trkpt lat="48.78624" lon="-3.33173">
        <ele>98</ele>
        <time>2015-01-25T09:56:04Z</time>
      </trkpt>
      <trkpt lat="48.7863" lon="-3.33182">
        <ele>98</ele>
        <time>2015-01-25T09:56:05Z</time>
      </trkpt>
      <trkpt lat="48.78637" lon="-3.33192">
        <ele>98</ele>
        <time>2015-01-25T09:56:06Z</time>
      </trkpt>
      <trkpt lat="48.78643" lon="-3.33202">
        <ele>98</ele>
        <time>2015-01-25T09:56:07Z</time>
      </trkpt>
      <trkpt lat="48.7865" lon="-3.33212">
        <ele>98</ele>
        <time>2015-01-25T09:56:08Z</time>
      </trkpt>
      <trkpt lat="48.78656" lon="-3.33222">
        <ele>98</ele>
        <time>2015-01-25T09:56:09Z</time>
      </trkpt>
      <trkpt lat="48.78663" lon="-3.33232">
        <ele>97</ele>
        <time>2015-01-25T09:56:10Z</time>
      </trkpt>
      <trkpt lat="48.78671" lon="-3.3324">
        <ele>97</ele>
        <time>2015-01-25T09:56:11Z</time>
      </trkpt>
      <trkpt lat="48.78679" lon="-3.33248">
        <ele>97</ele>
        <time>2015-01-25T09:56:12Z</time>
      </trkpt>
      <trkpt lat="48.78687" lon="-3.33255">
        <ele>97</ele>
        <time>2015-01-25T09:56:13Z</time>
      </trkpt>
      <trkpt lat="48.78695" lon="-3.33261">
        <ele>97</ele>
        <time>2015-01-25T09:56:14Z</time>
      </trkpt>
      <trkpt lat="48.78703" lon="-3.33267">
        <ele>96</ele>
        <time>2015-01-25T09:56:15Z</time>
      </trkpt>
      <trkpt lat="48.78712" lon="-3.33273">
        <ele>96</ele>
        <time>2015-01-25T09:56:16Z</time>
      </trkpt>
      <trkpt lat="48.78721" lon="-3.3328">
        <ele>96</ele>
        <time>2015-01-25T09:56:17Z</time>
      </trkpt>
      <trkpt lat="48.7873" lon="-3.33286">
        <ele>96</ele>
        <time>2015-01-25T09:56:18Z</time>
      </trkpt>
      <trkpt lat="48.78739" lon="-3.33293">
        <ele>95</ele>
        <time>2015-01-25T09:56:19Z</time>
      </trkpt>
      <trkpt lat="48.78747" lon="-3.33301">
        <ele>95</ele>
        <time>2015-01-25T09:56:20Z</time>
      </trkpt>
      <trkpt lat="48.78756" lon="-3.3331">
        <ele>95</ele>
        <time>2015-01-25T09:56:21Z</time>
      </trkpt>
      <trkpt lat="48.78764" lon="-3.33319">
        <ele>95</ele>
        <time>2015-01-25T09:56:22Z</time>
      </trkpt>
      <trkpt lat="48.78772" lon="-3.33328">
        <ele>95</ele>
        <time>2015-01-25T09:56:23Z</time>
      </trkpt>
      <trkpt lat="48.78779" lon="-3.33338">
        <ele>95</ele>
        <time>2015-01-25T09:56:24Z</time>
      </trkpt>
      <trkpt lat="48.78786" lon="-3.33348">
        <ele>95</ele>
        <time>2015-01-25T09:56:25Z</time>
      </trkpt>
      <trkpt lat="48.78793" lon="-3.33359">
        <ele>95</ele>
        <time>2015-01-25T09:56:26Z</time>
      </trkpt>
      <trkpt lat="48.788" lon="-3.33369">
        <ele>95</ele>
        <time>2015-01-25T09:56:27Z</time>
      </trkpt>
      <trkpt lat="48.78806" lon="-3.3338">
        <ele>95</ele>
        <time>2015-01-25T09:56:28Z</time>
      </trkpt>
      <trkpt lat="48.78812" lon="-3.33391">
        <ele>95</ele>
        <time>2015-01-25T09:56:29Z</time>
      </trkpt>
      <trkpt lat="48.78817" lon="-3.33401">
        <ele>95</ele>
        <time>2015-01-25T09:56:30Z</time>
      </trkpt>
      <trkpt lat="48.78822" lon="-3.33412">
        <ele>95</ele>
        <time>2015-01-25T09:56:31Z</time>
      </trkpt>
      <trkpt lat="48.78827" lon="-3.33422">
        <ele>95</ele>
        <time>2015-01-25T09:56:32Z</time>
      </trkpt>
      <trkpt lat="48.78832" lon="-3.33433">
        <ele>95</ele>
        <time>2015-01-25T09:56:33Z</time>
      </trkpt>
      <trkpt lat="48.78837" lon="-3.33444">
        <ele>95</ele>
        <time>2015-01-25T09:56:34Z</time>
      </trkpt>
      <trkpt lat="48.78842" lon="-3.33454">
        <ele>95</ele>
        <time>2015-01-25T09:56:35Z</time>
      </trkpt>
      <trkpt lat="48.78848" lon="-3.33465">
        <ele>95</ele>
        <time>2015-01-25T09:56:36Z</time>
      </trkpt>
      <trkpt lat="48.78852" lon="-3.33475">
        <ele>95</ele>
        <time>2015-01-25T09:56:37Z</time>
      </trkpt>
      <trkpt lat="48.78857" lon="-3.33487">
        <ele>95</ele>
        <time>2015-01-25T09:56:38Z</time>
      </trkpt>
      <trkpt lat="48.78862" lon="-3.33498">
        <ele>95</ele>
        <time>2015-01-25T09:56:39Z</time>
      </trkpt>
      <trkpt lat="48.78866" lon="-3.33509">
        <ele>95</ele>
        <time>2015-01-25T09:56:40Z</time>
      </trkpt>
      <trkpt lat="48.7887" lon="-3.3352">
        <ele>95</ele>
        <time>2015-01-25T09:56:41Z</time>
      </trkpt>
      <trkpt lat="48.78874" lon="-3.33532">
        <ele>95</ele>
        <time>2015-01-25T09:56:42Z</time>
      </trkpt>
      <trkpt lat="48.78878" lon="-3.33544">
        <ele>95</ele>
        <time>2015-01-25T09:56:43Z</time>
      </trkpt>
      <trkpt lat="48.78883" lon="-3.33556">
        <ele>95</ele>
        <time>2015-01-25T09:56:44Z</time>
      </trkpt>
      <trkpt lat="48.78887" lon="-3.33568">
        <ele>95</ele>
        <time>2015-01-25T09:56:45Z</time>
      </trkpt>
      <trkpt lat="48.78891" lon="-3.3358">
        <ele>94</ele>
        <time>2015-01-25T09:56:46Z</time>
      </trkpt>
      <trkpt lat="48.78895" lon="-3.33593">
        <ele>94</ele>
        <time>2015-01-25T09:56:47Z</time>
      </trkpt>
      <trkpt lat="48.78899" lon="-3.33605">
        <ele>94</ele>
        <time>2015-01-25T09:56:48Z</time>
      </trkpt>
      <trkpt lat="48.78903" lon="-3.33617">
        <ele>94</ele>
        <time>2015-01-25T09:56:49Z</time>
      </trkpt>
      <trkpt lat="48.78907" lon="-3.3363">
        <ele>94</ele>
        <time>2015-01-25T09:56:50Z</time>
      </trkpt>
      <trkpt lat="48.78911" lon="-3.33642">
        <ele>94</ele>
        <time>2015-01-25T09:56:51Z</time>
      </trkpt>
      <trkpt lat="48.78915" lon="-3.33654">
        <ele>94</ele>
        <time>2015-01-25T09:56:52Z</time>
      </trkpt>
      <trkpt lat="48.78919" lon="-3.33666">
        <ele>93</ele>
        <time>2015-01-25T09:56:53Z</time>
      </trkpt>
      <trkpt lat="48.78923" lon="-3.33679">
        <ele>93</ele>
        <time>2015-01-25T09:56:54Z</time>
      </trkpt>
      <trkpt lat="48.78926" lon="-3.33692">
        <ele>93</ele>
        <time>2015-01-25T09:56:55Z</time>
      </trkpt>
      <trkpt lat="48.78929" lon="-3.33705">
        <ele>93</ele>
        <time>2015-01-25T09:56:56Z</time>
      </trkpt>
      <trkpt lat="48.78931" lon="-3.33719">
        <ele>92</ele>
        <time>2015-01-25T09:56:57Z</time>
      </trkpt>
      <trkpt lat="48.78933" lon="-3.33733">
        <ele>92</ele>
        <time>2015-01-25T09:56:58Z</time>
      </trkpt>
      <trkpt lat="48.78935" lon="-3.33747">
        <ele>92</ele>
        <time>2015-01-25T09:56:59Z</time>
      </trkpt>
      <trkpt lat="48.78936" lon="-3.33762">
        <ele>91</ele>
        <time>2015-01-25T09:57:00Z</time>
      </trkpt>
      <trkpt lat="48.78936" lon="-3.33777">
        <ele>91</ele>
        <time>2015-01-25T09:57:01Z</time>
      </trkpt>
      <trkpt lat="48.78937" lon="-3.33792">
        <ele>90</ele>
        <time>2015-01-25T09:57:02Z</time>
      </trkpt>
      <trkpt lat="48.78938" lon="-3.33824">
        <ele>89</ele>
        <time>2015-01-25T09:57:04Z</time>
      </trkpt>
      <trkpt lat="48.78938" lon="-3.3384">
        <ele>89</ele>
        <time>2015-01-25T09:57:05Z</time>
      </trkpt>
      <trkpt lat="48.78938" lon="-3.33916">
        <ele>88</ele>
        <time>2015-01-25T09:57:10Z</time>
      </trkpt>
      <trkpt lat="48.78939" lon="-3.33945">
        <ele>88</ele>
        <time>2015-01-25T09:57:12Z</time>
      </trkpt>
      <trkpt lat="48.78939" lon="-3.33958">
        <ele>88</ele>
        <time>2015-01-25T09:57:13Z</time>
      </trkpt>
      <trkpt lat="48.7894" lon="-3.33971">
        <ele>88</ele>
        <time>2015-01-25T09:57:14Z</time>
      </trkpt>
      <trkpt lat="48.78941" lon="-3.33983">
        <ele>88</ele>
        <time>2015-01-25T09:57:15Z</time>
      </trkpt>
      <trkpt lat="48.78943" lon="-3.33994">
        <ele>88</ele>
        <time>2015-01-25T09:57:16Z</time>
      </trkpt>
      <trkpt lat="48.78944" lon="-3.34004">
        <ele>88</ele>
        <time>2015-01-25T09:57:17Z</time>
      </trkpt>
      <trkpt lat="48.78946" lon="-3.34013">
        <ele>88</ele>
        <time>2015-01-25T09:57:18Z</time>
      </trkpt>
      <trkpt lat="48.78948" lon="-3.34022">
        <ele>88</ele>
        <time>2015-01-25T09:57:19Z</time>
      </trkpt>
      <trkpt lat="48.78951" lon="-3.34032">
        <ele>88</ele>
        <time>2015-01-25T09:57:20Z</time>
      </trkpt>
      <trkpt lat="48.78953" lon="-3.34041">
        <ele>88</ele>
        <time>2015-01-25T09:57:21Z</time>
      </trkpt>
      <trkpt lat="48.78956" lon="-3.34051">
        <ele>88</ele>
        <time>2015-01-25T09:57:22Z</time>
      </trkpt>
      <trkpt lat="48.7896" lon="-3.34061">
        <ele>88</ele>
        <time>2015-01-25T09:57:23Z</time>
      </trkpt>
      <trkpt lat="48.78963" lon="-3.34071">
        <ele>88</ele>
        <time>2015-01-25T09:57:24Z</time>
      </trkpt>
      <trkpt lat="48.78968" lon="-3.34082">
        <ele>88</ele>
        <time>2015-01-25T09:57:25Z</time>
      </trkpt>
      <trkpt lat="48.78973" lon="-3.34092">
        <ele>88</ele>
        <time>2015-01-25T09:57:26Z</time>
      </trkpt>
      <trkpt lat="48.78978" lon="-3.34102">
        <ele>88</ele>
        <time>2015-01-25T09:57:27Z</time>
      </trkpt>
      <trkpt lat="48.78983" lon="-3.34114">
        <ele>88</ele>
        <time>2015-01-25T09:57:28Z</time>
      </trkpt>
      <trkpt lat="48.78988" lon="-3.34125">
        <ele>88</ele>
        <time>2015-01-25T09:57:29Z</time>
      </trkpt>
      <trkpt lat="48.78993" lon="-3.34138">
        <ele>88</ele>
        <time>2015-01-25T09:57:30Z</time>
      </trkpt>
      <trkpt lat="48.78999" lon="-3.3415">
        <ele>88</ele>
        <time>2015-01-25T09:57:31Z</time>
      </trkpt>
      <trkpt lat="48.79004" lon="-3.34162">
        <ele>88</ele>
        <time>2015-01-25T09:57:32Z</time>
      </trkpt>
      <trkpt lat="48.7901" lon="-3.34175">
        <ele>88</ele>
        <time>2015-01-25T09:57:33Z</time>
      </trkpt>
      <trkpt lat="48.79016" lon="-3.34188">
        <ele>88</ele>
        <time>2015-01-25T09:57:34Z</time>
      </trkpt>
      <trkpt lat="48.79021" lon="-3.342">
        <ele>88</ele>
        <time>2015-01-25T09:57:35Z</time>
      </trkpt>
      <trkpt lat="48.79027" lon="-3.34213">
        <ele>88</ele>
        <time>2015-01-25T09:57:36Z</time>
      </trkpt>
      <trkpt lat="48.79034" lon="-3.34226">
        <ele>88</ele>
        <time>2015-01-25T09:57:37Z</time>
      </trkpt>
      <trkpt lat="48.7904" lon="-3.3424">
        <ele>87</ele>
        <time>2015-01-25T09:57:38Z</time>
      </trkpt>
      <trkpt lat="48.79046" lon="-3.34254">
        <ele>87</ele>
        <time>2015-01-25T09:57:39Z</time>
      </trkpt>
      <trkpt lat="48.79052" lon="-3.34267">
        <ele>86</ele>
        <time>2015-01-25T09:57:40Z</time>
      </trkpt>
      <trkpt lat="48.79059" lon="-3.34281">
        <ele>86</ele>
        <time>2015-01-25T09:57:41Z</time>
      </trkpt>
      <trkpt lat="48.79065" lon="-3.34294">
        <ele>86</ele>
        <time>2015-01-25T09:57:42Z</time>
      </trkpt>
      <trkpt lat="48.79072" lon="-3.34308">
        <ele>86</ele>
        <time>2015-01-25T09:57:43Z</time>
      </trkpt>
      <trkpt lat="48.79078" lon="-3.34322">
        <ele>86</ele>
        <time>2015-01-25T09:57:44Z</time>
      </trkpt>
      <trkpt lat="48.79084" lon="-3.34335">
        <ele>85</ele>
        <time>2015-01-25T09:57:45Z</time>
      </trkpt>
      <trkpt lat="48.79091" lon="-3.34349">
        <ele>85</ele>
        <time>2015-01-25T09:57:46Z</time>
      </trkpt>
      <trkpt lat="48.79097" lon="-3.34362">
        <ele>85</ele>
        <time>2015-01-25T09:57:47Z</time>
      </trkpt>
      <trkpt lat="48.79103" lon="-3.34375">
        <ele>85</ele>
        <time>2015-01-25T09:57:48Z</time>
      </trkpt>
      <trkpt lat="48.7911" lon="-3.34388">
        <ele>85</ele>
        <time>2015-01-25T09:57:49Z</time>
      </trkpt>
      <trkpt lat="48.79116" lon="-3.344">
        <ele>85</ele>
        <time>2015-01-25T09:57:50Z</time>
      </trkpt>
      <trkpt lat="48.79122" lon="-3.34412">
        <ele>85</ele>
        <time>2015-01-25T09:57:51Z</time>
      </trkpt>
      <trkpt lat="48.79128" lon="-3.34424">
        <ele>85</ele>
        <time>2015-01-25T09:57:52Z</time>
      </trkpt>
      <trkpt lat="48.79135" lon="-3.34435">
        <ele>85</ele>
        <time>2015-01-25T09:57:53Z</time>
      </trkpt>
      <trkpt lat="48.79143" lon="-3.34444">
        <ele>85</ele>
        <time>2015-01-25T09:57:54Z</time>
      </trkpt>
      <trkpt lat="48.7915" lon="-3.34454">
        <ele>85</ele>
        <time>2015-01-25T09:57:55Z</time>
      </trkpt>
      <trkpt lat="48.79159" lon="-3.34462">
        <ele>85</ele>
        <time>2015-01-25T09:57:56Z</time>
      </trkpt>
      <trkpt lat="48.79167" lon="-3.3447">
        <ele>85</ele>
        <time>2015-01-25T09:57:57Z</time>
      </trkpt>
      <trkpt lat="48.79176" lon="-3.34477">
        <ele>85</ele>
        <time>2015-01-25T09:57:58Z</time>
      </trkpt>
      <trkpt lat="48.79185" lon="-3.34484">
        <ele>85</ele>
        <time>2015-01-25T09:57:59Z</time>
      </trkpt>
      <trkpt lat="48.79194" lon="-3.34489">
        <ele>85</ele>
        <time>2015-01-25T09:58:00Z</time>
      </trkpt>
      <trkpt lat="48.79204" lon="-3.34494">
        <ele>85</ele>
        <time>2015-01-25T09:58:01Z</time>
      </trkpt>
      <trkpt lat="48.79213" lon="-3.34497">
        <ele>85</ele>
        <time>2015-01-25T09:58:02Z</time>
      </trkpt>
      <trkpt lat="48.79223" lon="-3.34499">
        <ele>85</ele>
        <time>2015-01-25T09:58:03Z</time>
      </trkpt>
      <trkpt lat="48.79233" lon="-3.34501">
        <ele>85</ele>
        <time>2015-01-25T09:58:04Z</time>
      </trkpt>
      <trkpt lat="48.79242" lon="-3.34503">
        <ele>85</ele>
        <time>2015-01-25T09:58:05Z</time>
      </trkpt>
      <trkpt lat="48.79252" lon="-3.34505">
        <ele>85</ele>
        <time>2015-01-25T09:58:06Z</time>
      </trkpt>
      <trkpt lat="48.79261" lon="-3.34507">
        <ele>85</ele>
        <time>2015-01-25T09:58:07Z</time>
      </trkpt>
      <trkpt lat="48.79271" lon="-3.3451">
        <ele>85</ele>
        <time>2015-01-25T09:58:08Z</time>
      </trkpt>
      <trkpt lat="48.79281" lon="-3.34513">
        <ele>85</ele>
        <time>2015-01-25T09:58:09Z</time>
      </trkpt>
      <trkpt lat="48.79291" lon="-3.34515">
        <ele>85</ele>
        <time>2015-01-25T09:58:10Z</time>
      </trkpt>
      <trkpt lat="48.79302" lon="-3.34518">
        <ele>85</ele>
        <time>2015-01-25T09:58:11Z</time>
      </trkpt>
      <trkpt lat="48.79312" lon="-3.3452">
        <ele>85</ele>
        <time>2015-01-25T09:58:12Z</time>
      </trkpt>
      <trkpt lat="48.79322" lon="-3.34524">
        <ele>85</ele>
        <time>2015-01-25T09:58:13Z</time>
      </trkpt>
      <trkpt lat="48.79332" lon="-3.34527">
        <ele>85</ele>
        <time>2015-01-25T09:58:14Z</time>
      </trkpt>
      <trkpt lat="48.79342" lon="-3.34531">
        <ele>85</ele>
        <time>2015-01-25T09:58:15Z</time>
      </trkpt>
      <trkpt lat="48.79352" lon="-3.34536">
        <ele>85</ele>
        <time>2015-01-25T09:58:16Z</time>
      </trkpt>
      <trkpt lat="48.79362" lon="-3.34541">
        <ele>85</ele>
        <time>2015-01-25T09:58:17Z</time>
      </trkpt>
      <trkpt lat="48.79372" lon="-3.34547">
        <ele>85</ele>
        <time>2015-01-25T09:58:18Z</time>
      </trkpt>
      <trkpt lat="48.79382" lon="-3.34554">
        <ele>85</ele>
        <time>2015-01-25T09:58:19Z</time>
      </trkpt>
      <trkpt lat="48.79391" lon="-3.34562">
        <ele>85</ele>
        <time>2015-01-25T09:58:20Z</time>
      </trkpt>
      <trkpt lat="48.794" lon="-3.34571">
        <ele>85</ele>
        <time>2015-01-25T09:58:21Z</time>
      </trkpt>
      <trkpt lat="48.79409" lon="-3.34579">
        <ele>85</ele>
        <time>2015-01-25T09:58:22Z</time>
      </trkpt>
      <trkpt lat="48.79417" lon="-3.34589">
        <ele>85</ele>
        <time>2015-01-25T09:58:23Z</time>
      </trkpt>
      <trkpt lat="48.79425" lon="-3.34598">
        <ele>85</ele>
        <time>2015-01-25T09:58:24Z</time>
      </trkpt>
      <trkpt lat="48.79432" lon="-3.34609">
        <ele>85</ele>
        <time>2015-01-25T09:58:25Z</time>
      </trkpt>
      <trkpt lat="48.7944" lon="-3.34619">
        <ele>85</ele>
        <time>2015-01-25T09:58:26Z</time>
      </trkpt>
      <trkpt lat="48.79447" lon="-3.3463">
        <ele>85</ele>
        <time>2015-01-25T09:58:27Z</time>
      </trkpt>
      <trkpt lat="48.79454" lon="-3.34641">
        <ele>85</ele>
        <time>2015-01-25T09:58:28Z</time>
      </trkpt>
      <trkpt lat="48.79462" lon="-3.34652">
        <ele>85</ele>
        <time>2015-01-25T09:58:29Z</time>
      </trkpt>
      <trkpt lat="48.7947" lon="-3.34662">
        <ele>85</ele>
        <time>2015-01-25T09:58:30Z</time>
      </trkpt>
      <trkpt lat="48.79478" lon="-3.34672">
        <ele>85</ele>
        <time>2015-01-25T09:58:31Z</time>
      </trkpt>
      <trkpt lat="48.79487" lon="-3.34682">
        <ele>85</ele>
        <time>2015-01-25T09:58:32Z</time>
      </trkpt>
      <trkpt lat="48.79496" lon="-3.3469">
        <ele>85</ele>
        <time>2015-01-25T09:58:33Z</time>
      </trkpt>
      <trkpt lat="48.79505" lon="-3.34698">
        <ele>85</ele>
        <time>2015-01-25T09:58:34Z</time>
      </trkpt>
      <trkpt lat="48.79515" lon="-3.34704">
        <ele>85</ele>
        <time>2015-01-25T09:58:35Z</time>
      </trkpt>
      <trkpt lat="48.79524" lon="-3.34711">
        <ele>85</ele>
        <time>2015-01-25T09:58:36Z</time>
      </trkpt>
      <trkpt lat="48.79534" lon="-3.34716">
        <ele>85</ele>
        <time>2015-01-25T09:58:37Z</time>
      </trkpt>
      <trkpt lat="48.79544" lon="-3.34721">
        <ele>85</ele>
        <time>2015-01-25T09:58:38Z</time>
      </trkpt>
      <trkpt lat="48.79554" lon="-3.34726">
        <ele>85</ele>
        <time>2015-01-25T09:58:39Z</time>
      </trkpt>
      <trkpt lat="48.79563" lon="-3.34731">
        <ele>85</ele>
        <time>2015-01-25T09:58:40Z</time>
      </trkpt>
      <trkpt lat="48.79573" lon="-3.34736">
        <ele>85</ele>
        <time>2015-01-25T09:58:41Z</time>
      </trkpt>
      <trkpt lat="48.79583" lon="-3.3474">
        <ele>85</ele>
        <time>2015-01-25T09:58:42Z</time>
      </trkpt>
      <trkpt lat="48.79592" lon="-3.34745">
        <ele>84</ele>
        <time>2015-01-25T09:58:43Z</time>
      </trkpt>
      <trkpt lat="48.79602" lon="-3.34749">
        <ele>84</ele>
        <time>2015-01-25T09:58:44Z</time>
      </trkpt>
      <trkpt lat="48.79611" lon="-3.34754">
        <ele>84</ele>
        <time>2015-01-25T09:58:45Z</time>
      </trkpt>
      <trkpt lat="48.79621" lon="-3.34759">
        <ele>84</ele>
        <time>2015-01-25T09:58:46Z</time>
      </trkpt>
      <trkpt lat="48.7963" lon="-3.34763">
        <ele>84</ele>
        <time>2015-01-25T09:58:47Z</time>
      </trkpt>
      <trkpt lat="48.79639" lon="-3.34768">
        <ele>84</ele>
        <time>2015-01-25T09:58:48Z</time>
      </trkpt>
      <trkpt lat="48.79649" lon="-3.34772">
        <ele>84</ele>
        <time>2015-01-25T09:58:49Z</time>
      </trkpt>
      <trkpt lat="48.79658" lon="-3.34777">
        <ele>84</ele>
        <time>2015-01-25T09:58:50Z</time>
      </trkpt>
      <trkpt lat="48.79667" lon="-3.34781">
        <ele>84</ele>
        <time>2015-01-25T09:58:51Z</time>
      </trkpt>
      <trkpt lat="48.79676" lon="-3.34785">
        <ele>84</ele>
        <time>2015-01-25T09:58:52Z</time>
      </trkpt>
      <trkpt lat="48.79685" lon="-3.34789">
        <ele>84</ele>
        <time>2015-01-25T09:58:53Z</time>
      </trkpt>
      <trkpt lat="48.79694" lon="-3.34794">
        <ele>84</ele>
        <time>2015-01-25T09:58:54Z</time>
      </trkpt>
      <trkpt lat="48.79703" lon="-3.34798">
        <ele>84</ele>
        <time>2015-01-25T09:58:55Z</time>
      </trkpt>
      <trkpt lat="48.79712" lon="-3.34802">
        <ele>84</ele>
        <time>2015-01-25T09:58:56Z</time>
      </trkpt>
      <trkpt lat="48.79721" lon="-3.34806">
        <ele>84</ele>
        <time>2015-01-25T09:58:57Z</time>
      </trkpt>
      <trkpt lat="48.79731" lon="-3.34811">
        <ele>84</ele>
        <time>2015-01-25T09:58:58Z</time>
      </trkpt>
      <trkpt lat="48.7974" lon="-3.34815">
        <ele>84</ele>
        <time>2015-01-25T09:58:59Z</time>
      </trkpt>
      <trkpt lat="48.79749" lon="-3.3482">
        <ele>84</ele>
        <time>2015-01-25T09:59:00Z</time>
      </trkpt>
      <trkpt lat="48.79758" lon="-3.34825">
        <ele>84</ele>
        <time>2015-01-25T09:59:01Z</time>
      </trkpt>
      <trkpt lat="48.79767" lon="-3.34829">
        <ele>83</ele>
        <time>2015-01-25T09:59:02Z</time>
      </trkpt>
      <trkpt lat="48.79776" lon="-3.34834">
        <ele>83</ele>
        <time>2015-01-25T09:59:03Z</time>
      </trkpt>
      <trkpt lat="48.79786" lon="-3.34837">
        <ele>83</ele>
        <time>2015-01-25T09:59:04Z</time>
      </trkpt>
      <trkpt lat="48.79796" lon="-3.34841">
        <ele>83</ele>
        <time>2015-01-25T09:59:05Z</time>
      </trkpt>
      <trkpt lat="48.79806" lon="-3.34843">
        <ele>83</ele>
        <time>2015-01-25T09:59:06Z</time>
      </trkpt>
      <trkpt lat="48.79816" lon="-3.34843">
        <ele>83</ele>
        <time>2015-01-25T09:59:07Z</time>
      </trkpt>
      <trkpt lat="48.79826" lon="-3.34842">
        <ele>82</ele>
        <time>2015-01-25T09:59:08Z</time>
      </trkpt>
      <trkpt lat="48.79837" lon="-3.3484">
        <ele>82</ele>
        <time>2015-01-25T09:59:09Z</time>
      </trkpt>
      <trkpt lat="48.79847" lon="-3.34838">
        <ele>82</ele>
        <time>2015-01-25T09:59:10Z</time>
      </trkpt>
      <trkpt lat="48.79857" lon="-3.34834">
        <ele>82</ele>
        <time>2015-01-25T09:59:11Z</time>
      </trkpt>
      <trkpt lat="48.79867" lon="-3.34831">
        <ele>82</ele>
        <time>2015-01-25T09:59:12Z</time>
      </trkpt>
      <trkpt lat="48.79878" lon="-3.34827">
        <ele>82</ele>
        <time>2015-01-25T09:59:13Z</time>
      </trkpt>
      <trkpt lat="48.79888" lon="-3.34824">
        <ele>81</ele>
        <time>2015-01-25T09:59:14Z</time>
      </trkpt>
      <trkpt lat="48.79899" lon="-3.34821">
        <ele>81</ele>
        <time>2015-01-25T09:59:15Z</time>
      </trkpt>
      <trkpt lat="48.79909" lon="-3.3482">
        <ele>81</ele>
        <time>2015-01-25T09:59:16Z</time>
      </trkpt>
      <trkpt lat="48.7992" lon="-3.34819">
        <ele>81</ele>
        <time>2015-01-25T09:59:17Z</time>
      </trkpt>
      <trkpt lat="48.7993" lon="-3.3482">
        <ele>81</ele>
        <time>2015-01-25T09:59:18Z</time>
      </trkpt>
      <trkpt lat="48.7994" lon="-3.34822">
        <ele>80</ele>
        <time>2015-01-25T09:59:19Z</time>
      </trkpt>
      <trkpt lat="48.7995" lon="-3.34824">
        <ele>80</ele>
        <time>2015-01-25T09:59:20Z</time>
      </trkpt>
      <trkpt lat="48.7996" lon="-3.34829">
        <ele>80</ele>
        <time>2015-01-25T09:59:21Z</time>
      </trkpt>
      <trkpt lat="48.7997" lon="-3.34834">
        <ele>80</ele>
        <time>2015-01-25T09:59:22Z</time>
      </trkpt>
      <trkpt lat="48.79979" lon="-3.34841">
        <ele>80</ele>
        <time>2015-01-25T09:59:23Z</time>
      </trkpt>
      <trkpt lat="48.79988" lon="-3.34848">
        <ele>80</ele>
        <time>2015-01-25T09:59:24Z</time>
      </trkpt>
      <trkpt lat="48.79998" lon="-3.34857">
        <ele>79</ele>
        <time>2015-01-25T09:59:25Z</time>
      </trkpt>
      <trkpt lat="48.80006" lon="-3.34867">
        <ele>79</ele>
        <time>2015-01-25T09:59:26Z</time>
      </trkpt>
      <trkpt lat="48.80014" lon="-3.34878">
        <ele>79</ele>
        <time>2015-01-25T09:59:27Z</time>
      </trkpt>
      <trkpt lat="48.80022" lon="-3.3489">
        <ele>79</ele>
        <time>2015-01-25T09:59:28Z</time>
      </trkpt>
      <trkpt lat="48.80029" lon="-3.34902">
        <ele>79</ele>
        <time>2015-01-25T09:59:29Z</time>
      </trkpt>
      <trkpt lat="48.80035" lon="-3.34913">
        <ele>78</ele>
        <time>2015-01-25T09:59:30Z</time>
      </trkpt>
      <trkpt lat="48.80043" lon="-3.34924">
        <ele>78</ele>
        <time>2015-01-25T09:59:31Z</time>
      </trkpt>
      <trkpt lat="48.80049" lon="-3.34935">
        <ele>78</ele>
        <time>2015-01-25T09:59:32Z</time>
      </trkpt>
      <trkpt lat="48.80056" lon="-3.34946">
        <ele>78</ele>
        <time>2015-01-25T09:59:33Z</time>
      </trkpt>
      <trkpt lat="48.80062" lon="-3.34957">
        <ele>78</ele>
        <time>2015-01-25T09:59:34Z</time>
      </trkpt>
      <trkpt lat="48.80068" lon="-3.34968">
        <ele>78</ele>
        <time>2015-01-25T09:59:35Z</time>
      </trkpt>
      <trkpt lat="48.80075" lon="-3.34979">
        <ele>78</ele>
        <time>2015-01-25T09:59:36Z</time>
      </trkpt>
      <trkpt lat="48.80081" lon="-3.3499">
        <ele>78</ele>
        <time>2015-01-25T09:59:37Z</time>
      </trkpt>
      <trkpt lat="48.80087" lon="-3.35">
        <ele>78</ele>
        <time>2015-01-25T09:59:38Z</time>
      </trkpt>
      <trkpt lat="48.80093" lon="-3.35011">
        <ele>78</ele>
        <time>2015-01-25T09:59:39Z</time>
      </trkpt>
      <trkpt lat="48.80099" lon="-3.35021">
        <ele>78</ele>
        <time>2015-01-25T09:59:40Z</time>
      </trkpt>
      <trkpt lat="48.80106" lon="-3.35032">
        <ele>78</ele>
        <time>2015-01-25T09:59:41Z</time>
      </trkpt>
      <trkpt lat="48.80112" lon="-3.35042">
        <ele>78</ele>
        <time>2015-01-25T09:59:42Z</time>
      </trkpt>
      <trkpt lat="48.80119" lon="-3.35051">
        <ele>78</ele>
        <time>2015-01-25T09:59:43Z</time>
      </trkpt>
      <trkpt lat="48.80125" lon="-3.35061">
        <ele>78</ele>
        <time>2015-01-25T09:59:44Z</time>
      </trkpt>
      <trkpt lat="48.80133" lon="-3.3507">
        <ele>77</ele>
        <time>2015-01-25T09:59:45Z</time>
      </trkpt>
      <trkpt lat="48.8014" lon="-3.35079">
        <ele>77</ele>
        <time>2015-01-25T09:59:46Z</time>
      </trkpt>
      <trkpt lat="48.80149" lon="-3.35087">
        <ele>77</ele>
        <time>2015-01-25T09:59:47Z</time>
      </trkpt>
      <trkpt lat="48.80159" lon="-3.35095">
        <ele>77</ele>
        <time>2015-01-25T09:59:48Z</time>
      </trkpt>
      <trkpt lat="48.80168" lon="-3.35102">
        <ele>77</ele>
        <time>2015-01-25T09:59:49Z</time>
      </trkpt>
      <trkpt lat="48.80178" lon="-3.35108">
        <ele>77</ele>
        <time>2015-01-25T09:59:50Z</time>
      </trkpt>
      <trkpt lat="48.80187" lon="-3.35114">
        <ele>76</ele>
        <time>2015-01-25T09:59:51Z</time>
      </trkpt>
      <trkpt lat="48.80197" lon="-3.35119">
        <ele>76</ele>
        <time>2015-01-25T09:59:52Z</time>
      </trkpt>
      <trkpt lat="48.80207" lon="-3.35124">
        <ele>76</ele>
        <time>2015-01-25T09:59:53Z</time>
      </trkpt>
      <trkpt lat="48.80217" lon="-3.35128">
        <ele>76</ele>
        <time>2015-01-25T09:59:54Z</time>
      </trkpt>
      <trkpt lat="48.80228" lon="-3.35131">
        <ele>76</ele>
        <time>2015-01-25T09:59:55Z</time>
      </trkpt>
      <trkpt lat="48.80239" lon="-3.35135">
        <ele>76</ele>
        <time>2015-01-25T09:59:56Z</time>
      </trkpt>
      <trkpt lat="48.8025" lon="-3.35138">
        <ele>76</ele>
        <time>2015-01-25T09:59:57Z</time>
      </trkpt>
      <trkpt lat="48.80261" lon="-3.35141">
        <ele>76</ele>
        <time>2015-01-25T09:59:58Z</time>
      </trkpt>
      <trkpt lat="48.80272" lon="-3.35144">
        <ele>76</ele>
        <time>2015-01-25T09:59:59Z</time>
      </trkpt>
      <trkpt lat="48.80283" lon="-3.35148">
        <ele>75</ele>
        <time>2015-01-25T10:00:00Z</time>
      </trkpt>
      <trkpt lat="48.80294" lon="-3.35151">
        <ele>75</ele>
        <time>2015-01-25T10:00:01Z</time>
      </trkpt>
      <trkpt lat="48.80305" lon="-3.35154">
        <ele>75</ele>
        <time>2015-01-25T10:00:02Z</time>
      </trkpt>
      <trkpt lat="48.80317" lon="-3.35158">
        <ele>75</ele>
        <time>2015-01-25T10:00:03Z</time>
      </trkpt>
      <trkpt lat="48.80328" lon="-3.35161">
        <ele>75</ele>
        <time>2015-01-25T10:00:04Z</time>
      </trkpt>
      <trkpt lat="48.8034" lon="-3.35164">
        <ele>74</ele>
        <time>2015-01-25T10:00:05Z</time>
      </trkpt>
      <trkpt lat="48.80352" lon="-3.35167">
        <ele>74</ele>
        <time>2015-01-25T10:00:06Z</time>
      </trkpt>
      <trkpt lat="48.80364" lon="-3.3517">
        <ele>74</ele>
        <time>2015-01-25T10:00:07Z</time>
      </trkpt>
      <trkpt lat="48.80376" lon="-3.35172">
        <ele>74</ele>
        <time>2015-01-25T10:00:08Z</time>
      </trkpt>
      <trkpt lat="48.80388" lon="-3.35174">
        <ele>73</ele>
        <time>2015-01-25T10:00:09Z</time>
      </trkpt>
      <trkpt lat="48.80401" lon="-3.35176">
        <ele>73</ele>
        <time>2015-01-25T10:00:10Z</time>
      </trkpt>
      <trkpt lat="48.80413" lon="-3.35178">
        <ele>73</ele>
        <time>2015-01-25T10:00:11Z</time>
      </trkpt>
      <trkpt lat="48.80426" lon="-3.35179">
        <ele>73</ele>
        <time>2015-01-25T10:00:12Z</time>
      </trkpt>
      <trkpt lat="48.80438" lon="-3.35181">
        <ele>72</ele>
        <time>2015-01-25T10:00:13Z</time>
      </trkpt>
      <trkpt lat="48.8045" lon="-3.35182">
        <ele>72</ele>
        <time>2015-01-25T10:00:14Z</time>
      </trkpt>
      <trkpt lat="48.80462" lon="-3.35183">
        <ele>72</ele>
        <time>2015-01-25T10:00:15Z</time>
      </trkpt>
      <trkpt lat="48.80475" lon="-3.35185">
        <ele>71</ele>
        <time>2015-01-25T10:00:16Z</time>
      </trkpt>
      <trkpt lat="48.80487" lon="-3.35186">
        <ele>71</ele>
        <time>2015-01-25T10:00:17Z</time>
      </trkpt>
      <trkpt lat="48.80498" lon="-3.35187">
        <ele>71</ele>
        <time>2015-01-25T10:00:18Z</time>
      </trkpt>
      <trkpt lat="48.8051" lon="-3.35189">
        <ele>71</ele>
        <time>2015-01-25T10:00:19Z</time>
      </trkpt>
      <trkpt lat="48.80521" lon="-3.3519">
        <ele>70</ele>
        <time>2015-01-25T10:00:20Z</time>
      </trkpt>
      <trkpt lat="48.80533" lon="-3.35192">
        <ele>70</ele>
        <time>2015-01-25T10:00:21Z</time>
      </trkpt>
      <trkpt lat="48.80545" lon="-3.35193">
        <ele>70</ele>
        <time>2015-01-25T10:00:22Z</time>
      </trkpt>
      <trkpt lat="48.80556" lon="-3.35194">
        <ele>70</ele>
        <time>2015-01-25T10:00:23Z</time>
      </trkpt>
      <trkpt lat="48.80568" lon="-3.35196">
        <ele>70</ele>
        <time>2015-01-25T10:00:24Z</time>
      </trkpt>
      <trkpt lat="48.8058" lon="-3.35198">
        <ele>70</ele>
        <time>2015-01-25T10:00:25Z</time>
      </trkpt>
      <trkpt lat="48.80592" lon="-3.35199">
        <ele>70</ele>
        <time>2015-01-25T10:00:26Z</time>
      </trkpt>
      <trkpt lat="48.80603" lon="-3.35201">
        <ele>70</ele>
        <time>2015-01-25T10:00:27Z</time>
      </trkpt>
      <trkpt lat="48.80615" lon="-3.35202">
        <ele>70</ele>
        <time>2015-01-25T10:00:28Z</time>
      </trkpt>
      <trkpt lat="48.80626" lon="-3.35203">
        <ele>70</ele>
        <time>2015-01-25T10:00:29Z</time>
      </trkpt>
      <trkpt lat="48.80637" lon="-3.35204">
        <ele>70</ele>
        <time>2015-01-25T10:00:30Z</time>
      </trkpt>
      <trkpt lat="48.80648" lon="-3.35205">
        <ele>70</ele>
        <time>2015-01-25T10:00:31Z</time>
      </trkpt>
      <trkpt lat="48.80659" lon="-3.35206">
        <ele>70</ele>
        <time>2015-01-25T10:00:32Z</time>
      </trkpt>
      <trkpt lat="48.8067" lon="-3.35208">
        <ele>70</ele>
        <time>2015-01-25T10:00:33Z</time>
      </trkpt>
      <trkpt lat="48.8068" lon="-3.35209">
        <ele>70</ele>
        <time>2015-01-25T10:00:34Z</time>
      </trkpt>
      <trkpt lat="48.8069" lon="-3.3521">
        <ele>70</ele>
        <time>2015-01-25T10:00:35Z</time>
      </trkpt>
      <trkpt lat="48.80701" lon="-3.35211">
        <ele>70</ele>
        <time>2015-01-25T10:00:36Z</time>
      </trkpt>
      <trkpt lat="48.80711" lon="-3.35213">
        <ele>70</ele>
        <time>2015-01-25T10:00:37Z</time>
      </trkpt>
      <trkpt lat="48.80722" lon="-3.35214">
        <ele>70</ele>
        <time>2015-01-25T10:00:38Z</time>
      </trkpt>
      <trkpt lat="48.80732" lon="-3.35216">
        <ele>70</ele>
        <time>2015-01-25T10:00:39Z</time>
      </trkpt>
      <trkpt lat="48.80742" lon="-3.35219">
        <ele>70</ele>
        <time>2015-01-25T10:00:40Z</time>
      </trkpt>
      <trkpt lat="48.80752" lon="-3.35222">
        <ele>70</ele>
        <time>2015-01-25T10:00:41Z</time>
      </trkpt>
      <trkpt lat="48.80762" lon="-3.35227">
        <ele>70</ele>
        <time>2015-01-25T10:00:42Z</time>
      </trkpt>
      <trkpt lat="48.80772" lon="-3.35233">
        <ele>70</ele>
        <time>2015-01-25T10:00:43Z</time>
      </trkpt>
      <trkpt lat="48.80782" lon="-3.35239">
        <ele>70</ele>
        <time>2015-01-25T10:00:44Z</time>
      </trkpt>
      <trkpt lat="48.80791" lon="-3.35246">
        <ele>70</ele>
        <time>2015-01-25T10:00:45Z</time>
      </trkpt>
      <trkpt lat="48.80801" lon="-3.35254">
        <ele>70</ele>
        <time>2015-01-25T10:00:46Z</time>
      </trkpt>
      <trkpt lat="48.8081" lon="-3.35263">
        <ele>70</ele>
        <time>2015-01-25T10:00:47Z</time>
      </trkpt>
      <trkpt lat="48.80819" lon="-3.35274">
        <ele>70</ele>
        <time>2015-01-25T10:00:48Z</time>
      </trkpt>
      <trkpt lat="48.80827" lon="-3.35284">
        <ele>69</ele>
        <time>2015-01-25T10:00:49Z</time>
      </trkpt>
      <trkpt lat="48.80835" lon="-3.35295">
        <ele>69</ele>
        <time>2015-01-25T10:00:50Z</time>
      </trkpt>
      <trkpt lat="48.80843" lon="-3.35306">
        <ele>68</ele>
        <time>2015-01-25T10:00:51Z</time>
      </trkpt>
      <trkpt lat="48.80852" lon="-3.35317">
        <ele>68</ele>
        <time>2015-01-25T10:00:52Z</time>
      </trkpt>
      <trkpt lat="48.8086" lon="-3.35329">
        <ele>68</ele>
        <time>2015-01-25T10:00:53Z</time>
      </trkpt>
      <trkpt lat="48.80869" lon="-3.3534">
        <ele>67</ele>
        <time>2015-01-25T10:00:54Z</time>
      </trkpt>
      <trkpt lat="48.80877" lon="-3.35351">
        <ele>67</ele>
        <time>2015-01-25T10:00:55Z</time>
      </trkpt>
      <trkpt lat="48.80885" lon="-3.35362">
        <ele>67</ele>
        <time>2015-01-25T10:00:56Z</time>
      </trkpt>
      <trkpt lat="48.80894" lon="-3.35373">
        <ele>66</ele>
        <time>2015-01-25T10:00:57Z</time>
      </trkpt>
      <trkpt lat="48.80902" lon="-3.35383">
        <ele>66</ele>
        <time>2015-01-25T10:00:58Z</time>
      </trkpt>
      <trkpt lat="48.8091" lon="-3.35394">
        <ele>66</ele>
        <time>2015-01-25T10:00:59Z</time>
      </trkpt>
      <trkpt lat="48.80919" lon="-3.35404">
        <ele>66</ele>
        <time>2015-01-25T10:01:00Z</time>
      </trkpt>
      <trkpt lat="48.80927" lon="-3.35415">
        <ele>66</ele>
        <time>2015-01-25T10:01:01Z</time>
      </trkpt>
      <trkpt lat="48.80935" lon="-3.35425">
        <ele>66</ele>
        <time>2015-01-25T10:01:02Z</time>
      </trkpt>
      <trkpt lat="48.80943" lon="-3.35436">
        <ele>66</ele>
        <time>2015-01-25T10:01:03Z</time>
      </trkpt>
      <trkpt lat="48.80951" lon="-3.35446">
        <ele>66</ele>
        <time>2015-01-25T10:01:04Z</time>
      </trkpt>
      <trkpt lat="48.80959" lon="-3.35456">
        <ele>66</ele>
        <time>2015-01-25T10:01:05Z</time>
      </trkpt>
      <trkpt lat="48.80967" lon="-3.35467">
        <ele>66</ele>
        <time>2015-01-25T10:01:06Z</time>
      </trkpt>
      <trkpt lat="48.80975" lon="-3.35477">
        <ele>66</ele>
        <time>2015-01-25T10:01:07Z</time>
      </trkpt>
      <trkpt lat="48.80983" lon="-3.35488">
        <ele>66</ele>
        <time>2015-01-25T10:01:08Z</time>
      </trkpt>
      <trkpt lat="48.8099" lon="-3.35498">
        <ele>65</ele>
        <time>2015-01-25T10:01:09Z</time>
      </trkpt>
      <trkpt lat="48.80998" lon="-3.35509">
        <ele>65</ele>
        <time>2015-01-25T10:01:10Z</time>
      </trkpt>
      <trkpt lat="48.81007" lon="-3.35519">
        <ele>65</ele>
        <time>2015-01-25T10:01:11Z</time>
      </trkpt>
      <trkpt lat="48.81015" lon="-3.35528">
        <ele>64</ele>
        <time>2015-01-25T10:01:12Z</time>
      </trkpt>
      <trkpt lat="48.81025" lon="-3.35536">
        <ele>64</ele>
        <time>2015-01-25T10:01:13Z</time>
      </trkpt>
      <trkpt lat="48.81035" lon="-3.35543">
        <ele>63</ele>
        <time>2015-01-25T10:01:14Z</time>
      </trkpt>
      <trkpt lat="48.81045" lon="-3.35551">
        <ele>63</ele>
        <time>2015-01-25T10:01:15Z</time>
      </trkpt>
      <trkpt lat="48.81055" lon="-3.35557">
        <ele>62</ele>
        <time>2015-01-25T10:01:16Z</time>
      </trkpt>
      <trkpt lat="48.81065" lon="-3.35563">
        <ele>62</ele>
        <time>2015-01-25T10:01:17Z</time>
      </trkpt>
      <trkpt lat="48.81076" lon="-3.3557">
        <ele>61</ele>
        <time>2015-01-25T10:01:18Z</time>
      </trkpt>
      <trkpt lat="48.81086" lon="-3.35577">
        <ele>60</ele>
        <time>2015-01-25T10:01:19Z</time>
      </trkpt>
      <trkpt lat="48.81097" lon="-3.35583">
        <ele>60</ele>
        <time>2015-01-25T10:01:20Z</time>
      </trkpt>
      <trkpt lat="48.81107" lon="-3.3559">
        <ele>59</ele>
        <time>2015-01-25T10:01:21Z</time>
      </trkpt>
      <trkpt lat="48.81118" lon="-3.35596">
        <ele>58</ele>
        <time>2015-01-25T10:01:22Z</time>
      </trkpt>
      <trkpt lat="48.81128" lon="-3.35603">
        <ele>58</ele>
        <time>2015-01-25T10:01:23Z</time>
      </trkpt>
      <trkpt lat="48.81139" lon="-3.3561">
        <ele>57</ele>
        <time>2015-01-25T10:01:24Z</time>
      </trkpt>
      <trkpt lat="48.81149" lon="-3.35616">
        <ele>57</ele>
        <time>2015-01-25T10:01:25Z</time>
      </trkpt>
      <trkpt lat="48.81158" lon="-3.35623">
        <ele>56</ele>
        <time>2015-01-25T10:01:26Z</time>
      </trkpt>
      <trkpt lat="48.81168" lon="-3.35629">
        <ele>56</ele>
        <time>2015-01-25T10:01:27Z</time>
      </trkpt>
      <trkpt lat="48.81177" lon="-3.35635">
        <ele>55</ele>
        <time>2015-01-25T10:01:28Z</time>
      </trkpt>
      <trkpt lat="48.81186" lon="-3.35641">
        <ele>55</ele>
        <time>2015-01-25T10:01:29Z</time>
      </trkpt>
      <trkpt lat="48.81195" lon="-3.35647">
        <ele>55</ele>
        <time>2015-01-25T10:01:30Z</time>
      </trkpt>
      <trkpt lat="48.81204" lon="-3.35653">
        <ele>55</ele>
        <time>2015-01-25T10:01:31Z</time>
      </trkpt>
      <trkpt lat="48.81213" lon="-3.35659">
        <ele>55</ele>
        <time>2015-01-25T10:01:32Z</time>
      </trkpt>
      <trkpt lat="48.81221" lon="-3.35665">
        <ele>55</ele>
        <time>2015-01-25T10:01:33Z</time>
      </trkpt>
      <trkpt lat="48.81229" lon="-3.35671">
        <ele>55</ele>
        <time>2015-01-25T10:01:34Z</time>
      </trkpt>
      <trkpt lat="48.81236" lon="-3.35679">
        <ele>55</ele>
        <time>2015-01-25T10:01:35Z</time>
      </trkpt>
      <trkpt lat="48.81242" lon="-3.35688">
        <ele>55</ele>
        <time>2015-01-25T10:01:36Z</time>
      </trkpt>
      <trkpt lat="48.81248" lon="-3.35697">
        <ele>55</ele>
        <time>2015-01-25T10:01:37Z</time>
      </trkpt>
      <trkpt lat="48.81253" lon="-3.35706">
        <ele>55</ele>
        <time>2015-01-25T10:01:38Z</time>
      </trkpt>
      <trkpt lat="48.81257" lon="-3.35715">
        <ele>55</ele>
        <time>2015-01-25T10:01:39Z</time>
      </trkpt>
      <trkpt lat="48.81261" lon="-3.35725">
        <ele>55</ele>
        <time>2015-01-25T10:01:40Z</time>
      </trkpt>
      <trkpt lat="48.81264" lon="-3.35735">
        <ele>55</ele>
        <time>2015-01-25T10:01:41Z</time>
      </trkpt>
      <trkpt lat="48.81267" lon="-3.35743">
        <ele>55</ele>
        <time>2015-01-25T10:01:42Z</time>
      </trkpt>
      <trkpt lat="48.81269" lon="-3.35752">
        <ele>55</ele>
        <time>2015-01-25T10:01:43Z</time>
      </trkpt>
      <trkpt lat="48.81271" lon="-3.35759">
        <ele>55</ele>
        <time>2015-01-25T10:01:44Z</time>
      </trkpt>
      <trkpt lat="48.81273" lon="-3.35765">
        <ele>55</ele>
        <time>2015-01-25T10:01:45Z</time>
      </trkpt>
      <trkpt lat="48.81274" lon="-3.35769">
        <ele>55</ele>
        <time>2015-01-25T10:01:46Z</time>
      </trkpt>
      <trkpt lat="48.81276" lon="-3.35772">
        <ele>55</ele>
        <time>2015-01-25T10:01:47Z</time>
      </trkpt>
      <trkpt lat="48.81276" lon="-3.35774">
        <ele>55</ele>
        <time>2015-01-25T10:01:48Z</time>
      </trkpt>
      <trkpt lat="48.81277" lon="-3.35776">
        <ele>55</ele>
        <time>2015-01-25T10:01:49Z</time>
      </trkpt>
      <trkpt lat="48.81279" lon="-3.35778">
        <ele>55</ele>
        <time>2015-01-25T10:01:51Z</time>
      </trkpt>
      <trkpt lat="48.81279" lon="-3.3578">
        <ele>55</ele>
        <time>2015-01-25T10:01:53Z</time>
      </trkpt>
      <trkpt lat="48.81279" lon="-3.35786">
        <ele>55</ele>
        <time>2015-01-25T10:01:56Z</time>
      </trkpt>
      <trkpt lat="48.81277" lon="-3.35789">
        <ele>55</ele>
        <time>2015-01-25T10:01:57Z</time>
      </trkpt>
      <trkpt lat="48.81275" lon="-3.35793">
        <ele>55</ele>
        <time>2015-01-25T10:01:58Z</time>
      </trkpt>
      <trkpt lat="48.81272" lon="-3.35797">
        <ele>55</ele>
        <time>2015-01-25T10:01:59Z</time>
      </trkpt>
      <trkpt lat="48.81269" lon="-3.358">
        <ele>55</ele>
        <time>2015-01-25T10:02:00Z</time>
      </trkpt>
      <trkpt lat="48.81266" lon="-3.35804">
        <ele>55</ele>
        <time>2015-01-25T10:02:01Z</time>
      </trkpt>
      <trkpt lat="48.81262" lon="-3.35807">
        <ele>55</ele>
        <time>2015-01-25T10:02:02Z</time>
      </trkpt>
      <trkpt lat="48.81258" lon="-3.35811">
        <ele>55</ele>
        <time>2015-01-25T10:02:03Z</time>
      </trkpt>
      <trkpt lat="48.81253" lon="-3.35814">
        <ele>55</ele>
        <time>2015-01-25T10:02:04Z</time>
      </trkpt>
      <trkpt lat="48.81249" lon="-3.35818">
        <ele>55</ele>
        <time>2015-01-25T10:02:05Z</time>
      </trkpt>
      <trkpt lat="48.81244" lon="-3.35823">
        <ele>55</ele>
        <time>2015-01-25T10:02:06Z</time>
      </trkpt>
      <trkpt lat="48.81239" lon="-3.35828">
        <ele>55</ele>
        <time>2015-01-25T10:02:07Z</time>
      </trkpt>
      <trkpt lat="48.81235" lon="-3.35834">
        <ele>55</ele>
        <time>2015-01-25T10:02:08Z</time>
      </trkpt>
      <trkpt lat="48.81231" lon="-3.35841">
        <ele>55</ele>
        <time>2015-01-25T10:02:09Z</time>
      </trkpt>
      <trkpt lat="48.81227" lon="-3.35848">
        <ele>55</ele>
        <time>2015-01-25T10:02:10Z</time>
      </trkpt>
      <trkpt lat="48.81224" lon="-3.35855">
        <ele>55</ele>
        <time>2015-01-25T10:02:11Z</time>
      </trkpt>
      <trkpt lat="48.81221" lon="-3.35862">
        <ele>55</ele>
        <time>2015-01-25T10:02:12Z</time>
      </trkpt>
      <trkpt lat="48.81217" lon="-3.35869">
        <ele>55</ele>
        <time>2015-01-25T10:02:13Z</time>
      </trkpt>
      <trkpt lat="48.81214" lon="-3.35876">
        <ele>54</ele>
        <time>2015-01-25T10:02:14Z</time>
      </trkpt>
      <trkpt lat="48.81211" lon="-3.35883">
        <ele>54</ele>
        <time>2015-01-25T10:02:15Z</time>
      </trkpt>
      <trkpt lat="48.81208" lon="-3.3589">
        <ele>54</ele>
        <time>2015-01-25T10:02:16Z</time>
      </trkpt>
      <trkpt lat="48.81205" lon="-3.35896">
        <ele>54</ele>
        <time>2015-01-25T10:02:17Z</time>
      </trkpt>
      <trkpt lat="48.81202" lon="-3.35903">
        <ele>53</ele>
        <time>2015-01-25T10:02:18Z</time>
      </trkpt>
      <trkpt lat="48.81199" lon="-3.35911">
        <ele>53</ele>
        <time>2015-01-25T10:02:19Z</time>
      </trkpt>
      <trkpt lat="48.81195" lon="-3.35918">
        <ele>52</ele>
        <time>2015-01-25T10:02:20Z</time>
      </trkpt>
      <trkpt lat="48.81192" lon="-3.35925">
        <ele>52</ele>
        <time>2015-01-25T10:02:21Z</time>
      </trkpt>
      <trkpt lat="48.81187" lon="-3.35931">
        <ele>51</ele>
        <time>2015-01-25T10:02:22Z</time>
      </trkpt>
      <trkpt lat="48.81182" lon="-3.35937">
        <ele>51</ele>
        <time>2015-01-25T10:02:23Z</time>
      </trkpt>
      <trkpt lat="48.81177" lon="-3.35941">
        <ele>51</ele>
        <time>2015-01-25T10:02:24Z</time>
      </trkpt>
      <trkpt lat="48.81171" lon="-3.35946">
        <ele>50</ele>
        <time>2015-01-25T10:02:25Z</time>
      </trkpt>
      <trkpt lat="48.81166" lon="-3.35952">
        <ele>50</ele>
        <time>2015-01-25T10:02:26Z</time>
      </trkpt>
      <trkpt lat="48.81161" lon="-3.3596">
        <ele>49</ele>
        <time>2015-01-25T10:02:27Z</time>
      </trkpt>
      <trkpt lat="48.81156" lon="-3.35969">
        <ele>49</ele>
        <time>2015-01-25T10:02:28Z</time>
      </trkpt>
      <trkpt lat="48.81153" lon="-3.3598">
        <ele>49</ele>
        <time>2015-01-25T10:02:29Z</time>
      </trkpt>
      <trkpt lat="48.8115" lon="-3.35992">
        <ele>48</ele>
        <time>2015-01-25T10:02:30Z</time>
      </trkpt>
      <trkpt lat="48.81149" lon="-3.36006">
        <ele>48</ele>
        <time>2015-01-25T10:02:31Z</time>
      </trkpt>
      <trkpt lat="48.81149" lon="-3.3602">
        <ele>47</ele>
        <time>2015-01-25T10:02:32Z</time>
      </trkpt>
      <trkpt lat="48.81148" lon="-3.36034">
        <ele>47</ele>
        <time>2015-01-25T10:02:33Z</time>
      </trkpt>
      <trkpt lat="48.81147" lon="-3.36048">
        <ele>46</ele>
        <time>2015-01-25T10:02:34Z</time>
      </trkpt>
      <trkpt lat="48.81146" lon="-3.36061">
        <ele>46</ele>
        <time>2015-01-25T10:02:35Z</time>
      </trkpt>
      <trkpt lat="48.81144" lon="-3.36075">
        <ele>45</ele>
        <time>2015-01-25T10:02:36Z</time>
      </trkpt>
      <trkpt lat="48.81142" lon="-3.36087">
        <ele>45</ele>
        <time>2015-01-25T10:02:37Z</time>
      </trkpt>
      <trkpt lat="48.81139" lon="-3.361">
        <ele>45</ele>
        <time>2015-01-25T10:02:38Z</time>
      </trkpt>
      <trkpt lat="48.81136" lon="-3.36113">
        <ele>44</ele>
        <time>2015-01-25T10:02:39Z</time>
      </trkpt>
      <trkpt lat="48.81133" lon="-3.36125">
        <ele>44</ele>
        <time>2015-01-25T10:02:40Z</time>
      </trkpt>
      <trkpt lat="48.81129" lon="-3.36138">
        <ele>44</ele>
        <time>2015-01-25T10:02:41Z</time>
      </trkpt>
      <trkpt lat="48.81125" lon="-3.3615">
        <ele>43</ele>
        <time>2015-01-25T10:02:42Z</time>
      </trkpt>
      <trkpt lat="48.8112" lon="-3.36163">
        <ele>43</ele>
        <time>2015-01-25T10:02:43Z</time>
      </trkpt>
      <trkpt lat="48.81116" lon="-3.36176">
        <ele>43</ele>
        <time>2015-01-25T10:02:44Z</time>
      </trkpt>
      <trkpt lat="48.81111" lon="-3.36188">
        <ele>42</ele>
        <time>2015-01-25T10:02:45Z</time>
      </trkpt>
      <trkpt lat="48.81106" lon="-3.36201">
        <ele>42</ele>
        <time>2015-01-25T10:02:46Z</time>
      </trkpt>
      <trkpt lat="48.81101" lon="-3.36213">
        <ele>42</ele>
        <time>2015-01-25T10:02:47Z</time>
      </trkpt>
      <trkpt lat="48.81097" lon="-3.36225">
        <ele>42</ele>
        <time>2015-01-25T10:02:48Z</time>
      </trkpt>
      <trkpt lat="48.81092" lon="-3.36236">
        <ele>42</ele>
        <time>2015-01-25T10:02:49Z</time>
      </trkpt>
      <trkpt lat="48.81088" lon="-3.36246">
        <ele>42</ele>
        <time>2015-01-25T10:02:50Z</time>
      </trkpt>
      <trkpt lat="48.81083" lon="-3.36257">
        <ele>42</ele>
        <time>2015-01-25T10:02:51Z</time>
      </trkpt>
      <trkpt lat="48.81079" lon="-3.36267">
        <ele>42</ele>
        <time>2015-01-25T10:02:52Z</time>
      </trkpt>
      <trkpt lat="48.81074" lon="-3.36277">
        <ele>42</ele>
        <time>2015-01-25T10:02:53Z</time>
      </trkpt>
      <trkpt lat="48.81069" lon="-3.36287">
        <ele>42</ele>
        <time>2015-01-25T10:02:54Z</time>
      </trkpt>
      <trkpt lat="48.81064" lon="-3.36297">
        <ele>42</ele>
        <time>2015-01-25T10:02:55Z</time>
      </trkpt>
      <trkpt lat="48.81059" lon="-3.36305">
        <ele>42</ele>
        <time>2015-01-25T10:02:56Z</time>
      </trkpt>
      <trkpt lat="48.81054" lon="-3.36313">
        <ele>42</ele>
        <time>2015-01-25T10:02:57Z</time>
      </trkpt>
      <trkpt lat="48.8105" lon="-3.3632">
        <ele>42</ele>
        <time>2015-01-25T10:02:58Z</time>
      </trkpt>
      <trkpt lat="48.81046" lon="-3.36327">
        <ele>42</ele>
        <time>2015-01-25T10:02:59Z</time>
      </trkpt>
      <trkpt lat="48.81041" lon="-3.36334">
        <ele>42</ele>
        <time>2015-01-25T10:03:00Z</time>
      </trkpt>
      <trkpt lat="48.81038" lon="-3.3634">
        <ele>42</ele>
        <time>2015-01-25T10:03:01Z</time>
      </trkpt>
      <trkpt lat="48.81034" lon="-3.36346">
        <ele>42</ele>
        <time>2015-01-25T10:03:02Z</time>
      </trkpt>
      <trkpt lat="48.8103" lon="-3.36351">
        <ele>42</ele>
        <time>2015-01-25T10:03:03Z</time>
      </trkpt>
      <trkpt lat="48.81026" lon="-3.36357">
        <ele>42</ele>
        <time>2015-01-25T10:03:04Z</time>
      </trkpt>
      <trkpt lat="48.81022" lon="-3.36363">
        <ele>42</ele>
        <time>2015-01-25T10:03:05Z</time>
      </trkpt>
      <trkpt lat="48.81018" lon="-3.36368">
        <ele>42</ele>
        <time>2015-01-25T10:03:06Z</time>
      </trkpt>
      <trkpt lat="48.81014" lon="-3.36374">
        <ele>43</ele>
        <time>2015-01-25T10:03:07Z</time>
      </trkpt>
      <trkpt lat="48.8101" lon="-3.3638">
        <ele>43</ele>
        <time>2015-01-25T10:03:08Z</time>
      </trkpt>
      <trkpt lat="48.81006" lon="-3.36385">
        <ele>44</ele>
        <time>2015-01-25T10:03:09Z</time>
      </trkpt>
      <trkpt lat="48.81002" lon="-3.36391">
        <ele>44</ele>
        <time>2015-01-25T10:03:10Z</time>
      </trkpt>
      <trkpt lat="48.80997" lon="-3.36395">
        <ele>45</ele>
        <time>2015-01-25T10:03:11Z</time>
      </trkpt>
      <trkpt lat="48.80993" lon="-3.364">
        <ele>45</ele>
        <time>2015-01-25T10:03:12Z</time>
      </trkpt>
      <trkpt lat="48.80989" lon="-3.36405">
        <ele>46</ele>
        <time>2015-01-25T10:03:13Z</time>
      </trkpt>
      <trkpt lat="48.80986" lon="-3.3641">
        <ele>46</ele>
        <time>2015-01-25T10:03:14Z</time>
      </trkpt>
      <trkpt lat="48.80982" lon="-3.36415">
        <ele>46</ele>
        <time>2015-01-25T10:03:15Z</time>
      </trkpt>
      <trkpt lat="48.80978" lon="-3.36419">
        <ele>47</ele>
        <time>2015-01-25T10:03:16Z</time>
      </trkpt>
      <trkpt lat="48.80974" lon="-3.36423">
        <ele>47</ele>
        <time>2015-01-25T10:03:17Z</time>
      </trkpt>
      <trkpt lat="48.8097" lon="-3.36428">
        <ele>47</ele>
        <time>2015-01-25T10:03:18Z</time>
      </trkpt>
      <trkpt lat="48.80967" lon="-3.36432">
        <ele>48</ele>
        <time>2015-01-25T10:03:19Z</time>
      </trkpt>
      <trkpt lat="48.80963" lon="-3.36436">
        <ele>48</ele>
        <time>2015-01-25T10:03:20Z</time>
      </trkpt>
      <trkpt lat="48.80959" lon="-3.3644">
        <ele>48</ele>
        <time>2015-01-25T10:03:21Z</time>
      </trkpt>
      <trkpt lat="48.80955" lon="-3.36444">
        <ele>49</ele>
        <time>2015-01-25T10:03:22Z</time>
      </trkpt>
      <trkpt lat="48.80952" lon="-3.36448">
        <ele>49</ele>
        <time>2015-01-25T10:03:23Z</time>
      </trkpt>
      <trkpt lat="48.80948" lon="-3.36452">
        <ele>49</ele>
        <time>2015-01-25T10:03:24Z</time>
      </trkpt>
      <trkpt lat="48.80944" lon="-3.36456">
        <ele>50</ele>
        <time>2015-01-25T10:03:25Z</time>
      </trkpt>
      <trkpt lat="48.8094" lon="-3.3646">
        <ele>50</ele>
        <time>2015-01-25T10:03:26Z</time>
      </trkpt>
      <trkpt lat="48.80936" lon="-3.36464">
        <ele>51</ele>
        <time>2015-01-25T10:03:27Z</time>
      </trkpt>
      <trkpt lat="48.80933" lon="-3.36468">
        <ele>51</ele>
        <time>2015-01-25T10:03:28Z</time>
      </trkpt>
      <trkpt lat="48.80929" lon="-3.36472">
        <ele>51</ele>
        <time>2015-01-25T10:03:29Z</time>
      </trkpt>
      <trkpt lat="48.80926" lon="-3.36476">
        <ele>51</ele>
        <time>2015-01-25T10:03:30Z</time>
      </trkpt>
      <trkpt lat="48.80922" lon="-3.3648">
        <ele>52</ele>
        <time>2015-01-25T10:03:31Z</time>
      </trkpt>
      <trkpt lat="48.80919" lon="-3.36484">
        <ele>52</ele>
        <time>2015-01-25T10:03:32Z</time>
      </trkpt>
      <trkpt lat="48.80915" lon="-3.36488">
        <ele>52</ele>
        <time>2015-01-25T10:03:33Z</time>
      </trkpt>
      <trkpt lat="48.80912" lon="-3.36492">
        <ele>53</ele>
        <time>2015-01-25T10:03:34Z</time>
      </trkpt>
      <trkpt lat="48.80909" lon="-3.36497">
        <ele>53</ele>
        <time>2015-01-25T10:03:35Z</time>
      </trkpt>
      <trkpt lat="48.80905" lon="-3.36501">
        <ele>53</ele>
        <time>2015-01-25T10:03:36Z</time>
      </trkpt>
      <trkpt lat="48.80902" lon="-3.36506">
        <ele>53</ele>
        <time>2015-01-25T10:03:37Z</time>
      </trkpt>
      <trkpt lat="48.80899" lon="-3.36512">
        <ele>54</ele>
        <time>2015-01-25T10:03:38Z</time>
      </trkpt>
      <trkpt lat="48.80896" lon="-3.36517">
        <ele>54</ele>
        <time>2015-01-25T10:03:39Z</time>
      </trkpt>
      <trkpt lat="48.80893" lon="-3.36523">
        <ele>54</ele>
        <time>2015-01-25T10:03:40Z</time>
      </trkpt>
      <trkpt lat="48.8089" lon="-3.36529">
        <ele>54</ele>
        <time>2015-01-25T10:03:41Z</time>
      </trkpt>
      <trkpt lat="48.80887" lon="-3.36535">
        <ele>55</ele>
        <time>2015-01-25T10:03:42Z</time>
      </trkpt>
      <trkpt lat="48.80885" lon="-3.36541">
        <ele>55</ele>
        <time>2015-01-25T10:03:43Z</time>
      </trkpt>
      <trkpt lat="48.80882" lon="-3.36547">
        <ele>55</ele>
        <time>2015-01-25T10:03:44Z</time>
      </trkpt>
      <trkpt lat="48.8088" lon="-3.36554">
        <ele>55</ele>
        <time>2015-01-25T10:03:45Z</time>
      </trkpt>
      <trkpt lat="48.80877" lon="-3.3656">
        <ele>56</ele>
        <time>2015-01-25T10:03:46Z</time>
      </trkpt>
      <trkpt lat="48.80875" lon="-3.36567">
        <ele>56</ele>
        <time>2015-01-25T10:03:47Z</time>
      </trkpt>
      <trkpt lat="48.80873" lon="-3.36573">
        <ele>56</ele>
        <time>2015-01-25T10:03:48Z</time>
      </trkpt>
      <trkpt lat="48.80871" lon="-3.3658">
        <ele>56</ele>
        <time>2015-01-25T10:03:49Z</time>
      </trkpt>
      <trkpt lat="48.80868" lon="-3.36586">
        <ele>57</ele>
        <time>2015-01-25T10:03:50Z</time>
      </trkpt>
      <trkpt lat="48.80866" lon="-3.36594">
        <ele>57</ele>
        <time>2015-01-25T10:03:51Z</time>
      </trkpt>
      <trkpt lat="48.80864" lon="-3.36601">
        <ele>57</ele>
        <time>2015-01-25T10:03:52Z</time>
      </trkpt>
      <trkpt lat="48.80862" lon="-3.36608">
        <ele>57</ele>
        <time>2015-01-25T10:03:53Z</time>
      </trkpt>
      <trkpt lat="48.80859" lon="-3.36616">
        <ele>57</ele>
        <time>2015-01-25T10:03:54Z</time>
      </trkpt>
      <trkpt lat="48.80856" lon="-3.36624">
        <ele>58</ele>
        <time>2015-01-25T10:03:55Z</time>
      </trkpt>
      <trkpt lat="48.80854" lon="-3.36632">
        <ele>58</ele>
        <time>2015-01-25T10:03:56Z</time>
      </trkpt>
      <trkpt lat="48.80852" lon="-3.3664">
        <ele>58</ele>
        <time>2015-01-25T10:03:57Z</time>
      </trkpt>
      <trkpt lat="48.8085" lon="-3.36648">
        <ele>58</ele>
        <time>2015-01-25T10:03:58Z</time>
      </trkpt>
      <trkpt lat="48.80848" lon="-3.36656">
        <ele>58</ele>
        <time>2015-01-25T10:03:59Z</time>
      </trkpt>
      <trkpt lat="48.80846" lon="-3.36664">
        <ele>58</ele>
        <time>2015-01-25T10:04:00Z</time>
      </trkpt>
      <trkpt lat="48.80844" lon="-3.36672">
        <ele>59</ele>
        <time>2015-01-25T10:04:01Z</time>
      </trkpt>
      <trkpt lat="48.80842" lon="-3.36681">
        <ele>59</ele>
        <time>2015-01-25T10:04:02Z</time>
      </trkpt>
      <trkpt lat="48.80841" lon="-3.36689">
        <ele>59</ele>
        <time>2015-01-25T10:04:03Z</time>
      </trkpt>
      <trkpt lat="48.80839" lon="-3.36698">
        <ele>59</ele>
        <time>2015-01-25T10:04:04Z</time>
      </trkpt>
      <trkpt lat="48.80838" lon="-3.36707">
        <ele>59</ele>
        <time>2015-01-25T10:04:05Z</time>
      </trkpt>
      <trkpt lat="48.80836" lon="-3.36715">
        <ele>59</ele>
        <time>2015-01-25T10:04:06Z</time>
      </trkpt>
      <trkpt lat="48.80835" lon="-3.36725">
        <ele>59</ele>
        <time>2015-01-25T10:04:07Z</time>
      </trkpt>
      <trkpt lat="48.80834" lon="-3.36734">
        <ele>59</ele>
        <time>2015-01-25T10:04:08Z</time>
      </trkpt>
      <trkpt lat="48.80833" lon="-3.36744">
        <ele>59</ele>
        <time>2015-01-25T10:04:09Z</time>
      </trkpt>
      <trkpt lat="48.80833" lon="-3.36753">
        <ele>59</ele>
        <time>2015-01-25T10:04:10Z</time>
      </trkpt>
      <trkpt lat="48.80832" lon="-3.36763">
        <ele>59</ele>
        <time>2015-01-25T10:04:11Z</time>
      </trkpt>
      <trkpt lat="48.80832" lon="-3.36773">
        <ele>59</ele>
        <time>2015-01-25T10:04:12Z</time>
      </trkpt>
      <trkpt lat="48.80832" lon="-3.36783">
        <ele>59</ele>
        <time>2015-01-25T10:04:13Z</time>
      </trkpt>
      <trkpt lat="48.80831" lon="-3.36813">
        <ele>59</ele>
        <time>2015-01-25T10:04:16Z</time>
      </trkpt>
      <trkpt lat="48.8083" lon="-3.36823">
        <ele>59</ele>
        <time>2015-01-25T10:04:17Z</time>
      </trkpt>
      <trkpt lat="48.80829" lon="-3.36832">
        <ele>59</ele>
        <time>2015-01-25T10:04:18Z</time>
      </trkpt>
      <trkpt lat="48.80827" lon="-3.36842">
        <ele>59</ele>
        <time>2015-01-25T10:04:19Z</time>
      </trkpt>
      <trkpt lat="48.80825" lon="-3.36852">
        <ele>59</ele>
        <time>2015-01-25T10:04:20Z</time>
      </trkpt>
      <trkpt lat="48.80822" lon="-3.36861">
        <ele>59</ele>
        <time>2015-01-25T10:04:21Z</time>
      </trkpt>
      <trkpt lat="48.80819" lon="-3.36871">
        <ele>59</ele>
        <time>2015-01-25T10:04:22Z</time>
      </trkpt>
      <trkpt lat="48.80816" lon="-3.3688">
        <ele>59</ele>
        <time>2015-01-25T10:04:23Z</time>
      </trkpt>
      <trkpt lat="48.80813" lon="-3.3689">
        <ele>59</ele>
        <time>2015-01-25T10:04:24Z</time>
      </trkpt>
      <trkpt lat="48.8081" lon="-3.36899">
        <ele>59</ele>
        <time>2015-01-25T10:04:25Z</time>
      </trkpt>
      <trkpt lat="48.80807" lon="-3.36908">
        <ele>59</ele>
        <time>2015-01-25T10:04:26Z</time>
      </trkpt>
      <trkpt lat="48.80804" lon="-3.36916">
        <ele>59</ele>
        <time>2015-01-25T10:04:27Z</time>
      </trkpt>
      <trkpt lat="48.80801" lon="-3.36925">
        <ele>59</ele>
        <time>2015-01-25T10:04:28Z</time>
      </trkpt>
      <trkpt lat="48.80799" lon="-3.36933">
        <ele>59</ele>
        <time>2015-01-25T10:04:29Z</time>
      </trkpt>
      <trkpt lat="48.80796" lon="-3.36941">
        <ele>59</ele>
        <time>2015-01-25T10:04:30Z</time>
      </trkpt>
      <trkpt lat="48.80794" lon="-3.36948">
        <ele>59</ele>
        <time>2015-01-25T10:04:31Z</time>
      </trkpt>
      <trkpt lat="48.80791" lon="-3.36955">
        <ele>59</ele>
        <time>2015-01-25T10:04:32Z</time>
      </trkpt>
      <trkpt lat="48.80789" lon="-3.36962">
        <ele>59</ele>
        <time>2015-01-25T10:04:33Z</time>
      </trkpt>
      <trkpt lat="48.80786" lon="-3.36968">
        <ele>59</ele>
        <time>2015-01-25T10:04:34Z</time>
      </trkpt>
      <trkpt lat="48.80784" lon="-3.36975">
        <ele>60</ele>
        <time>2015-01-25T10:04:35Z</time>
      </trkpt>
      <trkpt lat="48.80782" lon="-3.36981">
        <ele>60</ele>
        <time>2015-01-25T10:04:36Z</time>
      </trkpt>
      <trkpt lat="48.80779" lon="-3.36988">
        <ele>60</ele>
        <time>2015-01-25T10:04:37Z</time>
      </trkpt>
      <trkpt lat="48.80777" lon="-3.36994">
        <ele>61</ele>
        <time>2015-01-25T10:04:38Z</time>
      </trkpt>
      <trkpt lat="48.80775" lon="-3.37001">
        <ele>61</ele>
        <time>2015-01-25T10:04:39Z</time>
      </trkpt>
      <trkpt lat="48.80773" lon="-3.37007">
        <ele>61</ele>
        <time>2015-01-25T10:04:40Z</time>
      </trkpt>
      <trkpt lat="48.8077" lon="-3.37014">
        <ele>61</ele>
        <time>2015-01-25T10:04:41Z</time>
      </trkpt>
      <trkpt lat="48.80768" lon="-3.37021">
        <ele>62</ele>
        <time>2015-01-25T10:04:42Z</time>
      </trkpt>
      <trkpt lat="48.80766" lon="-3.37028">
        <ele>62</ele>
        <time>2015-01-25T10:04:43Z</time>
      </trkpt>
      <trkpt lat="48.80763" lon="-3.37035">
        <ele>62</ele>
        <time>2015-01-25T10:04:44Z</time>
      </trkpt>
      <trkpt lat="48.80761" lon="-3.37042">
        <ele>62</ele>
        <time>2015-01-25T10:04:45Z</time>
      </trkpt>
      <trkpt lat="48.80758" lon="-3.37049">
        <ele>62</ele>
        <time>2015-01-25T10:04:46Z</time>
      </trkpt>
      <trkpt lat="48.80756" lon="-3.37056">
        <ele>62</ele>
        <time>2015-01-25T10:04:47Z</time>
      </trkpt>
      <trkpt lat="48.80753" lon="-3.37063">
        <ele>63</ele>
        <time>2015-01-25T10:04:48Z</time>
      </trkpt>
      <trkpt lat="48.8075" lon="-3.3707">
        <ele>63</ele>
        <time>2015-01-25T10:04:49Z</time>
      </trkpt>
      <trkpt lat="48.80748" lon="-3.37077">
        <ele>63</ele>
        <time>2015-01-25T10:04:50Z</time>
      </trkpt>
      <trkpt lat="48.80745" lon="-3.37085">
        <ele>63</ele>
        <time>2015-01-25T10:04:51Z</time>
      </trkpt>
      <trkpt lat="48.80742" lon="-3.37092">
        <ele>63</ele>
        <time>2015-01-25T10:04:52Z</time>
      </trkpt>
      <trkpt lat="48.80739" lon="-3.37099">
        <ele>63</ele>
        <time>2015-01-25T10:04:53Z</time>
      </trkpt>
      <trkpt lat="48.80735" lon="-3.37106">
        <ele>63</ele>
        <time>2015-01-25T10:04:54Z</time>
      </trkpt>
      <trkpt lat="48.80732" lon="-3.37114">
        <ele>64</ele>
        <time>2015-01-25T10:04:55Z</time>
      </trkpt>
      <trkpt lat="48.80728" lon="-3.37121">
        <ele>64</ele>
        <time>2015-01-25T10:04:56Z</time>
      </trkpt>
      <trkpt lat="48.80725" lon="-3.37128">
        <ele>64</ele>
        <time>2015-01-25T10:04:57Z</time>
      </trkpt>
      <trkpt lat="48.80721" lon="-3.37135">
        <ele>64</ele>
        <time>2015-01-25T10:04:58Z</time>
      </trkpt>
      <trkpt lat="48.80717" lon="-3.37142">
        <ele>64</ele>
        <time>2015-01-25T10:04:59Z</time>
      </trkpt>
      <trkpt lat="48.80713" lon="-3.3715">
        <ele>64</ele>
        <time>2015-01-25T10:05:00Z</time>
      </trkpt>
      <trkpt lat="48.80709" lon="-3.37158">
        <ele>64</ele>
        <time>2015-01-25T10:05:01Z</time>
      </trkpt>
      <trkpt lat="48.80705" lon="-3.37165">
        <ele>64</ele>
        <time>2015-01-25T10:05:02Z</time>
      </trkpt>
      <trkpt lat="48.807" lon="-3.37173">
        <ele>64</ele>
        <time>2015-01-25T10:05:03Z</time>
      </trkpt>
      <trkpt lat="48.80695" lon="-3.37181">
        <ele>64</ele>
        <time>2015-01-25T10:05:04Z</time>
      </trkpt>
      <trkpt lat="48.8069" lon="-3.37189">
        <ele>64</ele>
        <time>2015-01-25T10:05:05Z</time>
      </trkpt>
      <trkpt lat="48.80685" lon="-3.37196">
        <ele>64</ele>
        <time>2015-01-25T10:05:06Z</time>
      </trkpt>
      <trkpt lat="48.80679" lon="-3.37204">
        <ele>64</ele>
        <time>2015-01-25T10:05:07Z</time>
      </trkpt>
      <trkpt lat="48.80674" lon="-3.37211">
        <ele>64</ele>
        <time>2015-01-25T10:05:08Z</time>
      </trkpt>
      <trkpt lat="48.80668" lon="-3.37218">
        <ele>64</ele>
        <time>2015-01-25T10:05:09Z</time>
      </trkpt>
      <trkpt lat="48.80662" lon="-3.37225">
        <ele>64</ele>
        <time>2015-01-25T10:05:10Z</time>
      </trkpt>
      <trkpt lat="48.80656" lon="-3.37232">
        <ele>64</ele>
        <time>2015-01-25T10:05:11Z</time>
      </trkpt>
      <trkpt lat="48.8065" lon="-3.37238">
        <ele>64</ele>
        <time>2015-01-25T10:05:12Z</time>
      </trkpt>
      <trkpt lat="48.80644" lon="-3.37245">
        <ele>64</ele>
        <time>2015-01-25T10:05:13Z</time>
      </trkpt>
      <trkpt lat="48.80638" lon="-3.3725">
        <ele>64</ele>
        <time>2015-01-25T10:05:14Z</time>
      </trkpt>
      <trkpt lat="48.80632" lon="-3.37257">
        <ele>64</ele>
        <time>2015-01-25T10:05:15Z</time>
      </trkpt>
      <trkpt lat="48.80626" lon="-3.37263">
        <ele>64</ele>
        <time>2015-01-25T10:05:16Z</time>
      </trkpt>
      <trkpt lat="48.8062" lon="-3.37269">
        <ele>64</ele>
        <time>2015-01-25T10:05:17Z</time>
      </trkpt>
      <trkpt lat="48.80613" lon="-3.37275">
        <ele>64</ele>
        <time>2015-01-25T10:05:18Z</time>
      </trkpt>
      <trkpt lat="48.80607" lon="-3.37281">
        <ele>64</ele>
        <time>2015-01-25T10:05:19Z</time>
      </trkpt>
      <trkpt lat="48.806" lon="-3.37287">
        <ele>64</ele>
        <time>2015-01-25T10:05:20Z</time>
      </trkpt>
      <trkpt lat="48.80593" lon="-3.37292">
        <ele>64</ele>
        <time>2015-01-25T10:05:21Z</time>
      </trkpt>
      <trkpt lat="48.80587" lon="-3.37297">
        <ele>64</ele>
        <time>2015-01-25T10:05:22Z</time>
      </trkpt>
      <trkpt lat="48.8058" lon="-3.37301">
        <ele>64</ele>
        <time>2015-01-25T10:05:23Z</time>
      </trkpt>
      <trkpt lat="48.80573" lon="-3.37304">
        <ele>64</ele>
        <time>2015-01-25T10:05:24Z</time>
      </trkpt>
      <trkpt lat="48.80566" lon="-3.37307">
        <ele>64</ele>
        <time>2015-01-25T10:05:25Z</time>
      </trkpt>
      <trkpt lat="48.80558" lon="-3.37309">
        <ele>64</ele>
        <time>2015-01-25T10:05:26Z</time>
      </trkpt>
      <trkpt lat="48.80551" lon="-3.37312">
        <ele>64</ele>
        <time>2015-01-25T10:05:27Z</time>
      </trkpt>
      <trkpt lat="48.80544" lon="-3.37314">
        <ele>64</ele>
        <time>2015-01-25T10:05:28Z</time>
      </trkpt>
      <trkpt lat="48.80537" lon="-3.37317">
        <ele>64</ele>
        <time>2015-01-25T10:05:29Z</time>
      </trkpt>
      <trkpt lat="48.80531" lon="-3.37321">
        <ele>64</ele>
        <time>2015-01-25T10:05:30Z</time>
      </trkpt>
      <trkpt lat="48.80524" lon="-3.37326">
        <ele>64</ele>
        <time>2015-01-25T10:05:31Z</time>
      </trkpt>
      <trkpt lat="48.80518" lon="-3.37331">
        <ele>64</ele>
        <time>2015-01-25T10:05:32Z</time>
      </trkpt>
      <trkpt lat="48.80512" lon="-3.37337">
        <ele>64</ele>
        <time>2015-01-25T10:05:33Z</time>
      </trkpt>
      <trkpt lat="48.80507" lon="-3.37342">
        <ele>64</ele>
        <time>2015-01-25T10:05:34Z</time>
      </trkpt>
      <trkpt lat="48.80501" lon="-3.37348">
        <ele>64</ele>
        <time>2015-01-25T10:05:35Z</time>
      </trkpt>
      <trkpt lat="48.80495" lon="-3.37352">
        <ele>64</ele>
        <time>2015-01-25T10:05:36Z</time>
      </trkpt>
      <trkpt lat="48.80489" lon="-3.37357">
        <ele>64</ele>
        <time>2015-01-25T10:05:37Z</time>
      </trkpt>
      <trkpt lat="48.80483" lon="-3.37362">
        <ele>64</ele>
        <time>2015-01-25T10:05:38Z</time>
      </trkpt>
      <trkpt lat="48.80477" lon="-3.37366">
        <ele>64</ele>
        <time>2015-01-25T10:05:39Z</time>
      </trkpt>
      <trkpt lat="48.80471" lon="-3.37369">
        <ele>64</ele>
        <time>2015-01-25T10:05:40Z</time>
      </trkpt>
      <trkpt lat="48.80465" lon="-3.37373">
        <ele>64</ele>
        <time>2015-01-25T10:05:41Z</time>
      </trkpt>
      <trkpt lat="48.80459" lon="-3.37377">
        <ele>64</ele>
        <time>2015-01-25T10:05:42Z</time>
      </trkpt>
      <trkpt lat="48.80453" lon="-3.3738">
        <ele>64</ele>
        <time>2015-01-25T10:05:43Z</time>
      </trkpt>
      <trkpt lat="48.80447" lon="-3.37382">
        <ele>64</ele>
        <time>2015-01-25T10:05:44Z</time>
      </trkpt>
      <trkpt lat="48.80441" lon="-3.37385">
        <ele>64</ele>
        <time>2015-01-25T10:05:45Z</time>
      </trkpt>
      <trkpt lat="48.80434" lon="-3.37388">
        <ele>64</ele>
        <time>2015-01-25T10:05:46Z</time>
      </trkpt>
      <trkpt lat="48.80428" lon="-3.37391">
        <ele>64</ele>
        <time>2015-01-25T10:05:47Z</time>
      </trkpt>
      <trkpt lat="48.80422" lon="-3.37394">
        <ele>64</ele>
        <time>2015-01-25T10:05:48Z</time>
      </trkpt>
      <trkpt lat="48.80416" lon="-3.37396">
        <ele>64</ele>
        <time>2015-01-25T10:05:49Z</time>
      </trkpt>
      <trkpt lat="48.80409" lon="-3.37399">
        <ele>64</ele>
        <time>2015-01-25T10:05:50Z</time>
      </trkpt>
      <trkpt lat="48.80403" lon="-3.37402">
        <ele>65</ele>
        <time>2015-01-25T10:05:51Z</time>
      </trkpt>
      <trkpt lat="48.80396" lon="-3.37405">
        <ele>65</ele>
        <time>2015-01-25T10:05:52Z</time>
      </trkpt>
      <trkpt lat="48.8039" lon="-3.37408">
        <ele>65</ele>
        <time>2015-01-25T10:05:53Z</time>
      </trkpt>
      <trkpt lat="48.80383" lon="-3.37411">
        <ele>65</ele>
        <time>2015-01-25T10:05:54Z</time>
      </trkpt>
      <trkpt lat="48.80376" lon="-3.37414">
        <ele>65</ele>
        <time>2015-01-25T10:05:55Z</time>
      </trkpt>
      <trkpt lat="48.8037" lon="-3.37418">
        <ele>65</ele>
        <time>2015-01-25T10:05:56Z</time>
      </trkpt>
      <trkpt lat="48.80363" lon="-3.37421">
        <ele>65</ele>
        <time>2015-01-25T10:05:57Z</time>
      </trkpt>
      <trkpt lat="48.80357" lon="-3.37425">
        <ele>65</ele>
        <time>2015-01-25T10:05:58Z</time>
      </trkpt>
      <trkpt lat="48.80351" lon="-3.37429">
        <ele>65</ele>
        <time>2015-01-25T10:05:59Z</time>
      </trkpt>
      <trkpt lat="48.80345" lon="-3.37432">
        <ele>65</ele>
        <time>2015-01-25T10:06:00Z</time>
      </trkpt>
      <trkpt lat="48.80339" lon="-3.37436">
        <ele>65</ele>
        <time>2015-01-25T10:06:01Z</time>
      </trkpt>
      <trkpt lat="48.80333" lon="-3.37441">
        <ele>65</ele>
        <time>2015-01-25T10:06:02Z</time>
      </trkpt>
      <trkpt lat="48.80327" lon="-3.37446">
        <ele>65</ele>
        <time>2015-01-25T10:06:03Z</time>
      </trkpt>
      <trkpt lat="48.80322" lon="-3.37451">
        <ele>65</ele>
        <time>2015-01-25T10:06:04Z</time>
      </trkpt>
      <trkpt lat="48.80315" lon="-3.37456">
        <ele>65</ele>
        <time>2015-01-25T10:06:05Z</time>
      </trkpt>
      <trkpt lat="48.8031" lon="-3.37461">
        <ele>65</ele>
        <time>2015-01-25T10:06:06Z</time>
      </trkpt>
      <trkpt lat="48.80304" lon="-3.37466">
        <ele>65</ele>
        <time>2015-01-25T10:06:07Z</time>
      </trkpt>
      <trkpt lat="48.80299" lon="-3.37472">
        <ele>65</ele>
        <time>2015-01-25T10:06:08Z</time>
      </trkpt>
      <trkpt lat="48.80293" lon="-3.37477">
        <ele>65</ele>
        <time>2015-01-25T10:06:09Z</time>
      </trkpt>
      <trkpt lat="48.80287" lon="-3.37483">
        <ele>65</ele>
        <time>2015-01-25T10:06:10Z</time>
      </trkpt>
      <trkpt lat="48.80282" lon="-3.37489">
        <ele>66</ele>
        <time>2015-01-25T10:06:11Z</time>
      </trkpt>
      <trkpt lat="48.80276" lon="-3.37494">
        <ele>66</ele>
        <time>2015-01-25T10:06:12Z</time>
      </trkpt>
      <trkpt lat="48.80271" lon="-3.375">
        <ele>66</ele>
        <time>2015-01-25T10:06:13Z</time>
      </trkpt>
      <trkpt lat="48.80265" lon="-3.37506">
        <ele>66</ele>
        <time>2015-01-25T10:06:14Z</time>
      </trkpt>
      <trkpt lat="48.8026" lon="-3.37512">
        <ele>66</ele>
        <time>2015-01-25T10:06:15Z</time>
      </trkpt>
      <trkpt lat="48.80254" lon="-3.37518">
        <ele>66</ele>
        <time>2015-01-25T10:06:16Z</time>
      </trkpt>
      <trkpt lat="48.80249" lon="-3.37525">
        <ele>66</ele>
        <time>2015-01-25T10:06:17Z</time>
      </trkpt>
      <trkpt lat="48.80244" lon="-3.37531">
        <ele>66</ele>
        <time>2015-01-25T10:06:18Z</time>
      </trkpt>
      <trkpt lat="48.80238" lon="-3.37537">
        <ele>66</ele>
        <time>2015-01-25T10:06:19Z</time>
      </trkpt>
      <trkpt lat="48.80233" lon="-3.37543">
        <ele>66</ele>
        <time>2015-01-25T10:06:20Z</time>
      </trkpt>
      <trkpt lat="48.80228" lon="-3.37549">
        <ele>66</ele>
        <time>2015-01-25T10:06:21Z</time>
      </trkpt>
      <trkpt lat="48.80222" lon="-3.37555">
        <ele>66</ele>
        <time>2015-01-25T10:06:22Z</time>
      </trkpt>
      <trkpt lat="48.80216" lon="-3.37561">
        <ele>66</ele>
        <time>2015-01-25T10:06:23Z</time>
      </trkpt>
      <trkpt lat="48.80211" lon="-3.37568">
        <ele>66</ele>
        <time>2015-01-25T10:06:24Z</time>
      </trkpt>
      <trkpt lat="48.80205" lon="-3.37574">
        <ele>67</ele>
        <time>2015-01-25T10:06:25Z</time>
      </trkpt>
      <trkpt lat="48.80199" lon="-3.3758">
        <ele>67</ele>
        <time>2015-01-25T10:06:26Z</time>
      </trkpt>
      <trkpt lat="48.80194" lon="-3.37585">
        <ele>67</ele>
        <time>2015-01-25T10:06:27Z</time>
      </trkpt>
      <trkpt lat="48.80188" lon="-3.37591">
        <ele>67</ele>
        <time>2015-01-25T10:06:28Z</time>
      </trkpt>
      <trkpt lat="48.80183" lon="-3.37596">
        <ele>67</ele>
        <time>2015-01-25T10:06:29Z</time>
      </trkpt>
      <trkpt lat="48.80177" lon="-3.376">
        <ele>68</ele>
        <time>2015-01-25T10:06:30Z</time>
      </trkpt>
      <trkpt lat="48.80171" lon="-3.37605">
        <ele>68</ele>
        <time>2015-01-25T10:06:31Z</time>
      </trkpt>
      <trkpt lat="48.80166" lon="-3.3761">
        <ele>68</ele>
        <time>2015-01-25T10:06:32Z</time>
      </trkpt>
      <trkpt lat="48.8016" lon="-3.37614">
        <ele>68</ele>
        <time>2015-01-25T10:06:33Z</time>
      </trkpt>
      <trkpt lat="48.80155" lon="-3.3762">
        <ele>68</ele>
        <time>2015-01-25T10:06:34Z</time>
      </trkpt>
      <trkpt lat="48.80149" lon="-3.37625">
        <ele>68</ele>
        <time>2015-01-25T10:06:35Z</time>
      </trkpt>
      <trkpt lat="48.80144" lon="-3.3763">
        <ele>68</ele>
        <time>2015-01-25T10:06:36Z</time>
      </trkpt>
      <trkpt lat="48.80138" lon="-3.37636">
        <ele>68</ele>
        <time>2015-01-25T10:06:37Z</time>
      </trkpt>
      <trkpt lat="48.80133" lon="-3.37643">
        <ele>68</ele>
        <time>2015-01-25T10:06:38Z</time>
      </trkpt>
      <trkpt lat="48.80128" lon="-3.37649">
        <ele>68</ele>
        <time>2015-01-25T10:06:39Z</time>
      </trkpt>
      <trkpt lat="48.80123" lon="-3.37657">
        <ele>68</ele>
        <time>2015-01-25T10:06:40Z</time>
      </trkpt>
      <trkpt lat="48.80119" lon="-3.37664">
        <ele>68</ele>
        <time>2015-01-25T10:06:41Z</time>
      </trkpt>
      <trkpt lat="48.80115" lon="-3.37672">
        <ele>68</ele>
        <time>2015-01-25T10:06:42Z</time>
      </trkpt>
      <trkpt lat="48.80111" lon="-3.3768">
        <ele>69</ele>
        <time>2015-01-25T10:06:43Z</time>
      </trkpt>
      <trkpt lat="48.80107" lon="-3.37688">
        <ele>69</ele>
        <time>2015-01-25T10:06:44Z</time>
      </trkpt>
      <trkpt lat="48.80103" lon="-3.37696">
        <ele>69</ele>
        <time>2015-01-25T10:06:45Z</time>
      </trkpt>
      <trkpt lat="48.80099" lon="-3.37704">
        <ele>69</ele>
        <time>2015-01-25T10:06:46Z</time>
      </trkpt>
      <trkpt lat="48.80096" lon="-3.37712">
        <ele>69</ele>
        <time>2015-01-25T10:06:47Z</time>
      </trkpt>
      <trkpt lat="48.80092" lon="-3.3772">
        <ele>69</ele>
        <time>2015-01-25T10:06:48Z</time>
      </trkpt>
      <trkpt lat="48.80088" lon="-3.37728">
        <ele>69</ele>
        <time>2015-01-25T10:06:49Z</time>
      </trkpt>
      <trkpt lat="48.80084" lon="-3.37736">
        <ele>70</ele>
        <time>2015-01-25T10:06:50Z</time>
      </trkpt>
      <trkpt lat="48.8008" lon="-3.37744">
        <ele>70</ele>
        <time>2015-01-25T10:06:51Z</time>
      </trkpt>
      <trkpt lat="48.80076" lon="-3.37751">
        <ele>70</ele>
        <time>2015-01-25T10:06:52Z</time>
      </trkpt>
      <trkpt lat="48.80072" lon="-3.37758">
        <ele>70</ele>
        <time>2015-01-25T10:06:53Z</time>
      </trkpt>
      <trkpt lat="48.80068" lon="-3.37766">
        <ele>71</ele>
        <time>2015-01-25T10:06:54Z</time>
      </trkpt>
      <trkpt lat="48.80064" lon="-3.37774">
        <ele>71</ele>
        <time>2015-01-25T10:06:55Z</time>
      </trkpt>
      <trkpt lat="48.80061" lon="-3.37783">
        <ele>71</ele>
        <time>2015-01-25T10:06:56Z</time>
      </trkpt>
      <trkpt lat="48.80058" lon="-3.37791">
        <ele>71</ele>
        <time>2015-01-25T10:06:57Z</time>
      </trkpt>
      <trkpt lat="48.80055" lon="-3.37801">
        <ele>71</ele>
        <time>2015-01-25T10:06:58Z</time>
      </trkpt>
      <trkpt lat="48.80053" lon="-3.3781">
        <ele>71</ele>
        <time>2015-01-25T10:06:59Z</time>
      </trkpt>
      <trkpt lat="48.80051" lon="-3.37821">
        <ele>71</ele>
        <time>2015-01-25T10:07:00Z</time>
      </trkpt>
      <trkpt lat="48.8005" lon="-3.37831">
        <ele>71</ele>
        <time>2015-01-25T10:07:01Z</time>
      </trkpt>
      <trkpt lat="48.80049" lon="-3.37842">
        <ele>71</ele>
        <time>2015-01-25T10:07:02Z</time>
      </trkpt>
      <trkpt lat="48.80048" lon="-3.37853">
        <ele>71</ele>
        <time>2015-01-25T10:07:03Z</time>
      </trkpt>
      <trkpt lat="48.80048" lon="-3.37864">
        <ele>71</ele>
        <time>2015-01-25T10:07:04Z</time>
      </trkpt>
      <trkpt lat="48.80047" lon="-3.37875">
        <ele>71</ele>
        <time>2015-01-25T10:07:05Z</time>
      </trkpt>
      <trkpt lat="48.80046" lon="-3.37886">
        <ele>71</ele>
        <time>2015-01-25T10:07:06Z</time>
      </trkpt>
      <trkpt lat="48.80045" lon="-3.37897">
        <ele>71</ele>
        <time>2015-01-25T10:07:07Z</time>
      </trkpt>
      <trkpt lat="48.80044" lon="-3.37908">
        <ele>71</ele>
        <time>2015-01-25T10:07:08Z</time>
      </trkpt>
      <trkpt lat="48.80041" lon="-3.37919">
        <ele>71</ele>
        <time>2015-01-25T10:07:09Z</time>
      </trkpt>
      <trkpt lat="48.80038" lon="-3.37929">
        <ele>71</ele>
        <time>2015-01-25T10:07:10Z</time>
      </trkpt>
      <trkpt lat="48.80035" lon="-3.37939">
        <ele>71</ele>
        <time>2015-01-25T10:07:11Z</time>
      </trkpt>
      <trkpt lat="48.8003" lon="-3.37949">
        <ele>71</ele>
        <time>2015-01-25T10:07:12Z</time>
      </trkpt>
      <trkpt lat="48.80026" lon="-3.37958">
        <ele>71</ele>
        <time>2015-01-25T10:07:13Z</time>
      </trkpt>
      <trkpt lat="48.8002" lon="-3.37966">
        <ele>71</ele>
        <time>2015-01-25T10:07:14Z</time>
      </trkpt>
      <trkpt lat="48.80015" lon="-3.37974">
        <ele>71</ele>
        <time>2015-01-25T10:07:15Z</time>
      </trkpt>
      <trkpt lat="48.80009" lon="-3.37982">
        <ele>71</ele>
        <time>2015-01-25T10:07:16Z</time>
      </trkpt>
      <trkpt lat="48.80002" lon="-3.37988">
        <ele>71</ele>
        <time>2015-01-25T10:07:17Z</time>
      </trkpt>
      <trkpt lat="48.79995" lon="-3.37995">
        <ele>71</ele>
        <time>2015-01-25T10:07:18Z</time>
      </trkpt>
      <trkpt lat="48.79988" lon="-3.38001">
        <ele>71</ele>
        <time>2015-01-25T10:07:19Z</time>
      </trkpt>
      <trkpt lat="48.79982" lon="-3.38007">
        <ele>71</ele>
        <time>2015-01-25T10:07:20Z</time>
      </trkpt>
      <trkpt lat="48.79975" lon="-3.38014">
        <ele>71</ele>
        <time>2015-01-25T10:07:21Z</time>
      </trkpt>
      <trkpt lat="48.79969" lon="-3.38019">
        <ele>71</ele>
        <time>2015-01-25T10:07:22Z</time>
      </trkpt>
      <trkpt lat="48.79962" lon="-3.38026">
        <ele>71</ele>
        <time>2015-01-25T10:07:23Z</time>
      </trkpt>
      <trkpt lat="48.79956" lon="-3.38032">
        <ele>71</ele>
        <time>2015-01-25T10:07:24Z</time>
      </trkpt>
      <trkpt lat="48.7995" lon="-3.38037">
        <ele>71</ele>
        <time>2015-01-25T10:07:25Z</time>
      </trkpt>
      <trkpt lat="48.79943" lon="-3.38044">
        <ele>71</ele>
        <time>2015-01-25T10:07:26Z</time>
      </trkpt>
      <trkpt lat="48.79937" lon="-3.3805">
        <ele>71</ele>
        <time>2015-01-25T10:07:27Z</time>
      </trkpt>
      <trkpt lat="48.79932" lon="-3.38057">
        <ele>71</ele>
        <time>2015-01-25T10:07:28Z</time>
      </trkpt>
      <trkpt lat="48.79926" lon="-3.38064">
        <ele>71</ele>
        <time>2015-01-25T10:07:29Z</time>
      </trkpt>
      <trkpt lat="48.7992" lon="-3.38071">
        <ele>71</ele>
        <time>2015-01-25T10:07:30Z</time>
      </trkpt>
      <trkpt lat="48.79915" lon="-3.38079">
        <ele>71</ele>
        <time>2015-01-25T10:07:31Z</time>
      </trkpt>
      <trkpt lat="48.79909" lon="-3.38087">
        <ele>71</ele>
        <time>2015-01-25T10:07:32Z</time>
      </trkpt>
      <trkpt lat="48.79904" lon="-3.38095">
        <ele>71</ele>
        <time>2015-01-25T10:07:33Z</time>
      </trkpt>
      <trkpt lat="48.79898" lon="-3.38104">
        <ele>71</ele>
        <time>2015-01-25T10:07:34Z</time>
      </trkpt>
      <trkpt lat="48.79893" lon="-3.38113">
        <ele>71</ele>
        <time>2015-01-25T10:07:35Z</time>
      </trkpt>
      <trkpt lat="48.79888" lon="-3.38123">
        <ele>71</ele>
        <time>2015-01-25T10:07:36Z</time>
      </trkpt>
      <trkpt lat="48.79884" lon="-3.38133">
        <ele>71</ele>
        <time>2015-01-25T10:07:37Z</time>
      </trkpt>
      <trkpt lat="48.79879" lon="-3.38143">
        <ele>71</ele>
        <time>2015-01-25T10:07:38Z</time>
      </trkpt>
      <trkpt lat="48.79874" lon="-3.38154">
        <ele>71</ele>
        <time>2015-01-25T10:07:39Z</time>
      </trkpt>
      <trkpt lat="48.7987" lon="-3.38166">
        <ele>71</ele>
        <time>2015-01-25T10:07:40Z</time>
      </trkpt>
      <trkpt lat="48.79866" lon="-3.38177">
        <ele>71</ele>
        <time>2015-01-25T10:07:41Z</time>
      </trkpt>
      <trkpt lat="48.79862" lon="-3.38189">
        <ele>71</ele>
        <time>2015-01-25T10:07:42Z</time>
      </trkpt>
      <trkpt lat="48.79858" lon="-3.382">
        <ele>71</ele>
        <time>2015-01-25T10:07:43Z</time>
      </trkpt>
      <trkpt lat="48.79854" lon="-3.38212">
        <ele>71</ele>
        <time>2015-01-25T10:07:44Z</time>
      </trkpt>
      <trkpt lat="48.7985" lon="-3.38223">
        <ele>71</ele>
        <time>2015-01-25T10:07:45Z</time>
      </trkpt>
      <trkpt lat="48.79846" lon="-3.38235">
        <ele>71</ele>
        <time>2015-01-25T10:07:46Z</time>
      </trkpt>
      <trkpt lat="48.79842" lon="-3.38246">
        <ele>71</ele>
        <time>2015-01-25T10:07:47Z</time>
      </trkpt>
      <trkpt lat="48.79837" lon="-3.38258">
        <ele>71</ele>
        <time>2015-01-25T10:07:48Z</time>
      </trkpt>
      <trkpt lat="48.79833" lon="-3.38268">
        <ele>71</ele>
        <time>2015-01-25T10:07:49Z</time>
      </trkpt>
      <trkpt lat="48.79828" lon="-3.38279">
        <ele>71</ele>
        <time>2015-01-25T10:07:50Z</time>
      </trkpt>
      <trkpt lat="48.79822" lon="-3.38289">
        <ele>71</ele>
        <time>2015-01-25T10:07:51Z</time>
      </trkpt>
      <trkpt lat="48.79816" lon="-3.38298">
        <ele>71</ele>
        <time>2015-01-25T10:07:52Z</time>
      </trkpt>
      <trkpt lat="48.7981" lon="-3.38307">
        <ele>71</ele>
        <time>2015-01-25T10:07:53Z</time>
      </trkpt>
      <trkpt lat="48.79803" lon="-3.38315">
        <ele>71</ele>
        <time>2015-01-25T10:07:54Z</time>
      </trkpt>
      <trkpt lat="48.79796" lon="-3.38322">
        <ele>71</ele>
        <time>2015-01-25T10:07:55Z</time>
      </trkpt>
      <trkpt lat="48.79789" lon="-3.38328">
        <ele>71</ele>
        <time>2015-01-25T10:07:56Z</time>
      </trkpt>
      <trkpt lat="48.79782" lon="-3.38334">
        <ele>71</ele>
        <time>2015-01-25T10:07:57Z</time>
      </trkpt>
      <trkpt lat="48.79774" lon="-3.38339">
        <ele>71</ele>
        <time>2015-01-25T10:07:58Z</time>
      </trkpt>
      <trkpt lat="48.79766" lon="-3.38344">
        <ele>71</ele>
        <time>2015-01-25T10:07:59Z</time>
      </trkpt>
      <trkpt lat="48.79759" lon="-3.38349">
        <ele>71</ele>
        <time>2015-01-25T10:08:00Z</time>
      </trkpt>
      <trkpt lat="48.79751" lon="-3.38354">
        <ele>71</ele>
        <time>2015-01-25T10:08:01Z</time>
      </trkpt>
      <trkpt lat="48.79743" lon="-3.38359">
        <ele>71</ele>
        <time>2015-01-25T10:08:02Z</time>
      </trkpt>
      <trkpt lat="48.79735" lon="-3.38363">
        <ele>71</ele>
        <time>2015-01-25T10:08:03Z</time>
      </trkpt>
      <trkpt lat="48.79727" lon="-3.38368">
        <ele>71</ele>
        <time>2015-01-25T10:08:04Z</time>
      </trkpt>
      <trkpt lat="48.79719" lon="-3.38371">
        <ele>71</ele>
        <time>2015-01-25T10:08:05Z</time>
      </trkpt>
      <trkpt lat="48.79711" lon="-3.38374">
        <ele>71</ele>
        <time>2015-01-25T10:08:06Z</time>
      </trkpt>
      <trkpt lat="48.79702" lon="-3.38376">
        <ele>71</ele>
        <time>2015-01-25T10:08:07Z</time>
      </trkpt>
      <trkpt lat="48.79686" lon="-3.38375">
        <ele>71</ele>
        <time>2015-01-25T10:08:09Z</time>
      </trkpt>
      <trkpt lat="48.79678" lon="-3.38372">
        <ele>70</ele>
        <time>2015-01-25T10:08:10Z</time>
      </trkpt>
      <trkpt lat="48.79669" lon="-3.38369">
        <ele>70</ele>
        <time>2015-01-25T10:08:11Z</time>
      </trkpt>
      <trkpt lat="48.79661" lon="-3.38364">
        <ele>70</ele>
        <time>2015-01-25T10:08:12Z</time>
      </trkpt>
      <trkpt lat="48.79653" lon="-3.38359">
        <ele>70</ele>
        <time>2015-01-25T10:08:13Z</time>
      </trkpt>
      <trkpt lat="48.79646" lon="-3.38353">
        <ele>69</ele>
        <time>2015-01-25T10:08:14Z</time>
      </trkpt>
      <trkpt lat="48.79638" lon="-3.38347">
        <ele>69</ele>
        <time>2015-01-25T10:08:15Z</time>
      </trkpt>
      <trkpt lat="48.79631" lon="-3.3834">
        <ele>69</ele>
        <time>2015-01-25T10:08:16Z</time>
      </trkpt>
      <trkpt lat="48.79623" lon="-3.38334">
        <ele>69</ele>
        <time>2015-01-25T10:08:17Z</time>
      </trkpt>
      <trkpt lat="48.79616" lon="-3.38327">
        <ele>68</ele>
        <time>2015-01-25T10:08:18Z</time>
      </trkpt>
      <trkpt lat="48.7961" lon="-3.3832">
        <ele>68</ele>
        <time>2015-01-25T10:08:19Z</time>
      </trkpt>
      <trkpt lat="48.79603" lon="-3.38314">
        <ele>68</ele>
        <time>2015-01-25T10:08:20Z</time>
      </trkpt>
      <trkpt lat="48.79596" lon="-3.38308">
        <ele>67</ele>
        <time>2015-01-25T10:08:21Z</time>
      </trkpt>
      <trkpt lat="48.79589" lon="-3.38301">
        <ele>67</ele>
        <time>2015-01-25T10:08:22Z</time>
      </trkpt>
      <trkpt lat="48.79583" lon="-3.38294">
        <ele>66</ele>
        <time>2015-01-25T10:08:23Z</time>
      </trkpt>
      <trkpt lat="48.79576" lon="-3.38286">
        <ele>66</ele>
        <time>2015-01-25T10:08:24Z</time>
      </trkpt>
      <trkpt lat="48.7957" lon="-3.38278">
        <ele>65</ele>
        <time>2015-01-25T10:08:25Z</time>
      </trkpt>
      <trkpt lat="48.79565" lon="-3.38269">
        <ele>65</ele>
        <time>2015-01-25T10:08:26Z</time>
      </trkpt>
      <trkpt lat="48.79559" lon="-3.3826">
        <ele>65</ele>
        <time>2015-01-25T10:08:27Z</time>
      </trkpt>
      <trkpt lat="48.79554" lon="-3.38249">
        <ele>64</ele>
        <time>2015-01-25T10:08:28Z</time>
      </trkpt>
      <trkpt lat="48.79548" lon="-3.3824">
        <ele>64</ele>
        <time>2015-01-25T10:08:29Z</time>
      </trkpt>
      <trkpt lat="48.79543" lon="-3.38229">
        <ele>64</ele>
        <time>2015-01-25T10:08:30Z</time>
      </trkpt>
      <trkpt lat="48.79538" lon="-3.3822">
        <ele>64</ele>
        <time>2015-01-25T10:08:31Z</time>
      </trkpt>
      <trkpt lat="48.79532" lon="-3.3821">
        <ele>64</ele>
        <time>2015-01-25T10:08:32Z</time>
      </trkpt>
      <trkpt lat="48.79527" lon="-3.38201">
        <ele>64</ele>
        <time>2015-01-25T10:08:33Z</time>
      </trkpt>
      <trkpt lat="48.79521" lon="-3.38191">
        <ele>64</ele>
        <time>2015-01-25T10:08:34Z</time>
      </trkpt>
      <trkpt lat="48.79515" lon="-3.38182">
        <ele>64</ele>
        <time>2015-01-25T10:08:35Z</time>
      </trkpt>
      <trkpt lat="48.79509" lon="-3.38173">
        <ele>64</ele>
        <time>2015-01-25T10:08:36Z</time>
      </trkpt>
      <trkpt lat="48.79503" lon="-3.38164">
        <ele>64</ele>
        <time>2015-01-25T10:08:37Z</time>
      </trkpt>
      <trkpt lat="48.79496" lon="-3.38155">
        <ele>64</ele>
        <time>2015-01-25T10:08:38Z</time>
      </trkpt>
      <trkpt lat="48.7949" lon="-3.38146">
        <ele>64</ele>
        <time>2015-01-25T10:08:39Z</time>
      </trkpt>
      <trkpt lat="48.79483" lon="-3.38137">
        <ele>63</ele>
        <time>2015-01-25T10:08:40Z</time>
      </trkpt>
      <trkpt lat="48.79477" lon="-3.38127">
        <ele>63</ele>
        <time>2015-01-25T10:08:41Z</time>
      </trkpt>
      <trkpt lat="48.79471" lon="-3.38117">
        <ele>63</ele>
        <time>2015-01-25T10:08:42Z</time>
      </trkpt>
      <trkpt lat="48.79465" lon="-3.38107">
        <ele>63</ele>
        <time>2015-01-25T10:08:43Z</time>
      </trkpt>
      <trkpt lat="48.79459" lon="-3.38096">
        <ele>63</ele>
        <time>2015-01-25T10:08:44Z</time>
      </trkpt>
      <trkpt lat="48.79454" lon="-3.38085">
        <ele>63</ele>
        <time>2015-01-25T10:08:45Z</time>
      </trkpt>
      <trkpt lat="48.79449" lon="-3.38073">
        <ele>63</ele>
        <time>2015-01-25T10:08:46Z</time>
      </trkpt>
      <trkpt lat="48.79444" lon="-3.38061">
        <ele>63</ele>
        <time>2015-01-25T10:08:47Z</time>
      </trkpt>
      <trkpt lat="48.7944" lon="-3.3805">
        <ele>63</ele>
        <time>2015-01-25T10:08:48Z</time>
      </trkpt>
      <trkpt lat="48.79435" lon="-3.38038">
        <ele>63</ele>
        <time>2015-01-25T10:08:49Z</time>
      </trkpt>
      <trkpt lat="48.7943" lon="-3.38026">
        <ele>62</ele>
        <time>2015-01-25T10:08:50Z</time>
      </trkpt>
      <trkpt lat="48.79425" lon="-3.38014">
        <ele>62</ele>
        <time>2015-01-25T10:08:51Z</time>
      </trkpt>
      <trkpt lat="48.79419" lon="-3.38003">
        <ele>62</ele>
        <time>2015-01-25T10:08:52Z</time>
      </trkpt>
      <trkpt lat="48.79412" lon="-3.37994">
        <ele>62</ele>
        <time>2015-01-25T10:08:53Z</time>
      </trkpt>
      <trkpt lat="48.79405" lon="-3.37985">
        <ele>61</ele>
        <time>2015-01-25T10:08:54Z</time>
      </trkpt>
      <trkpt lat="48.79397" lon="-3.37977">
        <ele>61</ele>
        <time>2015-01-25T10:08:55Z</time>
      </trkpt>
      <trkpt lat="48.7939" lon="-3.37968">
        <ele>61</ele>
        <time>2015-01-25T10:08:56Z</time>
      </trkpt>
      <trkpt lat="48.79383" lon="-3.37959">
        <ele>60</ele>
        <time>2015-01-25T10:08:57Z</time>
      </trkpt>
      <trkpt lat="48.79376" lon="-3.37948">
        <ele>60</ele>
        <time>2015-01-25T10:08:58Z</time>
      </trkpt>
      <trkpt lat="48.7937" lon="-3.37936">
        <ele>60</ele>
        <time>2015-01-25T10:08:59Z</time>
      </trkpt>
      <trkpt lat="48.79365" lon="-3.37924">
        <ele>59</ele>
        <time>2015-01-25T10:09:00Z</time>
      </trkpt>
      <trkpt lat="48.79359" lon="-3.37911">
        <ele>59</ele>
        <time>2015-01-25T10:09:01Z</time>
      </trkpt>
      <trkpt lat="48.79354" lon="-3.37898">
        <ele>59</ele>
        <time>2015-01-25T10:09:02Z</time>
      </trkpt>
      <trkpt lat="48.79348" lon="-3.37885">
        <ele>58</ele>
        <time>2015-01-25T10:09:03Z</time>
      </trkpt>
      <trkpt lat="48.79342" lon="-3.37873">
        <ele>58</ele>
        <time>2015-01-25T10:09:04Z</time>
      </trkpt>
      <trkpt lat="48.79335" lon="-3.37861">
        <ele>58</ele>
        <time>2015-01-25T10:09:05Z</time>
      </trkpt>
      <trkpt lat="48.79328" lon="-3.37851">
        <ele>57</ele>
        <time>2015-01-25T10:09:06Z</time>
      </trkpt>
      <trkpt lat="48.7932" lon="-3.37842">
        <ele>57</ele>
        <time>2015-01-25T10:09:07Z</time>
      </trkpt>
      <trkpt lat="48.79312" lon="-3.37834">
        <ele>56</ele>
        <time>2015-01-25T10:09:08Z</time>
      </trkpt>
      <trkpt lat="48.79304" lon="-3.37826">
        <ele>55</ele>
        <time>2015-01-25T10:09:09Z</time>
      </trkpt>
      <trkpt lat="48.79297" lon="-3.37818">
        <ele>55</ele>
        <time>2015-01-25T10:09:10Z</time>
      </trkpt>
      <trkpt lat="48.79289" lon="-3.3781">
        <ele>54</ele>
        <time>2015-01-25T10:09:11Z</time>
      </trkpt>
      <trkpt lat="48.79281" lon="-3.37802">
        <ele>54</ele>
        <time>2015-01-25T10:09:12Z</time>
      </trkpt>
      <trkpt lat="48.79273" lon="-3.37794">
        <ele>53</ele>
        <time>2015-01-25T10:09:13Z</time>
      </trkpt>
      <trkpt lat="48.79265" lon="-3.37786">
        <ele>53</ele>
        <time>2015-01-25T10:09:14Z</time>
      </trkpt>
      <trkpt lat="48.79258" lon="-3.37779">
        <ele>53</ele>
        <time>2015-01-25T10:09:15Z</time>
      </trkpt>
      <trkpt lat="48.7925" lon="-3.37772">
        <ele>52</ele>
        <time>2015-01-25T10:09:16Z</time>
      </trkpt>
      <trkpt lat="48.79242" lon="-3.37765">
        <ele>52</ele>
        <time>2015-01-25T10:09:17Z</time>
      </trkpt>
      <trkpt lat="48.79234" lon="-3.37761">
        <ele>51</ele>
        <time>2015-01-25T10:09:18Z</time>
      </trkpt>
      <trkpt lat="48.79225" lon="-3.37758">
        <ele>50</ele>
        <time>2015-01-25T10:09:19Z</time>
      </trkpt>
      <trkpt lat="48.79216" lon="-3.37759">
        <ele>50</ele>
        <time>2015-01-25T10:09:20Z</time>
      </trkpt>
      <trkpt lat="48.79208" lon="-3.37763">
        <ele>49</ele>
        <time>2015-01-25T10:09:21Z</time>
      </trkpt>
      <trkpt lat="48.792" lon="-3.37771">
        <ele>49</ele>
        <time>2015-01-25T10:09:22Z</time>
      </trkpt>
      <trkpt lat="48.79194" lon="-3.37781">
        <ele>48</ele>
        <time>2015-01-25T10:09:23Z</time>
      </trkpt>
      <trkpt lat="48.79189" lon="-3.37793">
        <ele>48</ele>
        <time>2015-01-25T10:09:24Z</time>
      </trkpt>
      <trkpt lat="48.79184" lon="-3.37805">
        <ele>48</ele>
        <time>2015-01-25T10:09:25Z</time>
      </trkpt>
      <trkpt lat="48.79179" lon="-3.37817">
        <ele>48</ele>
        <time>2015-01-25T10:09:26Z</time>
      </trkpt>
      <trkpt lat="48.79173" lon="-3.37827">
        <ele>48</ele>
        <time>2015-01-25T10:09:27Z</time>
      </trkpt>
      <trkpt lat="48.79166" lon="-3.37836">
        <ele>48</ele>
        <time>2015-01-25T10:09:28Z</time>
      </trkpt>
      <trkpt lat="48.79158" lon="-3.37843">
        <ele>48</ele>
        <time>2015-01-25T10:09:29Z</time>
      </trkpt>
      <trkpt lat="48.79151" lon="-3.37849">
        <ele>48</ele>
        <time>2015-01-25T10:09:30Z</time>
      </trkpt>
      <trkpt lat="48.79144" lon="-3.37854">
        <ele>48</ele>
        <time>2015-01-25T10:09:31Z</time>
      </trkpt>
      <trkpt lat="48.79137" lon="-3.37857">
        <ele>48</ele>
        <time>2015-01-25T10:09:32Z</time>
      </trkpt>
      <trkpt lat="48.7913" lon="-3.37861">
        <ele>48</ele>
        <time>2015-01-25T10:09:33Z</time>
      </trkpt>
      <trkpt lat="48.79124" lon="-3.37864">
        <ele>48</ele>
        <time>2015-01-25T10:09:34Z</time>
      </trkpt>
      <trkpt lat="48.79118" lon="-3.37867">
        <ele>48</ele>
        <time>2015-01-25T10:09:35Z</time>
      </trkpt>
      <trkpt lat="48.79112" lon="-3.37871">
        <ele>48</ele>
        <time>2015-01-25T10:09:36Z</time>
      </trkpt>
      <trkpt lat="48.79107" lon="-3.37875">
        <ele>48</ele>
        <time>2015-01-25T10:09:37Z</time>
      </trkpt>
      <trkpt lat="48.79102" lon="-3.3788">
        <ele>48</ele>
        <time>2015-01-25T10:09:38Z</time>
      </trkpt>
      <trkpt lat="48.79098" lon="-3.37885">
        <ele>48</ele>
        <time>2015-01-25T10:09:39Z</time>
      </trkpt>
      <trkpt lat="48.79094" lon="-3.3789">
        <ele>48</ele>
        <time>2015-01-25T10:09:40Z</time>
      </trkpt>
      <trkpt lat="48.79091" lon="-3.37897">
        <ele>48</ele>
        <time>2015-01-25T10:09:41Z</time>
      </trkpt>
      <trkpt lat="48.79089" lon="-3.37904">
        <ele>48</ele>
        <time>2015-01-25T10:09:42Z</time>
      </trkpt>
      <trkpt lat="48.79086" lon="-3.37911">
        <ele>48</ele>
        <time>2015-01-25T10:09:43Z</time>
      </trkpt>
      <trkpt lat="48.79084" lon="-3.37917">
        <ele>48</ele>
        <time>2015-01-25T10:09:44Z</time>
      </trkpt>
      <trkpt lat="48.79082" lon="-3.37926">
        <ele>48</ele>
        <time>2015-01-25T10:09:45Z</time>
      </trkpt>
      <trkpt lat="48.79081" lon="-3.37933">
        <ele>48</ele>
        <time>2015-01-25T10:09:46Z</time>
      </trkpt>
      <trkpt lat="48.79079" lon="-3.37942">
        <ele>48</ele>
        <time>2015-01-25T10:09:47Z</time>
      </trkpt>
      <trkpt lat="48.79077" lon="-3.37949">
        <ele>48</ele>
        <time>2015-01-25T10:09:48Z</time>
      </trkpt>
      <trkpt lat="48.79075" lon="-3.37957">
        <ele>48</ele>
        <time>2015-01-25T10:09:49Z</time>
      </trkpt>
      <trkpt lat="48.79073" lon="-3.37965">
        <ele>48</ele>
        <time>2015-01-25T10:09:50Z</time>
      </trkpt>
      <trkpt lat="48.7907" lon="-3.37973">
        <ele>48</ele>
        <time>2015-01-25T10:09:51Z</time>
      </trkpt>
      <trkpt lat="48.79068" lon="-3.37981">
        <ele>48</ele>
        <time>2015-01-25T10:09:52Z</time>
      </trkpt>
      <trkpt lat="48.79066" lon="-3.37989">
        <ele>48</ele>
        <time>2015-01-25T10:09:53Z</time>
      </trkpt>
      <trkpt lat="48.79063" lon="-3.37996">
        <ele>49</ele>
        <time>2015-01-25T10:09:54Z</time>
      </trkpt>
      <trkpt lat="48.79061" lon="-3.38004">
        <ele>49</ele>
        <time>2015-01-25T10:09:55Z</time>
      </trkpt>
      <trkpt lat="48.79059" lon="-3.38012">
        <ele>49</ele>
        <time>2015-01-25T10:09:56Z</time>
      </trkpt>
      <trkpt lat="48.79057" lon="-3.38019">
        <ele>49</ele>
        <time>2015-01-25T10:09:57Z</time>
      </trkpt>
      <trkpt lat="48.79055" lon="-3.38026">
        <ele>50</ele>
        <time>2015-01-25T10:09:58Z</time>
      </trkpt>
      <trkpt lat="48.79052" lon="-3.38034">
        <ele>50</ele>
        <time>2015-01-25T10:09:59Z</time>
      </trkpt>
      <trkpt lat="48.7905" lon="-3.3804">
        <ele>50</ele>
        <time>2015-01-25T10:10:00Z</time>
      </trkpt>
      <trkpt lat="48.79048" lon="-3.38047">
        <ele>51</ele>
        <time>2015-01-25T10:10:01Z</time>
      </trkpt>
      <trkpt lat="48.79047" lon="-3.38054">
        <ele>51</ele>
        <time>2015-01-25T10:10:02Z</time>
      </trkpt>
      <trkpt lat="48.79044" lon="-3.38061">
        <ele>52</ele>
        <time>2015-01-25T10:10:03Z</time>
      </trkpt>
      <trkpt lat="48.79042" lon="-3.38068">
        <ele>52</ele>
        <time>2015-01-25T10:10:04Z</time>
      </trkpt>
      <trkpt lat="48.7904" lon="-3.38074">
        <ele>52</ele>
        <time>2015-01-25T10:10:05Z</time>
      </trkpt>
      <trkpt lat="48.79038" lon="-3.38082">
        <ele>53</ele>
        <time>2015-01-25T10:10:06Z</time>
      </trkpt>
      <trkpt lat="48.79036" lon="-3.38088">
        <ele>53</ele>
        <time>2015-01-25T10:10:07Z</time>
      </trkpt>
      <trkpt lat="48.79034" lon="-3.38095">
        <ele>53</ele>
        <time>2015-01-25T10:10:08Z</time>
      </trkpt>
      <trkpt lat="48.79032" lon="-3.38102">
        <ele>54</ele>
        <time>2015-01-25T10:10:09Z</time>
      </trkpt>
      <trkpt lat="48.7903" lon="-3.38109">
        <ele>54</ele>
        <time>2015-01-25T10:10:10Z</time>
      </trkpt>
      <trkpt lat="48.79028" lon="-3.38116">
        <ele>54</ele>
        <time>2015-01-25T10:10:11Z</time>
      </trkpt>
      <trkpt lat="48.79027" lon="-3.38123">
        <ele>55</ele>
        <time>2015-01-25T10:10:12Z</time>
      </trkpt>
      <trkpt lat="48.79026" lon="-3.3813">
        <ele>55</ele>
        <time>2015-01-25T10:10:13Z</time>
      </trkpt>
      <trkpt lat="48.79025" lon="-3.38138">
        <ele>55</ele>
        <time>2015-01-25T10:10:14Z</time>
      </trkpt>
      <trkpt lat="48.79024" lon="-3.38145">
        <ele>56</ele>
        <time>2015-01-25T10:10:15Z</time>
      </trkpt>
      <trkpt lat="48.79023" lon="-3.38152">
        <ele>56</ele>
        <time>2015-01-25T10:10:16Z</time>
      </trkpt>
      <trkpt lat="48.79022" lon="-3.38159">
        <ele>57</ele>
        <time>2015-01-25T10:10:17Z</time>
      </trkpt>
      <trkpt lat="48.79022" lon="-3.38167">
        <ele>57</ele>
        <time>2015-01-25T10:10:18Z</time>
      </trkpt>
      <trkpt lat="48.79021" lon="-3.38174">
        <ele>57</ele>
        <time>2015-01-25T10:10:19Z</time>
      </trkpt>
      <trkpt lat="48.79021" lon="-3.38182">
        <ele>58</ele>
        <time>2015-01-25T10:10:20Z</time>
      </trkpt>
      <trkpt lat="48.79021" lon="-3.38189">
        <ele>58</ele>
        <time>2015-01-25T10:10:21Z</time>
      </trkpt>
      <trkpt lat="48.7902" lon="-3.38197">
        <ele>59</ele>
        <time>2015-01-25T10:10:22Z</time>
      </trkpt>
      <trkpt lat="48.7902" lon="-3.38211">
        <ele>59</ele>
        <time>2015-01-25T10:10:24Z</time>
      </trkpt>
      <trkpt lat="48.7902" lon="-3.38227">
        <ele>60</ele>
        <time>2015-01-25T10:10:26Z</time>
      </trkpt>
      <trkpt lat="48.79019" lon="-3.38242">
        <ele>61</ele>
        <time>2015-01-25T10:10:28Z</time>
      </trkpt>
      <trkpt lat="48.79019" lon="-3.38281">
        <ele>62</ele>
        <time>2015-01-25T10:10:33Z</time>
      </trkpt>
      <trkpt lat="48.79018" lon="-3.38304">
        <ele>63</ele>
        <time>2015-01-25T10:10:36Z</time>
      </trkpt>
      <trkpt lat="48.79018" lon="-3.38326">
        <ele>64</ele>
        <time>2015-01-25T10:10:39Z</time>
      </trkpt>
      <trkpt lat="48.79018" lon="-3.38361">
        <ele>65</ele>
        <time>2015-01-25T10:10:44Z</time>
      </trkpt>
      <trkpt lat="48.79017" lon="-3.38391">
        <ele>66</ele>
        <time>2015-01-25T10:10:48Z</time>
      </trkpt>
      <trkpt lat="48.79017" lon="-3.3843">
        <ele>67</ele>
        <time>2015-01-25T10:10:53Z</time>
      </trkpt>
      <trkpt lat="48.79016" lon="-3.38456">
        <ele>68</ele>
        <time>2015-01-25T10:10:56Z</time>
      </trkpt>
      <trkpt lat="48.79016" lon="-3.38465">
        <ele>68</ele>
        <time>2015-01-25T10:10:57Z</time>
      </trkpt>
      <trkpt lat="48.79015" lon="-3.38474">
        <ele>68</ele>
        <time>2015-01-25T10:10:58Z</time>
      </trkpt>
      <trkpt lat="48.79015" lon="-3.38483">
        <ele>69</ele>
        <time>2015-01-25T10:10:59Z</time>
      </trkpt>
      <trkpt lat="48.79014" lon="-3.38492">
        <ele>69</ele>
        <time>2015-01-25T10:11:00Z</time>
      </trkpt>
      <trkpt lat="48.79013" lon="-3.38501">
        <ele>69</ele>
        <time>2015-01-25T10:11:01Z</time>
      </trkpt>
      <trkpt lat="48.79011" lon="-3.38509">
        <ele>69</ele>
        <time>2015-01-25T10:11:02Z</time>
      </trkpt>
      <trkpt lat="48.7901" lon="-3.38518">
        <ele>69</ele>
        <time>2015-01-25T10:11:03Z</time>
      </trkpt>
      <trkpt lat="48.79007" lon="-3.38527">
        <ele>69</ele>
        <time>2015-01-25T10:11:04Z</time>
      </trkpt>
      <trkpt lat="48.79005" lon="-3.38535">
        <ele>70</ele>
        <time>2015-01-25T10:11:05Z</time>
      </trkpt>
      <trkpt lat="48.79003" lon="-3.38544">
        <ele>70</ele>
        <time>2015-01-25T10:11:06Z</time>
      </trkpt>
      <trkpt lat="48.79001" lon="-3.38552">
        <ele>70</ele>
        <time>2015-01-25T10:11:07Z</time>
      </trkpt>
      <trkpt lat="48.78999" lon="-3.3856">
        <ele>70</ele>
        <time>2015-01-25T10:11:08Z</time>
      </trkpt>
      <trkpt lat="48.78996" lon="-3.38567">
        <ele>70</ele>
        <time>2015-01-25T10:11:09Z</time>
      </trkpt>
      <trkpt lat="48.78994" lon="-3.38575">
        <ele>71</ele>
        <time>2015-01-25T10:11:10Z</time>
      </trkpt>
      <trkpt lat="48.78991" lon="-3.38582">
        <ele>71</ele>
        <time>2015-01-25T10:11:11Z</time>
      </trkpt>
      <trkpt lat="48.78989" lon="-3.38589">
        <ele>71</ele>
        <time>2015-01-25T10:11:12Z</time>
      </trkpt>
      <trkpt lat="48.78986" lon="-3.38597">
        <ele>71</ele>
        <time>2015-01-25T10:11:13Z</time>
      </trkpt>
      <trkpt lat="48.78983" lon="-3.38605">
        <ele>71</ele>
        <time>2015-01-25T10:11:14Z</time>
      </trkpt>
      <trkpt lat="48.7898" lon="-3.38612">
        <ele>71</ele>
        <time>2015-01-25T10:11:15Z</time>
      </trkpt>
      <trkpt lat="48.78977" lon="-3.3862">
        <ele>72</ele>
        <time>2015-01-25T10:11:16Z</time>
      </trkpt>
      <trkpt lat="48.78974" lon="-3.38628">
        <ele>72</ele>
        <time>2015-01-25T10:11:17Z</time>
      </trkpt>
      <trkpt lat="48.78971" lon="-3.38636">
        <ele>72</ele>
        <time>2015-01-25T10:11:18Z</time>
      </trkpt>
      <trkpt lat="48.78968" lon="-3.38644">
        <ele>72</ele>
        <time>2015-01-25T10:11:19Z</time>
      </trkpt>
      <trkpt lat="48.78966" lon="-3.38652">
        <ele>72</ele>
        <time>2015-01-25T10:11:20Z</time>
      </trkpt>
      <trkpt lat="48.78963" lon="-3.38661">
        <ele>72</ele>
        <time>2015-01-25T10:11:21Z</time>
      </trkpt>
      <trkpt lat="48.78962" lon="-3.38669">
        <ele>72</ele>
        <time>2015-01-25T10:11:22Z</time>
      </trkpt>
      <trkpt lat="48.7896" lon="-3.38678">
        <ele>72</ele>
        <time>2015-01-25T10:11:23Z</time>
      </trkpt>
      <trkpt lat="48.78958" lon="-3.38687">
        <ele>72</ele>
        <time>2015-01-25T10:11:24Z</time>
      </trkpt>
      <trkpt lat="48.78956" lon="-3.38696">
        <ele>72</ele>
        <time>2015-01-25T10:11:25Z</time>
      </trkpt>
      <trkpt lat="48.78955" lon="-3.38705">
        <ele>73</ele>
        <time>2015-01-25T10:11:26Z</time>
      </trkpt>
      <trkpt lat="48.78953" lon="-3.38714">
        <ele>73</ele>
        <time>2015-01-25T10:11:27Z</time>
      </trkpt>
      <trkpt lat="48.78952" lon="-3.38723">
        <ele>73</ele>
        <time>2015-01-25T10:11:28Z</time>
      </trkpt>
      <trkpt lat="48.78951" lon="-3.38732">
        <ele>73</ele>
        <time>2015-01-25T10:11:29Z</time>
      </trkpt>
      <trkpt lat="48.78949" lon="-3.38741">
        <ele>73</ele>
        <time>2015-01-25T10:11:30Z</time>
      </trkpt>
      <trkpt lat="48.78948" lon="-3.3875">
        <ele>73</ele>
        <time>2015-01-25T10:11:31Z</time>
      </trkpt>
      <trkpt lat="48.78946" lon="-3.38759">
        <ele>73</ele>
        <time>2015-01-25T10:11:32Z</time>
      </trkpt>
      <trkpt lat="48.78945" lon="-3.38768">
        <ele>74</ele>
        <time>2015-01-25T10:11:33Z</time>
      </trkpt>
      <trkpt lat="48.78944" lon="-3.38776">
        <ele>74</ele>
        <time>2015-01-25T10:11:34Z</time>
      </trkpt>
      <trkpt lat="48.78942" lon="-3.38785">
        <ele>74</ele>
        <time>2015-01-25T10:11:35Z</time>
      </trkpt>
      <trkpt lat="48.78941" lon="-3.38793">
        <ele>75</ele>
        <time>2015-01-25T10:11:36Z</time>
      </trkpt>
      <trkpt lat="48.78939" lon="-3.38802">
        <ele>75</ele>
        <time>2015-01-25T10:11:37Z</time>
      </trkpt>
      <trkpt lat="48.78938" lon="-3.3881">
        <ele>75</ele>
        <time>2015-01-25T10:11:38Z</time>
      </trkpt>
      <trkpt lat="48.78936" lon="-3.38819">
        <ele>76</ele>
        <time>2015-01-25T10:11:39Z</time>
      </trkpt>
      <trkpt lat="48.78934" lon="-3.38827">
        <ele>76</ele>
        <time>2015-01-25T10:11:40Z</time>
      </trkpt>
      <trkpt lat="48.78932" lon="-3.38835">
        <ele>76</ele>
        <time>2015-01-25T10:11:41Z</time>
      </trkpt>
      <trkpt lat="48.78929" lon="-3.38843">
        <ele>77</ele>
        <time>2015-01-25T10:11:42Z</time>
      </trkpt>
      <trkpt lat="48.78927" lon="-3.3885">
        <ele>77</ele>
        <time>2015-01-25T10:11:43Z</time>
      </trkpt>
      <trkpt lat="48.78924" lon="-3.38858">
        <ele>77</ele>
        <time>2015-01-25T10:11:44Z</time>
      </trkpt>
      <trkpt lat="48.78921" lon="-3.38865">
        <ele>78</ele>
        <time>2015-01-25T10:11:45Z</time>
      </trkpt>
      <trkpt lat="48.78918" lon="-3.38872">
        <ele>78</ele>
        <time>2015-01-25T10:11:46Z</time>
      </trkpt>
      <trkpt lat="48.78915" lon="-3.38879">
        <ele>78</ele>
        <time>2015-01-25T10:11:47Z</time>
      </trkpt>
      <trkpt lat="48.78912" lon="-3.38885">
        <ele>79</ele>
        <time>2015-01-25T10:11:48Z</time>
      </trkpt>
      <trkpt lat="48.78908" lon="-3.38891">
        <ele>79</ele>
        <time>2015-01-25T10:11:49Z</time>
      </trkpt>
      <trkpt lat="48.78904" lon="-3.38897">
        <ele>79</ele>
        <time>2015-01-25T10:11:50Z</time>
      </trkpt>
      <trkpt lat="48.78901" lon="-3.38902">
        <ele>79</ele>
        <time>2015-01-25T10:11:51Z</time>
      </trkpt>
      <trkpt lat="48.78896" lon="-3.38908">
        <ele>80</ele>
        <time>2015-01-25T10:11:52Z</time>
      </trkpt>
      <trkpt lat="48.78892" lon="-3.38914">
        <ele>80</ele>
        <time>2015-01-25T10:11:53Z</time>
      </trkpt>
      <trkpt lat="48.78888" lon="-3.38921">
        <ele>80</ele>
        <time>2015-01-25T10:11:54Z</time>
      </trkpt>
      <trkpt lat="48.78883" lon="-3.38927">
        <ele>80</ele>
        <time>2015-01-25T10:11:55Z</time>
      </trkpt>
      <trkpt lat="48.78878" lon="-3.38933">
        <ele>80</ele>
        <time>2015-01-25T10:11:56Z</time>
      </trkpt>
      <trkpt lat="48.78873" lon="-3.38939">
        <ele>80</ele>
        <time>2015-01-25T10:11:57Z</time>
      </trkpt>
      <trkpt lat="48.78868" lon="-3.38945">
        <ele>80</ele>
        <time>2015-01-25T10:11:58Z</time>
      </trkpt>
      <trkpt lat="48.78863" lon="-3.38951">
        <ele>81</ele>
        <time>2015-01-25T10:11:59Z</time>
      </trkpt>
      <trkpt lat="48.78857" lon="-3.38957">
        <ele>81</ele>
        <time>2015-01-25T10:12:00Z</time>
      </trkpt>
      <trkpt lat="48.78852" lon="-3.38963">
        <ele>81</ele>
        <time>2015-01-25T10:12:01Z</time>
      </trkpt>
      <trkpt lat="48.78846" lon="-3.38969">
        <ele>81</ele>
        <time>2015-01-25T10:12:02Z</time>
      </trkpt>
      <trkpt lat="48.78841" lon="-3.38975">
        <ele>81</ele>
        <time>2015-01-25T10:12:03Z</time>
      </trkpt>
      <trkpt lat="48.78835" lon="-3.38981">
        <ele>81</ele>
        <time>2015-01-25T10:12:04Z</time>
      </trkpt>
      <trkpt lat="48.78829" lon="-3.38988">
        <ele>81</ele>
        <time>2015-01-25T10:12:05Z</time>
      </trkpt>
      <trkpt lat="48.78824" lon="-3.38994">
        <ele>81</ele>
        <time>2015-01-25T10:12:06Z</time>
      </trkpt>
      <trkpt lat="48.78819" lon="-3.39001">
        <ele>81</ele>
        <time>2015-01-25T10:12:07Z</time>
      </trkpt>
      <trkpt lat="48.78814" lon="-3.39008">
        <ele>81</ele>
        <time>2015-01-25T10:12:08Z</time>
      </trkpt>
      <trkpt lat="48.78809" lon="-3.39016">
        <ele>81</ele>
        <time>2015-01-25T10:12:09Z</time>
      </trkpt>
      <trkpt lat="48.78804" lon="-3.39024">
        <ele>81</ele>
        <time>2015-01-25T10:12:10Z</time>
      </trkpt>
      <trkpt lat="48.788" lon="-3.39032">
        <ele>81</ele>
        <time>2015-01-25T10:12:11Z</time>
      </trkpt>
      <trkpt lat="48.78796" lon="-3.3904">
        <ele>81</ele>
        <time>2015-01-25T10:12:12Z</time>
      </trkpt>
      <trkpt lat="48.78792" lon="-3.39048">
        <ele>81</ele>
        <time>2015-01-25T10:12:13Z</time>
      </trkpt>
      <trkpt lat="48.78788" lon="-3.39055">
        <ele>81</ele>
        <time>2015-01-25T10:12:14Z</time>
      </trkpt>
      <trkpt lat="48.78783" lon="-3.39063">
        <ele>81</ele>
        <time>2015-01-25T10:12:15Z</time>
      </trkpt>
      <trkpt lat="48.78779" lon="-3.3907">
        <ele>81</ele>
        <time>2015-01-25T10:12:16Z</time>
      </trkpt>
      <trkpt lat="48.78774" lon="-3.39077">
        <ele>81</ele>
        <time>2015-01-25T10:12:17Z</time>
      </trkpt>
      <trkpt lat="48.78769" lon="-3.39084">
        <ele>81</ele>
        <time>2015-01-25T10:12:18Z</time>
      </trkpt>
      <trkpt lat="48.78764" lon="-3.3909">
        <ele>81</ele>
        <time>2015-01-25T10:12:19Z</time>
      </trkpt>
      <trkpt lat="48.78758" lon="-3.39096">
        <ele>81</ele>
        <time>2015-01-25T10:12:20Z</time>
      </trkpt>
      <trkpt lat="48.78752" lon="-3.39102">
        <ele>81</ele>
        <time>2015-01-25T10:12:21Z</time>
      </trkpt>
      <trkpt lat="48.78746" lon="-3.39108">
        <ele>81</ele>
        <time>2015-01-25T10:12:22Z</time>
      </trkpt>
      <trkpt lat="48.7874" lon="-3.39114">
        <ele>81</ele>
        <time>2015-01-25T10:12:23Z</time>
      </trkpt>
      <trkpt lat="48.78734" lon="-3.3912">
        <ele>81</ele>
        <time>2015-01-25T10:12:24Z</time>
      </trkpt>
      <trkpt lat="48.78728" lon="-3.39126">
        <ele>81</ele>
        <time>2015-01-25T10:12:25Z</time>
      </trkpt>
      <trkpt lat="48.78723" lon="-3.39132">
        <ele>82</ele>
        <time>2015-01-25T10:12:26Z</time>
      </trkpt>
      <trkpt lat="48.78717" lon="-3.3914">
        <ele>82</ele>
        <time>2015-01-25T10:12:27Z</time>
      </trkpt>
      <trkpt lat="48.78712" lon="-3.39148">
        <ele>82</ele>
        <time>2015-01-25T10:12:28Z</time>
      </trkpt>
      <trkpt lat="48.78707" lon="-3.39156">
        <ele>82</ele>
        <time>2015-01-25T10:12:29Z</time>
      </trkpt>
      <trkpt lat="48.78703" lon="-3.39165">
        <ele>82</ele>
        <time>2015-01-25T10:12:30Z</time>
      </trkpt>
      <trkpt lat="48.78698" lon="-3.39174">
        <ele>82</ele>
        <time>2015-01-25T10:12:31Z</time>
      </trkpt>
      <trkpt lat="48.78694" lon="-3.39184">
        <ele>82</ele>
        <time>2015-01-25T10:12:32Z</time>
      </trkpt>
      <trkpt lat="48.7869" lon="-3.39193">
        <ele>82</ele>
        <time>2015-01-25T10:12:33Z</time>
      </trkpt>
      <trkpt lat="48.78687" lon="-3.39203">
        <ele>82</ele>
        <time>2015-01-25T10:12:34Z</time>
      </trkpt>
      <trkpt lat="48.78683" lon="-3.39213">
        <ele>82</ele>
        <time>2015-01-25T10:12:35Z</time>
      </trkpt>
      <trkpt lat="48.78679" lon="-3.39223">
        <ele>82</ele>
        <time>2015-01-25T10:12:36Z</time>
      </trkpt>
      <trkpt lat="48.78675" lon="-3.39233">
        <ele>82</ele>
        <time>2015-01-25T10:12:37Z</time>
      </trkpt>
      <trkpt lat="48.78671" lon="-3.39243">
        <ele>82</ele>
        <time>2015-01-25T10:12:38Z</time>
      </trkpt>
      <trkpt lat="48.78666" lon="-3.39253">
        <ele>82</ele>
        <time>2015-01-25T10:12:39Z</time>
      </trkpt>
      <trkpt lat="48.78662" lon="-3.39263">
        <ele>82</ele>
        <time>2015-01-25T10:12:40Z</time>
      </trkpt>
      <trkpt lat="48.78656" lon="-3.39272">
        <ele>82</ele>
        <time>2015-01-25T10:12:41Z</time>
      </trkpt>
      <trkpt lat="48.78651" lon="-3.39281">
        <ele>82</ele>
        <time>2015-01-25T10:12:42Z</time>
      </trkpt>
      <trkpt lat="48.78646" lon="-3.3929">
        <ele>82</ele>
        <time>2015-01-25T10:12:43Z</time>
      </trkpt>
      <trkpt lat="48.7864" lon="-3.39299">
        <ele>82</ele>
        <time>2015-01-25T10:12:44Z</time>
      </trkpt>
      <trkpt lat="48.78635" lon="-3.39307">
        <ele>82</ele>
        <time>2015-01-25T10:12:45Z</time>
      </trkpt>
      <trkpt lat="48.7863" lon="-3.39316">
        <ele>82</ele>
        <time>2015-01-25T10:12:46Z</time>
      </trkpt>
      <trkpt lat="48.78625" lon="-3.39325">
        <ele>82</ele>
        <time>2015-01-25T10:12:47Z</time>
      </trkpt>
      <trkpt lat="48.7862" lon="-3.39334">
        <ele>82</ele>
        <time>2015-01-25T10:12:48Z</time>
      </trkpt>
      <trkpt lat="48.78616" lon="-3.39343">
        <ele>82</ele>
        <time>2015-01-25T10:12:49Z</time>
      </trkpt>
      <trkpt lat="48.78611" lon="-3.39352">
        <ele>82</ele>
        <time>2015-01-25T10:12:50Z</time>
      </trkpt>
      <trkpt lat="48.78607" lon="-3.39361">
        <ele>82</ele>
        <time>2015-01-25T10:12:51Z</time>
      </trkpt>
      <trkpt lat="48.78603" lon="-3.3937">
        <ele>82</ele>
        <time>2015-01-25T10:12:52Z</time>
      </trkpt>
      <trkpt lat="48.78599" lon="-3.39379">
        <ele>82</ele>
        <time>2015-01-25T10:12:53Z</time>
      </trkpt>
      <trkpt lat="48.78595" lon="-3.39389">
        <ele>82</ele>
        <time>2015-01-25T10:12:54Z</time>
      </trkpt>
      <trkpt lat="48.7859" lon="-3.39399">
        <ele>82</ele>
        <time>2015-01-25T10:12:55Z</time>
      </trkpt>
      <trkpt lat="48.78586" lon="-3.39408">
        <ele>82</ele>
        <time>2015-01-25T10:12:56Z</time>
      </trkpt>
      <trkpt lat="48.78582" lon="-3.39418">
        <ele>82</ele>
        <time>2015-01-25T10:12:57Z</time>
      </trkpt>
      <trkpt lat="48.78578" lon="-3.39428">
        <ele>82</ele>
        <time>2015-01-25T10:12:58Z</time>
      </trkpt>
      <trkpt lat="48.78574" lon="-3.39437">
        <ele>82</ele>
        <time>2015-01-25T10:12:59Z</time>
      </trkpt>
      <trkpt lat="48.78571" lon="-3.39446">
        <ele>82</ele>
        <time>2015-01-25T10:13:00Z</time>
      </trkpt>
      <trkpt lat="48.78567" lon="-3.39455">
        <ele>82</ele>
        <time>2015-01-25T10:13:01Z</time>
      </trkpt>
      <trkpt lat="48.78564" lon="-3.39464">
        <ele>82</ele>
        <time>2015-01-25T10:13:02Z</time>
      </trkpt>
      <trkpt lat="48.78561" lon="-3.39473">
        <ele>82</ele>
        <time>2015-01-25T10:13:03Z</time>
      </trkpt>
      <trkpt lat="48.78558" lon="-3.39483">
        <ele>82</ele>
        <time>2015-01-25T10:13:04Z</time>
      </trkpt>
      <trkpt lat="48.78556" lon="-3.39492">
        <ele>82</ele>
        <time>2015-01-25T10:13:05Z</time>
      </trkpt>
      <trkpt lat="48.78553" lon="-3.39501">
        <ele>82</ele>
        <time>2015-01-25T10:13:06Z</time>
      </trkpt>
      <trkpt lat="48.78551" lon="-3.3951">
        <ele>82</ele>
        <time>2015-01-25T10:13:07Z</time>
      </trkpt>
      <trkpt lat="48.78549" lon="-3.39519">
        <ele>82</ele>
        <time>2015-01-25T10:13:08Z</time>
      </trkpt>
      <trkpt lat="48.78547" lon="-3.39528">
        <ele>82</ele>
        <time>2015-01-25T10:13:09Z</time>
      </trkpt>
      <trkpt lat="48.78545" lon="-3.39537">
        <ele>82</ele>
        <time>2015-01-25T10:13:10Z</time>
      </trkpt>
      <trkpt lat="48.78543" lon="-3.39545">
        <ele>82</ele>
        <time>2015-01-25T10:13:11Z</time>
      </trkpt>
      <trkpt lat="48.7854" lon="-3.39554">
        <ele>82</ele>
        <time>2015-01-25T10:13:12Z</time>
      </trkpt>
      <trkpt lat="48.78538" lon="-3.39563">
        <ele>82</ele>
        <time>2015-01-25T10:13:13Z</time>
      </trkpt>
      <trkpt lat="48.78534" lon="-3.39571">
        <ele>82</ele>
        <time>2015-01-25T10:13:14Z</time>
      </trkpt>
      <trkpt lat="48.78531" lon="-3.39577">
        <ele>82</ele>
        <time>2015-01-25T10:13:15Z</time>
      </trkpt>
      <trkpt lat="48.78526" lon="-3.39583">
        <ele>82</ele>
        <time>2015-01-25T10:13:16Z</time>
      </trkpt>
      <trkpt lat="48.78522" lon="-3.3959">
        <ele>82</ele>
        <time>2015-01-25T10:13:17Z</time>
      </trkpt>
      <trkpt lat="48.78519" lon="-3.39597">
        <ele>82</ele>
        <time>2015-01-25T10:13:18Z</time>
      </trkpt>
      <trkpt lat="48.78519" lon="-3.39606">
        <ele>82</ele>
        <time>2015-01-25T10:13:19Z</time>
      </trkpt>
      <trkpt lat="48.78521" lon="-3.39614">
        <ele>82</ele>
        <time>2015-01-25T10:13:20Z</time>
      </trkpt>
      <trkpt lat="48.78523" lon="-3.39622">
        <ele>82</ele>
        <time>2015-01-25T10:13:21Z</time>
      </trkpt>
      <trkpt lat="48.78525" lon="-3.39631">
        <ele>82</ele>
        <time>2015-01-25T10:13:22Z</time>
      </trkpt>
      <trkpt lat="48.78527" lon="-3.39641">
        <ele>82</ele>
        <time>2015-01-25T10:13:23Z</time>
      </trkpt>
      <trkpt lat="48.78525" lon="-3.39651">
        <ele>82</ele>
        <time>2015-01-25T10:13:24Z</time>
      </trkpt>
      <trkpt lat="48.78521" lon="-3.39659">
        <ele>82</ele>
        <time>2015-01-25T10:13:25Z</time>
      </trkpt>
      <trkpt lat="48.78516" lon="-3.39664">
        <ele>82</ele>
        <time>2015-01-25T10:13:26Z</time>
      </trkpt>
      <trkpt lat="48.78509" lon="-3.39667">
        <ele>82</ele>
        <time>2015-01-25T10:13:27Z</time>
      </trkpt>
      <trkpt lat="48.78502" lon="-3.39669">
        <ele>82</ele>
        <time>2015-01-25T10:13:28Z</time>
      </trkpt>
      <trkpt lat="48.78495" lon="-3.3967">
        <ele>82</ele>
        <time>2015-01-25T10:13:29Z</time>
      </trkpt>
      <trkpt lat="48.78487" lon="-3.3967">
        <ele>82</ele>
        <time>2015-01-25T10:13:30Z</time>
      </trkpt>
      <trkpt lat="48.78479" lon="-3.39671">
        <ele>82</ele>
        <time>2015-01-25T10:13:31Z</time>
      </trkpt>
      <trkpt lat="48.78471" lon="-3.39672">
        <ele>82</ele>
        <time>2015-01-25T10:13:32Z</time>
      </trkpt>
      <trkpt lat="48.78463" lon="-3.39673">
        <ele>82</ele>
        <time>2015-01-25T10:13:33Z</time>
      </trkpt>
      <trkpt lat="48.78455" lon="-3.39674">
        <ele>82</ele>
        <time>2015-01-25T10:13:34Z</time>
      </trkpt>
      <trkpt lat="48.78447" lon="-3.39676">
        <ele>82</ele>
        <time>2015-01-25T10:13:35Z</time>
      </trkpt>
      <trkpt lat="48.7844" lon="-3.39679">
        <ele>82</ele>
        <time>2015-01-25T10:13:36Z</time>
      </trkpt>
      <trkpt lat="48.78432" lon="-3.39682">
        <ele>82</ele>
        <time>2015-01-25T10:13:37Z</time>
      </trkpt>
      <trkpt lat="48.78425" lon="-3.39685">
        <ele>82</ele>
        <time>2015-01-25T10:13:38Z</time>
      </trkpt>
      <trkpt lat="48.78418" lon="-3.39689">
        <ele>82</ele>
        <time>2015-01-25T10:13:39Z</time>
      </trkpt>
      <trkpt lat="48.78411" lon="-3.39693">
        <ele>82</ele>
        <time>2015-01-25T10:13:40Z</time>
      </trkpt>
      <trkpt lat="48.78404" lon="-3.39697">
        <ele>82</ele>
        <time>2015-01-25T10:13:41Z</time>
      </trkpt>
      <trkpt lat="48.78398" lon="-3.39701">
        <ele>82</ele>
        <time>2015-01-25T10:13:42Z</time>
      </trkpt>
      <trkpt lat="48.78392" lon="-3.39705">
        <ele>82</ele>
        <time>2015-01-25T10:13:43Z</time>
      </trkpt>
      <trkpt lat="48.78386" lon="-3.3971">
        <ele>82</ele>
        <time>2015-01-25T10:13:44Z</time>
      </trkpt>
      <trkpt lat="48.78381" lon="-3.39715">
        <ele>82</ele>
        <time>2015-01-25T10:13:45Z</time>
      </trkpt>
      <trkpt lat="48.78375" lon="-3.3972">
        <ele>82</ele>
        <time>2015-01-25T10:13:46Z</time>
      </trkpt>
      <trkpt lat="48.78371" lon="-3.39725">
        <ele>82</ele>
        <time>2015-01-25T10:13:47Z</time>
      </trkpt>
      <trkpt lat="48.78366" lon="-3.39729">
        <ele>82</ele>
        <time>2015-01-25T10:13:48Z</time>
      </trkpt>
      <trkpt lat="48.78361" lon="-3.39734">
        <ele>82</ele>
        <time>2015-01-25T10:13:49Z</time>
      </trkpt>
      <trkpt lat="48.78357" lon="-3.39738">
        <ele>82</ele>
        <time>2015-01-25T10:13:50Z</time>
      </trkpt>
      <trkpt lat="48.78353" lon="-3.39743">
        <ele>82</ele>
        <time>2015-01-25T10:13:51Z</time>
      </trkpt>
      <trkpt lat="48.78348" lon="-3.39748">
        <ele>83</ele>
        <time>2015-01-25T10:13:52Z</time>
      </trkpt>
      <trkpt lat="48.78344" lon="-3.39753">
        <ele>83</ele>
        <time>2015-01-25T10:13:53Z</time>
      </trkpt>
      <trkpt lat="48.78339" lon="-3.39758">
        <ele>83</ele>
        <time>2015-01-25T10:13:54Z</time>
      </trkpt>
      <trkpt lat="48.78335" lon="-3.39764">
        <ele>83</ele>
        <time>2015-01-25T10:13:55Z</time>
      </trkpt>
      <trkpt lat="48.78331" lon="-3.39769">
        <ele>83</ele>
        <time>2015-01-25T10:13:56Z</time>
      </trkpt>
      <trkpt lat="48.78326" lon="-3.39775">
        <ele>83</ele>
        <time>2015-01-25T10:13:57Z</time>
      </trkpt>
      <trkpt lat="48.78322" lon="-3.3978">
        <ele>83</ele>
        <time>2015-01-25T10:13:58Z</time>
      </trkpt>
      <trkpt lat="48.78318" lon="-3.39786">
        <ele>83</ele>
        <time>2015-01-25T10:13:59Z</time>
      </trkpt>
      <trkpt lat="48.78314" lon="-3.39792">
        <ele>83</ele>
        <time>2015-01-25T10:14:00Z</time>
      </trkpt>
      <trkpt lat="48.7831" lon="-3.39799">
        <ele>83</ele>
        <time>2015-01-25T10:14:01Z</time>
      </trkpt>
      <trkpt lat="48.78305" lon="-3.39805">
        <ele>83</ele>
        <time>2015-01-25T10:14:02Z</time>
      </trkpt>
      <trkpt lat="48.783" lon="-3.39812">
        <ele>83</ele>
        <time>2015-01-25T10:14:03Z</time>
      </trkpt>
      <trkpt lat="48.78296" lon="-3.3982">
        <ele>83</ele>
        <time>2015-01-25T10:14:04Z</time>
      </trkpt>
      <trkpt lat="48.78291" lon="-3.39829">
        <ele>83</ele>
        <time>2015-01-25T10:14:05Z</time>
      </trkpt>
      <trkpt lat="48.78286" lon="-3.39838">
        <ele>83</ele>
        <time>2015-01-25T10:14:06Z</time>
      </trkpt>
      <trkpt lat="48.78281" lon="-3.39847">
        <ele>83</ele>
        <time>2015-01-25T10:14:07Z</time>
      </trkpt>
      <trkpt lat="48.78276" lon="-3.39857">
        <ele>83</ele>
        <time>2015-01-25T10:14:08Z</time>
      </trkpt>
      <trkpt lat="48.78272" lon="-3.39867">
        <ele>83</ele>
        <time>2015-01-25T10:14:09Z</time>
      </trkpt>
      <trkpt lat="48.78268" lon="-3.39876">
        <ele>83</ele>
        <time>2015-01-25T10:14:10Z</time>
      </trkpt>
      <trkpt lat="48.78264" lon="-3.39886">
        <ele>83</ele>
        <time>2015-01-25T10:14:11Z</time>
      </trkpt>
      <trkpt lat="48.7826" lon="-3.39895">
        <ele>83</ele>
        <time>2015-01-25T10:14:12Z</time>
      </trkpt>
      <trkpt lat="48.78256" lon="-3.39905">
        <ele>83</ele>
        <time>2015-01-25T10:14:13Z</time>
      </trkpt>
      <trkpt lat="48.78252" lon="-3.39914">
        <ele>83</ele>
        <time>2015-01-25T10:14:14Z</time>
      </trkpt>
      <trkpt lat="48.78249" lon="-3.39924">
        <ele>83</ele>
        <time>2015-01-25T10:14:15Z</time>
      </trkpt>
      <trkpt lat="48.78245" lon="-3.39933">
        <ele>83</ele>
        <time>2015-01-25T10:14:16Z</time>
      </trkpt>
      <trkpt lat="48.78241" lon="-3.39943">
        <ele>83</ele>
        <time>2015-01-25T10:14:17Z</time>
      </trkpt>
      <trkpt lat="48.78237" lon="-3.39952">
        <ele>83</ele>
        <time>2015-01-25T10:14:18Z</time>
      </trkpt>
      <trkpt lat="48.78233" lon="-3.39962">
        <ele>83</ele>
        <time>2015-01-25T10:14:19Z</time>
      </trkpt>
      <trkpt lat="48.7823" lon="-3.39972">
        <ele>83</ele>
        <time>2015-01-25T10:14:20Z</time>
      </trkpt>
      <trkpt lat="48.78225" lon="-3.39981">
        <ele>83</ele>
        <time>2015-01-25T10:14:21Z</time>
      </trkpt>
      <trkpt lat="48.78222" lon="-3.39991">
        <ele>83</ele>
        <time>2015-01-25T10:14:22Z</time>
      </trkpt>
      <trkpt lat="48.78217" lon="-3.40001">
        <ele>83</ele>
        <time>2015-01-25T10:14:23Z</time>
      </trkpt>
      <trkpt lat="48.78213" lon="-3.40011">
        <ele>83</ele>
        <time>2015-01-25T10:14:24Z</time>
      </trkpt>
      <trkpt lat="48.78209" lon="-3.40021">
        <ele>83</ele>
        <time>2015-01-25T10:14:25Z</time>
      </trkpt>
      <trkpt lat="48.78205" lon="-3.40031">
        <ele>83</ele>
        <time>2015-01-25T10:14:26Z</time>
      </trkpt>
      <trkpt lat="48.78201" lon="-3.40041">
        <ele>83</ele>
        <time>2015-01-25T10:14:27Z</time>
      </trkpt>
      <trkpt lat="48.78196" lon="-3.40051">
        <ele>83</ele>
        <time>2015-01-25T10:14:28Z</time>
      </trkpt>
      <trkpt lat="48.78192" lon="-3.40062">
        <ele>83</ele>
        <time>2015-01-25T10:14:29Z</time>
      </trkpt>
      <trkpt lat="48.78188" lon="-3.40072">
        <ele>83</ele>
        <time>2015-01-25T10:14:30Z</time>
      </trkpt>
      <trkpt lat="48.78184" lon="-3.40082">
        <ele>83</ele>
        <time>2015-01-25T10:14:31Z</time>
      </trkpt>
      <trkpt lat="48.7818" lon="-3.40092">
        <ele>83</ele>
        <time>2015-01-25T10:14:32Z</time>
      </trkpt>
      <trkpt lat="48.78176" lon="-3.40102">
        <ele>83</ele>
        <time>2015-01-25T10:14:33Z</time>
      </trkpt>
      <trkpt lat="48.78172" lon="-3.40113">
        <ele>83</ele>
        <time>2015-01-25T10:14:34Z</time>
      </trkpt>
      <trkpt lat="48.78167" lon="-3.40123">
        <ele>83</ele>
        <time>2015-01-25T10:14:35Z</time>
      </trkpt>
      <trkpt lat="48.78163" lon="-3.40133">
        <ele>84</ele>
        <time>2015-01-25T10:14:36Z</time>
      </trkpt>
      <trkpt lat="48.78159" lon="-3.40143">
        <ele>84</ele>
        <time>2015-01-25T10:14:37Z</time>
      </trkpt>
      <trkpt lat="48.78155" lon="-3.40153">
        <ele>84</ele>
        <time>2015-01-25T10:14:38Z</time>
      </trkpt>
      <trkpt lat="48.7815" lon="-3.40163">
        <ele>84</ele>
        <time>2015-01-25T10:14:39Z</time>
      </trkpt>
      <trkpt lat="48.78146" lon="-3.40174">
        <ele>84</ele>
        <time>2015-01-25T10:14:40Z</time>
      </trkpt>
      <trkpt lat="48.78142" lon="-3.40184">
        <ele>84</ele>
        <time>2015-01-25T10:14:41Z</time>
      </trkpt>
      <trkpt lat="48.78138" lon="-3.40194">
        <ele>84</ele>
        <time>2015-01-25T10:14:42Z</time>
      </trkpt>
      <trkpt lat="48.78133" lon="-3.40205">
        <ele>84</ele>
        <time>2015-01-25T10:14:43Z</time>
      </trkpt>
      <trkpt lat="48.78129" lon="-3.40215">
        <ele>84</ele>
        <time>2015-01-25T10:14:44Z</time>
      </trkpt>
      <trkpt lat="48.78125" lon="-3.40225">
        <ele>84</ele>
        <time>2015-01-25T10:14:45Z</time>
      </trkpt>
      <trkpt lat="48.7812" lon="-3.40236">
        <ele>84</ele>
        <time>2015-01-25T10:14:46Z</time>
      </trkpt>
      <trkpt lat="48.78116" lon="-3.40246">
        <ele>84</ele>
        <time>2015-01-25T10:14:47Z</time>
      </trkpt>
      <trkpt lat="48.78112" lon="-3.40257">
        <ele>84</ele>
        <time>2015-01-25T10:14:48Z</time>
      </trkpt>
      <trkpt lat="48.78108" lon="-3.40267">
        <ele>84</ele>
        <time>2015-01-25T10:14:49Z</time>
      </trkpt>
      <trkpt lat="48.78103" lon="-3.40278">
        <ele>84</ele>
        <time>2015-01-25T10:14:50Z</time>
      </trkpt>
      <trkpt lat="48.78099" lon="-3.40288">
        <ele>84</ele>
        <time>2015-01-25T10:14:51Z</time>
      </trkpt>
      <trkpt lat="48.78094" lon="-3.40299">
        <ele>84</ele>
        <time>2015-01-25T10:14:52Z</time>
      </trkpt>
      <trkpt lat="48.7809" lon="-3.40309">
        <ele>84</ele>
        <time>2015-01-25T10:14:53Z</time>
      </trkpt>
      <trkpt lat="48.78086" lon="-3.40319">
        <ele>84</ele>
        <time>2015-01-25T10:14:54Z</time>
      </trkpt>
      <trkpt lat="48.78082" lon="-3.40329">
        <ele>84</ele>
        <time>2015-01-25T10:14:55Z</time>
      </trkpt>
      <trkpt lat="48.78077" lon="-3.40339">
        <ele>85</ele>
        <time>2015-01-25T10:14:56Z</time>
      </trkpt>
      <trkpt lat="48.78073" lon="-3.40349">
        <ele>85</ele>
        <time>2015-01-25T10:14:57Z</time>
      </trkpt>
      <trkpt lat="48.78069" lon="-3.40359">
        <ele>85</ele>
        <time>2015-01-25T10:14:58Z</time>
      </trkpt>
      <trkpt lat="48.78065" lon="-3.40369">
        <ele>85</ele>
        <time>2015-01-25T10:14:59Z</time>
      </trkpt>
      <trkpt lat="48.78061" lon="-3.40379">
        <ele>85</ele>
        <time>2015-01-25T10:15:00Z</time>
      </trkpt>
      <trkpt lat="48.78056" lon="-3.40388">
        <ele>85</ele>
        <time>2015-01-25T10:15:01Z</time>
      </trkpt>
      <trkpt lat="48.78052" lon="-3.40398">
        <ele>85</ele>
        <time>2015-01-25T10:15:02Z</time>
      </trkpt>
      <trkpt lat="48.78048" lon="-3.40408">
        <ele>85</ele>
        <time>2015-01-25T10:15:03Z</time>
      </trkpt>
      <trkpt lat="48.78044" lon="-3.40418">
        <ele>85</ele>
        <time>2015-01-25T10:15:04Z</time>
      </trkpt>
      <trkpt lat="48.7804" lon="-3.40428">
        <ele>85</ele>
        <time>2015-01-25T10:15:05Z</time>
      </trkpt>
      <trkpt lat="48.78036" lon="-3.40439">
        <ele>85</ele>
        <time>2015-01-25T10:15:06Z</time>
      </trkpt>
      <trkpt lat="48.78032" lon="-3.40449">
        <ele>85</ele>
        <time>2015-01-25T10:15:07Z</time>
      </trkpt>
      <trkpt lat="48.78027" lon="-3.40459">
        <ele>85</ele>
        <time>2015-01-25T10:15:08Z</time>
      </trkpt>
      <trkpt lat="48.78023" lon="-3.4047">
        <ele>85</ele>
        <time>2015-01-25T10:15:09Z</time>
      </trkpt>
      <trkpt lat="48.78018" lon="-3.4048">
        <ele>85</ele>
        <time>2015-01-25T10:15:10Z</time>
      </trkpt>
      <trkpt lat="48.78014" lon="-3.40491">
        <ele>85</ele>
        <time>2015-01-25T10:15:11Z</time>
      </trkpt>
      <trkpt lat="48.78009" lon="-3.40502">
        <ele>85</ele>
        <time>2015-01-25T10:15:12Z</time>
      </trkpt>
      <trkpt lat="48.78005" lon="-3.40513">
        <ele>85</ele>
        <time>2015-01-25T10:15:13Z</time>
      </trkpt>
      <trkpt lat="48.78" lon="-3.40524">
        <ele>85</ele>
        <time>2015-01-25T10:15:14Z</time>
      </trkpt>
      <trkpt lat="48.77996" lon="-3.40535">
        <ele>85</ele>
        <time>2015-01-25T10:15:15Z</time>
      </trkpt>
      <trkpt lat="48.77991" lon="-3.40546">
        <ele>85</ele>
        <time>2015-01-25T10:15:16Z</time>
      </trkpt>
      <trkpt lat="48.77987" lon="-3.40558">
        <ele>85</ele>
        <time>2015-01-25T10:15:17Z</time>
      </trkpt>
      <trkpt lat="48.77982" lon="-3.40569">
        <ele>85</ele>
        <time>2015-01-25T10:15:18Z</time>
      </trkpt>
      <trkpt lat="48.77978" lon="-3.4058">
        <ele>85</ele>
        <time>2015-01-25T10:15:19Z</time>
      </trkpt>
      <trkpt lat="48.77974" lon="-3.40592">
        <ele>85</ele>
        <time>2015-01-25T10:15:20Z</time>
      </trkpt>
      <trkpt lat="48.7797" lon="-3.40603">
        <ele>85</ele>
        <time>2015-01-25T10:15:21Z</time>
      </trkpt>
      <trkpt lat="48.77966" lon="-3.40614">
        <ele>85</ele>
        <time>2015-01-25T10:15:22Z</time>
      </trkpt>
      <trkpt lat="48.77961" lon="-3.40625">
        <ele>85</ele>
        <time>2015-01-25T10:15:23Z</time>
      </trkpt>
      <trkpt lat="48.77958" lon="-3.40636">
        <ele>85</ele>
        <time>2015-01-25T10:15:24Z</time>
      </trkpt>
      <trkpt lat="48.77953" lon="-3.40648">
        <ele>85</ele>
        <time>2015-01-25T10:15:25Z</time>
      </trkpt>
      <trkpt lat="48.7795" lon="-3.40659">
        <ele>85</ele>
        <time>2015-01-25T10:15:26Z</time>
      </trkpt>
      <trkpt lat="48.77946" lon="-3.40671">
        <ele>85</ele>
        <time>2015-01-25T10:15:27Z</time>
      </trkpt>
      <trkpt lat="48.77942" lon="-3.40682">
        <ele>85</ele>
        <time>2015-01-25T10:15:28Z</time>
      </trkpt>
      <trkpt lat="48.77939" lon="-3.40693">
        <ele>85</ele>
        <time>2015-01-25T10:15:29Z</time>
      </trkpt>
      <trkpt lat="48.77935" lon="-3.40704">
        <ele>85</ele>
        <time>2015-01-25T10:15:30Z</time>
      </trkpt>
      <trkpt lat="48.77932" lon="-3.40716">
        <ele>85</ele>
        <time>2015-01-25T10:15:31Z</time>
      </trkpt>
      <trkpt lat="48.77928" lon="-3.40727">
        <ele>85</ele>
        <time>2015-01-25T10:15:32Z</time>
      </trkpt>
      <trkpt lat="48.77924" lon="-3.40739">
        <ele>85</ele>
        <time>2015-01-25T10:15:33Z</time>
      </trkpt>
      <trkpt lat="48.77921" lon="-3.4075">
        <ele>85</ele>
        <time>2015-01-25T10:15:34Z</time>
      </trkpt>
      <trkpt lat="48.77918" lon="-3.40762">
        <ele>85</ele>
        <time>2015-01-25T10:15:35Z</time>
      </trkpt>
      <trkpt lat="48.77914" lon="-3.40773">
        <ele>85</ele>
        <time>2015-01-25T10:15:36Z</time>
      </trkpt>
      <trkpt lat="48.77911" lon="-3.40785">
        <ele>85</ele>
        <time>2015-01-25T10:15:37Z</time>
      </trkpt>
      <trkpt lat="48.77908" lon="-3.40796">
        <ele>85</ele>
        <time>2015-01-25T10:15:38Z</time>
      </trkpt>
      <trkpt lat="48.77905" lon="-3.40808">
        <ele>85</ele>
        <time>2015-01-25T10:15:39Z</time>
      </trkpt>
      <trkpt lat="48.77902" lon="-3.4082">
        <ele>85</ele>
        <time>2015-01-25T10:15:40Z</time>
      </trkpt>
      <trkpt lat="48.77898" lon="-3.40832">
        <ele>85</ele>
        <time>2015-01-25T10:15:41Z</time>
      </trkpt>
      <trkpt lat="48.77895" lon="-3.40845">
        <ele>85</ele>
        <time>2015-01-25T10:15:42Z</time>
      </trkpt>
      <trkpt lat="48.77892" lon="-3.40857">
        <ele>85</ele>
        <time>2015-01-25T10:15:43Z</time>
      </trkpt>
      <trkpt lat="48.77889" lon="-3.4087">
        <ele>85</ele>
        <time>2015-01-25T10:15:44Z</time>
      </trkpt>
      <trkpt lat="48.77885" lon="-3.40883">
        <ele>85</ele>
        <time>2015-01-25T10:15:45Z</time>
      </trkpt>
      <trkpt lat="48.77882" lon="-3.40896">
        <ele>85</ele>
        <time>2015-01-25T10:15:46Z</time>
      </trkpt>
      <trkpt lat="48.77879" lon="-3.40909">
        <ele>85</ele>
        <time>2015-01-25T10:15:47Z</time>
      </trkpt>
      <trkpt lat="48.77876" lon="-3.40921">
        <ele>85</ele>
        <time>2015-01-25T10:15:48Z</time>
      </trkpt>
      <trkpt lat="48.77872" lon="-3.40934">
        <ele>85</ele>
        <time>2015-01-25T10:15:49Z</time>
      </trkpt>
      <trkpt lat="48.77869" lon="-3.40946">
        <ele>85</ele>
        <time>2015-01-25T10:15:50Z</time>
      </trkpt>
      <trkpt lat="48.77867" lon="-3.40959">
        <ele>85</ele>
        <time>2015-01-25T10:15:51Z</time>
      </trkpt>
      <trkpt lat="48.77864" lon="-3.40972">
        <ele>85</ele>
        <time>2015-01-25T10:15:52Z</time>
      </trkpt>
      <trkpt lat="48.77861" lon="-3.40986">
        <ele>85</ele>
        <time>2015-01-25T10:15:53Z</time>
      </trkpt>
      <trkpt lat="48.77858" lon="-3.40999">
        <ele>85</ele>
        <time>2015-01-25T10:15:54Z</time>
      </trkpt>
      <trkpt lat="48.77855" lon="-3.41013">
        <ele>85</ele>
        <time>2015-01-25T10:15:55Z</time>
      </trkpt>
      <trkpt lat="48.77851" lon="-3.41026">
        <ele>85</ele>
        <time>2015-01-25T10:15:56Z</time>
      </trkpt>
      <trkpt lat="48.77848" lon="-3.41039">
        <ele>85</ele>
        <time>2015-01-25T10:15:57Z</time>
      </trkpt>
      <trkpt lat="48.77845" lon="-3.41053">
        <ele>85</ele>
        <time>2015-01-25T10:15:58Z</time>
      </trkpt>
      <trkpt lat="48.77841" lon="-3.41066">
        <ele>85</ele>
        <time>2015-01-25T10:15:59Z</time>
      </trkpt>
      <trkpt lat="48.77838" lon="-3.41079">
        <ele>85</ele>
        <time>2015-01-25T10:16:00Z</time>
      </trkpt>
      <trkpt lat="48.77835" lon="-3.41092">
        <ele>85</ele>
        <time>2015-01-25T10:16:01Z</time>
      </trkpt>
      <trkpt lat="48.77831" lon="-3.41106">
        <ele>85</ele>
        <time>2015-01-25T10:16:02Z</time>
      </trkpt>
      <trkpt lat="48.77828" lon="-3.41119">
        <ele>85</ele>
        <time>2015-01-25T10:16:03Z</time>
      </trkpt>
      <trkpt lat="48.77824" lon="-3.41133">
        <ele>85</ele>
        <time>2015-01-25T10:16:04Z</time>
      </trkpt>
      <trkpt lat="48.77821" lon="-3.41146">
        <ele>85</ele>
        <time>2015-01-25T10:16:05Z</time>
      </trkpt>
      <trkpt lat="48.77818" lon="-3.41159">
        <ele>85</ele>
        <time>2015-01-25T10:16:06Z</time>
      </trkpt>
      <trkpt lat="48.77815" lon="-3.41173">
        <ele>85</ele>
        <time>2015-01-25T10:16:07Z</time>
      </trkpt>
      <trkpt lat="48.77811" lon="-3.41186">
        <ele>85</ele>
        <time>2015-01-25T10:16:08Z</time>
      </trkpt>
      <trkpt lat="48.77808" lon="-3.412">
        <ele>85</ele>
        <time>2015-01-25T10:16:09Z</time>
      </trkpt>
      <trkpt lat="48.77804" lon="-3.41214">
        <ele>85</ele>
        <time>2015-01-25T10:16:10Z</time>
      </trkpt>
      <trkpt lat="48.77801" lon="-3.41228">
        <ele>85</ele>
        <time>2015-01-25T10:16:11Z</time>
      </trkpt>
      <trkpt lat="48.77797" lon="-3.41242">
        <ele>85</ele>
        <time>2015-01-25T10:16:12Z</time>
      </trkpt>
      <trkpt lat="48.77794" lon="-3.41256">
        <ele>84</ele>
        <time>2015-01-25T10:16:13Z</time>
      </trkpt>
      <trkpt lat="48.7779" lon="-3.4127">
        <ele>84</ele>
        <time>2015-01-25T10:16:14Z</time>
      </trkpt>
      <trkpt lat="48.77786" lon="-3.41284">
        <ele>84</ele>
        <time>2015-01-25T10:16:15Z</time>
      </trkpt>
      <trkpt lat="48.77782" lon="-3.41299">
        <ele>84</ele>
        <time>2015-01-25T10:16:16Z</time>
      </trkpt>
      <trkpt lat="48.77779" lon="-3.41312">
        <ele>84</ele>
        <time>2015-01-25T10:16:17Z</time>
      </trkpt>
      <trkpt lat="48.77775" lon="-3.41326">
        <ele>84</ele>
        <time>2015-01-25T10:16:18Z</time>
      </trkpt>
      <trkpt lat="48.77771" lon="-3.41339">
        <ele>84</ele>
        <time>2015-01-25T10:16:19Z</time>
      </trkpt>
      <trkpt lat="48.77766" lon="-3.41353">
        <ele>83</ele>
        <time>2015-01-25T10:16:20Z</time>
      </trkpt>
      <trkpt lat="48.77762" lon="-3.41366">
        <ele>83</ele>
        <time>2015-01-25T10:16:21Z</time>
      </trkpt>
      <trkpt lat="48.77757" lon="-3.41378">
        <ele>83</ele>
        <time>2015-01-25T10:16:22Z</time>
      </trkpt>
      <trkpt lat="48.77752" lon="-3.41391">
        <ele>83</ele>
        <time>2015-01-25T10:16:23Z</time>
      </trkpt>
      <trkpt lat="48.77747" lon="-3.41404">
        <ele>83</ele>
        <time>2015-01-25T10:16:24Z</time>
      </trkpt>
      <trkpt lat="48.77742" lon="-3.41417">
        <ele>82</ele>
        <time>2015-01-25T10:16:25Z</time>
      </trkpt>
      <trkpt lat="48.77736" lon="-3.4143">
        <ele>82</ele>
        <time>2015-01-25T10:16:26Z</time>
      </trkpt>
      <trkpt lat="48.77731" lon="-3.41442">
        <ele>82</ele>
        <time>2015-01-25T10:16:27Z</time>
      </trkpt>
      <trkpt lat="48.77725" lon="-3.41455">
        <ele>82</ele>
        <time>2015-01-25T10:16:28Z</time>
      </trkpt>
      <trkpt lat="48.77718" lon="-3.41466">
        <ele>81</ele>
        <time>2015-01-25T10:16:29Z</time>
      </trkpt>
      <trkpt lat="48.77712" lon="-3.41477">
        <ele>81</ele>
        <time>2015-01-25T10:16:30Z</time>
      </trkpt>
      <trkpt lat="48.77705" lon="-3.41489">
        <ele>81</ele>
        <time>2015-01-25T10:16:31Z</time>
      </trkpt>
      <trkpt lat="48.77699" lon="-3.41499">
        <ele>81</ele>
        <time>2015-01-25T10:16:32Z</time>
      </trkpt>
      <trkpt lat="48.77691" lon="-3.4151">
        <ele>80</ele>
        <time>2015-01-25T10:16:33Z</time>
      </trkpt>
      <trkpt lat="48.77684" lon="-3.4152">
        <ele>80</ele>
        <time>2015-01-25T10:16:34Z</time>
      </trkpt>
      <trkpt lat="48.77676" lon="-3.4153">
        <ele>79</ele>
        <time>2015-01-25T10:16:35Z</time>
      </trkpt>
      <trkpt lat="48.77669" lon="-3.41539">
        <ele>79</ele>
        <time>2015-01-25T10:16:36Z</time>
      </trkpt>
      <trkpt lat="48.77661" lon="-3.41549">
        <ele>79</ele>
        <time>2015-01-25T10:16:37Z</time>
      </trkpt>
      <trkpt lat="48.77654" lon="-3.41558">
        <ele>78</ele>
        <time>2015-01-25T10:16:38Z</time>
      </trkpt>
      <trkpt lat="48.77646" lon="-3.41568">
        <ele>78</ele>
        <time>2015-01-25T10:16:39Z</time>
      </trkpt>
      <trkpt lat="48.77638" lon="-3.41577">
        <ele>78</ele>
        <time>2015-01-25T10:16:40Z</time>
      </trkpt>
      <trkpt lat="48.77631" lon="-3.41587">
        <ele>77</ele>
        <time>2015-01-25T10:16:41Z</time>
      </trkpt>
      <trkpt lat="48.77623" lon="-3.41596">
        <ele>77</ele>
        <time>2015-01-25T10:16:42Z</time>
      </trkpt>
      <trkpt lat="48.77615" lon="-3.41606">
        <ele>77</ele>
        <time>2015-01-25T10:16:43Z</time>
      </trkpt>
      <trkpt lat="48.77608" lon="-3.41616">
        <ele>77</ele>
        <time>2015-01-25T10:16:44Z</time>
      </trkpt>
      <trkpt lat="48.776" lon="-3.41626">
        <ele>76</ele>
        <time>2015-01-25T10:16:45Z</time>
      </trkpt>
      <trkpt lat="48.77592" lon="-3.41635">
        <ele>76</ele>
        <time>2015-01-25T10:16:46Z</time>
      </trkpt>
      <trkpt lat="48.77584" lon="-3.41645">
        <ele>76</ele>
        <time>2015-01-25T10:16:47Z</time>
      </trkpt>
      <trkpt lat="48.77576" lon="-3.41655">
        <ele>75</ele>
        <time>2015-01-25T10:16:48Z</time>
      </trkpt>
      <trkpt lat="48.77568" lon="-3.41664">
        <ele>75</ele>
        <time>2015-01-25T10:16:49Z</time>
      </trkpt>
      <trkpt lat="48.77561" lon="-3.41674">
        <ele>75</ele>
        <time>2015-01-25T10:16:50Z</time>
      </trkpt>
      <trkpt lat="48.77553" lon="-3.41684">
        <ele>75</ele>
        <time>2015-01-25T10:16:51Z</time>
      </trkpt>
      <trkpt lat="48.77544" lon="-3.41694">
        <ele>74</ele>
        <time>2015-01-25T10:16:52Z</time>
      </trkpt>
      <trkpt lat="48.77537" lon="-3.41704">
        <ele>74</ele>
        <time>2015-01-25T10:16:53Z</time>
      </trkpt>
      <trkpt lat="48.77529" lon="-3.41714">
        <ele>74</ele>
        <time>2015-01-25T10:16:54Z</time>
      </trkpt>
      <trkpt lat="48.77521" lon="-3.41724">
        <ele>74</ele>
        <time>2015-01-25T10:16:55Z</time>
      </trkpt>
      <trkpt lat="48.77513" lon="-3.41733">
        <ele>73</ele>
        <time>2015-01-25T10:16:56Z</time>
      </trkpt>
      <trkpt lat="48.77505" lon="-3.41743">
        <ele>73</ele>
        <time>2015-01-25T10:16:57Z</time>
      </trkpt>
      <trkpt lat="48.77497" lon="-3.41752">
        <ele>73</ele>
        <time>2015-01-25T10:16:58Z</time>
      </trkpt>
      <trkpt lat="48.7749" lon="-3.41762">
        <ele>73</ele>
        <time>2015-01-25T10:16:59Z</time>
      </trkpt>
      <trkpt lat="48.77482" lon="-3.41771">
        <ele>73</ele>
        <time>2015-01-25T10:17:00Z</time>
      </trkpt>
      <trkpt lat="48.77475" lon="-3.41781">
        <ele>73</ele>
        <time>2015-01-25T10:17:01Z</time>
      </trkpt>
      <trkpt lat="48.77468" lon="-3.4179">
        <ele>73</ele>
        <time>2015-01-25T10:17:02Z</time>
      </trkpt>
      <trkpt lat="48.7746" lon="-3.41799">
        <ele>73</ele>
        <time>2015-01-25T10:17:03Z</time>
      </trkpt>
      <trkpt lat="48.77454" lon="-3.41808">
        <ele>73</ele>
        <time>2015-01-25T10:17:04Z</time>
      </trkpt>
      <trkpt lat="48.77447" lon="-3.41818">
        <ele>73</ele>
        <time>2015-01-25T10:17:05Z</time>
      </trkpt>
      <trkpt lat="48.77441" lon="-3.41827">
        <ele>73</ele>
        <time>2015-01-25T10:17:06Z</time>
      </trkpt>
      <trkpt lat="48.77434" lon="-3.41836">
        <ele>73</ele>
        <time>2015-01-25T10:17:07Z</time>
      </trkpt>
      <trkpt lat="48.77428" lon="-3.41845">
        <ele>73</ele>
        <time>2015-01-25T10:17:08Z</time>
      </trkpt>
      <trkpt lat="48.77422" lon="-3.41854">
        <ele>73</ele>
        <time>2015-01-25T10:17:09Z</time>
      </trkpt>
      <trkpt lat="48.77416" lon="-3.41863">
        <ele>73</ele>
        <time>2015-01-25T10:17:10Z</time>
      </trkpt>
      <trkpt lat="48.77411" lon="-3.41873">
        <ele>73</ele>
        <time>2015-01-25T10:17:11Z</time>
      </trkpt>
      <trkpt lat="48.77405" lon="-3.41883">
        <ele>73</ele>
        <time>2015-01-25T10:17:12Z</time>
      </trkpt>
      <trkpt lat="48.774" lon="-3.41893">
        <ele>73</ele>
        <time>2015-01-25T10:17:13Z</time>
      </trkpt>
      <trkpt lat="48.77394" lon="-3.41902">
        <ele>73</ele>
        <time>2015-01-25T10:17:14Z</time>
      </trkpt>
      <trkpt lat="48.77389" lon="-3.41912">
        <ele>73</ele>
        <time>2015-01-25T10:17:15Z</time>
      </trkpt>
      <trkpt lat="48.77384" lon="-3.41922">
        <ele>73</ele>
        <time>2015-01-25T10:17:16Z</time>
      </trkpt>
      <trkpt lat="48.7738" lon="-3.41932">
        <ele>73</ele>
        <time>2015-01-25T10:17:17Z</time>
      </trkpt>
      <trkpt lat="48.77375" lon="-3.41942">
        <ele>73</ele>
        <time>2015-01-25T10:17:18Z</time>
      </trkpt>
      <trkpt lat="48.7737" lon="-3.41952">
        <ele>73</ele>
        <time>2015-01-25T10:17:19Z</time>
      </trkpt>
      <trkpt lat="48.77366" lon="-3.41963">
        <ele>73</ele>
        <time>2015-01-25T10:17:20Z</time>
      </trkpt>
      <trkpt lat="48.77362" lon="-3.41973">
        <ele>73</ele>
        <time>2015-01-25T10:17:21Z</time>
      </trkpt>
      <trkpt lat="48.77358" lon="-3.41984">
        <ele>73</ele>
        <time>2015-01-25T10:17:22Z</time>
      </trkpt>
      <trkpt lat="48.77354" lon="-3.41994">
        <ele>73</ele>
        <time>2015-01-25T10:17:23Z</time>
      </trkpt>
      <trkpt lat="48.7735" lon="-3.42005">
        <ele>73</ele>
        <time>2015-01-25T10:17:24Z</time>
      </trkpt>
      <trkpt lat="48.77346" lon="-3.42015">
        <ele>73</ele>
        <time>2015-01-25T10:17:25Z</time>
      </trkpt>
      <trkpt lat="48.77342" lon="-3.42026">
        <ele>73</ele>
        <time>2015-01-25T10:17:26Z</time>
      </trkpt>
      <trkpt lat="48.77337" lon="-3.42037">
        <ele>73</ele>
        <time>2015-01-25T10:17:27Z</time>
      </trkpt>
      <trkpt lat="48.77333" lon="-3.42047">
        <ele>73</ele>
        <time>2015-01-25T10:17:28Z</time>
      </trkpt>
      <trkpt lat="48.77328" lon="-3.42057">
        <ele>73</ele>
        <time>2015-01-25T10:17:29Z</time>
      </trkpt>
      <trkpt lat="48.77324" lon="-3.42067">
        <ele>73</ele>
        <time>2015-01-25T10:17:30Z</time>
      </trkpt>
      <trkpt lat="48.77319" lon="-3.42077">
        <ele>73</ele>
        <time>2015-01-25T10:17:31Z</time>
      </trkpt>
      <trkpt lat="48.77315" lon="-3.42087">
        <ele>73</ele>
        <time>2015-01-25T10:17:32Z</time>
      </trkpt>
      <trkpt lat="48.7731" lon="-3.42097">
        <ele>73</ele>
        <time>2015-01-25T10:17:33Z</time>
      </trkpt>
      <trkpt lat="48.77306" lon="-3.42107">
        <ele>73</ele>
        <time>2015-01-25T10:17:34Z</time>
      </trkpt>
      <trkpt lat="48.77301" lon="-3.42117">
        <ele>73</ele>
        <time>2015-01-25T10:17:35Z</time>
      </trkpt>
      <trkpt lat="48.77296" lon="-3.42127">
        <ele>73</ele>
        <time>2015-01-25T10:17:36Z</time>
      </trkpt>
      <trkpt lat="48.7729" lon="-3.42137">
        <ele>73</ele>
        <time>2015-01-25T10:17:37Z</time>
      </trkpt>
      <trkpt lat="48.77284" lon="-3.42147">
        <ele>73</ele>
        <time>2015-01-25T10:17:38Z</time>
      </trkpt>
      <trkpt lat="48.77278" lon="-3.42157">
        <ele>73</ele>
        <time>2015-01-25T10:17:39Z</time>
      </trkpt>
      <trkpt lat="48.77272" lon="-3.42167">
        <ele>73</ele>
        <time>2015-01-25T10:17:40Z</time>
      </trkpt>
      <trkpt lat="48.77266" lon="-3.42176">
        <ele>73</ele>
        <time>2015-01-25T10:17:41Z</time>
      </trkpt>
      <trkpt lat="48.7726" lon="-3.42185">
        <ele>73</ele>
        <time>2015-01-25T10:17:42Z</time>
      </trkpt>
      <trkpt lat="48.77254" lon="-3.42194">
        <ele>73</ele>
        <time>2015-01-25T10:17:43Z</time>
      </trkpt>
      <trkpt lat="48.77248" lon="-3.42203">
        <ele>73</ele>
        <time>2015-01-25T10:17:44Z</time>
      </trkpt>
      <trkpt lat="48.77242" lon="-3.42212">
        <ele>73</ele>
        <time>2015-01-25T10:17:45Z</time>
      </trkpt>
      <trkpt lat="48.77237" lon="-3.42221">
        <ele>73</ele>
        <time>2015-01-25T10:17:46Z</time>
      </trkpt>
      <trkpt lat="48.7723" lon="-3.42229">
        <ele>73</ele>
        <time>2015-01-25T10:17:47Z</time>
      </trkpt>
      <trkpt lat="48.77225" lon="-3.42238">
        <ele>73</ele>
        <time>2015-01-25T10:17:48Z</time>
      </trkpt>
      <trkpt lat="48.77219" lon="-3.42247">
        <ele>73</ele>
        <time>2015-01-25T10:17:49Z</time>
      </trkpt>
      <trkpt lat="48.77213" lon="-3.42256">
        <ele>73</ele>
        <time>2015-01-25T10:17:50Z</time>
      </trkpt>
      <trkpt lat="48.77207" lon="-3.42265">
        <ele>73</ele>
        <time>2015-01-25T10:17:51Z</time>
      </trkpt>
      <trkpt lat="48.77201" lon="-3.42274">
        <ele>73</ele>
        <time>2015-01-25T10:17:52Z</time>
      </trkpt>
      <trkpt lat="48.77195" lon="-3.42283">
        <ele>73</ele>
        <time>2015-01-25T10:17:53Z</time>
      </trkpt>
      <trkpt lat="48.77189" lon="-3.42293">
        <ele>73</ele>
        <time>2015-01-25T10:17:54Z</time>
      </trkpt>
      <trkpt lat="48.77183" lon="-3.42302">
        <ele>73</ele>
        <time>2015-01-25T10:17:55Z</time>
      </trkpt>
      <trkpt lat="48.77176" lon="-3.42311">
        <ele>73</ele>
        <time>2015-01-25T10:17:56Z</time>
      </trkpt>
      <trkpt lat="48.7717" lon="-3.4232">
        <ele>73</ele>
        <time>2015-01-25T10:17:57Z</time>
      </trkpt>
      <trkpt lat="48.77164" lon="-3.4233">
        <ele>73</ele>
        <time>2015-01-25T10:17:58Z</time>
      </trkpt>
      <trkpt lat="48.77158" lon="-3.42339">
        <ele>73</ele>
        <time>2015-01-25T10:17:59Z</time>
      </trkpt>
      <trkpt lat="48.77151" lon="-3.42349">
        <ele>73</ele>
        <time>2015-01-25T10:18:00Z</time>
      </trkpt>
      <trkpt lat="48.77145" lon="-3.42358">
        <ele>73</ele>
        <time>2015-01-25T10:18:01Z</time>
      </trkpt>
      <trkpt lat="48.77139" lon="-3.42368">
        <ele>73</ele>
        <time>2015-01-25T10:18:02Z</time>
      </trkpt>
      <trkpt lat="48.77133" lon="-3.42377">
        <ele>73</ele>
        <time>2015-01-25T10:18:03Z</time>
      </trkpt>
      <trkpt lat="48.77127" lon="-3.42386">
        <ele>73</ele>
        <time>2015-01-25T10:18:04Z</time>
      </trkpt>
      <trkpt lat="48.77121" lon="-3.42395">
        <ele>73</ele>
        <time>2015-01-25T10:18:05Z</time>
      </trkpt>
      <trkpt lat="48.77115" lon="-3.42404">
        <ele>73</ele>
        <time>2015-01-25T10:18:06Z</time>
      </trkpt>
      <trkpt lat="48.77109" lon="-3.42413">
        <ele>73</ele>
        <time>2015-01-25T10:18:07Z</time>
      </trkpt>
      <trkpt lat="48.77103" lon="-3.42422">
        <ele>73</ele>
        <time>2015-01-25T10:18:08Z</time>
      </trkpt>
      <trkpt lat="48.77097" lon="-3.4243">
        <ele>73</ele>
        <time>2015-01-25T10:18:09Z</time>
      </trkpt>
      <trkpt lat="48.77091" lon="-3.42439">
        <ele>74</ele>
        <time>2015-01-25T10:18:10Z</time>
      </trkpt>
      <trkpt lat="48.77085" lon="-3.42448">
        <ele>74</ele>
        <time>2015-01-25T10:18:11Z</time>
      </trkpt>
      <trkpt lat="48.77079" lon="-3.42456">
        <ele>74</ele>
        <time>2015-01-25T10:18:12Z</time>
      </trkpt>
      <trkpt lat="48.77074" lon="-3.42465">
        <ele>74</ele>
        <time>2015-01-25T10:18:13Z</time>
      </trkpt>
      <trkpt lat="48.77068" lon="-3.42473">
        <ele>75</ele>
        <time>2015-01-25T10:18:14Z</time>
      </trkpt>
      <trkpt lat="48.77062" lon="-3.42482">
        <ele>75</ele>
        <time>2015-01-25T10:18:15Z</time>
      </trkpt>
      <trkpt lat="48.77057" lon="-3.4249">
        <ele>75</ele>
        <time>2015-01-25T10:18:16Z</time>
      </trkpt>
      <trkpt lat="48.77051" lon="-3.42498">
        <ele>76</ele>
        <time>2015-01-25T10:18:17Z</time>
      </trkpt>
      <trkpt lat="48.77046" lon="-3.42507">
        <ele>76</ele>
        <time>2015-01-25T10:18:18Z</time>
      </trkpt>
      <trkpt lat="48.7704" lon="-3.42515">
        <ele>76</ele>
        <time>2015-01-25T10:18:19Z</time>
      </trkpt>
      <trkpt lat="48.77035" lon="-3.42523">
        <ele>76</ele>
        <time>2015-01-25T10:18:20Z</time>
      </trkpt>
      <trkpt lat="48.7703" lon="-3.4253">
        <ele>77</ele>
        <time>2015-01-25T10:18:21Z</time>
      </trkpt>
      <trkpt lat="48.77024" lon="-3.42538">
        <ele>77</ele>
        <time>2015-01-25T10:18:22Z</time>
      </trkpt>
      <trkpt lat="48.77019" lon="-3.42545">
        <ele>77</ele>
        <time>2015-01-25T10:18:23Z</time>
      </trkpt>
      <trkpt lat="48.77014" lon="-3.42553">
        <ele>77</ele>
        <time>2015-01-25T10:18:24Z</time>
      </trkpt>
      <trkpt lat="48.77009" lon="-3.4256">
        <ele>77</ele>
        <time>2015-01-25T10:18:25Z</time>
      </trkpt>
      <trkpt lat="48.77004" lon="-3.42567">
        <ele>77</ele>
        <time>2015-01-25T10:18:26Z</time>
      </trkpt>
      <trkpt lat="48.77" lon="-3.42575">
        <ele>77</ele>
        <time>2015-01-25T10:18:27Z</time>
      </trkpt>
      <trkpt lat="48.76994" lon="-3.42582">
        <ele>78</ele>
        <time>2015-01-25T10:18:28Z</time>
      </trkpt>
      <trkpt lat="48.7699" lon="-3.42589">
        <ele>78</ele>
        <time>2015-01-25T10:18:29Z</time>
      </trkpt>
      <trkpt lat="48.76985" lon="-3.42596">
        <ele>78</ele>
        <time>2015-01-25T10:18:30Z</time>
      </trkpt>
      <trkpt lat="48.7698" lon="-3.42603">
        <ele>78</ele>
        <time>2015-01-25T10:18:31Z</time>
      </trkpt>
      <trkpt lat="48.76975" lon="-3.4261">
        <ele>78</ele>
        <time>2015-01-25T10:18:32Z</time>
      </trkpt>
      <trkpt lat="48.7697" lon="-3.42618">
        <ele>78</ele>
        <time>2015-01-25T10:18:33Z</time>
      </trkpt>
      <trkpt lat="48.76965" lon="-3.42625">
        <ele>78</ele>
        <time>2015-01-25T10:18:34Z</time>
      </trkpt>
      <trkpt lat="48.76959" lon="-3.42632">
        <ele>79</ele>
        <time>2015-01-25T10:18:35Z</time>
      </trkpt>
      <trkpt lat="48.76954" lon="-3.42638">
        <ele>79</ele>
        <time>2015-01-25T10:18:36Z</time>
      </trkpt>
      <trkpt lat="48.76949" lon="-3.42645">
        <ele>79</ele>
        <time>2015-01-25T10:18:37Z</time>
      </trkpt>
      <trkpt lat="48.76943" lon="-3.42652">
        <ele>79</ele>
        <time>2015-01-25T10:18:38Z</time>
      </trkpt>
      <trkpt lat="48.76938" lon="-3.42658">
        <ele>79</ele>
        <time>2015-01-25T10:18:39Z</time>
      </trkpt>
      <trkpt lat="48.76933" lon="-3.42665">
        <ele>79</ele>
        <time>2015-01-25T10:18:40Z</time>
      </trkpt>
      <trkpt lat="48.76927" lon="-3.42671">
        <ele>79</ele>
        <time>2015-01-25T10:18:41Z</time>
      </trkpt>
      <trkpt lat="48.76921" lon="-3.42677">
        <ele>79</ele>
        <time>2015-01-25T10:18:42Z</time>
      </trkpt>
      <trkpt lat="48.76915" lon="-3.42683">
        <ele>79</ele>
        <time>2015-01-25T10:18:43Z</time>
      </trkpt>
      <trkpt lat="48.7691" lon="-3.42688">
        <ele>79</ele>
        <time>2015-01-25T10:18:44Z</time>
      </trkpt>
      <trkpt lat="48.76904" lon="-3.42694">
        <ele>79</ele>
        <time>2015-01-25T10:18:45Z</time>
      </trkpt>
      <trkpt lat="48.76898" lon="-3.42699">
        <ele>80</ele>
        <time>2015-01-25T10:18:46Z</time>
      </trkpt>
      <trkpt lat="48.76892" lon="-3.42705">
        <ele>80</ele>
        <time>2015-01-25T10:18:47Z</time>
      </trkpt>
      <trkpt lat="48.76886" lon="-3.42709">
        <ele>80</ele>
        <time>2015-01-25T10:18:48Z</time>
      </trkpt>
      <trkpt lat="48.76881" lon="-3.42714">
        <ele>80</ele>
        <time>2015-01-25T10:18:49Z</time>
      </trkpt>
      <trkpt lat="48.76875" lon="-3.42719">
        <ele>80</ele>
        <time>2015-01-25T10:18:50Z</time>
      </trkpt>
      <trkpt lat="48.76869" lon="-3.42723">
        <ele>80</ele>
        <time>2015-01-25T10:18:51Z</time>
      </trkpt>
      <trkpt lat="48.76863" lon="-3.42728">
        <ele>80</ele>
        <time>2015-01-25T10:18:52Z</time>
      </trkpt>
      <trkpt lat="48.76857" lon="-3.42733">
        <ele>80</ele>
        <time>2015-01-25T10:18:53Z</time>
      </trkpt>
      <trkpt lat="48.7685" lon="-3.42738">
        <ele>80</ele>
        <time>2015-01-25T10:18:54Z</time>
      </trkpt>
      <trkpt lat="48.76844" lon="-3.42743">
        <ele>80</ele>
        <time>2015-01-25T10:18:55Z</time>
      </trkpt>
      <trkpt lat="48.76837" lon="-3.42748">
        <ele>80</ele>
        <time>2015-01-25T10:18:56Z</time>
      </trkpt>
      <trkpt lat="48.7683" lon="-3.42753">
        <ele>80</ele>
        <time>2015-01-25T10:18:57Z</time>
      </trkpt>
      <trkpt lat="48.76823" lon="-3.42758">
        <ele>80</ele>
        <time>2015-01-25T10:18:58Z</time>
      </trkpt>
      <trkpt lat="48.76815" lon="-3.42764">
        <ele>80</ele>
        <time>2015-01-25T10:18:59Z</time>
      </trkpt>
      <trkpt lat="48.76809" lon="-3.42769">
        <ele>80</ele>
        <time>2015-01-25T10:19:00Z</time>
      </trkpt>
      <trkpt lat="48.76801" lon="-3.42774">
        <ele>80</ele>
        <time>2015-01-25T10:19:01Z</time>
      </trkpt>
      <trkpt lat="48.76794" lon="-3.42779">
        <ele>80</ele>
        <time>2015-01-25T10:19:02Z</time>
      </trkpt>
      <trkpt lat="48.76787" lon="-3.42785">
        <ele>80</ele>
        <time>2015-01-25T10:19:03Z</time>
      </trkpt>
      <trkpt lat="48.7678" lon="-3.4279">
        <ele>80</ele>
        <time>2015-01-25T10:19:04Z</time>
      </trkpt>
      <trkpt lat="48.76773" lon="-3.42796">
        <ele>80</ele>
        <time>2015-01-25T10:19:05Z</time>
      </trkpt>
      <trkpt lat="48.76765" lon="-3.42802">
        <ele>80</ele>
        <time>2015-01-25T10:19:06Z</time>
      </trkpt>
      <trkpt lat="48.76758" lon="-3.42807">
        <ele>80</ele>
        <time>2015-01-25T10:19:07Z</time>
      </trkpt>
      <trkpt lat="48.76751" lon="-3.42813">
        <ele>80</ele>
        <time>2015-01-25T10:19:08Z</time>
      </trkpt>
      <trkpt lat="48.76744" lon="-3.4282">
        <ele>80</ele>
        <time>2015-01-25T10:19:09Z</time>
      </trkpt>
      <trkpt lat="48.76736" lon="-3.42826">
        <ele>80</ele>
        <time>2015-01-25T10:19:10Z</time>
      </trkpt>
      <trkpt lat="48.76729" lon="-3.42832">
        <ele>80</ele>
        <time>2015-01-25T10:19:11Z</time>
      </trkpt>
      <trkpt lat="48.76723" lon="-3.42839">
        <ele>80</ele>
        <time>2015-01-25T10:19:12Z</time>
      </trkpt>
      <trkpt lat="48.76716" lon="-3.42846">
        <ele>80</ele>
        <time>2015-01-25T10:19:13Z</time>
      </trkpt>
      <trkpt lat="48.7671" lon="-3.42853">
        <ele>80</ele>
        <time>2015-01-25T10:19:14Z</time>
      </trkpt>
      <trkpt lat="48.76704" lon="-3.42861">
        <ele>80</ele>
        <time>2015-01-25T10:19:15Z</time>
      </trkpt>
      <trkpt lat="48.76698" lon="-3.42869">
        <ele>80</ele>
        <time>2015-01-25T10:19:16Z</time>
      </trkpt>
      <trkpt lat="48.76692" lon="-3.42877">
        <ele>80</ele>
        <time>2015-01-25T10:19:17Z</time>
      </trkpt>
      <trkpt lat="48.76685" lon="-3.42886">
        <ele>80</ele>
        <time>2015-01-25T10:19:18Z</time>
      </trkpt>
      <trkpt lat="48.76679" lon="-3.42894">
        <ele>80</ele>
        <time>2015-01-25T10:19:19Z</time>
      </trkpt>
      <trkpt lat="48.76672" lon="-3.42903">
        <ele>80</ele>
        <time>2015-01-25T10:19:20Z</time>
      </trkpt>
      <trkpt lat="48.76666" lon="-3.42912">
        <ele>80</ele>
        <time>2015-01-25T10:19:21Z</time>
      </trkpt>
      <trkpt lat="48.76659" lon="-3.4292">
        <ele>80</ele>
        <time>2015-01-25T10:19:22Z</time>
      </trkpt>
      <trkpt lat="48.76653" lon="-3.42928">
        <ele>80</ele>
        <time>2015-01-25T10:19:23Z</time>
      </trkpt>
      <trkpt lat="48.76646" lon="-3.42936">
        <ele>80</ele>
        <time>2015-01-25T10:19:24Z</time>
      </trkpt>
      <trkpt lat="48.7664" lon="-3.42944">
        <ele>80</ele>
        <time>2015-01-25T10:19:25Z</time>
      </trkpt>
      <trkpt lat="48.76634" lon="-3.42952">
        <ele>80</ele>
        <time>2015-01-25T10:19:26Z</time>
      </trkpt>
      <trkpt lat="48.76627" lon="-3.42959">
        <ele>80</ele>
        <time>2015-01-25T10:19:27Z</time>
      </trkpt>
      <trkpt lat="48.7662" lon="-3.42967">
        <ele>80</ele>
        <time>2015-01-25T10:19:28Z</time>
      </trkpt>
      <trkpt lat="48.76614" lon="-3.42974">
        <ele>81</ele>
        <time>2015-01-25T10:19:29Z</time>
      </trkpt>
      <trkpt lat="48.76607" lon="-3.42981">
        <ele>81</ele>
        <time>2015-01-25T10:19:30Z</time>
      </trkpt>
      <trkpt lat="48.76601" lon="-3.42988">
        <ele>81</ele>
        <time>2015-01-25T10:19:31Z</time>
      </trkpt>
      <trkpt lat="48.76594" lon="-3.42994">
        <ele>81</ele>
        <time>2015-01-25T10:19:32Z</time>
      </trkpt>
      <trkpt lat="48.76587" lon="-3.43001">
        <ele>81</ele>
        <time>2015-01-25T10:19:33Z</time>
      </trkpt>
      <trkpt lat="48.7658" lon="-3.43007">
        <ele>82</ele>
        <time>2015-01-25T10:19:34Z</time>
      </trkpt>
      <trkpt lat="48.76573" lon="-3.43013">
        <ele>82</ele>
        <time>2015-01-25T10:19:35Z</time>
      </trkpt>
      <trkpt lat="48.76566" lon="-3.43019">
        <ele>82</ele>
        <time>2015-01-25T10:19:36Z</time>
      </trkpt>
      <trkpt lat="48.76558" lon="-3.43024">
        <ele>82</ele>
        <time>2015-01-25T10:19:37Z</time>
      </trkpt>
      <trkpt lat="48.76551" lon="-3.4303">
        <ele>82</ele>
        <time>2015-01-25T10:19:38Z</time>
      </trkpt>
      <trkpt lat="48.76544" lon="-3.43035">
        <ele>83</ele>
        <time>2015-01-25T10:19:39Z</time>
      </trkpt>
      <trkpt lat="48.76537" lon="-3.43039">
        <ele>83</ele>
        <time>2015-01-25T10:19:40Z</time>
      </trkpt>
      <trkpt lat="48.7653" lon="-3.43044">
        <ele>83</ele>
        <time>2015-01-25T10:19:41Z</time>
      </trkpt>
      <trkpt lat="48.76523" lon="-3.43049">
        <ele>83</ele>
        <time>2015-01-25T10:19:42Z</time>
      </trkpt>
      <trkpt lat="48.76516" lon="-3.43053">
        <ele>83</ele>
        <time>2015-01-25T10:19:43Z</time>
      </trkpt>
      <trkpt lat="48.76509" lon="-3.43057">
        <ele>84</ele>
        <time>2015-01-25T10:19:44Z</time>
      </trkpt>
      <trkpt lat="48.76502" lon="-3.4306">
        <ele>84</ele>
        <time>2015-01-25T10:19:45Z</time>
      </trkpt>
      <trkpt lat="48.76495" lon="-3.43063">
        <ele>84</ele>
        <time>2015-01-25T10:19:46Z</time>
      </trkpt>
      <trkpt lat="48.76488" lon="-3.43066">
        <ele>84</ele>
        <time>2015-01-25T10:19:47Z</time>
      </trkpt>
      <trkpt lat="48.7648" lon="-3.43069">
        <ele>84</ele>
        <time>2015-01-25T10:19:48Z</time>
      </trkpt>
      <trkpt lat="48.76474" lon="-3.43071">
        <ele>84</ele>
        <time>2015-01-25T10:19:49Z</time>
      </trkpt>
      <trkpt lat="48.76467" lon="-3.43074">
        <ele>84</ele>
        <time>2015-01-25T10:19:50Z</time>
      </trkpt>
      <trkpt lat="48.7646" lon="-3.43077">
        <ele>84</ele>
        <time>2015-01-25T10:19:51Z</time>
      </trkpt>
      <trkpt lat="48.76453" lon="-3.4308">
        <ele>85</ele>
        <time>2015-01-25T10:19:52Z</time>
      </trkpt>
      <trkpt lat="48.76447" lon="-3.43083">
        <ele>85</ele>
        <time>2015-01-25T10:19:53Z</time>
      </trkpt>
      <trkpt lat="48.7644" lon="-3.43086">
        <ele>85</ele>
        <time>2015-01-25T10:19:54Z</time>
      </trkpt>
      <trkpt lat="48.76433" lon="-3.43089">
        <ele>85</ele>
        <time>2015-01-25T10:19:55Z</time>
      </trkpt>
      <trkpt lat="48.76426" lon="-3.43092">
        <ele>85</ele>
        <time>2015-01-25T10:19:56Z</time>
      </trkpt>
      <trkpt lat="48.76419" lon="-3.43095">
        <ele>85</ele>
        <time>2015-01-25T10:19:57Z</time>
      </trkpt>
      <trkpt lat="48.76412" lon="-3.43099">
        <ele>86</ele>
        <time>2015-01-25T10:19:58Z</time>
      </trkpt>
      <trkpt lat="48.76405" lon="-3.43102">
        <ele>86</ele>
        <time>2015-01-25T10:19:59Z</time>
      </trkpt>
      <trkpt lat="48.76399" lon="-3.43106">
        <ele>86</ele>
        <time>2015-01-25T10:20:00Z</time>
      </trkpt>
      <trkpt lat="48.76392" lon="-3.43109">
        <ele>86</ele>
        <time>2015-01-25T10:20:01Z</time>
      </trkpt>
      <trkpt lat="48.76385" lon="-3.43113">
        <ele>86</ele>
        <time>2015-01-25T10:20:02Z</time>
      </trkpt>
      <trkpt lat="48.76379" lon="-3.43117">
        <ele>86</ele>
        <time>2015-01-25T10:20:03Z</time>
      </trkpt>
      <trkpt lat="48.76372" lon="-3.43121">
        <ele>87</ele>
        <time>2015-01-25T10:20:04Z</time>
      </trkpt>
      <trkpt lat="48.76365" lon="-3.43125">
        <ele>87</ele>
        <time>2015-01-25T10:20:05Z</time>
      </trkpt>
      <trkpt lat="48.76359" lon="-3.43129">
        <ele>87</ele>
        <time>2015-01-25T10:20:06Z</time>
      </trkpt>
      <trkpt lat="48.76352" lon="-3.43134">
        <ele>87</ele>
        <time>2015-01-25T10:20:07Z</time>
      </trkpt>
      <trkpt lat="48.76346" lon="-3.43138">
        <ele>87</ele>
        <time>2015-01-25T10:20:08Z</time>
      </trkpt>
      <trkpt lat="48.7634" lon="-3.43143">
        <ele>88</ele>
        <time>2015-01-25T10:20:09Z</time>
      </trkpt>
      <trkpt lat="48.76334" lon="-3.43147">
        <ele>88</ele>
        <time>2015-01-25T10:20:10Z</time>
      </trkpt>
      <trkpt lat="48.76328" lon="-3.43152">
        <ele>88</ele>
        <time>2015-01-25T10:20:11Z</time>
      </trkpt>
      <trkpt lat="48.76321" lon="-3.43157">
        <ele>88</ele>
        <time>2015-01-25T10:20:12Z</time>
      </trkpt>
      <trkpt lat="48.76316" lon="-3.43162">
        <ele>88</ele>
        <time>2015-01-25T10:20:13Z</time>
      </trkpt>
      <trkpt lat="48.7631" lon="-3.43167">
        <ele>88</ele>
        <time>2015-01-25T10:20:14Z</time>
      </trkpt>
      <trkpt lat="48.76304" lon="-3.43173">
        <ele>89</ele>
        <time>2015-01-25T10:20:15Z</time>
      </trkpt>
      <trkpt lat="48.76298" lon="-3.43178">
        <ele>89</ele>
        <time>2015-01-25T10:20:16Z</time>
      </trkpt>
      <trkpt lat="48.76292" lon="-3.43184">
        <ele>89</ele>
        <time>2015-01-25T10:20:17Z</time>
      </trkpt>
      <trkpt lat="48.76286" lon="-3.4319">
        <ele>89</ele>
        <time>2015-01-25T10:20:18Z</time>
      </trkpt>
      <trkpt lat="48.7628" lon="-3.43196">
        <ele>89</ele>
        <time>2015-01-25T10:20:19Z</time>
      </trkpt>
      <trkpt lat="48.76274" lon="-3.43202">
        <ele>89</ele>
        <time>2015-01-25T10:20:20Z</time>
      </trkpt>
      <trkpt lat="48.76268" lon="-3.43208">
        <ele>90</ele>
        <time>2015-01-25T10:20:21Z</time>
      </trkpt>
      <trkpt lat="48.76262" lon="-3.43215">
        <ele>90</ele>
        <time>2015-01-25T10:20:22Z</time>
      </trkpt>
      <trkpt lat="48.76257" lon="-3.43221">
        <ele>90</ele>
        <time>2015-01-25T10:20:23Z</time>
      </trkpt>
      <trkpt lat="48.76251" lon="-3.43228">
        <ele>90</ele>
        <time>2015-01-25T10:20:24Z</time>
      </trkpt>
      <trkpt lat="48.76245" lon="-3.43234">
        <ele>90</ele>
        <time>2015-01-25T10:20:25Z</time>
      </trkpt>
      <trkpt lat="48.7624" lon="-3.43241">
        <ele>90</ele>
        <time>2015-01-25T10:20:26Z</time>
      </trkpt>
      <trkpt lat="48.76234" lon="-3.43247">
        <ele>90</ele>
        <time>2015-01-25T10:20:27Z</time>
      </trkpt>
      <trkpt lat="48.76229" lon="-3.43254">
        <ele>91</ele>
        <time>2015-01-25T10:20:28Z</time>
      </trkpt>
      <trkpt lat="48.76224" lon="-3.43261">
        <ele>91</ele>
        <time>2015-01-25T10:20:29Z</time>
      </trkpt>
      <trkpt lat="48.76219" lon="-3.43267">
        <ele>91</ele>
        <time>2015-01-25T10:20:30Z</time>
      </trkpt>
      <trkpt lat="48.76214" lon="-3.43275">
        <ele>91</ele>
        <time>2015-01-25T10:20:31Z</time>
      </trkpt>
      <trkpt lat="48.76209" lon="-3.43282">
        <ele>91</ele>
        <time>2015-01-25T10:20:32Z</time>
      </trkpt>
      <trkpt lat="48.76205" lon="-3.43289">
        <ele>91</ele>
        <time>2015-01-25T10:20:33Z</time>
      </trkpt>
      <trkpt lat="48.762" lon="-3.43296">
        <ele>91</ele>
        <time>2015-01-25T10:20:34Z</time>
      </trkpt>
      <trkpt lat="48.76195" lon="-3.43303">
        <ele>92</ele>
        <time>2015-01-25T10:20:35Z</time>
      </trkpt>
      <trkpt lat="48.76191" lon="-3.4331">
        <ele>92</ele>
        <time>2015-01-25T10:20:36Z</time>
      </trkpt>
      <trkpt lat="48.76186" lon="-3.43317">
        <ele>92</ele>
        <time>2015-01-25T10:20:37Z</time>
      </trkpt>
      <trkpt lat="48.76182" lon="-3.43324">
        <ele>92</ele>
        <time>2015-01-25T10:20:38Z</time>
      </trkpt>
      <trkpt lat="48.76178" lon="-3.43332">
        <ele>92</ele>
        <time>2015-01-25T10:20:39Z</time>
      </trkpt>
      <trkpt lat="48.76173" lon="-3.4334">
        <ele>92</ele>
        <time>2015-01-25T10:20:40Z</time>
      </trkpt>
      <trkpt lat="48.76168" lon="-3.43348">
        <ele>92</ele>
        <time>2015-01-25T10:20:41Z</time>
      </trkpt>
      <trkpt lat="48.76164" lon="-3.43356">
        <ele>92</ele>
        <time>2015-01-25T10:20:42Z</time>
      </trkpt>
      <trkpt lat="48.76159" lon="-3.43365">
        <ele>92</ele>
        <time>2015-01-25T10:20:43Z</time>
      </trkpt>
      <trkpt lat="48.76155" lon="-3.43373">
        <ele>93</ele>
        <time>2015-01-25T10:20:44Z</time>
      </trkpt>
      <trkpt lat="48.7615" lon="-3.43382">
        <ele>93</ele>
        <time>2015-01-25T10:20:45Z</time>
      </trkpt>
      <trkpt lat="48.76146" lon="-3.43391">
        <ele>93</ele>
        <time>2015-01-25T10:20:46Z</time>
      </trkpt>
      <trkpt lat="48.76141" lon="-3.434">
        <ele>93</ele>
        <time>2015-01-25T10:20:47Z</time>
      </trkpt>
      <trkpt lat="48.76137" lon="-3.43408">
        <ele>93</ele>
        <time>2015-01-25T10:20:48Z</time>
      </trkpt>
      <trkpt lat="48.76133" lon="-3.43417">
        <ele>93</ele>
        <time>2015-01-25T10:20:49Z</time>
      </trkpt>
      <trkpt lat="48.76128" lon="-3.43426">
        <ele>93</ele>
        <time>2015-01-25T10:20:50Z</time>
      </trkpt>
      <trkpt lat="48.76124" lon="-3.43435">
        <ele>94</ele>
        <time>2015-01-25T10:20:51Z</time>
      </trkpt>
      <trkpt lat="48.76119" lon="-3.43444">
        <ele>94</ele>
        <time>2015-01-25T10:20:52Z</time>
      </trkpt>
      <trkpt lat="48.76115" lon="-3.43453">
        <ele>94</ele>
        <time>2015-01-25T10:20:53Z</time>
      </trkpt>
      <trkpt lat="48.7611" lon="-3.43462">
        <ele>94</ele>
        <time>2015-01-25T10:20:54Z</time>
      </trkpt>
      <trkpt lat="48.76105" lon="-3.43471">
        <ele>94</ele>
        <time>2015-01-25T10:20:55Z</time>
      </trkpt>
      <trkpt lat="48.76101" lon="-3.4348">
        <ele>94</ele>
        <time>2015-01-25T10:20:56Z</time>
      </trkpt>
      <trkpt lat="48.76096" lon="-3.43489">
        <ele>95</ele>
        <time>2015-01-25T10:20:57Z</time>
      </trkpt>
      <trkpt lat="48.76091" lon="-3.43498">
        <ele>95</ele>
        <time>2015-01-25T10:20:58Z</time>
      </trkpt>
      <trkpt lat="48.76086" lon="-3.43507">
        <ele>95</ele>
        <time>2015-01-25T10:20:59Z</time>
      </trkpt>
      <trkpt lat="48.76081" lon="-3.43516">
        <ele>95</ele>
        <time>2015-01-25T10:21:00Z</time>
      </trkpt>
      <trkpt lat="48.76075" lon="-3.43525">
        <ele>95</ele>
        <time>2015-01-25T10:21:01Z</time>
      </trkpt>
      <trkpt lat="48.7607" lon="-3.43533">
        <ele>95</ele>
        <time>2015-01-25T10:21:02Z</time>
      </trkpt>
      <trkpt lat="48.76065" lon="-3.43542">
        <ele>95</ele>
        <time>2015-01-25T10:21:03Z</time>
      </trkpt>
      <trkpt lat="48.7606" lon="-3.4355">
        <ele>95</ele>
        <time>2015-01-25T10:21:04Z</time>
      </trkpt>
      <trkpt lat="48.76054" lon="-3.43558">
        <ele>95</ele>
        <time>2015-01-25T10:21:05Z</time>
      </trkpt>
      <trkpt lat="48.76049" lon="-3.43566">
        <ele>95</ele>
        <time>2015-01-25T10:21:06Z</time>
      </trkpt>
      <trkpt lat="48.76044" lon="-3.43574">
        <ele>95</ele>
        <time>2015-01-25T10:21:07Z</time>
      </trkpt>
      <trkpt lat="48.76038" lon="-3.43582">
        <ele>95</ele>
        <time>2015-01-25T10:21:08Z</time>
      </trkpt>
      <trkpt lat="48.76032" lon="-3.43589">
        <ele>95</ele>
        <time>2015-01-25T10:21:09Z</time>
      </trkpt>
      <trkpt lat="48.76027" lon="-3.43597">
        <ele>95</ele>
        <time>2015-01-25T10:21:10Z</time>
      </trkpt>
      <trkpt lat="48.76021" lon="-3.43604">
        <ele>95</ele>
        <time>2015-01-25T10:21:11Z</time>
      </trkpt>
      <trkpt lat="48.76015" lon="-3.43612">
        <ele>95</ele>
        <time>2015-01-25T10:21:12Z</time>
      </trkpt>
      <trkpt lat="48.76009" lon="-3.43619">
        <ele>95</ele>
        <time>2015-01-25T10:21:13Z</time>
      </trkpt>
      <trkpt lat="48.76003" lon="-3.43626">
        <ele>95</ele>
        <time>2015-01-25T10:21:14Z</time>
      </trkpt>
      <trkpt lat="48.75996" lon="-3.43634">
        <ele>95</ele>
        <time>2015-01-25T10:21:15Z</time>
      </trkpt>
      <trkpt lat="48.7599" lon="-3.43641">
        <ele>95</ele>
        <time>2015-01-25T10:21:16Z</time>
      </trkpt>
      <trkpt lat="48.75983" lon="-3.43648">
        <ele>95</ele>
        <time>2015-01-25T10:21:17Z</time>
      </trkpt>
      <trkpt lat="48.75976" lon="-3.43655">
        <ele>95</ele>
        <time>2015-01-25T10:21:18Z</time>
      </trkpt>
      <trkpt lat="48.75969" lon="-3.43662">
        <ele>95</ele>
        <time>2015-01-25T10:21:19Z</time>
      </trkpt>
      <trkpt lat="48.75962" lon="-3.43668">
        <ele>95</ele>
        <time>2015-01-25T10:21:20Z</time>
      </trkpt>
      <trkpt lat="48.75955" lon="-3.43674">
        <ele>95</ele>
        <time>2015-01-25T10:21:21Z</time>
      </trkpt>
      <trkpt lat="48.75948" lon="-3.43681">
        <ele>95</ele>
        <time>2015-01-25T10:21:22Z</time>
      </trkpt>
      <trkpt lat="48.75941" lon="-3.43687">
        <ele>95</ele>
        <time>2015-01-25T10:21:23Z</time>
      </trkpt>
      <trkpt lat="48.75934" lon="-3.43693">
        <ele>95</ele>
        <time>2015-01-25T10:21:24Z</time>
      </trkpt>
      <trkpt lat="48.75927" lon="-3.43698">
        <ele>95</ele>
        <time>2015-01-25T10:21:25Z</time>
      </trkpt>
      <trkpt lat="48.75919" lon="-3.43704">
        <ele>95</ele>
        <time>2015-01-25T10:21:26Z</time>
      </trkpt>
      <trkpt lat="48.75912" lon="-3.43709">
        <ele>95</ele>
        <time>2015-01-25T10:21:27Z</time>
      </trkpt>
      <trkpt lat="48.75905" lon="-3.43715">
        <ele>95</ele>
        <time>2015-01-25T10:21:28Z</time>
      </trkpt>
      <trkpt lat="48.75897" lon="-3.43721">
        <ele>95</ele>
        <time>2015-01-25T10:21:29Z</time>
      </trkpt>
      <trkpt lat="48.7589" lon="-3.43727">
        <ele>95</ele>
        <time>2015-01-25T10:21:30Z</time>
      </trkpt>
      <trkpt lat="48.75882" lon="-3.43732">
        <ele>95</ele>
        <time>2015-01-25T10:21:31Z</time>
      </trkpt>
      <trkpt lat="48.75874" lon="-3.43737">
        <ele>95</ele>
        <time>2015-01-25T10:21:32Z</time>
      </trkpt>
      <trkpt lat="48.75866" lon="-3.43742">
        <ele>95</ele>
        <time>2015-01-25T10:21:33Z</time>
      </trkpt>
      <trkpt lat="48.75858" lon="-3.43747">
        <ele>95</ele>
        <time>2015-01-25T10:21:34Z</time>
      </trkpt>
      <trkpt lat="48.7585" lon="-3.43751">
        <ele>95</ele>
        <time>2015-01-25T10:21:35Z</time>
      </trkpt>
      <trkpt lat="48.75842" lon="-3.43756">
        <ele>95</ele>
        <time>2015-01-25T10:21:36Z</time>
      </trkpt>
      <trkpt lat="48.75834" lon="-3.4376">
        <ele>95</ele>
        <time>2015-01-25T10:21:37Z</time>
      </trkpt>
      <trkpt lat="48.75826" lon="-3.43765">
        <ele>95</ele>
        <time>2015-01-25T10:21:38Z</time>
      </trkpt>
      <trkpt lat="48.75817" lon="-3.43769">
        <ele>95</ele>
        <time>2015-01-25T10:21:39Z</time>
      </trkpt>
      <trkpt lat="48.75809" lon="-3.43773">
        <ele>95</ele>
        <time>2015-01-25T10:21:40Z</time>
      </trkpt>
      <trkpt lat="48.75801" lon="-3.43777">
        <ele>95</ele>
        <time>2015-01-25T10:21:41Z</time>
      </trkpt>
      <trkpt lat="48.75793" lon="-3.43782">
        <ele>95</ele>
        <time>2015-01-25T10:21:42Z</time>
      </trkpt>
      <trkpt lat="48.75785" lon="-3.43786">
        <ele>95</ele>
        <time>2015-01-25T10:21:43Z</time>
      </trkpt>
      <trkpt lat="48.75777" lon="-3.43791">
        <ele>95</ele>
        <time>2015-01-25T10:21:44Z</time>
      </trkpt>
      <trkpt lat="48.75769" lon="-3.43795">
        <ele>95</ele>
        <time>2015-01-25T10:21:45Z</time>
      </trkpt>
      <trkpt lat="48.75761" lon="-3.43799">
        <ele>95</ele>
        <time>2015-01-25T10:21:46Z</time>
      </trkpt>
      <trkpt lat="48.75753" lon="-3.43804">
        <ele>95</ele>
        <time>2015-01-25T10:21:47Z</time>
      </trkpt>
      <trkpt lat="48.75745" lon="-3.43808">
        <ele>95</ele>
        <time>2015-01-25T10:21:48Z</time>
      </trkpt>
      <trkpt lat="48.75737" lon="-3.43813">
        <ele>95</ele>
        <time>2015-01-25T10:21:49Z</time>
      </trkpt>
      <trkpt lat="48.75729" lon="-3.43817">
        <ele>95</ele>
        <time>2015-01-25T10:21:50Z</time>
      </trkpt>
      <trkpt lat="48.75721" lon="-3.43821">
        <ele>95</ele>
        <time>2015-01-25T10:21:51Z</time>
      </trkpt>
      <trkpt lat="48.75713" lon="-3.43826">
        <ele>95</ele>
        <time>2015-01-25T10:21:52Z</time>
      </trkpt>
      <trkpt lat="48.75705" lon="-3.4383">
        <ele>95</ele>
        <time>2015-01-25T10:21:53Z</time>
      </trkpt>
      <trkpt lat="48.75697" lon="-3.43834">
        <ele>95</ele>
        <time>2015-01-25T10:21:54Z</time>
      </trkpt>
      <trkpt lat="48.75689" lon="-3.43838">
        <ele>95</ele>
        <time>2015-01-25T10:21:55Z</time>
      </trkpt>
      <trkpt lat="48.75681" lon="-3.43842">
        <ele>95</ele>
        <time>2015-01-25T10:21:56Z</time>
      </trkpt>
      <trkpt lat="48.75673" lon="-3.43847">
        <ele>95</ele>
        <time>2015-01-25T10:21:57Z</time>
      </trkpt>
      <trkpt lat="48.75666" lon="-3.4385">
        <ele>95</ele>
        <time>2015-01-25T10:21:58Z</time>
      </trkpt>
      <trkpt lat="48.75658" lon="-3.43855">
        <ele>95</ele>
        <time>2015-01-25T10:21:59Z</time>
      </trkpt>
      <trkpt lat="48.75651" lon="-3.43859">
        <ele>95</ele>
        <time>2015-01-25T10:22:00Z</time>
      </trkpt>
      <trkpt lat="48.75644" lon="-3.43863">
        <ele>95</ele>
        <time>2015-01-25T10:22:01Z</time>
      </trkpt>
      <trkpt lat="48.75637" lon="-3.43868">
        <ele>95</ele>
        <time>2015-01-25T10:22:02Z</time>
      </trkpt>
      <trkpt lat="48.75632" lon="-3.43875">
        <ele>95</ele>
        <time>2015-01-25T10:22:03Z</time>
      </trkpt>
      <trkpt lat="48.75627" lon="-3.43882">
        <ele>95</ele>
        <time>2015-01-25T10:22:04Z</time>
      </trkpt>
      <trkpt lat="48.75622" lon="-3.43889">
        <ele>95</ele>
        <time>2015-01-25T10:22:05Z</time>
      </trkpt>
      <trkpt lat="48.75617" lon="-3.43895">
        <ele>95</ele>
        <time>2015-01-25T10:22:06Z</time>
      </trkpt>
      <trkpt lat="48.75611" lon="-3.43898">
        <ele>95</ele>
        <time>2015-01-25T10:22:07Z</time>
      </trkpt>
      <trkpt lat="48.75604" lon="-3.43899">
        <ele>95</ele>
        <time>2015-01-25T10:22:08Z</time>
      </trkpt>
      <trkpt lat="48.75597" lon="-3.43898">
        <ele>95</ele>
        <time>2015-01-25T10:22:09Z</time>
      </trkpt>
      <trkpt lat="48.75589" lon="-3.43898">
        <ele>95</ele>
        <time>2015-01-25T10:22:10Z</time>
      </trkpt>
      <trkpt lat="48.75581" lon="-3.43899">
        <ele>95</ele>
        <time>2015-01-25T10:22:11Z</time>
      </trkpt>
      <trkpt lat="48.75573" lon="-3.43902">
        <ele>95</ele>
        <time>2015-01-25T10:22:12Z</time>
      </trkpt>
      <trkpt lat="48.75565" lon="-3.43906">
        <ele>95</ele>
        <time>2015-01-25T10:22:13Z</time>
      </trkpt>
      <trkpt lat="48.75557" lon="-3.4391">
        <ele>95</ele>
        <time>2015-01-25T10:22:14Z</time>
      </trkpt>
      <trkpt lat="48.75548" lon="-3.43915">
        <ele>95</ele>
        <time>2015-01-25T10:22:15Z</time>
      </trkpt>
      <trkpt lat="48.7554" lon="-3.43919">
        <ele>95</ele>
        <time>2015-01-25T10:22:16Z</time>
      </trkpt>
      <trkpt lat="48.75531" lon="-3.43924">
        <ele>95</ele>
        <time>2015-01-25T10:22:17Z</time>
      </trkpt>
      <trkpt lat="48.75523" lon="-3.43928">
        <ele>95</ele>
        <time>2015-01-25T10:22:18Z</time>
      </trkpt>
      <trkpt lat="48.75515" lon="-3.43932">
        <ele>95</ele>
        <time>2015-01-25T10:22:19Z</time>
      </trkpt>
      <trkpt lat="48.75506" lon="-3.43937">
        <ele>95</ele>
        <time>2015-01-25T10:22:20Z</time>
      </trkpt>
      <trkpt lat="48.75498" lon="-3.43941">
        <ele>95</ele>
        <time>2015-01-25T10:22:21Z</time>
      </trkpt>
      <trkpt lat="48.7549" lon="-3.43946">
        <ele>95</ele>
        <time>2015-01-25T10:22:22Z</time>
      </trkpt>
      <trkpt lat="48.75481" lon="-3.43951">
        <ele>95</ele>
        <time>2015-01-25T10:22:23Z</time>
      </trkpt>
      <trkpt lat="48.75473" lon="-3.43956">
        <ele>95</ele>
        <time>2015-01-25T10:22:24Z</time>
      </trkpt>
      <trkpt lat="48.75465" lon="-3.43961">
        <ele>95</ele>
        <time>2015-01-25T10:22:25Z</time>
      </trkpt>
      <trkpt lat="48.75457" lon="-3.43967">
        <ele>95</ele>
        <time>2015-01-25T10:22:26Z</time>
      </trkpt>
      <trkpt lat="48.7545" lon="-3.43972">
        <ele>95</ele>
        <time>2015-01-25T10:22:27Z</time>
      </trkpt>
      <trkpt lat="48.75442" lon="-3.43979">
        <ele>95</ele>
        <time>2015-01-25T10:22:28Z</time>
      </trkpt>
      <trkpt lat="48.75435" lon="-3.43985">
        <ele>95</ele>
        <time>2015-01-25T10:22:29Z</time>
      </trkpt>
      <trkpt lat="48.75427" lon="-3.43992">
        <ele>95</ele>
        <time>2015-01-25T10:22:30Z</time>
      </trkpt>
      <trkpt lat="48.7542" lon="-3.43999">
        <ele>95</ele>
        <time>2015-01-25T10:22:31Z</time>
      </trkpt>
      <trkpt lat="48.75413" lon="-3.44007">
        <ele>95</ele>
        <time>2015-01-25T10:22:32Z</time>
      </trkpt>
      <trkpt lat="48.75406" lon="-3.44015">
        <ele>95</ele>
        <time>2015-01-25T10:22:33Z</time>
      </trkpt>
      <trkpt lat="48.754" lon="-3.44023">
        <ele>95</ele>
        <time>2015-01-25T10:22:34Z</time>
      </trkpt>
      <trkpt lat="48.75393" lon="-3.44031">
        <ele>95</ele>
        <time>2015-01-25T10:22:35Z</time>
      </trkpt>
      <trkpt lat="48.75387" lon="-3.4404">
        <ele>95</ele>
        <time>2015-01-25T10:22:36Z</time>
      </trkpt>
      <trkpt lat="48.75381" lon="-3.44049">
        <ele>95</ele>
        <time>2015-01-25T10:22:37Z</time>
      </trkpt>
      <trkpt lat="48.75376" lon="-3.44057">
        <ele>94</ele>
        <time>2015-01-25T10:22:38Z</time>
      </trkpt>
      <trkpt lat="48.7537" lon="-3.44067">
        <ele>94</ele>
        <time>2015-01-25T10:22:39Z</time>
      </trkpt>
      <trkpt lat="48.75365" lon="-3.44076">
        <ele>94</ele>
        <time>2015-01-25T10:22:40Z</time>
      </trkpt>
      <trkpt lat="48.7536" lon="-3.44086">
        <ele>94</ele>
        <time>2015-01-25T10:22:41Z</time>
      </trkpt>
      <trkpt lat="48.75355" lon="-3.44096">
        <ele>94</ele>
        <time>2015-01-25T10:22:42Z</time>
      </trkpt>
      <trkpt lat="48.75351" lon="-3.44107">
        <ele>94</ele>
        <time>2015-01-25T10:22:43Z</time>
      </trkpt>
      <trkpt lat="48.75346" lon="-3.44118">
        <ele>94</ele>
        <time>2015-01-25T10:22:44Z</time>
      </trkpt>
      <trkpt lat="48.75342" lon="-3.44129">
        <ele>94</ele>
        <time>2015-01-25T10:22:45Z</time>
      </trkpt>
      <trkpt lat="48.75338" lon="-3.44141">
        <ele>94</ele>
        <time>2015-01-25T10:22:46Z</time>
      </trkpt>
      <trkpt lat="48.75334" lon="-3.44153">
        <ele>94</ele>
        <time>2015-01-25T10:22:47Z</time>
      </trkpt>
      <trkpt lat="48.7533" lon="-3.44164">
        <ele>94</ele>
        <time>2015-01-25T10:22:48Z</time>
      </trkpt>
      <trkpt lat="48.75327" lon="-3.44176">
        <ele>94</ele>
        <time>2015-01-25T10:22:49Z</time>
      </trkpt>
      <trkpt lat="48.75323" lon="-3.44188">
        <ele>94</ele>
        <time>2015-01-25T10:22:50Z</time>
      </trkpt>
      <trkpt lat="48.75319" lon="-3.442">
        <ele>94</ele>
        <time>2015-01-25T10:22:51Z</time>
      </trkpt>
      <trkpt lat="48.75315" lon="-3.44212">
        <ele>94</ele>
        <time>2015-01-25T10:22:52Z</time>
      </trkpt>
      <trkpt lat="48.7531" lon="-3.44223">
        <ele>94</ele>
        <time>2015-01-25T10:22:53Z</time>
      </trkpt>
      <trkpt lat="48.75305" lon="-3.44234">
        <ele>94</ele>
        <time>2015-01-25T10:22:54Z</time>
      </trkpt>
      <trkpt lat="48.753" lon="-3.44245">
        <ele>94</ele>
        <time>2015-01-25T10:22:55Z</time>
      </trkpt>
      <trkpt lat="48.75294" lon="-3.44255">
        <ele>94</ele>
        <time>2015-01-25T10:22:56Z</time>
      </trkpt>
      <trkpt lat="48.75288" lon="-3.44265">
        <ele>94</ele>
        <time>2015-01-25T10:22:57Z</time>
      </trkpt>
      <trkpt lat="48.75282" lon="-3.44274">
        <ele>94</ele>
        <time>2015-01-25T10:22:58Z</time>
      </trkpt>
      <trkpt lat="48.75276" lon="-3.44283">
        <ele>94</ele>
        <time>2015-01-25T10:22:59Z</time>
      </trkpt>
      <trkpt lat="48.7527" lon="-3.44292">
        <ele>93</ele>
        <time>2015-01-25T10:23:00Z</time>
      </trkpt>
      <trkpt lat="48.75264" lon="-3.44301">
        <ele>93</ele>
        <time>2015-01-25T10:23:01Z</time>
      </trkpt>
      <trkpt lat="48.75257" lon="-3.44309">
        <ele>93</ele>
        <time>2015-01-25T10:23:02Z</time>
      </trkpt>
      <trkpt lat="48.75251" lon="-3.44318">
        <ele>93</ele>
        <time>2015-01-25T10:23:03Z</time>
      </trkpt>
      <trkpt lat="48.75245" lon="-3.44327">
        <ele>93</ele>
        <time>2015-01-25T10:23:04Z</time>
      </trkpt>
      <trkpt lat="48.75238" lon="-3.44336">
        <ele>93</ele>
        <time>2015-01-25T10:23:05Z</time>
      </trkpt>
      <trkpt lat="48.75232" lon="-3.44345">
        <ele>93</ele>
        <time>2015-01-25T10:23:06Z</time>
      </trkpt>
      <trkpt lat="48.75225" lon="-3.44354">
        <ele>93</ele>
        <time>2015-01-25T10:23:07Z</time>
      </trkpt>
      <trkpt lat="48.75219" lon="-3.44363">
        <ele>93</ele>
        <time>2015-01-25T10:23:08Z</time>
      </trkpt>
      <trkpt lat="48.75213" lon="-3.44372">
        <ele>93</ele>
        <time>2015-01-25T10:23:09Z</time>
      </trkpt>
      <trkpt lat="48.75207" lon="-3.44381">
        <ele>93</ele>
        <time>2015-01-25T10:23:10Z</time>
      </trkpt>
      <trkpt lat="48.75201" lon="-3.4439">
        <ele>93</ele>
        <time>2015-01-25T10:23:11Z</time>
      </trkpt>
      <trkpt lat="48.75195" lon="-3.44399">
        <ele>93</ele>
        <time>2015-01-25T10:23:12Z</time>
      </trkpt>
      <trkpt lat="48.75188" lon="-3.44408">
        <ele>93</ele>
        <time>2015-01-25T10:23:13Z</time>
      </trkpt>
      <trkpt lat="48.75182" lon="-3.44417">
        <ele>93</ele>
        <time>2015-01-25T10:23:14Z</time>
      </trkpt>
      <trkpt lat="48.75177" lon="-3.44426">
        <ele>93</ele>
        <time>2015-01-25T10:23:15Z</time>
      </trkpt>
      <trkpt lat="48.75171" lon="-3.44434">
        <ele>93</ele>
        <time>2015-01-25T10:23:16Z</time>
      </trkpt>
      <trkpt lat="48.75165" lon="-3.44443">
        <ele>93</ele>
        <time>2015-01-25T10:23:17Z</time>
      </trkpt>
      <trkpt lat="48.7516" lon="-3.44452">
        <ele>93</ele>
        <time>2015-01-25T10:23:18Z</time>
      </trkpt>
      <trkpt lat="48.75155" lon="-3.44461">
        <ele>92</ele>
        <time>2015-01-25T10:23:19Z</time>
      </trkpt>
      <trkpt lat="48.7515" lon="-3.44469">
        <ele>92</ele>
        <time>2015-01-25T10:23:20Z</time>
      </trkpt>
      <trkpt lat="48.75145" lon="-3.44478">
        <ele>92</ele>
        <time>2015-01-25T10:23:21Z</time>
      </trkpt>
      <trkpt lat="48.7514" lon="-3.44487">
        <ele>92</ele>
        <time>2015-01-25T10:23:22Z</time>
      </trkpt>
      <trkpt lat="48.75136" lon="-3.44496">
        <ele>91</ele>
        <time>2015-01-25T10:23:23Z</time>
      </trkpt>
      <trkpt lat="48.75132" lon="-3.44506">
        <ele>91</ele>
        <time>2015-01-25T10:23:24Z</time>
      </trkpt>
      <trkpt lat="48.75128" lon="-3.44515">
        <ele>91</ele>
        <time>2015-01-25T10:23:25Z</time>
      </trkpt>
      <trkpt lat="48.75124" lon="-3.44525">
        <ele>91</ele>
        <time>2015-01-25T10:23:26Z</time>
      </trkpt>
      <trkpt lat="48.75121" lon="-3.44534">
        <ele>91</ele>
        <time>2015-01-25T10:23:27Z</time>
      </trkpt>
      <trkpt lat="48.75118" lon="-3.44543">
        <ele>91</ele>
        <time>2015-01-25T10:23:28Z</time>
      </trkpt>
      <trkpt lat="48.75114" lon="-3.44552">
        <ele>91</ele>
        <time>2015-01-25T10:23:29Z</time>
      </trkpt>
      <trkpt lat="48.75112" lon="-3.44562">
        <ele>90</ele>
        <time>2015-01-25T10:23:30Z</time>
      </trkpt>
      <trkpt lat="48.75112" lon="-3.44573">
        <ele>90</ele>
        <time>2015-01-25T10:23:31Z</time>
      </trkpt>
      <trkpt lat="48.75113" lon="-3.44584">
        <ele>90</ele>
        <time>2015-01-25T10:23:32Z</time>
      </trkpt>
      <trkpt lat="48.75115" lon="-3.44595">
        <ele>90</ele>
        <time>2015-01-25T10:23:33Z</time>
      </trkpt>
      <trkpt lat="48.75117" lon="-3.44606">
        <ele>90</ele>
        <time>2015-01-25T10:23:34Z</time>
      </trkpt>
      <trkpt lat="48.75118" lon="-3.44617">
        <ele>90</ele>
        <time>2015-01-25T10:23:35Z</time>
      </trkpt>
      <trkpt lat="48.75119" lon="-3.44628">
        <ele>90</ele>
        <time>2015-01-25T10:23:36Z</time>
      </trkpt>
      <trkpt lat="48.7512" lon="-3.4464">
        <ele>90</ele>
        <time>2015-01-25T10:23:37Z</time>
      </trkpt>
      <trkpt lat="48.75119" lon="-3.44677">
        <ele>90</ele>
        <time>2015-01-25T10:23:40Z</time>
      </trkpt>
      <trkpt lat="48.75119" lon="-3.4469">
        <ele>90</ele>
        <time>2015-01-25T10:23:41Z</time>
      </trkpt>
      <trkpt lat="48.75119" lon="-3.44702">
        <ele>90</ele>
        <time>2015-01-25T10:23:42Z</time>
      </trkpt>
      <trkpt lat="48.75118" lon="-3.44715">
        <ele>90</ele>
        <time>2015-01-25T10:23:43Z</time>
      </trkpt>
      <trkpt lat="48.75118" lon="-3.44728">
        <ele>90</ele>
        <time>2015-01-25T10:23:44Z</time>
      </trkpt>
      <trkpt lat="48.75117" lon="-3.4474">
        <ele>90</ele>
        <time>2015-01-25T10:23:45Z</time>
      </trkpt>
      <trkpt lat="48.75117" lon="-3.44753">
        <ele>90</ele>
        <time>2015-01-25T10:23:46Z</time>
      </trkpt>
      <trkpt lat="48.75116" lon="-3.44765">
        <ele>90</ele>
        <time>2015-01-25T10:23:47Z</time>
      </trkpt>
      <trkpt lat="48.75116" lon="-3.44777">
        <ele>90</ele>
        <time>2015-01-25T10:23:48Z</time>
      </trkpt>
      <trkpt lat="48.75116" lon="-3.44789">
        <ele>90</ele>
        <time>2015-01-25T10:23:49Z</time>
      </trkpt>
      <trkpt lat="48.75116" lon="-3.44812">
        <ele>89</ele>
        <time>2015-01-25T10:23:51Z</time>
      </trkpt>
      <trkpt lat="48.75117" lon="-3.44834">
        <ele>89</ele>
        <time>2015-01-25T10:23:53Z</time>
      </trkpt>
      <trkpt lat="48.75118" lon="-3.44845">
        <ele>89</ele>
        <time>2015-01-25T10:23:54Z</time>
      </trkpt>
      <trkpt lat="48.75121" lon="-3.44856">
        <ele>89</ele>
        <time>2015-01-25T10:23:55Z</time>
      </trkpt>
      <trkpt lat="48.75125" lon="-3.44865">
        <ele>89</ele>
        <time>2015-01-25T10:23:56Z</time>
      </trkpt>
      <trkpt lat="48.75129" lon="-3.44874">
        <ele>88</ele>
        <time>2015-01-25T10:23:57Z</time>
      </trkpt>
      <trkpt lat="48.75134" lon="-3.44882">
        <ele>88</ele>
        <time>2015-01-25T10:23:58Z</time>
      </trkpt>
      <trkpt lat="48.75138" lon="-3.4489">
        <ele>88</ele>
        <time>2015-01-25T10:23:59Z</time>
      </trkpt>
      <trkpt lat="48.75142" lon="-3.449">
        <ele>88</ele>
        <time>2015-01-25T10:24:00Z</time>
      </trkpt>
      <trkpt lat="48.75143" lon="-3.4491">
        <ele>88</ele>
        <time>2015-01-25T10:24:01Z</time>
      </trkpt>
      <trkpt lat="48.75142" lon="-3.4492">
        <ele>87</ele>
        <time>2015-01-25T10:24:02Z</time>
      </trkpt>
      <trkpt lat="48.75139" lon="-3.4493">
        <ele>87</ele>
        <time>2015-01-25T10:24:03Z</time>
      </trkpt>
      <trkpt lat="48.75133" lon="-3.44937">
        <ele>87</ele>
        <time>2015-01-25T10:24:04Z</time>
      </trkpt>
      <trkpt lat="48.75126" lon="-3.44941">
        <ele>87</ele>
        <time>2015-01-25T10:24:05Z</time>
      </trkpt>
      <trkpt lat="48.75119" lon="-3.44942">
        <ele>86</ele>
        <time>2015-01-25T10:24:06Z</time>
      </trkpt>
      <trkpt lat="48.75111" lon="-3.4494">
        <ele>86</ele>
        <time>2015-01-25T10:24:07Z</time>
      </trkpt>
      <trkpt lat="48.75103" lon="-3.44935">
        <ele>86</ele>
        <time>2015-01-25T10:24:08Z</time>
      </trkpt>
      <trkpt lat="48.75095" lon="-3.4493">
        <ele>86</ele>
        <time>2015-01-25T10:24:09Z</time>
      </trkpt>
      <trkpt lat="48.75087" lon="-3.44925">
        <ele>86</ele>
        <time>2015-01-25T10:24:10Z</time>
      </trkpt>
      <trkpt lat="48.75078" lon="-3.44921">
        <ele>85</ele>
        <time>2015-01-25T10:24:11Z</time>
      </trkpt>
      <trkpt lat="48.75069" lon="-3.44919">
        <ele>85</ele>
        <time>2015-01-25T10:24:12Z</time>
      </trkpt>
      <trkpt lat="48.7506" lon="-3.44918">
        <ele>85</ele>
        <time>2015-01-25T10:24:13Z</time>
      </trkpt>
      <trkpt lat="48.7505" lon="-3.44917">
        <ele>85</ele>
        <time>2015-01-25T10:24:14Z</time>
      </trkpt>
      <trkpt lat="48.75041" lon="-3.44916">
        <ele>85</ele>
        <time>2015-01-25T10:24:15Z</time>
      </trkpt>
      <trkpt lat="48.75032" lon="-3.44915">
        <ele>85</ele>
        <time>2015-01-25T10:24:16Z</time>
      </trkpt>
      <trkpt lat="48.75023" lon="-3.44913">
        <ele>85</ele>
        <time>2015-01-25T10:24:17Z</time>
      </trkpt>
      <trkpt lat="48.75013" lon="-3.44911">
        <ele>85</ele>
        <time>2015-01-25T10:24:18Z</time>
      </trkpt>
      <trkpt lat="48.75003" lon="-3.44909">
        <ele>84</ele>
        <time>2015-01-25T10:24:19Z</time>
      </trkpt>
      <trkpt lat="48.74994" lon="-3.44906">
        <ele>84</ele>
        <time>2015-01-25T10:24:20Z</time>
      </trkpt>
      <trkpt lat="48.74984" lon="-3.44903">
        <ele>84</ele>
        <time>2015-01-25T10:24:21Z</time>
      </trkpt>
      <trkpt lat="48.74974" lon="-3.449">
        <ele>84</ele>
        <time>2015-01-25T10:24:22Z</time>
      </trkpt>
      <trkpt lat="48.74964" lon="-3.44896">
        <ele>83</ele>
        <time>2015-01-25T10:24:23Z</time>
      </trkpt>
      <trkpt lat="48.74954" lon="-3.44891">
        <ele>83</ele>
        <time>2015-01-25T10:24:24Z</time>
      </trkpt>
      <trkpt lat="48.74944" lon="-3.44886">
        <ele>83</ele>
        <time>2015-01-25T10:24:25Z</time>
      </trkpt>
      <trkpt lat="48.74934" lon="-3.44881">
        <ele>82</ele>
        <time>2015-01-25T10:24:26Z</time>
      </trkpt>
      <trkpt lat="48.74924" lon="-3.44876">
        <ele>82</ele>
        <time>2015-01-25T10:24:27Z</time>
      </trkpt>
      <trkpt lat="48.74913" lon="-3.4487">
        <ele>81</ele>
        <time>2015-01-25T10:24:28Z</time>
      </trkpt>
      <trkpt lat="48.74903" lon="-3.44863">
        <ele>81</ele>
        <time>2015-01-25T10:24:29Z</time>
      </trkpt>
      <trkpt lat="48.74893" lon="-3.44856">
        <ele>80</ele>
        <time>2015-01-25T10:24:30Z</time>
      </trkpt>
      <trkpt lat="48.74883" lon="-3.44849">
        <ele>80</ele>
        <time>2015-01-25T10:24:31Z</time>
      </trkpt>
      <trkpt lat="48.74873" lon="-3.44842">
        <ele>79</ele>
        <time>2015-01-25T10:24:32Z</time>
      </trkpt>
      <trkpt lat="48.74862" lon="-3.44834">
        <ele>78</ele>
        <time>2015-01-25T10:24:33Z</time>
      </trkpt>
      <trkpt lat="48.74852" lon="-3.44826">
        <ele>78</ele>
        <time>2015-01-25T10:24:34Z</time>
      </trkpt>
      <trkpt lat="48.74842" lon="-3.44818">
        <ele>77</ele>
        <time>2015-01-25T10:24:35Z</time>
      </trkpt>
      <trkpt lat="48.74831" lon="-3.44809">
        <ele>77</ele>
        <time>2015-01-25T10:24:36Z</time>
      </trkpt>
      <trkpt lat="48.74821" lon="-3.44801">
        <ele>76</ele>
        <time>2015-01-25T10:24:37Z</time>
      </trkpt>
      <trkpt lat="48.7481" lon="-3.44792">
        <ele>75</ele>
        <time>2015-01-25T10:24:38Z</time>
      </trkpt>
      <trkpt lat="48.748" lon="-3.44784">
        <ele>75</ele>
        <time>2015-01-25T10:24:39Z</time>
      </trkpt>
      <trkpt lat="48.74789" lon="-3.44775">
        <ele>74</ele>
        <time>2015-01-25T10:24:40Z</time>
      </trkpt>
      <trkpt lat="48.74778" lon="-3.44766">
        <ele>74</ele>
        <time>2015-01-25T10:24:41Z</time>
      </trkpt>
      <trkpt lat="48.74767" lon="-3.44758">
        <ele>73</ele>
        <time>2015-01-25T10:24:42Z</time>
      </trkpt>
      <trkpt lat="48.74755" lon="-3.44749">
        <ele>73</ele>
        <time>2015-01-25T10:24:43Z</time>
      </trkpt>
      <trkpt lat="48.74744" lon="-3.4474">
        <ele>72</ele>
        <time>2015-01-25T10:24:44Z</time>
      </trkpt>
      <trkpt lat="48.74733" lon="-3.44731">
        <ele>71</ele>
        <time>2015-01-25T10:24:45Z</time>
      </trkpt>
      <trkpt lat="48.74721" lon="-3.44722">
        <ele>71</ele>
        <time>2015-01-25T10:24:46Z</time>
      </trkpt>
      <trkpt lat="48.7471" lon="-3.44713">
        <ele>70</ele>
        <time>2015-01-25T10:24:47Z</time>
      </trkpt>
      <trkpt lat="48.74698" lon="-3.44704">
        <ele>70</ele>
        <time>2015-01-25T10:24:48Z</time>
      </trkpt>
      <trkpt lat="48.74687" lon="-3.44695">
        <ele>69</ele>
        <time>2015-01-25T10:24:49Z</time>
      </trkpt>
      <trkpt lat="48.74675" lon="-3.44686">
        <ele>68</ele>
        <time>2015-01-25T10:24:50Z</time>
      </trkpt>
      <trkpt lat="48.74663" lon="-3.44676">
        <ele>68</ele>
        <time>2015-01-25T10:24:51Z</time>
      </trkpt>
      <trkpt lat="48.74652" lon="-3.44668">
        <ele>67</ele>
        <time>2015-01-25T10:24:52Z</time>
      </trkpt>
      <trkpt lat="48.7464" lon="-3.44658">
        <ele>66</ele>
        <time>2015-01-25T10:24:53Z</time>
      </trkpt>
      <trkpt lat="48.74628" lon="-3.44649">
        <ele>66</ele>
        <time>2015-01-25T10:24:54Z</time>
      </trkpt>
      <trkpt lat="48.74617" lon="-3.4464">
        <ele>65</ele>
        <time>2015-01-25T10:24:55Z</time>
      </trkpt>
      <trkpt lat="48.74605" lon="-3.44631">
        <ele>65</ele>
        <time>2015-01-25T10:24:56Z</time>
      </trkpt>
      <trkpt lat="48.74593" lon="-3.44621">
        <ele>64</ele>
        <time>2015-01-25T10:24:57Z</time>
      </trkpt>
      <trkpt lat="48.74582" lon="-3.44612">
        <ele>63</ele>
        <time>2015-01-25T10:24:58Z</time>
      </trkpt>
      <trkpt lat="48.7457" lon="-3.44603">
        <ele>62</ele>
        <time>2015-01-25T10:24:59Z</time>
      </trkpt>
      <trkpt lat="48.74558" lon="-3.44594">
        <ele>62</ele>
        <time>2015-01-25T10:25:00Z</time>
      </trkpt>
      <trkpt lat="48.74546" lon="-3.44585">
        <ele>61</ele>
        <time>2015-01-25T10:25:01Z</time>
      </trkpt>
      <trkpt lat="48.74535" lon="-3.44575">
        <ele>60</ele>
        <time>2015-01-25T10:25:02Z</time>
      </trkpt>
      <trkpt lat="48.74523" lon="-3.44566">
        <ele>60</ele>
        <time>2015-01-25T10:25:03Z</time>
      </trkpt>
      <trkpt lat="48.74511" lon="-3.44557">
        <ele>59</ele>
        <time>2015-01-25T10:25:04Z</time>
      </trkpt>
      <trkpt lat="48.74499" lon="-3.44547">
        <ele>58</ele>
        <time>2015-01-25T10:25:05Z</time>
      </trkpt>
      <trkpt lat="48.74487" lon="-3.44538">
        <ele>58</ele>
        <time>2015-01-25T10:25:06Z</time>
      </trkpt>
      <trkpt lat="48.74475" lon="-3.44528">
        <ele>57</ele>
        <time>2015-01-25T10:25:07Z</time>
      </trkpt>
      <trkpt lat="48.74463" lon="-3.44517">
        <ele>57</ele>
        <time>2015-01-25T10:25:08Z</time>
      </trkpt>
      <trkpt lat="48.74452" lon="-3.44506">
        <ele>56</ele>
        <time>2015-01-25T10:25:09Z</time>
      </trkpt>
      <trkpt lat="48.7444" lon="-3.44495">
        <ele>55</ele>
        <time>2015-01-25T10:25:10Z</time>
      </trkpt>
      <trkpt lat="48.74429" lon="-3.44483">
        <ele>55</ele>
        <time>2015-01-25T10:25:11Z</time>
      </trkpt>
      <trkpt lat="48.74418" lon="-3.44472">
        <ele>54</ele>
        <time>2015-01-25T10:25:12Z</time>
      </trkpt>
      <trkpt lat="48.74407" lon="-3.4446">
        <ele>53</ele>
        <time>2015-01-25T10:25:13Z</time>
      </trkpt>
      <trkpt lat="48.74396" lon="-3.44448">
        <ele>53</ele>
        <time>2015-01-25T10:25:14Z</time>
      </trkpt>
      <trkpt lat="48.74385" lon="-3.44437">
        <ele>52</ele>
        <time>2015-01-25T10:25:15Z</time>
      </trkpt>
      <trkpt lat="48.74374" lon="-3.44425">
        <ele>51</ele>
        <time>2015-01-25T10:25:16Z</time>
      </trkpt>
      <trkpt lat="48.74363" lon="-3.44413">
        <ele>51</ele>
        <time>2015-01-25T10:25:17Z</time>
      </trkpt>
      <trkpt lat="48.74353" lon="-3.44401">
        <ele>50</ele>
        <time>2015-01-25T10:25:18Z</time>
      </trkpt>
      <trkpt lat="48.74342" lon="-3.44389">
        <ele>49</ele>
        <time>2015-01-25T10:25:19Z</time>
      </trkpt>
      <trkpt lat="48.74332" lon="-3.44377">
        <ele>48</ele>
        <time>2015-01-25T10:25:20Z</time>
      </trkpt>
      <trkpt lat="48.74321" lon="-3.44366">
        <ele>48</ele>
        <time>2015-01-25T10:25:21Z</time>
      </trkpt>
      <trkpt lat="48.7431" lon="-3.44354">
        <ele>47</ele>
        <time>2015-01-25T10:25:22Z</time>
      </trkpt>
      <trkpt lat="48.743" lon="-3.44342">
        <ele>46</ele>
        <time>2015-01-25T10:25:23Z</time>
      </trkpt>
      <trkpt lat="48.74289" lon="-3.4433">
        <ele>46</ele>
        <time>2015-01-25T10:25:24Z</time>
      </trkpt>
      <trkpt lat="48.74279" lon="-3.44319">
        <ele>45</ele>
        <time>2015-01-25T10:25:25Z</time>
      </trkpt>
      <trkpt lat="48.74268" lon="-3.44307">
        <ele>44</ele>
        <time>2015-01-25T10:25:26Z</time>
      </trkpt>
      <trkpt lat="48.74257" lon="-3.44296">
        <ele>44</ele>
        <time>2015-01-25T10:25:27Z</time>
      </trkpt>
      <trkpt lat="48.74247" lon="-3.44284">
        <ele>44</ele>
        <time>2015-01-25T10:25:28Z</time>
      </trkpt>
      <trkpt lat="48.74236" lon="-3.44272">
        <ele>43</ele>
        <time>2015-01-25T10:25:29Z</time>
      </trkpt>
      <trkpt lat="48.74226" lon="-3.44261">
        <ele>43</ele>
        <time>2015-01-25T10:25:30Z</time>
      </trkpt>
      <trkpt lat="48.74215" lon="-3.4425">
        <ele>43</ele>
        <time>2015-01-25T10:25:31Z</time>
      </trkpt>
      <trkpt lat="48.74205" lon="-3.44238">
        <ele>43</ele>
        <time>2015-01-25T10:25:32Z</time>
      </trkpt>
      <trkpt lat="48.74194" lon="-3.44227">
        <ele>42</ele>
        <time>2015-01-25T10:25:33Z</time>
      </trkpt>
      <trkpt lat="48.74184" lon="-3.44215">
        <ele>42</ele>
        <time>2015-01-25T10:25:34Z</time>
      </trkpt>
      <trkpt lat="48.74174" lon="-3.44204">
        <ele>42</ele>
        <time>2015-01-25T10:25:35Z</time>
      </trkpt>
      <trkpt lat="48.74164" lon="-3.44193">
        <ele>42</ele>
        <time>2015-01-25T10:25:36Z</time>
      </trkpt>
      <trkpt lat="48.74154" lon="-3.44182">
        <ele>41</ele>
        <time>2015-01-25T10:25:37Z</time>
      </trkpt>
      <trkpt lat="48.74144" lon="-3.44171">
        <ele>41</ele>
        <time>2015-01-25T10:25:38Z</time>
      </trkpt>
      <trkpt lat="48.74135" lon="-3.44161">
        <ele>41</ele>
        <time>2015-01-25T10:25:39Z</time>
      </trkpt>
      <trkpt lat="48.74125" lon="-3.4415">
        <ele>41</ele>
        <time>2015-01-25T10:25:40Z</time>
      </trkpt>
      <trkpt lat="48.74115" lon="-3.4414">
        <ele>41</ele>
        <time>2015-01-25T10:25:41Z</time>
      </trkpt>
      <trkpt lat="48.74106" lon="-3.4413">
        <ele>41</ele>
        <time>2015-01-25T10:25:42Z</time>
      </trkpt>
      <trkpt lat="48.74096" lon="-3.4412">
        <ele>40</ele>
        <time>2015-01-25T10:25:43Z</time>
      </trkpt>
      <trkpt lat="48.74086" lon="-3.44111">
        <ele>40</ele>
        <time>2015-01-25T10:25:44Z</time>
      </trkpt>
      <trkpt lat="48.74077" lon="-3.44102">
        <ele>40</ele>
        <time>2015-01-25T10:25:45Z</time>
      </trkpt>
      <trkpt lat="48.74067" lon="-3.44092">
        <ele>40</ele>
        <time>2015-01-25T10:25:46Z</time>
      </trkpt>
      <trkpt lat="48.74057" lon="-3.44083">
        <ele>40</ele>
        <time>2015-01-25T10:25:47Z</time>
      </trkpt>
      <trkpt lat="48.74048" lon="-3.44075">
        <ele>40</ele>
        <time>2015-01-25T10:25:48Z</time>
      </trkpt>
      <trkpt lat="48.74038" lon="-3.44066">
        <ele>40</ele>
        <time>2015-01-25T10:25:49Z</time>
      </trkpt>
      <trkpt lat="48.74028" lon="-3.44057">
        <ele>40</ele>
        <time>2015-01-25T10:25:50Z</time>
      </trkpt>
      <trkpt lat="48.74019" lon="-3.4405">
        <ele>40</ele>
        <time>2015-01-25T10:25:51Z</time>
      </trkpt>
      <trkpt lat="48.74009" lon="-3.44041">
        <ele>40</ele>
        <time>2015-01-25T10:25:52Z</time>
      </trkpt>
      <trkpt lat="48.74" lon="-3.44034">
        <ele>40</ele>
        <time>2015-01-25T10:25:53Z</time>
      </trkpt>
      <trkpt lat="48.7399" lon="-3.44026">
        <ele>40</ele>
        <time>2015-01-25T10:25:54Z</time>
      </trkpt>
      <trkpt lat="48.7398" lon="-3.44018">
        <ele>40</ele>
        <time>2015-01-25T10:25:55Z</time>
      </trkpt>
      <trkpt lat="48.73971" lon="-3.4401">
        <ele>40</ele>
        <time>2015-01-25T10:25:56Z</time>
      </trkpt>
      <trkpt lat="48.73961" lon="-3.44003">
        <ele>40</ele>
        <time>2015-01-25T10:25:57Z</time>
      </trkpt>
      <trkpt lat="48.73951" lon="-3.43995">
        <ele>40</ele>
        <time>2015-01-25T10:25:58Z</time>
      </trkpt>
      <trkpt lat="48.73941" lon="-3.43988">
        <ele>40</ele>
        <time>2015-01-25T10:25:59Z</time>
      </trkpt>
      <trkpt lat="48.7393" lon="-3.4398">
        <ele>40</ele>
        <time>2015-01-25T10:26:00Z</time>
      </trkpt>
      <trkpt lat="48.7392" lon="-3.43973">
        <ele>40</ele>
        <time>2015-01-25T10:26:01Z</time>
      </trkpt>
      <trkpt lat="48.7391" lon="-3.43966">
        <ele>40</ele>
        <time>2015-01-25T10:26:02Z</time>
      </trkpt>
      <trkpt lat="48.739" lon="-3.43959">
        <ele>40</ele>
        <time>2015-01-25T10:26:03Z</time>
      </trkpt>
      <trkpt lat="48.7389" lon="-3.43953">
        <ele>39</ele>
        <time>2015-01-25T10:26:04Z</time>
      </trkpt>
      <trkpt lat="48.7388" lon="-3.43946">
        <ele>39</ele>
        <time>2015-01-25T10:26:05Z</time>
      </trkpt>
      <trkpt lat="48.73869" lon="-3.43939">
        <ele>39</ele>
        <time>2015-01-25T10:26:06Z</time>
      </trkpt>
      <trkpt lat="48.73859" lon="-3.43933">
        <ele>39</ele>
        <time>2015-01-25T10:26:07Z</time>
      </trkpt>
      <trkpt lat="48.73849" lon="-3.43926">
        <ele>39</ele>
        <time>2015-01-25T10:26:08Z</time>
      </trkpt>
      <trkpt lat="48.73839" lon="-3.43919">
        <ele>39</ele>
        <time>2015-01-25T10:26:09Z</time>
      </trkpt>
      <trkpt lat="48.73829" lon="-3.43913">
        <ele>39</ele>
        <time>2015-01-25T10:26:10Z</time>
      </trkpt>
      <trkpt lat="48.73819" lon="-3.43906">
        <ele>38</ele>
        <time>2015-01-25T10:26:11Z</time>
      </trkpt>
      <trkpt lat="48.73809" lon="-3.43899">
        <ele>38</ele>
        <time>2015-01-25T10:26:12Z</time>
      </trkpt>
      <trkpt lat="48.73798" lon="-3.43893">
        <ele>38</ele>
        <time>2015-01-25T10:26:13Z</time>
      </trkpt>
      <trkpt lat="48.73788" lon="-3.43886">
        <ele>38</ele>
        <time>2015-01-25T10:26:14Z</time>
      </trkpt>
      <trkpt lat="48.73779" lon="-3.4388">
        <ele>38</ele>
        <time>2015-01-25T10:26:15Z</time>
      </trkpt>
      <trkpt lat="48.73769" lon="-3.43874">
        <ele>38</ele>
        <time>2015-01-25T10:26:16Z</time>
      </trkpt>
      <trkpt lat="48.73759" lon="-3.43867">
        <ele>38</ele>
        <time>2015-01-25T10:26:17Z</time>
      </trkpt>
      <trkpt lat="48.7375" lon="-3.43861">
        <ele>38</ele>
        <time>2015-01-25T10:26:18Z</time>
      </trkpt>
      <trkpt lat="48.73741" lon="-3.43855">
        <ele>38</ele>
        <time>2015-01-25T10:26:19Z</time>
      </trkpt>
      <trkpt lat="48.73732" lon="-3.43849">
        <ele>38</ele>
        <time>2015-01-25T10:26:20Z</time>
      </trkpt>
      <trkpt lat="48.73722" lon="-3.43843">
        <ele>38</ele>
        <time>2015-01-25T10:26:21Z</time>
      </trkpt>
      <trkpt lat="48.73714" lon="-3.43837">
        <ele>38</ele>
        <time>2015-01-25T10:26:22Z</time>
      </trkpt>
      <trkpt lat="48.73705" lon="-3.43831">
        <ele>38</ele>
        <time>2015-01-25T10:26:23Z</time>
      </trkpt>
      <trkpt lat="48.73697" lon="-3.43826">
        <ele>38</ele>
        <time>2015-01-25T10:26:24Z</time>
      </trkpt>
      <trkpt lat="48.73688" lon="-3.4382">
        <ele>38</ele>
        <time>2015-01-25T10:26:25Z</time>
      </trkpt>
      <trkpt lat="48.7368" lon="-3.43815">
        <ele>38</ele>
        <time>2015-01-25T10:26:26Z</time>
      </trkpt>
      <trkpt lat="48.73672" lon="-3.4381">
        <ele>38</ele>
        <time>2015-01-25T10:26:27Z</time>
      </trkpt>
      <trkpt lat="48.73664" lon="-3.43805">
        <ele>38</ele>
        <time>2015-01-25T10:26:28Z</time>
      </trkpt>
      <trkpt lat="48.73656" lon="-3.438">
        <ele>38</ele>
        <time>2015-01-25T10:26:29Z</time>
      </trkpt>
      <trkpt lat="48.73649" lon="-3.43795">
        <ele>38</ele>
        <time>2015-01-25T10:26:30Z</time>
      </trkpt>
      <trkpt lat="48.73642" lon="-3.4379">
        <ele>38</ele>
        <time>2015-01-25T10:26:31Z</time>
      </trkpt>
      <trkpt lat="48.73634" lon="-3.43785">
        <ele>38</ele>
        <time>2015-01-25T10:26:32Z</time>
      </trkpt>
      <trkpt lat="48.73627" lon="-3.4378">
        <ele>38</ele>
        <time>2015-01-25T10:26:33Z</time>
      </trkpt>
      <trkpt lat="48.73621" lon="-3.43776">
        <ele>38</ele>
        <time>2015-01-25T10:26:34Z</time>
      </trkpt>
      <trkpt lat="48.73614" lon="-3.43771">
        <ele>38</ele>
        <time>2015-01-25T10:26:35Z</time>
      </trkpt>
      <trkpt lat="48.73607" lon="-3.43767">
        <ele>38</ele>
        <time>2015-01-25T10:26:36Z</time>
      </trkpt>
      <trkpt lat="48.73601" lon="-3.43762">
        <ele>38</ele>
        <time>2015-01-25T10:26:37Z</time>
      </trkpt>
      <trkpt lat="48.73595" lon="-3.43758">
        <ele>38</ele>
        <time>2015-01-25T10:26:38Z</time>
      </trkpt>
      <trkpt lat="48.73589" lon="-3.43754">
        <ele>38</ele>
        <time>2015-01-25T10:26:39Z</time>
      </trkpt>
      <trkpt lat="48.73582" lon="-3.4375">
        <ele>38</ele>
        <time>2015-01-25T10:26:40Z</time>
      </trkpt>
      <trkpt lat="48.73577" lon="-3.43746">
        <ele>38</ele>
        <time>2015-01-25T10:26:41Z</time>
      </trkpt>
      <trkpt lat="48.73571" lon="-3.43742">
        <ele>38</ele>
        <time>2015-01-25T10:26:42Z</time>
      </trkpt>
      <trkpt lat="48.73566" lon="-3.43739">
        <ele>38</ele>
        <time>2015-01-25T10:26:43Z</time>
      </trkpt>
      <trkpt lat="48.7356" lon="-3.43735">
        <ele>38</ele>
        <time>2015-01-25T10:26:44Z</time>
      </trkpt>
      <trkpt lat="48.73555" lon="-3.43731">
        <ele>38</ele>
        <time>2015-01-25T10:26:45Z</time>
      </trkpt>
      <trkpt lat="48.7355" lon="-3.43728">
        <ele>38</ele>
        <time>2015-01-25T10:26:46Z</time>
      </trkpt>
      <trkpt lat="48.73544" lon="-3.43726">
        <ele>38</ele>
        <time>2015-01-25T10:26:47Z</time>
      </trkpt>
      <trkpt lat="48.73532" lon="-3.43726">
        <ele>39</ele>
        <time>2015-01-25T10:26:49Z</time>
      </trkpt>
      <trkpt lat="48.73527" lon="-3.43727">
        <ele>39</ele>
        <time>2015-01-25T10:26:50Z</time>
      </trkpt>
      <trkpt lat="48.73521" lon="-3.43727">
        <ele>39</ele>
        <time>2015-01-25T10:26:51Z</time>
      </trkpt>
      <trkpt lat="48.73516" lon="-3.43726">
        <ele>40</ele>
        <time>2015-01-25T10:26:52Z</time>
      </trkpt>
      <trkpt lat="48.7351" lon="-3.43724">
        <ele>40</ele>
        <time>2015-01-25T10:26:53Z</time>
      </trkpt>
      <trkpt lat="48.73506" lon="-3.4372">
        <ele>40</ele>
        <time>2015-01-25T10:26:54Z</time>
      </trkpt>
      <trkpt lat="48.73502" lon="-3.43715">
        <ele>40</ele>
        <time>2015-01-25T10:26:55Z</time>
      </trkpt>
      <trkpt lat="48.73499" lon="-3.43708">
        <ele>41</ele>
        <time>2015-01-25T10:26:56Z</time>
      </trkpt>
      <trkpt lat="48.73497" lon="-3.43701">
        <ele>41</ele>
        <time>2015-01-25T10:26:57Z</time>
      </trkpt>
      <trkpt lat="48.73495" lon="-3.43692">
        <ele>41</ele>
        <time>2015-01-25T10:26:58Z</time>
      </trkpt>
      <trkpt lat="48.73497" lon="-3.43676">
        <ele>42</ele>
        <time>2015-01-25T10:27:00Z</time>
      </trkpt>
      <trkpt lat="48.73499" lon="-3.43668">
        <ele>42</ele>
        <time>2015-01-25T10:27:01Z</time>
      </trkpt>
      <trkpt lat="48.73502" lon="-3.4366">
        <ele>42</ele>
        <time>2015-01-25T10:27:02Z</time>
      </trkpt>
      <trkpt lat="48.73503" lon="-3.43651">
        <ele>42</ele>
        <time>2015-01-25T10:27:03Z</time>
      </trkpt>
      <trkpt lat="48.73503" lon="-3.43642">
        <ele>42</ele>
        <time>2015-01-25T10:27:04Z</time>
      </trkpt>
      <trkpt lat="48.73501" lon="-3.43634">
        <ele>42</ele>
        <time>2015-01-25T10:27:05Z</time>
      </trkpt>
      <trkpt lat="48.73497" lon="-3.43628">
        <ele>42</ele>
        <time>2015-01-25T10:27:06Z</time>
      </trkpt>
      <trkpt lat="48.73492" lon="-3.43624">
        <ele>42</ele>
        <time>2015-01-25T10:27:07Z</time>
      </trkpt>
      <trkpt lat="48.73487" lon="-3.43622">
        <ele>42</ele>
        <time>2015-01-25T10:27:08Z</time>
      </trkpt>
      <trkpt lat="48.73481" lon="-3.43622">
        <ele>43</ele>
        <time>2015-01-25T10:27:09Z</time>
      </trkpt>
      <trkpt lat="48.73476" lon="-3.43621">
        <ele>43</ele>
        <time>2015-01-25T10:27:10Z</time>
      </trkpt>
      <trkpt lat="48.73471" lon="-3.43619">
        <ele>43</ele>
        <time>2015-01-25T10:27:11Z</time>
      </trkpt>
      <trkpt lat="48.73465" lon="-3.43616">
        <ele>43</ele>
        <time>2015-01-25T10:27:12Z</time>
      </trkpt>
      <trkpt lat="48.73461" lon="-3.43612">
        <ele>43</ele>
        <time>2015-01-25T10:27:13Z</time>
      </trkpt>
      <trkpt lat="48.73456" lon="-3.43607">
        <ele>43</ele>
        <time>2015-01-25T10:27:14Z</time>
      </trkpt>
      <trkpt lat="48.73452" lon="-3.43602">
        <ele>44</ele>
        <time>2015-01-25T10:27:15Z</time>
      </trkpt>
      <trkpt lat="48.73448" lon="-3.43597">
        <ele>44</ele>
        <time>2015-01-25T10:27:16Z</time>
      </trkpt>
      <trkpt lat="48.73444" lon="-3.43592">
        <ele>44</ele>
        <time>2015-01-25T10:27:17Z</time>
      </trkpt>
      <trkpt lat="48.73441" lon="-3.43587">
        <ele>44</ele>
        <time>2015-01-25T10:27:18Z</time>
      </trkpt>
      <trkpt lat="48.73438" lon="-3.43582">
        <ele>44</ele>
        <time>2015-01-25T10:27:19Z</time>
      </trkpt>
      <trkpt lat="48.73434" lon="-3.43576">
        <ele>44</ele>
        <time>2015-01-25T10:27:20Z</time>
      </trkpt>
      <trkpt lat="48.73431" lon="-3.4357">
        <ele>45</ele>
        <time>2015-01-25T10:27:21Z</time>
      </trkpt>
      <trkpt lat="48.73428" lon="-3.43564">
        <ele>45</ele>
        <time>2015-01-25T10:27:22Z</time>
      </trkpt>
      <trkpt lat="48.73426" lon="-3.43558">
        <ele>45</ele>
        <time>2015-01-25T10:27:23Z</time>
      </trkpt>
      <trkpt lat="48.73423" lon="-3.43551">
        <ele>45</ele>
        <time>2015-01-25T10:27:24Z</time>
      </trkpt>
      <trkpt lat="48.73421" lon="-3.43544">
        <ele>45</ele>
        <time>2015-01-25T10:27:25Z</time>
      </trkpt>
      <trkpt lat="48.73419" lon="-3.43537">
        <ele>45</ele>
        <time>2015-01-25T10:27:26Z</time>
      </trkpt>
      <trkpt lat="48.73418" lon="-3.43529">
        <ele>45</ele>
        <time>2015-01-25T10:27:27Z</time>
      </trkpt>
      <trkpt lat="48.73416" lon="-3.43522">
        <ele>45</ele>
        <time>2015-01-25T10:27:28Z</time>
      </trkpt>
      <trkpt lat="48.73415" lon="-3.43513">
        <ele>46</ele>
        <time>2015-01-25T10:27:29Z</time>
      </trkpt>
      <trkpt lat="48.73414" lon="-3.43506">
        <ele>46</ele>
        <time>2015-01-25T10:27:30Z</time>
      </trkpt>
      <trkpt lat="48.73413" lon="-3.43497">
        <ele>46</ele>
        <time>2015-01-25T10:27:31Z</time>
      </trkpt>
      <trkpt lat="48.73412" lon="-3.43489">
        <ele>46</ele>
        <time>2015-01-25T10:27:32Z</time>
      </trkpt>
      <trkpt lat="48.73411" lon="-3.43481">
        <ele>46</ele>
        <time>2015-01-25T10:27:33Z</time>
      </trkpt>
      <trkpt lat="48.7341" lon="-3.43473">
        <ele>46</ele>
        <time>2015-01-25T10:27:34Z</time>
      </trkpt>
      <trkpt lat="48.7341" lon="-3.43464">
        <ele>46</ele>
        <time>2015-01-25T10:27:35Z</time>
      </trkpt>
      <trkpt lat="48.73409" lon="-3.43457">
        <ele>46</ele>
        <time>2015-01-25T10:27:36Z</time>
      </trkpt>
      <trkpt lat="48.73407" lon="-3.43448">
        <ele>46</ele>
        <time>2015-01-25T10:27:37Z</time>
      </trkpt>
      <trkpt lat="48.73407" lon="-3.4344">
        <ele>46</ele>
        <time>2015-01-25T10:27:38Z</time>
      </trkpt>
      <trkpt lat="48.73406" lon="-3.43432">
        <ele>47</ele>
        <time>2015-01-25T10:27:39Z</time>
      </trkpt>
      <trkpt lat="48.73405" lon="-3.43424">
        <ele>47</ele>
        <time>2015-01-25T10:27:40Z</time>
      </trkpt>
      <trkpt lat="48.73404" lon="-3.43416">
        <ele>47</ele>
        <time>2015-01-25T10:27:41Z</time>
      </trkpt>
      <trkpt lat="48.73404" lon="-3.43408">
        <ele>47</ele>
        <time>2015-01-25T10:27:42Z</time>
      </trkpt>
      <trkpt lat="48.73404" lon="-3.434">
        <ele>48</ele>
        <time>2015-01-25T10:27:43Z</time>
      </trkpt>
      <trkpt lat="48.73403" lon="-3.43392">
        <ele>48</ele>
        <time>2015-01-25T10:27:44Z</time>
      </trkpt>
      <trkpt lat="48.73402" lon="-3.43384">
        <ele>48</ele>
        <time>2015-01-25T10:27:45Z</time>
      </trkpt>
      <trkpt lat="48.73402" lon="-3.43376">
        <ele>48</ele>
        <time>2015-01-25T10:27:46Z</time>
      </trkpt>
      <trkpt lat="48.73401" lon="-3.43368">
        <ele>48</ele>
        <time>2015-01-25T10:27:47Z</time>
      </trkpt>
      <trkpt lat="48.734" lon="-3.43361">
        <ele>49</ele>
        <time>2015-01-25T10:27:48Z</time>
      </trkpt>
      <trkpt lat="48.73399" lon="-3.43353">
        <ele>49</ele>
        <time>2015-01-25T10:27:49Z</time>
      </trkpt>
      <trkpt lat="48.73398" lon="-3.43346">
        <ele>49</ele>
        <time>2015-01-25T10:27:50Z</time>
      </trkpt>
      <trkpt lat="48.73397" lon="-3.43338">
        <ele>49</ele>
        <time>2015-01-25T10:27:51Z</time>
      </trkpt>
      <trkpt lat="48.73396" lon="-3.43331">
        <ele>49</ele>
        <time>2015-01-25T10:27:52Z</time>
      </trkpt>
      <trkpt lat="48.73394" lon="-3.43325">
        <ele>50</ele>
        <time>2015-01-25T10:27:53Z</time>
      </trkpt>
      <trkpt lat="48.73392" lon="-3.43318">
        <ele>50</ele>
        <time>2015-01-25T10:27:54Z</time>
      </trkpt>
      <trkpt lat="48.7339" lon="-3.43312">
        <ele>50</ele>
        <time>2015-01-25T10:27:55Z</time>
      </trkpt>
      <trkpt lat="48.73389" lon="-3.43305">
        <ele>50</ele>
        <time>2015-01-25T10:27:56Z</time>
      </trkpt>
      <trkpt lat="48.7339" lon="-3.43293">
        <ele>51</ele>
        <time>2015-01-25T10:27:58Z</time>
      </trkpt>
      <trkpt lat="48.7339" lon="-3.43286">
        <ele>51</ele>
        <time>2015-01-25T10:27:59Z</time>
      </trkpt>
      <trkpt lat="48.7339" lon="-3.43279">
        <ele>51</ele>
        <time>2015-01-25T10:28:00Z</time>
      </trkpt>
      <trkpt lat="48.73389" lon="-3.43272">
        <ele>51</ele>
        <time>2015-01-25T10:28:01Z</time>
      </trkpt>
      <trkpt lat="48.73388" lon="-3.43265">
        <ele>51</ele>
        <time>2015-01-25T10:28:02Z</time>
      </trkpt>
      <trkpt lat="48.73388" lon="-3.43258">
        <ele>52</ele>
        <time>2015-01-25T10:28:03Z</time>
      </trkpt>
      <trkpt lat="48.73387" lon="-3.4325">
        <ele>52</ele>
        <time>2015-01-25T10:28:04Z</time>
      </trkpt>
      <trkpt lat="48.73386" lon="-3.43243">
        <ele>52</ele>
        <time>2015-01-25T10:28:05Z</time>
      </trkpt>
      <trkpt lat="48.73386" lon="-3.43235">
        <ele>52</ele>
        <time>2015-01-25T10:28:06Z</time>
      </trkpt>
      <trkpt lat="48.73385" lon="-3.43228">
        <ele>52</ele>
        <time>2015-01-25T10:28:07Z</time>
      </trkpt>
      <trkpt lat="48.73385" lon="-3.43219">
        <ele>52</ele>
        <time>2015-01-25T10:28:08Z</time>
      </trkpt>
      <trkpt lat="48.73384" lon="-3.43204">
        <ele>53</ele>
        <time>2015-01-25T10:28:10Z</time>
      </trkpt>
      <trkpt lat="48.73384" lon="-3.43196">
        <ele>53</ele>
        <time>2015-01-25T10:28:11Z</time>
      </trkpt>
      <trkpt lat="48.73384" lon="-3.4318">
        <ele>54</ele>
        <time>2015-01-25T10:28:13Z</time>
      </trkpt>
      <trkpt lat="48.73384" lon="-3.43147">
        <ele>55</ele>
        <time>2015-01-25T10:28:17Z</time>
      </trkpt>
      <trkpt lat="48.73384" lon="-3.43131">
        <ele>55</ele>
        <time>2015-01-25T10:28:19Z</time>
      </trkpt>
      <trkpt lat="48.73385" lon="-3.43123">
        <ele>55</ele>
        <time>2015-01-25T10:28:20Z</time>
      </trkpt>
      <trkpt lat="48.73385" lon="-3.43107">
        <ele>55</ele>
        <time>2015-01-25T10:28:22Z</time>
      </trkpt>
      <trkpt lat="48.73386" lon="-3.43098">
        <ele>56</ele>
        <time>2015-01-25T10:28:23Z</time>
      </trkpt>
      <trkpt lat="48.73386" lon="-3.4309">
        <ele>56</ele>
        <time>2015-01-25T10:28:24Z</time>
      </trkpt>
      <trkpt lat="48.73386" lon="-3.43081">
        <ele>56</ele>
        <time>2015-01-25T10:28:25Z</time>
      </trkpt>
      <trkpt lat="48.73387" lon="-3.43072">
        <ele>56</ele>
        <time>2015-01-25T10:28:26Z</time>
      </trkpt>
      <trkpt lat="48.73388" lon="-3.43064">
        <ele>56</ele>
        <time>2015-01-25T10:28:27Z</time>
      </trkpt>
      <trkpt lat="48.73388" lon="-3.43055">
        <ele>57</ele>
        <time>2015-01-25T10:28:28Z</time>
      </trkpt>
      <trkpt lat="48.73389" lon="-3.43046">
        <ele>57</ele>
        <time>2015-01-25T10:28:29Z</time>
      </trkpt>
      <trkpt lat="48.73388" lon="-3.43018">
        <ele>57</ele>
        <time>2015-01-25T10:28:32Z</time>
      </trkpt>
      <trkpt lat="48.73388" lon="-3.43008">
        <ele>57</ele>
        <time>2015-01-25T10:28:33Z</time>
      </trkpt>
      <trkpt lat="48.73387" lon="-3.42999">
        <ele>57</ele>
        <time>2015-01-25T10:28:34Z</time>
      </trkpt>
      <trkpt lat="48.73386" lon="-3.42989">
        <ele>57</ele>
        <time>2015-01-25T10:28:35Z</time>
      </trkpt>
      <trkpt lat="48.73385" lon="-3.42979">
        <ele>57</ele>
        <time>2015-01-25T10:28:36Z</time>
      </trkpt>
      <trkpt lat="48.73384" lon="-3.42969">
        <ele>57</ele>
        <time>2015-01-25T10:28:37Z</time>
      </trkpt>
      <trkpt lat="48.73382" lon="-3.42959">
        <ele>57</ele>
        <time>2015-01-25T10:28:38Z</time>
      </trkpt>
      <trkpt lat="48.73381" lon="-3.42949">
        <ele>57</ele>
        <time>2015-01-25T10:28:39Z</time>
      </trkpt>
      <trkpt lat="48.73379" lon="-3.42939">
        <ele>57</ele>
        <time>2015-01-25T10:28:40Z</time>
      </trkpt>
      <trkpt lat="48.73378" lon="-3.42929">
        <ele>57</ele>
        <time>2015-01-25T10:28:41Z</time>
      </trkpt>
      <trkpt lat="48.73376" lon="-3.42919">
        <ele>57</ele>
        <time>2015-01-25T10:28:42Z</time>
      </trkpt>
      <trkpt lat="48.73374" lon="-3.42909">
        <ele>58</ele>
        <time>2015-01-25T10:28:43Z</time>
      </trkpt>
      <trkpt lat="48.73372" lon="-3.42899">
        <ele>58</ele>
        <time>2015-01-25T10:28:44Z</time>
      </trkpt>
      <trkpt lat="48.73371" lon="-3.42888">
        <ele>58</ele>
        <time>2015-01-25T10:28:45Z</time>
      </trkpt>
      <trkpt lat="48.73369" lon="-3.42877">
        <ele>58</ele>
        <time>2015-01-25T10:28:46Z</time>
      </trkpt>
      <trkpt lat="48.73367" lon="-3.42866">
        <ele>58</ele>
        <time>2015-01-25T10:28:47Z</time>
      </trkpt>
      <trkpt lat="48.73366" lon="-3.42854">
        <ele>58</ele>
        <time>2015-01-25T10:28:48Z</time>
      </trkpt>
      <trkpt lat="48.73365" lon="-3.42842">
        <ele>58</ele>
        <time>2015-01-25T10:28:49Z</time>
      </trkpt>
      <trkpt lat="48.73364" lon="-3.4283">
        <ele>58</ele>
        <time>2015-01-25T10:28:50Z</time>
      </trkpt>
      <trkpt lat="48.73363" lon="-3.42817">
        <ele>58</ele>
        <time>2015-01-25T10:28:51Z</time>
      </trkpt>
      <trkpt lat="48.73362" lon="-3.42804">
        <ele>58</ele>
        <time>2015-01-25T10:28:52Z</time>
      </trkpt>
      <trkpt lat="48.73362" lon="-3.42791">
        <ele>58</ele>
        <time>2015-01-25T10:28:53Z</time>
      </trkpt>
      <trkpt lat="48.73361" lon="-3.42778">
        <ele>58</ele>
        <time>2015-01-25T10:28:54Z</time>
      </trkpt>
      <trkpt lat="48.7336" lon="-3.42765">
        <ele>58</ele>
        <time>2015-01-25T10:28:55Z</time>
      </trkpt>
      <trkpt lat="48.7336" lon="-3.42752">
        <ele>58</ele>
        <time>2015-01-25T10:28:56Z</time>
      </trkpt>
      <trkpt lat="48.73359" lon="-3.42738">
        <ele>58</ele>
        <time>2015-01-25T10:28:57Z</time>
      </trkpt>
      <trkpt lat="48.73359" lon="-3.42725">
        <ele>58</ele>
        <time>2015-01-25T10:28:58Z</time>
      </trkpt>
      <trkpt lat="48.73358" lon="-3.42712">
        <ele>58</ele>
        <time>2015-01-25T10:28:59Z</time>
      </trkpt>
      <trkpt lat="48.73357" lon="-3.42699">
        <ele>58</ele>
        <time>2015-01-25T10:29:00Z</time>
      </trkpt>
      <trkpt lat="48.73356" lon="-3.42686">
        <ele>58</ele>
        <time>2015-01-25T10:29:01Z</time>
      </trkpt>
      <trkpt lat="48.73356" lon="-3.42672">
        <ele>58</ele>
        <time>2015-01-25T10:29:02Z</time>
      </trkpt>
      <trkpt lat="48.73355" lon="-3.4266">
        <ele>58</ele>
        <time>2015-01-25T10:29:03Z</time>
      </trkpt>
      <trkpt lat="48.73353" lon="-3.42647">
        <ele>58</ele>
        <time>2015-01-25T10:29:04Z</time>
      </trkpt>
      <trkpt lat="48.73352" lon="-3.42635">
        <ele>58</ele>
        <time>2015-01-25T10:29:05Z</time>
      </trkpt>
      <trkpt lat="48.7335" lon="-3.42622">
        <ele>58</ele>
        <time>2015-01-25T10:29:06Z</time>
      </trkpt>
      <trkpt lat="48.73348" lon="-3.42611">
        <ele>58</ele>
        <time>2015-01-25T10:29:07Z</time>
      </trkpt>
      <trkpt lat="48.73346" lon="-3.42599">
        <ele>58</ele>
        <time>2015-01-25T10:29:08Z</time>
      </trkpt>
      <trkpt lat="48.73344" lon="-3.42587">
        <ele>58</ele>
        <time>2015-01-25T10:29:09Z</time>
      </trkpt>
      <trkpt lat="48.73343" lon="-3.42576">
        <ele>58</ele>
        <time>2015-01-25T10:29:10Z</time>
      </trkpt>
      <trkpt lat="48.73342" lon="-3.42564">
        <ele>58</ele>
        <time>2015-01-25T10:29:11Z</time>
      </trkpt>
      <trkpt lat="48.73341" lon="-3.42553">
        <ele>58</ele>
        <time>2015-01-25T10:29:12Z</time>
      </trkpt>
      <trkpt lat="48.7334" lon="-3.42541">
        <ele>58</ele>
        <time>2015-01-25T10:29:13Z</time>
      </trkpt>
      <trkpt lat="48.73339" lon="-3.4253">
        <ele>58</ele>
        <time>2015-01-25T10:29:14Z</time>
      </trkpt>
      <trkpt lat="48.73338" lon="-3.42519">
        <ele>58</ele>
        <time>2015-01-25T10:29:15Z</time>
      </trkpt>
      <trkpt lat="48.73338" lon="-3.42484">
        <ele>58</ele>
        <time>2015-01-25T10:29:18Z</time>
      </trkpt>
      <trkpt lat="48.73338" lon="-3.42462">
        <ele>58</ele>
        <time>2015-01-25T10:29:20Z</time>
      </trkpt>
      <trkpt lat="48.73339" lon="-3.42418">
        <ele>58</ele>
        <time>2015-01-25T10:29:24Z</time>
      </trkpt>
      <trkpt lat="48.73339" lon="-3.42407">
        <ele>59</ele>
        <time>2015-01-25T10:29:25Z</time>
      </trkpt>
      <trkpt lat="48.73339" lon="-3.42385">
        <ele>59</ele>
        <time>2015-01-25T10:29:27Z</time>
      </trkpt>
      <trkpt lat="48.7334" lon="-3.42373">
        <ele>59</ele>
        <time>2015-01-25T10:29:28Z</time>
      </trkpt>
      <trkpt lat="48.73339" lon="-3.42317">
        <ele>59</ele>
        <time>2015-01-25T10:29:33Z</time>
      </trkpt>
      <trkpt lat="48.73339" lon="-3.42294">
        <ele>59</ele>
        <time>2015-01-25T10:29:35Z</time>
      </trkpt>
      <trkpt lat="48.73339" lon="-3.42283">
        <ele>59</ele>
        <time>2015-01-25T10:29:36Z</time>
      </trkpt>
      <trkpt lat="48.73338" lon="-3.42271">
        <ele>59</ele>
        <time>2015-01-25T10:29:37Z</time>
      </trkpt>
      <trkpt lat="48.73338" lon="-3.42259">
        <ele>59</ele>
        <time>2015-01-25T10:29:38Z</time>
      </trkpt>
      <trkpt lat="48.73337" lon="-3.42247">
        <ele>59</ele>
        <time>2015-01-25T10:29:39Z</time>
      </trkpt>
      <trkpt lat="48.73337" lon="-3.42235">
        <ele>59</ele>
        <time>2015-01-25T10:29:40Z</time>
      </trkpt>
      <trkpt lat="48.73336" lon="-3.42223">
        <ele>59</ele>
        <time>2015-01-25T10:29:41Z</time>
      </trkpt>
      <trkpt lat="48.73337" lon="-3.42198">
        <ele>59</ele>
        <time>2015-01-25T10:29:43Z</time>
      </trkpt>
      <trkpt lat="48.73338" lon="-3.42186">
        <ele>59</ele>
        <time>2015-01-25T10:29:44Z</time>
      </trkpt>
      <trkpt lat="48.73339" lon="-3.42174">
        <ele>59</ele>
        <time>2015-01-25T10:29:45Z</time>
      </trkpt>
      <trkpt lat="48.73342" lon="-3.42161">
        <ele>59</ele>
        <time>2015-01-25T10:29:46Z</time>
      </trkpt>
      <trkpt lat="48.73344" lon="-3.42149">
        <ele>59</ele>
        <time>2015-01-25T10:29:47Z</time>
      </trkpt>
      <trkpt lat="48.73347" lon="-3.42136">
        <ele>59</ele>
        <time>2015-01-25T10:29:48Z</time>
      </trkpt>
      <trkpt lat="48.7335" lon="-3.42124">
        <ele>59</ele>
        <time>2015-01-25T10:29:49Z</time>
      </trkpt>
      <trkpt lat="48.73353" lon="-3.42111">
        <ele>59</ele>
        <time>2015-01-25T10:29:50Z</time>
      </trkpt>
      <trkpt lat="48.73355" lon="-3.42098">
        <ele>59</ele>
        <time>2015-01-25T10:29:51Z</time>
      </trkpt>
      <trkpt lat="48.73357" lon="-3.42084">
        <ele>59</ele>
        <time>2015-01-25T10:29:52Z</time>
      </trkpt>
      <trkpt lat="48.73359" lon="-3.4207">
        <ele>59</ele>
        <time>2015-01-25T10:29:53Z</time>
      </trkpt>
      <trkpt lat="48.73359" lon="-3.42056">
        <ele>59</ele>
        <time>2015-01-25T10:29:54Z</time>
      </trkpt>
      <trkpt lat="48.73359" lon="-3.42042">
        <ele>59</ele>
        <time>2015-01-25T10:29:55Z</time>
      </trkpt>
      <trkpt lat="48.73357" lon="-3.42027">
        <ele>59</ele>
        <time>2015-01-25T10:29:56Z</time>
      </trkpt>
      <trkpt lat="48.73354" lon="-3.42013">
        <ele>59</ele>
        <time>2015-01-25T10:29:57Z</time>
      </trkpt>
      <trkpt lat="48.7335" lon="-3.42001">
        <ele>59</ele>
        <time>2015-01-25T10:29:58Z</time>
      </trkpt>
      <trkpt lat="48.73345" lon="-3.41989">
        <ele>59</ele>
        <time>2015-01-25T10:29:59Z</time>
      </trkpt>
      <trkpt lat="48.73339" lon="-3.4198">
        <ele>59</ele>
        <time>2015-01-25T10:30:00Z</time>
      </trkpt>
      <trkpt lat="48.73333" lon="-3.41973">
        <ele>59</ele>
        <time>2015-01-25T10:30:01Z</time>
      </trkpt>
      <trkpt lat="48.73326" lon="-3.41967">
        <ele>59</ele>
        <time>2015-01-25T10:30:02Z</time>
      </trkpt>
      <trkpt lat="48.7332" lon="-3.41961">
        <ele>59</ele>
        <time>2015-01-25T10:30:03Z</time>
      </trkpt>
      <trkpt lat="48.73315" lon="-3.41955">
        <ele>59</ele>
        <time>2015-01-25T10:30:04Z</time>
      </trkpt>
      <trkpt lat="48.73309" lon="-3.41949">
        <ele>59</ele>
        <time>2015-01-25T10:30:05Z</time>
      </trkpt>
      <trkpt lat="48.73304" lon="-3.41943">
        <ele>59</ele>
        <time>2015-01-25T10:30:06Z</time>
      </trkpt>
      <trkpt lat="48.73299" lon="-3.41937">
        <ele>59</ele>
        <time>2015-01-25T10:30:07Z</time>
      </trkpt>
      <trkpt lat="48.73294" lon="-3.41931">
        <ele>59</ele>
        <time>2015-01-25T10:30:08Z</time>
      </trkpt>
      <trkpt lat="48.73289" lon="-3.41926">
        <ele>59</ele>
        <time>2015-01-25T10:30:09Z</time>
      </trkpt>
      <trkpt lat="48.73285" lon="-3.41919">
        <ele>59</ele>
        <time>2015-01-25T10:30:10Z</time>
      </trkpt>
      <trkpt lat="48.7328" lon="-3.41912">
        <ele>59</ele>
        <time>2015-01-25T10:30:11Z</time>
      </trkpt>
      <trkpt lat="48.73276" lon="-3.41905">
        <ele>59</ele>
        <time>2015-01-25T10:30:12Z</time>
      </trkpt>
      <trkpt lat="48.73273" lon="-3.41897">
        <ele>59</ele>
        <time>2015-01-25T10:30:13Z</time>
      </trkpt>
      <trkpt lat="48.73269" lon="-3.41889">
        <ele>59</ele>
        <time>2015-01-25T10:30:14Z</time>
      </trkpt>
      <trkpt lat="48.73266" lon="-3.41881">
        <ele>59</ele>
        <time>2015-01-25T10:30:15Z</time>
      </trkpt>
      <trkpt lat="48.73262" lon="-3.41873">
        <ele>59</ele>
        <time>2015-01-25T10:30:16Z</time>
      </trkpt>
      <trkpt lat="48.73259" lon="-3.41865">
        <ele>59</ele>
        <time>2015-01-25T10:30:17Z</time>
      </trkpt>
      <trkpt lat="48.73256" lon="-3.41856">
        <ele>59</ele>
        <time>2015-01-25T10:30:18Z</time>
      </trkpt>
      <trkpt lat="48.73252" lon="-3.41847">
        <ele>59</ele>
        <time>2015-01-25T10:30:19Z</time>
      </trkpt>
      <trkpt lat="48.73249" lon="-3.41838">
        <ele>59</ele>
        <time>2015-01-25T10:30:20Z</time>
      </trkpt>
      <trkpt lat="48.73246" lon="-3.41829">
        <ele>59</ele>
        <time>2015-01-25T10:30:21Z</time>
      </trkpt>
      <trkpt lat="48.73244" lon="-3.41819">
        <ele>59</ele>
        <time>2015-01-25T10:30:22Z</time>
      </trkpt>
      <trkpt lat="48.73241" lon="-3.41808">
        <ele>59</ele>
        <time>2015-01-25T10:30:23Z</time>
      </trkpt>
      <trkpt lat="48.73239" lon="-3.41797">
        <ele>60</ele>
        <time>2015-01-25T10:30:24Z</time>
      </trkpt>
      <trkpt lat="48.73238" lon="-3.41786">
        <ele>60</ele>
        <time>2015-01-25T10:30:25Z</time>
      </trkpt>
      <trkpt lat="48.73236" lon="-3.41774">
        <ele>60</ele>
        <time>2015-01-25T10:30:26Z</time>
      </trkpt>
      <trkpt lat="48.73234" lon="-3.41764">
        <ele>60</ele>
        <time>2015-01-25T10:30:27Z</time>
      </trkpt>
      <trkpt lat="48.73233" lon="-3.41753">
        <ele>60</ele>
        <time>2015-01-25T10:30:28Z</time>
      </trkpt>
      <trkpt lat="48.73231" lon="-3.41742">
        <ele>60</ele>
        <time>2015-01-25T10:30:29Z</time>
      </trkpt>
      <trkpt lat="48.73229" lon="-3.41732">
        <ele>60</ele>
        <time>2015-01-25T10:30:30Z</time>
      </trkpt>
      <trkpt lat="48.73227" lon="-3.41722">
        <ele>61</ele>
        <time>2015-01-25T10:30:31Z</time>
      </trkpt>
      <trkpt lat="48.73225" lon="-3.41712">
        <ele>61</ele>
        <time>2015-01-25T10:30:32Z</time>
      </trkpt>
      <trkpt lat="48.73223" lon="-3.41703">
        <ele>61</ele>
        <time>2015-01-25T10:30:33Z</time>
      </trkpt>
      <trkpt lat="48.73221" lon="-3.41693">
        <ele>61</ele>
        <time>2015-01-25T10:30:34Z</time>
      </trkpt>
      <trkpt lat="48.7322" lon="-3.41683">
        <ele>61</ele>
        <time>2015-01-25T10:30:35Z</time>
      </trkpt>
      <trkpt lat="48.73217" lon="-3.41673">
        <ele>61</ele>
        <time>2015-01-25T10:30:36Z</time>
      </trkpt>
      <trkpt lat="48.73216" lon="-3.41663">
        <ele>61</ele>
        <time>2015-01-25T10:30:37Z</time>
      </trkpt>
      <trkpt lat="48.73214" lon="-3.41653">
        <ele>62</ele>
        <time>2015-01-25T10:30:38Z</time>
      </trkpt>
      <trkpt lat="48.73212" lon="-3.41643">
        <ele>62</ele>
        <time>2015-01-25T10:30:39Z</time>
      </trkpt>
      <trkpt lat="48.73211" lon="-3.41633">
        <ele>62</ele>
        <time>2015-01-25T10:30:40Z</time>
      </trkpt>
      <trkpt lat="48.7321" lon="-3.41622">
        <ele>62</ele>
        <time>2015-01-25T10:30:41Z</time>
      </trkpt>
      <trkpt lat="48.73209" lon="-3.41611">
        <ele>62</ele>
        <time>2015-01-25T10:30:42Z</time>
      </trkpt>
      <trkpt lat="48.73208" lon="-3.416">
        <ele>62</ele>
        <time>2015-01-25T10:30:43Z</time>
      </trkpt>
      <trkpt lat="48.73208" lon="-3.4159">
        <ele>63</ele>
        <time>2015-01-25T10:30:44Z</time>
      </trkpt>
      <trkpt lat="48.73207" lon="-3.41569">
        <ele>63</ele>
        <time>2015-01-25T10:30:46Z</time>
      </trkpt>
      <trkpt lat="48.73208" lon="-3.4156">
        <ele>63</ele>
        <time>2015-01-25T10:30:47Z</time>
      </trkpt>
      <trkpt lat="48.73208" lon="-3.41551">
        <ele>64</ele>
        <time>2015-01-25T10:30:48Z</time>
      </trkpt>
      <trkpt lat="48.73209" lon="-3.41543">
        <ele>64</ele>
        <time>2015-01-25T10:30:49Z</time>
      </trkpt>
      <trkpt lat="48.73209" lon="-3.41534">
        <ele>64</ele>
        <time>2015-01-25T10:30:50Z</time>
      </trkpt>
      <trkpt lat="48.7321" lon="-3.41526">
        <ele>65</ele>
        <time>2015-01-25T10:30:51Z</time>
      </trkpt>
      <trkpt lat="48.73211" lon="-3.41509">
        <ele>66</ele>
        <time>2015-01-25T10:30:53Z</time>
      </trkpt>
      <trkpt lat="48.73211" lon="-3.41499">
        <ele>66</ele>
        <time>2015-01-25T10:30:54Z</time>
      </trkpt>
      <trkpt lat="48.73211" lon="-3.4149">
        <ele>66</ele>
        <time>2015-01-25T10:30:55Z</time>
      </trkpt>
      <trkpt lat="48.73211" lon="-3.4147">
        <ele>67</ele>
        <time>2015-01-25T10:30:57Z</time>
      </trkpt>
      <trkpt lat="48.73212" lon="-3.41459">
        <ele>67</ele>
        <time>2015-01-25T10:30:58Z</time>
      </trkpt>
      <trkpt lat="48.73212" lon="-3.41448">
        <ele>67</ele>
        <time>2015-01-25T10:30:59Z</time>
      </trkpt>
      <trkpt lat="48.73213" lon="-3.41437">
        <ele>67</ele>
        <time>2015-01-25T10:31:00Z</time>
      </trkpt>
      <trkpt lat="48.73213" lon="-3.41425">
        <ele>68</ele>
        <time>2015-01-25T10:31:01Z</time>
      </trkpt>
      <trkpt lat="48.73214" lon="-3.41413">
        <ele>68</ele>
        <time>2015-01-25T10:31:02Z</time>
      </trkpt>
      <trkpt lat="48.73214" lon="-3.414">
        <ele>68</ele>
        <time>2015-01-25T10:31:03Z</time>
      </trkpt>
      <trkpt lat="48.73214" lon="-3.41322">
        <ele>68</ele>
        <time>2015-01-25T10:31:09Z</time>
      </trkpt>
      <trkpt lat="48.73213" lon="-3.41309">
        <ele>68</ele>
        <time>2015-01-25T10:31:10Z</time>
      </trkpt>
      <trkpt lat="48.73212" lon="-3.41297">
        <ele>68</ele>
        <time>2015-01-25T10:31:11Z</time>
      </trkpt>
      <trkpt lat="48.73211" lon="-3.41284">
        <ele>68</ele>
        <time>2015-01-25T10:31:12Z</time>
      </trkpt>
      <trkpt lat="48.7321" lon="-3.41271">
        <ele>68</ele>
        <time>2015-01-25T10:31:13Z</time>
      </trkpt>
      <trkpt lat="48.73209" lon="-3.41259">
        <ele>68</ele>
        <time>2015-01-25T10:31:14Z</time>
      </trkpt>
      <trkpt lat="48.73208" lon="-3.41247">
        <ele>68</ele>
        <time>2015-01-25T10:31:15Z</time>
      </trkpt>
      <trkpt lat="48.73207" lon="-3.41234">
        <ele>68</ele>
        <time>2015-01-25T10:31:16Z</time>
      </trkpt>
      <trkpt lat="48.73206" lon="-3.41223">
        <ele>68</ele>
        <time>2015-01-25T10:31:17Z</time>
      </trkpt>
      <trkpt lat="48.73205" lon="-3.41211">
        <ele>68</ele>
        <time>2015-01-25T10:31:18Z</time>
      </trkpt>
      <trkpt lat="48.73204" lon="-3.41199">
        <ele>68</ele>
        <time>2015-01-25T10:31:19Z</time>
      </trkpt>
      <trkpt lat="48.73203" lon="-3.41188">
        <ele>68</ele>
        <time>2015-01-25T10:31:20Z</time>
      </trkpt>
      <trkpt lat="48.73202" lon="-3.41176">
        <ele>68</ele>
        <time>2015-01-25T10:31:21Z</time>
      </trkpt>
      <trkpt lat="48.73201" lon="-3.41165">
        <ele>68</ele>
        <time>2015-01-25T10:31:22Z</time>
      </trkpt>
      <trkpt lat="48.73201" lon="-3.41154">
        <ele>68</ele>
        <time>2015-01-25T10:31:23Z</time>
      </trkpt>
      <trkpt lat="48.732" lon="-3.41143">
        <ele>68</ele>
        <time>2015-01-25T10:31:24Z</time>
      </trkpt>
      <trkpt lat="48.73199" lon="-3.41132">
        <ele>68</ele>
        <time>2015-01-25T10:31:25Z</time>
      </trkpt>
      <trkpt lat="48.73198" lon="-3.41121">
        <ele>69</ele>
        <time>2015-01-25T10:31:26Z</time>
      </trkpt>
      <trkpt lat="48.73196" lon="-3.4111">
        <ele>69</ele>
        <time>2015-01-25T10:31:27Z</time>
      </trkpt>
      <trkpt lat="48.73195" lon="-3.41099">
        <ele>69</ele>
        <time>2015-01-25T10:31:28Z</time>
      </trkpt>
      <trkpt lat="48.73193" lon="-3.41089">
        <ele>69</ele>
        <time>2015-01-25T10:31:29Z</time>
      </trkpt>
      <trkpt lat="48.73191" lon="-3.41078">
        <ele>69</ele>
        <time>2015-01-25T10:31:30Z</time>
      </trkpt>
      <trkpt lat="48.7319" lon="-3.41067">
        <ele>69</ele>
        <time>2015-01-25T10:31:31Z</time>
      </trkpt>
      <trkpt lat="48.73188" lon="-3.41056">
        <ele>69</ele>
        <time>2015-01-25T10:31:32Z</time>
      </trkpt>
      <trkpt lat="48.73186" lon="-3.41045">
        <ele>69</ele>
        <time>2015-01-25T10:31:33Z</time>
      </trkpt>
      <trkpt lat="48.73184" lon="-3.41035">
        <ele>69</ele>
        <time>2015-01-25T10:31:34Z</time>
      </trkpt>
      <trkpt lat="48.73182" lon="-3.41024">
        <ele>69</ele>
        <time>2015-01-25T10:31:35Z</time>
      </trkpt>
      <trkpt lat="48.7318" lon="-3.41013">
        <ele>69</ele>
        <time>2015-01-25T10:31:36Z</time>
      </trkpt>
      <trkpt lat="48.73178" lon="-3.41002">
        <ele>69</ele>
        <time>2015-01-25T10:31:37Z</time>
      </trkpt>
      <trkpt lat="48.73176" lon="-3.40991">
        <ele>69</ele>
        <time>2015-01-25T10:31:38Z</time>
      </trkpt>
      <trkpt lat="48.73174" lon="-3.40981">
        <ele>70</ele>
        <time>2015-01-25T10:31:39Z</time>
      </trkpt>
      <trkpt lat="48.73172" lon="-3.4097">
        <ele>70</ele>
        <time>2015-01-25T10:31:40Z</time>
      </trkpt>
      <trkpt lat="48.7317" lon="-3.40959">
        <ele>70</ele>
        <time>2015-01-25T10:31:41Z</time>
      </trkpt>
      <trkpt lat="48.73168" lon="-3.40949">
        <ele>70</ele>
        <time>2015-01-25T10:31:42Z</time>
      </trkpt>
      <trkpt lat="48.73166" lon="-3.40938">
        <ele>70</ele>
        <time>2015-01-25T10:31:43Z</time>
      </trkpt>
      <trkpt lat="48.73163" lon="-3.40928">
        <ele>70</ele>
        <time>2015-01-25T10:31:44Z</time>
      </trkpt>
      <trkpt lat="48.73161" lon="-3.40916">
        <ele>70</ele>
        <time>2015-01-25T10:31:45Z</time>
      </trkpt>
      <trkpt lat="48.73158" lon="-3.40905">
        <ele>70</ele>
        <time>2015-01-25T10:31:46Z</time>
      </trkpt>
      <trkpt lat="48.73156" lon="-3.40894">
        <ele>70</ele>
        <time>2015-01-25T10:31:47Z</time>
      </trkpt>
      <trkpt lat="48.73153" lon="-3.40883">
        <ele>70</ele>
        <time>2015-01-25T10:31:48Z</time>
      </trkpt>
      <trkpt lat="48.73151" lon="-3.40871">
        <ele>70</ele>
        <time>2015-01-25T10:31:49Z</time>
      </trkpt>
      <trkpt lat="48.73148" lon="-3.4086">
        <ele>70</ele>
        <time>2015-01-25T10:31:50Z</time>
      </trkpt>
      <trkpt lat="48.73145" lon="-3.40848">
        <ele>70</ele>
        <time>2015-01-25T10:31:51Z</time>
      </trkpt>
      <trkpt lat="48.73143" lon="-3.40837">
        <ele>70</ele>
        <time>2015-01-25T10:31:52Z</time>
      </trkpt>
      <trkpt lat="48.7314" lon="-3.40826">
        <ele>70</ele>
        <time>2015-01-25T10:31:53Z</time>
      </trkpt>
      <trkpt lat="48.73137" lon="-3.40814">
        <ele>70</ele>
        <time>2015-01-25T10:31:54Z</time>
      </trkpt>
      <trkpt lat="48.73135" lon="-3.40803">
        <ele>70</ele>
        <time>2015-01-25T10:31:55Z</time>
      </trkpt>
      <trkpt lat="48.73132" lon="-3.40792">
        <ele>70</ele>
        <time>2015-01-25T10:31:56Z</time>
      </trkpt>
      <trkpt lat="48.73129" lon="-3.4078">
        <ele>70</ele>
        <time>2015-01-25T10:31:57Z</time>
      </trkpt>
      <trkpt lat="48.73127" lon="-3.40769">
        <ele>70</ele>
        <time>2015-01-25T10:31:58Z</time>
      </trkpt>
      <trkpt lat="48.73124" lon="-3.40757">
        <ele>70</ele>
        <time>2015-01-25T10:31:59Z</time>
      </trkpt>
      <trkpt lat="48.73122" lon="-3.40746">
        <ele>70</ele>
        <time>2015-01-25T10:32:00Z</time>
      </trkpt>
      <trkpt lat="48.73119" lon="-3.40735">
        <ele>70</ele>
        <time>2015-01-25T10:32:01Z</time>
      </trkpt>
      <trkpt lat="48.73116" lon="-3.40724">
        <ele>70</ele>
        <time>2015-01-25T10:32:02Z</time>
      </trkpt>
      <trkpt lat="48.73113" lon="-3.40714">
        <ele>70</ele>
        <time>2015-01-25T10:32:03Z</time>
      </trkpt>
      <trkpt lat="48.7311" lon="-3.40703">
        <ele>70</ele>
        <time>2015-01-25T10:32:04Z</time>
      </trkpt>
      <trkpt lat="48.73107" lon="-3.40693">
        <ele>70</ele>
        <time>2015-01-25T10:32:05Z</time>
      </trkpt>
      <trkpt lat="48.73103" lon="-3.40684">
        <ele>70</ele>
        <time>2015-01-25T10:32:06Z</time>
      </trkpt>
      <trkpt lat="48.731" lon="-3.40675">
        <ele>70</ele>
        <time>2015-01-25T10:32:07Z</time>
      </trkpt>
      <trkpt lat="48.73095" lon="-3.40666">
        <ele>71</ele>
        <time>2015-01-25T10:32:08Z</time>
      </trkpt>
      <trkpt lat="48.73091" lon="-3.40658">
        <ele>71</ele>
        <time>2015-01-25T10:32:09Z</time>
      </trkpt>
      <trkpt lat="48.73087" lon="-3.40649">
        <ele>71</ele>
        <time>2015-01-25T10:32:10Z</time>
      </trkpt>
      <trkpt lat="48.73082" lon="-3.40641">
        <ele>71</ele>
        <time>2015-01-25T10:32:11Z</time>
      </trkpt>
      <trkpt lat="48.73077" lon="-3.40632">
        <ele>71</ele>
        <time>2015-01-25T10:32:12Z</time>
      </trkpt>
      <trkpt lat="48.73073" lon="-3.40623">
        <ele>72</ele>
        <time>2015-01-25T10:32:13Z</time>
      </trkpt>
      <trkpt lat="48.73069" lon="-3.40613">
        <ele>72</ele>
        <time>2015-01-25T10:32:14Z</time>
      </trkpt>
      <trkpt lat="48.73065" lon="-3.40603">
        <ele>72</ele>
        <time>2015-01-25T10:32:15Z</time>
      </trkpt>
      <trkpt lat="48.73062" lon="-3.40593">
        <ele>72</ele>
        <time>2015-01-25T10:32:16Z</time>
      </trkpt>
      <trkpt lat="48.73059" lon="-3.40582">
        <ele>72</ele>
        <time>2015-01-25T10:32:17Z</time>
      </trkpt>
      <trkpt lat="48.73057" lon="-3.40571">
        <ele>72</ele>
        <time>2015-01-25T10:32:18Z</time>
      </trkpt>
      <trkpt lat="48.73055" lon="-3.4056">
        <ele>73</ele>
        <time>2015-01-25T10:32:19Z</time>
      </trkpt>
      <trkpt lat="48.73054" lon="-3.40548">
        <ele>73</ele>
        <time>2015-01-25T10:32:20Z</time>
      </trkpt>
      <trkpt lat="48.73053" lon="-3.40537">
        <ele>73</ele>
        <time>2015-01-25T10:32:21Z</time>
      </trkpt>
      <trkpt lat="48.73052" lon="-3.40467">
        <ele>74</ele>
        <time>2015-01-25T10:32:27Z</time>
      </trkpt>
      <trkpt lat="48.73051" lon="-3.40456">
        <ele>74</ele>
        <time>2015-01-25T10:32:28Z</time>
      </trkpt>
      <trkpt lat="48.73049" lon="-3.40444">
        <ele>74</ele>
        <time>2015-01-25T10:32:29Z</time>
      </trkpt>
      <trkpt lat="48.73047" lon="-3.40433">
        <ele>74</ele>
        <time>2015-01-25T10:32:30Z</time>
      </trkpt>
      <trkpt lat="48.73044" lon="-3.40422">
        <ele>74</ele>
        <time>2015-01-25T10:32:31Z</time>
      </trkpt>
      <trkpt lat="48.73041" lon="-3.40411">
        <ele>74</ele>
        <time>2015-01-25T10:32:32Z</time>
      </trkpt>
      <trkpt lat="48.73038" lon="-3.40401">
        <ele>74</ele>
        <time>2015-01-25T10:32:33Z</time>
      </trkpt>
      <trkpt lat="48.73035" lon="-3.4039">
        <ele>74</ele>
        <time>2015-01-25T10:32:34Z</time>
      </trkpt>
      <trkpt lat="48.73031" lon="-3.40379">
        <ele>74</ele>
        <time>2015-01-25T10:32:35Z</time>
      </trkpt>
      <trkpt lat="48.73028" lon="-3.40369">
        <ele>74</ele>
        <time>2015-01-25T10:32:36Z</time>
      </trkpt>
      <trkpt lat="48.73025" lon="-3.40358">
        <ele>74</ele>
        <time>2015-01-25T10:32:37Z</time>
      </trkpt>
      <trkpt lat="48.73022" lon="-3.40347">
        <ele>74</ele>
        <time>2015-01-25T10:32:38Z</time>
      </trkpt>
      <trkpt lat="48.7302" lon="-3.40336">
        <ele>74</ele>
        <time>2015-01-25T10:32:39Z</time>
      </trkpt>
      <trkpt lat="48.73019" lon="-3.40324">
        <ele>74</ele>
        <time>2015-01-25T10:32:40Z</time>
      </trkpt>
      <trkpt lat="48.73017" lon="-3.40312">
        <ele>74</ele>
        <time>2015-01-25T10:32:41Z</time>
      </trkpt>
      <trkpt lat="48.73016" lon="-3.40299">
        <ele>74</ele>
        <time>2015-01-25T10:32:42Z</time>
      </trkpt>
      <trkpt lat="48.73015" lon="-3.40286">
        <ele>74</ele>
        <time>2015-01-25T10:32:43Z</time>
      </trkpt>
      <trkpt lat="48.73014" lon="-3.40273">
        <ele>74</ele>
        <time>2015-01-25T10:32:44Z</time>
      </trkpt>
      <trkpt lat="48.73013" lon="-3.4026">
        <ele>74</ele>
        <time>2015-01-25T10:32:45Z</time>
      </trkpt>
      <trkpt lat="48.73012" lon="-3.40247">
        <ele>74</ele>
        <time>2015-01-25T10:32:46Z</time>
      </trkpt>
      <trkpt lat="48.7301" lon="-3.40234">
        <ele>74</ele>
        <time>2015-01-25T10:32:47Z</time>
      </trkpt>
      <trkpt lat="48.73008" lon="-3.40223">
        <ele>74</ele>
        <time>2015-01-25T10:32:48Z</time>
      </trkpt>
      <trkpt lat="48.73005" lon="-3.40211">
        <ele>74</ele>
        <time>2015-01-25T10:32:49Z</time>
      </trkpt>
      <trkpt lat="48.73002" lon="-3.40199">
        <ele>74</ele>
        <time>2015-01-25T10:32:50Z</time>
      </trkpt>
      <trkpt lat="48.72998" lon="-3.40188">
        <ele>74</ele>
        <time>2015-01-25T10:32:51Z</time>
      </trkpt>
      <trkpt lat="48.72995" lon="-3.40176">
        <ele>74</ele>
        <time>2015-01-25T10:32:52Z</time>
      </trkpt>
      <trkpt lat="48.72992" lon="-3.40165">
        <ele>74</ele>
        <time>2015-01-25T10:32:53Z</time>
      </trkpt>
      <trkpt lat="48.72988" lon="-3.40153">
        <ele>74</ele>
        <time>2015-01-25T10:32:54Z</time>
      </trkpt>
      <trkpt lat="48.72985" lon="-3.40142">
        <ele>74</ele>
        <time>2015-01-25T10:32:55Z</time>
      </trkpt>
      <trkpt lat="48.72983" lon="-3.4013">
        <ele>74</ele>
        <time>2015-01-25T10:32:56Z</time>
      </trkpt>
      <trkpt lat="48.72982" lon="-3.40118">
        <ele>74</ele>
        <time>2015-01-25T10:32:57Z</time>
      </trkpt>
      <trkpt lat="48.7298" lon="-3.40106">
        <ele>75</ele>
        <time>2015-01-25T10:32:58Z</time>
      </trkpt>
      <trkpt lat="48.72979" lon="-3.40094">
        <ele>75</ele>
        <time>2015-01-25T10:32:59Z</time>
      </trkpt>
      <trkpt lat="48.72978" lon="-3.40082">
        <ele>75</ele>
        <time>2015-01-25T10:33:00Z</time>
      </trkpt>
      <trkpt lat="48.72977" lon="-3.40069">
        <ele>75</ele>
        <time>2015-01-25T10:33:01Z</time>
      </trkpt>
      <trkpt lat="48.72975" lon="-3.40057">
        <ele>75</ele>
        <time>2015-01-25T10:33:02Z</time>
      </trkpt>
      <trkpt lat="48.72974" lon="-3.40045">
        <ele>76</ele>
        <time>2015-01-25T10:33:03Z</time>
      </trkpt>
      <trkpt lat="48.72972" lon="-3.40033">
        <ele>76</ele>
        <time>2015-01-25T10:33:04Z</time>
      </trkpt>
      <trkpt lat="48.72969" lon="-3.40022">
        <ele>76</ele>
        <time>2015-01-25T10:33:05Z</time>
      </trkpt>
      <trkpt lat="48.72967" lon="-3.4001">
        <ele>76</ele>
        <time>2015-01-25T10:33:06Z</time>
      </trkpt>
      <trkpt lat="48.72964" lon="-3.39999">
        <ele>76</ele>
        <time>2015-01-25T10:33:07Z</time>
      </trkpt>
      <trkpt lat="48.72961" lon="-3.39988">
        <ele>77</ele>
        <time>2015-01-25T10:33:08Z</time>
      </trkpt>
      <trkpt lat="48.72958" lon="-3.39976">
        <ele>77</ele>
        <time>2015-01-25T10:33:09Z</time>
      </trkpt>
      <trkpt lat="48.72955" lon="-3.39965">
        <ele>77</ele>
        <time>2015-01-25T10:33:10Z</time>
      </trkpt>
      <trkpt lat="48.72951" lon="-3.39953">
        <ele>77</ele>
        <time>2015-01-25T10:33:11Z</time>
      </trkpt>
      <trkpt lat="48.72948" lon="-3.39941">
        <ele>77</ele>
        <time>2015-01-25T10:33:12Z</time>
      </trkpt>
      <trkpt lat="48.72944" lon="-3.3993">
        <ele>77</ele>
        <time>2015-01-25T10:33:13Z</time>
      </trkpt>
      <trkpt lat="48.7294" lon="-3.39919">
        <ele>77</ele>
        <time>2015-01-25T10:33:14Z</time>
      </trkpt>
      <trkpt lat="48.72937" lon="-3.39908">
        <ele>77</ele>
        <time>2015-01-25T10:33:15Z</time>
      </trkpt>
      <trkpt lat="48.72933" lon="-3.39896">
        <ele>77</ele>
        <time>2015-01-25T10:33:16Z</time>
      </trkpt>
      <trkpt lat="48.72929" lon="-3.39886">
        <ele>77</ele>
        <time>2015-01-25T10:33:17Z</time>
      </trkpt>
      <trkpt lat="48.72926" lon="-3.39875">
        <ele>77</ele>
        <time>2015-01-25T10:33:18Z</time>
      </trkpt>
      <trkpt lat="48.72921" lon="-3.39863">
        <ele>78</ele>
        <time>2015-01-25T10:33:19Z</time>
      </trkpt>
      <trkpt lat="48.72917" lon="-3.39853">
        <ele>78</ele>
        <time>2015-01-25T10:33:20Z</time>
      </trkpt>
      <trkpt lat="48.72913" lon="-3.39842">
        <ele>78</ele>
        <time>2015-01-25T10:33:21Z</time>
      </trkpt>
      <trkpt lat="48.72908" lon="-3.39832">
        <ele>78</ele>
        <time>2015-01-25T10:33:22Z</time>
      </trkpt>
      <trkpt lat="48.72903" lon="-3.39821">
        <ele>78</ele>
        <time>2015-01-25T10:33:23Z</time>
      </trkpt>
      <trkpt lat="48.72898" lon="-3.39811">
        <ele>78</ele>
        <time>2015-01-25T10:33:24Z</time>
      </trkpt>
      <trkpt lat="48.72893" lon="-3.39802">
        <ele>78</ele>
        <time>2015-01-25T10:33:25Z</time>
      </trkpt>
      <trkpt lat="48.72887" lon="-3.39792">
        <ele>78</ele>
        <time>2015-01-25T10:33:26Z</time>
      </trkpt>
      <trkpt lat="48.72882" lon="-3.39783">
        <ele>78</ele>
        <time>2015-01-25T10:33:27Z</time>
      </trkpt>
      <trkpt lat="48.72877" lon="-3.39773">
        <ele>78</ele>
        <time>2015-01-25T10:33:28Z</time>
      </trkpt>
      <trkpt lat="48.72871" lon="-3.39763">
        <ele>78</ele>
        <time>2015-01-25T10:33:29Z</time>
      </trkpt>
      <trkpt lat="48.72866" lon="-3.39754">
        <ele>78</ele>
        <time>2015-01-25T10:33:30Z</time>
      </trkpt>
      <trkpt lat="48.72861" lon="-3.39743">
        <ele>78</ele>
        <time>2015-01-25T10:33:31Z</time>
      </trkpt>
      <trkpt lat="48.72856" lon="-3.39733">
        <ele>78</ele>
        <time>2015-01-25T10:33:32Z</time>
      </trkpt>
      <trkpt lat="48.72852" lon="-3.39722">
        <ele>78</ele>
        <time>2015-01-25T10:33:33Z</time>
      </trkpt>
      <trkpt lat="48.72847" lon="-3.3971">
        <ele>78</ele>
        <time>2015-01-25T10:33:34Z</time>
      </trkpt>
      <trkpt lat="48.72844" lon="-3.39698">
        <ele>78</ele>
        <time>2015-01-25T10:33:35Z</time>
      </trkpt>
      <trkpt lat="48.7284" lon="-3.39686">
        <ele>78</ele>
        <time>2015-01-25T10:33:36Z</time>
      </trkpt>
      <trkpt lat="48.72837" lon="-3.39675">
        <ele>78</ele>
        <time>2015-01-25T10:33:37Z</time>
      </trkpt>
      <trkpt lat="48.72834" lon="-3.39664">
        <ele>79</ele>
        <time>2015-01-25T10:33:38Z</time>
      </trkpt>
      <trkpt lat="48.72832" lon="-3.39653">
        <ele>79</ele>
        <time>2015-01-25T10:33:39Z</time>
      </trkpt>
      <trkpt lat="48.7283" lon="-3.39642">
        <ele>79</ele>
        <time>2015-01-25T10:33:40Z</time>
      </trkpt>
      <trkpt lat="48.72829" lon="-3.39631">
        <ele>79</ele>
        <time>2015-01-25T10:33:41Z</time>
      </trkpt>
      <trkpt lat="48.72827" lon="-3.39621">
        <ele>79</ele>
        <time>2015-01-25T10:33:42Z</time>
      </trkpt>
      <trkpt lat="48.72826" lon="-3.39611">
        <ele>79</ele>
        <time>2015-01-25T10:33:43Z</time>
      </trkpt>
      <trkpt lat="48.72826" lon="-3.39601">
        <ele>79</ele>
        <time>2015-01-25T10:33:44Z</time>
      </trkpt>
      <trkpt lat="48.72825" lon="-3.39591">
        <ele>79</ele>
        <time>2015-01-25T10:33:45Z</time>
      </trkpt>
      <trkpt lat="48.72825" lon="-3.3953">
        <ele>79</ele>
        <time>2015-01-25T10:33:51Z</time>
      </trkpt>
      <trkpt lat="48.72826" lon="-3.39508">
        <ele>79</ele>
        <time>2015-01-25T10:33:53Z</time>
      </trkpt>
      <trkpt lat="48.72826" lon="-3.39497">
        <ele>79</ele>
        <time>2015-01-25T10:33:54Z</time>
      </trkpt>
      <trkpt lat="48.72828" lon="-3.39485">
        <ele>79</ele>
        <time>2015-01-25T10:33:55Z</time>
      </trkpt>
      <trkpt lat="48.72829" lon="-3.39474">
        <ele>79</ele>
        <time>2015-01-25T10:33:56Z</time>
      </trkpt>
      <trkpt lat="48.7283" lon="-3.39462">
        <ele>79</ele>
        <time>2015-01-25T10:33:57Z</time>
      </trkpt>
      <trkpt lat="48.72831" lon="-3.3945">
        <ele>79</ele>
        <time>2015-01-25T10:33:58Z</time>
      </trkpt>
      <trkpt lat="48.72832" lon="-3.39439">
        <ele>79</ele>
        <time>2015-01-25T10:33:59Z</time>
      </trkpt>
      <trkpt lat="48.72833" lon="-3.39427">
        <ele>79</ele>
        <time>2015-01-25T10:34:00Z</time>
      </trkpt>
      <trkpt lat="48.72834" lon="-3.39415">
        <ele>79</ele>
        <time>2015-01-25T10:34:01Z</time>
      </trkpt>
      <trkpt lat="48.72835" lon="-3.39403">
        <ele>79</ele>
        <time>2015-01-25T10:34:02Z</time>
      </trkpt>
      <trkpt lat="48.72836" lon="-3.39392">
        <ele>79</ele>
        <time>2015-01-25T10:34:03Z</time>
      </trkpt>
      <trkpt lat="48.72837" lon="-3.3938">
        <ele>79</ele>
        <time>2015-01-25T10:34:04Z</time>
      </trkpt>
      <trkpt lat="48.72837" lon="-3.39356">
        <ele>79</ele>
        <time>2015-01-25T10:34:06Z</time>
      </trkpt>
      <trkpt lat="48.72837" lon="-3.39308">
        <ele>79</ele>
        <time>2015-01-25T10:34:10Z</time>
      </trkpt>
      <trkpt lat="48.72836" lon="-3.39296">
        <ele>79</ele>
        <time>2015-01-25T10:34:11Z</time>
      </trkpt>
      <trkpt lat="48.72836" lon="-3.39284">
        <ele>79</ele>
        <time>2015-01-25T10:34:12Z</time>
      </trkpt>
      <trkpt lat="48.72836" lon="-3.39272">
        <ele>79</ele>
        <time>2015-01-25T10:34:13Z</time>
      </trkpt>
      <trkpt lat="48.72835" lon="-3.39248">
        <ele>79</ele>
        <time>2015-01-25T10:34:15Z</time>
      </trkpt>
      <trkpt lat="48.72836" lon="-3.39237">
        <ele>79</ele>
        <time>2015-01-25T10:34:16Z</time>
      </trkpt>
      <trkpt lat="48.72836" lon="-3.39225">
        <ele>79</ele>
        <time>2015-01-25T10:34:17Z</time>
      </trkpt>
      <trkpt lat="48.72837" lon="-3.39214">
        <ele>79</ele>
        <time>2015-01-25T10:34:18Z</time>
      </trkpt>
      <trkpt lat="48.72837" lon="-3.39202">
        <ele>79</ele>
        <time>2015-01-25T10:34:19Z</time>
      </trkpt>
      <trkpt lat="48.72838" lon="-3.39191">
        <ele>79</ele>
        <time>2015-01-25T10:34:20Z</time>
      </trkpt>
      <trkpt lat="48.72839" lon="-3.39179">
        <ele>79</ele>
        <time>2015-01-25T10:34:21Z</time>
      </trkpt>
      <trkpt lat="48.72839" lon="-3.39168">
        <ele>79</ele>
        <time>2015-01-25T10:34:22Z</time>
      </trkpt>
      <trkpt lat="48.72841" lon="-3.39156">
        <ele>79</ele>
        <time>2015-01-25T10:34:23Z</time>
      </trkpt>
      <trkpt lat="48.72842" lon="-3.39145">
        <ele>79</ele>
        <time>2015-01-25T10:34:24Z</time>
      </trkpt>
      <trkpt lat="48.72843" lon="-3.39134">
        <ele>79</ele>
        <time>2015-01-25T10:34:25Z</time>
      </trkpt>
      <trkpt lat="48.72844" lon="-3.39123">
        <ele>79</ele>
        <time>2015-01-25T10:34:26Z</time>
      </trkpt>
      <trkpt lat="48.72846" lon="-3.39112">
        <ele>79</ele>
        <time>2015-01-25T10:34:27Z</time>
      </trkpt>
      <trkpt lat="48.72847" lon="-3.39101">
        <ele>79</ele>
        <time>2015-01-25T10:34:28Z</time>
      </trkpt>
      <trkpt lat="48.72848" lon="-3.3909">
        <ele>79</ele>
        <time>2015-01-25T10:34:29Z</time>
      </trkpt>
      <trkpt lat="48.72849" lon="-3.39079">
        <ele>79</ele>
        <time>2015-01-25T10:34:30Z</time>
      </trkpt>
      <trkpt lat="48.7285" lon="-3.39068">
        <ele>79</ele>
        <time>2015-01-25T10:34:31Z</time>
      </trkpt>
      <trkpt lat="48.72852" lon="-3.39057">
        <ele>79</ele>
        <time>2015-01-25T10:34:32Z</time>
      </trkpt>
      <trkpt lat="48.72853" lon="-3.39046">
        <ele>79</ele>
        <time>2015-01-25T10:34:33Z</time>
      </trkpt>
      <trkpt lat="48.72855" lon="-3.39035">
        <ele>79</ele>
        <time>2015-01-25T10:34:34Z</time>
      </trkpt>
      <trkpt lat="48.72856" lon="-3.39023">
        <ele>79</ele>
        <time>2015-01-25T10:34:35Z</time>
      </trkpt>
      <trkpt lat="48.72857" lon="-3.39012">
        <ele>79</ele>
        <time>2015-01-25T10:34:36Z</time>
      </trkpt>
      <trkpt lat="48.72859" lon="-3.39001">
        <ele>79</ele>
        <time>2015-01-25T10:34:37Z</time>
      </trkpt>
      <trkpt lat="48.7286" lon="-3.38989">
        <ele>79</ele>
        <time>2015-01-25T10:34:38Z</time>
      </trkpt>
      <trkpt lat="48.72862" lon="-3.38978">
        <ele>79</ele>
        <time>2015-01-25T10:34:39Z</time>
      </trkpt>
      <trkpt lat="48.72863" lon="-3.38966">
        <ele>79</ele>
        <time>2015-01-25T10:34:40Z</time>
      </trkpt>
      <trkpt lat="48.72864" lon="-3.38955">
        <ele>79</ele>
        <time>2015-01-25T10:34:41Z</time>
      </trkpt>
      <trkpt lat="48.72866" lon="-3.38944">
        <ele>79</ele>
        <time>2015-01-25T10:34:42Z</time>
      </trkpt>
      <trkpt lat="48.72867" lon="-3.38932">
        <ele>79</ele>
        <time>2015-01-25T10:34:43Z</time>
      </trkpt>
      <trkpt lat="48.72868" lon="-3.38921">
        <ele>79</ele>
        <time>2015-01-25T10:34:44Z</time>
      </trkpt>
      <trkpt lat="48.72869" lon="-3.3891">
        <ele>79</ele>
        <time>2015-01-25T10:34:45Z</time>
      </trkpt>
      <trkpt lat="48.72871" lon="-3.38898">
        <ele>79</ele>
        <time>2015-01-25T10:34:46Z</time>
      </trkpt>
      <trkpt lat="48.72873" lon="-3.38887">
        <ele>79</ele>
        <time>2015-01-25T10:34:47Z</time>
      </trkpt>
      <trkpt lat="48.72874" lon="-3.38876">
        <ele>79</ele>
        <time>2015-01-25T10:34:48Z</time>
      </trkpt>
      <trkpt lat="48.72876" lon="-3.38864">
        <ele>79</ele>
        <time>2015-01-25T10:34:49Z</time>
      </trkpt>
      <trkpt lat="48.72877" lon="-3.38853">
        <ele>79</ele>
        <time>2015-01-25T10:34:50Z</time>
      </trkpt>
      <trkpt lat="48.72879" lon="-3.38842">
        <ele>79</ele>
        <time>2015-01-25T10:34:51Z</time>
      </trkpt>
      <trkpt lat="48.72881" lon="-3.3883">
        <ele>79</ele>
        <time>2015-01-25T10:34:52Z</time>
      </trkpt>
      <trkpt lat="48.72884" lon="-3.38819">
        <ele>79</ele>
        <time>2015-01-25T10:34:53Z</time>
      </trkpt>
      <trkpt lat="48.72887" lon="-3.38808">
        <ele>79</ele>
        <time>2015-01-25T10:34:54Z</time>
      </trkpt>
      <trkpt lat="48.7289" lon="-3.38798">
        <ele>79</ele>
        <time>2015-01-25T10:34:55Z</time>
      </trkpt>
      <trkpt lat="48.72894" lon="-3.38788">
        <ele>79</ele>
        <time>2015-01-25T10:34:56Z</time>
      </trkpt>
      <trkpt lat="48.72898" lon="-3.38777">
        <ele>79</ele>
        <time>2015-01-25T10:34:57Z</time>
      </trkpt>
      <trkpt lat="48.72902" lon="-3.38767">
        <ele>79</ele>
        <time>2015-01-25T10:34:58Z</time>
      </trkpt>
      <trkpt lat="48.72906" lon="-3.38757">
        <ele>79</ele>
        <time>2015-01-25T10:34:59Z</time>
      </trkpt>
      <trkpt lat="48.72909" lon="-3.38748">
        <ele>79</ele>
        <time>2015-01-25T10:35:00Z</time>
      </trkpt>
      <trkpt lat="48.72913" lon="-3.38739">
        <ele>79</ele>
        <time>2015-01-25T10:35:01Z</time>
      </trkpt>
      <trkpt lat="48.72916" lon="-3.3873">
        <ele>79</ele>
        <time>2015-01-25T10:35:02Z</time>
      </trkpt>
      <trkpt lat="48.72919" lon="-3.38721">
        <ele>79</ele>
        <time>2015-01-25T10:35:03Z</time>
      </trkpt>
      <trkpt lat="48.72921" lon="-3.38712">
        <ele>79</ele>
        <time>2015-01-25T10:35:04Z</time>
      </trkpt>
      <trkpt lat="48.72923" lon="-3.38703">
        <ele>79</ele>
        <time>2015-01-25T10:35:05Z</time>
      </trkpt>
      <trkpt lat="48.72924" lon="-3.38694">
        <ele>79</ele>
        <time>2015-01-25T10:35:06Z</time>
      </trkpt>
      <trkpt lat="48.72924" lon="-3.38685">
        <ele>79</ele>
        <time>2015-01-25T10:35:07Z</time>
      </trkpt>
      <trkpt lat="48.72924" lon="-3.38668">
        <ele>79</ele>
        <time>2015-01-25T10:35:09Z</time>
      </trkpt>
      <trkpt lat="48.72924" lon="-3.38661">
        <ele>79</ele>
        <time>2015-01-25T10:35:10Z</time>
      </trkpt>
      <trkpt lat="48.72923" lon="-3.38653">
        <ele>79</ele>
        <time>2015-01-25T10:35:11Z</time>
      </trkpt>
      <trkpt lat="48.72922" lon="-3.38646">
        <ele>79</ele>
        <time>2015-01-25T10:35:12Z</time>
      </trkpt>
      <trkpt lat="48.72921" lon="-3.3864">
        <ele>79</ele>
        <time>2015-01-25T10:35:13Z</time>
      </trkpt>
      <trkpt lat="48.72921" lon="-3.38633">
        <ele>79</ele>
        <time>2015-01-25T10:35:14Z</time>
      </trkpt>
      <trkpt lat="48.7292" lon="-3.38628">
        <ele>79</ele>
        <time>2015-01-25T10:35:15Z</time>
      </trkpt>
      <trkpt lat="48.7292" lon="-3.38622">
        <ele>79</ele>
        <time>2015-01-25T10:35:16Z</time>
      </trkpt>
      <trkpt lat="48.7292" lon="-3.38611">
        <ele>79</ele>
        <time>2015-01-25T10:35:18Z</time>
      </trkpt>
      <trkpt lat="48.72921" lon="-3.38605">
        <ele>79</ele>
        <time>2015-01-25T10:35:19Z</time>
      </trkpt>
      <trkpt lat="48.72921" lon="-3.38599">
        <ele>79</ele>
        <time>2015-01-25T10:35:20Z</time>
      </trkpt>
      <trkpt lat="48.72921" lon="-3.38593">
        <ele>79</ele>
        <time>2015-01-25T10:35:21Z</time>
      </trkpt>
      <trkpt lat="48.7292" lon="-3.38587">
        <ele>79</ele>
        <time>2015-01-25T10:35:22Z</time>
      </trkpt>
      <trkpt lat="48.72919" lon="-3.38581">
        <ele>79</ele>
        <time>2015-01-25T10:35:23Z</time>
      </trkpt>
      <trkpt lat="48.72917" lon="-3.38577">
        <ele>79</ele>
        <time>2015-01-25T10:35:24Z</time>
      </trkpt>
      <trkpt lat="48.72915" lon="-3.38572">
        <ele>79</ele>
        <time>2015-01-25T10:35:25Z</time>
      </trkpt>
      <trkpt lat="48.72913" lon="-3.38568">
        <ele>79</ele>
        <time>2015-01-25T10:35:26Z</time>
      </trkpt>
      <trkpt lat="48.72911" lon="-3.38563">
        <ele>79</ele>
        <time>2015-01-25T10:35:27Z</time>
      </trkpt>
      <trkpt lat="48.7291" lon="-3.38558">
        <ele>79</ele>
        <time>2015-01-25T10:35:28Z</time>
      </trkpt>
      <trkpt lat="48.72909" lon="-3.38553">
        <ele>79</ele>
        <time>2015-01-25T10:35:29Z</time>
      </trkpt>
      <trkpt lat="48.7291" lon="-3.38543">
        <ele>79</ele>
        <time>2015-01-25T10:35:31Z</time>
      </trkpt>
      <trkpt lat="48.72911" lon="-3.38538">
        <ele>79</ele>
        <time>2015-01-25T10:35:32Z</time>
      </trkpt>
      <trkpt lat="48.72912" lon="-3.38532">
        <ele>79</ele>
        <time>2015-01-25T10:35:33Z</time>
      </trkpt>
    </trkseg>
  </trk>
</gpx>